<?xml version='1.0' encoding='UTF-8'?>
<gpx version="1.1" creator="https://www.komoot.de" xmlns="http://www.topografix.com/GPX/1/1" xmlns:xsi="http://www.w3.org/2001/XMLSchema-instance" xsi:schemaLocation="http://www.topografix.com/GPX/1/1 http://www.topografix.com/GPX/1/1/gpx.xsd">
  <metadata>
    <name>Day 7: Pierrlatte to L'Isle-sur-la-Sorgue</name>
    <author>
      <link href="https://www.komoot.de">
        <text>komoot</text>
        <type>text/html</type>
      </link>
    </author>
  </metadata>
  <trk>
    <name>Day 7: Pierrlatte to L'Isle-sur-la-Sorgue</name>
    <trkseg>
      <trkpt lat="44.363655" lon="4.694110">
        <ele>107.292053</ele>
        <time>2017-06-07T06:26:42.000Z</time>
      </trkpt>
      <trkpt lat="44.363686" lon="4.694264">
        <ele>107.292053</ele>
        <time>2017-06-07T06:27:26.000Z</time>
      </trkpt>
      <trkpt lat="44.363792" lon="4.694423">
        <ele>107.292053</ele>
        <time>2017-06-07T06:28:22.000Z</time>
      </trkpt>
      <trkpt lat="44.363888" lon="4.694448">
        <ele>107.292053</ele>
        <time>2017-06-07T06:28:30.000Z</time>
      </trkpt>
      <trkpt lat="44.363796" lon="4.694475">
        <ele>107.292053</ele>
        <time>2017-06-07T06:30:39.000Z</time>
      </trkpt>
      <trkpt lat="44.363930" lon="4.694470">
        <ele>107.292053</ele>
        <time>2017-06-07T06:31:31.000Z</time>
      </trkpt>
      <trkpt lat="44.363840" lon="4.694458">
        <ele>107.292053</ele>
        <time>2017-06-07T06:32:21.000Z</time>
      </trkpt>
      <trkpt lat="44.363934" lon="4.694441">
        <ele>107.292053</ele>
        <time>2017-06-07T06:34:34.000Z</time>
      </trkpt>
      <trkpt lat="44.364037" lon="4.694413">
        <ele>107.292053</ele>
        <time>2017-06-07T06:35:12.000Z</time>
      </trkpt>
      <trkpt lat="44.364124" lon="4.694338">
        <ele>107.321475</ele>
        <time>2017-06-07T06:35:17.000Z</time>
      </trkpt>
      <trkpt lat="44.364220" lon="4.694296">
        <ele>107.354916</ele>
        <time>2017-06-07T06:35:23.000Z</time>
      </trkpt>
      <trkpt lat="44.364260" lon="4.694174">
        <ele>107.386818</ele>
        <time>2017-06-07T06:35:28.000Z</time>
      </trkpt>
      <trkpt lat="44.364258" lon="4.694033">
        <ele>107.420338</ele>
        <time>2017-06-07T06:35:34.000Z</time>
      </trkpt>
      <trkpt lat="44.364204" lon="4.693913">
        <ele>107.454040</ele>
        <time>2017-06-07T06:35:41.000Z</time>
      </trkpt>
      <trkpt lat="44.364117" lon="4.693890">
        <ele>107.483477</ele>
        <time>2017-06-07T06:35:47.000Z</time>
      </trkpt>
      <trkpt lat="44.364020" lon="4.693884">
        <ele>107.515758</ele>
        <time>2017-06-07T06:35:53.000Z</time>
      </trkpt>
      <trkpt lat="44.363926" lon="4.693862">
        <ele>107.547445</ele>
        <time>2017-06-07T06:35:59.000Z</time>
      </trkpt>
      <trkpt lat="44.363830" lon="4.693836">
        <ele>107.579954</ele>
        <time>2017-06-07T06:36:04.000Z</time>
      </trkpt>
      <trkpt lat="44.363724" lon="4.693820">
        <ele>107.615401</ele>
        <time>2017-06-07T06:36:09.000Z</time>
      </trkpt>
      <trkpt lat="44.363625" lon="4.693800">
        <ele>107.648657</ele>
        <time>2017-06-07T06:36:14.000Z</time>
      </trkpt>
      <trkpt lat="44.363518" lon="4.693790">
        <ele>107.684310</ele>
        <time>2017-06-07T06:36:19.000Z</time>
      </trkpt>
      <trkpt lat="44.363415" lon="4.693771">
        <ele>107.718851</ele>
        <time>2017-06-07T06:36:24.000Z</time>
      </trkpt>
      <trkpt lat="44.363304" lon="4.693759">
        <ele>107.755865</ele>
        <time>2017-06-07T06:36:29.000Z</time>
      </trkpt>
      <trkpt lat="44.363174" lon="4.693746">
        <ele>107.799196</ele>
        <time>2017-06-07T06:36:35.000Z</time>
      </trkpt>
      <trkpt lat="44.363060" lon="4.693724">
        <ele>107.837457</ele>
        <time>2017-06-07T06:36:40.000Z</time>
      </trkpt>
      <trkpt lat="44.362970" lon="4.693703">
        <ele>107.867792</ele>
        <time>2017-06-07T06:36:44.000Z</time>
      </trkpt>
      <trkpt lat="44.362873" lon="4.693695">
        <ele>107.871650</ele>
        <time>2017-06-07T06:36:48.000Z</time>
      </trkpt>
      <trkpt lat="44.362755" lon="4.693684">
        <ele>107.799704</ele>
        <time>2017-06-07T06:36:53.000Z</time>
      </trkpt>
      <trkpt lat="44.362656" lon="4.693661">
        <ele>107.738651</ele>
        <time>2017-06-07T06:36:57.000Z</time>
      </trkpt>
      <trkpt lat="44.362606" lon="4.693763">
        <ele>107.684861</ele>
        <time>2017-06-07T06:37:03.000Z</time>
      </trkpt>
      <trkpt lat="44.362526" lon="4.693847">
        <ele>107.624005</ele>
        <time>2017-06-07T06:37:08.000Z</time>
      </trkpt>
      <trkpt lat="44.362423" lon="4.693840">
        <ele>107.561270</ele>
        <time>2017-06-07T06:37:14.000Z</time>
      </trkpt>
      <trkpt lat="44.362324" lon="4.693826">
        <ele>107.500735</ele>
        <time>2017-06-07T06:37:18.000Z</time>
      </trkpt>
      <trkpt lat="44.362220" lon="4.693810">
        <ele>107.437084</ele>
        <time>2017-06-07T06:37:22.000Z</time>
      </trkpt>
      <trkpt lat="44.362118" lon="4.693850">
        <ele>107.372639</ele>
        <time>2017-06-07T06:37:27.000Z</time>
      </trkpt>
      <trkpt lat="44.362026" lon="4.693927">
        <ele>107.307415</ele>
        <time>2017-06-07T06:37:32.000Z</time>
      </trkpt>
      <trkpt lat="44.361950" lon="4.694007">
        <ele>107.249549</ele>
        <time>2017-06-07T06:37:36.000Z</time>
      </trkpt>
      <trkpt lat="44.361866" lon="4.694068">
        <ele>107.191970</ele>
        <time>2017-06-07T06:37:39.000Z</time>
      </trkpt>
      <trkpt lat="44.361780" lon="4.694150">
        <ele>107.128651</ele>
        <time>2017-06-07T06:37:43.000Z</time>
      </trkpt>
      <trkpt lat="44.361683" lon="4.694224">
        <ele>107.061434</ele>
        <time>2017-06-07T06:37:47.000Z</time>
      </trkpt>
      <trkpt lat="44.361584" lon="4.694235">
        <ele>107.001016</ele>
        <time>2017-06-07T06:37:51.000Z</time>
      </trkpt>
      <trkpt lat="44.361496" lon="4.694143">
        <ele>106.934178</ele>
        <time>2017-06-07T06:37:55.000Z</time>
      </trkpt>
      <trkpt lat="44.361423" lon="4.694039">
        <ele>106.870788</ele>
        <time>2017-06-07T06:37:59.000Z</time>
      </trkpt>
      <trkpt lat="44.361324" lon="4.693993">
        <ele>106.807324</ele>
        <time>2017-06-07T06:38:03.000Z</time>
      </trkpt>
      <trkpt lat="44.361233" lon="4.693936">
        <ele>106.773064</ele>
        <time>2017-06-07T06:38:07.000Z</time>
      </trkpt>
      <trkpt lat="44.361130" lon="4.693951">
        <ele>106.743899</ele>
        <time>2017-06-07T06:38:12.000Z</time>
      </trkpt>
      <trkpt lat="44.361042" lon="4.693990">
        <ele>106.717901</ele>
        <time>2017-06-07T06:38:19.000Z</time>
      </trkpt>
      <trkpt lat="44.361130" lon="4.693884">
        <ele>106.685194</ele>
        <time>2017-06-07T06:38:34.000Z</time>
      </trkpt>
      <trkpt lat="44.361210" lon="4.693830">
        <ele>106.660176</ele>
        <time>2017-06-07T06:38:37.000Z</time>
      </trkpt>
      <trkpt lat="44.361300" lon="4.693728">
        <ele>106.627553</ele>
        <time>2017-06-07T06:38:41.000Z</time>
      </trkpt>
      <trkpt lat="44.361404" lon="4.693652">
        <ele>106.594507</ele>
        <time>2017-06-07T06:38:45.000Z</time>
      </trkpt>
      <trkpt lat="44.361458" lon="4.693547">
        <ele>106.568463</ele>
        <time>2017-06-07T06:38:50.000Z</time>
      </trkpt>
      <trkpt lat="44.361420" lon="4.693419">
        <ele>106.540556</ele>
        <time>2017-06-07T06:39:02.000Z</time>
      </trkpt>
      <trkpt lat="44.361430" lon="4.693294">
        <ele>106.515230</ele>
        <time>2017-06-07T06:39:13.000Z</time>
      </trkpt>
      <trkpt lat="44.361350" lon="4.693201">
        <ele>106.485933</ele>
        <time>2017-06-07T06:39:19.000Z</time>
      </trkpt>
      <trkpt lat="44.361267" lon="4.693148">
        <ele>106.460237</ele>
        <time>2017-06-07T06:39:23.000Z</time>
      </trkpt>
      <trkpt lat="44.361170" lon="4.693096">
        <ele>106.430981</ele>
        <time>2017-06-07T06:39:27.000Z</time>
      </trkpt>
      <trkpt lat="44.361084" lon="4.693053">
        <ele>106.405259</ele>
        <time>2017-06-07T06:39:31.000Z</time>
      </trkpt>
      <trkpt lat="44.360970" lon="4.693032">
        <ele>106.372876</ele>
        <time>2017-06-07T06:39:36.000Z</time>
      </trkpt>
      <trkpt lat="44.360878" lon="4.693012">
        <ele>106.346654</ele>
        <time>2017-06-07T06:39:39.000Z</time>
      </trkpt>
      <trkpt lat="44.360760" lon="4.692987">
        <ele>106.313042</ele>
        <time>2017-06-07T06:39:42.000Z</time>
      </trkpt>
      <trkpt lat="44.360626" lon="4.692957">
        <ele>106.283577</ele>
        <time>2017-06-07T06:39:45.000Z</time>
      </trkpt>
      <trkpt lat="44.360535" lon="4.692936">
        <ele>106.273351</ele>
        <time>2017-06-07T06:39:47.000Z</time>
      </trkpt>
      <trkpt lat="44.360424" lon="4.692884">
        <ele>106.260372</ele>
        <time>2017-06-07T06:39:50.000Z</time>
      </trkpt>
      <trkpt lat="44.360330" lon="4.692852">
        <ele>106.249645</ele>
        <time>2017-06-07T06:39:56.000Z</time>
      </trkpt>
      <trkpt lat="44.360230" lon="4.692859">
        <ele>106.238543</ele>
        <time>2017-06-07T06:40:01.000Z</time>
      </trkpt>
      <trkpt lat="44.360115" lon="4.692863">
        <ele>106.225789</ele>
        <time>2017-06-07T06:40:05.000Z</time>
      </trkpt>
      <trkpt lat="44.360010" lon="4.692867">
        <ele>106.214142</ele>
        <time>2017-06-07T06:40:08.000Z</time>
      </trkpt>
      <trkpt lat="44.359886" lon="4.692864">
        <ele>106.200391</ele>
        <time>2017-06-07T06:40:11.000Z</time>
      </trkpt>
      <trkpt lat="44.359790" lon="4.692862">
        <ele>106.189746</ele>
        <time>2017-06-07T06:40:13.000Z</time>
      </trkpt>
      <trkpt lat="44.359660" lon="4.692864">
        <ele>106.175331</ele>
        <time>2017-06-07T06:40:16.000Z</time>
      </trkpt>
      <trkpt lat="44.359566" lon="4.692868">
        <ele>106.164904</ele>
        <time>2017-06-07T06:40:18.000Z</time>
      </trkpt>
      <trkpt lat="44.359474" lon="4.692871">
        <ele>106.154701</ele>
        <time>2017-06-07T06:40:20.000Z</time>
      </trkpt>
      <trkpt lat="44.359380" lon="4.692871">
        <ele>106.144278</ele>
        <time>2017-06-07T06:40:22.000Z</time>
      </trkpt>
      <trkpt lat="44.359280" lon="4.692863">
        <ele>106.133172</ele>
        <time>2017-06-07T06:40:24.000Z</time>
      </trkpt>
      <trkpt lat="44.359188" lon="4.692864">
        <ele>106.122971</ele>
        <time>2017-06-07T06:40:26.000Z</time>
      </trkpt>
      <trkpt lat="44.359097" lon="4.692867">
        <ele>106.112879</ele>
        <time>2017-06-07T06:40:28.000Z</time>
      </trkpt>
      <trkpt lat="44.358997" lon="4.692864">
        <ele>106.101789</ele>
        <time>2017-06-07T06:40:30.000Z</time>
      </trkpt>
      <trkpt lat="44.358894" lon="4.692868">
        <ele>106.090364</ele>
        <time>2017-06-07T06:40:32.000Z</time>
      </trkpt>
      <trkpt lat="44.358784" lon="4.692867">
        <ele>106.192115</ele>
        <time>2017-06-07T06:40:34.000Z</time>
      </trkpt>
      <trkpt lat="44.358677" lon="4.692877">
        <ele>106.296360</ele>
        <time>2017-06-07T06:40:36.000Z</time>
      </trkpt>
      <trkpt lat="44.358566" lon="4.692884">
        <ele>106.404371</ele>
        <time>2017-06-07T06:40:38.000Z</time>
      </trkpt>
      <trkpt lat="44.358450" lon="4.692889">
        <ele>106.517186</ele>
        <time>2017-06-07T06:40:40.000Z</time>
      </trkpt>
      <trkpt lat="44.358337" lon="4.692899">
        <ele>106.627251</ele>
        <time>2017-06-07T06:40:42.000Z</time>
      </trkpt>
      <trkpt lat="44.358210" lon="4.692913">
        <ele>106.751088</ele>
        <time>2017-06-07T06:40:44.000Z</time>
      </trkpt>
      <trkpt lat="44.358086" lon="4.692928">
        <ele>106.872076</ele>
        <time>2017-06-07T06:40:46.000Z</time>
      </trkpt>
      <trkpt lat="44.357960" lon="4.692937">
        <ele>106.994718</ele>
        <time>2017-06-07T06:40:48.000Z</time>
      </trkpt>
      <trkpt lat="44.357845" lon="4.692948">
        <ele>107.106769</ele>
        <time>2017-06-07T06:40:50.000Z</time>
      </trkpt>
      <trkpt lat="44.357723" lon="4.692964">
        <ele>107.225883</ele>
        <time>2017-06-07T06:40:52.000Z</time>
      </trkpt>
      <trkpt lat="44.357597" lon="4.692981">
        <ele>107.348934</ele>
        <time>2017-06-07T06:40:54.000Z</time>
      </trkpt>
      <trkpt lat="44.357470" lon="4.693005">
        <ele>107.473510</ele>
        <time>2017-06-07T06:40:56.000Z</time>
      </trkpt>
      <trkpt lat="44.357346" lon="4.693029">
        <ele>107.595197</ele>
        <time>2017-06-07T06:40:58.000Z</time>
      </trkpt>
      <trkpt lat="44.357230" lon="4.693053">
        <ele>107.709186</ele>
        <time>2017-06-07T06:41:00.000Z</time>
      </trkpt>
      <trkpt lat="44.357120" lon="4.693065">
        <ele>107.816440</ele>
        <time>2017-06-07T06:41:02.000Z</time>
      </trkpt>
      <trkpt lat="44.357002" lon="4.693083">
        <ele>107.796552</ele>
        <time>2017-06-07T06:41:04.000Z</time>
      </trkpt>
      <trkpt lat="44.356888" lon="4.693095">
        <ele>107.747009</ele>
        <time>2017-06-07T06:41:06.000Z</time>
      </trkpt>
      <trkpt lat="44.356766" lon="4.693115">
        <ele>107.693778</ele>
        <time>2017-06-07T06:41:08.000Z</time>
      </trkpt>
      <trkpt lat="44.356650" lon="4.693129">
        <ele>107.643321</ele>
        <time>2017-06-07T06:41:10.000Z</time>
      </trkpt>
      <trkpt lat="44.356525" lon="4.693147">
        <ele>107.588865</ele>
        <time>2017-06-07T06:41:12.000Z</time>
      </trkpt>
      <trkpt lat="44.356400" lon="4.693166">
        <ele>107.534376</ele>
        <time>2017-06-07T06:41:14.000Z</time>
      </trkpt>
      <trkpt lat="44.356280" lon="4.693188">
        <ele>107.481928</ele>
        <time>2017-06-07T06:41:16.000Z</time>
      </trkpt>
      <trkpt lat="44.356155" lon="4.693212">
        <ele>107.427251</ele>
        <time>2017-06-07T06:41:18.000Z</time>
      </trkpt>
      <trkpt lat="44.356030" lon="4.693228">
        <ele>107.372854</ele>
        <time>2017-06-07T06:41:20.000Z</time>
      </trkpt>
      <trkpt lat="44.355904" lon="4.693234">
        <ele>107.318219</ele>
        <time>2017-06-07T06:41:22.000Z</time>
      </trkpt>
      <trkpt lat="44.355785" lon="4.693226">
        <ele>107.266590</ele>
        <time>2017-06-07T06:41:24.000Z</time>
      </trkpt>
      <trkpt lat="44.355663" lon="4.693218">
        <ele>107.213662</ele>
        <time>2017-06-07T06:41:26.000Z</time>
      </trkpt>
      <trkpt lat="44.355537" lon="4.693206">
        <ele>107.158933</ele>
        <time>2017-06-07T06:41:28.000Z</time>
      </trkpt>
      <trkpt lat="44.355410" lon="4.693199">
        <ele>107.103854</ele>
        <time>2017-06-07T06:41:30.000Z</time>
      </trkpt>
      <trkpt lat="44.355286" lon="4.693192">
        <ele>107.058529</ele>
        <time>2017-06-07T06:41:32.000Z</time>
      </trkpt>
      <trkpt lat="44.355160" lon="4.693182">
        <ele>107.056797</ele>
        <time>2017-06-07T06:41:34.000Z</time>
      </trkpt>
      <trkpt lat="44.355030" lon="4.693166">
        <ele>107.055006</ele>
        <time>2017-06-07T06:41:36.000Z</time>
      </trkpt>
      <trkpt lat="44.354904" lon="4.693150">
        <ele>107.053270</ele>
        <time>2017-06-07T06:41:38.000Z</time>
      </trkpt>
      <trkpt lat="44.354790" lon="4.693130">
        <ele>107.051693</ele>
        <time>2017-06-07T06:41:40.000Z</time>
      </trkpt>
      <trkpt lat="44.354680" lon="4.693109">
        <ele>107.050170</ele>
        <time>2017-06-07T06:41:42.000Z</time>
      </trkpt>
      <trkpt lat="44.354565" lon="4.693086">
        <ele>107.048576</ele>
        <time>2017-06-07T06:41:44.000Z</time>
      </trkpt>
      <trkpt lat="44.354446" lon="4.693059">
        <ele>107.046922</ele>
        <time>2017-06-07T06:41:46.000Z</time>
      </trkpt>
      <trkpt lat="44.354324" lon="4.693026">
        <ele>107.045216</ele>
        <time>2017-06-07T06:41:48.000Z</time>
      </trkpt>
      <trkpt lat="44.354206" lon="4.692999">
        <ele>107.043576</ele>
        <time>2017-06-07T06:41:50.000Z</time>
      </trkpt>
      <trkpt lat="44.354090" lon="4.692970">
        <ele>107.041959</ele>
        <time>2017-06-07T06:41:52.000Z</time>
      </trkpt>
      <trkpt lat="44.353970" lon="4.692946">
        <ele>107.040295</ele>
        <time>2017-06-07T06:41:54.000Z</time>
      </trkpt>
      <trkpt lat="44.353850" lon="4.692918">
        <ele>107.038626</ele>
        <time>2017-06-07T06:41:56.000Z</time>
      </trkpt>
      <trkpt lat="44.353737" lon="4.692897">
        <ele>107.037062</ele>
        <time>2017-06-07T06:41:58.000Z</time>
      </trkpt>
      <trkpt lat="44.353634" lon="4.692878">
        <ele>107.035636</ele>
        <time>2017-06-07T06:42:00.000Z</time>
      </trkpt>
      <trkpt lat="44.353527" lon="4.692854">
        <ele>107.034149</ele>
        <time>2017-06-07T06:42:02.000Z</time>
      </trkpt>
      <trkpt lat="44.353420" lon="4.692830">
        <ele>107.060736</ele>
        <time>2017-06-07T06:42:04.000Z</time>
      </trkpt>
      <trkpt lat="44.353320" lon="4.692802">
        <ele>107.086210</ele>
        <time>2017-06-07T06:42:06.000Z</time>
      </trkpt>
      <trkpt lat="44.353218" lon="4.692781">
        <ele>107.111964</ele>
        <time>2017-06-07T06:42:08.000Z</time>
      </trkpt>
      <trkpt lat="44.353107" lon="4.692749">
        <ele>107.140273</ele>
        <time>2017-06-07T06:42:10.000Z</time>
      </trkpt>
      <trkpt lat="44.352997" lon="4.692715">
        <ele>107.168413</ele>
        <time>2017-06-07T06:42:12.000Z</time>
      </trkpt>
      <trkpt lat="44.352882" lon="4.692689">
        <ele>107.197512</ele>
        <time>2017-06-07T06:42:14.000Z</time>
      </trkpt>
      <trkpt lat="44.352770" lon="4.692664">
        <ele>107.225843</ele>
        <time>2017-06-07T06:42:16.000Z</time>
      </trkpt>
      <trkpt lat="44.352660" lon="4.692642">
        <ele>107.253599</ele>
        <time>2017-06-07T06:42:18.000Z</time>
      </trkpt>
      <trkpt lat="44.352543" lon="4.692620">
        <ele>107.283087</ele>
        <time>2017-06-07T06:42:20.000Z</time>
      </trkpt>
      <trkpt lat="44.352425" lon="4.692590">
        <ele>107.313046</ele>
        <time>2017-06-07T06:42:22.000Z</time>
      </trkpt>
      <trkpt lat="44.352314" lon="4.692565">
        <ele>107.341130</ele>
        <time>2017-06-07T06:42:24.000Z</time>
      </trkpt>
      <trkpt lat="44.352196" lon="4.692527">
        <ele>107.371376</ele>
        <time>2017-06-07T06:42:26.000Z</time>
      </trkpt>
      <trkpt lat="44.352077" lon="4.692497">
        <ele>107.401580</ele>
        <time>2017-06-07T06:42:28.000Z</time>
      </trkpt>
      <trkpt lat="44.351963" lon="4.692478">
        <ele>107.430258</ele>
        <time>2017-06-07T06:42:30.000Z</time>
      </trkpt>
      <trkpt lat="44.351845" lon="4.692452">
        <ele>107.460097</ele>
        <time>2017-06-07T06:42:32.000Z</time>
      </trkpt>
      <trkpt lat="44.351723" lon="4.692417">
        <ele>107.472763</ele>
        <time>2017-06-07T06:42:34.000Z</time>
      </trkpt>
      <trkpt lat="44.351593" lon="4.692380">
        <ele>107.427537</ele>
        <time>2017-06-07T06:42:36.000Z</time>
      </trkpt>
      <trkpt lat="44.351463" lon="4.692351">
        <ele>107.382660</ele>
        <time>2017-06-07T06:42:38.000Z</time>
      </trkpt>
      <trkpt lat="44.351337" lon="4.692328">
        <ele>107.339343</ele>
        <time>2017-06-07T06:42:40.000Z</time>
      </trkpt>
      <trkpt lat="44.351215" lon="4.692298">
        <ele>107.297115</ele>
        <time>2017-06-07T06:42:42.000Z</time>
      </trkpt>
      <trkpt lat="44.351100" lon="4.692273">
        <ele>107.257441</ele>
        <time>2017-06-07T06:42:44.000Z</time>
      </trkpt>
      <trkpt lat="44.350986" lon="4.692258">
        <ele>107.218407</ele>
        <time>2017-06-07T06:42:46.000Z</time>
      </trkpt>
      <trkpt lat="44.350864" lon="4.692232">
        <ele>107.176337</ele>
        <time>2017-06-07T06:42:48.000Z</time>
      </trkpt>
      <trkpt lat="44.350746" lon="4.692208">
        <ele>107.135687</ele>
        <time>2017-06-07T06:42:50.000Z</time>
      </trkpt>
      <trkpt lat="44.350624" lon="4.692185">
        <ele>107.093722</ele>
        <time>2017-06-07T06:42:52.000Z</time>
      </trkpt>
      <trkpt lat="44.350502" lon="4.692166">
        <ele>107.051875</ele>
        <time>2017-06-07T06:42:54.000Z</time>
      </trkpt>
      <trkpt lat="44.350390" lon="4.692138">
        <ele>107.013089</ele>
        <time>2017-06-07T06:42:56.000Z</time>
      </trkpt>
      <trkpt lat="44.350273" lon="4.692120">
        <ele>106.972963</ele>
        <time>2017-06-07T06:42:58.000Z</time>
      </trkpt>
      <trkpt lat="44.350160" lon="4.692099">
        <ele>106.934103</ele>
        <time>2017-06-07T06:43:00.000Z</time>
      </trkpt>
      <trkpt lat="44.350040" lon="4.692076">
        <ele>106.892813</ele>
        <time>2017-06-07T06:43:02.000Z</time>
      </trkpt>
      <trkpt lat="44.349922" lon="4.692047">
        <ele>106.842445</ele>
        <time>2017-06-07T06:43:04.000Z</time>
      </trkpt>
      <trkpt lat="44.349800" lon="4.692015">
        <ele>106.778084</ele>
        <time>2017-06-07T06:43:06.000Z</time>
      </trkpt>
      <trkpt lat="44.349680" lon="4.691979">
        <ele>106.714447</ele>
        <time>2017-06-07T06:43:08.000Z</time>
      </trkpt>
      <trkpt lat="44.349570" lon="4.691955">
        <ele>106.656720</ele>
        <time>2017-06-07T06:43:10.000Z</time>
      </trkpt>
      <trkpt lat="44.349453" lon="4.691929">
        <ele>106.595293</ele>
        <time>2017-06-07T06:43:12.000Z</time>
      </trkpt>
      <trkpt lat="44.349340" lon="4.691907">
        <ele>106.536136</ele>
        <time>2017-06-07T06:43:14.000Z</time>
      </trkpt>
      <trkpt lat="44.349216" lon="4.691880">
        <ele>106.471066</ele>
        <time>2017-06-07T06:43:16.000Z</time>
      </trkpt>
      <trkpt lat="44.349102" lon="4.691861">
        <ele>106.411537</ele>
        <time>2017-06-07T06:43:18.000Z</time>
      </trkpt>
      <trkpt lat="44.348995" lon="4.691835">
        <ele>106.355225</ele>
        <time>2017-06-07T06:43:20.000Z</time>
      </trkpt>
      <trkpt lat="44.348885" lon="4.691786">
        <ele>106.295365</ele>
        <time>2017-06-07T06:43:22.000Z</time>
      </trkpt>
      <trkpt lat="44.348778" lon="4.691765">
        <ele>106.239340</ele>
        <time>2017-06-07T06:43:24.000Z</time>
      </trkpt>
      <trkpt lat="44.348667" lon="4.691746">
        <ele>106.181356</ele>
        <time>2017-06-07T06:43:26.000Z</time>
      </trkpt>
      <trkpt lat="44.348553" lon="4.691727">
        <ele>106.121827</ele>
        <time>2017-06-07T06:43:28.000Z</time>
      </trkpt>
      <trkpt lat="44.348440" lon="4.691695">
        <ele>106.062046</ele>
        <time>2017-06-07T06:43:30.000Z</time>
      </trkpt>
      <trkpt lat="44.348335" lon="4.691673">
        <ele>106.006994</ele>
        <time>2017-06-07T06:43:32.000Z</time>
      </trkpt>
      <trkpt lat="44.348236" lon="4.691646">
        <ele>105.954694</ele>
        <time>2017-06-07T06:43:34.000Z</time>
      </trkpt>
      <trkpt lat="44.348133" lon="4.691627">
        <ele>105.978478</ele>
        <time>2017-06-07T06:43:36.000Z</time>
      </trkpt>
      <trkpt lat="44.348026" lon="4.691614">
        <ele>106.040278</ele>
        <time>2017-06-07T06:43:38.000Z</time>
      </trkpt>
      <trkpt lat="44.347923" lon="4.691588">
        <ele>106.100503</ele>
        <time>2017-06-07T06:43:40.000Z</time>
      </trkpt>
      <trkpt lat="44.347810" lon="4.691564">
        <ele>106.166269</ele>
        <time>2017-06-07T06:43:42.000Z</time>
      </trkpt>
      <trkpt lat="44.347690" lon="4.691535">
        <ele>106.236342</ele>
        <time>2017-06-07T06:43:44.000Z</time>
      </trkpt>
      <trkpt lat="44.347576" lon="4.691510">
        <ele>106.302740</ele>
        <time>2017-06-07T06:43:46.000Z</time>
      </trkpt>
      <trkpt lat="44.347454" lon="4.691488">
        <ele>106.373520</ele>
        <time>2017-06-07T06:43:48.000Z</time>
      </trkpt>
      <trkpt lat="44.347347" lon="4.691459">
        <ele>106.436234</ele>
        <time>2017-06-07T06:43:50.000Z</time>
      </trkpt>
      <trkpt lat="44.347233" lon="4.691425">
        <ele>106.503306</ele>
        <time>2017-06-07T06:43:52.000Z</time>
      </trkpt>
      <trkpt lat="44.347120" lon="4.691396">
        <ele>106.569413</ele>
        <time>2017-06-07T06:43:54.000Z</time>
      </trkpt>
      <trkpt lat="44.347004" lon="4.691366">
        <ele>106.637292</ele>
        <time>2017-06-07T06:43:56.000Z</time>
      </trkpt>
      <trkpt lat="44.346886" lon="4.691336">
        <ele>106.706303</ele>
        <time>2017-06-07T06:43:58.000Z</time>
      </trkpt>
      <trkpt lat="44.346770" lon="4.691311">
        <ele>106.773838</ele>
        <time>2017-06-07T06:44:00.000Z</time>
      </trkpt>
      <trkpt lat="44.346657" lon="4.691287">
        <ele>106.839604</ele>
        <time>2017-06-07T06:44:02.000Z</time>
      </trkpt>
      <trkpt lat="44.346542" lon="4.691269">
        <ele>106.906189</ele>
        <time>2017-06-07T06:44:04.000Z</time>
      </trkpt>
      <trkpt lat="44.346428" lon="4.691237">
        <ele>106.972983</ele>
        <time>2017-06-07T06:44:06.000Z</time>
      </trkpt>
      <trkpt lat="44.346317" lon="4.691204">
        <ele>107.024138</ele>
        <time>2017-06-07T06:44:08.000Z</time>
      </trkpt>
      <trkpt lat="44.346203" lon="4.691177">
        <ele>107.076259</ele>
        <time>2017-06-07T06:44:10.000Z</time>
      </trkpt>
      <trkpt lat="44.346090" lon="4.691150">
        <ele>107.127935</ele>
        <time>2017-06-07T06:44:12.000Z</time>
      </trkpt>
      <trkpt lat="44.345978" lon="4.691134">
        <ele>107.178686</ele>
        <time>2017-06-07T06:44:14.000Z</time>
      </trkpt>
      <trkpt lat="44.345863" lon="4.691108">
        <ele>107.231199</ele>
        <time>2017-06-07T06:44:16.000Z</time>
      </trkpt>
      <trkpt lat="44.345753" lon="4.691074">
        <ele>107.281981</ele>
        <time>2017-06-07T06:44:18.000Z</time>
      </trkpt>
      <trkpt lat="44.345640" lon="4.691045">
        <ele>107.333770</ele>
        <time>2017-06-07T06:44:20.000Z</time>
      </trkpt>
      <trkpt lat="44.345530" lon="4.691015">
        <ele>107.384291</ele>
        <time>2017-06-07T06:44:22.000Z</time>
      </trkpt>
      <trkpt lat="44.345440" lon="4.690977">
        <ele>107.426670</ele>
        <time>2017-06-07T06:44:24.000Z</time>
      </trkpt>
      <trkpt lat="44.345337" lon="4.690936">
        <ele>107.474945</ele>
        <time>2017-06-07T06:44:26.000Z</time>
      </trkpt>
      <trkpt lat="44.345234" lon="4.690902">
        <ele>107.522651</ele>
        <time>2017-06-07T06:44:28.000Z</time>
      </trkpt>
      <trkpt lat="44.345127" lon="4.690873">
        <ele>107.571783</ele>
        <time>2017-06-07T06:44:30.000Z</time>
      </trkpt>
      <trkpt lat="44.345028" lon="4.690853">
        <ele>107.616873</ele>
        <time>2017-06-07T06:44:32.000Z</time>
      </trkpt>
      <trkpt lat="44.344925" lon="4.690836">
        <ele>107.663626</ele>
        <time>2017-06-07T06:44:34.000Z</time>
      </trkpt>
      <trkpt lat="44.344826" lon="4.690816">
        <ele>107.708717</ele>
        <time>2017-06-07T06:44:36.000Z</time>
      </trkpt>
      <trkpt lat="44.344720" lon="4.690796">
        <ele>107.756932</ele>
        <time>2017-06-07T06:44:38.000Z</time>
      </trkpt>
      <trkpt lat="44.344610" lon="4.690781">
        <ele>107.750431</ele>
        <time>2017-06-07T06:44:40.000Z</time>
      </trkpt>
      <trkpt lat="44.344498" lon="4.690769">
        <ele>107.679079</ele>
        <time>2017-06-07T06:44:42.000Z</time>
      </trkpt>
      <trkpt lat="44.344387" lon="4.690752">
        <ele>107.608150</ele>
        <time>2017-06-07T06:44:44.000Z</time>
      </trkpt>
      <trkpt lat="44.344280" lon="4.690730">
        <ele>107.539451</ele>
        <time>2017-06-07T06:44:46.000Z</time>
      </trkpt>
      <trkpt lat="44.344170" lon="4.690718">
        <ele>107.469366</ele>
        <time>2017-06-07T06:44:48.000Z</time>
      </trkpt>
      <trkpt lat="44.344063" lon="4.690710">
        <ele>107.401302</ele>
        <time>2017-06-07T06:44:50.000Z</time>
      </trkpt>
      <trkpt lat="44.343952" lon="4.690695">
        <ele>107.330465</ele>
        <time>2017-06-07T06:44:52.000Z</time>
      </trkpt>
      <trkpt lat="44.343850" lon="4.690671">
        <ele>107.264763</ele>
        <time>2017-06-07T06:44:54.000Z</time>
      </trkpt>
      <trkpt lat="44.343746" lon="4.690648">
        <ele>107.197880</ele>
        <time>2017-06-07T06:44:56.000Z</time>
      </trkpt>
      <trkpt lat="44.343643" lon="4.690629">
        <ele>107.131887</ele>
        <time>2017-06-07T06:44:58.000Z</time>
      </trkpt>
      <trkpt lat="44.343536" lon="4.690603">
        <ele>107.062901</ele>
        <time>2017-06-07T06:45:00.000Z</time>
      </trkpt>
      <trkpt lat="44.343426" lon="4.690579">
        <ele>106.992182</ele>
        <time>2017-06-07T06:45:02.000Z</time>
      </trkpt>
      <trkpt lat="44.343315" lon="4.690552">
        <ele>106.920615</ele>
        <time>2017-06-07T06:45:04.000Z</time>
      </trkpt>
      <trkpt lat="44.343197" lon="4.690524">
        <ele>106.844589</ele>
        <time>2017-06-07T06:45:06.000Z</time>
      </trkpt>
      <trkpt lat="44.343082" lon="4.690500">
        <ele>106.770731</ele>
        <time>2017-06-07T06:45:08.000Z</time>
      </trkpt>
      <trkpt lat="44.342970" lon="4.690476">
        <ele>106.698757</ele>
        <time>2017-06-07T06:45:10.000Z</time>
      </trkpt>
      <trkpt lat="44.342860" lon="4.690450">
        <ele>106.646513</ele>
        <time>2017-06-07T06:45:12.000Z</time>
      </trkpt>
      <trkpt lat="44.342747" lon="4.690432">
        <ele>106.677998</ele>
        <time>2017-06-07T06:45:14.000Z</time>
      </trkpt>
      <trkpt lat="44.342636" lon="4.690399">
        <ele>106.709415</ele>
        <time>2017-06-07T06:45:16.000Z</time>
      </trkpt>
      <trkpt lat="44.342525" lon="4.690372">
        <ele>106.740606</ele>
        <time>2017-06-07T06:45:18.000Z</time>
      </trkpt>
      <trkpt lat="44.342420" lon="4.690345">
        <ele>106.770162</ele>
        <time>2017-06-07T06:45:20.000Z</time>
      </trkpt>
      <trkpt lat="44.342323" lon="4.690332">
        <ele>106.797139</ele>
        <time>2017-06-07T06:45:22.000Z</time>
      </trkpt>
      <trkpt lat="44.342200" lon="4.690313">
        <ele>106.831398</ele>
        <time>2017-06-07T06:45:25.000Z</time>
      </trkpt>
      <trkpt lat="44.342110" lon="4.690330">
        <ele>106.856540</ele>
        <time>2017-06-07T06:45:28.000Z</time>
      </trkpt>
      <trkpt lat="44.342080" lon="4.690452">
        <ele>106.882083</ele>
        <time>2017-06-07T06:45:31.000Z</time>
      </trkpt>
      <trkpt lat="44.342102" lon="4.690641">
        <ele>106.919997</ele>
        <time>2017-06-07T06:45:34.000Z</time>
      </trkpt>
      <trkpt lat="44.342102" lon="4.690831">
        <ele>106.957615</ele>
        <time>2017-06-07T06:45:37.000Z</time>
      </trkpt>
      <trkpt lat="44.342094" lon="4.691019">
        <ele>106.994904</ele>
        <time>2017-06-07T06:45:40.000Z</time>
      </trkpt>
      <trkpt lat="44.342100" lon="4.691151">
        <ele>107.021092</ele>
        <time>2017-06-07T06:45:42.000Z</time>
      </trkpt>
      <trkpt lat="44.342094" lon="4.691284">
        <ele>107.047477</ele>
        <time>2017-06-07T06:45:44.000Z</time>
      </trkpt>
      <trkpt lat="44.342094" lon="4.691419">
        <ele>107.074206</ele>
        <time>2017-06-07T06:45:46.000Z</time>
      </trkpt>
      <trkpt lat="44.342100" lon="4.691554">
        <ele>107.100987</ele>
        <time>2017-06-07T06:45:48.000Z</time>
      </trkpt>
      <trkpt lat="44.342090" lon="4.691699">
        <ele>107.129829</ele>
        <time>2017-06-07T06:45:50.000Z</time>
      </trkpt>
      <trkpt lat="44.342090" lon="4.691845">
        <ele>107.172236</ele>
        <time>2017-06-07T06:45:52.000Z</time>
      </trkpt>
      <trkpt lat="44.342090" lon="4.691990">
        <ele>107.220389</ele>
        <time>2017-06-07T06:45:54.000Z</time>
      </trkpt>
      <trkpt lat="44.342090" lon="4.692132">
        <ele>107.267547</ele>
        <time>2017-06-07T06:45:56.000Z</time>
      </trkpt>
      <trkpt lat="44.342080" lon="4.692276">
        <ele>107.315594</ele>
        <time>2017-06-07T06:45:58.000Z</time>
      </trkpt>
      <trkpt lat="44.342075" lon="4.692419">
        <ele>107.363140</ele>
        <time>2017-06-07T06:46:00.000Z</time>
      </trkpt>
      <trkpt lat="44.342075" lon="4.692561">
        <ele>107.410297</ele>
        <time>2017-06-07T06:46:02.000Z</time>
      </trkpt>
      <trkpt lat="44.342064" lon="4.692700">
        <ele>107.456740</ele>
        <time>2017-06-07T06:46:04.000Z</time>
      </trkpt>
      <trkpt lat="44.342045" lon="4.692843">
        <ele>107.505042</ele>
        <time>2017-06-07T06:46:06.000Z</time>
      </trkpt>
      <trkpt lat="44.342010" lon="4.692989">
        <ele>107.556180</ele>
        <time>2017-06-07T06:46:08.000Z</time>
      </trkpt>
      <trkpt lat="44.341950" lon="4.693132">
        <ele>107.611239</ele>
        <time>2017-06-07T06:46:10.000Z</time>
      </trkpt>
      <trkpt lat="44.341904" lon="4.693280">
        <ele>107.664830</ele>
        <time>2017-06-07T06:46:12.000Z</time>
      </trkpt>
      <trkpt lat="44.341858" lon="4.693420">
        <ele>107.715995</ele>
        <time>2017-06-07T06:46:14.000Z</time>
      </trkpt>
      <trkpt lat="44.341810" lon="4.693563">
        <ele>107.768455</ele>
        <time>2017-06-07T06:46:16.000Z</time>
      </trkpt>
      <trkpt lat="44.341760" lon="4.693707">
        <ele>107.821616</ele>
        <time>2017-06-07T06:46:18.000Z</time>
      </trkpt>
      <trkpt lat="44.341700" lon="4.693854">
        <ele>107.877825</ele>
        <time>2017-06-07T06:46:20.000Z</time>
      </trkpt>
      <trkpt lat="44.341640" lon="4.693998">
        <ele>107.933171</ele>
        <time>2017-06-07T06:46:22.000Z</time>
      </trkpt>
      <trkpt lat="44.341580" lon="4.694136">
        <ele>107.921708</ele>
        <time>2017-06-07T06:46:24.000Z</time>
      </trkpt>
      <trkpt lat="44.341534" lon="4.694285">
        <ele>107.701450</ele>
        <time>2017-06-07T06:46:26.000Z</time>
      </trkpt>
      <trkpt lat="44.341480" lon="4.694435">
        <ele>107.473535</ele>
        <time>2017-06-07T06:46:28.000Z</time>
      </trkpt>
      <trkpt lat="44.341450" lon="4.694592">
        <ele>107.252982</ele>
        <time>2017-06-07T06:46:30.000Z</time>
      </trkpt>
      <trkpt lat="44.341434" lon="4.694755">
        <ele>107.029685</ele>
        <time>2017-06-07T06:46:32.000Z</time>
      </trkpt>
      <trkpt lat="44.341434" lon="4.694913">
        <ele>106.815249</ele>
        <time>2017-06-07T06:46:34.000Z</time>
      </trkpt>
      <trkpt lat="44.341434" lon="4.695069">
        <ele>106.603527</ele>
        <time>2017-06-07T06:46:36.000Z</time>
      </trkpt>
      <trkpt lat="44.341446" lon="4.695207">
        <ele>106.414855</ele>
        <time>2017-06-07T06:46:38.000Z</time>
      </trkpt>
      <trkpt lat="44.341450" lon="4.695336">
        <ele>106.239612</ele>
        <time>2017-06-07T06:46:40.000Z</time>
      </trkpt>
      <trkpt lat="44.341454" lon="4.695519">
        <ele>105.991130</ele>
        <time>2017-06-07T06:46:43.000Z</time>
      </trkpt>
      <trkpt lat="44.341380" lon="4.695647">
        <ele>105.767749</ele>
        <time>2017-06-07T06:46:46.000Z</time>
      </trkpt>
      <trkpt lat="44.341244" lon="4.695656">
        <ele>105.509377</ele>
        <time>2017-06-07T06:46:49.000Z</time>
      </trkpt>
      <trkpt lat="44.341140" lon="4.695642">
        <ele>105.311106</ele>
        <time>2017-06-07T06:46:51.000Z</time>
      </trkpt>
      <trkpt lat="44.341034" lon="4.695631">
        <ele>105.109399</ele>
        <time>2017-06-07T06:46:53.000Z</time>
      </trkpt>
      <trkpt lat="44.340920" lon="4.695622">
        <ele>104.892720</ele>
        <time>2017-06-07T06:46:55.000Z</time>
      </trkpt>
      <trkpt lat="44.340810" lon="4.695611">
        <ele>104.683442</ele>
        <time>2017-06-07T06:46:57.000Z</time>
      </trkpt>
      <trkpt lat="44.340694" lon="4.695603">
        <ele>104.538542</ele>
        <time>2017-06-07T06:46:59.000Z</time>
      </trkpt>
      <trkpt lat="44.340588" lon="4.695590">
        <ele>104.492619</ele>
        <time>2017-06-07T06:47:01.000Z</time>
      </trkpt>
      <trkpt lat="44.340473" lon="4.695581">
        <ele>104.442910</ele>
        <time>2017-06-07T06:47:03.000Z</time>
      </trkpt>
      <trkpt lat="44.340363" lon="4.695570">
        <ele>104.395315</ele>
        <time>2017-06-07T06:47:05.000Z</time>
      </trkpt>
      <trkpt lat="44.340250" lon="4.695557">
        <ele>104.346381</ele>
        <time>2017-06-07T06:47:07.000Z</time>
      </trkpt>
      <trkpt lat="44.340140" lon="4.695542">
        <ele>104.298682</ele>
        <time>2017-06-07T06:47:09.000Z</time>
      </trkpt>
      <trkpt lat="44.340034" lon="4.695533">
        <ele>104.252850</ele>
        <time>2017-06-07T06:47:11.000Z</time>
      </trkpt>
      <trkpt lat="44.339920" lon="4.695526">
        <ele>104.203603</ele>
        <time>2017-06-07T06:47:13.000Z</time>
      </trkpt>
      <trkpt lat="44.339813" lon="4.695516">
        <ele>104.157321</ele>
        <time>2017-06-07T06:47:15.000Z</time>
      </trkpt>
      <trkpt lat="44.339720" lon="4.695505">
        <ele>104.117040</ele>
        <time>2017-06-07T06:47:17.000Z</time>
      </trkpt>
      <trkpt lat="44.339607" lon="4.695494">
        <ele>104.068154</ele>
        <time>2017-06-07T06:47:20.000Z</time>
      </trkpt>
      <trkpt lat="44.339493" lon="4.695484">
        <ele>104.018857</ele>
        <time>2017-06-07T06:47:23.000Z</time>
      </trkpt>
      <trkpt lat="44.339363" lon="4.695478">
        <ele>103.962721</ele>
        <time>2017-06-07T06:47:26.000Z</time>
      </trkpt>
      <trkpt lat="44.339264" lon="4.695460">
        <ele>103.919635</ele>
        <time>2017-06-07T06:47:28.000Z</time>
      </trkpt>
      <trkpt lat="44.339160" lon="4.695448">
        <ele>103.874598</ele>
        <time>2017-06-07T06:47:30.000Z</time>
      </trkpt>
      <trkpt lat="44.339060" lon="4.695440">
        <ele>103.831369</ele>
        <time>2017-06-07T06:47:32.000Z</time>
      </trkpt>
      <trkpt lat="44.338960" lon="4.695435">
        <ele>103.788183</ele>
        <time>2017-06-07T06:47:34.000Z</time>
      </trkpt>
      <trkpt lat="44.338856" lon="4.695424">
        <ele>103.769880</ele>
        <time>2017-06-07T06:47:36.000Z</time>
      </trkpt>
      <trkpt lat="44.338750" lon="4.695411">
        <ele>103.753628</ele>
        <time>2017-06-07T06:47:38.000Z</time>
      </trkpt>
      <trkpt lat="44.338642" lon="4.695394">
        <ele>103.737030</ele>
        <time>2017-06-07T06:47:40.000Z</time>
      </trkpt>
      <trkpt lat="44.338528" lon="4.695385">
        <ele>103.719591</ele>
        <time>2017-06-07T06:47:42.000Z</time>
      </trkpt>
      <trkpt lat="44.338420" lon="4.695376">
        <ele>103.703067</ele>
        <time>2017-06-07T06:47:44.000Z</time>
      </trkpt>
      <trkpt lat="44.338310" lon="4.695366">
        <ele>103.686232</ele>
        <time>2017-06-07T06:47:46.000Z</time>
      </trkpt>
      <trkpt lat="44.338196" lon="4.695358">
        <ele>103.668799</ele>
        <time>2017-06-07T06:47:48.000Z</time>
      </trkpt>
      <trkpt lat="44.338080" lon="4.695350">
        <ele>103.651061</ele>
        <time>2017-06-07T06:47:50.000Z</time>
      </trkpt>
      <trkpt lat="44.337963" lon="4.695338">
        <ele>103.633144</ele>
        <time>2017-06-07T06:47:52.000Z</time>
      </trkpt>
      <trkpt lat="44.337850" lon="4.695322">
        <ele>103.615798</ele>
        <time>2017-06-07T06:47:54.000Z</time>
      </trkpt>
      <trkpt lat="44.337750" lon="4.695300">
        <ele>103.600337</ele>
        <time>2017-06-07T06:47:56.000Z</time>
      </trkpt>
      <trkpt lat="44.337643" lon="4.695290">
        <ele>103.583959</ele>
        <time>2017-06-07T06:47:58.000Z</time>
      </trkpt>
      <trkpt lat="44.337532" lon="4.695283">
        <ele>103.566989</ele>
        <time>2017-06-07T06:48:00.000Z</time>
      </trkpt>
      <trkpt lat="44.337414" lon="4.695264">
        <ele>103.548848</ele>
        <time>2017-06-07T06:48:02.000Z</time>
      </trkpt>
      <trkpt lat="44.337303" lon="4.695250">
        <ele>103.531827</ele>
        <time>2017-06-07T06:48:04.000Z</time>
      </trkpt>
      <trkpt lat="44.337196" lon="4.695237">
        <ele>103.515424</ele>
        <time>2017-06-07T06:48:06.000Z</time>
      </trkpt>
      <trkpt lat="44.337090" lon="4.695231">
        <ele>103.583620</ele>
        <time>2017-06-07T06:48:08.000Z</time>
      </trkpt>
      <trkpt lat="44.336987" lon="4.695213">
        <ele>103.694162</ele>
        <time>2017-06-07T06:48:10.000Z</time>
      </trkpt>
      <trkpt lat="44.336880" lon="4.695203">
        <ele>103.808365</ele>
        <time>2017-06-07T06:48:12.000Z</time>
      </trkpt>
      <trkpt lat="44.336765" lon="4.695190">
        <ele>103.931232</ele>
        <time>2017-06-07T06:48:14.000Z</time>
      </trkpt>
      <trkpt lat="44.336660" lon="4.695179">
        <ele>104.043364</ele>
        <time>2017-06-07T06:48:16.000Z</time>
      </trkpt>
      <trkpt lat="44.336555" lon="4.695169">
        <ele>104.155442</ele>
        <time>2017-06-07T06:48:18.000Z</time>
      </trkpt>
      <trkpt lat="44.336452" lon="4.695157">
        <ele>104.265511</ele>
        <time>2017-06-07T06:48:20.000Z</time>
      </trkpt>
      <trkpt lat="44.336350" lon="4.695148">
        <ele>104.374351</ele>
        <time>2017-06-07T06:48:22.000Z</time>
      </trkpt>
      <trkpt lat="44.336235" lon="4.695135">
        <ele>104.497218</ele>
        <time>2017-06-07T06:48:24.000Z</time>
      </trkpt>
      <trkpt lat="44.336124" lon="4.695120">
        <ele>104.615977</ele>
        <time>2017-06-07T06:48:26.000Z</time>
      </trkpt>
      <trkpt lat="44.336010" lon="4.695102">
        <ele>104.738152</ele>
        <time>2017-06-07T06:48:28.000Z</time>
      </trkpt>
      <trkpt lat="44.335900" lon="4.695091">
        <ele>104.855594</ele>
        <time>2017-06-07T06:48:30.000Z</time>
      </trkpt>
      <trkpt lat="44.335790" lon="4.695079">
        <ele>104.973093</ele>
        <time>2017-06-07T06:48:32.000Z</time>
      </trkpt>
      <trkpt lat="44.335680" lon="4.695077">
        <ele>105.090246</ele>
        <time>2017-06-07T06:48:34.000Z</time>
      </trkpt>
      <trkpt lat="44.335583" lon="4.695068">
        <ele>105.193773</ele>
        <time>2017-06-07T06:48:36.000Z</time>
      </trkpt>
      <trkpt lat="44.335484" lon="4.695050">
        <ele>105.300089</ele>
        <time>2017-06-07T06:48:38.000Z</time>
      </trkpt>
      <trkpt lat="44.335380" lon="4.695035">
        <ele>105.411431</ele>
        <time>2017-06-07T06:48:40.000Z</time>
      </trkpt>
      <trkpt lat="44.335278" lon="4.695020">
        <ele>105.437596</ele>
        <time>2017-06-07T06:48:42.000Z</time>
      </trkpt>
      <trkpt lat="44.335180" lon="4.695005">
        <ele>105.451181</ele>
        <time>2017-06-07T06:48:44.000Z</time>
      </trkpt>
      <trkpt lat="44.335083" lon="4.694997">
        <ele>105.464571</ele>
        <time>2017-06-07T06:48:46.000Z</time>
      </trkpt>
      <trkpt lat="44.334980" lon="4.694987">
        <ele>105.478799</ele>
        <time>2017-06-07T06:48:48.000Z</time>
      </trkpt>
      <trkpt lat="44.334880" lon="4.694974">
        <ele>105.492639</ele>
        <time>2017-06-07T06:48:50.000Z</time>
      </trkpt>
      <trkpt lat="44.334785" lon="4.694960">
        <ele>105.505803</ele>
        <time>2017-06-07T06:48:52.000Z</time>
      </trkpt>
      <trkpt lat="44.334686" lon="4.694953">
        <ele>105.519463</ele>
        <time>2017-06-07T06:48:54.000Z</time>
      </trkpt>
      <trkpt lat="44.334595" lon="4.694938">
        <ele>105.532090</ele>
        <time>2017-06-07T06:48:56.000Z</time>
      </trkpt>
      <trkpt lat="44.334496" lon="4.694930">
        <ele>105.545756</ele>
        <time>2017-06-07T06:48:58.000Z</time>
      </trkpt>
      <trkpt lat="44.334396" lon="4.694923">
        <ele>105.559554</ele>
        <time>2017-06-07T06:49:00.000Z</time>
      </trkpt>
      <trkpt lat="44.334293" lon="4.694917">
        <ele>105.573760</ele>
        <time>2017-06-07T06:49:02.000Z</time>
      </trkpt>
      <trkpt lat="44.334210" lon="4.694961">
        <ele>105.585992</ele>
        <time>2017-06-07T06:49:04.000Z</time>
      </trkpt>
      <trkpt lat="44.334150" lon="4.695061">
        <ele>105.598858</ele>
        <time>2017-06-07T06:49:06.000Z</time>
      </trkpt>
      <trkpt lat="44.334133" lon="4.695202">
        <ele>105.612952</ele>
        <time>2017-06-07T06:49:08.000Z</time>
      </trkpt>
      <trkpt lat="44.334126" lon="4.695340">
        <ele>105.626588</ele>
        <time>2017-06-07T06:49:10.000Z</time>
      </trkpt>
      <trkpt lat="44.334120" lon="4.695480">
        <ele>105.640413</ele>
        <time>2017-06-07T06:49:12.000Z</time>
      </trkpt>
      <trkpt lat="44.334118" lon="4.695621">
        <ele>105.654314</ele>
        <time>2017-06-07T06:49:14.000Z</time>
      </trkpt>
      <trkpt lat="44.334110" lon="4.695767">
        <ele>105.668747</ele>
        <time>2017-06-07T06:49:16.000Z</time>
      </trkpt>
      <trkpt lat="44.334076" lon="4.695884">
        <ele>105.651286</ele>
        <time>2017-06-07T06:49:18.000Z</time>
      </trkpt>
      <trkpt lat="44.333984" lon="4.695926">
        <ele>105.615275</ele>
        <time>2017-06-07T06:49:20.000Z</time>
      </trkpt>
      <trkpt lat="44.333890" lon="4.695877">
        <ele>105.577948</ele>
        <time>2017-06-07T06:49:22.000Z</time>
      </trkpt>
      <trkpt lat="44.333805" lon="4.695793">
        <ele>105.539217</ele>
        <time>2017-06-07T06:49:24.000Z</time>
      </trkpt>
      <trkpt lat="44.333720" lon="4.695723">
        <ele>105.502511</ele>
        <time>2017-06-07T06:49:26.000Z</time>
      </trkpt>
      <trkpt lat="44.333630" lon="4.695668">
        <ele>105.465964</ele>
        <time>2017-06-07T06:49:28.000Z</time>
      </trkpt>
      <trkpt lat="44.333508" lon="4.695589">
        <ele>105.415937</ele>
        <time>2017-06-07T06:49:31.000Z</time>
      </trkpt>
      <trkpt lat="44.333416" lon="4.695530">
        <ele>105.378276</ele>
        <time>2017-06-07T06:49:33.000Z</time>
      </trkpt>
      <trkpt lat="44.333330" lon="4.695466">
        <ele>105.342025</ele>
        <time>2017-06-07T06:49:35.000Z</time>
      </trkpt>
      <trkpt lat="44.333240" lon="4.695403">
        <ele>105.304575</ele>
        <time>2017-06-07T06:49:37.000Z</time>
      </trkpt>
      <trkpt lat="44.333140" lon="4.695339">
        <ele>105.263653</ele>
        <time>2017-06-07T06:49:39.000Z</time>
      </trkpt>
      <trkpt lat="44.333046" lon="4.695268">
        <ele>105.223899</ele>
        <time>2017-06-07T06:49:41.000Z</time>
      </trkpt>
      <trkpt lat="44.332954" lon="4.695198">
        <ele>105.184926</ele>
        <time>2017-06-07T06:49:43.000Z</time>
      </trkpt>
      <trkpt lat="44.332860" lon="4.695138">
        <ele>105.146477</ele>
        <time>2017-06-07T06:49:45.000Z</time>
      </trkpt>
      <trkpt lat="44.332767" lon="4.695090">
        <ele>105.109591</ele>
        <time>2017-06-07T06:49:47.000Z</time>
      </trkpt>
      <trkpt lat="44.332670" lon="4.695048">
        <ele>105.071807</ele>
        <time>2017-06-07T06:49:49.000Z</time>
      </trkpt>
      <trkpt lat="44.332560" lon="4.695015">
        <ele>105.029946</ele>
        <time>2017-06-07T06:49:51.000Z</time>
      </trkpt>
      <trkpt lat="44.332447" lon="4.694989">
        <ele>105.019787</ele>
        <time>2017-06-07T06:49:53.000Z</time>
      </trkpt>
      <trkpt lat="44.332333" lon="4.694974">
        <ele>105.060814</ele>
        <time>2017-06-07T06:49:55.000Z</time>
      </trkpt>
      <trkpt lat="44.332222" lon="4.694951">
        <ele>105.101020</ele>
        <time>2017-06-07T06:49:57.000Z</time>
      </trkpt>
      <trkpt lat="44.332108" lon="4.694935">
        <ele>105.142072</ele>
        <time>2017-06-07T06:49:59.000Z</time>
      </trkpt>
      <trkpt lat="44.332000" lon="4.694921">
        <ele>105.180935</ele>
        <time>2017-06-07T06:50:01.000Z</time>
      </trkpt>
      <trkpt lat="44.331894" lon="4.694903">
        <ele>105.219194</ele>
        <time>2017-06-07T06:50:03.000Z</time>
      </trkpt>
      <trkpt lat="44.331787" lon="4.694883">
        <ele>105.257873</ele>
        <time>2017-06-07T06:50:05.000Z</time>
      </trkpt>
      <trkpt lat="44.331684" lon="4.694864">
        <ele>105.295098</ele>
        <time>2017-06-07T06:50:07.000Z</time>
      </trkpt>
      <trkpt lat="44.331580" lon="4.694836">
        <ele>105.333047</ele>
        <time>2017-06-07T06:50:09.000Z</time>
      </trkpt>
      <trkpt lat="44.331482" lon="4.694812">
        <ele>105.368695</ele>
        <time>2017-06-07T06:50:11.000Z</time>
      </trkpt>
      <trkpt lat="44.331383" lon="4.694791">
        <ele>105.404573</ele>
        <time>2017-06-07T06:50:13.000Z</time>
      </trkpt>
      <trkpt lat="44.331290" lon="4.694769">
        <ele>105.438369</ele>
        <time>2017-06-07T06:50:15.000Z</time>
      </trkpt>
      <trkpt lat="44.331154" lon="4.694738">
        <ele>105.487741</ele>
        <time>2017-06-07T06:50:18.000Z</time>
      </trkpt>
      <trkpt lat="44.331050" lon="4.694723">
        <ele>105.525203</ele>
        <time>2017-06-07T06:50:20.000Z</time>
      </trkpt>
      <trkpt lat="44.330948" lon="4.694708">
        <ele>105.561951</ele>
        <time>2017-06-07T06:50:22.000Z</time>
      </trkpt>
      <trkpt lat="44.330853" lon="4.694686">
        <ele>105.596454</ele>
        <time>2017-06-07T06:50:24.000Z</time>
      </trkpt>
      <trkpt lat="44.330757" lon="4.694663">
        <ele>105.631352</ele>
        <time>2017-06-07T06:50:26.000Z</time>
      </trkpt>
      <trkpt lat="44.330654" lon="4.694642">
        <ele>105.637324</ele>
        <time>2017-06-07T06:50:28.000Z</time>
      </trkpt>
      <trkpt lat="44.330544" lon="4.694614">
        <ele>105.615636</ele>
        <time>2017-06-07T06:50:30.000Z</time>
      </trkpt>
      <trkpt lat="44.330430" lon="4.694593">
        <ele>105.593332</ele>
        <time>2017-06-07T06:50:32.000Z</time>
      </trkpt>
      <trkpt lat="44.330320" lon="4.694579">
        <ele>105.571907</ele>
        <time>2017-06-07T06:50:34.000Z</time>
      </trkpt>
      <trkpt lat="44.330196" lon="4.694559">
        <ele>105.547695</ele>
        <time>2017-06-07T06:50:36.000Z</time>
      </trkpt>
      <trkpt lat="44.330074" lon="4.694538">
        <ele>105.523851</ele>
        <time>2017-06-07T06:50:38.000Z</time>
      </trkpt>
      <trkpt lat="44.329945" lon="4.694521">
        <ele>105.498718</ele>
        <time>2017-06-07T06:50:40.000Z</time>
      </trkpt>
      <trkpt lat="44.329815" lon="4.694493">
        <ele>105.473204</ele>
        <time>2017-06-07T06:50:42.000Z</time>
      </trkpt>
      <trkpt lat="44.329680" lon="4.694464">
        <ele>105.446710</ele>
        <time>2017-06-07T06:50:44.000Z</time>
      </trkpt>
      <trkpt lat="44.329550" lon="4.694430">
        <ele>105.421056</ele>
        <time>2017-06-07T06:50:46.000Z</time>
      </trkpt>
      <trkpt lat="44.329420" lon="4.694400">
        <ele>105.395499</ele>
        <time>2017-06-07T06:50:48.000Z</time>
      </trkpt>
      <trkpt lat="44.329285" lon="4.694369">
        <ele>105.368961</ele>
        <time>2017-06-07T06:50:50.000Z</time>
      </trkpt>
      <trkpt lat="44.329150" lon="4.694337">
        <ele>105.342401</ele>
        <time>2017-06-07T06:50:52.000Z</time>
      </trkpt>
      <trkpt lat="44.329018" lon="4.694313">
        <ele>105.316581</ele>
        <time>2017-06-07T06:50:54.000Z</time>
      </trkpt>
      <trkpt lat="44.328888" lon="4.694283">
        <ele>105.255068</ele>
        <time>2017-06-07T06:50:56.000Z</time>
      </trkpt>
      <trkpt lat="44.328762" lon="4.694261">
        <ele>105.125191</ele>
        <time>2017-06-07T06:50:58.000Z</time>
      </trkpt>
      <trkpt lat="44.328636" lon="4.694233">
        <ele>104.994696</ele>
        <time>2017-06-07T06:51:00.000Z</time>
      </trkpt>
      <trkpt lat="44.328510" lon="4.694208">
        <ele>104.864529</ele>
        <time>2017-06-07T06:51:02.000Z</time>
      </trkpt>
      <trkpt lat="44.328380" lon="4.694190">
        <ele>104.730911</ele>
        <time>2017-06-07T06:51:04.000Z</time>
      </trkpt>
      <trkpt lat="44.328260" lon="4.694164">
        <ele>104.606706</ele>
        <time>2017-06-07T06:51:06.000Z</time>
      </trkpt>
      <trkpt lat="44.328130" lon="4.694136">
        <ele>104.472169</ele>
        <time>2017-06-07T06:51:08.000Z</time>
      </trkpt>
      <trkpt lat="44.327995" lon="4.694106">
        <ele>104.332354</ele>
        <time>2017-06-07T06:51:10.000Z</time>
      </trkpt>
      <trkpt lat="44.327854" lon="4.694085">
        <ele>104.187319</ele>
        <time>2017-06-07T06:51:12.000Z</time>
      </trkpt>
      <trkpt lat="44.327720" lon="4.694059">
        <ele>104.048947</ele>
        <time>2017-06-07T06:51:14.000Z</time>
      </trkpt>
      <trkpt lat="44.327587" lon="4.694038">
        <ele>103.912046</ele>
        <time>2017-06-07T06:51:16.000Z</time>
      </trkpt>
      <trkpt lat="44.327450" lon="4.694025">
        <ele>103.771596</ele>
        <time>2017-06-07T06:51:18.000Z</time>
      </trkpt>
      <trkpt lat="44.327324" lon="4.693994">
        <ele>103.640739</ele>
        <time>2017-06-07T06:51:20.000Z</time>
      </trkpt>
      <trkpt lat="44.327190" lon="4.693966">
        <ele>103.502158</ele>
        <time>2017-06-07T06:51:22.000Z</time>
      </trkpt>
      <trkpt lat="44.327060" lon="4.693941">
        <ele>103.476384</ele>
        <time>2017-06-07T06:51:24.000Z</time>
      </trkpt>
      <trkpt lat="44.326940" lon="4.693906">
        <ele>103.499118</ele>
        <time>2017-06-07T06:51:26.000Z</time>
      </trkpt>
      <trkpt lat="44.326817" lon="4.693886">
        <ele>103.522083</ele>
        <time>2017-06-07T06:51:28.000Z</time>
      </trkpt>
      <trkpt lat="44.326700" lon="4.693850">
        <ele>103.544302</ele>
        <time>2017-06-07T06:51:30.000Z</time>
      </trkpt>
      <trkpt lat="44.326580" lon="4.693822">
        <ele>103.566865</ele>
        <time>2017-06-07T06:51:32.000Z</time>
      </trkpt>
      <trkpt lat="44.326460" lon="4.693798">
        <ele>103.589346</ele>
        <time>2017-06-07T06:51:34.000Z</time>
      </trkpt>
      <trkpt lat="44.326340" lon="4.693775">
        <ele>103.611810</ele>
        <time>2017-06-07T06:51:36.000Z</time>
      </trkpt>
      <trkpt lat="44.326225" lon="4.693747">
        <ele>103.633458</ele>
        <time>2017-06-07T06:51:38.000Z</time>
      </trkpt>
      <trkpt lat="44.326110" lon="4.693721">
        <ele>103.655063</ele>
        <time>2017-06-07T06:51:40.000Z</time>
      </trkpt>
      <trkpt lat="44.325996" lon="4.693709">
        <ele>103.676266</ele>
        <time>2017-06-07T06:51:42.000Z</time>
      </trkpt>
      <trkpt lat="44.325882" lon="4.693686">
        <ele>103.697627</ele>
        <time>2017-06-07T06:51:44.000Z</time>
      </trkpt>
      <trkpt lat="44.325775" lon="4.693667">
        <ele>103.717631</ele>
        <time>2017-06-07T06:51:46.000Z</time>
      </trkpt>
      <trkpt lat="44.325665" lon="4.693644">
        <ele>103.738258</ele>
        <time>2017-06-07T06:51:48.000Z</time>
      </trkpt>
      <trkpt lat="44.325554" lon="4.693618">
        <ele>103.759131</ele>
        <time>2017-06-07T06:51:50.000Z</time>
      </trkpt>
      <trkpt lat="44.325436" lon="4.693596">
        <ele>103.781209</ele>
        <time>2017-06-07T06:51:52.000Z</time>
      </trkpt>
      <trkpt lat="44.325325" lon="4.693566">
        <ele>103.801818</ele>
        <time>2017-06-07T06:51:54.000Z</time>
      </trkpt>
      <trkpt lat="44.325210" lon="4.693547">
        <ele>103.822426</ele>
        <time>2017-06-07T06:51:56.000Z</time>
      </trkpt>
      <trkpt lat="44.325085" lon="4.693531">
        <ele>103.844764</ele>
        <time>2017-06-07T06:51:58.000Z</time>
      </trkpt>
      <trkpt lat="44.324970" lon="4.693511">
        <ele>103.865387</ele>
        <time>2017-06-07T06:52:00.000Z</time>
      </trkpt>
      <trkpt lat="44.324860" lon="4.693495">
        <ele>103.885069</ele>
        <time>2017-06-07T06:52:02.000Z</time>
      </trkpt>
      <trkpt lat="44.324734" lon="4.693478">
        <ele>103.907596</ele>
        <time>2017-06-07T06:52:04.000Z</time>
      </trkpt>
      <trkpt lat="44.324604" lon="4.693466">
        <ele>103.930781</ele>
        <time>2017-06-07T06:52:06.000Z</time>
      </trkpt>
      <trkpt lat="44.324480" lon="4.693433">
        <ele>103.953245</ele>
        <time>2017-06-07T06:52:08.000Z</time>
      </trkpt>
      <trkpt lat="44.324356" lon="4.693411">
        <ele>103.975489</ele>
        <time>2017-06-07T06:52:10.000Z</time>
      </trkpt>
      <trkpt lat="44.324240" lon="4.693401">
        <ele>103.996172</ele>
        <time>2017-06-07T06:52:12.000Z</time>
      </trkpt>
      <trkpt lat="44.324123" lon="4.693382">
        <ele>104.017133</ele>
        <time>2017-06-07T06:52:14.000Z</time>
      </trkpt>
      <trkpt lat="44.324005" lon="4.693359">
        <ele>104.038336</ele>
        <time>2017-06-07T06:52:16.000Z</time>
      </trkpt>
      <trkpt lat="44.323883" lon="4.693338">
        <ele>104.060211</ele>
        <time>2017-06-07T06:52:18.000Z</time>
      </trkpt>
      <trkpt lat="44.323760" lon="4.693327">
        <ele>104.082145</ele>
        <time>2017-06-07T06:52:20.000Z</time>
      </trkpt>
      <trkpt lat="44.323640" lon="4.693310">
        <ele>104.103610</ele>
        <time>2017-06-07T06:52:22.000Z</time>
      </trkpt>
      <trkpt lat="44.323517" lon="4.693292">
        <ele>104.098083</ele>
        <time>2017-06-07T06:52:24.000Z</time>
      </trkpt>
      <trkpt lat="44.323402" lon="4.693274">
        <ele>104.072262</ele>
        <time>2017-06-07T06:52:26.000Z</time>
      </trkpt>
      <trkpt lat="44.323288" lon="4.693263">
        <ele>104.046764</ele>
        <time>2017-06-07T06:52:28.000Z</time>
      </trkpt>
      <trkpt lat="44.323180" lon="4.693250">
        <ele>104.022577</ele>
        <time>2017-06-07T06:52:30.000Z</time>
      </trkpt>
      <trkpt lat="44.323070" lon="4.693245">
        <ele>103.998019</ele>
        <time>2017-06-07T06:52:32.000Z</time>
      </trkpt>
      <trkpt lat="44.322956" lon="4.693231">
        <ele>103.972484</ele>
        <time>2017-06-07T06:52:34.000Z</time>
      </trkpt>
      <trkpt lat="44.322834" lon="4.693218">
        <ele>103.945182</ele>
        <time>2017-06-07T06:52:36.000Z</time>
      </trkpt>
      <trkpt lat="44.322716" lon="4.693193">
        <ele>103.918552</ele>
        <time>2017-06-07T06:52:38.000Z</time>
      </trkpt>
      <trkpt lat="44.322598" lon="4.693175">
        <ele>103.892065</ele>
        <time>2017-06-07T06:52:40.000Z</time>
      </trkpt>
      <trkpt lat="44.322475" lon="4.693155">
        <ele>103.864435</ele>
        <time>2017-06-07T06:52:42.000Z</time>
      </trkpt>
      <trkpt lat="44.322357" lon="4.693127">
        <ele>103.837728</ele>
        <time>2017-06-07T06:52:44.000Z</time>
      </trkpt>
      <trkpt lat="44.322230" lon="4.693107">
        <ele>103.809211</ele>
        <time>2017-06-07T06:52:46.000Z</time>
      </trkpt>
      <trkpt lat="44.322113" lon="4.693094">
        <ele>103.783021</ele>
        <time>2017-06-07T06:52:48.000Z</time>
      </trkpt>
      <trkpt lat="44.321987" lon="4.693090">
        <ele>103.754899</ele>
        <time>2017-06-07T06:52:50.000Z</time>
      </trkpt>
      <trkpt lat="44.321870" lon="4.693081">
        <ele>103.728753</ele>
        <time>2017-06-07T06:52:52.000Z</time>
      </trkpt>
      <trkpt lat="44.321740" lon="4.693082">
        <ele>103.755541</ele>
        <time>2017-06-07T06:52:54.000Z</time>
      </trkpt>
      <trkpt lat="44.321617" lon="4.693082">
        <ele>103.852429</ele>
        <time>2017-06-07T06:52:56.000Z</time>
      </trkpt>
      <trkpt lat="44.321490" lon="4.693085">
        <ele>103.952482</ele>
        <time>2017-06-07T06:52:58.000Z</time>
      </trkpt>
      <trkpt lat="44.321373" lon="4.693083">
        <ele>104.044651</ele>
        <time>2017-06-07T06:53:00.000Z</time>
      </trkpt>
      <trkpt lat="44.321250" lon="4.693074">
        <ele>104.141672</ele>
        <time>2017-06-07T06:53:02.000Z</time>
      </trkpt>
      <trkpt lat="44.321125" lon="4.693072">
        <ele>104.240141</ele>
        <time>2017-06-07T06:53:04.000Z</time>
      </trkpt>
      <trkpt lat="44.321000" lon="4.693070">
        <ele>104.338611</ele>
        <time>2017-06-07T06:53:06.000Z</time>
      </trkpt>
      <trkpt lat="44.320873" lon="4.693063">
        <ele>104.438728</ele>
        <time>2017-06-07T06:53:08.000Z</time>
      </trkpt>
      <trkpt lat="44.320740" lon="4.693048">
        <ele>104.543833</ele>
        <time>2017-06-07T06:53:10.000Z</time>
      </trkpt>
      <trkpt lat="44.320610" lon="4.693024">
        <ele>104.647124</ele>
        <time>2017-06-07T06:53:12.000Z</time>
      </trkpt>
      <trkpt lat="44.320488" lon="4.692998">
        <ele>104.744335</ele>
        <time>2017-06-07T06:53:14.000Z</time>
      </trkpt>
      <trkpt lat="44.320374" lon="4.692996">
        <ele>104.834141</ele>
        <time>2017-06-07T06:53:16.000Z</time>
      </trkpt>
      <trkpt lat="44.320255" lon="4.692999">
        <ele>104.927893</ele>
        <time>2017-06-07T06:53:18.000Z</time>
      </trkpt>
      <trkpt lat="44.320145" lon="4.692998">
        <ele>105.014543</ele>
        <time>2017-06-07T06:53:20.000Z</time>
      </trkpt>
      <trkpt lat="44.320040" lon="4.692998">
        <ele>105.097252</ele>
        <time>2017-06-07T06:53:22.000Z</time>
      </trkpt>
      <trkpt lat="44.319935" lon="4.692998">
        <ele>105.066688</ele>
        <time>2017-06-07T06:53:24.000Z</time>
      </trkpt>
      <trkpt lat="44.319828" lon="4.693004">
        <ele>104.964043</ele>
        <time>2017-06-07T06:53:26.000Z</time>
      </trkpt>
      <trkpt lat="44.319725" lon="4.693005">
        <ele>104.865313</ele>
        <time>2017-06-07T06:53:28.000Z</time>
      </trkpt>
      <trkpt lat="44.319607" lon="4.693010">
        <ele>104.752154</ele>
        <time>2017-06-07T06:53:30.000Z</time>
      </trkpt>
      <trkpt lat="44.319490" lon="4.693024">
        <ele>104.639597</ele>
        <time>2017-06-07T06:53:32.000Z</time>
      </trkpt>
      <trkpt lat="44.319363" lon="4.693044">
        <ele>104.517093</ele>
        <time>2017-06-07T06:53:34.000Z</time>
      </trkpt>
      <trkpt lat="44.319240" lon="4.693059">
        <ele>104.398747</ele>
        <time>2017-06-07T06:53:36.000Z</time>
      </trkpt>
      <trkpt lat="44.319120" lon="4.693085">
        <ele>104.282349</ele>
        <time>2017-06-07T06:53:38.000Z</time>
      </trkpt>
      <trkpt lat="44.319000" lon="4.693114">
        <ele>104.165620</ele>
        <time>2017-06-07T06:53:40.000Z</time>
      </trkpt>
      <trkpt lat="44.318886" lon="4.693126">
        <ele>104.056038</ele>
        <time>2017-06-07T06:53:42.000Z</time>
      </trkpt>
      <trkpt lat="44.318780" lon="4.693151">
        <ele>103.952998</ele>
        <time>2017-06-07T06:53:44.000Z</time>
      </trkpt>
      <trkpt lat="44.318670" lon="4.693167">
        <ele>103.846990</ele>
        <time>2017-06-07T06:53:46.000Z</time>
      </trkpt>
      <trkpt lat="44.318554" lon="4.693186">
        <ele>103.735040</ele>
        <time>2017-06-07T06:53:48.000Z</time>
      </trkpt>
      <trkpt lat="44.318443" lon="4.693202">
        <ele>103.628079</ele>
        <time>2017-06-07T06:53:50.000Z</time>
      </trkpt>
      <trkpt lat="44.318325" lon="4.693224">
        <ele>103.513971</ele>
        <time>2017-06-07T06:53:52.000Z</time>
      </trkpt>
      <trkpt lat="44.318203" lon="4.693246">
        <ele>103.410604</ele>
        <time>2017-06-07T06:53:54.000Z</time>
      </trkpt>
      <trkpt lat="44.318085" lon="4.693263">
        <ele>103.485777</ele>
        <time>2017-06-07T06:53:56.000Z</time>
      </trkpt>
      <trkpt lat="44.317966" lon="4.693277">
        <ele>103.561454</ele>
        <time>2017-06-07T06:53:58.000Z</time>
      </trkpt>
      <trkpt lat="44.317844" lon="4.693302">
        <ele>103.639592</ele>
        <time>2017-06-07T06:54:00.000Z</time>
      </trkpt>
      <trkpt lat="44.317722" lon="4.693322">
        <ele>103.717433</ele>
        <time>2017-06-07T06:54:02.000Z</time>
      </trkpt>
      <trkpt lat="44.317600" lon="4.693334">
        <ele>103.794936</ele>
        <time>2017-06-07T06:54:04.000Z</time>
      </trkpt>
      <trkpt lat="44.317493" lon="4.693343">
        <ele>103.862864</ele>
        <time>2017-06-07T06:54:06.000Z</time>
      </trkpt>
      <trkpt lat="44.317387" lon="4.693351">
        <ele>103.930134</ele>
        <time>2017-06-07T06:54:08.000Z</time>
      </trkpt>
      <trkpt lat="44.317270" lon="4.693361">
        <ele>104.004415</ele>
        <time>2017-06-07T06:54:10.000Z</time>
      </trkpt>
      <trkpt lat="44.317154" lon="4.693371">
        <ele>104.078064</ele>
        <time>2017-06-07T06:54:12.000Z</time>
      </trkpt>
      <trkpt lat="44.317024" lon="4.693379">
        <ele>104.160525</ele>
        <time>2017-06-07T06:54:14.000Z</time>
      </trkpt>
      <trkpt lat="44.316890" lon="4.693386">
        <ele>104.245500</ele>
        <time>2017-06-07T06:54:16.000Z</time>
      </trkpt>
      <trkpt lat="44.316770" lon="4.693398">
        <ele>104.321738</ele>
        <time>2017-06-07T06:54:18.000Z</time>
      </trkpt>
      <trkpt lat="44.316643" lon="4.693400">
        <ele>104.402223</ele>
        <time>2017-06-07T06:54:20.000Z</time>
      </trkpt>
      <trkpt lat="44.316525" lon="4.693418">
        <ele>104.477443</ele>
        <time>2017-06-07T06:54:22.000Z</time>
      </trkpt>
      <trkpt lat="44.316402" lon="4.693432">
        <ele>104.528634</ele>
        <time>2017-06-07T06:54:24.000Z</time>
      </trkpt>
      <trkpt lat="44.316273" lon="4.693445">
        <ele>104.409903</ele>
        <time>2017-06-07T06:54:26.000Z</time>
      </trkpt>
      <trkpt lat="44.316143" lon="4.693451">
        <ele>104.290495</ele>
        <time>2017-06-07T06:54:28.000Z</time>
      </trkpt>
      <trkpt lat="44.316017" lon="4.693461">
        <ele>104.174639</ele>
        <time>2017-06-07T06:54:30.000Z</time>
      </trkpt>
      <trkpt lat="44.315895" lon="4.693471">
        <ele>104.062449</ele>
        <time>2017-06-07T06:54:32.000Z</time>
      </trkpt>
      <trkpt lat="44.315765" lon="4.693479">
        <ele>103.942991</ele>
        <time>2017-06-07T06:54:34.000Z</time>
      </trkpt>
      <trkpt lat="44.315640" lon="4.693473">
        <ele>103.828171</ele>
        <time>2017-06-07T06:54:36.000Z</time>
      </trkpt>
      <trkpt lat="44.315514" lon="4.693483">
        <ele>103.712315</ele>
        <time>2017-06-07T06:54:38.000Z</time>
      </trkpt>
      <trkpt lat="44.315395" lon="4.693483">
        <ele>103.603071</ele>
        <time>2017-06-07T06:54:40.000Z</time>
      </trkpt>
      <trkpt lat="44.315273" lon="4.693479">
        <ele>103.491042</ele>
        <time>2017-06-07T06:54:42.000Z</time>
      </trkpt>
      <trkpt lat="44.315160" lon="4.693471">
        <ele>103.387173</ele>
        <time>2017-06-07T06:54:44.000Z</time>
      </trkpt>
      <trkpt lat="44.315052" lon="4.693479">
        <ele>103.287888</ele>
        <time>2017-06-07T06:54:46.000Z</time>
      </trkpt>
      <trkpt lat="44.314964" lon="4.693513">
        <ele>103.204073</ele>
        <time>2017-06-07T06:54:48.000Z</time>
      </trkpt>
      <trkpt lat="44.314877" lon="4.693649">
        <ele>103.084244</ele>
        <time>2017-06-07T06:54:51.000Z</time>
      </trkpt>
      <trkpt lat="44.314830" lon="4.693784">
        <ele>102.985629</ele>
        <time>2017-06-07T06:54:54.000Z</time>
      </trkpt>
      <trkpt lat="44.314796" lon="4.693940">
        <ele>102.883385</ele>
        <time>2017-06-07T06:54:58.000Z</time>
      </trkpt>
      <trkpt lat="44.314762" lon="4.694075">
        <ele>102.820085</ele>
        <time>2017-06-07T06:55:02.000Z</time>
      </trkpt>
      <trkpt lat="44.314743" lon="4.694203">
        <ele>102.762267</ele>
        <time>2017-06-07T06:55:06.000Z</time>
      </trkpt>
      <trkpt lat="44.314590" lon="4.694369">
        <ele>102.642537</ele>
        <time>2017-06-07T06:55:30.000Z</time>
      </trkpt>
      <trkpt lat="44.314476" lon="4.694354">
        <ele>102.571757</ele>
        <time>2017-06-07T06:55:34.000Z</time>
      </trkpt>
      <trkpt lat="44.314354" lon="4.694324">
        <ele>102.495185</ele>
        <time>2017-06-07T06:55:37.000Z</time>
      </trkpt>
      <trkpt lat="44.314266" lon="4.694286">
        <ele>102.438251</ele>
        <time>2017-06-07T06:55:39.000Z</time>
      </trkpt>
      <trkpt lat="44.314182" lon="4.694225">
        <ele>102.379736</ele>
        <time>2017-06-07T06:55:41.000Z</time>
      </trkpt>
      <trkpt lat="44.314100" lon="4.694140">
        <ele>102.316628</ele>
        <time>2017-06-07T06:55:43.000Z</time>
      </trkpt>
      <trkpt lat="44.314022" lon="4.694049">
        <ele>102.253821</ele>
        <time>2017-06-07T06:55:45.000Z</time>
      </trkpt>
      <trkpt lat="44.313957" lon="4.693960">
        <ele>102.197572</ele>
        <time>2017-06-07T06:55:47.000Z</time>
      </trkpt>
      <trkpt lat="44.313885" lon="4.693856">
        <ele>102.133566</ele>
        <time>2017-06-07T06:55:50.000Z</time>
      </trkpt>
      <trkpt lat="44.313835" lon="4.693741">
        <ele>102.074048</ele>
        <time>2017-06-07T06:55:53.000Z</time>
      </trkpt>
      <trkpt lat="44.313736" lon="4.693643">
        <ele>101.999056</ele>
        <time>2017-06-07T06:55:57.000Z</time>
      </trkpt>
      <trkpt lat="44.313640" lon="4.693539">
        <ele>101.923974</ele>
        <time>2017-06-07T06:56:00.000Z</time>
      </trkpt>
      <trkpt lat="44.313560" lon="4.693459">
        <ele>101.863167</ele>
        <time>2017-06-07T06:56:02.000Z</time>
      </trkpt>
      <trkpt lat="44.313473" lon="4.693374">
        <ele>101.797550</ele>
        <time>2017-06-07T06:56:04.000Z</time>
      </trkpt>
      <trkpt lat="44.313374" lon="4.693298">
        <ele>101.820443</ele>
        <time>2017-06-07T06:56:06.000Z</time>
      </trkpt>
      <trkpt lat="44.313263" lon="4.693239">
        <ele>101.873351</ele>
        <time>2017-06-07T06:56:08.000Z</time>
      </trkpt>
      <trkpt lat="44.313152" lon="4.693176">
        <ele>101.926725</ele>
        <time>2017-06-07T06:56:10.000Z</time>
      </trkpt>
      <trkpt lat="44.313040" lon="4.693126">
        <ele>101.979106</ele>
        <time>2017-06-07T06:56:12.000Z</time>
      </trkpt>
      <trkpt lat="44.312927" lon="4.693096">
        <ele>102.030350</ele>
        <time>2017-06-07T06:56:14.000Z</time>
      </trkpt>
      <trkpt lat="44.312805" lon="4.693064">
        <ele>102.085651</ele>
        <time>2017-06-07T06:56:16.000Z</time>
      </trkpt>
      <trkpt lat="44.312690" lon="4.693023">
        <ele>102.138526</ele>
        <time>2017-06-07T06:56:18.000Z</time>
      </trkpt>
      <trkpt lat="44.312584" lon="4.692979">
        <ele>102.187789</ele>
        <time>2017-06-07T06:56:20.000Z</time>
      </trkpt>
      <trkpt lat="44.312473" lon="4.692946">
        <ele>102.238348</ele>
        <time>2017-06-07T06:56:22.000Z</time>
      </trkpt>
      <trkpt lat="44.312374" lon="4.692906">
        <ele>102.284260</ele>
        <time>2017-06-07T06:56:24.000Z</time>
      </trkpt>
      <trkpt lat="44.312270" lon="4.692877">
        <ele>102.331506</ele>
        <time>2017-06-07T06:56:26.000Z</time>
      </trkpt>
      <trkpt lat="44.312176" lon="4.692846">
        <ele>102.374535</ele>
        <time>2017-06-07T06:56:28.000Z</time>
      </trkpt>
      <trkpt lat="44.312077" lon="4.692803">
        <ele>102.420722</ele>
        <time>2017-06-07T06:56:30.000Z</time>
      </trkpt>
      <trkpt lat="44.311966" lon="4.692773">
        <ele>102.471090</ele>
        <time>2017-06-07T06:56:32.000Z</time>
      </trkpt>
      <trkpt lat="44.311863" lon="4.692745">
        <ele>102.517838</ele>
        <time>2017-06-07T06:56:34.000Z</time>
      </trkpt>
      <trkpt lat="44.311760" lon="4.692713">
        <ele>102.564846</ele>
        <time>2017-06-07T06:56:36.000Z</time>
      </trkpt>
      <trkpt lat="44.311665" lon="4.692685">
        <ele>102.649882</ele>
        <time>2017-06-07T06:56:38.000Z</time>
      </trkpt>
      <trkpt lat="44.311570" lon="4.692658">
        <ele>102.764762</ele>
        <time>2017-06-07T06:56:40.000Z</time>
      </trkpt>
      <trkpt lat="44.311440" lon="4.692607">
        <ele>102.924767</ele>
        <time>2017-06-07T06:56:43.000Z</time>
      </trkpt>
      <trkpt lat="44.311356" lon="4.692560">
        <ele>103.031988</ele>
        <time>2017-06-07T06:56:45.000Z</time>
      </trkpt>
      <trkpt lat="44.311264" lon="4.692452">
        <ele>103.174367</ele>
        <time>2017-06-07T06:56:48.000Z</time>
      </trkpt>
      <trkpt lat="44.311195" lon="4.692322">
        <ele>103.311613</ele>
        <time>2017-06-07T06:56:51.000Z</time>
      </trkpt>
      <trkpt lat="44.311108" lon="4.692219">
        <ele>103.446729</ele>
        <time>2017-06-07T06:56:54.000Z</time>
      </trkpt>
      <trkpt lat="44.311010" lon="4.692244">
        <ele>103.564778</ele>
        <time>2017-06-07T06:56:57.000Z</time>
      </trkpt>
      <trkpt lat="44.310955" lon="4.692412">
        <ele>103.721433</ele>
        <time>2017-06-07T06:57:00.000Z</time>
      </trkpt>
      <trkpt lat="44.310940" lon="4.692544">
        <ele>103.834764</ele>
        <time>2017-06-07T06:57:02.000Z</time>
      </trkpt>
      <trkpt lat="44.310917" lon="4.692679">
        <ele>103.952435</ele>
        <time>2017-06-07T06:57:04.000Z</time>
      </trkpt>
      <trkpt lat="44.310890" lon="4.692826">
        <ele>104.081123</ele>
        <time>2017-06-07T06:57:06.000Z</time>
      </trkpt>
      <trkpt lat="44.310856" lon="4.692964">
        <ele>104.204881</ele>
        <time>2017-06-07T06:57:08.000Z</time>
      </trkpt>
      <trkpt lat="44.310790" lon="4.693083">
        <ele>104.332547</ele>
        <time>2017-06-07T06:57:10.000Z</time>
      </trkpt>
      <trkpt lat="44.310730" lon="4.693199">
        <ele>104.453914</ele>
        <time>2017-06-07T06:57:12.000Z</time>
      </trkpt>
      <trkpt lat="44.310654" lon="4.693292">
        <ele>104.573620</ele>
        <time>2017-06-07T06:57:14.000Z</time>
      </trkpt>
      <trkpt lat="44.310566" lon="4.693365">
        <ele>104.694888</ele>
        <time>2017-06-07T06:57:16.000Z</time>
      </trkpt>
      <trkpt lat="44.310460" lon="4.693404">
        <ele>104.641095</ele>
        <time>2017-06-07T06:57:18.000Z</time>
      </trkpt>
      <trkpt lat="44.310356" lon="4.693420">
        <ele>104.558901</ele>
        <time>2017-06-07T06:57:20.000Z</time>
      </trkpt>
      <trkpt lat="44.310240" lon="4.693406">
        <ele>104.467434</ele>
        <time>2017-06-07T06:57:22.000Z</time>
      </trkpt>
      <trkpt lat="44.310127" lon="4.693390">
        <ele>104.378208</ele>
        <time>2017-06-07T06:57:24.000Z</time>
      </trkpt>
      <trkpt lat="44.310000" lon="4.693379">
        <ele>104.278248</ele>
        <time>2017-06-07T06:57:26.000Z</time>
      </trkpt>
      <trkpt lat="44.309875" lon="4.693365">
        <ele>104.179735</ele>
        <time>2017-06-07T06:57:28.000Z</time>
      </trkpt>
      <trkpt lat="44.309746" lon="4.693364">
        <ele>104.078393</ele>
        <time>2017-06-07T06:57:30.000Z</time>
      </trkpt>
      <trkpt lat="44.309624" lon="4.693360">
        <ele>103.982525</ele>
        <time>2017-06-07T06:57:32.000Z</time>
      </trkpt>
      <trkpt lat="44.309490" lon="4.693348">
        <ele>103.877041</ele>
        <time>2017-06-07T06:57:34.000Z</time>
      </trkpt>
      <trkpt lat="44.309357" lon="4.693341">
        <ele>103.772484</ele>
        <time>2017-06-07T06:57:36.000Z</time>
      </trkpt>
      <trkpt lat="44.309227" lon="4.693321">
        <ele>103.669741</ele>
        <time>2017-06-07T06:57:38.000Z</time>
      </trkpt>
      <trkpt lat="44.309105" lon="4.693305">
        <ele>103.573479</ele>
        <time>2017-06-07T06:57:40.000Z</time>
      </trkpt>
      <trkpt lat="44.308980" lon="4.693299">
        <ele>103.475223</ele>
        <time>2017-06-07T06:57:42.000Z</time>
      </trkpt>
      <trkpt lat="44.308853" lon="4.693288">
        <ele>103.375262</ele>
        <time>2017-06-07T06:57:44.000Z</time>
      </trkpt>
      <trkpt lat="44.308730" lon="4.693281">
        <ele>103.290730</ele>
        <time>2017-06-07T06:57:46.000Z</time>
      </trkpt>
      <trkpt lat="44.308605" lon="4.693272">
        <ele>103.244949</ele>
        <time>2017-06-07T06:57:48.000Z</time>
      </trkpt>
      <trkpt lat="44.308475" lon="4.693262">
        <ele>103.197328</ele>
        <time>2017-06-07T06:57:50.000Z</time>
      </trkpt>
      <trkpt lat="44.308346" lon="4.693255">
        <ele>103.150110</ele>
        <time>2017-06-07T06:57:52.000Z</time>
      </trkpt>
      <trkpt lat="44.308220" lon="4.693246">
        <ele>103.103964</ele>
        <time>2017-06-07T06:57:54.000Z</time>
      </trkpt>
      <trkpt lat="44.308100" lon="4.693232">
        <ele>103.059920</ele>
        <time>2017-06-07T06:57:56.000Z</time>
      </trkpt>
      <trkpt lat="44.307972" lon="4.693220">
        <ele>103.012998</ele>
        <time>2017-06-07T06:57:58.000Z</time>
      </trkpt>
      <trkpt lat="44.307846" lon="4.693213">
        <ele>102.966876</ele>
        <time>2017-06-07T06:58:00.000Z</time>
      </trkpt>
      <trkpt lat="44.307716" lon="4.693192">
        <ele>102.919011</ele>
        <time>2017-06-07T06:58:02.000Z</time>
      </trkpt>
      <trkpt lat="44.307590" lon="4.693136">
        <ele>102.870651</ele>
        <time>2017-06-07T06:58:04.000Z</time>
      </trkpt>
      <trkpt lat="44.307465" lon="4.693087">
        <ele>102.823166</ele>
        <time>2017-06-07T06:58:06.000Z</time>
      </trkpt>
      <trkpt lat="44.307346" lon="4.693044">
        <ele>102.778209</ele>
        <time>2017-06-07T06:58:08.000Z</time>
      </trkpt>
      <trkpt lat="44.307228" lon="4.692985">
        <ele>102.732370</ele>
        <time>2017-06-07T06:58:10.000Z</time>
      </trkpt>
      <trkpt lat="44.307102" lon="4.692948">
        <ele>102.685278</ele>
        <time>2017-06-07T06:58:12.000Z</time>
      </trkpt>
      <trkpt lat="44.306984" lon="4.692905">
        <ele>102.643821</ele>
        <time>2017-06-07T06:58:14.000Z</time>
      </trkpt>
      <trkpt lat="44.306860" lon="4.692853">
        <ele>102.649835</ele>
        <time>2017-06-07T06:58:16.000Z</time>
      </trkpt>
      <trkpt lat="44.306736" lon="4.692805">
        <ele>102.655813</ele>
        <time>2017-06-07T06:58:18.000Z</time>
      </trkpt>
      <trkpt lat="44.306606" lon="4.692754">
        <ele>102.662086</ele>
        <time>2017-06-07T06:58:20.000Z</time>
      </trkpt>
      <trkpt lat="44.306477" lon="4.692718">
        <ele>102.668197</ele>
        <time>2017-06-07T06:58:22.000Z</time>
      </trkpt>
      <trkpt lat="44.306350" lon="4.692679">
        <ele>102.674238</ele>
        <time>2017-06-07T06:58:24.000Z</time>
      </trkpt>
      <trkpt lat="44.306232" lon="4.692638">
        <ele>102.679886</ele>
        <time>2017-06-07T06:58:26.000Z</time>
      </trkpt>
      <trkpt lat="44.306118" lon="4.692608">
        <ele>102.685275</ele>
        <time>2017-06-07T06:58:28.000Z</time>
      </trkpt>
      <trkpt lat="44.306004" lon="4.692575">
        <ele>102.690684</ele>
        <time>2017-06-07T06:58:30.000Z</time>
      </trkpt>
      <trkpt lat="44.305897" lon="4.692533">
        <ele>102.695847</ele>
        <time>2017-06-07T06:58:32.000Z</time>
      </trkpt>
      <trkpt lat="44.305782" lon="4.692512">
        <ele>102.701235</ele>
        <time>2017-06-07T06:58:34.000Z</time>
      </trkpt>
      <trkpt lat="44.305668" lon="4.692486">
        <ele>102.706601</ele>
        <time>2017-06-07T06:58:36.000Z</time>
      </trkpt>
      <trkpt lat="44.305550" lon="4.692450">
        <ele>102.712212</ele>
        <time>2017-06-07T06:58:38.000Z</time>
      </trkpt>
      <trkpt lat="44.305435" lon="4.692419">
        <ele>102.717653</ele>
        <time>2017-06-07T06:58:40.000Z</time>
      </trkpt>
      <trkpt lat="44.305317" lon="4.692383">
        <ele>102.723264</ele>
        <time>2017-06-07T06:58:42.000Z</time>
      </trkpt>
      <trkpt lat="44.305195" lon="4.692346">
        <ele>102.766014</ele>
        <time>2017-06-07T06:58:44.000Z</time>
      </trkpt>
      <trkpt lat="44.305084" lon="4.692315">
        <ele>102.866572</ele>
        <time>2017-06-07T06:58:46.000Z</time>
      </trkpt>
      <trkpt lat="44.304970" lon="4.692278">
        <ele>102.970541</ele>
        <time>2017-06-07T06:58:48.000Z</time>
      </trkpt>
      <trkpt lat="44.304867" lon="4.692244">
        <ele>103.064561</ele>
        <time>2017-06-07T06:58:50.000Z</time>
      </trkpt>
      <trkpt lat="44.304770" lon="4.692212">
        <ele>103.153101</ele>
        <time>2017-06-07T06:58:52.000Z</time>
      </trkpt>
      <trkpt lat="44.304680" lon="4.692182">
        <ele>103.235296</ele>
        <time>2017-06-07T06:58:54.000Z</time>
      </trkpt>
      <trkpt lat="44.304585" lon="4.692154">
        <ele>103.321548</ele>
        <time>2017-06-07T06:58:56.000Z</time>
      </trkpt>
      <trkpt lat="44.304490" lon="4.692134">
        <ele>103.406894</ele>
        <time>2017-06-07T06:58:58.000Z</time>
      </trkpt>
      <trkpt lat="44.304394" lon="4.692113">
        <ele>103.493216</ele>
        <time>2017-06-07T06:59:00.000Z</time>
      </trkpt>
      <trkpt lat="44.304302" lon="4.692084">
        <ele>103.576999</ele>
        <time>2017-06-07T06:59:02.000Z</time>
      </trkpt>
      <trkpt lat="44.304188" lon="4.692044">
        <ele>103.681416</ele>
        <time>2017-06-07T06:59:05.000Z</time>
      </trkpt>
      <trkpt lat="44.304073" lon="4.692020">
        <ele>103.784710</ele>
        <time>2017-06-07T06:59:10.000Z</time>
      </trkpt>
      <trkpt lat="44.303986" lon="4.692048">
        <ele>103.864021</ele>
        <time>2017-06-07T06:59:13.000Z</time>
      </trkpt>
      <trkpt lat="44.303894" lon="4.692057">
        <ele>103.945951</ele>
        <time>2017-06-07T06:59:16.000Z</time>
      </trkpt>
      <trkpt lat="44.303800" lon="4.692074">
        <ele>104.030153</ele>
        <time>2017-06-07T06:59:19.000Z</time>
      </trkpt>
      <trkpt lat="44.303734" lon="4.692205">
        <ele>104.132005</ele>
        <time>2017-06-07T06:59:23.000Z</time>
      </trkpt>
      <trkpt lat="44.303734" lon="4.692348">
        <ele>104.222918</ele>
        <time>2017-06-07T06:59:26.000Z</time>
      </trkpt>
      <trkpt lat="44.303715" lon="4.692514">
        <ele>104.326128</ele>
        <time>2017-06-07T06:59:29.000Z</time>
      </trkpt>
      <trkpt lat="44.303677" lon="4.692629">
        <ele>104.346714</ele>
        <time>2017-06-07T06:59:31.000Z</time>
      </trkpt>
      <trkpt lat="44.303616" lon="4.692748">
        <ele>104.370502</ele>
        <time>2017-06-07T06:59:33.000Z</time>
      </trkpt>
      <trkpt lat="44.303555" lon="4.692877">
        <ele>104.395630</ele>
        <time>2017-06-07T06:59:35.000Z</time>
      </trkpt>
      <trkpt lat="44.303486" lon="4.693000">
        <ele>104.421028</ele>
        <time>2017-06-07T06:59:37.000Z</time>
      </trkpt>
      <trkpt lat="44.303417" lon="4.693133">
        <ele>104.447725</ele>
        <time>2017-06-07T06:59:39.000Z</time>
      </trkpt>
      <trkpt lat="44.303345" lon="4.693269">
        <ele>104.475218</ele>
        <time>2017-06-07T06:59:41.000Z</time>
      </trkpt>
      <trkpt lat="44.303288" lon="4.693393">
        <ele>104.499168</ele>
        <time>2017-06-07T06:59:43.000Z</time>
      </trkpt>
      <trkpt lat="44.303223" lon="4.693529">
        <ele>104.525746</ele>
        <time>2017-06-07T06:59:45.000Z</time>
      </trkpt>
      <trkpt lat="44.303173" lon="4.693667">
        <ele>104.550884</ele>
        <time>2017-06-07T06:59:47.000Z</time>
      </trkpt>
      <trkpt lat="44.303123" lon="4.693814">
        <ele>104.577335</ele>
        <time>2017-06-07T06:59:49.000Z</time>
      </trkpt>
      <trkpt lat="44.303062" lon="4.693963">
        <ele>104.605232</ele>
        <time>2017-06-07T06:59:51.000Z</time>
      </trkpt>
      <trkpt lat="44.302998" lon="4.694116">
        <ele>104.634033</ele>
        <time>2017-06-07T06:59:53.000Z</time>
      </trkpt>
      <trkpt lat="44.302940" lon="4.694266">
        <ele>104.661741</ele>
        <time>2017-06-07T06:59:55.000Z</time>
      </trkpt>
      <trkpt lat="44.302880" lon="4.694420">
        <ele>104.690237</ele>
        <time>2017-06-07T06:59:57.000Z</time>
      </trkpt>
      <trkpt lat="44.302822" lon="4.694571">
        <ele>104.718089</ele>
        <time>2017-06-07T06:59:59.000Z</time>
      </trkpt>
      <trkpt lat="44.302757" lon="4.694715">
        <ele>104.631038</ele>
        <time>2017-06-07T07:00:01.000Z</time>
      </trkpt>
      <trkpt lat="44.302692" lon="4.694863">
        <ele>104.398973</ele>
        <time>2017-06-07T07:00:03.000Z</time>
      </trkpt>
      <trkpt lat="44.302616" lon="4.695003">
        <ele>104.164136</ele>
        <time>2017-06-07T07:00:05.000Z</time>
      </trkpt>
      <trkpt lat="44.302536" lon="4.695130">
        <ele>103.938028</ele>
        <time>2017-06-07T07:00:07.000Z</time>
      </trkpt>
      <trkpt lat="44.302452" lon="4.695251">
        <ele>103.712740</ele>
        <time>2017-06-07T07:00:09.000Z</time>
      </trkpt>
      <trkpt lat="44.302357" lon="4.695369">
        <ele>103.475378</ele>
        <time>2017-06-07T07:00:11.000Z</time>
      </trkpt>
      <trkpt lat="44.302265" lon="4.695486">
        <ele>103.243075</ele>
        <time>2017-06-07T07:00:13.000Z</time>
      </trkpt>
      <trkpt lat="44.302170" lon="4.695602">
        <ele>103.007480</ele>
        <time>2017-06-07T07:00:15.000Z</time>
      </trkpt>
      <trkpt lat="44.302080" lon="4.695723">
        <ele>102.774250</ele>
        <time>2017-06-07T07:00:17.000Z</time>
      </trkpt>
      <trkpt lat="44.301990" lon="4.695842">
        <ele>102.542866</ele>
        <time>2017-06-07T07:00:19.000Z</time>
      </trkpt>
      <trkpt lat="44.301903" lon="4.695957">
        <ele>102.319225</ele>
        <time>2017-06-07T07:00:21.000Z</time>
      </trkpt>
      <trkpt lat="44.301807" lon="4.696081">
        <ele>102.075093</ele>
        <time>2017-06-07T07:00:23.000Z</time>
      </trkpt>
      <trkpt lat="44.301712" lon="4.696192">
        <ele>101.843839</ele>
        <time>2017-06-07T07:00:25.000Z</time>
      </trkpt>
      <trkpt lat="44.301620" lon="4.696306">
        <ele>101.614215</ele>
        <time>2017-06-07T07:00:28.000Z</time>
      </trkpt>
      <trkpt lat="44.301530" lon="4.696433">
        <ele>101.375355</ele>
        <time>2017-06-07T07:00:29.000Z</time>
      </trkpt>
      <trkpt lat="44.301440" lon="4.696550">
        <ele>101.268677</ele>
        <time>2017-06-07T07:00:31.000Z</time>
      </trkpt>
      <trkpt lat="44.301346" lon="4.696665">
        <ele>101.160702</ele>
        <time>2017-06-07T07:00:33.000Z</time>
      </trkpt>
      <trkpt lat="44.301270" lon="4.696762">
        <ele>101.071745</ele>
        <time>2017-06-07T07:00:35.000Z</time>
      </trkpt>
      <trkpt lat="44.301186" lon="4.696879">
        <ele>100.969244</ele>
        <time>2017-06-07T07:00:37.000Z</time>
      </trkpt>
      <trkpt lat="44.301110" lon="4.697003">
        <ele>100.868269</ele>
        <time>2017-06-07T07:00:39.000Z</time>
      </trkpt>
      <trkpt lat="44.301025" lon="4.697116">
        <ele>100.766874</ele>
        <time>2017-06-07T07:00:41.000Z</time>
      </trkpt>
      <trkpt lat="44.300950" lon="4.697229">
        <ele>100.671554</ele>
        <time>2017-06-07T07:00:43.000Z</time>
      </trkpt>
      <trkpt lat="44.300870" lon="4.697356">
        <ele>100.566911</ele>
        <time>2017-06-07T07:00:45.000Z</time>
      </trkpt>
      <trkpt lat="44.300810" lon="4.697472">
        <ele>100.478388</ele>
        <time>2017-06-07T07:00:47.000Z</time>
      </trkpt>
      <trkpt lat="44.300760" lon="4.697603">
        <ele>100.386561</ele>
        <time>2017-06-07T07:00:49.000Z</time>
      </trkpt>
      <trkpt lat="44.300735" lon="4.697735">
        <ele>100.302108</ele>
        <time>2017-06-07T07:00:51.000Z</time>
      </trkpt>
      <trkpt lat="44.300686" lon="4.697841">
        <ele>100.224059</ele>
        <time>2017-06-07T07:00:53.000Z</time>
      </trkpt>
      <trkpt lat="44.300600" lon="4.697877">
        <ele>100.146473</ele>
        <time>2017-06-07T07:00:55.000Z</time>
      </trkpt>
      <trkpt lat="44.300507" lon="4.697851">
        <ele>100.064508</ele>
        <time>2017-06-07T07:00:57.000Z</time>
      </trkpt>
      <trkpt lat="44.300407" lon="4.697822">
        <ele>99.976244</ele>
        <time>2017-06-07T07:00:59.000Z</time>
      </trkpt>
      <trkpt lat="44.300312" lon="4.697790">
        <ele>99.891791</ele>
        <time>2017-06-07T07:01:01.000Z</time>
      </trkpt>
      <trkpt lat="44.300213" lon="4.697741">
        <ele>99.821449</ele>
        <time>2017-06-07T07:01:04.000Z</time>
      </trkpt>
      <trkpt lat="44.300114" lon="4.697722">
        <ele>99.827494</ele>
        <time>2017-06-07T07:01:10.000Z</time>
      </trkpt>
      <trkpt lat="44.300022" lon="4.697723">
        <ele>99.833059</ele>
        <time>2017-06-07T07:01:17.000Z</time>
      </trkpt>
      <trkpt lat="44.300110" lon="4.697775">
        <ele>99.838839</ele>
        <time>2017-06-07T07:01:34.000Z</time>
      </trkpt>
      <trkpt lat="44.300200" lon="4.697779">
        <ele>99.844286</ele>
        <time>2017-06-07T07:01:41.000Z</time>
      </trkpt>
      <trkpt lat="44.300100" lon="4.697745">
        <ele>99.850512</ele>
        <time>2017-06-07T07:01:47.000Z</time>
      </trkpt>
      <trkpt lat="44.300003" lon="4.697733">
        <ele>99.856402</ele>
        <time>2017-06-07T07:01:50.000Z</time>
      </trkpt>
      <trkpt lat="44.299892" lon="4.697727">
        <ele>99.863122</ele>
        <time>2017-06-07T07:01:53.000Z</time>
      </trkpt>
      <trkpt lat="44.299774" lon="4.697719">
        <ele>99.870268</ele>
        <time>2017-06-07T07:01:56.000Z</time>
      </trkpt>
      <trkpt lat="44.299660" lon="4.697724">
        <ele>99.877168</ele>
        <time>2017-06-07T07:01:59.000Z</time>
      </trkpt>
      <trkpt lat="44.299534" lon="4.697741">
        <ele>99.884825</ele>
        <time>2017-06-07T07:02:02.000Z</time>
      </trkpt>
      <trkpt lat="44.299404" lon="4.697774">
        <ele>99.892818</ele>
        <time>2017-06-07T07:02:05.000Z</time>
      </trkpt>
      <trkpt lat="44.299313" lon="4.697800">
        <ele>99.898436</ele>
        <time>2017-06-07T07:02:07.000Z</time>
      </trkpt>
      <trkpt lat="44.299213" lon="4.697832">
        <ele>99.904642</ele>
        <time>2017-06-07T07:02:09.000Z</time>
      </trkpt>
      <trkpt lat="44.299114" lon="4.697824">
        <ele>99.910641</ele>
        <time>2017-06-07T07:02:11.000Z</time>
      </trkpt>
      <trkpt lat="44.299026" lon="4.697732">
        <ele>99.917289</ele>
        <time>2017-06-07T07:02:13.000Z</time>
      </trkpt>
      <trkpt lat="44.298992" lon="4.697572">
        <ele>99.924515</ele>
        <time>2017-06-07T07:02:15.000Z</time>
      </trkpt>
      <trkpt lat="44.298990" lon="4.697383">
        <ele>100.124958</ele>
        <time>2017-06-07T07:02:17.000Z</time>
      </trkpt>
      <trkpt lat="44.298977" lon="4.697195">
        <ele>100.548707</ele>
        <time>2017-06-07T07:02:19.000Z</time>
      </trkpt>
      <trkpt lat="44.298970" lon="4.697014">
        <ele>100.955379</ele>
        <time>2017-06-07T07:02:21.000Z</time>
      </trkpt>
      <trkpt lat="44.298943" lon="4.696844">
        <ele>101.346058</ele>
        <time>2017-06-07T07:02:23.000Z</time>
      </trkpt>
      <trkpt lat="44.298890" lon="4.696719">
        <ele>101.672019</ele>
        <time>2017-06-07T07:02:25.000Z</time>
      </trkpt>
      <trkpt lat="44.298786" lon="4.696643">
        <ele>102.039928</ele>
        <time>2017-06-07T07:02:28.000Z</time>
      </trkpt>
      <trkpt lat="44.298687" lon="4.696662">
        <ele>102.353179</ele>
        <time>2017-06-07T07:02:34.000Z</time>
      </trkpt>
      <trkpt lat="44.298656" lon="4.696812">
        <ele>102.703460</ele>
        <time>2017-06-07T07:03:06.000Z</time>
      </trkpt>
      <trkpt lat="44.298680" lon="4.696959">
        <ele>103.041734</ele>
        <time>2017-06-07T07:03:09.000Z</time>
      </trkpt>
      <trkpt lat="44.298706" lon="4.697144">
        <ele>103.464717</ele>
        <time>2017-06-07T07:03:12.000Z</time>
      </trkpt>
      <trkpt lat="44.298720" lon="4.697273">
        <ele>103.757443</ele>
        <time>2017-06-07T07:03:14.000Z</time>
      </trkpt>
      <trkpt lat="44.298733" lon="4.697410">
        <ele>104.067498</ele>
        <time>2017-06-07T07:03:16.000Z</time>
      </trkpt>
      <trkpt lat="44.298756" lon="4.697545">
        <ele>104.378840</ele>
        <time>2017-06-07T07:03:18.000Z</time>
      </trkpt>
      <trkpt lat="44.298780" lon="4.697674">
        <ele>104.677875</ele>
        <time>2017-06-07T07:03:20.000Z</time>
      </trkpt>
      <trkpt lat="44.298798" lon="4.697807">
        <ele>104.981555</ele>
        <time>2017-06-07T07:03:22.000Z</time>
      </trkpt>
      <trkpt lat="44.298817" lon="4.697940">
        <ele>105.285832</ele>
        <time>2017-06-07T07:03:24.000Z</time>
      </trkpt>
      <trkpt lat="44.298836" lon="4.698074">
        <ele>105.587354</ele>
        <time>2017-06-07T07:03:26.000Z</time>
      </trkpt>
      <trkpt lat="44.298862" lon="4.698268">
        <ele>105.942908</ele>
        <time>2017-06-07T07:03:29.000Z</time>
      </trkpt>
      <trkpt lat="44.298870" lon="4.698406">
        <ele>106.192322</ele>
        <time>2017-06-07T07:03:31.000Z</time>
      </trkpt>
      <trkpt lat="44.298885" lon="4.698543">
        <ele>106.441991</ele>
        <time>2017-06-07T07:03:33.000Z</time>
      </trkpt>
      <trkpt lat="44.298912" lon="4.698690">
        <ele>106.715385</ele>
        <time>2017-06-07T07:03:35.000Z</time>
      </trkpt>
      <trkpt lat="44.298940" lon="4.698837">
        <ele>106.989415</ele>
        <time>2017-06-07T07:03:37.000Z</time>
      </trkpt>
      <trkpt lat="44.298950" lon="4.698979">
        <ele>107.246455</ele>
        <time>2017-06-07T07:03:39.000Z</time>
      </trkpt>
      <trkpt lat="44.298965" lon="4.699125">
        <ele>107.512162</ele>
        <time>2017-06-07T07:03:41.000Z</time>
      </trkpt>
      <trkpt lat="44.298990" lon="4.699276">
        <ele>107.791363</ele>
        <time>2017-06-07T07:03:43.000Z</time>
      </trkpt>
      <trkpt lat="44.299000" lon="4.699440">
        <ele>108.087869</ele>
        <time>2017-06-07T07:03:45.000Z</time>
      </trkpt>
      <trkpt lat="44.299015" lon="4.699596">
        <ele>108.371419</ele>
        <time>2017-06-07T07:03:47.000Z</time>
      </trkpt>
      <trkpt lat="44.299034" lon="4.699765">
        <ele>108.679596</ele>
        <time>2017-06-07T07:03:49.000Z</time>
      </trkpt>
      <trkpt lat="44.299053" lon="4.699933">
        <ele>108.985993</ele>
        <time>2017-06-07T07:03:51.000Z</time>
      </trkpt>
      <trkpt lat="44.299070" lon="4.700107">
        <ele>109.302350</ele>
        <time>2017-06-07T07:03:53.000Z</time>
      </trkpt>
      <trkpt lat="44.299090" lon="4.700275">
        <ele>109.609150</ele>
        <time>2017-06-07T07:03:55.000Z</time>
      </trkpt>
      <trkpt lat="44.299100" lon="4.700449">
        <ele>109.923610</ele>
        <time>2017-06-07T07:03:57.000Z</time>
      </trkpt>
      <trkpt lat="44.299114" lon="4.700612">
        <ele>110.184185</ele>
        <time>2017-06-07T07:03:59.000Z</time>
      </trkpt>
      <trkpt lat="44.299133" lon="4.700771">
        <ele>110.392866</ele>
        <time>2017-06-07T07:04:01.000Z</time>
      </trkpt>
      <trkpt lat="44.299152" lon="4.700924">
        <ele>110.593891</ele>
        <time>2017-06-07T07:04:03.000Z</time>
      </trkpt>
      <trkpt lat="44.299170" lon="4.701071">
        <ele>110.786954</ele>
        <time>2017-06-07T07:04:05.000Z</time>
      </trkpt>
      <trkpt lat="44.299187" lon="4.701220">
        <ele>110.982276</ele>
        <time>2017-06-07T07:04:07.000Z</time>
      </trkpt>
      <trkpt lat="44.299202" lon="4.701368">
        <ele>111.175780</ele>
        <time>2017-06-07T07:04:09.000Z</time>
      </trkpt>
      <trkpt lat="44.299217" lon="4.701512">
        <ele>111.364158</ele>
        <time>2017-06-07T07:04:11.000Z</time>
      </trkpt>
      <trkpt lat="44.299236" lon="4.701657">
        <ele>111.554986</ele>
        <time>2017-06-07T07:04:13.000Z</time>
      </trkpt>
      <trkpt lat="44.299250" lon="4.701799">
        <ele>111.740547</ele>
        <time>2017-06-07T07:04:15.000Z</time>
      </trkpt>
      <trkpt lat="44.299270" lon="4.701944">
        <ele>111.931710</ele>
        <time>2017-06-07T07:04:17.000Z</time>
      </trkpt>
      <trkpt lat="44.299282" lon="4.702089">
        <ele>112.120669</ele>
        <time>2017-06-07T07:04:19.000Z</time>
      </trkpt>
      <trkpt lat="44.299300" lon="4.702231">
        <ele>112.307354</ele>
        <time>2017-06-07T07:04:21.000Z</time>
      </trkpt>
      <trkpt lat="44.299328" lon="4.702371">
        <ele>112.495533</ele>
        <time>2017-06-07T07:04:23.000Z</time>
      </trkpt>
      <trkpt lat="44.299343" lon="4.702509">
        <ele>112.676228</ele>
        <time>2017-06-07T07:04:25.000Z</time>
      </trkpt>
      <trkpt lat="44.299360" lon="4.702653">
        <ele>112.865161</ele>
        <time>2017-06-07T07:04:27.000Z</time>
      </trkpt>
      <trkpt lat="44.299362" lon="4.702786">
        <ele>113.037372</ele>
        <time>2017-06-07T07:04:29.000Z</time>
      </trkpt>
      <trkpt lat="44.299370" lon="4.702914">
        <ele>113.203704</ele>
        <time>2017-06-07T07:04:31.000Z</time>
      </trkpt>
      <trkpt lat="44.299385" lon="4.703044">
        <ele>113.304661</ele>
        <time>2017-06-07T07:04:33.000Z</time>
      </trkpt>
      <trkpt lat="44.299400" lon="4.703177">
        <ele>113.021088</ele>
        <time>2017-06-07T07:04:35.000Z</time>
      </trkpt>
      <trkpt lat="44.299416" lon="4.703312">
        <ele>112.732886</ele>
        <time>2017-06-07T07:04:37.000Z</time>
      </trkpt>
      <trkpt lat="44.299435" lon="4.703447">
        <ele>112.443112</ele>
        <time>2017-06-07T07:04:39.000Z</time>
      </trkpt>
      <trkpt lat="44.299446" lon="4.703587">
        <ele>112.146481</ele>
        <time>2017-06-07T07:04:41.000Z</time>
      </trkpt>
      <trkpt lat="44.299465" lon="4.703731">
        <ele>111.838086</ele>
        <time>2017-06-07T07:04:43.000Z</time>
      </trkpt>
      <trkpt lat="44.299477" lon="4.703863">
        <ele>111.557841</ele>
        <time>2017-06-07T07:04:45.000Z</time>
      </trkpt>
      <trkpt lat="44.299484" lon="4.704008">
        <ele>111.251757</ele>
        <time>2017-06-07T07:04:47.000Z</time>
      </trkpt>
      <trkpt lat="44.299500" lon="4.704160">
        <ele>110.928180</ele>
        <time>2017-06-07T07:04:49.000Z</time>
      </trkpt>
      <trkpt lat="44.299507" lon="4.704318">
        <ele>110.594773</ele>
        <time>2017-06-07T07:04:51.000Z</time>
      </trkpt>
      <trkpt lat="44.299520" lon="4.704487">
        <ele>110.236786</ele>
        <time>2017-06-07T07:04:53.000Z</time>
      </trkpt>
      <trkpt lat="44.299526" lon="4.704668">
        <ele>109.855167</ele>
        <time>2017-06-07T07:04:55.000Z</time>
      </trkpt>
      <trkpt lat="44.299530" lon="4.704857">
        <ele>109.456933</ele>
        <time>2017-06-07T07:04:57.000Z</time>
      </trkpt>
      <trkpt lat="44.299530" lon="4.705053">
        <ele>109.044130</ele>
        <time>2017-06-07T07:04:59.000Z</time>
      </trkpt>
      <trkpt lat="44.299526" lon="4.705254">
        <ele>108.620632</ele>
        <time>2017-06-07T07:05:01.000Z</time>
      </trkpt>
      <trkpt lat="44.299507" lon="4.705469">
        <ele>108.164374</ele>
        <time>2017-06-07T07:05:03.000Z</time>
      </trkpt>
      <trkpt lat="44.299484" lon="4.705695">
        <ele>107.896508</ele>
        <time>2017-06-07T07:05:05.000Z</time>
      </trkpt>
      <trkpt lat="44.299442" lon="4.705920">
        <ele>107.687736</ele>
        <time>2017-06-07T07:05:07.000Z</time>
      </trkpt>
      <trkpt lat="44.299380" lon="4.706149">
        <ele>107.467911</ele>
        <time>2017-06-07T07:05:09.000Z</time>
      </trkpt>
      <trkpt lat="44.299305" lon="4.706375">
        <ele>107.244247</ele>
        <time>2017-06-07T07:05:11.000Z</time>
      </trkpt>
      <trkpt lat="44.299263" lon="4.706490">
        <ele>107.128329</ele>
        <time>2017-06-07T07:05:12.000Z</time>
      </trkpt>
      <trkpt lat="44.299220" lon="4.706604">
        <ele>107.012630</ele>
        <time>2017-06-07T07:05:13.000Z</time>
      </trkpt>
      <trkpt lat="44.299175" lon="4.706713">
        <ele>106.899651</ele>
        <time>2017-06-07T07:05:14.000Z</time>
      </trkpt>
      <trkpt lat="44.299088" lon="4.706919">
        <ele>106.684895</ele>
        <time>2017-06-07T07:05:16.000Z</time>
      </trkpt>
      <trkpt lat="44.298990" lon="4.707105">
        <ele>106.477523</ele>
        <time>2017-06-07T07:05:18.000Z</time>
      </trkpt>
      <trkpt lat="44.298885" lon="4.707278">
        <ele>106.273864</ele>
        <time>2017-06-07T07:05:20.000Z</time>
      </trkpt>
      <trkpt lat="44.298780" lon="4.707430">
        <ele>106.084192</ele>
        <time>2017-06-07T07:05:22.000Z</time>
      </trkpt>
      <trkpt lat="44.298668" lon="4.707570">
        <ele>105.895668</ele>
        <time>2017-06-07T07:05:24.000Z</time>
      </trkpt>
      <trkpt lat="44.298565" lon="4.707706">
        <ele>105.814499</ele>
        <time>2017-06-07T07:05:26.000Z</time>
      </trkpt>
      <trkpt lat="44.298462" lon="4.707822">
        <ele>105.847858</ele>
        <time>2017-06-07T07:05:28.000Z</time>
      </trkpt>
      <trkpt lat="44.298360" lon="4.707937">
        <ele>105.880907</ele>
        <time>2017-06-07T07:05:30.000Z</time>
      </trkpt>
      <trkpt lat="44.298250" lon="4.708030">
        <ele>105.913327</ele>
        <time>2017-06-07T07:05:32.000Z</time>
      </trkpt>
      <trkpt lat="44.298140" lon="4.708133">
        <ele>105.946717</ele>
        <time>2017-06-07T07:05:34.000Z</time>
      </trkpt>
      <trkpt lat="44.298046" lon="4.708254">
        <ele>105.978946</ele>
        <time>2017-06-07T07:05:36.000Z</time>
      </trkpt>
      <trkpt lat="44.297950" lon="4.708393">
        <ele>106.013806</ele>
        <time>2017-06-07T07:05:38.000Z</time>
      </trkpt>
      <trkpt lat="44.297848" lon="4.708526">
        <ele>106.048987</ele>
        <time>2017-06-07T07:05:40.000Z</time>
      </trkpt>
      <trkpt lat="44.297750" lon="4.708653">
        <ele>106.082691</ele>
        <time>2017-06-07T07:05:42.000Z</time>
      </trkpt>
      <trkpt lat="44.297646" lon="4.708781">
        <ele>106.117639</ele>
        <time>2017-06-07T07:05:44.000Z</time>
      </trkpt>
      <trkpt lat="44.297535" lon="4.708908">
        <ele>106.153815</ele>
        <time>2017-06-07T07:05:46.000Z</time>
      </trkpt>
      <trkpt lat="44.297430" lon="4.709041">
        <ele>106.189552</ele>
        <time>2017-06-07T07:05:48.000Z</time>
      </trkpt>
      <trkpt lat="44.297325" lon="4.709178">
        <ele>106.225778</ele>
        <time>2017-06-07T07:05:50.000Z</time>
      </trkpt>
      <trkpt lat="44.297222" lon="4.709306">
        <ele>106.297513</ele>
        <time>2017-06-07T07:05:52.000Z</time>
      </trkpt>
      <trkpt lat="44.297127" lon="4.709436">
        <ele>106.474069</ele>
        <time>2017-06-07T07:05:54.000Z</time>
      </trkpt>
      <trkpt lat="44.297030" lon="4.709569">
        <ele>106.654516</ele>
        <time>2017-06-07T07:05:56.000Z</time>
      </trkpt>
      <trkpt lat="44.296940" lon="4.709713">
        <ele>106.836190</ele>
        <time>2017-06-07T07:05:58.000Z</time>
      </trkpt>
      <trkpt lat="44.296856" lon="4.709865">
        <ele>107.018682</ele>
        <time>2017-06-07T07:06:00.000Z</time>
      </trkpt>
      <trkpt lat="44.296776" lon="4.710023">
        <ele>107.202603</ele>
        <time>2017-06-07T07:06:02.000Z</time>
      </trkpt>
      <trkpt lat="44.296700" lon="4.710187">
        <ele>107.388268</ele>
        <time>2017-06-07T07:06:04.000Z</time>
      </trkpt>
      <trkpt lat="44.296623" lon="4.710351">
        <ele>107.574658</ele>
        <time>2017-06-07T07:06:06.000Z</time>
      </trkpt>
      <trkpt lat="44.296560" lon="4.710519">
        <ele>107.754896</ele>
        <time>2017-06-07T07:06:08.000Z</time>
      </trkpt>
      <trkpt lat="44.296486" lon="4.710684">
        <ele>107.939936</ele>
        <time>2017-06-07T07:06:10.000Z</time>
      </trkpt>
      <trkpt lat="44.296420" lon="4.710847">
        <ele>108.117906</ele>
        <time>2017-06-07T07:06:12.000Z</time>
      </trkpt>
      <trkpt lat="44.296356" lon="4.711009">
        <ele>108.293751</ele>
        <time>2017-06-07T07:06:14.000Z</time>
      </trkpt>
      <trkpt lat="44.296300" lon="4.711165">
        <ele>108.459600</ele>
        <time>2017-06-07T07:06:16.000Z</time>
      </trkpt>
      <trkpt lat="44.296246" lon="4.711319">
        <ele>108.622567</ele>
        <time>2017-06-07T07:06:18.000Z</time>
      </trkpt>
      <trkpt lat="44.296185" lon="4.711466">
        <ele>108.464883</ele>
        <time>2017-06-07T07:06:20.000Z</time>
      </trkpt>
      <trkpt lat="44.296127" lon="4.711606">
        <ele>108.278018</ele>
        <time>2017-06-07T07:06:22.000Z</time>
      </trkpt>
      <trkpt lat="44.296066" lon="4.711740">
        <ele>108.094566</ele>
        <time>2017-06-07T07:06:24.000Z</time>
      </trkpt>
      <trkpt lat="44.296000" lon="4.711879">
        <ele>107.901873</ele>
        <time>2017-06-07T07:06:26.000Z</time>
      </trkpt>
      <trkpt lat="44.295940" lon="4.712031">
        <ele>107.701350</ele>
        <time>2017-06-07T07:06:28.000Z</time>
      </trkpt>
      <trkpt lat="44.295876" lon="4.712195">
        <ele>107.485568</ele>
        <time>2017-06-07T07:06:30.000Z</time>
      </trkpt>
      <trkpt lat="44.295810" lon="4.712363">
        <ele>107.264182</ele>
        <time>2017-06-07T07:06:32.000Z</time>
      </trkpt>
      <trkpt lat="44.295740" lon="4.712535">
        <ele>107.035614</ele>
        <time>2017-06-07T07:06:34.000Z</time>
      </trkpt>
      <trkpt lat="44.295670" lon="4.712721">
        <ele>106.792854</ele>
        <time>2017-06-07T07:06:36.000Z</time>
      </trkpt>
      <trkpt lat="44.295600" lon="4.712907">
        <ele>106.550095</ele>
        <time>2017-06-07T07:06:38.000Z</time>
      </trkpt>
      <trkpt lat="44.295532" lon="4.713090">
        <ele>106.311901</ele>
        <time>2017-06-07T07:06:40.000Z</time>
      </trkpt>
      <trkpt lat="44.295475" lon="4.713262">
        <ele>106.092942</ele>
        <time>2017-06-07T07:06:42.000Z</time>
      </trkpt>
      <trkpt lat="44.295425" lon="4.713428">
        <ele>105.884890</ele>
        <time>2017-06-07T07:06:44.000Z</time>
      </trkpt>
      <trkpt lat="44.295387" lon="4.713564">
        <ele>105.717293</ele>
        <time>2017-06-07T07:06:46.000Z</time>
      </trkpt>
      <trkpt lat="44.295360" lon="4.713695">
        <ele>105.567831</ele>
        <time>2017-06-07T07:06:49.000Z</time>
      </trkpt>
      <trkpt lat="44.295390" lon="4.713574">
        <ele>105.427435</ele>
        <time>2017-06-07T07:06:57.000Z</time>
      </trkpt>
      <trkpt lat="44.295418" lon="4.713422">
        <ele>105.255354</ele>
        <time>2017-06-07T07:07:01.000Z</time>
      </trkpt>
      <trkpt lat="44.295364" lon="4.713292">
        <ele>105.090561</ele>
        <time>2017-06-07T07:07:05.000Z</time>
      </trkpt>
      <trkpt lat="44.295277" lon="4.713224">
        <ele>104.937859</ele>
        <time>2017-06-07T07:07:08.000Z</time>
      </trkpt>
      <trkpt lat="44.295200" lon="4.713158">
        <ele>104.799482</ele>
        <time>2017-06-07T07:07:11.000Z</time>
      </trkpt>
      <trkpt lat="44.295116" lon="4.713073">
        <ele>104.640608</ele>
        <time>2017-06-07T07:07:14.000Z</time>
      </trkpt>
      <trkpt lat="44.295002" lon="4.712984">
        <ele>104.440570</ele>
        <time>2017-06-07T07:07:17.000Z</time>
      </trkpt>
      <trkpt lat="44.294918" lon="4.712926">
        <ele>104.297043</ele>
        <time>2017-06-07T07:07:19.000Z</time>
      </trkpt>
      <trkpt lat="44.294834" lon="4.712880">
        <ele>104.158841</ele>
        <time>2017-06-07T07:07:21.000Z</time>
      </trkpt>
      <trkpt lat="44.294712" lon="4.712818">
        <ele>103.959983</ele>
        <time>2017-06-07T07:07:24.000Z</time>
      </trkpt>
      <trkpt lat="44.294620" lon="4.712777">
        <ele>103.812062</ele>
        <time>2017-06-07T07:07:26.000Z</time>
      </trkpt>
      <trkpt lat="44.294518" lon="4.712733">
        <ele>103.648541</ele>
        <time>2017-06-07T07:07:28.000Z</time>
      </trkpt>
      <trkpt lat="44.294420" lon="4.712689">
        <ele>103.490864</ele>
        <time>2017-06-07T07:07:30.000Z</time>
      </trkpt>
      <trkpt lat="44.294323" lon="4.712655">
        <ele>103.337676</ele>
        <time>2017-06-07T07:07:32.000Z</time>
      </trkpt>
      <trkpt lat="44.294220" lon="4.712619">
        <ele>103.175038</ele>
        <time>2017-06-07T07:07:35.000Z</time>
      </trkpt>
      <trkpt lat="44.294120" lon="4.712600">
        <ele>103.020449</ele>
        <time>2017-06-07T07:07:40.000Z</time>
      </trkpt>
      <trkpt lat="44.294014" lon="4.712581">
        <ele>103.112529</ele>
        <time>2017-06-07T07:07:44.000Z</time>
      </trkpt>
      <trkpt lat="44.293915" lon="4.712563">
        <ele>103.272247</ele>
        <time>2017-06-07T07:07:47.000Z</time>
      </trkpt>
      <trkpt lat="44.293793" lon="4.712541">
        <ele>103.469044</ele>
        <time>2017-06-07T07:07:50.000Z</time>
      </trkpt>
      <trkpt lat="44.293697" lon="4.712525">
        <ele>103.623716</ele>
        <time>2017-06-07T07:07:52.000Z</time>
      </trkpt>
      <trkpt lat="44.293600" lon="4.712508">
        <ele>103.780116</ele>
        <time>2017-06-07T07:07:54.000Z</time>
      </trkpt>
      <trkpt lat="44.293503" lon="4.712495">
        <ele>103.936011</ele>
        <time>2017-06-07T07:07:56.000Z</time>
      </trkpt>
      <trkpt lat="44.293370" lon="4.712482">
        <ele>104.149307</ele>
        <time>2017-06-07T07:07:59.000Z</time>
      </trkpt>
      <trkpt lat="44.293266" lon="4.712470">
        <ele>104.316255</ele>
        <time>2017-06-07T07:08:01.000Z</time>
      </trkpt>
      <trkpt lat="44.293170" lon="4.712457">
        <ele>104.470558</ele>
        <time>2017-06-07T07:08:03.000Z</time>
      </trkpt>
      <trkpt lat="44.293068" lon="4.712449">
        <ele>104.633997</ele>
        <time>2017-06-07T07:08:05.000Z</time>
      </trkpt>
      <trkpt lat="44.292973" lon="4.712434">
        <ele>104.786948</ele>
        <time>2017-06-07T07:08:07.000Z</time>
      </trkpt>
      <trkpt lat="44.292873" lon="4.712421">
        <ele>104.947621</ele>
        <time>2017-06-07T07:08:09.000Z</time>
      </trkpt>
      <trkpt lat="44.292774" lon="4.712411">
        <ele>105.106417</ele>
        <time>2017-06-07T07:08:11.000Z</time>
      </trkpt>
      <trkpt lat="44.292670" lon="4.712398">
        <ele>105.273463</ele>
        <time>2017-06-07T07:08:13.000Z</time>
      </trkpt>
      <trkpt lat="44.292572" lon="4.712383">
        <ele>105.431184</ele>
        <time>2017-06-07T07:08:15.000Z</time>
      </trkpt>
      <trkpt lat="44.292477" lon="4.712372">
        <ele>105.583688</ele>
        <time>2017-06-07T07:08:17.000Z</time>
      </trkpt>
      <trkpt lat="44.292380" lon="4.712355">
        <ele>105.740087</ele>
        <time>2017-06-07T07:08:19.000Z</time>
      </trkpt>
      <trkpt lat="44.292290" lon="4.712361">
        <ele>105.872135</ele>
        <time>2017-06-07T07:08:21.000Z</time>
      </trkpt>
      <trkpt lat="44.292200" lon="4.712411">
        <ele>105.951681</ele>
        <time>2017-06-07T07:08:23.000Z</time>
      </trkpt>
      <trkpt lat="44.292130" lon="4.712529">
        <ele>106.041775</ele>
        <time>2017-06-07T07:08:25.000Z</time>
      </trkpt>
      <trkpt lat="44.292103" lon="4.712673">
        <ele>106.129284</ele>
        <time>2017-06-07T07:08:27.000Z</time>
      </trkpt>
      <trkpt lat="44.292090" lon="4.712816">
        <ele>106.214025</ele>
        <time>2017-06-07T07:08:29.000Z</time>
      </trkpt>
      <trkpt lat="44.292080" lon="4.712955">
        <ele>106.296150</ele>
        <time>2017-06-07T07:08:31.000Z</time>
      </trkpt>
      <trkpt lat="44.292072" lon="4.713100">
        <ele>106.381643</ele>
        <time>2017-06-07T07:08:33.000Z</time>
      </trkpt>
      <trkpt lat="44.292060" lon="4.713239">
        <ele>106.463949</ele>
        <time>2017-06-07T07:08:35.000Z</time>
      </trkpt>
      <trkpt lat="44.292050" lon="4.713377">
        <ele>106.545489</ele>
        <time>2017-06-07T07:08:37.000Z</time>
      </trkpt>
      <trkpt lat="44.292046" lon="4.713512">
        <ele>106.624919</ele>
        <time>2017-06-07T07:08:39.000Z</time>
      </trkpt>
      <trkpt lat="44.292038" lon="4.713642">
        <ele>106.701624</ele>
        <time>2017-06-07T07:08:41.000Z</time>
      </trkpt>
      <trkpt lat="44.292030" lon="4.713774">
        <ele>106.779500</ele>
        <time>2017-06-07T07:08:43.000Z</time>
      </trkpt>
      <trkpt lat="44.292027" lon="4.713911">
        <ele>106.860076</ele>
        <time>2017-06-07T07:08:45.000Z</time>
      </trkpt>
      <trkpt lat="44.292023" lon="4.714053">
        <ele>106.943618</ele>
        <time>2017-06-07T07:08:47.000Z</time>
      </trkpt>
      <trkpt lat="44.292010" lon="4.714200">
        <ele>107.030691</ele>
        <time>2017-06-07T07:08:49.000Z</time>
      </trkpt>
      <trkpt lat="44.291992" lon="4.714348">
        <ele>107.118943</ele>
        <time>2017-06-07T07:08:51.000Z</time>
      </trkpt>
      <trkpt lat="44.291973" lon="4.714490">
        <ele>107.203866</ele>
        <time>2017-06-07T07:08:53.000Z</time>
      </trkpt>
      <trkpt lat="44.291958" lon="4.714629">
        <ele>107.286503</ele>
        <time>2017-06-07T07:08:55.000Z</time>
      </trkpt>
      <trkpt lat="44.291946" lon="4.714770">
        <ele>107.311050</ele>
        <time>2017-06-07T07:08:57.000Z</time>
      </trkpt>
      <trkpt lat="44.291930" lon="4.714915">
        <ele>107.245164</ele>
        <time>2017-06-07T07:08:59.000Z</time>
      </trkpt>
      <trkpt lat="44.291910" lon="4.715066">
        <ele>107.176202</ele>
        <time>2017-06-07T07:09:01.000Z</time>
      </trkpt>
      <trkpt lat="44.291878" lon="4.715218">
        <ele>107.105051</ele>
        <time>2017-06-07T07:09:03.000Z</time>
      </trkpt>
      <trkpt lat="44.291836" lon="4.715361">
        <ele>107.035636</ele>
        <time>2017-06-07T07:09:05.000Z</time>
      </trkpt>
      <trkpt lat="44.291790" lon="4.715500">
        <ele>106.966866</ele>
        <time>2017-06-07T07:09:07.000Z</time>
      </trkpt>
      <trkpt lat="44.291737" lon="4.715626">
        <ele>106.901235</ele>
        <time>2017-06-07T07:09:09.000Z</time>
      </trkpt>
      <trkpt lat="44.291676" lon="4.715746">
        <ele>106.835138</ele>
        <time>2017-06-07T07:09:11.000Z</time>
      </trkpt>
      <trkpt lat="44.291610" lon="4.715871">
        <ele>106.765383</ele>
        <time>2017-06-07T07:09:13.000Z</time>
      </trkpt>
      <trkpt lat="44.291546" lon="4.715984">
        <ele>106.700673</ele>
        <time>2017-06-07T07:09:15.000Z</time>
      </trkpt>
      <trkpt lat="44.291480" lon="4.716112">
        <ele>106.629829</ele>
        <time>2017-06-07T07:09:17.000Z</time>
      </trkpt>
      <trkpt lat="44.291424" lon="4.716237">
        <ele>106.563605</ele>
        <time>2017-06-07T07:09:19.000Z</time>
      </trkpt>
      <trkpt lat="44.291370" lon="4.716366">
        <ele>106.496494</ele>
        <time>2017-06-07T07:09:21.000Z</time>
      </trkpt>
      <trkpt lat="44.291332" lon="4.716499">
        <ele>106.432184</ele>
        <time>2017-06-07T07:09:23.000Z</time>
      </trkpt>
      <trkpt lat="44.291310" lon="4.716631">
        <ele>106.371319</ele>
        <time>2017-06-07T07:09:25.000Z</time>
      </trkpt>
      <trkpt lat="44.291290" lon="4.716768">
        <ele>106.308528</ele>
        <time>2017-06-07T07:09:27.000Z</time>
      </trkpt>
      <trkpt lat="44.291270" lon="4.716895">
        <ele>106.250130</ele>
        <time>2017-06-07T07:09:29.000Z</time>
      </trkpt>
      <trkpt lat="44.291245" lon="4.717038">
        <ele>106.131847</ele>
        <time>2017-06-07T07:09:31.000Z</time>
      </trkpt>
      <trkpt lat="44.291206" lon="4.717155">
        <ele>105.948387</ele>
        <time>2017-06-07T07:09:33.000Z</time>
      </trkpt>
      <trkpt lat="44.291138" lon="4.717256">
        <ele>105.751291</ele>
        <time>2017-06-07T07:09:35.000Z</time>
      </trkpt>
      <trkpt lat="44.291046" lon="4.717337">
        <ele>105.535339</ele>
        <time>2017-06-07T07:09:37.000Z</time>
      </trkpt>
      <trkpt lat="44.290955" lon="4.717415">
        <ele>105.323325</ele>
        <time>2017-06-07T07:09:39.000Z</time>
      </trkpt>
      <trkpt lat="44.290886" lon="4.717512">
        <ele>105.128936</ele>
        <time>2017-06-07T07:09:41.000Z</time>
      </trkpt>
      <trkpt lat="44.290844" lon="4.717642">
        <ele>104.926194</ele>
        <time>2017-06-07T07:09:43.000Z</time>
      </trkpt>
      <trkpt lat="44.290830" lon="4.717792">
        <ele>104.711168</ele>
        <time>2017-06-07T07:09:45.000Z</time>
      </trkpt>
      <trkpt lat="44.290825" lon="4.717939">
        <ele>104.501975</ele>
        <time>2017-06-07T07:09:47.000Z</time>
      </trkpt>
      <trkpt lat="44.290825" lon="4.718093">
        <ele>104.283068</ele>
        <time>2017-06-07T07:09:49.000Z</time>
      </trkpt>
      <trkpt lat="44.290836" lon="4.718227">
        <ele>104.091342</ele>
        <time>2017-06-07T07:09:51.000Z</time>
      </trkpt>
      <trkpt lat="44.290836" lon="4.718369">
        <ele>103.889493</ele>
        <time>2017-06-07T07:09:53.000Z</time>
      </trkpt>
      <trkpt lat="44.290840" lon="4.718519">
        <ele>103.676124</ele>
        <time>2017-06-07T07:09:55.000Z</time>
      </trkpt>
      <trkpt lat="44.290840" lon="4.718666">
        <ele>103.467167</ele>
        <time>2017-06-07T07:09:57.000Z</time>
      </trkpt>
      <trkpt lat="44.290830" lon="4.718810">
        <ele>103.261514</ele>
        <time>2017-06-07T07:09:59.000Z</time>
      </trkpt>
      <trkpt lat="44.290813" lon="4.718958">
        <ele>103.048444</ele>
        <time>2017-06-07T07:10:02.000Z</time>
      </trkpt>
      <trkpt lat="44.290780" lon="4.719086">
        <ele>102.855054</ele>
        <time>2017-06-07T07:10:03.000Z</time>
      </trkpt>
      <trkpt lat="44.290750" lon="4.719214">
        <ele>102.663600</ele>
        <time>2017-06-07T07:10:05.000Z</time>
      </trkpt>
      <trkpt lat="44.290710" lon="4.719348">
        <ele>102.713166</ele>
        <time>2017-06-07T07:10:07.000Z</time>
      </trkpt>
      <trkpt lat="44.290670" lon="4.719475">
        <ele>102.797824</ele>
        <time>2017-06-07T07:10:09.000Z</time>
      </trkpt>
      <trkpt lat="44.290623" lon="4.719597">
        <ele>102.882359</ele>
        <time>2017-06-07T07:10:11.000Z</time>
      </trkpt>
      <trkpt lat="44.290580" lon="4.719718">
        <ele>102.964784</ele>
        <time>2017-06-07T07:10:13.000Z</time>
      </trkpt>
      <trkpt lat="44.290540" lon="4.719851">
        <ele>103.052806</ele>
        <time>2017-06-07T07:10:15.000Z</time>
      </trkpt>
      <trkpt lat="44.290500" lon="4.719987">
        <ele>103.142518</ele>
        <time>2017-06-07T07:10:17.000Z</time>
      </trkpt>
      <trkpt lat="44.290462" lon="4.720120">
        <ele>103.229894</ele>
        <time>2017-06-07T07:10:19.000Z</time>
      </trkpt>
      <trkpt lat="44.290430" lon="4.720258">
        <ele>103.318402</ele>
        <time>2017-06-07T07:10:21.000Z</time>
      </trkpt>
      <trkpt lat="44.290394" lon="4.720404">
        <ele>103.412621</ele>
        <time>2017-06-07T07:10:23.000Z</time>
      </trkpt>
      <trkpt lat="44.290370" lon="4.720552">
        <ele>103.505212</ele>
        <time>2017-06-07T07:10:25.000Z</time>
      </trkpt>
      <trkpt lat="44.290340" lon="4.720696">
        <ele>103.596719</ele>
        <time>2017-06-07T07:10:27.000Z</time>
      </trkpt>
      <trkpt lat="44.290302" lon="4.720824">
        <ele>103.681269</ele>
        <time>2017-06-07T07:10:29.000Z</time>
      </trkpt>
      <trkpt lat="44.290250" lon="4.720940">
        <ele>103.764780</ele>
        <time>2017-06-07T07:10:31.000Z</time>
      </trkpt>
      <trkpt lat="44.290184" lon="4.721030">
        <ele>103.843396</ele>
        <time>2017-06-07T07:10:33.000Z</time>
      </trkpt>
      <trkpt lat="44.290108" lon="4.721095">
        <ele>103.919354</ele>
        <time>2017-06-07T07:10:35.000Z</time>
      </trkpt>
      <trkpt lat="44.289997" lon="4.721218">
        <ele>104.040120</ele>
        <time>2017-06-07T07:10:38.000Z</time>
      </trkpt>
      <trkpt lat="44.289930" lon="4.721325">
        <ele>104.126861</ele>
        <time>2017-06-07T07:10:40.000Z</time>
      </trkpt>
      <trkpt lat="44.289864" lon="4.721444">
        <ele>104.221892</ele>
        <time>2017-06-07T07:10:42.000Z</time>
      </trkpt>
      <trkpt lat="44.289803" lon="4.721579">
        <ele>104.325587</ele>
        <time>2017-06-07T07:10:44.000Z</time>
      </trkpt>
      <trkpt lat="44.289740" lon="4.721707">
        <ele>104.426483</ele>
        <time>2017-06-07T07:10:46.000Z</time>
      </trkpt>
      <trkpt lat="44.289680" lon="4.721846">
        <ele>104.531912</ele>
        <time>2017-06-07T07:10:48.000Z</time>
      </trkpt>
      <trkpt lat="44.289616" lon="4.721979">
        <ele>104.636004</ele>
        <time>2017-06-07T07:10:50.000Z</time>
      </trkpt>
      <trkpt lat="44.289547" lon="4.722105">
        <ele>104.739047</ele>
        <time>2017-06-07T07:10:52.000Z</time>
      </trkpt>
      <trkpt lat="44.289474" lon="4.722226">
        <ele>104.841831</ele>
        <time>2017-06-07T07:10:54.000Z</time>
      </trkpt>
      <trkpt lat="44.289394" lon="4.722346">
        <ele>104.948342</ele>
        <time>2017-06-07T07:10:56.000Z</time>
      </trkpt>
      <trkpt lat="44.289318" lon="4.722466">
        <ele>105.052414</ele>
        <time>2017-06-07T07:10:58.000Z</time>
      </trkpt>
      <trkpt lat="44.289246" lon="4.722576">
        <ele>105.149229</ele>
        <time>2017-06-07T07:11:00.000Z</time>
      </trkpt>
      <trkpt lat="44.289165" lon="4.722690">
        <ele>105.253560</ele>
        <time>2017-06-07T07:11:02.000Z</time>
      </trkpt>
      <trkpt lat="44.289080" lon="4.722796">
        <ele>105.356948</ele>
        <time>2017-06-07T07:11:04.000Z</time>
      </trkpt>
      <trkpt lat="44.289000" lon="4.722889">
        <ele>105.451386</ele>
        <time>2017-06-07T07:11:06.000Z</time>
      </trkpt>
      <trkpt lat="44.288914" lon="4.722967">
        <ele>105.544425</ele>
        <time>2017-06-07T07:11:08.000Z</time>
      </trkpt>
      <trkpt lat="44.288815" lon="4.723037">
        <ele>105.645108</ele>
        <time>2017-06-07T07:11:10.000Z</time>
      </trkpt>
      <trkpt lat="44.288723" lon="4.723121">
        <ele>105.744837</ele>
        <time>2017-06-07T07:11:12.000Z</time>
      </trkpt>
      <trkpt lat="44.288643" lon="4.723207">
        <ele>105.781755</ele>
        <time>2017-06-07T07:11:14.000Z</time>
      </trkpt>
      <trkpt lat="44.288570" lon="4.723316">
        <ele>105.726865</ele>
        <time>2017-06-07T07:11:16.000Z</time>
      </trkpt>
      <trkpt lat="44.288480" lon="4.723509">
        <ele>105.642163</ele>
        <time>2017-06-07T07:11:19.000Z</time>
      </trkpt>
      <trkpt lat="44.288425" lon="4.723640">
        <ele>105.586316</ele>
        <time>2017-06-07T07:11:21.000Z</time>
      </trkpt>
      <trkpt lat="44.288370" lon="4.723775">
        <ele>105.529196</ele>
        <time>2017-06-07T07:11:23.000Z</time>
      </trkpt>
      <trkpt lat="44.288310" lon="4.723907">
        <ele>105.471697</ele>
        <time>2017-06-07T07:11:25.000Z</time>
      </trkpt>
      <trkpt lat="44.288258" lon="4.724038">
        <ele>105.416614</ele>
        <time>2017-06-07T07:11:27.000Z</time>
      </trkpt>
      <trkpt lat="44.288200" lon="4.724164">
        <ele>105.361527</ele>
        <time>2017-06-07T07:11:29.000Z</time>
      </trkpt>
      <trkpt lat="44.288143" lon="4.724292">
        <ele>105.306094</ele>
        <time>2017-06-07T07:11:31.000Z</time>
      </trkpt>
      <trkpt lat="44.288086" lon="4.724426">
        <ele>105.248774</ele>
        <time>2017-06-07T07:11:33.000Z</time>
      </trkpt>
      <trkpt lat="44.288020" lon="4.724557">
        <ele>105.189867</ele>
        <time>2017-06-07T07:11:35.000Z</time>
      </trkpt>
      <trkpt lat="44.287945" lon="4.724680">
        <ele>105.130451</ele>
        <time>2017-06-07T07:11:37.000Z</time>
      </trkpt>
      <trkpt lat="44.287870" lon="4.724798">
        <ele>105.072423</ele>
        <time>2017-06-07T07:11:39.000Z</time>
      </trkpt>
      <trkpt lat="44.287780" lon="4.724911">
        <ele>105.010260</ele>
        <time>2017-06-07T07:11:41.000Z</time>
      </trkpt>
      <trkpt lat="44.287697" lon="4.725026">
        <ele>104.950207</ele>
        <time>2017-06-07T07:11:43.000Z</time>
      </trkpt>
      <trkpt lat="44.287600" lon="4.725137">
        <ele>104.885794</ele>
        <time>2017-06-07T07:11:45.000Z</time>
      </trkpt>
      <trkpt lat="44.287502" lon="4.725238">
        <ele>104.955181</ele>
        <time>2017-06-07T07:11:47.000Z</time>
      </trkpt>
      <trkpt lat="44.287403" lon="4.725342">
        <ele>105.046129</ele>
        <time>2017-06-07T07:11:49.000Z</time>
      </trkpt>
      <trkpt lat="44.287300" lon="4.725437">
        <ele>105.136750</ele>
        <time>2017-06-07T07:11:51.000Z</time>
      </trkpt>
      <trkpt lat="44.287200" lon="4.725532">
        <ele>105.225542</ele>
        <time>2017-06-07T07:11:53.000Z</time>
      </trkpt>
      <trkpt lat="44.287106" lon="4.725616">
        <ele>105.307473</ele>
        <time>2017-06-07T07:11:55.000Z</time>
      </trkpt>
      <trkpt lat="44.287006" lon="4.725710">
        <ele>105.395970</ele>
        <time>2017-06-07T07:11:57.000Z</time>
      </trkpt>
      <trkpt lat="44.286915" lon="4.725803">
        <ele>105.478756</ele>
        <time>2017-06-07T07:11:59.000Z</time>
      </trkpt>
      <trkpt lat="44.286823" lon="4.725894">
        <ele>105.561524</ele>
        <time>2017-06-07T07:12:01.000Z</time>
      </trkpt>
      <trkpt lat="44.286728" lon="4.725986">
        <ele>105.646397</ele>
        <time>2017-06-07T07:12:03.000Z</time>
      </trkpt>
      <trkpt lat="44.286630" lon="4.726080">
        <ele>105.733680</ele>
        <time>2017-06-07T07:12:05.000Z</time>
      </trkpt>
      <trkpt lat="44.286537" lon="4.726160">
        <ele>105.813872</ele>
        <time>2017-06-07T07:12:07.000Z</time>
      </trkpt>
      <trkpt lat="44.286450" lon="4.726237">
        <ele>105.889491</ele>
        <time>2017-06-07T07:12:09.000Z</time>
      </trkpt>
      <trkpt lat="44.286360" lon="4.726320">
        <ele>105.968672</ele>
        <time>2017-06-07T07:12:11.000Z</time>
      </trkpt>
      <trkpt lat="44.286274" lon="4.726395">
        <ele>106.043111</ele>
        <time>2017-06-07T07:12:13.000Z</time>
      </trkpt>
      <trkpt lat="44.286190" lon="4.726471">
        <ele>106.116592</ele>
        <time>2017-06-07T07:12:15.000Z</time>
      </trkpt>
      <trkpt lat="44.286120" lon="4.726565">
        <ele>106.187884</ele>
        <time>2017-06-07T07:12:17.000Z</time>
      </trkpt>
      <trkpt lat="44.286087" lon="4.726681">
        <ele>106.271524</ele>
        <time>2017-06-07T07:12:19.000Z</time>
      </trkpt>
      <trkpt lat="44.286020" lon="4.726809">
        <ele>106.382028</ele>
        <time>2017-06-07T07:12:22.000Z</time>
      </trkpt>
      <trkpt lat="44.285904" lon="4.726781">
        <ele>106.496627</ele>
        <time>2017-06-07T07:12:25.000Z</time>
      </trkpt>
      <trkpt lat="44.285786" lon="4.726764">
        <ele>106.612109</ele>
        <time>2017-06-07T07:12:28.000Z</time>
      </trkpt>
      <trkpt lat="44.285683" lon="4.726822">
        <ele>106.720219</ele>
        <time>2017-06-07T07:12:31.000Z</time>
      </trkpt>
      <trkpt lat="44.285595" lon="4.726873">
        <ele>106.812967</ele>
        <time>2017-06-07T07:12:34.000Z</time>
      </trkpt>
      <trkpt lat="44.285507" lon="4.726825">
        <ele>106.904933</ele>
        <time>2017-06-07T07:12:37.000Z</time>
      </trkpt>
      <trkpt lat="44.285416" lon="4.726841">
        <ele>106.994220</ele>
        <time>2017-06-07T07:12:40.000Z</time>
      </trkpt>
      <trkpt lat="44.285330" lon="4.726919">
        <ele>107.094040</ele>
        <time>2017-06-07T07:12:43.000Z</time>
      </trkpt>
      <trkpt lat="44.285275" lon="4.727087">
        <ele>107.222781</ele>
        <time>2017-06-07T07:12:46.000Z</time>
      </trkpt>
      <trkpt lat="44.285286" lon="4.727212">
        <ele>107.310549</ele>
        <time>2017-06-07T07:12:48.000Z</time>
      </trkpt>
      <trkpt lat="44.285350" lon="4.727370">
        <ele>107.437063</ele>
        <time>2017-06-07T07:12:51.000Z</time>
      </trkpt>
      <trkpt lat="44.285397" lon="4.727531">
        <ele>107.558234</ele>
        <time>2017-06-07T07:12:54.000Z</time>
      </trkpt>
      <trkpt lat="44.285400" lon="4.727668">
        <ele>107.653754</ele>
        <time>2017-06-07T07:12:56.000Z</time>
      </trkpt>
      <trkpt lat="44.285400" lon="4.727807">
        <ele>107.750622</ele>
        <time>2017-06-07T07:12:58.000Z</time>
      </trkpt>
      <trkpt lat="44.285397" lon="4.727953">
        <ele>107.852411</ele>
        <time>2017-06-07T07:13:00.000Z</time>
      </trkpt>
      <trkpt lat="44.285385" lon="4.728106">
        <ele>107.984836</ele>
        <time>2017-06-07T07:13:02.000Z</time>
      </trkpt>
      <trkpt lat="44.285370" lon="4.728262">
        <ele>108.356257</ele>
        <time>2017-06-07T07:13:04.000Z</time>
      </trkpt>
      <trkpt lat="44.285347" lon="4.728422">
        <ele>108.741349</ele>
        <time>2017-06-07T07:13:06.000Z</time>
      </trkpt>
      <trkpt lat="44.285330" lon="4.728583">
        <ele>109.125374</ele>
        <time>2017-06-07T07:13:08.000Z</time>
      </trkpt>
      <trkpt lat="44.285320" lon="4.728747">
        <ele>109.513769</ele>
        <time>2017-06-07T07:13:10.000Z</time>
      </trkpt>
      <trkpt lat="44.285305" lon="4.728906">
        <ele>109.892208</ele>
        <time>2017-06-07T07:13:12.000Z</time>
      </trkpt>
      <trkpt lat="44.285280" lon="4.729065">
        <ele>110.276346</ele>
        <time>2017-06-07T07:13:14.000Z</time>
      </trkpt>
      <trkpt lat="44.285244" lon="4.729221">
        <ele>110.663117</ele>
        <time>2017-06-07T07:13:16.000Z</time>
      </trkpt>
      <trkpt lat="44.285210" lon="4.729368">
        <ele>111.027652</ele>
        <time>2017-06-07T07:13:18.000Z</time>
      </trkpt>
      <trkpt lat="44.285170" lon="4.729514">
        <ele>111.396540</ele>
        <time>2017-06-07T07:13:20.000Z</time>
      </trkpt>
      <trkpt lat="44.285145" lon="4.729663">
        <ele>111.757667</ele>
        <time>2017-06-07T07:13:22.000Z</time>
      </trkpt>
      <trkpt lat="44.285110" lon="4.729810">
        <ele>112.123229</ele>
        <time>2017-06-07T07:13:24.000Z</time>
      </trkpt>
      <trkpt lat="44.285084" lon="4.729957">
        <ele>112.480540</ele>
        <time>2017-06-07T07:13:26.000Z</time>
      </trkpt>
      <trkpt lat="44.285050" lon="4.730099">
        <ele>112.833867</ele>
        <time>2017-06-07T07:13:28.000Z</time>
      </trkpt>
      <trkpt lat="44.285023" lon="4.730236">
        <ele>113.169177</ele>
        <time>2017-06-07T07:13:30.000Z</time>
      </trkpt>
      <trkpt lat="44.284990" lon="4.730386">
        <ele>113.539474</ele>
        <time>2017-06-07T07:13:32.000Z</time>
      </trkpt>
      <trkpt lat="44.284973" lon="4.730521">
        <ele>113.862929</ele>
        <time>2017-06-07T07:13:34.000Z</time>
      </trkpt>
      <trkpt lat="44.284943" lon="4.730659">
        <ele>113.859077</ele>
        <time>2017-06-07T07:13:36.000Z</time>
      </trkpt>
      <trkpt lat="44.284910" lon="4.730798">
        <ele>113.839004</ele>
        <time>2017-06-07T07:13:38.000Z</time>
      </trkpt>
      <trkpt lat="44.284878" lon="4.730936">
        <ele>113.819120</ele>
        <time>2017-06-07T07:13:40.000Z</time>
      </trkpt>
      <trkpt lat="44.284847" lon="4.731075">
        <ele>113.799164</ele>
        <time>2017-06-07T07:13:42.000Z</time>
      </trkpt>
      <trkpt lat="44.284813" lon="4.731224">
        <ele>113.777727</ele>
        <time>2017-06-07T07:13:44.000Z</time>
      </trkpt>
      <trkpt lat="44.284780" lon="4.731362">
        <ele>113.757784</ele>
        <time>2017-06-07T07:13:46.000Z</time>
      </trkpt>
      <trkpt lat="44.284737" lon="4.731504">
        <ele>113.736650</ele>
        <time>2017-06-07T07:13:48.000Z</time>
      </trkpt>
      <trkpt lat="44.284700" lon="4.731665">
        <ele>113.713471</ele>
        <time>2017-06-07T07:13:50.000Z</time>
      </trkpt>
      <trkpt lat="44.284668" lon="4.731822">
        <ele>113.691096</ele>
        <time>2017-06-07T07:13:52.000Z</time>
      </trkpt>
      <trkpt lat="44.284640" lon="4.731961">
        <ele>113.671302</ele>
        <time>2017-06-07T07:13:54.000Z</time>
      </trkpt>
      <trkpt lat="44.284607" lon="4.732107">
        <ele>113.650316</ele>
        <time>2017-06-07T07:13:56.000Z</time>
      </trkpt>
      <trkpt lat="44.284573" lon="4.732269">
        <ele>113.627175</ele>
        <time>2017-06-07T07:13:58.000Z</time>
      </trkpt>
      <trkpt lat="44.284540" lon="4.732431">
        <ele>113.604088</ele>
        <time>2017-06-07T07:14:00.000Z</time>
      </trkpt>
      <trkpt lat="44.284500" lon="4.732578">
        <ele>113.582531</ele>
        <time>2017-06-07T07:14:02.000Z</time>
      </trkpt>
      <trkpt lat="44.284470" lon="4.732735">
        <ele>113.560257</ele>
        <time>2017-06-07T07:14:04.000Z</time>
      </trkpt>
      <trkpt lat="44.284435" lon="4.732889">
        <ele>113.538110</ele>
        <time>2017-06-07T07:14:06.000Z</time>
      </trkpt>
      <trkpt lat="44.284410" lon="4.733043">
        <ele>113.569149</ele>
        <time>2017-06-07T07:14:08.000Z</time>
      </trkpt>
      <trkpt lat="44.284390" lon="4.733190">
        <ele>113.611789</ele>
        <time>2017-06-07T07:14:10.000Z</time>
      </trkpt>
      <trkpt lat="44.284367" lon="4.733349">
        <ele>113.658015</ele>
        <time>2017-06-07T07:14:12.000Z</time>
      </trkpt>
      <trkpt lat="44.284348" lon="4.733509">
        <ele>113.704232</ele>
        <time>2017-06-07T07:14:14.000Z</time>
      </trkpt>
      <trkpt lat="44.284330" lon="4.733677">
        <ele>113.752640</ele>
        <time>2017-06-07T07:14:16.000Z</time>
      </trkpt>
      <trkpt lat="44.284313" lon="4.733847">
        <ele>113.801555</ele>
        <time>2017-06-07T07:14:18.000Z</time>
      </trkpt>
      <trkpt lat="44.284300" lon="4.734014">
        <ele>113.849425</ele>
        <time>2017-06-07T07:14:20.000Z</time>
      </trkpt>
      <trkpt lat="44.284300" lon="4.734176">
        <ele>113.895590</ele>
        <time>2017-06-07T07:14:22.000Z</time>
      </trkpt>
      <trkpt lat="44.284300" lon="4.734335">
        <ele>113.940899</ele>
        <time>2017-06-07T07:14:24.000Z</time>
      </trkpt>
      <trkpt lat="44.284300" lon="4.734499">
        <ele>113.987634</ele>
        <time>2017-06-07T07:14:26.000Z</time>
      </trkpt>
      <trkpt lat="44.284300" lon="4.734653">
        <ele>114.031519</ele>
        <time>2017-06-07T07:14:28.000Z</time>
      </trkpt>
      <trkpt lat="44.284306" lon="4.734805">
        <ele>114.074900</ele>
        <time>2017-06-07T07:14:30.000Z</time>
      </trkpt>
      <trkpt lat="44.284317" lon="4.734961">
        <ele>114.119570</ele>
        <time>2017-06-07T07:14:32.000Z</time>
      </trkpt>
      <trkpt lat="44.284325" lon="4.735107">
        <ele>114.161297</ele>
        <time>2017-06-07T07:14:34.000Z</time>
      </trkpt>
      <trkpt lat="44.284340" lon="4.735250">
        <ele>114.202482</ele>
        <time>2017-06-07T07:14:36.000Z</time>
      </trkpt>
      <trkpt lat="44.284367" lon="4.735384">
        <ele>114.242151</ele>
        <time>2017-06-07T07:14:38.000Z</time>
      </trkpt>
      <trkpt lat="44.284378" lon="4.735511">
        <ele>114.460878</ele>
        <time>2017-06-07T07:14:40.000Z</time>
      </trkpt>
      <trkpt lat="44.284390" lon="4.735640">
        <ele>114.730488</ele>
        <time>2017-06-07T07:14:42.000Z</time>
      </trkpt>
      <trkpt lat="44.284412" lon="4.735780">
        <ele>115.027558</ele>
        <time>2017-06-07T07:14:44.000Z</time>
      </trkpt>
      <trkpt lat="44.284424" lon="4.735913">
        <ele>115.305391</ele>
        <time>2017-06-07T07:14:46.000Z</time>
      </trkpt>
      <trkpt lat="44.284440" lon="4.736096">
        <ele>115.687491</ele>
        <time>2017-06-07T07:14:49.000Z</time>
      </trkpt>
      <trkpt lat="44.284460" lon="4.736221">
        <ele>115.952955</ele>
        <time>2017-06-07T07:14:51.000Z</time>
      </trkpt>
      <trkpt lat="44.284496" lon="4.736403">
        <ele>116.344298</ele>
        <time>2017-06-07T07:14:54.000Z</time>
      </trkpt>
      <trkpt lat="44.284520" lon="4.736528">
        <ele>116.612526</ele>
        <time>2017-06-07T07:14:56.000Z</time>
      </trkpt>
      <trkpt lat="44.284542" lon="4.736660">
        <ele>116.893422</ele>
        <time>2017-06-07T07:14:58.000Z</time>
      </trkpt>
      <trkpt lat="44.284565" lon="4.736788">
        <ele>117.166941</ele>
        <time>2017-06-07T07:15:00.000Z</time>
      </trkpt>
      <trkpt lat="44.284588" lon="4.736918">
        <ele>117.444481</ele>
        <time>2017-06-07T07:15:02.000Z</time>
      </trkpt>
      <trkpt lat="44.284610" lon="4.737042">
        <ele>117.709255</ele>
        <time>2017-06-07T07:15:04.000Z</time>
      </trkpt>
      <trkpt lat="44.284637" lon="4.737172">
        <ele>117.989800</ele>
        <time>2017-06-07T07:15:06.000Z</time>
      </trkpt>
      <trkpt lat="44.284657" lon="4.737295">
        <ele>118.251219</ele>
        <time>2017-06-07T07:15:08.000Z</time>
      </trkpt>
      <trkpt lat="44.284683" lon="4.737455">
        <ele>118.591266</ele>
        <time>2017-06-07T07:15:11.000Z</time>
      </trkpt>
      <trkpt lat="44.284706" lon="4.737610">
        <ele>118.919342</ele>
        <time>2017-06-07T07:15:14.000Z</time>
      </trkpt>
      <trkpt lat="44.284740" lon="4.737757">
        <ele>119.239517</ele>
        <time>2017-06-07T07:15:17.000Z</time>
      </trkpt>
      <trkpt lat="44.284780" lon="4.737910">
        <ele>119.391911</ele>
        <time>2017-06-07T07:15:20.000Z</time>
      </trkpt>
      <trkpt lat="44.284817" lon="4.738076">
        <ele>119.197248</ele>
        <time>2017-06-07T07:15:23.000Z</time>
      </trkpt>
      <trkpt lat="44.284847" lon="4.738246">
        <ele>119.001208</ele>
        <time>2017-06-07T07:15:26.000Z</time>
      </trkpt>
      <trkpt lat="44.284885" lon="4.738426">
        <ele>118.791090</ele>
        <time>2017-06-07T07:15:29.000Z</time>
      </trkpt>
      <trkpt lat="44.284927" lon="4.738602">
        <ele>118.583370</ele>
        <time>2017-06-07T07:15:32.000Z</time>
      </trkpt>
      <trkpt lat="44.284954" lon="4.738738">
        <ele>118.425350</ele>
        <time>2017-06-07T07:15:34.000Z</time>
      </trkpt>
      <trkpt lat="44.284980" lon="4.738876">
        <ele>118.265576</ele>
        <time>2017-06-07T07:15:36.000Z</time>
      </trkpt>
      <trkpt lat="44.285015" lon="4.739008">
        <ele>118.107970</ele>
        <time>2017-06-07T07:15:38.000Z</time>
      </trkpt>
      <trkpt lat="44.285046" lon="4.739146">
        <ele>117.946029</ele>
        <time>2017-06-07T07:15:40.000Z</time>
      </trkpt>
      <trkpt lat="44.285080" lon="4.739291">
        <ele>117.775193</ele>
        <time>2017-06-07T07:15:42.000Z</time>
      </trkpt>
      <trkpt lat="44.285120" lon="4.739434">
        <ele>117.603294</ele>
        <time>2017-06-07T07:15:44.000Z</time>
      </trkpt>
      <trkpt lat="44.285160" lon="4.739585">
        <ele>117.423023</ele>
        <time>2017-06-07T07:15:46.000Z</time>
      </trkpt>
      <trkpt lat="44.285210" lon="4.739758">
        <ele>117.214133</ele>
        <time>2017-06-07T07:15:48.000Z</time>
      </trkpt>
      <trkpt lat="44.285263" lon="4.739926">
        <ele>117.008577</ele>
        <time>2017-06-07T07:15:50.000Z</time>
      </trkpt>
      <trkpt lat="44.285310" lon="4.740102">
        <ele>116.798255</ele>
        <time>2017-06-07T07:15:52.000Z</time>
      </trkpt>
      <trkpt lat="44.285370" lon="4.740262">
        <ele>116.546137</ele>
        <time>2017-06-07T07:15:54.000Z</time>
      </trkpt>
      <trkpt lat="44.285435" lon="4.740423">
        <ele>116.122798</ele>
        <time>2017-06-07T07:15:56.000Z</time>
      </trkpt>
      <trkpt lat="44.285507" lon="4.740598">
        <ele>115.660514</ele>
        <time>2017-06-07T07:15:58.000Z</time>
      </trkpt>
      <trkpt lat="44.285583" lon="4.740764">
        <ele>115.209219</ele>
        <time>2017-06-07T07:16:00.000Z</time>
      </trkpt>
      <trkpt lat="44.285660" lon="4.740934">
        <ele>114.748477</ele>
        <time>2017-06-07T07:16:02.000Z</time>
      </trkpt>
      <trkpt lat="44.285740" lon="4.741097">
        <ele>114.295844</ele>
        <time>2017-06-07T07:16:04.000Z</time>
      </trkpt>
      <trkpt lat="44.285816" lon="4.741250">
        <ele>113.869331</ele>
        <time>2017-06-07T07:16:06.000Z</time>
      </trkpt>
      <trkpt lat="44.285892" lon="4.741413">
        <ele>113.423810</ele>
        <time>2017-06-07T07:16:08.000Z</time>
      </trkpt>
      <trkpt lat="44.285970" lon="4.741569">
        <ele>112.988003</ele>
        <time>2017-06-07T07:16:10.000Z</time>
      </trkpt>
      <trkpt lat="44.286045" lon="4.741734">
        <ele>112.540361</ele>
        <time>2017-06-07T07:16:12.000Z</time>
      </trkpt>
      <trkpt lat="44.286120" lon="4.741898">
        <ele>112.094652</ele>
        <time>2017-06-07T07:16:14.000Z</time>
      </trkpt>
      <trkpt lat="44.286205" lon="4.742057">
        <ele>111.640160</ele>
        <time>2017-06-07T07:16:16.000Z</time>
      </trkpt>
      <trkpt lat="44.286297" lon="4.742200">
        <ele>111.199821</ele>
        <time>2017-06-07T07:16:18.000Z</time>
      </trkpt>
      <trkpt lat="44.286377" lon="4.742326">
        <ele>110.897491</ele>
        <time>2017-06-07T07:16:20.000Z</time>
      </trkpt>
      <trkpt lat="44.286446" lon="4.742436">
        <ele>110.934198</ele>
        <time>2017-06-07T07:16:22.000Z</time>
      </trkpt>
      <trkpt lat="44.286520" lon="4.742536">
        <ele>110.970295</ele>
        <time>2017-06-07T07:16:24.000Z</time>
      </trkpt>
      <trkpt lat="44.286564" lon="4.742650">
        <ele>111.002801</ele>
        <time>2017-06-07T07:16:26.000Z</time>
      </trkpt>
      <trkpt lat="44.286570" lon="4.742784">
        <ele>111.036498</ele>
        <time>2017-06-07T07:16:28.000Z</time>
      </trkpt>
      <trkpt lat="44.286560" lon="4.742928">
        <ele>111.072809</ele>
        <time>2017-06-07T07:16:30.000Z</time>
      </trkpt>
      <trkpt lat="44.286522" lon="4.743067">
        <ele>111.110152</ele>
        <time>2017-06-07T07:16:33.000Z</time>
      </trkpt>
      <trkpt lat="44.286427" lon="4.743166">
        <ele>111.151706</ele>
        <time>2017-06-07T07:16:59.000Z</time>
      </trkpt>
      <trkpt lat="44.286354" lon="4.743256">
        <ele>111.185842</ele>
        <time>2017-06-07T07:17:03.000Z</time>
      </trkpt>
      <trkpt lat="44.286270" lon="4.743371">
        <ele>111.227078</ele>
        <time>2017-06-07T07:17:07.000Z</time>
      </trkpt>
      <trkpt lat="44.286182" lon="4.743471">
        <ele>111.266850</ele>
        <time>2017-06-07T07:17:11.000Z</time>
      </trkpt>
      <trkpt lat="44.286114" lon="4.743563">
        <ele>111.300040</ele>
        <time>2017-06-07T07:17:14.000Z</time>
      </trkpt>
      <trkpt lat="44.286010" lon="4.743645">
        <ele>111.341910</ele>
        <time>2017-06-07T07:17:17.000Z</time>
      </trkpt>
      <trkpt lat="44.285923" lon="4.743737">
        <ele>111.380166</ele>
        <time>2017-06-07T07:17:20.000Z</time>
      </trkpt>
      <trkpt lat="44.285820" lon="4.743827">
        <ele>111.422761</ele>
        <time>2017-06-07T07:17:23.000Z</time>
      </trkpt>
      <trkpt lat="44.285700" lon="4.743926">
        <ele>111.471622</ele>
        <time>2017-06-07T07:17:26.000Z</time>
      </trkpt>
      <trkpt lat="44.285614" lon="4.743984">
        <ele>111.505104</ele>
        <time>2017-06-07T07:17:28.000Z</time>
      </trkpt>
      <trkpt lat="44.285530" lon="4.744052">
        <ele>111.534387</ele>
        <time>2017-06-07T07:17:30.000Z</time>
      </trkpt>
      <trkpt lat="44.285423" lon="4.744148">
        <ele>111.567977</ele>
        <time>2017-06-07T07:17:33.000Z</time>
      </trkpt>
      <trkpt lat="44.285340" lon="4.744234">
        <ele>111.595273</ele>
        <time>2017-06-07T07:17:35.000Z</time>
      </trkpt>
      <trkpt lat="44.285263" lon="4.744327">
        <ele>111.622160</ele>
        <time>2017-06-07T07:17:37.000Z</time>
      </trkpt>
      <trkpt lat="44.285187" lon="4.744414">
        <ele>111.648114</ele>
        <time>2017-06-07T07:17:39.000Z</time>
      </trkpt>
      <trkpt lat="44.285107" lon="4.744509">
        <ele>111.675848</ele>
        <time>2017-06-07T07:17:41.000Z</time>
      </trkpt>
      <trkpt lat="44.285015" lon="4.744606">
        <ele>111.706294</ele>
        <time>2017-06-07T07:17:43.000Z</time>
      </trkpt>
      <trkpt lat="44.284930" lon="4.744688">
        <ele>111.733579</ele>
        <time>2017-06-07T07:17:45.000Z</time>
      </trkpt>
      <trkpt lat="44.284855" lon="4.744779">
        <ele>111.759819</ele>
        <time>2017-06-07T07:17:47.000Z</time>
      </trkpt>
      <trkpt lat="44.284782" lon="4.744873">
        <ele>111.786043</ele>
        <time>2017-06-07T07:17:49.000Z</time>
      </trkpt>
      <trkpt lat="44.284706" lon="4.744968">
        <ele>111.812981</ele>
        <time>2017-06-07T07:17:51.000Z</time>
      </trkpt>
      <trkpt lat="44.284637" lon="4.745062">
        <ele>111.838439</ele>
        <time>2017-06-07T07:17:53.000Z</time>
      </trkpt>
      <trkpt lat="44.284557" lon="4.745157">
        <ele>111.866174</ele>
        <time>2017-06-07T07:17:55.000Z</time>
      </trkpt>
      <trkpt lat="44.284477" lon="4.745245">
        <ele>111.893070</ele>
        <time>2017-06-07T07:17:57.000Z</time>
      </trkpt>
      <trkpt lat="44.284397" lon="4.745337">
        <ele>111.920441</ele>
        <time>2017-06-07T07:17:59.000Z</time>
      </trkpt>
      <trkpt lat="44.284317" lon="4.745425">
        <ele>111.947337</ele>
        <time>2017-06-07T07:18:01.000Z</time>
      </trkpt>
      <trkpt lat="44.284237" lon="4.745508">
        <ele>111.973658</ele>
        <time>2017-06-07T07:18:03.000Z</time>
      </trkpt>
      <trkpt lat="44.284103" lon="4.745643">
        <ele>111.963713</ele>
        <time>2017-06-07T07:18:06.000Z</time>
      </trkpt>
      <trkpt lat="44.284020" lon="4.745740">
        <ele>111.923767</ele>
        <time>2017-06-07T07:18:08.000Z</time>
      </trkpt>
      <trkpt lat="44.283936" lon="4.745840">
        <ele>111.883028</ele>
        <time>2017-06-07T07:18:10.000Z</time>
      </trkpt>
      <trkpt lat="44.283860" lon="4.745935">
        <ele>111.845382</ele>
        <time>2017-06-07T07:18:12.000Z</time>
      </trkpt>
      <trkpt lat="44.283780" lon="4.746023">
        <ele>111.807795</ele>
        <time>2017-06-07T07:18:14.000Z</time>
      </trkpt>
      <trkpt lat="44.283700" lon="4.746110">
        <ele>111.770371</ele>
        <time>2017-06-07T07:18:16.000Z</time>
      </trkpt>
      <trkpt lat="44.283610" lon="4.746195">
        <ele>111.730269</ele>
        <time>2017-06-07T07:18:18.000Z</time>
      </trkpt>
      <trkpt lat="44.283497" lon="4.746312">
        <ele>111.678348</ele>
        <time>2017-06-07T07:18:21.000Z</time>
      </trkpt>
      <trkpt lat="44.283424" lon="4.746398">
        <ele>111.643098</ele>
        <time>2017-06-07T07:18:23.000Z</time>
      </trkpt>
      <trkpt lat="44.283330" lon="4.746535">
        <ele>111.592953</ele>
        <time>2017-06-07T07:18:26.000Z</time>
      </trkpt>
      <trkpt lat="44.283230" lon="4.746641">
        <ele>111.546615</ele>
        <time>2017-06-07T07:18:29.000Z</time>
      </trkpt>
      <trkpt lat="44.283127" lon="4.746672">
        <ele>111.507723</ele>
        <time>2017-06-07T07:18:32.000Z</time>
      </trkpt>
      <trkpt lat="44.283043" lon="4.746743">
        <ele>111.471482</ele>
        <time>2017-06-07T07:18:37.000Z</time>
      </trkpt>
      <trkpt lat="44.283028" lon="4.746891">
        <ele>111.431982</ele>
        <time>2017-06-07T07:18:41.000Z</time>
      </trkpt>
      <trkpt lat="44.282986" lon="4.747003">
        <ele>111.398570</ele>
        <time>2017-06-07T07:18:44.000Z</time>
      </trkpt>
      <trkpt lat="44.282900" lon="4.747058">
        <ele>111.363657</ele>
        <time>2017-06-07T07:18:47.000Z</time>
      </trkpt>
      <trkpt lat="44.282803" lon="4.747070">
        <ele>111.341448</ele>
        <time>2017-06-07T07:18:50.000Z</time>
      </trkpt>
      <trkpt lat="44.282703" lon="4.747080">
        <ele>111.457952</ele>
        <time>2017-06-07T07:18:53.000Z</time>
      </trkpt>
      <trkpt lat="44.282590" lon="4.747068">
        <ele>111.589645</ele>
        <time>2017-06-07T07:18:56.000Z</time>
      </trkpt>
      <trkpt lat="44.282486" lon="4.747063">
        <ele>111.710572</ele>
        <time>2017-06-07T07:18:59.000Z</time>
      </trkpt>
      <trkpt lat="44.282375" lon="4.747043">
        <ele>111.840630</ele>
        <time>2017-06-07T07:19:02.000Z</time>
      </trkpt>
      <trkpt lat="44.282257" lon="4.747037">
        <ele>111.977845</ele>
        <time>2017-06-07T07:19:05.000Z</time>
      </trkpt>
      <trkpt lat="44.282160" lon="4.747045">
        <ele>112.090763</ele>
        <time>2017-06-07T07:19:08.000Z</time>
      </trkpt>
      <trkpt lat="44.282066" lon="4.747087">
        <ele>112.205450</ele>
        <time>2017-06-07T07:19:12.000Z</time>
      </trkpt>
      <trkpt lat="44.281956" lon="4.747109">
        <ele>112.334581</ele>
        <time>2017-06-07T07:19:17.000Z</time>
      </trkpt>
      <trkpt lat="44.281868" lon="4.747161">
        <ele>112.445617</ele>
        <time>2017-06-07T07:19:20.000Z</time>
      </trkpt>
      <trkpt lat="44.281760" lon="4.747117">
        <ele>112.576350</ele>
        <time>2017-06-07T07:19:23.000Z</time>
      </trkpt>
      <trkpt lat="44.281660" lon="4.747060">
        <ele>112.701860</ele>
        <time>2017-06-07T07:19:26.000Z</time>
      </trkpt>
      <trkpt lat="44.281550" lon="4.747016">
        <ele>112.834826</ele>
        <time>2017-06-07T07:19:28.000Z</time>
      </trkpt>
      <trkpt lat="44.281433" lon="4.746986">
        <ele>112.973060</ele>
        <time>2017-06-07T07:19:31.000Z</time>
      </trkpt>
      <trkpt lat="44.281326" lon="4.746925">
        <ele>113.107359</ele>
        <time>2017-06-07T07:19:34.000Z</time>
      </trkpt>
      <trkpt lat="44.281235" lon="4.746881">
        <ele>113.219264</ele>
        <time>2017-06-07T07:19:36.000Z</time>
      </trkpt>
      <trkpt lat="44.281143" lon="4.746817">
        <ele>113.338700</ele>
        <time>2017-06-07T07:19:39.000Z</time>
      </trkpt>
      <trkpt lat="44.281036" lon="4.746769">
        <ele>113.409135</ele>
        <time>2017-06-07T07:19:43.000Z</time>
      </trkpt>
      <trkpt lat="44.280937" lon="4.746706">
        <ele>113.377514</ele>
        <time>2017-06-07T07:19:46.000Z</time>
      </trkpt>
      <trkpt lat="44.280834" lon="4.746627">
        <ele>113.343359</ele>
        <time>2017-06-07T07:19:49.000Z</time>
      </trkpt>
      <trkpt lat="44.280740" lon="4.746556">
        <ele>113.312297</ele>
        <time>2017-06-07T07:19:52.000Z</time>
      </trkpt>
      <trkpt lat="44.280660" lon="4.746472">
        <ele>113.283207</ele>
        <time>2017-06-07T07:19:55.000Z</time>
      </trkpt>
      <trkpt lat="44.280582" lon="4.746398">
        <ele>113.255800</ele>
        <time>2017-06-07T07:19:58.000Z</time>
      </trkpt>
      <trkpt lat="44.280530" lon="4.746519">
        <ele>113.226432</ele>
        <time>2017-06-07T07:20:06.000Z</time>
      </trkpt>
      <trkpt lat="44.280518" lon="4.746656">
        <ele>113.197711</ele>
        <time>2017-06-07T07:20:10.000Z</time>
      </trkpt>
      <trkpt lat="44.280420" lon="4.746725">
        <ele>113.165811</ele>
        <time>2017-06-07T07:20:13.000Z</time>
      </trkpt>
      <trkpt lat="44.280330" lon="4.746765">
        <ele>113.138359</ele>
        <time>2017-06-07T07:20:15.000Z</time>
      </trkpt>
      <trkpt lat="44.280220" lon="4.746839">
        <ele>113.102871</ele>
        <time>2017-06-07T07:20:18.000Z</time>
      </trkpt>
      <trkpt lat="44.280148" lon="4.746916">
        <ele>113.076513</ele>
        <time>2017-06-07T07:20:21.000Z</time>
      </trkpt>
      <trkpt lat="44.280050" lon="4.746991">
        <ele>113.044033</ele>
        <time>2017-06-07T07:20:25.000Z</time>
      </trkpt>
      <trkpt lat="44.279957" lon="4.747063">
        <ele>113.013126</ele>
        <time>2017-06-07T07:20:28.000Z</time>
      </trkpt>
      <trkpt lat="44.279870" lon="4.747109">
        <ele>112.986088</ele>
        <time>2017-06-07T07:20:31.000Z</time>
      </trkpt>
      <trkpt lat="44.279770" lon="4.747148">
        <ele>112.955909</ele>
        <time>2017-06-07T07:20:34.000Z</time>
      </trkpt>
      <trkpt lat="44.279670" lon="4.747179">
        <ele>112.926136</ele>
        <time>2017-06-07T07:20:37.000Z</time>
      </trkpt>
      <trkpt lat="44.279552" lon="4.747163">
        <ele>112.941309</ele>
        <time>2017-06-07T07:20:40.000Z</time>
      </trkpt>
      <trkpt lat="44.279446" lon="4.747122">
        <ele>113.146343</ele>
        <time>2017-06-07T07:20:43.000Z</time>
      </trkpt>
      <trkpt lat="44.279343" lon="4.747096">
        <ele>113.341458</ele>
        <time>2017-06-07T07:20:47.000Z</time>
      </trkpt>
      <trkpt lat="44.279316" lon="4.747251">
        <ele>113.554358</ele>
        <time>2017-06-07T07:20:54.000Z</time>
      </trkpt>
      <trkpt lat="44.279335" lon="4.747402">
        <ele>113.758973</ele>
        <time>2017-06-07T07:20:58.000Z</time>
      </trkpt>
      <trkpt lat="44.279377" lon="4.747544">
        <ele>113.964024</ele>
        <time>2017-06-07T07:21:02.000Z</time>
      </trkpt>
      <trkpt lat="44.279427" lon="4.747652">
        <ele>114.135672</ele>
        <time>2017-06-07T07:21:05.000Z</time>
      </trkpt>
      <trkpt lat="44.279470" lon="4.747772">
        <ele>114.314765</ele>
        <time>2017-06-07T07:21:08.000Z</time>
      </trkpt>
      <trkpt lat="44.279495" lon="4.747895">
        <ele>114.485408</ele>
        <time>2017-06-07T07:21:11.000Z</time>
      </trkpt>
      <trkpt lat="44.279514" lon="4.748054">
        <ele>114.700547</ele>
        <time>2017-06-07T07:21:15.000Z</time>
      </trkpt>
      <trkpt lat="44.279550" lon="4.748196">
        <ele>114.901592</ele>
        <time>2017-06-07T07:21:19.000Z</time>
      </trkpt>
      <trkpt lat="44.279476" lon="4.748307">
        <ele>115.104014</ele>
        <time>2017-06-07T07:21:25.000Z</time>
      </trkpt>
      <trkpt lat="44.279373" lon="4.748351">
        <ele>115.304798</ele>
        <time>2017-06-07T07:21:29.000Z</time>
      </trkpt>
      <trkpt lat="44.279278" lon="4.748421">
        <ele>115.505022</ele>
        <time>2017-06-07T07:21:33.000Z</time>
      </trkpt>
      <trkpt lat="44.279186" lon="4.748471">
        <ele>115.689047</ele>
        <time>2017-06-07T07:21:39.000Z</time>
      </trkpt>
      <trkpt lat="44.279125" lon="4.748364">
        <ele>115.871593</ele>
        <time>2017-06-07T07:21:45.000Z</time>
      </trkpt>
      <trkpt lat="44.279083" lon="4.748248">
        <ele>116.045080</ele>
        <time>2017-06-07T07:21:50.000Z</time>
      </trkpt>
      <trkpt lat="44.279068" lon="4.748120">
        <ele>116.218185</ele>
        <time>2017-06-07T07:21:54.000Z</time>
      </trkpt>
      <trkpt lat="44.279034" lon="4.747980">
        <ele>117.211424</ele>
        <time>2017-06-07T07:21:59.000Z</time>
      </trkpt>
      <trkpt lat="44.279040" lon="4.748135">
        <ele>118.422699</ele>
        <time>2017-06-07T07:22:40.000Z</time>
      </trkpt>
      <trkpt lat="44.279057" lon="4.748262">
        <ele>119.430887</ele>
        <time>2017-06-07T07:22:43.000Z</time>
      </trkpt>
      <trkpt lat="44.279100" lon="4.748379">
        <ele>120.457136</ele>
        <time>2017-06-07T07:22:47.000Z</time>
      </trkpt>
      <trkpt lat="44.279102" lon="4.748513">
        <ele>121.503002</ele>
        <time>2017-06-07T07:22:49.000Z</time>
      </trkpt>
      <trkpt lat="44.279037" lon="4.748601">
        <ele>122.489633</ele>
        <time>2017-06-07T07:22:53.000Z</time>
      </trkpt>
      <trkpt lat="44.278934" lon="4.748685">
        <ele>123.789604</ele>
        <time>2017-06-07T07:22:57.000Z</time>
      </trkpt>
      <trkpt lat="44.278870" lon="4.748775">
        <ele>124.779451</ele>
        <time>2017-06-07T07:23:00.000Z</time>
      </trkpt>
      <trkpt lat="44.278800" lon="4.748865">
        <ele>125.816422</ele>
        <time>2017-06-07T07:23:03.000Z</time>
      </trkpt>
      <trkpt lat="44.278710" lon="4.748933">
        <ele>126.931674</ele>
        <time>2017-06-07T07:23:07.000Z</time>
      </trkpt>
      <trkpt lat="44.278587" lon="4.748971">
        <ele>128.304681</ele>
        <time>2017-06-07T07:23:31.000Z</time>
      </trkpt>
      <trkpt lat="44.278540" lon="4.748853">
        <ele>129.358378</ele>
        <time>2017-06-07T07:23:42.000Z</time>
      </trkpt>
      <trkpt lat="44.278540" lon="4.748697">
        <ele>130.575700</ele>
        <time>2017-06-07T07:23:55.000Z</time>
      </trkpt>
      <trkpt lat="44.278473" lon="4.748606">
        <ele>131.594283</ele>
        <time>2017-06-07T07:24:06.000Z</time>
      </trkpt>
      <trkpt lat="44.278374" lon="4.748573">
        <ele>132.703608</ele>
        <time>2017-06-07T07:24:17.000Z</time>
      </trkpt>
      <trkpt lat="44.278267" lon="4.748508">
        <ele>133.975352</ele>
        <time>2017-06-07T07:24:29.000Z</time>
      </trkpt>
      <trkpt lat="44.278126" lon="4.748506">
        <ele>135.512222</ele>
        <time>2017-06-07T07:25:20.000Z</time>
      </trkpt>
      <trkpt lat="44.278027" lon="4.748518">
        <ele>136.399424</ele>
        <time>2017-06-07T07:25:25.000Z</time>
      </trkpt>
      <trkpt lat="44.277912" lon="4.748535">
        <ele>137.326304</ele>
        <time>2017-06-07T07:25:30.000Z</time>
      </trkpt>
      <trkpt lat="44.277820" lon="4.748519">
        <ele>138.069383</ele>
        <time>2017-06-07T07:25:34.000Z</time>
      </trkpt>
      <trkpt lat="44.277740" lon="4.748590">
        <ele>138.829084</ele>
        <time>2017-06-07T07:25:40.000Z</time>
      </trkpt>
      <trkpt lat="44.277690" lon="4.748717">
        <ele>139.660790</ele>
        <time>2017-06-07T07:25:46.000Z</time>
      </trkpt>
      <trkpt lat="44.277634" lon="4.748829">
        <ele>140.444716</ele>
        <time>2017-06-07T07:25:50.000Z</time>
      </trkpt>
      <trkpt lat="44.277546" lon="4.748923">
        <ele>141.332666</ele>
        <time>2017-06-07T07:25:55.000Z</time>
      </trkpt>
      <trkpt lat="44.277454" lon="4.748963">
        <ele>142.104953</ele>
        <time>2017-06-07T07:25:59.000Z</time>
      </trkpt>
      <trkpt lat="44.277363" lon="4.748984">
        <ele>142.844211</ele>
        <time>2017-06-07T07:26:03.000Z</time>
      </trkpt>
      <trkpt lat="44.277270" lon="4.749025">
        <ele>143.625862</ele>
        <time>2017-06-07T07:26:19.000Z</time>
      </trkpt>
      <trkpt lat="44.277176" lon="4.749061">
        <ele>144.407087</ele>
        <time>2017-06-07T07:26:23.000Z</time>
      </trkpt>
      <trkpt lat="44.277070" lon="4.749105">
        <ele>145.293410</ele>
        <time>2017-06-07T07:26:27.000Z</time>
      </trkpt>
      <trkpt lat="44.276962" lon="4.749141">
        <ele>146.183347</ele>
        <time>2017-06-07T07:26:31.000Z</time>
      </trkpt>
      <trkpt lat="44.276850" lon="4.749177">
        <ele>147.104498</ele>
        <time>2017-06-07T07:26:35.000Z</time>
      </trkpt>
      <trkpt lat="44.276737" lon="4.749223">
        <ele>148.047884</ele>
        <time>2017-06-07T07:26:39.000Z</time>
      </trkpt>
      <trkpt lat="44.276627" lon="4.749253">
        <ele>148.946192</ele>
        <time>2017-06-07T07:26:43.000Z</time>
      </trkpt>
      <trkpt lat="44.276530" lon="4.749260">
        <ele>149.724689</ele>
        <time>2017-06-07T07:26:46.000Z</time>
      </trkpt>
      <trkpt lat="44.276432" lon="4.749282">
        <ele>150.349811</ele>
        <time>2017-06-07T07:26:49.000Z</time>
      </trkpt>
      <trkpt lat="44.276318" lon="4.749330">
        <ele>150.650748</ele>
        <time>2017-06-07T07:26:53.000Z</time>
      </trkpt>
      <trkpt lat="44.276210" lon="4.749377">
        <ele>150.936657</ele>
        <time>2017-06-07T07:26:57.000Z</time>
      </trkpt>
      <trkpt lat="44.276115" lon="4.749430">
        <ele>151.195211</ele>
        <time>2017-06-07T07:27:01.000Z</time>
      </trkpt>
      <trkpt lat="44.276040" lon="4.749511">
        <ele>151.434831</ele>
        <time>2017-06-07T07:27:05.000Z</time>
      </trkpt>
      <trkpt lat="44.275970" lon="4.749620">
        <ele>151.699800</ele>
        <time>2017-06-07T07:27:10.000Z</time>
      </trkpt>
      <trkpt lat="44.275887" lon="4.749716">
        <ele>151.972172</ele>
        <time>2017-06-07T07:27:14.000Z</time>
      </trkpt>
      <trkpt lat="44.275810" lon="4.749795">
        <ele>152.213651</ele>
        <time>2017-06-07T07:27:17.000Z</time>
      </trkpt>
      <trkpt lat="44.275703" lon="4.749899">
        <ele>152.543130</ele>
        <time>2017-06-07T07:27:20.000Z</time>
      </trkpt>
      <trkpt lat="44.275593" lon="4.749962">
        <ele>152.843617</ele>
        <time>2017-06-07T07:27:23.000Z</time>
      </trkpt>
      <trkpt lat="44.275482" lon="4.750053">
        <ele>153.168924</ele>
        <time>2017-06-07T07:27:26.000Z</time>
      </trkpt>
      <trkpt lat="44.275390" lon="4.750104">
        <ele>153.419096</ele>
        <time>2017-06-07T07:27:28.000Z</time>
      </trkpt>
      <trkpt lat="44.275265" lon="4.750130">
        <ele>153.738512</ele>
        <time>2017-06-07T07:27:31.000Z</time>
      </trkpt>
      <trkpt lat="44.275140" lon="4.750102">
        <ele>154.058480</ele>
        <time>2017-06-07T07:27:34.000Z</time>
      </trkpt>
      <trkpt lat="44.275030" lon="4.750083">
        <ele>154.338618</ele>
        <time>2017-06-07T07:27:37.000Z</time>
      </trkpt>
      <trkpt lat="44.274933" lon="4.750068">
        <ele>154.585279</ele>
        <time>2017-06-07T07:27:40.000Z</time>
      </trkpt>
      <trkpt lat="44.274810" lon="4.750065">
        <ele>154.916616</ele>
        <time>2017-06-07T07:27:43.000Z</time>
      </trkpt>
      <trkpt lat="44.274715" lon="4.750081">
        <ele>155.221027</ele>
        <time>2017-06-07T07:27:45.000Z</time>
      </trkpt>
      <trkpt lat="44.274620" lon="4.750129">
        <ele>155.542418</ele>
        <time>2017-06-07T07:27:48.000Z</time>
      </trkpt>
      <trkpt lat="44.274506" lon="4.750131">
        <ele>155.905112</ele>
        <time>2017-06-07T07:27:52.000Z</time>
      </trkpt>
      <trkpt lat="44.274406" lon="4.750133">
        <ele>156.223273</ele>
        <time>2017-06-07T07:27:55.000Z</time>
      </trkpt>
      <trkpt lat="44.274296" lon="4.750138">
        <ele>156.573399</ele>
        <time>2017-06-07T07:27:58.000Z</time>
      </trkpt>
      <trkpt lat="44.274193" lon="4.750160">
        <ele>156.904881</ele>
        <time>2017-06-07T07:28:01.000Z</time>
      </trkpt>
      <trkpt lat="44.274075" lon="4.750184">
        <ele>157.284232</ele>
        <time>2017-06-07T07:28:04.000Z</time>
      </trkpt>
      <trkpt lat="44.273952" lon="4.750218">
        <ele>157.683120</ele>
        <time>2017-06-07T07:28:07.000Z</time>
      </trkpt>
      <trkpt lat="44.273827" lon="4.750253">
        <ele>158.088693</ele>
        <time>2017-06-07T07:28:10.000Z</time>
      </trkpt>
      <trkpt lat="44.273712" lon="4.750316">
        <ele>158.481678</ele>
        <time>2017-06-07T07:28:13.000Z</time>
      </trkpt>
      <trkpt lat="44.273610" lon="4.750383">
        <ele>158.840267</ele>
        <time>2017-06-07T07:28:16.000Z</time>
      </trkpt>
      <trkpt lat="44.273506" lon="4.750459">
        <ele>159.213674</ele>
        <time>2017-06-07T07:28:19.000Z</time>
      </trkpt>
      <trkpt lat="44.273396" lon="4.750547">
        <ele>159.616959</ele>
        <time>2017-06-07T07:28:22.000Z</time>
      </trkpt>
      <trkpt lat="44.273320" lon="4.750616">
        <ele>159.905333</ele>
        <time>2017-06-07T07:28:24.000Z</time>
      </trkpt>
      <trkpt lat="44.273200" lon="4.750693">
        <ele>160.325451</ele>
        <time>2017-06-07T07:28:27.000Z</time>
      </trkpt>
      <trkpt lat="44.273106" lon="4.750790">
        <ele>160.694968</ele>
        <time>2017-06-07T07:28:30.000Z</time>
      </trkpt>
      <trkpt lat="44.273018" lon="4.750904">
        <ele>161.071262</ele>
        <time>2017-06-07T07:28:33.000Z</time>
      </trkpt>
      <trkpt lat="44.272940" lon="4.751016">
        <ele>161.421982</ele>
        <time>2017-06-07T07:28:36.000Z</time>
      </trkpt>
      <trkpt lat="44.272865" lon="4.751117">
        <ele>161.748611</ele>
        <time>2017-06-07T07:28:39.000Z</time>
      </trkpt>
      <trkpt lat="44.272797" lon="4.751228">
        <ele>162.076531</ele>
        <time>2017-06-07T07:28:42.000Z</time>
      </trkpt>
      <trkpt lat="44.272724" lon="4.751335">
        <ele>162.408295</ele>
        <time>2017-06-07T07:28:45.000Z</time>
      </trkpt>
      <trkpt lat="44.272655" lon="4.751443">
        <ele>162.733206</ele>
        <time>2017-06-07T07:28:48.000Z</time>
      </trkpt>
      <trkpt lat="44.272587" lon="4.751544">
        <ele>163.044413</ele>
        <time>2017-06-07T07:28:51.000Z</time>
      </trkpt>
      <trkpt lat="44.272510" lon="4.751646">
        <ele>163.377126</ele>
        <time>2017-06-07T07:28:54.000Z</time>
      </trkpt>
      <trkpt lat="44.272440" lon="4.751753">
        <ele>163.702474</ele>
        <time>2017-06-07T07:28:57.000Z</time>
      </trkpt>
      <trkpt lat="44.272373" lon="4.751847">
        <ele>164.000206</ele>
        <time>2017-06-07T07:29:00.000Z</time>
      </trkpt>
      <trkpt lat="44.272310" lon="4.751946">
        <ele>164.297522</ele>
        <time>2017-06-07T07:29:03.000Z</time>
      </trkpt>
      <trkpt lat="44.272240" lon="4.752039">
        <ele>164.600411</ele>
        <time>2017-06-07T07:29:06.000Z</time>
      </trkpt>
      <trkpt lat="44.272167" lon="4.752132">
        <ele>164.910183</ele>
        <time>2017-06-07T07:29:09.000Z</time>
      </trkpt>
      <trkpt lat="44.272080" lon="4.752224">
        <ele>165.252297</ele>
        <time>2017-06-07T07:29:13.000Z</time>
      </trkpt>
      <trkpt lat="44.271990" lon="4.752327">
        <ele>165.617085</ele>
        <time>2017-06-07T07:29:17.000Z</time>
      </trkpt>
      <trkpt lat="44.271910" lon="4.752437">
        <ele>165.969044</ele>
        <time>2017-06-07T07:29:21.000Z</time>
      </trkpt>
      <trkpt lat="44.271843" lon="4.752517">
        <ele>166.218052</ele>
        <time>2017-06-07T07:29:24.000Z</time>
      </trkpt>
      <trkpt lat="44.271755" lon="4.752592">
        <ele>166.409943</ele>
        <time>2017-06-07T07:29:27.000Z</time>
      </trkpt>
      <trkpt lat="44.271670" lon="4.752671">
        <ele>166.599992</ele>
        <time>2017-06-07T07:29:30.000Z</time>
      </trkpt>
      <trkpt lat="44.271600" lon="4.752744">
        <ele>166.762605</ele>
        <time>2017-06-07T07:29:33.000Z</time>
      </trkpt>
      <trkpt lat="44.271510" lon="4.752835">
        <ele>166.969423</ele>
        <time>2017-06-07T07:29:37.000Z</time>
      </trkpt>
      <trkpt lat="44.271416" lon="4.752909">
        <ele>167.170274</ele>
        <time>2017-06-07T07:29:41.000Z</time>
      </trkpt>
      <trkpt lat="44.271320" lon="4.752986">
        <ele>167.376338</ele>
        <time>2017-06-07T07:29:45.000Z</time>
      </trkpt>
      <trkpt lat="44.271240" lon="4.753053">
        <ele>167.549970</ele>
        <time>2017-06-07T07:29:48.000Z</time>
      </trkpt>
      <trkpt lat="44.271160" lon="4.753130">
        <ele>167.730818</ele>
        <time>2017-06-07T07:29:51.000Z</time>
      </trkpt>
      <trkpt lat="44.271084" lon="4.753204">
        <ele>167.903269</ele>
        <time>2017-06-07T07:29:54.000Z</time>
      </trkpt>
      <trkpt lat="44.271004" lon="4.753275">
        <ele>168.079702</ele>
        <time>2017-06-07T07:29:57.000Z</time>
      </trkpt>
      <trkpt lat="44.270927" lon="4.753353">
        <ele>168.256760</ele>
        <time>2017-06-07T07:30:00.000Z</time>
      </trkpt>
      <trkpt lat="44.270840" lon="4.753447">
        <ele>168.461505</ele>
        <time>2017-06-07T07:30:04.000Z</time>
      </trkpt>
      <trkpt lat="44.270763" lon="4.753542">
        <ele>168.652749</ele>
        <time>2017-06-07T07:30:07.000Z</time>
      </trkpt>
      <trkpt lat="44.270653" lon="4.753626">
        <ele>168.886108</ele>
        <time>2017-06-07T07:30:10.000Z</time>
      </trkpt>
      <trkpt lat="44.270550" lon="4.753666">
        <ele>169.085103</ele>
        <time>2017-06-07T07:30:12.000Z</time>
      </trkpt>
      <trkpt lat="44.270454" lon="4.753721">
        <ele>169.278245</ele>
        <time>2017-06-07T07:30:14.000Z</time>
      </trkpt>
      <trkpt lat="44.270367" lon="4.753787">
        <ele>169.462533</ele>
        <time>2017-06-07T07:30:16.000Z</time>
      </trkpt>
      <trkpt lat="44.270280" lon="4.753849">
        <ele>169.639926</ele>
        <time>2017-06-07T07:30:18.000Z</time>
      </trkpt>
      <trkpt lat="44.270176" lon="4.753917">
        <ele>169.845704</ele>
        <time>2017-06-07T07:30:20.000Z</time>
      </trkpt>
      <trkpt lat="44.270027" lon="4.754035">
        <ele>170.152650</ele>
        <time>2017-06-07T07:30:23.000Z</time>
      </trkpt>
      <trkpt lat="44.269928" lon="4.754109">
        <ele>170.353867</ele>
        <time>2017-06-07T07:30:25.000Z</time>
      </trkpt>
      <trkpt lat="44.269844" lon="4.754188">
        <ele>170.535343</ele>
        <time>2017-06-07T07:30:27.000Z</time>
      </trkpt>
      <trkpt lat="44.269745" lon="4.754234">
        <ele>170.722309</ele>
        <time>2017-06-07T07:30:29.000Z</time>
      </trkpt>
      <trkpt lat="44.269646" lon="4.754271">
        <ele>170.905956</ele>
        <time>2017-06-07T07:30:31.000Z</time>
      </trkpt>
      <trkpt lat="44.269540" lon="4.754306">
        <ele>171.101141</ele>
        <time>2017-06-07T07:30:33.000Z</time>
      </trkpt>
      <trkpt lat="44.269444" lon="4.754352">
        <ele>171.283014</ele>
        <time>2017-06-07T07:30:35.000Z</time>
      </trkpt>
      <trkpt lat="44.269314" lon="4.754410">
        <ele>171.527569</ele>
        <time>2017-06-07T07:30:38.000Z</time>
      </trkpt>
      <trkpt lat="44.269207" lon="4.754452">
        <ele>171.726739</ele>
        <time>2017-06-07T07:30:40.000Z</time>
      </trkpt>
      <trkpt lat="44.269110" lon="4.754495">
        <ele>171.909106</ele>
        <time>2017-06-07T07:30:42.000Z</time>
      </trkpt>
      <trkpt lat="44.269016" lon="4.754546">
        <ele>172.089816</ele>
        <time>2017-06-07T07:30:44.000Z</time>
      </trkpt>
      <trkpt lat="44.268930" lon="4.754584">
        <ele>172.251455</ele>
        <time>2017-06-07T07:30:46.000Z</time>
      </trkpt>
      <trkpt lat="44.268830" lon="4.754602">
        <ele>172.432134</ele>
        <time>2017-06-07T07:30:48.000Z</time>
      </trkpt>
      <trkpt lat="44.268710" lon="4.754647">
        <ele>172.654787</ele>
        <time>2017-06-07T07:30:51.000Z</time>
      </trkpt>
      <trkpt lat="44.268616" lon="4.754674">
        <ele>172.969912</ele>
        <time>2017-06-07T07:30:54.000Z</time>
      </trkpt>
      <trkpt lat="44.268524" lon="4.754679">
        <ele>173.439082</ele>
        <time>2017-06-07T07:30:58.000Z</time>
      </trkpt>
      <trkpt lat="44.268400" lon="4.754704">
        <ele>174.077515</ele>
        <time>2017-06-07T07:35:01.000Z</time>
      </trkpt>
      <trkpt lat="44.268300" lon="4.754746">
        <ele>174.609644</ele>
        <time>2017-06-07T07:35:08.000Z</time>
      </trkpt>
      <trkpt lat="44.268204" lon="4.754838">
        <ele>175.202953</ele>
        <time>2017-06-07T07:35:15.000Z</time>
      </trkpt>
      <trkpt lat="44.268116" lon="4.754885">
        <ele>175.683062</ele>
        <time>2017-06-07T07:35:20.000Z</time>
      </trkpt>
      <trkpt lat="44.268024" lon="4.754911">
        <ele>176.161381</ele>
        <time>2017-06-07T07:35:25.000Z</time>
      </trkpt>
      <trkpt lat="44.267920" lon="4.754945">
        <ele>176.705675</ele>
        <time>2017-06-07T07:35:31.000Z</time>
      </trkpt>
      <trkpt lat="44.267810" lon="4.754945">
        <ele>177.266215</ele>
        <time>2017-06-07T07:35:36.000Z</time>
      </trkpt>
      <trkpt lat="44.267704" lon="4.754956">
        <ele>177.807861</ele>
        <time>2017-06-07T07:35:42.000Z</time>
      </trkpt>
      <trkpt lat="44.267597" lon="4.754964">
        <ele>178.353894</ele>
        <time>2017-06-07T07:35:47.000Z</time>
      </trkpt>
      <trkpt lat="44.267483" lon="4.754957">
        <ele>178.935379</ele>
        <time>2017-06-07T07:35:52.000Z</time>
      </trkpt>
      <trkpt lat="44.267390" lon="4.754963">
        <ele>179.409795</ele>
        <time>2017-06-07T07:35:56.000Z</time>
      </trkpt>
      <trkpt lat="44.267292" lon="4.754959">
        <ele>179.909399</ele>
        <time>2017-06-07T07:36:00.000Z</time>
      </trkpt>
      <trkpt lat="44.267190" lon="4.754966">
        <ele>180.429799</ele>
        <time>2017-06-07T07:36:05.000Z</time>
      </trkpt>
      <trkpt lat="44.267097" lon="4.754979">
        <ele>180.906079</ele>
        <time>2017-06-07T07:36:10.000Z</time>
      </trkpt>
      <trkpt lat="44.266994" lon="4.754971">
        <ele>181.431759</ele>
        <time>2017-06-07T07:36:14.000Z</time>
      </trkpt>
      <trkpt lat="44.266895" lon="4.754994">
        <ele>181.925044</ele>
        <time>2017-06-07T07:36:18.000Z</time>
      </trkpt>
      <trkpt lat="44.266792" lon="4.755044">
        <ele>182.127225</ele>
        <time>2017-06-07T07:36:23.000Z</time>
      </trkpt>
      <trkpt lat="44.266685" lon="4.755079">
        <ele>182.330982</ele>
        <time>2017-06-07T07:36:28.000Z</time>
      </trkpt>
      <trkpt lat="44.266598" lon="4.755101">
        <ele>182.494912</ele>
        <time>2017-06-07T07:36:32.000Z</time>
      </trkpt>
      <trkpt lat="44.266502" lon="4.755126">
        <ele>182.675973</ele>
        <time>2017-06-07T07:36:37.000Z</time>
      </trkpt>
      <trkpt lat="44.266407" lon="4.755107">
        <ele>182.853909</ele>
        <time>2017-06-07T07:36:42.000Z</time>
      </trkpt>
      <trkpt lat="44.266304" lon="4.755086">
        <ele>183.046905</ele>
        <time>2017-06-07T07:36:47.000Z</time>
      </trkpt>
      <trkpt lat="44.266197" lon="4.755102">
        <ele>183.246427</ele>
        <time>2017-06-07T07:36:52.000Z</time>
      </trkpt>
      <trkpt lat="44.266100" lon="4.755093">
        <ele>183.426671</ele>
        <time>2017-06-07T07:36:56.000Z</time>
      </trkpt>
      <trkpt lat="44.266014" lon="4.755046">
        <ele>183.597899</ele>
        <time>2017-06-07T07:36:59.000Z</time>
      </trkpt>
      <trkpt lat="44.265915" lon="4.754993">
        <ele>183.794480</ele>
        <time>2017-06-07T07:37:02.000Z</time>
      </trkpt>
      <trkpt lat="44.265820" lon="4.754956">
        <ele>183.977342</ele>
        <time>2017-06-07T07:37:05.000Z</time>
      </trkpt>
      <trkpt lat="44.265730" lon="4.754917">
        <ele>184.152059</ele>
        <time>2017-06-07T07:37:08.000Z</time>
      </trkpt>
      <trkpt lat="44.265633" lon="4.754868">
        <ele>184.343312</ele>
        <time>2017-06-07T07:37:11.000Z</time>
      </trkpt>
      <trkpt lat="44.265530" lon="4.754795">
        <ele>184.557472</ele>
        <time>2017-06-07T07:37:14.000Z</time>
      </trkpt>
      <trkpt lat="44.265430" lon="4.754732">
        <ele>184.760877</ele>
        <time>2017-06-07T07:37:17.000Z</time>
      </trkpt>
      <trkpt lat="44.265340" lon="4.754692">
        <ele>184.935993</ele>
        <time>2017-06-07T07:37:20.000Z</time>
      </trkpt>
      <trkpt lat="44.265250" lon="4.754635">
        <ele>185.119221</ele>
        <time>2017-06-07T07:37:23.000Z</time>
      </trkpt>
      <trkpt lat="44.265156" lon="4.754571">
        <ele>185.005802</ele>
        <time>2017-06-07T07:37:27.000Z</time>
      </trkpt>
      <trkpt lat="44.265060" lon="4.754492">
        <ele>184.214064</ele>
        <time>2017-06-07T07:37:30.000Z</time>
      </trkpt>
      <trkpt lat="44.264940" lon="4.754419">
        <ele>183.284037</ele>
        <time>2017-06-07T07:37:33.000Z</time>
      </trkpt>
      <trkpt lat="44.264830" lon="4.754338">
        <ele>182.400446</ele>
        <time>2017-06-07T07:37:35.000Z</time>
      </trkpt>
      <trkpt lat="44.264700" lon="4.754207">
        <ele>181.261368</ele>
        <time>2017-06-07T07:37:37.000Z</time>
      </trkpt>
      <trkpt lat="44.264590" lon="4.754101">
        <ele>180.311752</ele>
        <time>2017-06-07T07:37:39.000Z</time>
      </trkpt>
      <trkpt lat="44.264465" lon="4.754030">
        <ele>179.352929</ele>
        <time>2017-06-07T07:37:41.000Z</time>
      </trkpt>
      <trkpt lat="44.264360" lon="4.753963">
        <ele>178.532673</ele>
        <time>2017-06-07T07:37:43.000Z</time>
      </trkpt>
      <trkpt lat="44.264260" lon="4.753879">
        <ele>177.703497</ele>
        <time>2017-06-07T07:37:45.000Z</time>
      </trkpt>
      <trkpt lat="44.264164" lon="4.753771">
        <ele>176.827564</ele>
        <time>2017-06-07T07:37:47.000Z</time>
      </trkpt>
      <trkpt lat="44.264057" lon="4.753679">
        <ele>175.934736</ele>
        <time>2017-06-07T07:37:49.000Z</time>
      </trkpt>
      <trkpt lat="44.263950" lon="4.753559">
        <ele>174.959630</ele>
        <time>2017-06-07T07:37:51.000Z</time>
      </trkpt>
      <trkpt lat="44.263832" lon="4.753426">
        <ele>173.882161</ele>
        <time>2017-06-07T07:37:53.000Z</time>
      </trkpt>
      <trkpt lat="44.263714" lon="4.753287">
        <ele>172.785259</ele>
        <time>2017-06-07T07:37:55.000Z</time>
      </trkpt>
      <trkpt lat="44.263596" lon="4.753151">
        <ele>171.079238</ele>
        <time>2017-06-07T07:37:57.000Z</time>
      </trkpt>
      <trkpt lat="44.263470" lon="4.753015">
        <ele>169.040007</ele>
        <time>2017-06-07T07:37:59.000Z</time>
      </trkpt>
      <trkpt lat="44.263332" lon="4.752905">
        <ele>167.005291</ele>
        <time>2017-06-07T07:38:01.000Z</time>
      </trkpt>
      <trkpt lat="44.263195" lon="4.752800">
        <ele>165.004145</ele>
        <time>2017-06-07T07:38:03.000Z</time>
      </trkpt>
      <trkpt lat="44.263073" lon="4.752693">
        <ele>163.159359</ele>
        <time>2017-06-07T07:38:05.000Z</time>
      </trkpt>
      <trkpt lat="44.262960" lon="4.752576">
        <ele>161.358022</ele>
        <time>2017-06-07T07:38:07.000Z</time>
      </trkpt>
      <trkpt lat="44.262840" lon="4.752464">
        <ele>159.509789</ele>
        <time>2017-06-07T07:38:09.000Z</time>
      </trkpt>
      <trkpt lat="44.262726" lon="4.752368">
        <ele>157.805119</ele>
        <time>2017-06-07T07:38:11.000Z</time>
      </trkpt>
      <trkpt lat="44.262610" lon="4.752282">
        <ele>156.123370</ele>
        <time>2017-06-07T07:38:13.000Z</time>
      </trkpt>
      <trkpt lat="44.262500" lon="4.752209">
        <ele>154.563843</ele>
        <time>2017-06-07T07:38:15.000Z</time>
      </trkpt>
      <trkpt lat="44.262400" lon="4.752154">
        <ele>153.187601</ele>
        <time>2017-06-07T07:38:17.000Z</time>
      </trkpt>
      <trkpt lat="44.262318" lon="4.752094">
        <ele>152.002170</ele>
        <time>2017-06-07T07:38:19.000Z</time>
      </trkpt>
      <trkpt lat="44.262260" lon="4.751963">
        <ele>150.589825</ele>
        <time>2017-06-07T07:38:22.000Z</time>
      </trkpt>
      <trkpt lat="44.262268" lon="4.751788">
        <ele>149.276254</ele>
        <time>2017-06-07T07:38:25.000Z</time>
      </trkpt>
      <trkpt lat="44.262240" lon="4.751655">
        <ele>148.825259</ele>
        <time>2017-06-07T07:38:29.000Z</time>
      </trkpt>
      <trkpt lat="44.262154" lon="4.751717">
        <ele>148.385588</ele>
        <time>2017-06-07T07:38:33.000Z</time>
      </trkpt>
      <trkpt lat="44.262093" lon="4.751823">
        <ele>147.943199</ele>
        <time>2017-06-07T07:38:37.000Z</time>
      </trkpt>
      <trkpt lat="44.262016" lon="4.752034">
        <ele>147.172771</ele>
        <time>2017-06-07T07:39:07.000Z</time>
      </trkpt>
      <trkpt lat="44.261948" lon="4.752174">
        <ele>146.622437</ele>
        <time>2017-06-07T07:39:11.000Z</time>
      </trkpt>
      <trkpt lat="44.261864" lon="4.752270">
        <ele>146.129333</ele>
        <time>2017-06-07T07:39:14.000Z</time>
      </trkpt>
      <trkpt lat="44.261730" lon="4.752333">
        <ele>145.487029</ele>
        <time>2017-06-07T07:39:17.000Z</time>
      </trkpt>
      <trkpt lat="44.261630" lon="4.752355">
        <ele>145.027153</ele>
        <time>2017-06-07T07:39:19.000Z</time>
      </trkpt>
      <trkpt lat="44.261524" lon="4.752328">
        <ele>144.537679</ele>
        <time>2017-06-07T07:39:21.000Z</time>
      </trkpt>
      <trkpt lat="44.261420" lon="4.752284">
        <ele>144.044026</ele>
        <time>2017-06-07T07:39:23.000Z</time>
      </trkpt>
      <trkpt lat="44.261337" lon="4.752228">
        <ele>143.625271</ele>
        <time>2017-06-07T07:39:25.000Z</time>
      </trkpt>
      <trkpt lat="44.261215" lon="4.752183">
        <ele>143.052048</ele>
        <time>2017-06-07T07:39:28.000Z</time>
      </trkpt>
      <trkpt lat="44.261110" lon="4.752219">
        <ele>142.560894</ele>
        <time>2017-06-07T07:39:31.000Z</time>
      </trkpt>
      <trkpt lat="44.261010" lon="4.752257">
        <ele>142.090100</ele>
        <time>2017-06-07T07:39:34.000Z</time>
      </trkpt>
      <trkpt lat="44.260920" lon="4.752289">
        <ele>141.668209</ele>
        <time>2017-06-07T07:39:37.000Z</time>
      </trkpt>
      <trkpt lat="44.260807" lon="4.752337">
        <ele>141.397685</ele>
        <time>2017-06-07T07:39:41.000Z</time>
      </trkpt>
      <trkpt lat="44.260710" lon="4.752371">
        <ele>141.833473</ele>
        <time>2017-06-07T07:39:45.000Z</time>
      </trkpt>
      <trkpt lat="44.260612" lon="4.752391">
        <ele>142.265041</ele>
        <time>2017-06-07T07:39:49.000Z</time>
      </trkpt>
      <trkpt lat="44.260510" lon="4.752421">
        <ele>142.719255</ele>
        <time>2017-06-07T07:39:53.000Z</time>
      </trkpt>
      <trkpt lat="44.260410" lon="4.752461">
        <ele>143.172528</ele>
        <time>2017-06-07T07:39:57.000Z</time>
      </trkpt>
      <trkpt lat="44.260303" lon="4.752508">
        <ele>143.661303</ele>
        <time>2017-06-07T07:40:01.000Z</time>
      </trkpt>
      <trkpt lat="44.260197" lon="4.752543">
        <ele>144.135932</ele>
        <time>2017-06-07T07:40:05.000Z</time>
      </trkpt>
      <trkpt lat="44.260110" lon="4.752564">
        <ele>144.520654</ele>
        <time>2017-06-07T07:40:08.000Z</time>
      </trkpt>
      <trkpt lat="44.260014" lon="4.752598">
        <ele>144.952217</ele>
        <time>2017-06-07T07:40:12.000Z</time>
      </trkpt>
      <trkpt lat="44.259914" lon="4.752626">
        <ele>145.396638</ele>
        <time>2017-06-07T07:40:16.000Z</time>
      </trkpt>
      <trkpt lat="44.259810" lon="4.752640">
        <ele>145.851915</ele>
        <time>2017-06-07T07:40:20.000Z</time>
      </trkpt>
      <trkpt lat="44.259724" lon="4.752662">
        <ele>146.232894</ele>
        <time>2017-06-07T07:40:24.000Z</time>
      </trkpt>
      <trkpt lat="44.259620" lon="4.752659">
        <ele>146.686167</ele>
        <time>2017-06-07T07:40:29.000Z</time>
      </trkpt>
      <trkpt lat="44.259525" lon="4.752661">
        <ele>147.100173</ele>
        <time>2017-06-07T07:40:33.000Z</time>
      </trkpt>
      <trkpt lat="44.259420" lon="4.752658">
        <ele>147.557802</ele>
        <time>2017-06-07T07:40:38.000Z</time>
      </trkpt>
      <trkpt lat="44.259323" lon="4.752667">
        <ele>147.981408</ele>
        <time>2017-06-07T07:40:43.000Z</time>
      </trkpt>
      <trkpt lat="44.259228" lon="4.752676">
        <ele>148.396318</ele>
        <time>2017-06-07T07:40:48.000Z</time>
      </trkpt>
      <trkpt lat="44.259136" lon="4.752653">
        <ele>148.803580</ele>
        <time>2017-06-07T07:40:53.000Z</time>
      </trkpt>
      <trkpt lat="44.259026" lon="4.752643">
        <ele>149.320446</ele>
        <time>2017-06-07T07:40:59.000Z</time>
      </trkpt>
      <trkpt lat="44.258934" lon="4.752636">
        <ele>149.803882</ele>
        <time>2017-06-07T07:41:03.000Z</time>
      </trkpt>
      <trkpt lat="44.258840" lon="4.752646">
        <ele>150.298526</ele>
        <time>2017-06-07T07:41:08.000Z</time>
      </trkpt>
      <trkpt lat="44.258747" lon="4.752627">
        <ele>150.791688</ele>
        <time>2017-06-07T07:41:13.000Z</time>
      </trkpt>
      <trkpt lat="44.258636" lon="4.752613">
        <ele>151.376471</ele>
        <time>2017-06-07T07:41:18.000Z</time>
      </trkpt>
      <trkpt lat="44.258540" lon="4.752599">
        <ele>151.882919</ele>
        <time>2017-06-07T07:41:22.000Z</time>
      </trkpt>
      <trkpt lat="44.258442" lon="4.752581">
        <ele>152.401550</ele>
        <time>2017-06-07T07:41:29.000Z</time>
      </trkpt>
      <trkpt lat="44.258347" lon="4.752583">
        <ele>152.900068</ele>
        <time>2017-06-07T07:41:35.000Z</time>
      </trkpt>
      <trkpt lat="44.258236" lon="4.752561">
        <ele>153.488318</ele>
        <time>2017-06-07T07:41:40.000Z</time>
      </trkpt>
      <trkpt lat="44.258130" lon="4.752569">
        <ele>154.045307</ele>
        <time>2017-06-07T07:41:45.000Z</time>
      </trkpt>
      <trkpt lat="44.258030" lon="4.752590">
        <ele>154.575904</ele>
        <time>2017-06-07T07:41:50.000Z</time>
      </trkpt>
      <trkpt lat="44.258015" lon="4.752714">
        <ele>155.048482</ele>
        <time>2017-06-07T07:42:00.000Z</time>
      </trkpt>
      <trkpt lat="44.258106" lon="4.752757">
        <ele>155.552557</ele>
        <time>2017-06-07T07:42:04.000Z</time>
      </trkpt>
      <trkpt lat="44.258200" lon="4.752819">
        <ele>156.098032</ele>
        <time>2017-06-07T07:42:09.000Z</time>
      </trkpt>
      <trkpt lat="44.258266" lon="4.752923">
        <ele>156.620203</ele>
        <time>2017-06-07T07:42:13.000Z</time>
      </trkpt>
      <trkpt lat="44.258297" lon="4.753048">
        <ele>157.117302</ele>
        <time>2017-06-07T07:42:17.000Z</time>
      </trkpt>
      <trkpt lat="44.258320" lon="4.753178">
        <ele>157.620510</ele>
        <time>2017-06-07T07:42:22.000Z</time>
      </trkpt>
      <trkpt lat="44.258343" lon="4.753299">
        <ele>158.090955</ele>
        <time>2017-06-07T07:42:26.000Z</time>
      </trkpt>
      <trkpt lat="44.258415" lon="4.753407">
        <ele>158.644192</ele>
        <time>2017-06-07T07:42:31.000Z</time>
      </trkpt>
      <trkpt lat="44.258503" lon="4.753502">
        <ele>159.220883</ele>
        <time>2017-06-07T07:42:35.000Z</time>
      </trkpt>
      <trkpt lat="44.258587" lon="4.753572">
        <ele>159.728041</ele>
        <time>2017-06-07T07:42:39.000Z</time>
      </trkpt>
      <trkpt lat="44.258670" lon="4.753655">
        <ele>160.257326</ele>
        <time>2017-06-07T07:42:43.000Z</time>
      </trkpt>
      <trkpt lat="44.258760" lon="4.753723">
        <ele>160.787858</ele>
        <time>2017-06-07T07:42:47.000Z</time>
      </trkpt>
      <trkpt lat="44.258846" lon="4.753802">
        <ele>161.321557</ele>
        <time>2017-06-07T07:42:51.000Z</time>
      </trkpt>
      <trkpt lat="44.258930" lon="4.753889">
        <ele>161.863780</ele>
        <time>2017-06-07T07:42:55.000Z</time>
      </trkpt>
      <trkpt lat="44.259018" lon="4.753964">
        <ele>162.398285</ele>
        <time>2017-06-07T07:42:59.000Z</time>
      </trkpt>
      <trkpt lat="44.259090" lon="4.754051">
        <ele>162.891933</ele>
        <time>2017-06-07T07:43:03.000Z</time>
      </trkpt>
      <trkpt lat="44.259130" lon="4.754189">
        <ele>163.444706</ele>
        <time>2017-06-07T07:43:08.000Z</time>
      </trkpt>
      <trkpt lat="44.259113" lon="4.754324">
        <ele>163.953656</ele>
        <time>2017-06-07T07:43:12.000Z</time>
      </trkpt>
      <trkpt lat="44.259037" lon="4.754438">
        <ele>164.531947</ele>
        <time>2017-06-07T07:43:17.000Z</time>
      </trkpt>
      <trkpt lat="44.258934" lon="4.754407">
        <ele>165.078207</ele>
        <time>2017-06-07T07:43:21.000Z</time>
      </trkpt>
      <trkpt lat="44.258840" lon="4.754346">
        <ele>165.615605</ele>
        <time>2017-06-07T07:43:25.000Z</time>
      </trkpt>
      <trkpt lat="44.258755" lon="4.754285">
        <ele>166.111081</ele>
        <time>2017-06-07T07:43:29.000Z</time>
      </trkpt>
      <trkpt lat="44.258660" lon="4.754233">
        <ele>166.640095</ele>
        <time>2017-06-07T07:43:33.000Z</time>
      </trkpt>
      <trkpt lat="44.258560" lon="4.754183">
        <ele>167.190777</ele>
        <time>2017-06-07T07:43:38.000Z</time>
      </trkpt>
      <trkpt lat="44.258470" lon="4.754156">
        <ele>167.668024</ele>
        <time>2017-06-07T07:43:42.000Z</time>
      </trkpt>
      <trkpt lat="44.258360" lon="4.754111">
        <ele>168.255697</ele>
        <time>2017-06-07T07:43:46.000Z</time>
      </trkpt>
      <trkpt lat="44.258270" lon="4.754077">
        <ele>168.731011</ele>
        <time>2017-06-07T07:43:50.000Z</time>
      </trkpt>
      <trkpt lat="44.258190" lon="4.754016">
        <ele>169.195701</ele>
        <time>2017-06-07T07:43:54.000Z</time>
      </trkpt>
      <trkpt lat="44.258106" lon="4.753939">
        <ele>169.707970</ele>
        <time>2017-06-07T07:43:59.000Z</time>
      </trkpt>
      <trkpt lat="44.258003" lon="4.753865">
        <ele>170.298497</ele>
        <time>2017-06-07T07:44:04.000Z</time>
      </trkpt>
      <trkpt lat="44.257915" lon="4.753901">
        <ele>170.765977</ele>
        <time>2017-06-07T07:44:08.000Z</time>
      </trkpt>
      <trkpt lat="44.257970" lon="4.754026">
        <ele>171.301624</ele>
        <time>2017-06-07T07:44:17.000Z</time>
      </trkpt>
      <trkpt lat="44.258050" lon="4.754115">
        <ele>171.823090</ele>
        <time>2017-06-07T07:44:21.000Z</time>
      </trkpt>
      <trkpt lat="44.258125" lon="4.754210">
        <ele>172.339330</ele>
        <time>2017-06-07T07:44:25.000Z</time>
      </trkpt>
      <trkpt lat="44.258205" lon="4.754290">
        <ele>172.840977</ele>
        <time>2017-06-07T07:44:30.000Z</time>
      </trkpt>
      <trkpt lat="44.258290" lon="4.754392">
        <ele>173.412352</ele>
        <time>2017-06-07T07:44:35.000Z</time>
      </trkpt>
      <trkpt lat="44.258340" lon="4.754526">
        <ele>173.964026</ele>
        <time>2017-06-07T07:44:40.000Z</time>
      </trkpt>
      <trkpt lat="44.258358" lon="4.754674">
        <ele>174.512135</ele>
        <time>2017-06-07T07:44:45.000Z</time>
      </trkpt>
      <trkpt lat="44.258358" lon="4.754834">
        <ele>175.096321</ele>
        <time>2017-06-07T07:44:51.000Z</time>
      </trkpt>
      <trkpt lat="44.258320" lon="4.754973">
        <ele>175.639549</ele>
        <time>2017-06-07T07:44:56.000Z</time>
      </trkpt>
      <trkpt lat="44.258278" lon="4.755090">
        <ele>176.117392</ele>
        <time>2017-06-07T07:45:00.000Z</time>
      </trkpt>
      <trkpt lat="44.258213" lon="4.755213">
        <ele>176.675505</ele>
        <time>2017-06-07T07:45:05.000Z</time>
      </trkpt>
      <trkpt lat="44.258156" lon="4.755330">
        <ele>177.244023</ele>
        <time>2017-06-07T07:45:10.000Z</time>
      </trkpt>
      <trkpt lat="44.258095" lon="4.755432">
        <ele>177.891094</ele>
        <time>2017-06-07T07:45:15.000Z</time>
      </trkpt>
      <trkpt lat="44.258045" lon="4.755539">
        <ele>178.513218</ele>
        <time>2017-06-07T07:45:20.000Z</time>
      </trkpt>
      <trkpt lat="44.257996" lon="4.755667">
        <ele>179.219956</ele>
        <time>2017-06-07T07:45:25.000Z</time>
      </trkpt>
      <trkpt lat="44.257946" lon="4.755803">
        <ele>179.964358</ele>
        <time>2017-06-07T07:45:30.000Z</time>
      </trkpt>
      <trkpt lat="44.257923" lon="4.755960">
        <ele>180.744692</ele>
        <time>2017-06-07T07:45:35.000Z</time>
      </trkpt>
      <trkpt lat="44.257908" lon="4.756103">
        <ele>181.448453</ele>
        <time>2017-06-07T07:45:39.000Z</time>
      </trkpt>
      <trkpt lat="44.257896" lon="4.756240">
        <ele>182.120540</ele>
        <time>2017-06-07T07:45:43.000Z</time>
      </trkpt>
      <trkpt lat="44.257880" lon="4.756392">
        <ele>182.868649</ele>
        <time>2017-06-07T07:45:48.000Z</time>
      </trkpt>
      <trkpt lat="44.257885" lon="4.756543">
        <ele>183.604723</ele>
        <time>2017-06-07T07:45:53.000Z</time>
      </trkpt>
      <trkpt lat="44.257910" lon="4.756687">
        <ele>184.326233</ele>
        <time>2017-06-07T07:45:58.000Z</time>
      </trkpt>
      <trkpt lat="44.257935" lon="4.756826">
        <ele>185.024104</ele>
        <time>2017-06-07T07:46:02.000Z</time>
      </trkpt>
      <trkpt lat="44.257940" lon="4.756957">
        <ele>185.662908</ele>
        <time>2017-06-07T07:46:06.000Z</time>
      </trkpt>
      <trkpt lat="44.257920" lon="4.757080">
        <ele>186.277093</ele>
        <time>2017-06-07T07:46:10.000Z</time>
      </trkpt>
      <trkpt lat="44.257893" lon="4.757208">
        <ele>186.926855</ele>
        <time>2017-06-07T07:46:14.000Z</time>
      </trkpt>
      <trkpt lat="44.257880" lon="4.757343">
        <ele>187.590147</ele>
        <time>2017-06-07T07:46:18.000Z</time>
      </trkpt>
      <trkpt lat="44.257874" lon="4.757488">
        <ele>188.297397</ele>
        <time>2017-06-07T07:46:22.000Z</time>
      </trkpt>
      <trkpt lat="44.257885" lon="4.757623">
        <ele>188.959015</ele>
        <time>2017-06-07T07:46:26.000Z</time>
      </trkpt>
      <trkpt lat="44.257880" lon="4.757772">
        <ele>189.623457</ele>
        <time>2017-06-07T07:46:30.000Z</time>
      </trkpt>
      <trkpt lat="44.257877" lon="4.757909">
        <ele>190.192452</ele>
        <time>2017-06-07T07:46:34.000Z</time>
      </trkpt>
      <trkpt lat="44.257877" lon="4.758049">
        <ele>190.773634</ele>
        <time>2017-06-07T07:46:38.000Z</time>
      </trkpt>
      <trkpt lat="44.257862" lon="4.758195">
        <ele>191.385929</ele>
        <time>2017-06-07T07:46:44.000Z</time>
      </trkpt>
      <trkpt lat="44.257840" lon="4.758339">
        <ele>191.997166</ele>
        <time>2017-06-07T07:46:50.000Z</time>
      </trkpt>
      <trkpt lat="44.257828" lon="4.758465">
        <ele>192.524835</ele>
        <time>2017-06-07T07:46:54.000Z</time>
      </trkpt>
      <trkpt lat="44.257800" lon="4.758596">
        <ele>193.092357</ele>
        <time>2017-06-07T07:46:58.000Z</time>
      </trkpt>
      <trkpt lat="44.257767" lon="4.758744">
        <ele>193.735837</ele>
        <time>2017-06-07T07:47:03.000Z</time>
      </trkpt>
      <trkpt lat="44.257755" lon="4.758871">
        <ele>194.267622</ele>
        <time>2017-06-07T07:47:07.000Z</time>
      </trkpt>
      <trkpt lat="44.257748" lon="4.759013">
        <ele>194.858503</ele>
        <time>2017-06-07T07:47:11.000Z</time>
      </trkpt>
      <trkpt lat="44.257736" lon="4.759152">
        <ele>195.439713</ele>
        <time>2017-06-07T07:47:15.000Z</time>
      </trkpt>
      <trkpt lat="44.257706" lon="4.759284">
        <ele>196.014614</ele>
        <time>2017-06-07T07:47:19.000Z</time>
      </trkpt>
      <trkpt lat="44.257694" lon="4.759427">
        <ele>196.612314</ele>
        <time>2017-06-07T07:47:23.000Z</time>
      </trkpt>
      <trkpt lat="44.257664" lon="4.759549">
        <ele>197.147794</ele>
        <time>2017-06-07T07:47:27.000Z</time>
      </trkpt>
      <trkpt lat="44.257652" lon="4.759687">
        <ele>197.724883</ele>
        <time>2017-06-07T07:47:31.000Z</time>
      </trkpt>
      <trkpt lat="44.257633" lon="4.759822">
        <ele>198.296029</ele>
        <time>2017-06-07T07:47:35.000Z</time>
      </trkpt>
      <trkpt lat="44.257626" lon="4.759967">
        <ele>198.899337</ele>
        <time>2017-06-07T07:47:39.000Z</time>
      </trkpt>
      <trkpt lat="44.257603" lon="4.760113">
        <ele>199.519918</ele>
        <time>2017-06-07T07:47:44.000Z</time>
      </trkpt>
      <trkpt lat="44.257587" lon="4.760263">
        <ele>200.191909</ele>
        <time>2017-06-07T07:47:49.000Z</time>
      </trkpt>
      <trkpt lat="44.257590" lon="4.760395">
        <ele>200.790891</ele>
        <time>2017-06-07T07:47:53.000Z</time>
      </trkpt>
      <trkpt lat="44.257576" lon="4.760534">
        <ele>201.427522</ele>
        <time>2017-06-07T07:47:57.000Z</time>
      </trkpt>
      <trkpt lat="44.257565" lon="4.760664">
        <ele>202.021232</ele>
        <time>2017-06-07T07:48:01.000Z</time>
      </trkpt>
      <trkpt lat="44.257560" lon="4.760818">
        <ele>202.720409</ele>
        <time>2017-06-07T07:48:05.000Z</time>
      </trkpt>
      <trkpt lat="44.257557" lon="4.760955">
        <ele>203.342057</ele>
        <time>2017-06-07T07:48:09.000Z</time>
      </trkpt>
      <trkpt lat="44.257550" lon="4.761086">
        <ele>203.937853</ele>
        <time>2017-06-07T07:48:13.000Z</time>
      </trkpt>
      <trkpt lat="44.257540" lon="4.761235">
        <ele>204.616597</ele>
        <time>2017-06-07T07:48:17.000Z</time>
      </trkpt>
      <trkpt lat="44.257526" lon="4.761386">
        <ele>205.307166</ele>
        <time>2017-06-07T07:48:21.000Z</time>
      </trkpt>
      <trkpt lat="44.257510" lon="4.761552">
        <ele>206.066839</ele>
        <time>2017-06-07T07:48:25.000Z</time>
      </trkpt>
      <trkpt lat="44.257496" lon="4.761706">
        <ele>206.770904</ele>
        <time>2017-06-07T07:48:29.000Z</time>
      </trkpt>
      <trkpt lat="44.257484" lon="4.761862">
        <ele>207.482505</ele>
        <time>2017-06-07T07:48:33.000Z</time>
      </trkpt>
      <trkpt lat="44.257477" lon="4.762010">
        <ele>208.155216</ele>
        <time>2017-06-07T07:48:37.000Z</time>
      </trkpt>
      <trkpt lat="44.257477" lon="4.762173">
        <ele>208.894496</ele>
        <time>2017-06-07T07:48:41.000Z</time>
      </trkpt>
      <trkpt lat="44.257470" lon="4.762315">
        <ele>209.540056</ele>
        <time>2017-06-07T07:48:46.000Z</time>
      </trkpt>
      <trkpt lat="44.257470" lon="4.762441">
        <ele>210.111524</ele>
        <time>2017-06-07T07:48:51.000Z</time>
      </trkpt>
      <trkpt lat="44.257473" lon="4.762570">
        <ele>210.696907</ele>
        <time>2017-06-07T07:48:55.000Z</time>
      </trkpt>
      <trkpt lat="44.257454" lon="4.762721">
        <ele>211.098565</ele>
        <time>2017-06-07T07:48:59.000Z</time>
      </trkpt>
      <trkpt lat="44.257430" lon="4.762863">
        <ele>211.135806</ele>
        <time>2017-06-07T07:49:04.000Z</time>
      </trkpt>
      <trkpt lat="44.257416" lon="4.762990">
        <ele>211.168605</ele>
        <time>2017-06-07T07:49:10.000Z</time>
      </trkpt>
      <trkpt lat="44.257380" lon="4.763106">
        <ele>211.200875</ele>
        <time>2017-06-07T07:50:21.000Z</time>
      </trkpt>
      <trkpt lat="44.257347" lon="4.763242">
        <ele>211.237527</ele>
        <time>2017-06-07T07:50:25.000Z</time>
      </trkpt>
      <trkpt lat="44.257340" lon="4.763372">
        <ele>211.270804</ele>
        <time>2017-06-07T07:50:28.000Z</time>
      </trkpt>
      <trkpt lat="44.257317" lon="4.763528">
        <ele>211.311458</ele>
        <time>2017-06-07T07:50:32.000Z</time>
      </trkpt>
      <trkpt lat="44.257290" lon="4.763660">
        <ele>211.346499</ele>
        <time>2017-06-07T07:50:36.000Z</time>
      </trkpt>
      <trkpt lat="44.257210" lon="4.763762">
        <ele>211.385109</ele>
        <time>2017-06-07T07:50:40.000Z</time>
      </trkpt>
      <trkpt lat="44.257103" lon="4.763741">
        <ele>211.423618</ele>
        <time>2017-06-07T07:50:43.000Z</time>
      </trkpt>
      <trkpt lat="44.257020" lon="4.763681">
        <ele>211.456928</ele>
        <time>2017-06-07T07:50:45.000Z</time>
      </trkpt>
      <trkpt lat="44.256943" lon="4.763574">
        <ele>211.495646</ele>
        <time>2017-06-07T07:50:47.000Z</time>
      </trkpt>
      <trkpt lat="44.256870" lon="4.763447">
        <ele>211.537212</ele>
        <time>2017-06-07T07:50:49.000Z</time>
      </trkpt>
      <trkpt lat="44.256794" lon="4.763326">
        <ele>211.578292</ele>
        <time>2017-06-07T07:50:51.000Z</time>
      </trkpt>
      <trkpt lat="44.256710" lon="4.763197">
        <ele>211.622795</ele>
        <time>2017-06-07T07:50:53.000Z</time>
      </trkpt>
      <trkpt lat="44.256626" lon="4.763094">
        <ele>211.662638</ele>
        <time>2017-06-07T07:50:55.000Z</time>
      </trkpt>
      <trkpt lat="44.256527" lon="4.762963">
        <ele>211.711248</ele>
        <time>2017-06-07T07:50:57.000Z</time>
      </trkpt>
      <trkpt lat="44.256424" lon="4.762836">
        <ele>211.371595</ele>
        <time>2017-06-07T07:50:59.000Z</time>
      </trkpt>
      <trkpt lat="44.256313" lon="4.762722">
        <ele>210.920407</ele>
        <time>2017-06-07T07:51:01.000Z</time>
      </trkpt>
      <trkpt lat="44.256195" lon="4.762618">
        <ele>210.463497</ele>
        <time>2017-06-07T07:51:03.000Z</time>
      </trkpt>
      <trkpt lat="44.256077" lon="4.762507">
        <ele>209.997616</ele>
        <time>2017-06-07T07:51:05.000Z</time>
      </trkpt>
      <trkpt lat="44.255960" lon="4.762390">
        <ele>209.526395</ele>
        <time>2017-06-07T07:51:07.000Z</time>
      </trkpt>
      <trkpt lat="44.255836" lon="4.762281">
        <ele>209.046612</ele>
        <time>2017-06-07T07:51:09.000Z</time>
      </trkpt>
      <trkpt lat="44.255726" lon="4.762172">
        <ele>208.604944</ele>
        <time>2017-06-07T07:51:11.000Z</time>
      </trkpt>
      <trkpt lat="44.255615" lon="4.762063">
        <ele>208.160603</ele>
        <time>2017-06-07T07:51:13.000Z</time>
      </trkpt>
      <trkpt lat="44.255500" lon="4.761958">
        <ele>207.710687</ele>
        <time>2017-06-07T07:51:15.000Z</time>
      </trkpt>
      <trkpt lat="44.255390" lon="4.761856">
        <ele>207.278313</ele>
        <time>2017-06-07T07:51:17.000Z</time>
      </trkpt>
      <trkpt lat="44.255287" lon="4.761753">
        <ele>206.863476</ele>
        <time>2017-06-07T07:51:19.000Z</time>
      </trkpt>
      <trkpt lat="44.255177" lon="4.761646">
        <ele>206.424505</ele>
        <time>2017-06-07T07:51:21.000Z</time>
      </trkpt>
      <trkpt lat="44.255062" lon="4.761560">
        <ele>205.997345</ele>
        <time>2017-06-07T07:51:23.000Z</time>
      </trkpt>
      <trkpt lat="44.254948" lon="4.761490">
        <ele>205.678033</ele>
        <time>2017-06-07T07:51:25.000Z</time>
      </trkpt>
      <trkpt lat="44.254826" lon="4.761442">
        <ele>205.413996</ele>
        <time>2017-06-07T07:51:27.000Z</time>
      </trkpt>
      <trkpt lat="44.254707" lon="4.761425">
        <ele>205.164813</ele>
        <time>2017-06-07T07:51:29.000Z</time>
      </trkpt>
      <trkpt lat="44.254597" lon="4.761423">
        <ele>204.935652</ele>
        <time>2017-06-07T07:51:31.000Z</time>
      </trkpt>
      <trkpt lat="44.254486" lon="4.761431">
        <ele>204.704120</ele>
        <time>2017-06-07T07:51:33.000Z</time>
      </trkpt>
      <trkpt lat="44.254375" lon="4.761449">
        <ele>204.471341</ele>
        <time>2017-06-07T07:51:35.000Z</time>
      </trkpt>
      <trkpt lat="44.254272" lon="4.761502">
        <ele>204.242672</ele>
        <time>2017-06-07T07:51:37.000Z</time>
      </trkpt>
      <trkpt lat="44.254173" lon="4.761582">
        <ele>204.004393</ele>
        <time>2017-06-07T07:51:39.000Z</time>
      </trkpt>
      <trkpt lat="44.254074" lon="4.761677">
        <ele>203.754152</ele>
        <time>2017-06-07T07:51:41.000Z</time>
      </trkpt>
      <trkpt lat="44.253975" lon="4.761783">
        <ele>203.494262</ele>
        <time>2017-06-07T07:51:43.000Z</time>
      </trkpt>
      <trkpt lat="44.253872" lon="4.761889">
        <ele>203.227712</ele>
        <time>2017-06-07T07:51:45.000Z</time>
      </trkpt>
      <trkpt lat="44.253760" lon="4.761984">
        <ele>202.954722</ele>
        <time>2017-06-07T07:51:47.000Z</time>
      </trkpt>
      <trkpt lat="44.253640" lon="4.762057">
        <ele>202.682051</ele>
        <time>2017-06-07T07:51:49.000Z</time>
      </trkpt>
      <trkpt lat="44.253510" lon="4.762113">
        <ele>202.398650</ele>
        <time>2017-06-07T07:51:51.000Z</time>
      </trkpt>
      <trkpt lat="44.253390" lon="4.762174">
        <ele>202.132624</ele>
        <time>2017-06-07T07:51:53.000Z</time>
      </trkpt>
      <trkpt lat="44.253265" lon="4.762231">
        <ele>202.104296</ele>
        <time>2017-06-07T07:51:55.000Z</time>
      </trkpt>
      <trkpt lat="44.253140" lon="4.762287">
        <ele>202.126341</ele>
        <time>2017-06-07T07:51:57.000Z</time>
      </trkpt>
      <trkpt lat="44.253014" lon="4.762332">
        <ele>202.148182</ele>
        <time>2017-06-07T07:51:59.000Z</time>
      </trkpt>
      <trkpt lat="44.252888" lon="4.762391">
        <ele>202.170500</ele>
        <time>2017-06-07T07:52:01.000Z</time>
      </trkpt>
      <trkpt lat="44.252758" lon="4.762456">
        <ele>202.193690</ele>
        <time>2017-06-07T07:52:03.000Z</time>
      </trkpt>
      <trkpt lat="44.252640" lon="4.762518">
        <ele>202.214863</ele>
        <time>2017-06-07T07:52:05.000Z</time>
      </trkpt>
      <trkpt lat="44.252520" lon="4.762589">
        <ele>202.236750</ele>
        <time>2017-06-07T07:52:07.000Z</time>
      </trkpt>
      <trkpt lat="44.252407" lon="4.762664">
        <ele>202.257761</ele>
        <time>2017-06-07T07:52:09.000Z</time>
      </trkpt>
      <trkpt lat="44.252300" lon="4.762743">
        <ele>202.278088</ele>
        <time>2017-06-07T07:52:11.000Z</time>
      </trkpt>
      <trkpt lat="44.252190" lon="4.762814">
        <ele>202.298440</ele>
        <time>2017-06-07T07:52:13.000Z</time>
      </trkpt>
      <trkpt lat="44.252083" lon="4.762896">
        <ele>202.318938</ele>
        <time>2017-06-07T07:52:15.000Z</time>
      </trkpt>
      <trkpt lat="44.251980" lon="4.762974">
        <ele>202.338616</ele>
        <time>2017-06-07T07:52:17.000Z</time>
      </trkpt>
      <trkpt lat="44.251873" lon="4.763040">
        <ele>202.358260</ele>
        <time>2017-06-07T07:52:19.000Z</time>
      </trkpt>
      <trkpt lat="44.251770" lon="4.763114">
        <ele>202.377713</ele>
        <time>2017-06-07T07:52:21.000Z</time>
      </trkpt>
      <trkpt lat="44.251670" lon="4.763187">
        <ele>202.448716</ele>
        <time>2017-06-07T07:52:23.000Z</time>
      </trkpt>
      <trkpt lat="44.251570" lon="4.763269">
        <ele>202.585554</ele>
        <time>2017-06-07T07:52:25.000Z</time>
      </trkpt>
      <trkpt lat="44.251472" lon="4.763336">
        <ele>202.714306</ele>
        <time>2017-06-07T07:52:27.000Z</time>
      </trkpt>
      <trkpt lat="44.251373" lon="4.763405">
        <ele>202.844864</ele>
        <time>2017-06-07T07:52:29.000Z</time>
      </trkpt>
      <trkpt lat="44.251286" lon="4.763493">
        <ele>202.971627</ele>
        <time>2017-06-07T07:52:31.000Z</time>
      </trkpt>
      <trkpt lat="44.251210" lon="4.763587">
        <ele>203.091429</ele>
        <time>2017-06-07T07:52:33.000Z</time>
      </trkpt>
      <trkpt lat="44.251140" lon="4.763698">
        <ele>203.216419</ele>
        <time>2017-06-07T07:52:35.000Z</time>
      </trkpt>
      <trkpt lat="44.251070" lon="4.763805">
        <ele>203.338892</ele>
        <time>2017-06-07T07:52:37.000Z</time>
      </trkpt>
      <trkpt lat="44.250990" lon="4.763916">
        <ele>203.471973</ele>
        <time>2017-06-07T07:52:39.000Z</time>
      </trkpt>
      <trkpt lat="44.250920" lon="4.764014">
        <ele>203.588942</ele>
        <time>2017-06-07T07:52:41.000Z</time>
      </trkpt>
      <trkpt lat="44.250843" lon="4.764111">
        <ele>203.711315</ele>
        <time>2017-06-07T07:52:43.000Z</time>
      </trkpt>
      <trkpt lat="44.250767" lon="4.764209">
        <ele>203.833386</ele>
        <time>2017-06-07T07:52:45.000Z</time>
      </trkpt>
      <trkpt lat="44.250690" lon="4.764304">
        <ele>203.954632</ele>
        <time>2017-06-07T07:52:47.000Z</time>
      </trkpt>
      <trkpt lat="44.250610" lon="4.764391">
        <ele>204.074284</ele>
        <time>2017-06-07T07:52:49.000Z</time>
      </trkpt>
      <trkpt lat="44.250526" lon="4.764476">
        <ele>204.196693</ele>
        <time>2017-06-07T07:52:51.000Z</time>
      </trkpt>
      <trkpt lat="44.250446" lon="4.764560">
        <ele>204.314804</ele>
        <time>2017-06-07T07:52:53.000Z</time>
      </trkpt>
      <trkpt lat="44.250366" lon="4.764640">
        <ele>204.430914</ele>
        <time>2017-06-07T07:52:55.000Z</time>
      </trkpt>
      <trkpt lat="44.250286" lon="4.764723">
        <ele>204.575907</ele>
        <time>2017-06-07T07:52:57.000Z</time>
      </trkpt>
      <trkpt lat="44.250210" lon="4.764811">
        <ele>204.775813</ele>
        <time>2017-06-07T07:52:59.000Z</time>
      </trkpt>
      <trkpt lat="44.250130" lon="4.764895">
        <ele>204.978478</ele>
        <time>2017-06-07T07:53:01.000Z</time>
      </trkpt>
      <trkpt lat="44.250057" lon="4.764980">
        <ele>205.170932</ele>
        <time>2017-06-07T07:53:03.000Z</time>
      </trkpt>
      <trkpt lat="44.249990" lon="4.765070">
        <ele>205.359176</ele>
        <time>2017-06-07T07:53:05.000Z</time>
      </trkpt>
      <trkpt lat="44.249920" lon="4.765156">
        <ele>205.547961</ele>
        <time>2017-06-07T07:53:07.000Z</time>
      </trkpt>
      <trkpt lat="44.249817" lon="4.765268">
        <ele>205.812286</ele>
        <time>2017-06-07T07:53:10.000Z</time>
      </trkpt>
      <trkpt lat="44.249737" lon="4.765337">
        <ele>206.002671</ele>
        <time>2017-06-07T07:53:12.000Z</time>
      </trkpt>
      <trkpt lat="44.249653" lon="4.765390">
        <ele>206.189300</ele>
        <time>2017-06-07T07:53:14.000Z</time>
      </trkpt>
      <trkpt lat="44.249565" lon="4.765429">
        <ele>206.376226</ele>
        <time>2017-06-07T07:53:16.000Z</time>
      </trkpt>
      <trkpt lat="44.249462" lon="4.765465">
        <ele>206.591195</ele>
        <time>2017-06-07T07:53:18.000Z</time>
      </trkpt>
      <trkpt lat="44.249363" lon="4.765490">
        <ele>206.794883</ele>
        <time>2017-06-07T07:53:20.000Z</time>
      </trkpt>
      <trkpt lat="44.249270" lon="4.765512">
        <ele>206.985854</ele>
        <time>2017-06-07T07:53:22.000Z</time>
      </trkpt>
      <trkpt lat="44.249146" lon="4.765571">
        <ele>207.251084</ele>
        <time>2017-06-07T07:53:25.000Z</time>
      </trkpt>
      <trkpt lat="44.249050" lon="4.765604">
        <ele>207.451250</ele>
        <time>2017-06-07T07:53:27.000Z</time>
      </trkpt>
      <trkpt lat="44.248962" lon="4.765637">
        <ele>207.635730</ele>
        <time>2017-06-07T07:53:29.000Z</time>
      </trkpt>
      <trkpt lat="44.248840" lon="4.765690">
        <ele>207.894414</ele>
        <time>2017-06-07T07:53:32.000Z</time>
      </trkpt>
      <trkpt lat="44.248726" lon="4.765768">
        <ele>208.151447</ele>
        <time>2017-06-07T07:53:35.000Z</time>
      </trkpt>
      <trkpt lat="44.248608" lon="4.765833">
        <ele>208.144642</ele>
        <time>2017-06-07T07:53:38.000Z</time>
      </trkpt>
      <trkpt lat="44.248480" lon="4.765903">
        <ele>208.136898</ele>
        <time>2017-06-07T07:53:41.000Z</time>
      </trkpt>
      <trkpt lat="44.248398" lon="4.765963">
        <ele>208.131682</ele>
        <time>2017-06-07T07:53:43.000Z</time>
      </trkpt>
      <trkpt lat="44.248314" lon="4.766027">
        <ele>208.126291</ele>
        <time>2017-06-07T07:53:45.000Z</time>
      </trkpt>
      <trkpt lat="44.248222" lon="4.766088">
        <ele>208.120553</ele>
        <time>2017-06-07T07:53:47.000Z</time>
      </trkpt>
      <trkpt lat="44.248127" lon="4.766156">
        <ele>208.114538</ele>
        <time>2017-06-07T07:53:49.000Z</time>
      </trkpt>
      <trkpt lat="44.248016" lon="4.766203">
        <ele>208.108004</ele>
        <time>2017-06-07T07:53:51.000Z</time>
      </trkpt>
      <trkpt lat="44.247902" lon="4.766252">
        <ele>208.101284</ele>
        <time>2017-06-07T07:53:53.000Z</time>
      </trkpt>
      <trkpt lat="44.247776" lon="4.766306">
        <ele>208.093858</ele>
        <time>2017-06-07T07:53:55.000Z</time>
      </trkpt>
      <trkpt lat="44.247635" lon="4.766368">
        <ele>208.085530</ele>
        <time>2017-06-07T07:53:57.000Z</time>
      </trkpt>
      <trkpt lat="44.247482" lon="4.766418">
        <ele>208.076678</ele>
        <time>2017-06-07T07:53:59.000Z</time>
      </trkpt>
      <trkpt lat="44.247330" lon="4.766479">
        <ele>208.067768</ele>
        <time>2017-06-07T07:54:01.000Z</time>
      </trkpt>
      <trkpt lat="44.247170" lon="4.766556">
        <ele>208.058233</ele>
        <time>2017-06-07T07:54:03.000Z</time>
      </trkpt>
      <trkpt lat="44.247078" lon="4.766587">
        <ele>208.052901</ele>
        <time>2017-06-07T07:54:04.000Z</time>
      </trkpt>
      <trkpt lat="44.246918" lon="4.766653">
        <ele>207.830140</ele>
        <time>2017-06-07T07:54:06.000Z</time>
      </trkpt>
      <trkpt lat="44.246754" lon="4.766716">
        <ele>207.526278</ele>
        <time>2017-06-07T07:54:08.000Z</time>
      </trkpt>
      <trkpt lat="44.246605" lon="4.766780">
        <ele>207.247788</ele>
        <time>2017-06-07T07:54:10.000Z</time>
      </trkpt>
      <trkpt lat="44.246452" lon="4.766852">
        <ele>206.959355</ele>
        <time>2017-06-07T07:54:12.000Z</time>
      </trkpt>
      <trkpt lat="44.246320" lon="4.766914">
        <ele>206.710559</ele>
        <time>2017-06-07T07:54:14.000Z</time>
      </trkpt>
      <trkpt lat="44.246185" lon="4.766981">
        <ele>206.454606</ele>
        <time>2017-06-07T07:54:16.000Z</time>
      </trkpt>
      <trkpt lat="44.246075" lon="4.767060">
        <ele>206.233621</ele>
        <time>2017-06-07T07:54:18.000Z</time>
      </trkpt>
      <trkpt lat="44.245950" lon="4.767165">
        <ele>205.973009</ele>
        <time>2017-06-07T07:54:20.000Z</time>
      </trkpt>
      <trkpt lat="44.245840" lon="4.767265">
        <ele>205.738509</ele>
        <time>2017-06-07T07:54:22.000Z</time>
      </trkpt>
      <trkpt lat="44.245712" lon="4.767369">
        <ele>205.473937</ele>
        <time>2017-06-07T07:54:24.000Z</time>
      </trkpt>
      <trkpt lat="44.245590" lon="4.767453">
        <ele>205.230927</ele>
        <time>2017-06-07T07:54:26.000Z</time>
      </trkpt>
      <trkpt lat="44.245464" lon="4.767524">
        <ele>204.988193</ele>
        <time>2017-06-07T07:54:28.000Z</time>
      </trkpt>
      <trkpt lat="44.245335" lon="4.767592">
        <ele>204.788133</ele>
        <time>2017-06-07T07:54:30.000Z</time>
      </trkpt>
      <trkpt lat="44.245220" lon="4.767648">
        <ele>204.676004</ele>
        <time>2017-06-07T07:54:32.000Z</time>
      </trkpt>
      <trkpt lat="44.245090" lon="4.767680">
        <ele>204.554476</ele>
        <time>2017-06-07T07:54:34.000Z</time>
      </trkpt>
      <trkpt lat="44.244976" lon="4.767725">
        <ele>204.445409</ele>
        <time>2017-06-07T07:54:36.000Z</time>
      </trkpt>
      <trkpt lat="44.244870" lon="4.767775">
        <ele>204.342402</ele>
        <time>2017-06-07T07:54:38.000Z</time>
      </trkpt>
      <trkpt lat="44.244762" lon="4.767841">
        <ele>204.233864</ele>
        <time>2017-06-07T07:54:40.000Z</time>
      </trkpt>
      <trkpt lat="44.244670" lon="4.767902">
        <ele>204.140097</ele>
        <time>2017-06-07T07:54:42.000Z</time>
      </trkpt>
      <trkpt lat="44.244564" lon="4.767931">
        <ele>204.040654</ele>
        <time>2017-06-07T07:54:44.000Z</time>
      </trkpt>
      <trkpt lat="44.244460" lon="4.767946">
        <ele>203.944399</ele>
        <time>2017-06-07T07:54:46.000Z</time>
      </trkpt>
      <trkpt lat="44.244358" lon="4.767971">
        <ele>203.849059</ele>
        <time>2017-06-07T07:54:48.000Z</time>
      </trkpt>
      <trkpt lat="44.244255" lon="4.767997">
        <ele>203.752696</ele>
        <time>2017-06-07T07:54:50.000Z</time>
      </trkpt>
      <trkpt lat="44.244152" lon="4.768028">
        <ele>203.655692</ele>
        <time>2017-06-07T07:54:52.000Z</time>
      </trkpt>
      <trkpt lat="44.244038" lon="4.768075">
        <ele>203.546259</ele>
        <time>2017-06-07T07:54:54.000Z</time>
      </trkpt>
      <trkpt lat="44.243935" lon="4.768117">
        <ele>203.447471</ele>
        <time>2017-06-07T07:54:56.000Z</time>
      </trkpt>
      <trkpt lat="44.243835" lon="4.768161">
        <ele>203.350943</ele>
        <time>2017-06-07T07:54:58.000Z</time>
      </trkpt>
      <trkpt lat="44.243755" lon="4.768221">
        <ele>203.267336</ele>
        <time>2017-06-07T07:55:00.000Z</time>
      </trkpt>
      <trkpt lat="44.243675" lon="4.768287">
        <ele>203.181784</ele>
        <time>2017-06-07T07:55:02.000Z</time>
      </trkpt>
      <trkpt lat="44.243560" lon="4.768373">
        <ele>202.586503</ele>
        <time>2017-06-07T07:55:05.000Z</time>
      </trkpt>
      <trkpt lat="44.243484" lon="4.768449">
        <ele>202.158987</ele>
        <time>2017-06-07T07:55:07.000Z</time>
      </trkpt>
      <trkpt lat="44.243412" lon="4.768532">
        <ele>201.731980</ele>
        <time>2017-06-07T07:55:09.000Z</time>
      </trkpt>
      <trkpt lat="44.243317" lon="4.768603">
        <ele>201.239209</ele>
        <time>2017-06-07T07:55:11.000Z</time>
      </trkpt>
      <trkpt lat="44.243220" lon="4.768695">
        <ele>200.702937</ele>
        <time>2017-06-07T07:55:13.000Z</time>
      </trkpt>
      <trkpt lat="44.243110" lon="4.768786">
        <ele>200.118217</ele>
        <time>2017-06-07T07:55:15.000Z</time>
      </trkpt>
      <trkpt lat="44.242992" lon="4.768888">
        <ele>199.483534</ele>
        <time>2017-06-07T07:55:17.000Z</time>
      </trkpt>
      <trkpt lat="44.242886" lon="4.768988">
        <ele>198.898488</ele>
        <time>2017-06-07T07:55:19.000Z</time>
      </trkpt>
      <trkpt lat="44.242780" lon="4.769098">
        <ele>198.294488</ele>
        <time>2017-06-07T07:55:21.000Z</time>
      </trkpt>
      <trkpt lat="44.242695" lon="4.769226">
        <ele>197.722721</ele>
        <time>2017-06-07T07:55:23.000Z</time>
      </trkpt>
      <trkpt lat="44.242596" lon="4.769356">
        <ele>197.101172</ele>
        <time>2017-06-07T07:55:25.000Z</time>
      </trkpt>
      <trkpt lat="44.242493" lon="4.769472">
        <ele>196.495979</ele>
        <time>2017-06-07T07:55:27.000Z</time>
      </trkpt>
      <trkpt lat="44.242390" lon="4.769558">
        <ele>195.947142</ele>
        <time>2017-06-07T07:55:29.000Z</time>
      </trkpt>
      <trkpt lat="44.242294" lon="4.769616">
        <ele>195.468789</ele>
        <time>2017-06-07T07:55:31.000Z</time>
      </trkpt>
      <trkpt lat="44.242180" lon="4.769696">
        <ele>194.865289</ele>
        <time>2017-06-07T07:55:34.000Z</time>
      </trkpt>
      <trkpt lat="44.242077" lon="4.769735">
        <ele>194.239942</ele>
        <time>2017-06-07T07:55:37.000Z</time>
      </trkpt>
      <trkpt lat="44.241990" lon="4.769686">
        <ele>193.690226</ele>
        <time>2017-06-07T07:55:41.000Z</time>
      </trkpt>
      <trkpt lat="44.241802" lon="4.769709">
        <ele>192.584403</ele>
        <time>2017-06-07T07:57:16.000Z</time>
      </trkpt>
      <trkpt lat="44.241695" lon="4.769732">
        <ele>191.950038</ele>
        <time>2017-06-07T07:57:18.000Z</time>
      </trkpt>
      <trkpt lat="44.241573" lon="4.769805">
        <ele>191.172257</ele>
        <time>2017-06-07T07:57:20.000Z</time>
      </trkpt>
      <trkpt lat="44.241447" lon="4.769907">
        <ele>190.318774</ele>
        <time>2017-06-07T07:57:22.000Z</time>
      </trkpt>
      <trkpt lat="44.241310" lon="4.770030">
        <ele>189.364296</ele>
        <time>2017-06-07T07:57:24.000Z</time>
      </trkpt>
      <trkpt lat="44.241173" lon="4.770171">
        <ele>188.366916</ele>
        <time>2017-06-07T07:57:26.000Z</time>
      </trkpt>
      <trkpt lat="44.241020" lon="4.770306">
        <ele>187.306302</ele>
        <time>2017-06-07T07:57:28.000Z</time>
      </trkpt>
      <trkpt lat="44.240940" lon="4.770361">
        <ele>186.783762</ele>
        <time>2017-06-07T07:57:29.000Z</time>
      </trkpt>
      <trkpt lat="44.240852" lon="4.770422">
        <ele>186.208037</ele>
        <time>2017-06-07T07:57:30.000Z</time>
      </trkpt>
      <trkpt lat="44.240765" lon="4.770482">
        <ele>185.639425</ele>
        <time>2017-06-07T07:57:31.000Z</time>
      </trkpt>
      <trkpt lat="44.240677" lon="4.770546">
        <ele>185.057989</ele>
        <time>2017-06-07T07:57:32.000Z</time>
      </trkpt>
      <trkpt lat="44.240585" lon="4.770610">
        <ele>184.455669</ele>
        <time>2017-06-07T07:57:33.000Z</time>
      </trkpt>
      <trkpt lat="44.240494" lon="4.770670">
        <ele>184.111947</ele>
        <time>2017-06-07T07:57:34.000Z</time>
      </trkpt>
      <trkpt lat="44.240402" lon="4.770732">
        <ele>183.780472</ele>
        <time>2017-06-07T07:57:35.000Z</time>
      </trkpt>
      <trkpt lat="44.240208" lon="4.770857">
        <ele>183.087188</ele>
        <time>2017-06-07T07:57:37.000Z</time>
      </trkpt>
      <trkpt lat="44.240112" lon="4.770918">
        <ele>182.744948</ele>
        <time>2017-06-07T07:57:38.000Z</time>
      </trkpt>
      <trkpt lat="44.240020" lon="4.770979">
        <ele>182.414477</ele>
        <time>2017-06-07T07:57:39.000Z</time>
      </trkpt>
      <trkpt lat="44.239925" lon="4.771048">
        <ele>182.067004</ele>
        <time>2017-06-07T07:57:40.000Z</time>
      </trkpt>
      <trkpt lat="44.239830" lon="4.771113">
        <ele>181.723725</ele>
        <time>2017-06-07T07:57:41.000Z</time>
      </trkpt>
      <trkpt lat="44.239730" lon="4.771181">
        <ele>181.362808</ele>
        <time>2017-06-07T07:57:42.000Z</time>
      </trkpt>
      <trkpt lat="44.239635" lon="4.771246">
        <ele>181.019528</ele>
        <time>2017-06-07T07:57:43.000Z</time>
      </trkpt>
      <trkpt lat="44.239544" lon="4.771312">
        <ele>180.686787</ele>
        <time>2017-06-07T07:57:44.000Z</time>
      </trkpt>
      <trkpt lat="44.239445" lon="4.771378">
        <ele>180.330812</ele>
        <time>2017-06-07T07:57:45.000Z</time>
      </trkpt>
      <trkpt lat="44.239350" lon="4.771444">
        <ele>179.986502</ele>
        <time>2017-06-07T07:57:46.000Z</time>
      </trkpt>
      <trkpt lat="44.239250" lon="4.771509">
        <ele>179.628584</ele>
        <time>2017-06-07T07:57:47.000Z</time>
      </trkpt>
      <trkpt lat="44.239155" lon="4.771569">
        <ele>179.290258</ele>
        <time>2017-06-07T07:57:48.000Z</time>
      </trkpt>
      <trkpt lat="44.239060" lon="4.771629">
        <ele>178.951933</ele>
        <time>2017-06-07T07:57:49.000Z</time>
      </trkpt>
      <trkpt lat="44.238968" lon="4.771693">
        <ele>178.618408</ele>
        <time>2017-06-07T07:57:50.000Z</time>
      </trkpt>
      <trkpt lat="44.238873" lon="4.771757">
        <ele>178.456727</ele>
        <time>2017-06-07T07:57:51.000Z</time>
      </trkpt>
      <trkpt lat="44.238790" lon="4.771826">
        <ele>178.328793</ele>
        <time>2017-06-07T07:57:52.000Z</time>
      </trkpt>
      <trkpt lat="44.238705" lon="4.771896">
        <ele>178.198097</ele>
        <time>2017-06-07T07:57:53.000Z</time>
      </trkpt>
      <trkpt lat="44.238630" lon="4.771966">
        <ele>178.078617</ele>
        <time>2017-06-07T07:57:54.000Z</time>
      </trkpt>
      <trkpt lat="44.238550" lon="4.772034">
        <ele>177.954576</ele>
        <time>2017-06-07T07:57:55.000Z</time>
      </trkpt>
      <trkpt lat="44.238476" lon="4.772107">
        <ele>177.834574</ele>
        <time>2017-06-07T07:57:56.000Z</time>
      </trkpt>
      <trkpt lat="44.238400" lon="4.772182">
        <ele>177.711314</ele>
        <time>2017-06-07T07:57:57.000Z</time>
      </trkpt>
      <trkpt lat="44.238327" lon="4.772252">
        <ele>177.594026</ele>
        <time>2017-06-07T07:57:58.000Z</time>
      </trkpt>
      <trkpt lat="44.238180" lon="4.772378">
        <ele>177.365580</ele>
        <time>2017-06-07T07:58:00.000Z</time>
      </trkpt>
      <trkpt lat="44.238040" lon="4.772500">
        <ele>177.147013</ele>
        <time>2017-06-07T07:58:02.000Z</time>
      </trkpt>
      <trkpt lat="44.237904" lon="4.772623">
        <ele>176.932407</ele>
        <time>2017-06-07T07:58:04.000Z</time>
      </trkpt>
      <trkpt lat="44.237770" lon="4.772744">
        <ele>176.721055</ele>
        <time>2017-06-07T07:58:06.000Z</time>
      </trkpt>
      <trkpt lat="44.237648" lon="4.772878">
        <ele>176.515467</ele>
        <time>2017-06-07T07:58:08.000Z</time>
      </trkpt>
      <trkpt lat="44.237545" lon="4.773030">
        <ele>176.316964</ele>
        <time>2017-06-07T07:58:10.000Z</time>
      </trkpt>
      <trkpt lat="44.237446" lon="4.773183">
        <ele>176.172490</ele>
        <time>2017-06-07T07:58:12.000Z</time>
      </trkpt>
      <trkpt lat="44.237340" lon="4.773326">
        <ele>176.105264</ele>
        <time>2017-06-07T07:58:14.000Z</time>
      </trkpt>
      <trkpt lat="44.237220" lon="4.773454">
        <ele>176.036392</ele>
        <time>2017-06-07T07:58:16.000Z</time>
      </trkpt>
      <trkpt lat="44.237106" lon="4.773573">
        <ele>175.971475</ele>
        <time>2017-06-07T07:58:18.000Z</time>
      </trkpt>
      <trkpt lat="44.236988" lon="4.773688">
        <ele>175.905846</ele>
        <time>2017-06-07T07:58:20.000Z</time>
      </trkpt>
      <trkpt lat="44.236870" lon="4.773797">
        <ele>175.841318</ele>
        <time>2017-06-07T07:58:22.000Z</time>
      </trkpt>
      <trkpt lat="44.236767" lon="4.773906">
        <ele>175.782374</ele>
        <time>2017-06-07T07:58:24.000Z</time>
      </trkpt>
      <trkpt lat="44.236668" lon="4.774006">
        <ele>175.726646</ele>
        <time>2017-06-07T07:58:26.000Z</time>
      </trkpt>
      <trkpt lat="44.236572" lon="4.774107">
        <ele>175.671825</ele>
        <time>2017-06-07T07:58:28.000Z</time>
      </trkpt>
      <trkpt lat="44.236480" lon="4.774208">
        <ele>175.618448</ele>
        <time>2017-06-07T07:58:30.000Z</time>
      </trkpt>
      <trkpt lat="44.236385" lon="4.774305">
        <ele>175.564772</ele>
        <time>2017-06-07T07:58:32.000Z</time>
      </trkpt>
      <trkpt lat="44.236286" lon="4.774409">
        <ele>175.508268</ele>
        <time>2017-06-07T07:58:34.000Z</time>
      </trkpt>
      <trkpt lat="44.236195" lon="4.774513">
        <ele>175.454633</ele>
        <time>2017-06-07T07:58:36.000Z</time>
      </trkpt>
      <trkpt lat="44.236103" lon="4.774620">
        <ele>175.400023</ele>
        <time>2017-06-07T07:58:38.000Z</time>
      </trkpt>
      <trkpt lat="44.236023" lon="4.774728">
        <ele>175.377398</ele>
        <time>2017-06-07T07:58:40.000Z</time>
      </trkpt>
      <trkpt lat="44.235930" lon="4.774824">
        <ele>175.374337</ele>
        <time>2017-06-07T07:58:42.000Z</time>
      </trkpt>
      <trkpt lat="44.235836" lon="4.774904">
        <ele>175.371424</ele>
        <time>2017-06-07T07:58:44.000Z</time>
      </trkpt>
      <trkpt lat="44.235733" lon="4.774962">
        <ele>175.368485</ele>
        <time>2017-06-07T07:58:46.000Z</time>
      </trkpt>
      <trkpt lat="44.235626" lon="4.775003">
        <ele>175.365549</ele>
        <time>2017-06-07T07:58:48.000Z</time>
      </trkpt>
      <trkpt lat="44.235508" lon="4.775024">
        <ele>175.362402</ele>
        <time>2017-06-07T07:58:50.000Z</time>
      </trkpt>
      <trkpt lat="44.235390" lon="4.775027">
        <ele>175.359279</ele>
        <time>2017-06-07T07:58:52.000Z</time>
      </trkpt>
      <trkpt lat="44.235275" lon="4.775016">
        <ele>175.356229</ele>
        <time>2017-06-07T07:58:54.000Z</time>
      </trkpt>
      <trkpt lat="44.235160" lon="4.775003">
        <ele>175.353176</ele>
        <time>2017-06-07T07:58:56.000Z</time>
      </trkpt>
      <trkpt lat="44.235050" lon="4.774983">
        <ele>175.350241</ele>
        <time>2017-06-07T07:58:58.000Z</time>
      </trkpt>
      <trkpt lat="44.234930" lon="4.774969">
        <ele>175.347054</ele>
        <time>2017-06-07T07:59:01.000Z</time>
      </trkpt>
      <trkpt lat="44.234825" lon="4.774945">
        <ele>175.344239</ele>
        <time>2017-06-07T07:59:04.000Z</time>
      </trkpt>
      <trkpt lat="44.234722" lon="4.774919">
        <ele>175.341469</ele>
        <time>2017-06-07T07:59:07.000Z</time>
      </trkpt>
      <trkpt lat="44.234600" lon="4.774888">
        <ele>175.338188</ele>
        <time>2017-06-07T07:59:10.000Z</time>
      </trkpt>
      <trkpt lat="44.234505" lon="4.774862">
        <ele>175.335627</ele>
        <time>2017-06-07T07:59:12.000Z</time>
      </trkpt>
      <trkpt lat="44.234375" lon="4.774836">
        <ele>175.332152</ele>
        <time>2017-06-07T07:59:15.000Z</time>
      </trkpt>
      <trkpt lat="44.234287" lon="4.774811">
        <ele>175.223059</ele>
        <time>2017-06-07T07:59:17.000Z</time>
      </trkpt>
      <trkpt lat="44.234188" lon="4.774791">
        <ele>175.060178</ele>
        <time>2017-06-07T07:59:19.000Z</time>
      </trkpt>
      <trkpt lat="44.234060" lon="4.774748">
        <ele>174.845803</ele>
        <time>2017-06-07T07:59:22.000Z</time>
      </trkpt>
      <trkpt lat="44.233930" lon="4.774697">
        <ele>174.625921</ele>
        <time>2017-06-07T07:59:25.000Z</time>
      </trkpt>
      <trkpt lat="44.233833" lon="4.774658">
        <ele>174.461552</ele>
        <time>2017-06-07T07:59:27.000Z</time>
      </trkpt>
      <trkpt lat="44.233730" lon="4.774637">
        <ele>174.292058</ele>
        <time>2017-06-07T07:59:29.000Z</time>
      </trkpt>
      <trkpt lat="44.233624" lon="4.774613">
        <ele>174.117201</ele>
        <time>2017-06-07T07:59:31.000Z</time>
      </trkpt>
      <trkpt lat="44.233532" lon="4.774590">
        <ele>173.965014</ele>
        <time>2017-06-07T07:59:33.000Z</time>
      </trkpt>
      <trkpt lat="44.233437" lon="4.774576">
        <ele>173.809465</ele>
        <time>2017-06-07T07:59:35.000Z</time>
      </trkpt>
      <trkpt lat="44.233337" lon="4.774554">
        <ele>173.644625</ele>
        <time>2017-06-07T07:59:37.000Z</time>
      </trkpt>
      <trkpt lat="44.233234" lon="4.774535">
        <ele>173.475452</ele>
        <time>2017-06-07T07:59:39.000Z</time>
      </trkpt>
      <trkpt lat="44.233128" lon="4.774542">
        <ele>173.302659</ele>
        <time>2017-06-07T07:59:41.000Z</time>
      </trkpt>
      <trkpt lat="44.233030" lon="4.774555">
        <ele>173.142366</ele>
        <time>2017-06-07T07:59:43.000Z</time>
      </trkpt>
      <trkpt lat="44.232925" lon="4.774583">
        <ele>172.968302</ele>
        <time>2017-06-07T07:59:45.000Z</time>
      </trkpt>
      <trkpt lat="44.232834" lon="4.774625">
        <ele>172.812235</ele>
        <time>2017-06-07T07:59:47.000Z</time>
      </trkpt>
      <trkpt lat="44.232746" lon="4.774690">
        <ele>172.650114</ele>
        <time>2017-06-07T07:59:49.000Z</time>
      </trkpt>
      <trkpt lat="44.232662" lon="4.774768">
        <ele>172.485830</ele>
        <time>2017-06-07T07:59:51.000Z</time>
      </trkpt>
      <trkpt lat="44.232582" lon="4.774854">
        <ele>172.345349</ele>
        <time>2017-06-07T07:59:53.000Z</time>
      </trkpt>
      <trkpt lat="44.232500" lon="4.774939">
        <ele>172.227953</ele>
        <time>2017-06-07T07:59:55.000Z</time>
      </trkpt>
      <trkpt lat="44.232414" lon="4.775022">
        <ele>172.107779</ele>
        <time>2017-06-07T07:59:57.000Z</time>
      </trkpt>
      <trkpt lat="44.232338" lon="4.775109">
        <ele>171.994806</ele>
        <time>2017-06-07T07:59:59.000Z</time>
      </trkpt>
      <trkpt lat="44.232254" lon="4.775190">
        <ele>171.877460</ele>
        <time>2017-06-07T08:00:01.000Z</time>
      </trkpt>
      <trkpt lat="44.232170" lon="4.775281">
        <ele>171.755244</ele>
        <time>2017-06-07T08:00:03.000Z</time>
      </trkpt>
      <trkpt lat="44.232094" lon="4.775381">
        <ele>171.635196</ele>
        <time>2017-06-07T08:00:05.000Z</time>
      </trkpt>
      <trkpt lat="44.232020" lon="4.775477">
        <ele>171.519076</ele>
        <time>2017-06-07T08:00:07.000Z</time>
      </trkpt>
      <trkpt lat="44.231945" lon="4.775585">
        <ele>171.395219</ele>
        <time>2017-06-07T08:00:09.000Z</time>
      </trkpt>
      <trkpt lat="44.231876" lon="4.775703">
        <ele>171.269791</ele>
        <time>2017-06-07T08:00:11.000Z</time>
      </trkpt>
      <trkpt lat="44.231804" lon="4.775823">
        <ele>171.140897</ele>
        <time>2017-06-07T08:00:13.000Z</time>
      </trkpt>
      <trkpt lat="44.231740" lon="4.775947">
        <ele>171.015046</ele>
        <time>2017-06-07T08:00:15.000Z</time>
      </trkpt>
      <trkpt lat="44.231680" lon="4.776081">
        <ele>170.884919</ele>
        <time>2017-06-07T08:00:17.000Z</time>
      </trkpt>
      <trkpt lat="44.231610" lon="4.776219">
        <ele>170.745677</ele>
        <time>2017-06-07T08:00:19.000Z</time>
      </trkpt>
      <trkpt lat="44.231550" lon="4.776361">
        <ele>170.609918</ele>
        <time>2017-06-07T08:00:21.000Z</time>
      </trkpt>
      <trkpt lat="44.231487" lon="4.776503">
        <ele>170.472376</ele>
        <time>2017-06-07T08:00:23.000Z</time>
      </trkpt>
      <trkpt lat="44.231426" lon="4.776644">
        <ele>170.336735</ele>
        <time>2017-06-07T08:00:25.000Z</time>
      </trkpt>
      <trkpt lat="44.231373" lon="4.776783">
        <ele>170.270239</ele>
        <time>2017-06-07T08:00:27.000Z</time>
      </trkpt>
      <trkpt lat="44.231320" lon="4.776918">
        <ele>170.205787</ele>
        <time>2017-06-07T08:00:29.000Z</time>
      </trkpt>
      <trkpt lat="44.231274" lon="4.777059">
        <ele>170.140919</ele>
        <time>2017-06-07T08:00:31.000Z</time>
      </trkpt>
      <trkpt lat="44.231228" lon="4.777210">
        <ele>170.072219</ele>
        <time>2017-06-07T08:00:33.000Z</time>
      </trkpt>
      <trkpt lat="44.231182" lon="4.777358">
        <ele>170.004673</ele>
        <time>2017-06-07T08:00:35.000Z</time>
      </trkpt>
      <trkpt lat="44.231133" lon="4.777513">
        <ele>169.933739</ele>
        <time>2017-06-07T08:00:37.000Z</time>
      </trkpt>
      <trkpt lat="44.231090" lon="4.777673">
        <ele>169.862190</ele>
        <time>2017-06-07T08:00:39.000Z</time>
      </trkpt>
      <trkpt lat="44.231052" lon="4.777838">
        <ele>169.789623</ele>
        <time>2017-06-07T08:00:41.000Z</time>
      </trkpt>
      <trkpt lat="44.231014" lon="4.778002">
        <ele>169.717456</ele>
        <time>2017-06-07T08:00:43.000Z</time>
      </trkpt>
      <trkpt lat="44.230976" lon="4.778153">
        <ele>169.650446</ele>
        <time>2017-06-07T08:00:45.000Z</time>
      </trkpt>
      <trkpt lat="44.230940" lon="4.778301">
        <ele>169.585005</ele>
        <time>2017-06-07T08:00:47.000Z</time>
      </trkpt>
      <trkpt lat="44.230910" lon="4.778445">
        <ele>169.522215</ele>
        <time>2017-06-07T08:00:49.000Z</time>
      </trkpt>
      <trkpt lat="44.230873" lon="4.778591">
        <ele>169.457374</ele>
        <time>2017-06-07T08:00:51.000Z</time>
      </trkpt>
      <trkpt lat="44.230843" lon="4.778738">
        <ele>169.393377</ele>
        <time>2017-06-07T08:00:53.000Z</time>
      </trkpt>
      <trkpt lat="44.230812" lon="4.778896">
        <ele>169.324787</ele>
        <time>2017-06-07T08:00:55.000Z</time>
      </trkpt>
      <trkpt lat="44.230774" lon="4.779052">
        <ele>169.308682</ele>
        <time>2017-06-07T08:00:57.000Z</time>
      </trkpt>
      <trkpt lat="44.230740" lon="4.779194">
        <ele>169.361278</ele>
        <time>2017-06-07T08:00:59.000Z</time>
      </trkpt>
      <trkpt lat="44.230710" lon="4.779335">
        <ele>169.412948</ele>
        <time>2017-06-07T08:01:01.000Z</time>
      </trkpt>
      <trkpt lat="44.230682" lon="4.779469">
        <ele>169.461983</ele>
        <time>2017-06-07T08:01:03.000Z</time>
      </trkpt>
      <trkpt lat="44.230650" lon="4.779594">
        <ele>169.508614</ele>
        <time>2017-06-07T08:01:05.000Z</time>
      </trkpt>
      <trkpt lat="44.230620" lon="4.779728">
        <ele>169.557932</ele>
        <time>2017-06-07T08:01:07.000Z</time>
      </trkpt>
      <trkpt lat="44.230595" lon="4.779871">
        <ele>169.609641</ele>
        <time>2017-06-07T08:01:09.000Z</time>
      </trkpt>
      <trkpt lat="44.230580" lon="4.780016">
        <ele>169.661108</ele>
        <time>2017-06-07T08:01:11.000Z</time>
      </trkpt>
      <trkpt lat="44.230618" lon="4.780163">
        <ele>169.716006</ele>
        <time>2017-06-07T08:01:13.000Z</time>
      </trkpt>
      <trkpt lat="44.230675" lon="4.780304">
        <ele>169.772879</ele>
        <time>2017-06-07T08:01:15.000Z</time>
      </trkpt>
      <trkpt lat="44.230720" lon="4.780447">
        <ele>169.827746</ele>
        <time>2017-06-07T08:01:17.000Z</time>
      </trkpt>
      <trkpt lat="44.230743" lon="4.780600">
        <ele>169.882664</ele>
        <time>2017-06-07T08:01:19.000Z</time>
      </trkpt>
      <trkpt lat="44.230747" lon="4.780742">
        <ele>169.932587</ele>
        <time>2017-06-07T08:01:21.000Z</time>
      </trkpt>
      <trkpt lat="44.230747" lon="4.780901">
        <ele>169.988443</ele>
        <time>2017-06-07T08:01:23.000Z</time>
      </trkpt>
      <trkpt lat="44.230736" lon="4.781056">
        <ele>170.043161</ele>
        <time>2017-06-07T08:01:25.000Z</time>
      </trkpt>
      <trkpt lat="44.230724" lon="4.781209">
        <ele>170.097231</ele>
        <time>2017-06-07T08:01:27.000Z</time>
      </trkpt>
      <trkpt lat="44.230720" lon="4.781359">
        <ele>170.149962</ele>
        <time>2017-06-07T08:01:29.000Z</time>
      </trkpt>
      <trkpt lat="44.230713" lon="4.781512">
        <ele>170.200633</ele>
        <time>2017-06-07T08:01:31.000Z</time>
      </trkpt>
      <trkpt lat="44.230717" lon="4.781667">
        <ele>170.250482</ele>
        <time>2017-06-07T08:01:33.000Z</time>
      </trkpt>
      <trkpt lat="44.230724" lon="4.781823">
        <ele>170.300719</ele>
        <time>2017-06-07T08:01:35.000Z</time>
      </trkpt>
      <trkpt lat="44.230730" lon="4.781976">
        <ele>170.349966</ele>
        <time>2017-06-07T08:01:37.000Z</time>
      </trkpt>
      <trkpt lat="44.230736" lon="4.782130">
        <ele>170.399535</ele>
        <time>2017-06-07T08:01:39.000Z</time>
      </trkpt>
      <trkpt lat="44.230743" lon="4.782290">
        <ele>170.451054</ele>
        <time>2017-06-07T08:01:41.000Z</time>
      </trkpt>
      <trkpt lat="44.230750" lon="4.782452">
        <ele>170.503216</ele>
        <time>2017-06-07T08:01:43.000Z</time>
      </trkpt>
      <trkpt lat="44.230762" lon="4.782607">
        <ele>170.553322</ele>
        <time>2017-06-07T08:01:45.000Z</time>
      </trkpt>
      <trkpt lat="44.230770" lon="4.782758">
        <ele>170.601986</ele>
        <time>2017-06-07T08:01:47.000Z</time>
      </trkpt>
      <trkpt lat="44.230780" lon="4.782902">
        <ele>170.648484</ele>
        <time>2017-06-07T08:01:49.000Z</time>
      </trkpt>
      <trkpt lat="44.230797" lon="4.783044">
        <ele>170.694755</ele>
        <time>2017-06-07T08:01:51.000Z</time>
      </trkpt>
      <trkpt lat="44.230804" lon="4.783184">
        <ele>170.739860</ele>
        <time>2017-06-07T08:01:53.000Z</time>
      </trkpt>
      <trkpt lat="44.230820" lon="4.783326">
        <ele>170.786060</ele>
        <time>2017-06-07T08:01:55.000Z</time>
      </trkpt>
      <trkpt lat="44.230830" lon="4.783462">
        <ele>170.830000</ele>
        <time>2017-06-07T08:01:57.000Z</time>
      </trkpt>
      <trkpt lat="44.230846" lon="4.783602">
        <ele>170.875564</ele>
        <time>2017-06-07T08:01:59.000Z</time>
      </trkpt>
      <trkpt lat="44.230850" lon="4.783747">
        <ele>170.922201</ele>
        <time>2017-06-07T08:02:01.000Z</time>
      </trkpt>
      <trkpt lat="44.230858" lon="4.783886">
        <ele>170.967019</ele>
        <time>2017-06-07T08:02:03.000Z</time>
      </trkpt>
      <trkpt lat="44.230860" lon="4.784026">
        <ele>171.030845</ele>
        <time>2017-06-07T08:02:05.000Z</time>
      </trkpt>
      <trkpt lat="44.230865" lon="4.784165">
        <ele>171.097232</ele>
        <time>2017-06-07T08:02:07.000Z</time>
      </trkpt>
      <trkpt lat="44.230870" lon="4.784308">
        <ele>171.165525</ele>
        <time>2017-06-07T08:02:09.000Z</time>
      </trkpt>
      <trkpt lat="44.230873" lon="4.784450">
        <ele>171.233289</ele>
        <time>2017-06-07T08:02:11.000Z</time>
      </trkpt>
      <trkpt lat="44.230877" lon="4.784593">
        <ele>171.301553</ele>
        <time>2017-06-07T08:02:13.000Z</time>
      </trkpt>
      <trkpt lat="44.230877" lon="4.784730">
        <ele>171.366903</ele>
        <time>2017-06-07T08:02:15.000Z</time>
      </trkpt>
      <trkpt lat="44.230877" lon="4.784872">
        <ele>171.434638</ele>
        <time>2017-06-07T08:02:17.000Z</time>
      </trkpt>
      <trkpt lat="44.230877" lon="4.785009">
        <ele>171.499988</ele>
        <time>2017-06-07T08:02:19.000Z</time>
      </trkpt>
      <trkpt lat="44.230885" lon="4.785142">
        <ele>171.563653</ele>
        <time>2017-06-07T08:02:21.000Z</time>
      </trkpt>
      <trkpt lat="44.230890" lon="4.785281">
        <ele>171.630040</ele>
        <time>2017-06-07T08:02:23.000Z</time>
      </trkpt>
      <trkpt lat="44.230892" lon="4.785417">
        <ele>171.694926</ele>
        <time>2017-06-07T08:02:25.000Z</time>
      </trkpt>
      <trkpt lat="44.230896" lon="4.785552">
        <ele>171.759377</ele>
        <time>2017-06-07T08:02:27.000Z</time>
      </trkpt>
      <trkpt lat="44.230900" lon="4.785688">
        <ele>171.824305</ele>
        <time>2017-06-07T08:02:29.000Z</time>
      </trkpt>
      <trkpt lat="44.230907" lon="4.785825">
        <ele>171.889820</ele>
        <time>2017-06-07T08:02:31.000Z</time>
      </trkpt>
      <trkpt lat="44.230910" lon="4.785963">
        <ele>171.955677</ele>
        <time>2017-06-07T08:02:33.000Z</time>
      </trkpt>
      <trkpt lat="44.230915" lon="4.786097">
        <ele>172.019683</ele>
        <time>2017-06-07T08:02:35.000Z</time>
      </trkpt>
      <trkpt lat="44.230923" lon="4.786233">
        <ele>172.084774</ele>
        <time>2017-06-07T08:02:37.000Z</time>
      </trkpt>
      <trkpt lat="44.230930" lon="4.786374">
        <ele>172.152193</ele>
        <time>2017-06-07T08:02:39.000Z</time>
      </trkpt>
      <trkpt lat="44.230940" lon="4.786515">
        <ele>172.105767</ele>
        <time>2017-06-07T08:02:41.000Z</time>
      </trkpt>
      <trkpt lat="44.230953" lon="4.786661">
        <ele>172.013482</ele>
        <time>2017-06-07T08:02:43.000Z</time>
      </trkpt>
      <trkpt lat="44.230965" lon="4.786802">
        <ele>171.924417</ele>
        <time>2017-06-07T08:02:45.000Z</time>
      </trkpt>
      <trkpt lat="44.230976" lon="4.786948">
        <ele>171.832331</ele>
        <time>2017-06-07T08:02:47.000Z</time>
      </trkpt>
      <trkpt lat="44.230988" lon="4.787088">
        <ele>171.743889</ele>
        <time>2017-06-07T08:02:49.000Z</time>
      </trkpt>
      <trkpt lat="44.231000" lon="4.787225">
        <ele>171.657314</ele>
        <time>2017-06-07T08:02:51.000Z</time>
      </trkpt>
      <trkpt lat="44.231014" lon="4.787365">
        <ele>171.568646</ele>
        <time>2017-06-07T08:02:53.000Z</time>
      </trkpt>
      <trkpt lat="44.231026" lon="4.787502">
        <ele>171.482072</ele>
        <time>2017-06-07T08:02:55.000Z</time>
      </trkpt>
      <trkpt lat="44.231037" lon="4.787638">
        <ele>171.396222</ele>
        <time>2017-06-07T08:02:57.000Z</time>
      </trkpt>
      <trkpt lat="44.231037" lon="4.787774">
        <ele>171.310915</ele>
        <time>2017-06-07T08:02:59.000Z</time>
      </trkpt>
      <trkpt lat="44.231050" lon="4.787919">
        <ele>171.219253</ele>
        <time>2017-06-07T08:03:01.000Z</time>
      </trkpt>
      <trkpt lat="44.231050" lon="4.788062">
        <ele>171.129554</ele>
        <time>2017-06-07T08:03:03.000Z</time>
      </trkpt>
      <trkpt lat="44.231056" lon="4.788205">
        <ele>171.039702</ele>
        <time>2017-06-07T08:03:05.000Z</time>
      </trkpt>
      <trkpt lat="44.231070" lon="4.788343">
        <ele>170.952277</ele>
        <time>2017-06-07T08:03:07.000Z</time>
      </trkpt>
      <trkpt lat="44.231094" lon="4.788480">
        <ele>170.863811</ele>
        <time>2017-06-07T08:03:09.000Z</time>
      </trkpt>
      <trkpt lat="44.231117" lon="4.788619">
        <ele>170.774328</ele>
        <time>2017-06-07T08:03:11.000Z</time>
      </trkpt>
      <trkpt lat="44.231148" lon="4.788764">
        <ele>170.679413</ele>
        <time>2017-06-07T08:03:13.000Z</time>
      </trkpt>
      <trkpt lat="44.231174" lon="4.788909">
        <ele>170.599696</ele>
        <time>2017-06-07T08:03:15.000Z</time>
      </trkpt>
      <trkpt lat="44.231210" lon="4.789049">
        <ele>170.633326</ele>
        <time>2017-06-07T08:03:17.000Z</time>
      </trkpt>
      <trkpt lat="44.231236" lon="4.789184">
        <ele>170.664932</ele>
        <time>2017-06-07T08:03:19.000Z</time>
      </trkpt>
      <trkpt lat="44.231266" lon="4.789321">
        <ele>170.697322</ele>
        <time>2017-06-07T08:03:21.000Z</time>
      </trkpt>
      <trkpt lat="44.231293" lon="4.789459">
        <ele>170.729665</ele>
        <time>2017-06-07T08:03:23.000Z</time>
      </trkpt>
      <trkpt lat="44.231323" lon="4.789598">
        <ele>170.762487</ele>
        <time>2017-06-07T08:03:25.000Z</time>
      </trkpt>
      <trkpt lat="44.231350" lon="4.789736">
        <ele>170.794830</ele>
        <time>2017-06-07T08:03:27.000Z</time>
      </trkpt>
      <trkpt lat="44.231384" lon="4.789866">
        <ele>170.826119</ele>
        <time>2017-06-07T08:03:29.000Z</time>
      </trkpt>
      <trkpt lat="44.231407" lon="4.790002">
        <ele>170.857713</ele>
        <time>2017-06-07T08:03:31.000Z</time>
      </trkpt>
      <trkpt lat="44.231438" lon="4.790124">
        <ele>170.886980</ele>
        <time>2017-06-07T08:03:33.000Z</time>
      </trkpt>
      <trkpt lat="44.231460" lon="4.790254">
        <ele>170.917181</ele>
        <time>2017-06-07T08:03:35.000Z</time>
      </trkpt>
      <trkpt lat="44.231487" lon="4.790393">
        <ele>170.949742</ele>
        <time>2017-06-07T08:03:37.000Z</time>
      </trkpt>
      <trkpt lat="44.231520" lon="4.790531">
        <ele>170.982635</ele>
        <time>2017-06-07T08:03:39.000Z</time>
      </trkpt>
      <trkpt lat="44.231550" lon="4.790668">
        <ele>171.015024</ele>
        <time>2017-06-07T08:03:41.000Z</time>
      </trkpt>
      <trkpt lat="44.231570" lon="4.790799">
        <ele>171.045307</ele>
        <time>2017-06-07T08:03:43.000Z</time>
      </trkpt>
      <trkpt lat="44.231600" lon="4.790932">
        <ele>171.076832</ele>
        <time>2017-06-07T08:03:45.000Z</time>
      </trkpt>
      <trkpt lat="44.231632" lon="4.791067">
        <ele>171.108982</ele>
        <time>2017-06-07T08:03:47.000Z</time>
      </trkpt>
      <trkpt lat="44.231678" lon="4.791191">
        <ele>171.140552</ele>
        <time>2017-06-07T08:03:49.000Z</time>
      </trkpt>
      <trkpt lat="44.231724" lon="4.791321">
        <ele>171.206099</ele>
        <time>2017-06-07T08:03:51.000Z</time>
      </trkpt>
      <trkpt lat="44.231777" lon="4.791445">
        <ele>171.347783</ele>
        <time>2017-06-07T08:03:53.000Z</time>
      </trkpt>
      <trkpt lat="44.231830" lon="4.791568">
        <ele>171.488624</ele>
        <time>2017-06-07T08:03:55.000Z</time>
      </trkpt>
      <trkpt lat="44.231880" lon="4.791687">
        <ele>171.623993</ele>
        <time>2017-06-07T08:03:57.000Z</time>
      </trkpt>
      <trkpt lat="44.231937" lon="4.791799">
        <ele>171.758798</ele>
        <time>2017-06-07T08:03:59.000Z</time>
      </trkpt>
      <trkpt lat="44.231987" lon="4.791914">
        <ele>171.890795</ele>
        <time>2017-06-07T08:04:01.000Z</time>
      </trkpt>
      <trkpt lat="44.232037" lon="4.792033">
        <ele>172.026163</ele>
        <time>2017-06-07T08:04:03.000Z</time>
      </trkpt>
      <trkpt lat="44.232098" lon="4.792150">
        <ele>172.168150</ele>
        <time>2017-06-07T08:04:05.000Z</time>
      </trkpt>
      <trkpt lat="44.232150" lon="4.792270">
        <ele>172.305763</ele>
        <time>2017-06-07T08:04:07.000Z</time>
      </trkpt>
      <trkpt lat="44.232204" lon="4.792389">
        <ele>172.443982</ele>
        <time>2017-06-07T08:04:09.000Z</time>
      </trkpt>
      <trkpt lat="44.232254" lon="4.792513">
        <ele>172.583605</ele>
        <time>2017-06-07T08:04:11.000Z</time>
      </trkpt>
      <trkpt lat="44.232300" lon="4.792634">
        <ele>172.718016</ele>
        <time>2017-06-07T08:04:13.000Z</time>
      </trkpt>
      <trkpt lat="44.232353" lon="4.792758">
        <ele>172.859699</ele>
        <time>2017-06-07T08:04:15.000Z</time>
      </trkpt>
      <trkpt lat="44.232414" lon="4.792869">
        <ele>172.996967</ele>
        <time>2017-06-07T08:04:17.000Z</time>
      </trkpt>
      <trkpt lat="44.232480" lon="4.792987">
        <ele>173.143859</ele>
        <time>2017-06-07T08:04:19.000Z</time>
      </trkpt>
      <trkpt lat="44.232548" lon="4.793092">
        <ele>173.282742</ele>
        <time>2017-06-07T08:04:21.000Z</time>
      </trkpt>
      <trkpt lat="44.232613" lon="4.793195">
        <ele>173.417425</ele>
        <time>2017-06-07T08:04:23.000Z</time>
      </trkpt>
      <trkpt lat="44.232677" lon="4.793310">
        <ele>173.560310</ele>
        <time>2017-06-07T08:04:25.000Z</time>
      </trkpt>
      <trkpt lat="44.232740" lon="4.793427">
        <ele>173.781731</ele>
        <time>2017-06-07T08:04:27.000Z</time>
      </trkpt>
      <trkpt lat="44.232807" lon="4.793536">
        <ele>174.064772</ele>
        <time>2017-06-07T08:04:29.000Z</time>
      </trkpt>
      <trkpt lat="44.232872" lon="4.793636">
        <ele>174.330871</ele>
        <time>2017-06-07T08:04:31.000Z</time>
      </trkpt>
      <trkpt lat="44.232930" lon="4.793741">
        <ele>174.592166</ele>
        <time>2017-06-07T08:04:33.000Z</time>
      </trkpt>
      <trkpt lat="44.232983" lon="4.793846">
        <ele>174.845299</ele>
        <time>2017-06-07T08:04:35.000Z</time>
      </trkpt>
      <trkpt lat="44.233055" lon="4.793973">
        <ele>175.164471</ele>
        <time>2017-06-07T08:04:38.000Z</time>
      </trkpt>
      <trkpt lat="44.233120" lon="4.794096">
        <ele>175.465685</ele>
        <time>2017-06-07T08:04:42.000Z</time>
      </trkpt>
      <trkpt lat="44.233017" lon="4.794079">
        <ele>175.750973</ele>
        <time>2017-06-07T08:04:51.000Z</time>
      </trkpt>
      <trkpt lat="44.232925" lon="4.794015">
        <ele>176.033723</ele>
        <time>2017-06-07T08:04:56.000Z</time>
      </trkpt>
      <trkpt lat="44.232853" lon="4.793917">
        <ele>176.310357</ele>
        <time>2017-06-07T08:05:02.000Z</time>
      </trkpt>
      <trkpt lat="44.232773" lon="4.793847">
        <ele>176.570077</ele>
        <time>2017-06-07T08:05:09.000Z</time>
      </trkpt>
      <trkpt lat="44.232677" lon="4.793786">
        <ele>176.860216</ele>
        <time>2017-06-07T08:05:14.000Z</time>
      </trkpt>
      <trkpt lat="44.232590" lon="4.793723">
        <ele>177.129814</ele>
        <time>2017-06-07T08:05:18.000Z</time>
      </trkpt>
      <trkpt lat="44.232494" lon="4.793631">
        <ele>177.450133</ele>
        <time>2017-06-07T08:05:22.000Z</time>
      </trkpt>
      <trkpt lat="44.232403" lon="4.793539">
        <ele>177.759212</ele>
        <time>2017-06-07T08:05:26.000Z</time>
      </trkpt>
      <trkpt lat="44.232304" lon="4.793451">
        <ele>178.082064</ele>
        <time>2017-06-07T08:05:30.000Z</time>
      </trkpt>
      <trkpt lat="44.232227" lon="4.793378">
        <ele>178.338107</ele>
        <time>2017-06-07T08:05:33.000Z</time>
      </trkpt>
      <trkpt lat="44.232150" lon="4.793306">
        <ele>178.588489</ele>
        <time>2017-06-07T08:05:36.000Z</time>
      </trkpt>
      <trkpt lat="44.232060" lon="4.793251">
        <ele>178.793523</ele>
        <time>2017-06-07T08:05:40.000Z</time>
      </trkpt>
      <trkpt lat="44.231960" lon="4.793194">
        <ele>179.018944</ele>
        <time>2017-06-07T08:05:44.000Z</time>
      </trkpt>
      <trkpt lat="44.231880" lon="4.793146">
        <ele>179.200668</ele>
        <time>2017-06-07T08:05:47.000Z</time>
      </trkpt>
      <trkpt lat="44.231785" lon="4.793116">
        <ele>179.403932</ele>
        <time>2017-06-07T08:05:50.000Z</time>
      </trkpt>
      <trkpt lat="44.231686" lon="4.793112">
        <ele>179.610619</ele>
        <time>2017-06-07T08:05:54.000Z</time>
      </trkpt>
      <trkpt lat="44.231586" lon="4.793105">
        <ele>179.819568</ele>
        <time>2017-06-07T08:06:00.000Z</time>
      </trkpt>
      <trkpt lat="44.231483" lon="4.793054">
        <ele>180.047643</ele>
        <time>2017-06-07T08:06:04.000Z</time>
      </trkpt>
      <trkpt lat="44.231380" lon="4.793019">
        <ele>180.268870</ele>
        <time>2017-06-07T08:06:08.000Z</time>
      </trkpt>
      <trkpt lat="44.231285" lon="4.793014">
        <ele>180.467263</ele>
        <time>2017-06-07T08:06:11.000Z</time>
      </trkpt>
      <trkpt lat="44.231150" lon="4.792975">
        <ele>180.754963</ele>
        <time>2017-06-07T08:06:14.000Z</time>
      </trkpt>
      <trkpt lat="44.231060" lon="4.792952">
        <ele>180.945904</ele>
        <time>2017-06-07T08:06:16.000Z</time>
      </trkpt>
      <trkpt lat="44.230953" lon="4.792903">
        <ele>181.180913</ele>
        <time>2017-06-07T08:06:19.000Z</time>
      </trkpt>
      <trkpt lat="44.230870" lon="4.792839">
        <ele>181.378802</ele>
        <time>2017-06-07T08:06:22.000Z</time>
      </trkpt>
      <trkpt lat="44.230766" lon="4.792761">
        <ele>181.625192</ele>
        <time>2017-06-07T08:06:26.000Z</time>
      </trkpt>
      <trkpt lat="44.230663" lon="4.792678">
        <ele>181.873397</ele>
        <time>2017-06-07T08:06:30.000Z</time>
      </trkpt>
      <trkpt lat="44.230583" lon="4.792601">
        <ele>182.076201</ele>
        <time>2017-06-07T08:06:33.000Z</time>
      </trkpt>
      <trkpt lat="44.230500" lon="4.792522">
        <ele>182.285859</ele>
        <time>2017-06-07T08:06:36.000Z</time>
      </trkpt>
      <trkpt lat="44.230442" lon="4.792427">
        <ele>182.504461</ele>
        <time>2017-06-07T08:06:39.000Z</time>
      </trkpt>
      <trkpt lat="44.230362" lon="4.792345">
        <ele>182.757342</ele>
        <time>2017-06-07T08:06:43.000Z</time>
      </trkpt>
      <trkpt lat="44.230270" lon="4.792276">
        <ele>183.023431</ele>
        <time>2017-06-07T08:06:47.000Z</time>
      </trkpt>
      <trkpt lat="44.230164" lon="4.792244">
        <ele>183.299732</ele>
        <time>2017-06-07T08:06:51.000Z</time>
      </trkpt>
      <trkpt lat="44.230072" lon="4.792219">
        <ele>183.538521</ele>
        <time>2017-06-07T08:06:55.000Z</time>
      </trkpt>
      <trkpt lat="44.229973" lon="4.792171">
        <ele>183.805530</ele>
        <time>2017-06-07T08:06:59.000Z</time>
      </trkpt>
      <trkpt lat="44.229860" lon="4.792110">
        <ele>184.114205</ele>
        <time>2017-06-07T08:07:03.000Z</time>
      </trkpt>
      <trkpt lat="44.229767" lon="4.792049">
        <ele>184.376004</ele>
        <time>2017-06-07T08:07:06.000Z</time>
      </trkpt>
      <trkpt lat="44.229683" lon="4.791987">
        <ele>184.618097</ele>
        <time>2017-06-07T08:07:09.000Z</time>
      </trkpt>
      <trkpt lat="44.229590" lon="4.791887">
        <ele>184.917202</ele>
        <time>2017-06-07T08:07:13.000Z</time>
      </trkpt>
      <trkpt lat="44.229504" lon="4.791784">
        <ele>185.205925</ele>
        <time>2017-06-07T08:07:17.000Z</time>
      </trkpt>
      <trkpt lat="44.229440" lon="4.791693">
        <ele>185.438699</ele>
        <time>2017-06-07T08:07:21.000Z</time>
      </trkpt>
      <trkpt lat="44.229374" lon="4.791576">
        <ele>185.710533</ele>
        <time>2017-06-07T08:07:26.000Z</time>
      </trkpt>
      <trkpt lat="44.229324" lon="4.791455">
        <ele>185.965524</ele>
        <time>2017-06-07T08:07:29.000Z</time>
      </trkpt>
      <trkpt lat="44.229305" lon="4.791326">
        <ele>186.205944</ele>
        <time>2017-06-07T08:07:31.000Z</time>
      </trkpt>
      <trkpt lat="44.229282" lon="4.791174">
        <ele>186.489547</ele>
        <time>2017-06-07T08:07:33.000Z</time>
      </trkpt>
      <trkpt lat="44.229233" lon="4.791060">
        <ele>186.732231</ele>
        <time>2017-06-07T08:07:35.000Z</time>
      </trkpt>
      <trkpt lat="44.229206" lon="4.790930">
        <ele>186.957138</ele>
        <time>2017-06-07T08:07:37.000Z</time>
      </trkpt>
      <trkpt lat="44.229137" lon="4.790803">
        <ele>187.154895</ele>
        <time>2017-06-07T08:07:40.000Z</time>
      </trkpt>
      <trkpt lat="44.229060" lon="4.790647">
        <ele>187.389939</ele>
        <time>2017-06-07T08:07:43.000Z</time>
      </trkpt>
      <trkpt lat="44.229008" lon="4.790538">
        <ele>187.552419</ele>
        <time>2017-06-07T08:07:45.000Z</time>
      </trkpt>
      <trkpt lat="44.228947" lon="4.790421">
        <ele>187.731955</ele>
        <time>2017-06-07T08:07:47.000Z</time>
      </trkpt>
      <trkpt lat="44.228893" lon="4.790300">
        <ele>187.908830</ele>
        <time>2017-06-07T08:07:49.000Z</time>
      </trkpt>
      <trkpt lat="44.228798" lon="4.790165">
        <ele>188.143608</ele>
        <time>2017-06-07T08:07:52.000Z</time>
      </trkpt>
      <trkpt lat="44.228720" lon="4.790085">
        <ele>188.311228</ele>
        <time>2017-06-07T08:07:54.000Z</time>
      </trkpt>
      <trkpt lat="44.228630" lon="4.789962">
        <ele>188.529358</ele>
        <time>2017-06-07T08:07:57.000Z</time>
      </trkpt>
      <trkpt lat="44.228560" lon="4.789835">
        <ele>188.728167</ele>
        <time>2017-06-07T08:08:00.000Z</time>
      </trkpt>
      <trkpt lat="44.228497" lon="4.789737">
        <ele>188.891530</ele>
        <time>2017-06-07T08:08:03.000Z</time>
      </trkpt>
      <trkpt lat="44.228436" lon="4.789634">
        <ele>189.057335</ele>
        <time>2017-06-07T08:08:06.000Z</time>
      </trkpt>
      <trkpt lat="44.228367" lon="4.789527">
        <ele>189.235949</ele>
        <time>2017-06-07T08:08:09.000Z</time>
      </trkpt>
      <trkpt lat="44.228294" lon="4.789422">
        <ele>189.417480</ele>
        <time>2017-06-07T08:08:12.000Z</time>
      </trkpt>
      <trkpt lat="44.228220" lon="4.789318">
        <ele>189.599338</ele>
        <time>2017-06-07T08:08:15.000Z</time>
      </trkpt>
      <trkpt lat="44.228153" lon="4.789225">
        <ele>189.762974</ele>
        <time>2017-06-07T08:08:18.000Z</time>
      </trkpt>
      <trkpt lat="44.228080" lon="4.789137">
        <ele>189.930013</ele>
        <time>2017-06-07T08:08:21.000Z</time>
      </trkpt>
      <trkpt lat="44.227990" lon="4.789058">
        <ele>189.888155</ele>
        <time>2017-06-07T08:08:24.000Z</time>
      </trkpt>
      <trkpt lat="44.227917" lon="4.788971">
        <ele>189.634659</ele>
        <time>2017-06-07T08:08:27.000Z</time>
      </trkpt>
      <trkpt lat="44.227840" lon="4.788892">
        <ele>189.382291</ele>
        <time>2017-06-07T08:08:30.000Z</time>
      </trkpt>
      <trkpt lat="44.227753" lon="4.788842">
        <ele>189.133834</ele>
        <time>2017-06-07T08:08:34.000Z</time>
      </trkpt>
      <trkpt lat="44.227657" lon="4.788797">
        <ele>188.866412</ele>
        <time>2017-06-07T08:08:39.000Z</time>
      </trkpt>
      <trkpt lat="44.227554" lon="4.788771">
        <ele>188.590010</ele>
        <time>2017-06-07T08:08:45.000Z</time>
      </trkpt>
      <trkpt lat="44.227450" lon="4.788766">
        <ele>188.315218</ele>
        <time>2017-06-07T08:08:51.000Z</time>
      </trkpt>
      <trkpt lat="44.227350" lon="4.788766">
        <ele>188.051152</ele>
        <time>2017-06-07T08:08:58.000Z</time>
      </trkpt>
      <trkpt lat="44.227177" lon="4.788707">
        <ele>187.580873</ele>
        <time>2017-06-07T08:09:36.000Z</time>
      </trkpt>
      <trkpt lat="44.227070" lon="4.788672">
        <ele>187.290664</ele>
        <time>2017-06-07T08:09:38.000Z</time>
      </trkpt>
      <trkpt lat="44.226960" lon="4.788619">
        <ele>186.983366</ele>
        <time>2017-06-07T08:09:40.000Z</time>
      </trkpt>
      <trkpt lat="44.226850" lon="4.788560">
        <ele>186.672176</ele>
        <time>2017-06-07T08:09:42.000Z</time>
      </trkpt>
      <trkpt lat="44.226738" lon="4.788508">
        <ele>186.360483</ele>
        <time>2017-06-07T08:09:44.000Z</time>
      </trkpt>
      <trkpt lat="44.226620" lon="4.788454">
        <ele>186.032559</ele>
        <time>2017-06-07T08:09:46.000Z</time>
      </trkpt>
      <trkpt lat="44.226490" lon="4.788401">
        <ele>185.674923</ele>
        <time>2017-06-07T08:09:48.000Z</time>
      </trkpt>
      <trkpt lat="44.226360" lon="4.788322">
        <ele>185.300500</ele>
        <time>2017-06-07T08:09:50.000Z</time>
      </trkpt>
      <trkpt lat="44.226215" lon="4.788249">
        <ele>184.670954</ele>
        <time>2017-06-07T08:09:52.000Z</time>
      </trkpt>
      <trkpt lat="44.226093" lon="4.788169">
        <ele>184.107441</ele>
        <time>2017-06-07T08:09:54.000Z</time>
      </trkpt>
      <trkpt lat="44.226010" lon="4.788025">
        <ele>183.553837</ele>
        <time>2017-06-07T08:09:56.000Z</time>
      </trkpt>
      <trkpt lat="44.225930" lon="4.787851">
        <ele>182.934526</ele>
        <time>2017-06-07T08:09:58.000Z</time>
      </trkpt>
      <trkpt lat="44.225822" lon="4.787674">
        <ele>182.238114</ele>
        <time>2017-06-07T08:10:00.000Z</time>
      </trkpt>
      <trkpt lat="44.225742" lon="4.787487">
        <ele>181.585686</ele>
        <time>2017-06-07T08:10:02.000Z</time>
      </trkpt>
      <trkpt lat="44.225716" lon="4.787270">
        <ele>180.926598</ele>
        <time>2017-06-07T08:10:04.000Z</time>
      </trkpt>
      <trkpt lat="44.225727" lon="4.787058">
        <ele>180.289849</ele>
        <time>2017-06-07T08:10:06.000Z</time>
      </trkpt>
      <trkpt lat="44.225750" lon="4.786861">
        <ele>179.691918</ele>
        <time>2017-06-07T08:10:08.000Z</time>
      </trkpt>
      <trkpt lat="44.225758" lon="4.786655">
        <ele>179.073901</ele>
        <time>2017-06-07T08:10:10.000Z</time>
      </trkpt>
      <trkpt lat="44.225735" lon="4.786472">
        <ele>178.517323</ele>
        <time>2017-06-07T08:10:12.000Z</time>
      </trkpt>
      <trkpt lat="44.225685" lon="4.786334">
        <ele>178.054080</ele>
        <time>2017-06-07T08:10:14.000Z</time>
      </trkpt>
      <trkpt lat="44.225580" lon="4.786257">
        <ele>177.531680</ele>
        <time>2017-06-07T08:10:16.000Z</time>
      </trkpt>
      <trkpt lat="44.225407" lon="4.786249">
        <ele>176.710940</ele>
        <time>2017-06-07T08:10:18.000Z</time>
      </trkpt>
      <trkpt lat="44.225304" lon="4.786245">
        <ele>176.222370</ele>
        <time>2017-06-07T08:10:19.000Z</time>
      </trkpt>
      <trkpt lat="44.225204" lon="4.786244">
        <ele>175.748202</ele>
        <time>2017-06-07T08:10:20.000Z</time>
      </trkpt>
      <trkpt lat="44.225030" lon="4.786240">
        <ele>174.923059</ele>
        <time>2017-06-07T08:10:22.000Z</time>
      </trkpt>
      <trkpt lat="44.224865" lon="4.786185">
        <ele>174.118691</ele>
        <time>2017-06-07T08:10:24.000Z</time>
      </trkpt>
      <trkpt lat="44.224728" lon="4.786068">
        <ele>173.357103</ele>
        <time>2017-06-07T08:10:26.000Z</time>
      </trkpt>
      <trkpt lat="44.224663" lon="4.785983">
        <ele>172.934725</ele>
        <time>2017-06-07T08:10:27.000Z</time>
      </trkpt>
      <trkpt lat="44.224533" lon="4.785821">
        <ele>172.108317</ele>
        <time>2017-06-07T08:10:29.000Z</time>
      </trkpt>
      <trkpt lat="44.224407" lon="4.785667">
        <ele>171.314124</ele>
        <time>2017-06-07T08:10:31.000Z</time>
      </trkpt>
      <trkpt lat="44.224277" lon="4.785499">
        <ele>170.473997</ele>
        <time>2017-06-07T08:10:33.000Z</time>
      </trkpt>
      <trkpt lat="44.224213" lon="4.785410">
        <ele>170.045581</ele>
        <time>2017-06-07T08:10:34.000Z</time>
      </trkpt>
      <trkpt lat="44.224090" lon="4.785257">
        <ele>169.264296</ele>
        <time>2017-06-07T08:10:36.000Z</time>
      </trkpt>
      <trkpt lat="44.223965" lon="4.785118">
        <ele>168.560525</ele>
        <time>2017-06-07T08:10:38.000Z</time>
      </trkpt>
      <trkpt lat="44.223840" lon="4.785039">
        <ele>167.958686</ele>
        <time>2017-06-07T08:10:40.000Z</time>
      </trkpt>
      <trkpt lat="44.223732" lon="4.784949">
        <ele>167.406978</ele>
        <time>2017-06-07T08:10:42.000Z</time>
      </trkpt>
      <trkpt lat="44.223675" lon="4.784804">
        <ele>166.887178</ele>
        <time>2017-06-07T08:10:44.000Z</time>
      </trkpt>
      <trkpt lat="44.223648" lon="4.784625">
        <ele>166.312251</ele>
        <time>2017-06-07T08:10:46.000Z</time>
      </trkpt>
      <trkpt lat="44.223625" lon="4.784449">
        <ele>165.749959</ele>
        <time>2017-06-07T08:10:48.000Z</time>
      </trkpt>
      <trkpt lat="44.223620" lon="4.784250">
        <ele>165.124116</ele>
        <time>2017-06-07T08:10:50.000Z</time>
      </trkpt>
      <trkpt lat="44.223625" lon="4.784025">
        <ele>164.416598</ele>
        <time>2017-06-07T08:10:52.000Z</time>
      </trkpt>
      <trkpt lat="44.223637" lon="4.783809">
        <ele>163.735671</ele>
        <time>2017-06-07T08:10:54.000Z</time>
      </trkpt>
      <trkpt lat="44.223630" lon="4.783628">
        <ele>163.165958</ele>
        <time>2017-06-07T08:10:56.000Z</time>
      </trkpt>
      <trkpt lat="44.223557" lon="4.783507">
        <ele>162.668828</ele>
        <time>2017-06-07T08:10:58.000Z</time>
      </trkpt>
      <trkpt lat="44.223450" lon="4.783477">
        <ele>162.190161</ele>
        <time>2017-06-07T08:11:00.000Z</time>
      </trkpt>
      <trkpt lat="44.223330" lon="4.783520">
        <ele>161.646782</ele>
        <time>2017-06-07T08:11:02.000Z</time>
      </trkpt>
      <trkpt lat="44.223206" lon="4.783551">
        <ele>161.145200</ele>
        <time>2017-06-07T08:11:04.000Z</time>
      </trkpt>
      <trkpt lat="44.223076" lon="4.783554">
        <ele>160.693651</ele>
        <time>2017-06-07T08:11:06.000Z</time>
      </trkpt>
      <trkpt lat="44.222946" lon="4.783565">
        <ele>160.241333</ele>
        <time>2017-06-07T08:11:08.000Z</time>
      </trkpt>
      <trkpt lat="44.222813" lon="4.783575">
        <ele>159.778757</ele>
        <time>2017-06-07T08:11:10.000Z</time>
      </trkpt>
      <trkpt lat="44.222687" lon="4.783583">
        <ele>159.340708</ele>
        <time>2017-06-07T08:11:12.000Z</time>
      </trkpt>
      <trkpt lat="44.222565" lon="4.783596">
        <ele>158.915770</ele>
        <time>2017-06-07T08:11:14.000Z</time>
      </trkpt>
      <trkpt lat="44.222443" lon="4.783607">
        <ele>158.491183</ele>
        <time>2017-06-07T08:11:16.000Z</time>
      </trkpt>
      <trkpt lat="44.222317" lon="4.783618">
        <ele>158.052731</ele>
        <time>2017-06-07T08:11:18.000Z</time>
      </trkpt>
      <trkpt lat="44.222200" lon="4.783619">
        <ele>157.646384</ele>
        <time>2017-06-07T08:11:20.000Z</time>
      </trkpt>
      <trkpt lat="44.222084" lon="4.783624">
        <ele>157.243326</ele>
        <time>2017-06-07T08:11:22.000Z</time>
      </trkpt>
      <trkpt lat="44.221985" lon="4.783641">
        <ele>156.896907</ele>
        <time>2017-06-07T08:11:24.000Z</time>
      </trkpt>
      <trkpt lat="44.221893" lon="4.783667">
        <ele>156.570905</ele>
        <time>2017-06-07T08:11:26.000Z</time>
      </trkpt>
      <trkpt lat="44.221790" lon="4.783698">
        <ele>156.204962</ele>
        <time>2017-06-07T08:11:28.000Z</time>
      </trkpt>
      <trkpt lat="44.221680" lon="4.783709">
        <ele>155.821954</ele>
        <time>2017-06-07T08:11:30.000Z</time>
      </trkpt>
      <trkpt lat="44.221573" lon="4.783728">
        <ele>155.447348</ele>
        <time>2017-06-07T08:11:32.000Z</time>
      </trkpt>
      <trkpt lat="44.221474" lon="4.783745">
        <ele>155.100929</ele>
        <time>2017-06-07T08:11:34.000Z</time>
      </trkpt>
      <trkpt lat="44.221348" lon="4.783739">
        <ele>155.235159</ele>
        <time>2017-06-07T08:11:37.000Z</time>
      </trkpt>
      <trkpt lat="44.221233" lon="4.783757">
        <ele>155.368951</ele>
        <time>2017-06-07T08:11:40.000Z</time>
      </trkpt>
      <trkpt lat="44.221130" lon="4.783776">
        <ele>155.489071</ele>
        <time>2017-06-07T08:11:43.000Z</time>
      </trkpt>
      <trkpt lat="44.221050" lon="4.783828">
        <ele>155.591107</ele>
        <time>2017-06-07T08:11:46.000Z</time>
      </trkpt>
      <trkpt lat="44.220963" lon="4.783866">
        <ele>155.696505</ele>
        <time>2017-06-07T08:11:49.000Z</time>
      </trkpt>
      <trkpt lat="44.220875" lon="4.783915">
        <ele>155.806048</ele>
        <time>2017-06-07T08:11:52.000Z</time>
      </trkpt>
      <trkpt lat="44.220787" lon="4.783995">
        <ele>155.927478</ele>
        <time>2017-06-07T08:11:56.000Z</time>
      </trkpt>
      <trkpt lat="44.220690" lon="4.784068">
        <ele>156.054896</ele>
        <time>2017-06-07T08:12:01.000Z</time>
      </trkpt>
      <trkpt lat="44.220590" lon="4.784099">
        <ele>156.173331</ele>
        <time>2017-06-07T08:12:05.000Z</time>
      </trkpt>
      <trkpt lat="44.220497" lon="4.784125">
        <ele>156.282990</ele>
        <time>2017-06-07T08:12:08.000Z</time>
      </trkpt>
      <trkpt lat="44.220387" lon="4.784150">
        <ele>156.411843</ele>
        <time>2017-06-07T08:12:12.000Z</time>
      </trkpt>
      <trkpt lat="44.220287" lon="4.784249">
        <ele>156.553602</ele>
        <time>2017-06-07T08:12:16.000Z</time>
      </trkpt>
      <trkpt lat="44.220210" lon="4.784358">
        <ele>156.680417</ele>
        <time>2017-06-07T08:12:19.000Z</time>
      </trkpt>
      <trkpt lat="44.220123" lon="4.784477">
        <ele>156.821270</ele>
        <time>2017-06-07T08:12:22.000Z</time>
      </trkpt>
      <trkpt lat="44.220016" lon="4.784571">
        <ele>156.967455</ele>
        <time>2017-06-07T08:12:25.000Z</time>
      </trkpt>
      <trkpt lat="44.219906" lon="4.784652">
        <ele>157.111255</ele>
        <time>2017-06-07T08:12:28.000Z</time>
      </trkpt>
      <trkpt lat="44.219790" lon="4.784692">
        <ele>157.343473</ele>
        <time>2017-06-07T08:12:31.000Z</time>
      </trkpt>
      <trkpt lat="44.219680" lon="4.784692">
        <ele>157.624791</ele>
        <time>2017-06-07T08:12:34.000Z</time>
      </trkpt>
      <trkpt lat="44.219563" lon="4.784679">
        <ele>157.924959</ele>
        <time>2017-06-07T08:12:37.000Z</time>
      </trkpt>
      <trkpt lat="44.219450" lon="4.784664">
        <ele>158.215254</ele>
        <time>2017-06-07T08:12:40.000Z</time>
      </trkpt>
      <trkpt lat="44.219340" lon="4.784651">
        <ele>158.497579</ele>
        <time>2017-06-07T08:12:43.000Z</time>
      </trkpt>
      <trkpt lat="44.219215" lon="4.784611">
        <ele>158.825558</ele>
        <time>2017-06-07T08:12:46.000Z</time>
      </trkpt>
      <trkpt lat="44.219086" lon="4.784591">
        <ele>159.157497</ele>
        <time>2017-06-07T08:12:49.000Z</time>
      </trkpt>
      <trkpt lat="44.218990" lon="4.784596">
        <ele>159.403182</ele>
        <time>2017-06-07T08:12:51.000Z</time>
      </trkpt>
      <trkpt lat="44.218895" lon="4.784604">
        <ele>159.646581</ele>
        <time>2017-06-07T08:12:53.000Z</time>
      </trkpt>
      <trkpt lat="44.218800" lon="4.784595">
        <ele>159.890097</ele>
        <time>2017-06-07T08:12:55.000Z</time>
      </trkpt>
      <trkpt lat="44.218708" lon="4.784574">
        <ele>160.128509</ele>
        <time>2017-06-07T08:12:57.000Z</time>
      </trkpt>
      <trkpt lat="44.218616" lon="4.784558">
        <ele>160.365613</ele>
        <time>2017-06-07T08:12:59.000Z</time>
      </trkpt>
      <trkpt lat="44.218525" lon="4.784527">
        <ele>160.605176</ele>
        <time>2017-06-07T08:13:01.000Z</time>
      </trkpt>
      <trkpt lat="44.218430" lon="4.784514">
        <ele>160.849298</ele>
        <time>2017-06-07T08:13:03.000Z</time>
      </trkpt>
      <trkpt lat="44.218334" lon="4.784503">
        <ele>161.095638</ele>
        <time>2017-06-07T08:13:05.000Z</time>
      </trkpt>
      <trkpt lat="44.218240" lon="4.784492">
        <ele>161.336882</ele>
        <time>2017-06-07T08:13:07.000Z</time>
      </trkpt>
      <trkpt lat="44.218140" lon="4.784481">
        <ele>161.593419</ele>
        <time>2017-06-07T08:13:09.000Z</time>
      </trkpt>
      <trkpt lat="44.218044" lon="4.784467">
        <ele>161.750433</ele>
        <time>2017-06-07T08:13:11.000Z</time>
      </trkpt>
      <trkpt lat="44.217940" lon="4.784470">
        <ele>161.667886</ele>
        <time>2017-06-07T08:13:13.000Z</time>
      </trkpt>
      <trkpt lat="44.217842" lon="4.784499">
        <ele>161.588388</ele>
        <time>2017-06-07T08:13:15.000Z</time>
      </trkpt>
      <trkpt lat="44.217750" lon="4.784543">
        <ele>161.511212</ele>
        <time>2017-06-07T08:13:17.000Z</time>
      </trkpt>
      <trkpt lat="44.217667" lon="4.784607">
        <ele>161.435958</ele>
        <time>2017-06-07T08:13:19.000Z</time>
      </trkpt>
      <trkpt lat="44.217590" lon="4.784704">
        <ele>161.353635</ele>
        <time>2017-06-07T08:13:21.000Z</time>
      </trkpt>
      <trkpt lat="44.217537" lon="4.784813">
        <ele>161.278722</ele>
        <time>2017-06-07T08:13:23.000Z</time>
      </trkpt>
      <trkpt lat="44.217500" lon="4.784946">
        <ele>161.197581</ele>
        <time>2017-06-07T08:13:25.000Z</time>
      </trkpt>
      <trkpt lat="44.217460" lon="4.785076">
        <ele>161.117120</ele>
        <time>2017-06-07T08:13:27.000Z</time>
      </trkpt>
      <trkpt lat="44.217422" lon="4.785191">
        <ele>161.045098</ele>
        <time>2017-06-07T08:13:29.000Z</time>
      </trkpt>
      <trkpt lat="44.217380" lon="4.785317">
        <ele>160.966065</ele>
        <time>2017-06-07T08:13:31.000Z</time>
      </trkpt>
      <trkpt lat="44.217340" lon="4.785448">
        <ele>160.885081</ele>
        <time>2017-06-07T08:13:33.000Z</time>
      </trkpt>
      <trkpt lat="44.217293" lon="4.785569">
        <ele>160.806806</ele>
        <time>2017-06-07T08:13:35.000Z</time>
      </trkpt>
      <trkpt lat="44.217240" lon="4.785705">
        <ele>160.718762</ele>
        <time>2017-06-07T08:13:37.000Z</time>
      </trkpt>
      <trkpt lat="44.217190" lon="4.785851">
        <ele>160.626733</ele>
        <time>2017-06-07T08:13:39.000Z</time>
      </trkpt>
      <trkpt lat="44.217144" lon="4.786002">
        <ele>160.533417</ele>
        <time>2017-06-07T08:13:41.000Z</time>
      </trkpt>
      <trkpt lat="44.217094" lon="4.786146">
        <ele>160.442413</ele>
        <time>2017-06-07T08:13:43.000Z</time>
      </trkpt>
      <trkpt lat="44.217037" lon="4.786293">
        <ele>160.347357</ele>
        <time>2017-06-07T08:13:45.000Z</time>
      </trkpt>
      <trkpt lat="44.216984" lon="4.786436">
        <ele>160.026216</ele>
        <time>2017-06-07T08:13:47.000Z</time>
      </trkpt>
      <trkpt lat="44.216938" lon="4.786577">
        <ele>159.709778</ele>
        <time>2017-06-07T08:13:49.000Z</time>
      </trkpt>
      <trkpt lat="44.216890" lon="4.786731">
        <ele>159.366762</ele>
        <time>2017-06-07T08:13:51.000Z</time>
      </trkpt>
      <trkpt lat="44.216850" lon="4.786881">
        <ele>159.039855</ele>
        <time>2017-06-07T08:13:53.000Z</time>
      </trkpt>
      <trkpt lat="44.216805" lon="4.787031">
        <ele>158.707709</ele>
        <time>2017-06-07T08:13:55.000Z</time>
      </trkpt>
      <trkpt lat="44.216750" lon="4.787209">
        <ele>158.311780</ele>
        <time>2017-06-07T08:13:57.000Z</time>
      </trkpt>
      <trkpt lat="44.216694" lon="4.787371">
        <ele>157.944403</ele>
        <time>2017-06-07T08:13:59.000Z</time>
      </trkpt>
      <trkpt lat="44.216640" lon="4.787531">
        <ele>157.583167</ele>
        <time>2017-06-07T08:14:01.000Z</time>
      </trkpt>
      <trkpt lat="44.216590" lon="4.787685">
        <ele>157.237837</ele>
        <time>2017-06-07T08:14:03.000Z</time>
      </trkpt>
      <trkpt lat="44.216550" lon="4.787825">
        <ele>156.929989</ele>
        <time>2017-06-07T08:14:05.000Z</time>
      </trkpt>
      <trkpt lat="44.216507" lon="4.787966">
        <ele>156.616995</ele>
        <time>2017-06-07T08:14:07.000Z</time>
      </trkpt>
      <trkpt lat="44.216457" lon="4.788095">
        <ele>156.317437</ele>
        <time>2017-06-07T08:14:09.000Z</time>
      </trkpt>
      <trkpt lat="44.216408" lon="4.788231">
        <ele>156.006518</ele>
        <time>2017-06-07T08:14:11.000Z</time>
      </trkpt>
      <trkpt lat="44.216366" lon="4.788372">
        <ele>155.694628</ele>
        <time>2017-06-07T08:14:13.000Z</time>
      </trkpt>
      <trkpt lat="44.216316" lon="4.788518">
        <ele>155.364113</ele>
        <time>2017-06-07T08:14:15.000Z</time>
      </trkpt>
      <trkpt lat="44.216255" lon="4.788658">
        <ele>155.067759</ele>
        <time>2017-06-07T08:14:17.000Z</time>
      </trkpt>
      <trkpt lat="44.216206" lon="4.788806">
        <ele>154.802296</ele>
        <time>2017-06-07T08:14:19.000Z</time>
      </trkpt>
      <trkpt lat="44.216137" lon="4.788952">
        <ele>154.517527</ele>
        <time>2017-06-07T08:14:21.000Z</time>
      </trkpt>
      <trkpt lat="44.216087" lon="4.789107">
        <ele>154.240749</ele>
        <time>2017-06-07T08:14:23.000Z</time>
      </trkpt>
      <trkpt lat="44.216026" lon="4.789269">
        <ele>153.942770</ele>
        <time>2017-06-07T08:14:25.000Z</time>
      </trkpt>
      <trkpt lat="44.215970" lon="4.789439">
        <ele>153.638114</ele>
        <time>2017-06-07T08:14:27.000Z</time>
      </trkpt>
      <trkpt lat="44.215920" lon="4.789617">
        <ele>153.326804</ele>
        <time>2017-06-07T08:14:29.000Z</time>
      </trkpt>
      <trkpt lat="44.215866" lon="4.789788">
        <ele>153.022529</ele>
        <time>2017-06-07T08:14:31.000Z</time>
      </trkpt>
      <trkpt lat="44.215810" lon="4.789955">
        <ele>152.722305</ele>
        <time>2017-06-07T08:14:33.000Z</time>
      </trkpt>
      <trkpt lat="44.215755" lon="4.790134">
        <ele>152.405176</ele>
        <time>2017-06-07T08:14:35.000Z</time>
      </trkpt>
      <trkpt lat="44.215694" lon="4.790311">
        <ele>152.085370</ele>
        <time>2017-06-07T08:14:37.000Z</time>
      </trkpt>
      <trkpt lat="44.215633" lon="4.790510">
        <ele>151.732937</ele>
        <time>2017-06-07T08:14:39.000Z</time>
      </trkpt>
      <trkpt lat="44.215570" lon="4.790705">
        <ele>151.384640</ele>
        <time>2017-06-07T08:14:41.000Z</time>
      </trkpt>
      <trkpt lat="44.215492" lon="4.790901">
        <ele>150.998357</ele>
        <time>2017-06-07T08:14:43.000Z</time>
      </trkpt>
      <trkpt lat="44.215427" lon="4.791108">
        <ele>150.560814</ele>
        <time>2017-06-07T08:14:45.000Z</time>
      </trkpt>
      <trkpt lat="44.215366" lon="4.791337">
        <ele>150.087822</ele>
        <time>2017-06-07T08:14:47.000Z</time>
      </trkpt>
      <trkpt lat="44.215324" lon="4.791459">
        <ele>149.825785</ele>
        <time>2017-06-07T08:14:48.000Z</time>
      </trkpt>
      <trkpt lat="44.215280" lon="4.791577">
        <ele>149.568259</ele>
        <time>2017-06-07T08:14:49.000Z</time>
      </trkpt>
      <trkpt lat="44.215233" lon="4.791692">
        <ele>149.311956</ele>
        <time>2017-06-07T08:14:50.000Z</time>
      </trkpt>
      <trkpt lat="44.215180" lon="4.791810">
        <ele>149.042345</ele>
        <time>2017-06-07T08:14:51.000Z</time>
      </trkpt>
      <trkpt lat="44.215140" lon="4.791935">
        <ele>148.777308</ele>
        <time>2017-06-07T08:14:52.000Z</time>
      </trkpt>
      <trkpt lat="44.215110" lon="4.792054">
        <ele>148.533077</ele>
        <time>2017-06-07T08:14:53.000Z</time>
      </trkpt>
      <trkpt lat="44.215034" lon="4.792265">
        <ele>148.075878</ele>
        <time>2017-06-07T08:14:55.000Z</time>
      </trkpt>
      <trkpt lat="44.214962" lon="4.792460">
        <ele>147.651188</ele>
        <time>2017-06-07T08:14:57.000Z</time>
      </trkpt>
      <trkpt lat="44.214890" lon="4.792642">
        <ele>147.248707</ele>
        <time>2017-06-07T08:14:59.000Z</time>
      </trkpt>
      <trkpt lat="44.214810" lon="4.792801">
        <ele>146.872588</ele>
        <time>2017-06-07T08:15:01.000Z</time>
      </trkpt>
      <trkpt lat="44.214733" lon="4.792942">
        <ele>146.529387</ele>
        <time>2017-06-07T08:15:03.000Z</time>
      </trkpt>
      <trkpt lat="44.214657" lon="4.793080">
        <ele>146.277907</ele>
        <time>2017-06-07T08:15:05.000Z</time>
      </trkpt>
      <trkpt lat="44.214573" lon="4.793198">
        <ele>146.296389</ele>
        <time>2017-06-07T08:15:07.000Z</time>
      </trkpt>
      <trkpt lat="44.214490" lon="4.793306">
        <ele>146.313986</ele>
        <time>2017-06-07T08:15:09.000Z</time>
      </trkpt>
      <trkpt lat="44.214397" lon="4.793413">
        <ele>146.332676</ele>
        <time>2017-06-07T08:15:11.000Z</time>
      </trkpt>
      <trkpt lat="44.214306" lon="4.793521">
        <ele>146.351200</ele>
        <time>2017-06-07T08:15:13.000Z</time>
      </trkpt>
      <trkpt lat="44.214214" lon="4.793631">
        <ele>146.369986</ele>
        <time>2017-06-07T08:15:15.000Z</time>
      </trkpt>
      <trkpt lat="44.214127" lon="4.793739">
        <ele>146.388042</ele>
        <time>2017-06-07T08:15:17.000Z</time>
      </trkpt>
      <trkpt lat="44.214046" lon="4.793846">
        <ele>146.405337</ele>
        <time>2017-06-07T08:15:19.000Z</time>
      </trkpt>
      <trkpt lat="44.213963" lon="4.793953">
        <ele>146.422859</ele>
        <time>2017-06-07T08:15:21.000Z</time>
      </trkpt>
      <trkpt lat="44.213870" lon="4.794056">
        <ele>146.441270</ele>
        <time>2017-06-07T08:15:23.000Z</time>
      </trkpt>
      <trkpt lat="44.213795" lon="4.794159">
        <ele>146.457587</ele>
        <time>2017-06-07T08:15:25.000Z</time>
      </trkpt>
      <trkpt lat="44.213720" lon="4.794249">
        <ele>146.472925</ele>
        <time>2017-06-07T08:15:27.000Z</time>
      </trkpt>
      <trkpt lat="44.213650" lon="4.794334">
        <ele>146.487314</ele>
        <time>2017-06-07T08:15:29.000Z</time>
      </trkpt>
      <trkpt lat="44.213577" lon="4.794461">
        <ele>146.505405</ele>
        <time>2017-06-07T08:15:32.000Z</time>
      </trkpt>
      <trkpt lat="44.213512" lon="4.794586">
        <ele>146.522568</ele>
        <time>2017-06-07T08:15:35.000Z</time>
      </trkpt>
      <trkpt lat="44.213440" lon="4.794702">
        <ele>146.539621</ele>
        <time>2017-06-07T08:15:38.000Z</time>
      </trkpt>
      <trkpt lat="44.213380" lon="4.794831">
        <ele>146.553676</ele>
        <time>2017-06-07T08:15:41.000Z</time>
      </trkpt>
      <trkpt lat="44.213318" lon="4.794949">
        <ele>146.559121</ele>
        <time>2017-06-07T08:15:44.000Z</time>
      </trkpt>
      <trkpt lat="44.213272" lon="4.795059">
        <ele>146.563860</ele>
        <time>2017-06-07T08:15:47.000Z</time>
      </trkpt>
      <trkpt lat="44.213223" lon="4.795201">
        <ele>146.569725</ele>
        <time>2017-06-07T08:15:51.000Z</time>
      </trkpt>
      <trkpt lat="44.213146" lon="4.795318">
        <ele>146.575636</ele>
        <time>2017-06-07T08:15:54.000Z</time>
      </trkpt>
      <trkpt lat="44.213047" lon="4.795435">
        <ele>146.582372</ele>
        <time>2017-06-07T08:15:57.000Z</time>
      </trkpt>
      <trkpt lat="44.212948" lon="4.795549">
        <ele>146.589037</ele>
        <time>2017-06-07T08:16:00.000Z</time>
      </trkpt>
      <trkpt lat="44.212845" lon="4.795659">
        <ele>146.595771</ele>
        <time>2017-06-07T08:16:03.000Z</time>
      </trkpt>
      <trkpt lat="44.212723" lon="4.795763">
        <ele>146.603194</ele>
        <time>2017-06-07T08:16:06.000Z</time>
      </trkpt>
      <trkpt lat="44.212640" lon="4.795832">
        <ele>146.608211</ele>
        <time>2017-06-07T08:16:08.000Z</time>
      </trkpt>
      <trkpt lat="44.212547" lon="4.795890">
        <ele>146.613500</ele>
        <time>2017-06-07T08:16:10.000Z</time>
      </trkpt>
      <trkpt lat="44.212440" lon="4.795940">
        <ele>146.619358</ele>
        <time>2017-06-07T08:16:12.000Z</time>
      </trkpt>
      <trkpt lat="44.212334" lon="4.795993">
        <ele>146.625205</ele>
        <time>2017-06-07T08:16:14.000Z</time>
      </trkpt>
      <trkpt lat="44.212230" lon="4.796026">
        <ele>146.630742</ele>
        <time>2017-06-07T08:16:16.000Z</time>
      </trkpt>
      <trkpt lat="44.212116" lon="4.796067">
        <ele>146.636855</ele>
        <time>2017-06-07T08:16:18.000Z</time>
      </trkpt>
      <trkpt lat="44.212010" lon="4.796112">
        <ele>146.642607</ele>
        <time>2017-06-07T08:16:20.000Z</time>
      </trkpt>
      <trkpt lat="44.211910" lon="4.796169">
        <ele>146.567916</ele>
        <time>2017-06-07T08:16:22.000Z</time>
      </trkpt>
      <trkpt lat="44.211826" lon="4.796246">
        <ele>146.416931</ele>
        <time>2017-06-07T08:16:24.000Z</time>
      </trkpt>
      <trkpt lat="44.211754" lon="4.796357">
        <ele>146.255739</ele>
        <time>2017-06-07T08:16:26.000Z</time>
      </trkpt>
      <trkpt lat="44.211693" lon="4.796487">
        <ele>146.088436</ele>
        <time>2017-06-07T08:16:28.000Z</time>
      </trkpt>
      <trkpt lat="44.211655" lon="4.796635">
        <ele>145.919163</ele>
        <time>2017-06-07T08:16:30.000Z</time>
      </trkpt>
      <trkpt lat="44.211624" lon="4.796791">
        <ele>145.744856</ele>
        <time>2017-06-07T08:16:32.000Z</time>
      </trkpt>
      <trkpt lat="44.211597" lon="4.796956">
        <ele>145.562623</ele>
        <time>2017-06-07T08:16:34.000Z</time>
      </trkpt>
      <trkpt lat="44.211580" lon="4.797125">
        <ele>145.378871</ele>
        <time>2017-06-07T08:16:36.000Z</time>
      </trkpt>
      <trkpt lat="44.211555" lon="4.797283">
        <ele>145.204650</ele>
        <time>2017-06-07T08:16:38.000Z</time>
      </trkpt>
      <trkpt lat="44.211540" lon="4.797440">
        <ele>145.034107</ele>
        <time>2017-06-07T08:16:40.000Z</time>
      </trkpt>
      <trkpt lat="44.211520" lon="4.797586">
        <ele>144.874057</ele>
        <time>2017-06-07T08:16:42.000Z</time>
      </trkpt>
      <trkpt lat="44.211510" lon="4.797723">
        <ele>144.725781</ele>
        <time>2017-06-07T08:16:44.000Z</time>
      </trkpt>
      <trkpt lat="44.211487" lon="4.797906">
        <ele>144.525731</ele>
        <time>2017-06-07T08:16:47.000Z</time>
      </trkpt>
      <trkpt lat="44.211470" lon="4.798038">
        <ele>144.381325</ele>
        <time>2017-06-07T08:16:49.000Z</time>
      </trkpt>
      <trkpt lat="44.211456" lon="4.798175">
        <ele>144.232320</ele>
        <time>2017-06-07T08:16:51.000Z</time>
      </trkpt>
      <trkpt lat="44.211437" lon="4.798312">
        <ele>144.082070</ele>
        <time>2017-06-07T08:16:53.000Z</time>
      </trkpt>
      <trkpt lat="44.211420" lon="4.798461">
        <ele>143.929312</ele>
        <time>2017-06-07T08:16:55.000Z</time>
      </trkpt>
      <trkpt lat="44.211400" lon="4.798613">
        <ele>143.830206</ele>
        <time>2017-06-07T08:16:57.000Z</time>
      </trkpt>
      <trkpt lat="44.211380" lon="4.798760">
        <ele>143.734253</ele>
        <time>2017-06-07T08:16:59.000Z</time>
      </trkpt>
      <trkpt lat="44.211350" lon="4.798896">
        <ele>143.643000</ele>
        <time>2017-06-07T08:17:01.000Z</time>
      </trkpt>
      <trkpt lat="44.211334" lon="4.799035">
        <ele>143.552718</ele>
        <time>2017-06-07T08:17:03.000Z</time>
      </trkpt>
      <trkpt lat="44.211327" lon="4.799174">
        <ele>143.463359</ele>
        <time>2017-06-07T08:17:05.000Z</time>
      </trkpt>
      <trkpt lat="44.211308" lon="4.799306">
        <ele>143.377018</ele>
        <time>2017-06-07T08:17:07.000Z</time>
      </trkpt>
      <trkpt lat="44.211273" lon="4.799474">
        <ele>143.264822</ele>
        <time>2017-06-07T08:17:10.000Z</time>
      </trkpt>
      <trkpt lat="44.211230" lon="4.799614">
        <ele>143.167145</ele>
        <time>2017-06-07T08:17:13.000Z</time>
      </trkpt>
      <trkpt lat="44.211190" lon="4.799749">
        <ele>143.073465</ele>
        <time>2017-06-07T08:17:16.000Z</time>
      </trkpt>
      <trkpt lat="44.211155" lon="4.799891">
        <ele>142.977167</ele>
        <time>2017-06-07T08:17:19.000Z</time>
      </trkpt>
      <trkpt lat="44.211132" lon="4.800014">
        <ele>142.895648</ele>
        <time>2017-06-07T08:17:22.000Z</time>
      </trkpt>
      <trkpt lat="44.211094" lon="4.800140">
        <ele>142.807983</ele>
        <time>2017-06-07T08:17:25.000Z</time>
      </trkpt>
      <trkpt lat="44.211044" lon="4.800277">
        <ele>142.709392</ele>
        <time>2017-06-07T08:17:28.000Z</time>
      </trkpt>
      <trkpt lat="44.211014" lon="4.800410">
        <ele>142.619976</ele>
        <time>2017-06-07T08:17:31.000Z</time>
      </trkpt>
      <trkpt lat="44.210976" lon="4.800541">
        <ele>142.529347</ele>
        <time>2017-06-07T08:17:35.000Z</time>
      </trkpt>
      <trkpt lat="44.210930" lon="4.800682">
        <ele>142.429998</ele>
        <time>2017-06-07T08:17:40.000Z</time>
      </trkpt>
      <trkpt lat="44.210896" lon="4.800831">
        <ele>142.335601</ele>
        <time>2017-06-07T08:17:44.000Z</time>
      </trkpt>
      <trkpt lat="44.210846" lon="4.800938">
        <ele>142.357714</ele>
        <time>2017-06-07T08:17:47.000Z</time>
      </trkpt>
      <trkpt lat="44.210800" lon="4.801089">
        <ele>142.386118</ele>
        <time>2017-06-07T08:17:51.000Z</time>
      </trkpt>
      <trkpt lat="44.210777" lon="4.801250">
        <ele>142.414538</ele>
        <time>2017-06-07T08:17:55.000Z</time>
      </trkpt>
      <trkpt lat="44.210762" lon="4.801375">
        <ele>142.436479</ele>
        <time>2017-06-07T08:17:59.000Z</time>
      </trkpt>
      <trkpt lat="44.210655" lon="4.801410">
        <ele>142.463023</ele>
        <time>2017-06-07T08:19:16.000Z</time>
      </trkpt>
      <trkpt lat="44.210556" lon="4.801390">
        <ele>142.487184</ele>
        <time>2017-06-07T08:19:19.000Z</time>
      </trkpt>
      <trkpt lat="44.210453" lon="4.801374">
        <ele>142.512214</ele>
        <time>2017-06-07T08:19:22.000Z</time>
      </trkpt>
      <trkpt lat="44.210340" lon="4.801344">
        <ele>142.539996</ele>
        <time>2017-06-07T08:19:25.000Z</time>
      </trkpt>
      <trkpt lat="44.210230" lon="4.801299">
        <ele>142.567683</ele>
        <time>2017-06-07T08:19:28.000Z</time>
      </trkpt>
      <trkpt lat="44.210114" lon="4.801259">
        <ele>142.596543</ele>
        <time>2017-06-07T08:19:31.000Z</time>
      </trkpt>
      <trkpt lat="44.210000" lon="4.801232">
        <ele>142.624470</ele>
        <time>2017-06-07T08:19:34.000Z</time>
      </trkpt>
      <trkpt lat="44.209892" lon="4.801204">
        <ele>142.651001</ele>
        <time>2017-06-07T08:19:37.000Z</time>
      </trkpt>
      <trkpt lat="44.209790" lon="4.801189">
        <ele>142.675773</ele>
        <time>2017-06-07T08:19:40.000Z</time>
      </trkpt>
      <trkpt lat="44.209694" lon="4.801174">
        <ele>142.699105</ele>
        <time>2017-06-07T08:19:44.000Z</time>
      </trkpt>
      <trkpt lat="44.209557" lon="4.801159">
        <ele>142.732295</ele>
        <time>2017-06-07T08:22:33.000Z</time>
      </trkpt>
      <trkpt lat="44.209457" lon="4.801148">
        <ele>142.756523</ele>
        <time>2017-06-07T08:22:39.000Z</time>
      </trkpt>
      <trkpt lat="44.209360" lon="4.801136">
        <ele>142.766004</ele>
        <time>2017-06-07T08:22:45.000Z</time>
      </trkpt>
      <trkpt lat="44.209316" lon="4.801024">
        <ele>142.760585</ele>
        <time>2017-06-07T08:22:53.000Z</time>
      </trkpt>
      <trkpt lat="44.209328" lon="4.800900">
        <ele>142.755276</ele>
        <time>2017-06-07T08:23:02.000Z</time>
      </trkpt>
      <trkpt lat="44.209340" lon="4.800757">
        <ele>142.749167</ele>
        <time>2017-06-07T08:23:09.000Z</time>
      </trkpt>
      <trkpt lat="44.209347" lon="4.800631">
        <ele>142.743805</ele>
        <time>2017-06-07T08:23:15.000Z</time>
      </trkpt>
      <trkpt lat="44.209385" lon="4.800506">
        <ele>142.738044</ele>
        <time>2017-06-07T08:23:22.000Z</time>
      </trkpt>
      <trkpt lat="44.209473" lon="4.800501">
        <ele>142.732831</ele>
        <time>2017-06-07T08:23:39.000Z</time>
      </trkpt>
      <trkpt lat="44.209522" lon="4.800632">
        <ele>142.726561</ele>
        <time>2017-06-07T08:23:46.000Z</time>
      </trkpt>
      <trkpt lat="44.209484" lon="4.800505">
        <ele>142.720722</ele>
        <time>2017-06-07T08:24:07.000Z</time>
      </trkpt>
      <trkpt lat="44.209385" lon="4.800477">
        <ele>142.714743</ele>
        <time>2017-06-07T08:24:11.000Z</time>
      </trkpt>
      <trkpt lat="44.209328" lon="4.800577">
        <ele>142.709322</ele>
        <time>2017-06-07T08:24:16.000Z</time>
      </trkpt>
      <trkpt lat="44.209328" lon="4.800718">
        <ele>142.703340</ele>
        <time>2017-06-07T08:24:20.000Z</time>
      </trkpt>
      <trkpt lat="44.209324" lon="4.800875">
        <ele>142.696674</ele>
        <time>2017-06-07T08:24:24.000Z</time>
      </trkpt>
      <trkpt lat="44.209330" lon="4.801021">
        <ele>142.690470</ele>
        <time>2017-06-07T08:24:28.000Z</time>
      </trkpt>
      <trkpt lat="44.209420" lon="4.801080">
        <ele>142.684583</ele>
        <time>2017-06-07T08:24:33.000Z</time>
      </trkpt>
      <trkpt lat="44.209520" lon="4.801066">
        <ele>142.678634</ele>
        <time>2017-06-07T08:24:38.000Z</time>
      </trkpt>
      <trkpt lat="44.209595" lon="4.800993">
        <ele>142.673221</ele>
        <time>2017-06-07T08:24:43.000Z</time>
      </trkpt>
      <trkpt lat="44.209686" lon="4.800970">
        <ele>142.667747</ele>
        <time>2017-06-07T08:24:51.000Z</time>
      </trkpt>
      <trkpt lat="44.209587" lon="4.800993">
        <ele>142.658219</ele>
        <time>2017-06-07T08:27:13.000Z</time>
      </trkpt>
      <trkpt lat="44.209510" lon="4.801064">
        <ele>142.613148</ele>
        <time>2017-06-07T08:27:17.000Z</time>
      </trkpt>
      <trkpt lat="44.209408" lon="4.801070">
        <ele>142.563296</ele>
        <time>2017-06-07T08:27:22.000Z</time>
      </trkpt>
      <trkpt lat="44.209316" lon="4.801036">
        <ele>142.516822</ele>
        <time>2017-06-07T08:27:27.000Z</time>
      </trkpt>
      <trkpt lat="44.209324" lon="4.800888">
        <ele>142.464871</ele>
        <time>2017-06-07T08:27:32.000Z</time>
      </trkpt>
      <trkpt lat="44.209324" lon="4.800749">
        <ele>142.416218</ele>
        <time>2017-06-07T08:27:37.000Z</time>
      </trkpt>
      <trkpt lat="44.209340" lon="4.800604">
        <ele>142.364867</ele>
        <time>2017-06-07T08:27:43.000Z</time>
      </trkpt>
      <trkpt lat="44.209377" lon="4.800469">
        <ele>142.314278</ele>
        <time>2017-06-07T08:27:50.000Z</time>
      </trkpt>
      <trkpt lat="44.209423" lon="4.800341">
        <ele>142.264160</ele>
        <time>2017-06-07T08:27:59.000Z</time>
      </trkpt>
      <trkpt lat="44.209490" lon="4.800182">
        <ele>142.199602</ele>
        <time>2017-06-07T08:29:09.000Z</time>
      </trkpt>
      <trkpt lat="44.209568" lon="4.800067">
        <ele>142.144186</ele>
        <time>2017-06-07T08:29:27.000Z</time>
      </trkpt>
      <trkpt lat="44.209515" lon="4.800228">
        <ele>142.082174</ele>
        <time>2017-06-07T09:11:55.000Z</time>
      </trkpt>
      <trkpt lat="44.209473" lon="4.800343">
        <ele>142.036998</ele>
        <time>2017-06-07T09:21:54.000Z</time>
      </trkpt>
      <trkpt lat="44.209404" lon="4.800447">
        <ele>141.987395</ele>
        <time>2017-06-07T09:22:03.000Z</time>
      </trkpt>
      <trkpt lat="44.209362" lon="4.800559">
        <ele>141.943152</ele>
        <time>2017-06-07T09:22:08.000Z</time>
      </trkpt>
      <trkpt lat="44.209354" lon="4.800705">
        <ele>141.891900</ele>
        <time>2017-06-07T09:22:12.000Z</time>
      </trkpt>
      <trkpt lat="44.209347" lon="4.800851">
        <ele>141.840683</ele>
        <time>2017-06-07T09:22:15.000Z</time>
      </trkpt>
      <trkpt lat="44.209330" lon="4.800981">
        <ele>141.794429</ele>
        <time>2017-06-07T09:22:18.000Z</time>
      </trkpt>
      <trkpt lat="44.209290" lon="4.801091">
        <ele>141.609606</ele>
        <time>2017-06-07T09:22:22.000Z</time>
      </trkpt>
      <trkpt lat="44.209180" lon="4.801100">
        <ele>141.323038</ele>
        <time>2017-06-07T09:22:26.000Z</time>
      </trkpt>
      <trkpt lat="44.209064" lon="4.801096">
        <ele>141.021265</ele>
        <time>2017-06-07T09:22:30.000Z</time>
      </trkpt>
      <trkpt lat="44.208970" lon="4.801096">
        <ele>140.776800</ele>
        <time>2017-06-07T09:22:34.000Z</time>
      </trkpt>
      <trkpt lat="44.208870" lon="4.801122">
        <ele>140.512252</ele>
        <time>2017-06-07T09:22:39.000Z</time>
      </trkpt>
      <trkpt lat="44.208763" lon="4.801175">
        <ele>140.216959</ele>
        <time>2017-06-07T09:22:43.000Z</time>
      </trkpt>
      <trkpt lat="44.208668" lon="4.801214">
        <ele>139.959417</ele>
        <time>2017-06-07T09:22:46.000Z</time>
      </trkpt>
      <trkpt lat="44.208570" lon="4.801281">
        <ele>139.675590</ele>
        <time>2017-06-07T09:22:49.000Z</time>
      </trkpt>
      <trkpt lat="44.208485" lon="4.801355">
        <ele>139.415018</ele>
        <time>2017-06-07T09:22:51.000Z</time>
      </trkpt>
      <trkpt lat="44.208360" lon="4.801448">
        <ele>139.046591</ele>
        <time>2017-06-07T09:22:54.000Z</time>
      </trkpt>
      <trkpt lat="44.208282" lon="4.801534">
        <ele>138.788032</ele>
        <time>2017-06-07T09:22:56.000Z</time>
      </trkpt>
      <trkpt lat="44.208183" lon="4.801607">
        <ele>138.496810</ele>
        <time>2017-06-07T09:22:58.000Z</time>
      </trkpt>
      <trkpt lat="44.208084" lon="4.801669">
        <ele>138.214589</ele>
        <time>2017-06-07T09:23:00.000Z</time>
      </trkpt>
      <trkpt lat="44.207980" lon="4.801717">
        <ele>137.929698</ele>
        <time>2017-06-07T09:23:02.000Z</time>
      </trkpt>
      <trkpt lat="44.207880" lon="4.801748">
        <ele>137.663285</ele>
        <time>2017-06-07T09:23:04.000Z</time>
      </trkpt>
      <trkpt lat="44.207783" lon="4.801769">
        <ele>137.407998</ele>
        <time>2017-06-07T09:23:06.000Z</time>
      </trkpt>
      <trkpt lat="44.207672" lon="4.801769">
        <ele>137.119321</ele>
        <time>2017-06-07T09:23:10.000Z</time>
      </trkpt>
      <trkpt lat="44.207570" lon="4.801745">
        <ele>136.774617</ele>
        <time>2017-06-07T09:23:13.000Z</time>
      </trkpt>
      <trkpt lat="44.207450" lon="4.801688">
        <ele>136.347459</ele>
        <time>2017-06-07T09:23:16.000Z</time>
      </trkpt>
      <trkpt lat="44.207367" lon="4.801628">
        <ele>136.032457</ele>
        <time>2017-06-07T09:23:18.000Z</time>
      </trkpt>
      <trkpt lat="44.207264" lon="4.801528">
        <ele>135.609602</ele>
        <time>2017-06-07T09:23:21.000Z</time>
      </trkpt>
      <trkpt lat="44.207172" lon="4.801445">
        <ele>135.240414</ele>
        <time>2017-06-07T09:23:24.000Z</time>
      </trkpt>
      <trkpt lat="44.206978" lon="4.801303">
        <ele>134.502179</ele>
        <time>2017-06-07T09:24:25.000Z</time>
      </trkpt>
      <trkpt lat="44.206880" lon="4.801257">
        <ele>134.153759</ele>
        <time>2017-06-07T09:24:27.000Z</time>
      </trkpt>
      <trkpt lat="44.206768" lon="4.801218">
        <ele>133.764776</ele>
        <time>2017-06-07T09:24:29.000Z</time>
      </trkpt>
      <trkpt lat="44.206646" lon="4.801201">
        <ele>133.351630</ele>
        <time>2017-06-07T09:24:31.000Z</time>
      </trkpt>
      <trkpt lat="44.206512" lon="4.801185">
        <ele>132.898443</ele>
        <time>2017-06-07T09:24:33.000Z</time>
      </trkpt>
      <trkpt lat="44.206370" lon="4.801153">
        <ele>132.413746</ele>
        <time>2017-06-07T09:24:35.000Z</time>
      </trkpt>
      <trkpt lat="44.206230" lon="4.801125">
        <ele>131.937168</ele>
        <time>2017-06-07T09:24:37.000Z</time>
      </trkpt>
      <trkpt lat="44.206090" lon="4.801080">
        <ele>131.453053</ele>
        <time>2017-06-07T09:24:39.000Z</time>
      </trkpt>
      <trkpt lat="44.205936" lon="4.801024">
        <ele>130.856553</ele>
        <time>2017-06-07T09:24:41.000Z</time>
      </trkpt>
      <trkpt lat="44.205803" lon="4.800990">
        <ele>130.187614</ele>
        <time>2017-06-07T09:24:43.000Z</time>
      </trkpt>
      <trkpt lat="44.205673" lon="4.800963">
        <ele>129.537385</ele>
        <time>2017-06-07T09:24:45.000Z</time>
      </trkpt>
      <trkpt lat="44.205574" lon="4.800963">
        <ele>129.047609</ele>
        <time>2017-06-07T09:24:47.000Z</time>
      </trkpt>
      <trkpt lat="44.205452" lon="4.800950">
        <ele>128.442288</ele>
        <time>2017-06-07T09:24:49.000Z</time>
      </trkpt>
      <trkpt lat="44.205345" lon="4.800847">
        <ele>127.799136</ele>
        <time>2017-06-07T09:24:51.000Z</time>
      </trkpt>
      <trkpt lat="44.205265" lon="4.800677">
        <ele>127.077946</ele>
        <time>2017-06-07T09:24:53.000Z</time>
      </trkpt>
      <trkpt lat="44.205196" lon="4.800492">
        <ele>126.338369</ele>
        <time>2017-06-07T09:24:55.000Z</time>
      </trkpt>
      <trkpt lat="44.205124" lon="4.800289">
        <ele>125.535146</ele>
        <time>2017-06-07T09:24:57.000Z</time>
      </trkpt>
      <trkpt lat="44.205067" lon="4.800099">
        <ele>124.804700</ele>
        <time>2017-06-07T09:24:59.000Z</time>
      </trkpt>
      <trkpt lat="44.205006" lon="4.799899">
        <ele>124.033885</ele>
        <time>2017-06-07T09:25:01.000Z</time>
      </trkpt>
      <trkpt lat="44.204937" lon="4.799733">
        <ele>123.353369</ele>
        <time>2017-06-07T09:25:03.000Z</time>
      </trkpt>
      <trkpt lat="44.204853" lon="4.799560">
        <ele>122.612344</ele>
        <time>2017-06-07T09:25:05.000Z</time>
      </trkpt>
      <trkpt lat="44.204735" lon="4.799447">
        <ele>121.888398</ele>
        <time>2017-06-07T09:25:07.000Z</time>
      </trkpt>
      <trkpt lat="44.204600" lon="4.799356">
        <ele>121.098207</ele>
        <time>2017-06-07T09:25:09.000Z</time>
      </trkpt>
      <trkpt lat="44.204445" lon="4.799302">
        <ele>120.256230</ele>
        <time>2017-06-07T09:25:11.000Z</time>
      </trkpt>
      <trkpt lat="44.204285" lon="4.799359">
        <ele>119.385930</ele>
        <time>2017-06-07T09:25:13.000Z</time>
      </trkpt>
      <trkpt lat="44.204205" lon="4.799423">
        <ele>118.899899</ele>
        <time>2017-06-07T09:25:14.000Z</time>
      </trkpt>
      <trkpt lat="44.204050" lon="4.799559">
        <ele>117.934857</ele>
        <time>2017-06-07T09:25:16.000Z</time>
      </trkpt>
      <trkpt lat="44.203907" lon="4.799701">
        <ele>117.009768</ele>
        <time>2017-06-07T09:25:18.000Z</time>
      </trkpt>
      <trkpt lat="44.203830" lon="4.799771">
        <ele>116.525391</ele>
        <time>2017-06-07T09:25:19.000Z</time>
      </trkpt>
      <trkpt lat="44.203760" lon="4.799845">
        <ele>116.062507</ele>
        <time>2017-06-07T09:25:20.000Z</time>
      </trkpt>
      <trkpt lat="44.203682" lon="4.799920">
        <ele>115.563233</ele>
        <time>2017-06-07T09:25:21.000Z</time>
      </trkpt>
      <trkpt lat="44.203610" lon="4.800000">
        <ele>115.078116</ele>
        <time>2017-06-07T09:25:22.000Z</time>
      </trkpt>
      <trkpt lat="44.203465" lon="4.800143">
        <ele>114.142241</ele>
        <time>2017-06-07T09:25:24.000Z</time>
      </trkpt>
      <trkpt lat="44.203380" lon="4.800208">
        <ele>113.631375</ele>
        <time>2017-06-07T09:25:25.000Z</time>
      </trkpt>
      <trkpt lat="44.203297" lon="4.800269">
        <ele>113.136949</ele>
        <time>2017-06-07T09:25:26.000Z</time>
      </trkpt>
      <trkpt lat="44.203220" lon="4.800333">
        <ele>112.665116</ele>
        <time>2017-06-07T09:25:27.000Z</time>
      </trkpt>
      <trkpt lat="44.203070" lon="4.800465">
        <ele>111.886658</ele>
        <time>2017-06-07T09:25:29.000Z</time>
      </trkpt>
      <trkpt lat="44.202923" lon="4.800598">
        <ele>111.117596</ele>
        <time>2017-06-07T09:25:31.000Z</time>
      </trkpt>
      <trkpt lat="44.202766" lon="4.800740">
        <ele>110.296298</ele>
        <time>2017-06-07T09:25:33.000Z</time>
      </trkpt>
      <trkpt lat="44.202618" lon="4.800876">
        <ele>109.518396</ele>
        <time>2017-06-07T09:25:35.000Z</time>
      </trkpt>
      <trkpt lat="44.202540" lon="4.800947">
        <ele>109.109586</ele>
        <time>2017-06-07T09:25:36.000Z</time>
      </trkpt>
      <trkpt lat="44.202457" lon="4.801003">
        <ele>108.704897</ele>
        <time>2017-06-07T09:25:37.000Z</time>
      </trkpt>
      <trkpt lat="44.202366" lon="4.801046">
        <ele>108.283176</ele>
        <time>2017-06-07T09:25:38.000Z</time>
      </trkpt>
      <trkpt lat="44.202263" lon="4.801060">
        <ele>107.828937</ele>
        <time>2017-06-07T09:25:39.000Z</time>
      </trkpt>
      <trkpt lat="44.202164" lon="4.801066">
        <ele>107.393986</ele>
        <time>2017-06-07T09:25:40.000Z</time>
      </trkpt>
      <trkpt lat="44.202070" lon="4.801055">
        <ele>106.979942</ele>
        <time>2017-06-07T09:25:41.000Z</time>
      </trkpt>
      <trkpt lat="44.201973" lon="4.801031">
        <ele>106.547534</ele>
        <time>2017-06-07T09:25:42.000Z</time>
      </trkpt>
      <trkpt lat="44.201878" lon="4.801014">
        <ele>106.127134</ele>
        <time>2017-06-07T09:25:43.000Z</time>
      </trkpt>
      <trkpt lat="44.201775" lon="4.800996">
        <ele>105.671501</ele>
        <time>2017-06-07T09:25:44.000Z</time>
      </trkpt>
      <trkpt lat="44.201675" lon="4.800976">
        <ele>105.228083</ele>
        <time>2017-06-07T09:25:45.000Z</time>
      </trkpt>
      <trkpt lat="44.201576" lon="4.800954">
        <ele>104.788062</ele>
        <time>2017-06-07T09:25:46.000Z</time>
      </trkpt>
      <trkpt lat="44.201477" lon="4.800932">
        <ele>104.549347</ele>
        <time>2017-06-07T09:25:47.000Z</time>
      </trkpt>
      <trkpt lat="44.201374" lon="4.800914">
        <ele>104.309515</ele>
        <time>2017-06-07T09:25:48.000Z</time>
      </trkpt>
      <trkpt lat="44.201267" lon="4.800893">
        <ele>104.059867</ele>
        <time>2017-06-07T09:25:49.000Z</time>
      </trkpt>
      <trkpt lat="44.201164" lon="4.800876">
        <ele>103.820236</ele>
        <time>2017-06-07T09:25:50.000Z</time>
      </trkpt>
      <trkpt lat="44.201060" lon="4.800860">
        <ele>103.578497</ele>
        <time>2017-06-07T09:25:51.000Z</time>
      </trkpt>
      <trkpt lat="44.200960" lon="4.800839">
        <ele>103.344853</ele>
        <time>2017-06-07T09:25:52.000Z</time>
      </trkpt>
      <trkpt lat="44.200855" lon="4.800822">
        <ele>103.100632</ele>
        <time>2017-06-07T09:25:53.000Z</time>
      </trkpt>
      <trkpt lat="44.200752" lon="4.800822">
        <ele>102.862660</ele>
        <time>2017-06-07T09:25:54.000Z</time>
      </trkpt>
      <trkpt lat="44.200645" lon="4.800813">
        <ele>102.614998</ele>
        <time>2017-06-07T09:25:55.000Z</time>
      </trkpt>
      <trkpt lat="44.200550" lon="4.800804">
        <ele>102.395004</ele>
        <time>2017-06-07T09:25:56.000Z</time>
      </trkpt>
      <trkpt lat="44.200450" lon="4.800799">
        <ele>102.163815</ele>
        <time>2017-06-07T09:25:57.000Z</time>
      </trkpt>
      <trkpt lat="44.200356" lon="4.800795">
        <ele>101.946536</ele>
        <time>2017-06-07T09:25:58.000Z</time>
      </trkpt>
      <trkpt lat="44.200260" lon="4.800790">
        <ele>101.724583</ele>
        <time>2017-06-07T09:25:59.000Z</time>
      </trkpt>
      <trkpt lat="44.200170" lon="4.800798">
        <ele>101.516225</ele>
        <time>2017-06-07T09:26:00.000Z</time>
      </trkpt>
      <trkpt lat="44.199990" lon="4.800799">
        <ele>101.100349</ele>
        <time>2017-06-07T09:26:02.000Z</time>
      </trkpt>
      <trkpt lat="44.199810" lon="4.800793">
        <ele>100.684358</ele>
        <time>2017-06-07T09:26:04.000Z</time>
      </trkpt>
      <trkpt lat="44.199635" lon="4.800773">
        <ele>100.249414</ele>
        <time>2017-06-07T09:26:06.000Z</time>
      </trkpt>
      <trkpt lat="44.199474" lon="4.800757">
        <ele>99.844280</ele>
        <time>2017-06-07T09:26:08.000Z</time>
      </trkpt>
      <trkpt lat="44.199314" lon="4.800754">
        <ele>99.442644</ele>
        <time>2017-06-07T09:26:10.000Z</time>
      </trkpt>
      <trkpt lat="44.199165" lon="4.800779">
        <ele>99.065959</ele>
        <time>2017-06-07T09:26:12.000Z</time>
      </trkpt>
      <trkpt lat="44.199000" lon="4.800808">
        <ele>98.648535</ele>
        <time>2017-06-07T09:26:14.000Z</time>
      </trkpt>
      <trkpt lat="44.198845" lon="4.800836">
        <ele>98.256236</ele>
        <time>2017-06-07T09:26:16.000Z</time>
      </trkpt>
      <trkpt lat="44.198704" lon="4.800880">
        <ele>97.893578</ele>
        <time>2017-06-07T09:26:18.000Z</time>
      </trkpt>
      <trkpt lat="44.198563" lon="4.800932">
        <ele>97.527507</ele>
        <time>2017-06-07T09:26:20.000Z</time>
      </trkpt>
      <trkpt lat="44.198433" lon="4.800985">
        <ele>97.187555</ele>
        <time>2017-06-07T09:26:22.000Z</time>
      </trkpt>
      <trkpt lat="44.198290" lon="4.801061">
        <ele>96.803453</ele>
        <time>2017-06-07T09:26:24.000Z</time>
      </trkpt>
      <trkpt lat="44.198154" lon="4.801132">
        <ele>96.438967</ele>
        <time>2017-06-07T09:26:26.000Z</time>
      </trkpt>
      <trkpt lat="44.198013" lon="4.801209">
        <ele>96.105555</ele>
        <time>2017-06-07T09:26:28.000Z</time>
      </trkpt>
      <trkpt lat="44.197876" lon="4.801289">
        <ele>96.128144</ele>
        <time>2017-06-07T09:26:30.000Z</time>
      </trkpt>
      <trkpt lat="44.197742" lon="4.801341">
        <ele>96.149297</ele>
        <time>2017-06-07T09:26:32.000Z</time>
      </trkpt>
      <trkpt lat="44.197610" lon="4.801388">
        <ele>96.170016</ele>
        <time>2017-06-07T09:26:34.000Z</time>
      </trkpt>
      <trkpt lat="44.197475" lon="4.801410">
        <ele>96.190688</ele>
        <time>2017-06-07T09:26:36.000Z</time>
      </trkpt>
      <trkpt lat="44.197330" lon="4.801399">
        <ele>96.212773</ele>
        <time>2017-06-07T09:26:38.000Z</time>
      </trkpt>
      <trkpt lat="44.197178" lon="4.801350">
        <ele>96.236499</ele>
        <time>2017-06-07T09:26:40.000Z</time>
      </trkpt>
      <trkpt lat="44.197037" lon="4.801274">
        <ele>96.259489</ele>
        <time>2017-06-07T09:26:42.000Z</time>
      </trkpt>
      <trkpt lat="44.196903" lon="4.801201">
        <ele>96.281368</ele>
        <time>2017-06-07T09:26:44.000Z</time>
      </trkpt>
      <trkpt lat="44.196770" lon="4.801130">
        <ele>96.303026</ele>
        <time>2017-06-07T09:26:46.000Z</time>
      </trkpt>
      <trkpt lat="44.196640" lon="4.801067">
        <ele>96.323957</ele>
        <time>2017-06-07T09:26:48.000Z</time>
      </trkpt>
      <trkpt lat="44.196507" lon="4.800996">
        <ele>96.345615</ele>
        <time>2017-06-07T09:26:50.000Z</time>
      </trkpt>
      <trkpt lat="44.196373" lon="4.800924">
        <ele>96.367455</ele>
        <time>2017-06-07T09:26:52.000Z</time>
      </trkpt>
      <trkpt lat="44.196228" lon="4.800877">
        <ele>96.394913</ele>
        <time>2017-06-07T09:26:54.000Z</time>
      </trkpt>
      <trkpt lat="44.196087" lon="4.800853">
        <ele>96.424138</ele>
        <time>2017-06-07T09:26:56.000Z</time>
      </trkpt>
      <trkpt lat="44.195946" lon="4.800861">
        <ele>96.453171</ele>
        <time>2017-06-07T09:26:58.000Z</time>
      </trkpt>
      <trkpt lat="44.195805" lon="4.800863">
        <ele>96.482183</ele>
        <time>2017-06-07T09:27:00.000Z</time>
      </trkpt>
      <trkpt lat="44.195650" lon="4.800862">
        <ele>96.514073</ele>
        <time>2017-06-07T09:27:02.000Z</time>
      </trkpt>
      <trkpt lat="44.195490" lon="4.800856">
        <ele>96.547004</ele>
        <time>2017-06-07T09:27:04.000Z</time>
      </trkpt>
      <trkpt lat="44.195324" lon="4.800860">
        <ele>96.581162</ele>
        <time>2017-06-07T09:27:06.000Z</time>
      </trkpt>
      <trkpt lat="44.195175" lon="4.800869">
        <ele>96.611847</ele>
        <time>2017-06-07T09:27:08.000Z</time>
      </trkpt>
      <trkpt lat="44.195038" lon="4.800876">
        <ele>96.640052</ele>
        <time>2017-06-07T09:27:10.000Z</time>
      </trkpt>
      <trkpt lat="44.194900" lon="4.800892">
        <ele>96.668543</ele>
        <time>2017-06-07T09:27:12.000Z</time>
      </trkpt>
      <trkpt lat="44.194760" lon="4.800893">
        <ele>96.697347</ele>
        <time>2017-06-07T09:27:14.000Z</time>
      </trkpt>
      <trkpt lat="44.194610" lon="4.800892">
        <ele>96.728209</ele>
        <time>2017-06-07T09:27:16.000Z</time>
      </trkpt>
      <trkpt lat="44.194450" lon="4.800886">
        <ele>96.680478</ele>
        <time>2017-06-07T09:27:18.000Z</time>
      </trkpt>
      <trkpt lat="44.194300" lon="4.800877">
        <ele>96.541204</ele>
        <time>2017-06-07T09:27:20.000Z</time>
      </trkpt>
      <trkpt lat="44.194160" lon="4.800888">
        <ele>96.411129</ele>
        <time>2017-06-07T09:27:22.000Z</time>
      </trkpt>
      <trkpt lat="44.194023" lon="4.800885">
        <ele>96.284028</ele>
        <time>2017-06-07T09:27:24.000Z</time>
      </trkpt>
      <trkpt lat="44.193890" lon="4.800878">
        <ele>96.160564</ele>
        <time>2017-06-07T09:27:26.000Z</time>
      </trkpt>
      <trkpt lat="44.193756" lon="4.800890">
        <ele>96.036005</ele>
        <time>2017-06-07T09:27:28.000Z</time>
      </trkpt>
      <trkpt lat="44.193623" lon="4.800900">
        <ele>95.912451</ele>
        <time>2017-06-07T09:27:30.000Z</time>
      </trkpt>
      <trkpt lat="44.193485" lon="4.800911">
        <ele>95.784228</ele>
        <time>2017-06-07T09:27:32.000Z</time>
      </trkpt>
      <trkpt lat="44.193348" lon="4.800921">
        <ele>95.656968</ele>
        <time>2017-06-07T09:27:34.000Z</time>
      </trkpt>
      <trkpt lat="44.193214" lon="4.800923">
        <ele>95.532658</ele>
        <time>2017-06-07T09:27:36.000Z</time>
      </trkpt>
      <trkpt lat="44.193090" lon="4.800923">
        <ele>95.417631</ele>
        <time>2017-06-07T09:27:38.000Z</time>
      </trkpt>
      <trkpt lat="44.192963" lon="4.800921">
        <ele>95.299814</ele>
        <time>2017-06-07T09:27:40.000Z</time>
      </trkpt>
      <trkpt lat="44.192844" lon="4.800920">
        <ele>95.189423</ele>
        <time>2017-06-07T09:27:42.000Z</time>
      </trkpt>
      <trkpt lat="44.192726" lon="4.800928">
        <ele>95.079833</ele>
        <time>2017-06-07T09:27:44.000Z</time>
      </trkpt>
      <trkpt lat="44.192608" lon="4.800943">
        <ele>95.047731</ele>
        <time>2017-06-07T09:27:46.000Z</time>
      </trkpt>
      <trkpt lat="44.192482" lon="4.800947">
        <ele>95.014979</ele>
        <time>2017-06-07T09:27:48.000Z</time>
      </trkpt>
      <trkpt lat="44.192360" lon="4.800942">
        <ele>94.983261</ele>
        <time>2017-06-07T09:27:50.000Z</time>
      </trkpt>
      <trkpt lat="44.192250" lon="4.800940">
        <ele>94.954673</ele>
        <time>2017-06-07T09:27:52.000Z</time>
      </trkpt>
      <trkpt lat="44.192140" lon="4.800938">
        <ele>94.926085</ele>
        <time>2017-06-07T09:27:54.000Z</time>
      </trkpt>
      <trkpt lat="44.192030" lon="4.800934">
        <ele>94.897490</ele>
        <time>2017-06-07T09:27:56.000Z</time>
      </trkpt>
      <trkpt lat="44.191933" lon="4.800932">
        <ele>94.872280</ele>
        <time>2017-06-07T09:27:58.000Z</time>
      </trkpt>
      <trkpt lat="44.191833" lon="4.800938">
        <ele>94.846269</ele>
        <time>2017-06-07T09:28:00.000Z</time>
      </trkpt>
      <trkpt lat="44.191696" lon="4.800939">
        <ele>94.810666</ele>
        <time>2017-06-07T09:28:03.000Z</time>
      </trkpt>
      <trkpt lat="44.191610" lon="4.800946">
        <ele>94.788279</ele>
        <time>2017-06-07T09:28:05.000Z</time>
      </trkpt>
      <trkpt lat="44.191483" lon="4.800945">
        <ele>94.755275</ele>
        <time>2017-06-07T09:28:08.000Z</time>
      </trkpt>
      <trkpt lat="44.191370" lon="4.800958">
        <ele>94.725810</ele>
        <time>2017-06-07T09:28:11.000Z</time>
      </trkpt>
      <trkpt lat="44.191246" lon="4.800958">
        <ele>94.693587</ele>
        <time>2017-06-07T09:28:14.000Z</time>
      </trkpt>
      <trkpt lat="44.191128" lon="4.800943">
        <ele>94.662795</ele>
        <time>2017-06-07T09:28:17.000Z</time>
      </trkpt>
      <trkpt lat="44.191010" lon="4.800946">
        <ele>94.632125</ele>
        <time>2017-06-07T09:28:20.000Z</time>
      </trkpt>
      <trkpt lat="44.190876" lon="4.800962">
        <ele>94.596686</ele>
        <time>2017-06-07T09:28:23.000Z</time>
      </trkpt>
      <trkpt lat="44.190790" lon="4.800959">
        <ele>94.573516</ele>
        <time>2017-06-07T09:28:25.000Z</time>
      </trkpt>
      <trkpt lat="44.190685" lon="4.800972">
        <ele>94.545125</ele>
        <time>2017-06-07T09:28:27.000Z</time>
      </trkpt>
      <trkpt lat="44.190580" lon="4.800977">
        <ele>94.516828</ele>
        <time>2017-06-07T09:28:29.000Z</time>
      </trkpt>
      <trkpt lat="44.190475" lon="4.800975">
        <ele>94.488546</ele>
        <time>2017-06-07T09:28:31.000Z</time>
      </trkpt>
      <trkpt lat="44.190372" lon="4.800980">
        <ele>94.460787</ele>
        <time>2017-06-07T09:28:33.000Z</time>
      </trkpt>
      <trkpt lat="44.190277" lon="4.800977">
        <ele>94.435194</ele>
        <time>2017-06-07T09:28:35.000Z</time>
      </trkpt>
      <trkpt lat="44.190174" lon="4.800985">
        <ele>94.407410</ele>
        <time>2017-06-07T09:28:37.000Z</time>
      </trkpt>
      <trkpt lat="44.190067" lon="4.800987">
        <ele>94.378588</ele>
        <time>2017-06-07T09:28:39.000Z</time>
      </trkpt>
      <trkpt lat="44.189960" lon="4.800988">
        <ele>94.349769</ele>
        <time>2017-06-07T09:28:41.000Z</time>
      </trkpt>
      <trkpt lat="44.189830" lon="4.800991">
        <ele>94.314750</ele>
        <time>2017-06-07T09:28:43.000Z</time>
      </trkpt>
      <trkpt lat="44.189710" lon="4.800997">
        <ele>94.282410</ele>
        <time>2017-06-07T09:28:45.000Z</time>
      </trkpt>
      <trkpt lat="44.189590" lon="4.801005">
        <ele>94.250053</ele>
        <time>2017-06-07T09:28:47.000Z</time>
      </trkpt>
      <trkpt lat="44.189472" lon="4.801007">
        <ele>94.218269</ele>
        <time>2017-06-07T09:28:49.000Z</time>
      </trkpt>
      <trkpt lat="44.189350" lon="4.801007">
        <ele>94.185410</ele>
        <time>2017-06-07T09:28:51.000Z</time>
      </trkpt>
      <trkpt lat="44.189228" lon="4.801007">
        <ele>94.152551</ele>
        <time>2017-06-07T09:28:53.000Z</time>
      </trkpt>
      <trkpt lat="44.189110" lon="4.800994">
        <ele>94.130499</ele>
        <time>2017-06-07T09:28:55.000Z</time>
      </trkpt>
      <trkpt lat="44.188988" lon="4.801001">
        <ele>94.156453</ele>
        <time>2017-06-07T09:28:57.000Z</time>
      </trkpt>
      <trkpt lat="44.188866" lon="4.801002">
        <ele>94.182386</ele>
        <time>2017-06-07T09:28:59.000Z</time>
      </trkpt>
      <trkpt lat="44.188732" lon="4.801005">
        <ele>94.210874</ele>
        <time>2017-06-07T09:29:01.000Z</time>
      </trkpt>
      <trkpt lat="44.188614" lon="4.801007">
        <ele>94.235958</ele>
        <time>2017-06-07T09:29:03.000Z</time>
      </trkpt>
      <trkpt lat="44.188484" lon="4.801016">
        <ele>94.263625</ele>
        <time>2017-06-07T09:29:05.000Z</time>
      </trkpt>
      <trkpt lat="44.188354" lon="4.801012">
        <ele>94.291265</ele>
        <time>2017-06-07T09:29:07.000Z</time>
      </trkpt>
      <trkpt lat="44.188240" lon="4.801016">
        <ele>94.315505</ele>
        <time>2017-06-07T09:29:09.000Z</time>
      </trkpt>
      <trkpt lat="44.188118" lon="4.801022">
        <ele>94.341454</ele>
        <time>2017-06-07T09:29:11.000Z</time>
      </trkpt>
      <trkpt lat="44.188000" lon="4.801019">
        <ele>94.366540</ele>
        <time>2017-06-07T09:29:13.000Z</time>
      </trkpt>
      <trkpt lat="44.187874" lon="4.801019">
        <ele>94.393323</ele>
        <time>2017-06-07T09:29:15.000Z</time>
      </trkpt>
      <trkpt lat="44.187756" lon="4.801031">
        <ele>94.418472</ele>
        <time>2017-06-07T09:29:17.000Z</time>
      </trkpt>
      <trkpt lat="44.187634" lon="4.801035">
        <ele>94.444412</ele>
        <time>2017-06-07T09:29:19.000Z</time>
      </trkpt>
      <trkpt lat="44.187515" lon="4.801040">
        <ele>94.469719</ele>
        <time>2017-06-07T09:29:21.000Z</time>
      </trkpt>
      <trkpt lat="44.187390" lon="4.801036">
        <ele>94.496296</ele>
        <time>2017-06-07T09:29:23.000Z</time>
      </trkpt>
      <trkpt lat="44.187267" lon="4.801036">
        <ele>94.627225</ele>
        <time>2017-06-07T09:29:25.000Z</time>
      </trkpt>
      <trkpt lat="44.187150" lon="4.801040">
        <ele>94.838930</ele>
        <time>2017-06-07T09:29:27.000Z</time>
      </trkpt>
      <trkpt lat="44.187040" lon="4.801048">
        <ele>95.038179</ele>
        <time>2017-06-07T09:29:29.000Z</time>
      </trkpt>
      <trkpt lat="44.186930" lon="4.801055">
        <ele>95.237365</ele>
        <time>2017-06-07T09:29:31.000Z</time>
      </trkpt>
      <trkpt lat="44.186830" lon="4.801052">
        <ele>95.418297</ele>
        <time>2017-06-07T09:29:33.000Z</time>
      </trkpt>
      <trkpt lat="44.186730" lon="4.801060">
        <ele>95.599485</ele>
        <time>2017-06-07T09:29:35.000Z</time>
      </trkpt>
      <trkpt lat="44.186620" lon="4.801061">
        <ele>95.798468</ele>
        <time>2017-06-07T09:29:37.000Z</time>
      </trkpt>
      <trkpt lat="44.186512" lon="4.801065">
        <ele>95.993898</ele>
        <time>2017-06-07T09:29:39.000Z</time>
      </trkpt>
      <trkpt lat="44.186405" lon="4.801065">
        <ele>96.187451</ele>
        <time>2017-06-07T09:29:41.000Z</time>
      </trkpt>
      <trkpt lat="44.186302" lon="4.801070">
        <ele>96.373880</ele>
        <time>2017-06-07T09:29:43.000Z</time>
      </trkpt>
      <trkpt lat="44.186190" lon="4.801062">
        <ele>96.576743</ele>
        <time>2017-06-07T09:29:45.000Z</time>
      </trkpt>
      <trkpt lat="44.186073" lon="4.801071">
        <ele>96.788706</ele>
        <time>2017-06-07T09:29:47.000Z</time>
      </trkpt>
      <trkpt lat="44.185963" lon="4.801070">
        <ele>96.987689</ele>
        <time>2017-06-07T09:29:49.000Z</time>
      </trkpt>
      <trkpt lat="44.185850" lon="4.801073">
        <ele>97.192132</ele>
        <time>2017-06-07T09:29:51.000Z</time>
      </trkpt>
      <trkpt lat="44.185734" lon="4.801079">
        <ele>97.402109</ele>
        <time>2017-06-07T09:29:53.000Z</time>
      </trkpt>
      <trkpt lat="44.185627" lon="4.801074">
        <ele>97.595770</ele>
        <time>2017-06-07T09:29:55.000Z</time>
      </trkpt>
      <trkpt lat="44.185528" lon="4.801069">
        <ele>97.761858</ele>
        <time>2017-06-07T09:29:57.000Z</time>
      </trkpt>
      <trkpt lat="44.185430" lon="4.801052">
        <ele>97.759130</ele>
        <time>2017-06-07T09:29:59.000Z</time>
      </trkpt>
      <trkpt lat="44.185330" lon="4.801036">
        <ele>97.756348</ele>
        <time>2017-06-07T09:30:01.000Z</time>
      </trkpt>
      <trkpt lat="44.185226" lon="4.801007">
        <ele>97.753418</ele>
        <time>2017-06-07T09:30:03.000Z</time>
      </trkpt>
      <trkpt lat="44.185135" lon="4.800968">
        <ele>97.750787</ele>
        <time>2017-06-07T09:30:05.000Z</time>
      </trkpt>
      <trkpt lat="44.185043" lon="4.800941">
        <ele>97.748190</ele>
        <time>2017-06-07T09:30:07.000Z</time>
      </trkpt>
      <trkpt lat="44.184925" lon="4.800998">
        <ele>97.744739</ele>
        <time>2017-06-07T09:30:10.000Z</time>
      </trkpt>
      <trkpt lat="44.184895" lon="4.801167">
        <ele>97.741289</ele>
        <time>2017-06-07T09:30:13.000Z</time>
      </trkpt>
      <trkpt lat="44.184940" lon="4.801289">
        <ele>97.738571</ele>
        <time>2017-06-07T09:30:15.000Z</time>
      </trkpt>
      <trkpt lat="44.185013" lon="4.801399">
        <ele>97.735601</ele>
        <time>2017-06-07T09:30:17.000Z</time>
      </trkpt>
      <trkpt lat="44.185078" lon="4.801524">
        <ele>97.732542</ele>
        <time>2017-06-07T09:30:19.000Z</time>
      </trkpt>
      <trkpt lat="44.185127" lon="4.801660">
        <ele>97.729526</ele>
        <time>2017-06-07T09:30:21.000Z</time>
      </trkpt>
      <trkpt lat="44.185160" lon="4.801802">
        <ele>97.726569</ele>
        <time>2017-06-07T09:30:23.000Z</time>
      </trkpt>
      <trkpt lat="44.185192" lon="4.801944">
        <ele>97.723619</ele>
        <time>2017-06-07T09:30:25.000Z</time>
      </trkpt>
      <trkpt lat="44.185207" lon="4.802091">
        <ele>97.720677</ele>
        <time>2017-06-07T09:30:27.000Z</time>
      </trkpt>
      <trkpt lat="44.185220" lon="4.802245">
        <ele>97.717605</ele>
        <time>2017-06-07T09:30:29.000Z</time>
      </trkpt>
      <trkpt lat="44.185226" lon="4.802403">
        <ele>97.714470</ele>
        <time>2017-06-07T09:30:31.000Z</time>
      </trkpt>
      <trkpt lat="44.185226" lon="4.802558">
        <ele>97.734222</ele>
        <time>2017-06-07T09:30:33.000Z</time>
      </trkpt>
      <trkpt lat="44.185223" lon="4.802707">
        <ele>97.801605</ele>
        <time>2017-06-07T09:30:35.000Z</time>
      </trkpt>
      <trkpt lat="44.185215" lon="4.802855">
        <ele>97.868700</ele>
        <time>2017-06-07T09:30:37.000Z</time>
      </trkpt>
      <trkpt lat="44.185215" lon="4.803001">
        <ele>97.934701</ele>
        <time>2017-06-07T09:30:39.000Z</time>
      </trkpt>
      <trkpt lat="44.185220" lon="4.803143">
        <ele>97.998971</ele>
        <time>2017-06-07T09:30:41.000Z</time>
      </trkpt>
      <trkpt lat="44.185215" lon="4.803291">
        <ele>98.065950</ele>
        <time>2017-06-07T09:30:43.000Z</time>
      </trkpt>
      <trkpt lat="44.185207" lon="4.803433">
        <ele>98.130340</ele>
        <time>2017-06-07T09:30:45.000Z</time>
      </trkpt>
      <trkpt lat="44.185204" lon="4.803574">
        <ele>98.194109</ele>
        <time>2017-06-07T09:30:47.000Z</time>
      </trkpt>
      <trkpt lat="44.185190" lon="4.803713">
        <ele>98.257562</ele>
        <time>2017-06-07T09:30:49.000Z</time>
      </trkpt>
      <trkpt lat="44.185177" lon="4.803842">
        <ele>98.316451</ele>
        <time>2017-06-07T09:30:51.000Z</time>
      </trkpt>
      <trkpt lat="44.185170" lon="4.803968">
        <ele>98.373581</ele>
        <time>2017-06-07T09:30:53.000Z</time>
      </trkpt>
      <trkpt lat="44.185158" lon="4.804102">
        <ele>98.434628</ele>
        <time>2017-06-07T09:30:55.000Z</time>
      </trkpt>
      <trkpt lat="44.185146" lon="4.804265">
        <ele>98.508701</ele>
        <time>2017-06-07T09:30:58.000Z</time>
      </trkpt>
      <trkpt lat="44.185130" lon="4.804431">
        <ele>98.584418</ele>
        <time>2017-06-07T09:31:01.000Z</time>
      </trkpt>
      <trkpt lat="44.185135" lon="4.804572">
        <ele>98.648237</ele>
        <time>2017-06-07T09:31:04.000Z</time>
      </trkpt>
      <trkpt lat="44.185146" lon="4.804723">
        <ele>98.716849</ele>
        <time>2017-06-07T09:31:08.000Z</time>
      </trkpt>
      <trkpt lat="44.185170" lon="4.804854">
        <ele>98.777971</ele>
        <time>2017-06-07T09:31:14.000Z</time>
      </trkpt>
      <trkpt lat="44.185204" lon="4.805000">
        <ele>98.847543</ele>
        <time>2017-06-07T09:31:21.000Z</time>
      </trkpt>
      <trkpt lat="44.185226" lon="4.805132">
        <ele>98.918457</ele>
        <time>2017-06-07T09:31:25.000Z</time>
      </trkpt>
      <trkpt lat="44.185257" lon="4.805293">
        <ele>99.005689</ele>
        <time>2017-06-07T09:31:29.000Z</time>
      </trkpt>
      <trkpt lat="44.185284" lon="4.805418">
        <ele>99.074002</ele>
        <time>2017-06-07T09:31:32.000Z</time>
      </trkpt>
      <trkpt lat="44.185310" lon="4.805560">
        <ele>99.150692</ele>
        <time>2017-06-07T09:31:36.000Z</time>
      </trkpt>
      <trkpt lat="44.185330" lon="4.805685">
        <ele>99.217710</ele>
        <time>2017-06-07T09:31:40.000Z</time>
      </trkpt>
      <trkpt lat="44.185360" lon="4.805842">
        <ele>99.302732</ele>
        <time>2017-06-07T09:31:44.000Z</time>
      </trkpt>
      <trkpt lat="44.185387" lon="4.805983">
        <ele>99.379100</ele>
        <time>2017-06-07T09:31:47.000Z</time>
      </trkpt>
      <trkpt lat="44.185406" lon="4.806140">
        <ele>99.462416</ele>
        <time>2017-06-07T09:31:50.000Z</time>
      </trkpt>
      <trkpt lat="44.185432" lon="4.806285">
        <ele>99.540628</ele>
        <time>2017-06-07T09:31:53.000Z</time>
      </trkpt>
      <trkpt lat="44.185480" lon="4.806425">
        <ele>99.621830</ele>
        <time>2017-06-07T09:31:57.000Z</time>
      </trkpt>
      <trkpt lat="44.185500" lon="4.806659">
        <ele>99.745143</ele>
        <time>2017-06-07T09:32:59.000Z</time>
      </trkpt>
      <trkpt lat="44.185520" lon="4.806796">
        <ele>99.818303</ele>
        <time>2017-06-07T09:33:04.000Z</time>
      </trkpt>
      <trkpt lat="44.185555" lon="4.806941">
        <ele>99.898361</ele>
        <time>2017-06-07T09:33:08.000Z</time>
      </trkpt>
      <trkpt lat="44.185585" lon="4.807081">
        <ele>99.974821</ele>
        <time>2017-06-07T09:33:12.000Z</time>
      </trkpt>
      <trkpt lat="44.185610" lon="4.807223">
        <ele>100.051333</ele>
        <time>2017-06-07T09:33:16.000Z</time>
      </trkpt>
      <trkpt lat="44.185646" lon="4.807359">
        <ele>100.127193</ele>
        <time>2017-06-07T09:33:20.000Z</time>
      </trkpt>
      <trkpt lat="44.185677" lon="4.807499">
        <ele>100.148007</ele>
        <time>2017-06-07T09:33:24.000Z</time>
      </trkpt>
      <trkpt lat="44.185703" lon="4.807620">
        <ele>100.132254</ele>
        <time>2017-06-07T09:33:27.000Z</time>
      </trkpt>
      <trkpt lat="44.185738" lon="4.807745">
        <ele>100.115518</ele>
        <time>2017-06-07T09:33:30.000Z</time>
      </trkpt>
      <trkpt lat="44.185760" lon="4.807869">
        <ele>100.099588</ele>
        <time>2017-06-07T09:33:33.000Z</time>
      </trkpt>
      <trkpt lat="44.185795" lon="4.808006">
        <ele>100.081451</ele>
        <time>2017-06-07T09:33:36.000Z</time>
      </trkpt>
      <trkpt lat="44.185833" lon="4.808150">
        <ele>100.062315</ele>
        <time>2017-06-07T09:33:39.000Z</time>
      </trkpt>
      <trkpt lat="44.185883" lon="4.808287">
        <ele>100.043144</ele>
        <time>2017-06-07T09:33:42.000Z</time>
      </trkpt>
      <trkpt lat="44.185925" lon="4.808420">
        <ele>100.025020</ele>
        <time>2017-06-07T09:33:45.000Z</time>
      </trkpt>
      <trkpt lat="44.185955" lon="4.808539">
        <ele>100.009289</ele>
        <time>2017-06-07T09:33:48.000Z</time>
      </trkpt>
      <trkpt lat="44.185997" lon="4.808657">
        <ele>99.992860</ele>
        <time>2017-06-07T09:33:51.000Z</time>
      </trkpt>
      <trkpt lat="44.186043" lon="4.808785">
        <ele>99.975004</ele>
        <time>2017-06-07T09:33:54.000Z</time>
      </trkpt>
      <trkpt lat="44.186080" lon="4.808921">
        <ele>99.956864</ele>
        <time>2017-06-07T09:33:57.000Z</time>
      </trkpt>
      <trkpt lat="44.186130" lon="4.809054">
        <ele>99.938136</ele>
        <time>2017-06-07T09:34:00.000Z</time>
      </trkpt>
      <trkpt lat="44.186170" lon="4.809205">
        <ele>99.918061</ele>
        <time>2017-06-07T09:34:03.000Z</time>
      </trkpt>
      <trkpt lat="44.186214" lon="4.809356">
        <ele>99.897735</ele>
        <time>2017-06-07T09:34:06.000Z</time>
      </trkpt>
      <trkpt lat="44.186264" lon="4.809521">
        <ele>99.875395</ele>
        <time>2017-06-07T09:34:09.000Z</time>
      </trkpt>
      <trkpt lat="44.186320" lon="4.809694">
        <ele>99.851724</ele>
        <time>2017-06-07T09:34:12.000Z</time>
      </trkpt>
      <trkpt lat="44.186356" lon="4.809810">
        <ele>99.969944</ele>
        <time>2017-06-07T09:34:14.000Z</time>
      </trkpt>
      <trkpt lat="44.186390" lon="4.809933">
        <ele>100.174085</ele>
        <time>2017-06-07T09:34:16.000Z</time>
      </trkpt>
      <trkpt lat="44.186440" lon="4.810107">
        <ele>100.464373</ele>
        <time>2017-06-07T09:34:19.000Z</time>
      </trkpt>
      <trkpt lat="44.186474" lon="4.810224">
        <ele>100.659872</ele>
        <time>2017-06-07T09:34:21.000Z</time>
      </trkpt>
      <trkpt lat="44.186510" lon="4.810347">
        <ele>100.865606</ele>
        <time>2017-06-07T09:34:23.000Z</time>
      </trkpt>
      <trkpt lat="44.186546" lon="4.810462">
        <ele>101.059926</ele>
        <time>2017-06-07T09:34:25.000Z</time>
      </trkpt>
      <trkpt lat="44.186584" lon="4.810630">
        <ele>101.332727</ele>
        <time>2017-06-07T09:34:28.000Z</time>
      </trkpt>
      <trkpt lat="44.186607" lon="4.810756">
        <ele>101.534073</ele>
        <time>2017-06-07T09:34:30.000Z</time>
      </trkpt>
      <trkpt lat="44.186634" lon="4.810883">
        <ele>101.739207</ele>
        <time>2017-06-07T09:34:32.000Z</time>
      </trkpt>
      <trkpt lat="44.186672" lon="4.811055">
        <ele>102.017921</ele>
        <time>2017-06-07T09:34:35.000Z</time>
      </trkpt>
      <trkpt lat="44.186700" lon="4.811216">
        <ele>102.274473</ele>
        <time>2017-06-07T09:34:38.000Z</time>
      </trkpt>
      <trkpt lat="44.186730" lon="4.811365">
        <ele>102.514138</ele>
        <time>2017-06-07T09:34:41.000Z</time>
      </trkpt>
      <trkpt lat="44.186760" lon="4.811521">
        <ele>102.764255</ele>
        <time>2017-06-07T09:34:44.000Z</time>
      </trkpt>
      <trkpt lat="44.186787" lon="4.811672">
        <ele>103.005253</ele>
        <time>2017-06-07T09:34:47.000Z</time>
      </trkpt>
      <trkpt lat="44.186817" lon="4.811824">
        <ele>103.249393</ele>
        <time>2017-06-07T09:34:50.000Z</time>
      </trkpt>
      <trkpt lat="44.186855" lon="4.811976">
        <ele>103.498675</ele>
        <time>2017-06-07T09:34:53.000Z</time>
      </trkpt>
      <trkpt lat="44.186890" lon="4.812121">
        <ele>103.735777</ele>
        <time>2017-06-07T09:34:56.000Z</time>
      </trkpt>
      <trkpt lat="44.186920" lon="4.812269">
        <ele>103.981857</ele>
        <time>2017-06-07T09:34:59.000Z</time>
      </trkpt>
      <trkpt lat="44.186960" lon="4.812417">
        <ele>104.234920</ele>
        <time>2017-06-07T09:35:02.000Z</time>
      </trkpt>
      <trkpt lat="44.186990" lon="4.812546">
        <ele>104.451904</ele>
        <time>2017-06-07T09:35:05.000Z</time>
      </trkpt>
      <trkpt lat="44.187020" lon="4.812686">
        <ele>104.685693</ele>
        <time>2017-06-07T09:35:09.000Z</time>
      </trkpt>
      <trkpt lat="44.187040" lon="4.812821">
        <ele>104.906255</ele>
        <time>2017-06-07T09:35:12.000Z</time>
      </trkpt>
      <trkpt lat="44.187057" lon="4.812957">
        <ele>105.127137</ele>
        <time>2017-06-07T09:35:15.000Z</time>
      </trkpt>
      <trkpt lat="44.187077" lon="4.813103">
        <ele>105.364962</ele>
        <time>2017-06-07T09:35:18.000Z</time>
      </trkpt>
      <trkpt lat="44.187100" lon="4.813252">
        <ele>105.608823</ele>
        <time>2017-06-07T09:35:21.000Z</time>
      </trkpt>
      <trkpt lat="44.187126" lon="4.813399">
        <ele>105.851073</ele>
        <time>2017-06-07T09:35:24.000Z</time>
      </trkpt>
      <trkpt lat="44.187140" lon="4.813551">
        <ele>106.096271</ele>
        <time>2017-06-07T09:35:27.000Z</time>
      </trkpt>
      <trkpt lat="44.187170" lon="4.813689">
        <ele>106.326995</ele>
        <time>2017-06-07T09:35:30.000Z</time>
      </trkpt>
      <trkpt lat="44.187206" lon="4.813823">
        <ele>106.555949</ele>
        <time>2017-06-07T09:35:33.000Z</time>
      </trkpt>
      <trkpt lat="44.187233" lon="4.813973">
        <ele>106.803395</ele>
        <time>2017-06-07T09:35:36.000Z</time>
      </trkpt>
      <trkpt lat="44.187280" lon="4.814118">
        <ele>107.057996</ele>
        <time>2017-06-07T09:35:39.000Z</time>
      </trkpt>
      <trkpt lat="44.187320" lon="4.814268">
        <ele>107.314054</ele>
        <time>2017-06-07T09:35:42.000Z</time>
      </trkpt>
      <trkpt lat="44.187366" lon="4.814418">
        <ele>107.575080</ele>
        <time>2017-06-07T09:35:45.000Z</time>
      </trkpt>
      <trkpt lat="44.187412" lon="4.814563">
        <ele>107.791488</ele>
        <time>2017-06-07T09:35:48.000Z</time>
      </trkpt>
      <trkpt lat="44.187458" lon="4.814714">
        <ele>107.939013</ele>
        <time>2017-06-07T09:35:51.000Z</time>
      </trkpt>
      <trkpt lat="44.187500" lon="4.814857">
        <ele>108.077968</ele>
        <time>2017-06-07T09:35:54.000Z</time>
      </trkpt>
      <trkpt lat="44.187546" lon="4.815018">
        <ele>108.233809</ele>
        <time>2017-06-07T09:35:57.000Z</time>
      </trkpt>
      <trkpt lat="44.187584" lon="4.815167">
        <ele>108.376012</ele>
        <time>2017-06-07T09:36:00.000Z</time>
      </trkpt>
      <trkpt lat="44.187622" lon="4.815311">
        <ele>108.513988</ele>
        <time>2017-06-07T09:36:03.000Z</time>
      </trkpt>
      <trkpt lat="44.187653" lon="4.815460">
        <ele>108.653495</ele>
        <time>2017-06-07T09:36:06.000Z</time>
      </trkpt>
      <trkpt lat="44.187675" lon="4.815611">
        <ele>108.792049</ele>
        <time>2017-06-07T09:36:09.000Z</time>
      </trkpt>
      <trkpt lat="44.187680" lon="4.815759">
        <ele>108.925278</ele>
        <time>2017-06-07T09:36:12.000Z</time>
      </trkpt>
      <trkpt lat="44.187683" lon="4.815923">
        <ele>109.072795</ele>
        <time>2017-06-07T09:36:15.000Z</time>
      </trkpt>
      <trkpt lat="44.187690" lon="4.816091">
        <ele>109.224116</ele>
        <time>2017-06-07T09:36:18.000Z</time>
      </trkpt>
      <trkpt lat="44.187700" lon="4.816263">
        <ele>109.379287</ele>
        <time>2017-06-07T09:36:21.000Z</time>
      </trkpt>
      <trkpt lat="44.187714" lon="4.816441">
        <ele>109.540304</ele>
        <time>2017-06-07T09:36:24.000Z</time>
      </trkpt>
      <trkpt lat="44.187714" lon="4.816607">
        <ele>109.689572</ele>
        <time>2017-06-07T09:36:27.000Z</time>
      </trkpt>
      <trkpt lat="44.187710" lon="4.816747">
        <ele>109.815560</ele>
        <time>2017-06-07T09:36:30.000Z</time>
      </trkpt>
      <trkpt lat="44.187706" lon="4.816882">
        <ele>109.937056</ele>
        <time>2017-06-07T09:36:33.000Z</time>
      </trkpt>
      <trkpt lat="44.187710" lon="4.817026">
        <ele>110.059427</ele>
        <time>2017-06-07T09:36:36.000Z</time>
      </trkpt>
      <trkpt lat="44.187720" lon="4.817190">
        <ele>110.191611</ele>
        <time>2017-06-07T09:36:39.000Z</time>
      </trkpt>
      <trkpt lat="44.187733" lon="4.817358">
        <ele>110.327314</ele>
        <time>2017-06-07T09:36:42.000Z</time>
      </trkpt>
      <trkpt lat="44.187733" lon="4.817519">
        <ele>110.456613</ele>
        <time>2017-06-07T09:36:45.000Z</time>
      </trkpt>
      <trkpt lat="44.187740" lon="4.817685">
        <ele>110.590158</ele>
        <time>2017-06-07T09:36:48.000Z</time>
      </trkpt>
      <trkpt lat="44.187744" lon="4.817851">
        <ele>110.723547</ele>
        <time>2017-06-07T09:36:51.000Z</time>
      </trkpt>
      <trkpt lat="44.187748" lon="4.818008">
        <ele>110.849713</ele>
        <time>2017-06-07T09:36:54.000Z</time>
      </trkpt>
      <trkpt lat="44.187750" lon="4.818173">
        <ele>110.982243</ele>
        <time>2017-06-07T09:36:57.000Z</time>
      </trkpt>
      <trkpt lat="44.187763" lon="4.818334">
        <ele>111.112359</ele>
        <time>2017-06-07T09:37:00.000Z</time>
      </trkpt>
      <trkpt lat="44.187770" lon="4.818495">
        <ele>111.241895</ele>
        <time>2017-06-07T09:37:03.000Z</time>
      </trkpt>
      <trkpt lat="44.187770" lon="4.818657">
        <ele>111.371997</ele>
        <time>2017-06-07T09:37:06.000Z</time>
      </trkpt>
      <trkpt lat="44.187775" lon="4.818821">
        <ele>111.503824</ele>
        <time>2017-06-07T09:37:09.000Z</time>
      </trkpt>
      <trkpt lat="44.187780" lon="4.818991">
        <ele>111.640465</ele>
        <time>2017-06-07T09:37:12.000Z</time>
      </trkpt>
      <trkpt lat="44.187786" lon="4.819164">
        <ele>111.779564</ele>
        <time>2017-06-07T09:37:15.000Z</time>
      </trkpt>
      <trkpt lat="44.187786" lon="4.819359">
        <ele>111.936168</ele>
        <time>2017-06-07T09:37:18.000Z</time>
      </trkpt>
      <trkpt lat="44.187786" lon="4.819493">
        <ele>112.044334</ele>
        <time>2017-06-07T09:37:20.000Z</time>
      </trkpt>
      <trkpt lat="44.187790" lon="4.819627">
        <ele>112.154010</ele>
        <time>2017-06-07T09:37:22.000Z</time>
      </trkpt>
      <trkpt lat="44.187805" lon="4.819793">
        <ele>112.290834</ele>
        <time>2017-06-07T09:37:25.000Z</time>
      </trkpt>
      <trkpt lat="44.187810" lon="4.819937">
        <ele>112.408731</ele>
        <time>2017-06-07T09:37:28.000Z</time>
      </trkpt>
      <trkpt lat="44.187817" lon="4.820082">
        <ele>112.527577</ele>
        <time>2017-06-07T09:37:31.000Z</time>
      </trkpt>
      <trkpt lat="44.187824" lon="4.820241">
        <ele>112.657848</ele>
        <time>2017-06-07T09:37:34.000Z</time>
      </trkpt>
      <trkpt lat="44.187824" lon="4.820399">
        <ele>112.787056</ele>
        <time>2017-06-07T09:37:37.000Z</time>
      </trkpt>
      <trkpt lat="44.187828" lon="4.820570">
        <ele>112.926969</ele>
        <time>2017-06-07T09:37:40.000Z</time>
      </trkpt>
      <trkpt lat="44.187836" lon="4.820748">
        <ele>113.072818</ele>
        <time>2017-06-07T09:37:43.000Z</time>
      </trkpt>
      <trkpt lat="44.187843" lon="4.820925">
        <ele>113.217784</ele>
        <time>2017-06-07T09:37:46.000Z</time>
      </trkpt>
      <trkpt lat="44.187850" lon="4.821112">
        <ele>113.370916</ele>
        <time>2017-06-07T09:37:49.000Z</time>
      </trkpt>
      <trkpt lat="44.187855" lon="4.821240">
        <ele>113.475746</ele>
        <time>2017-06-07T09:37:51.000Z</time>
      </trkpt>
      <trkpt lat="44.187860" lon="4.821370">
        <ele>113.582209</ele>
        <time>2017-06-07T09:37:53.000Z</time>
      </trkpt>
      <trkpt lat="44.187862" lon="4.821561">
        <ele>113.738420</ele>
        <time>2017-06-07T09:37:56.000Z</time>
      </trkpt>
      <trkpt lat="44.187874" lon="4.821687">
        <ele>113.842364</ele>
        <time>2017-06-07T09:37:58.000Z</time>
      </trkpt>
      <trkpt lat="44.187878" lon="4.821814">
        <ele>113.946322</ele>
        <time>2017-06-07T09:38:00.000Z</time>
      </trkpt>
      <trkpt lat="44.187878" lon="4.821945">
        <ele>114.053450</ele>
        <time>2017-06-07T09:38:02.000Z</time>
      </trkpt>
      <trkpt lat="44.187885" lon="4.822074">
        <ele>114.136247</ele>
        <time>2017-06-07T09:38:04.000Z</time>
      </trkpt>
      <trkpt lat="44.187893" lon="4.822205">
        <ele>114.217556</ele>
        <time>2017-06-07T09:38:06.000Z</time>
      </trkpt>
      <trkpt lat="44.187893" lon="4.822340">
        <ele>114.301046</ele>
        <time>2017-06-07T09:38:08.000Z</time>
      </trkpt>
      <trkpt lat="44.187897" lon="4.822465">
        <ele>114.378428</ele>
        <time>2017-06-07T09:38:10.000Z</time>
      </trkpt>
      <trkpt lat="44.187897" lon="4.822598">
        <ele>114.460681</ele>
        <time>2017-06-07T09:38:12.000Z</time>
      </trkpt>
      <trkpt lat="44.187910" lon="4.822784">
        <ele>114.576256</ele>
        <time>2017-06-07T09:38:15.000Z</time>
      </trkpt>
      <trkpt lat="44.187920" lon="4.822968">
        <ele>114.690375</ele>
        <time>2017-06-07T09:38:18.000Z</time>
      </trkpt>
      <trkpt lat="44.187923" lon="4.823095">
        <ele>114.768960</ele>
        <time>2017-06-07T09:38:20.000Z</time>
      </trkpt>
      <trkpt lat="44.187923" lon="4.823223">
        <ele>114.848120</ele>
        <time>2017-06-07T09:38:22.000Z</time>
      </trkpt>
      <trkpt lat="44.187920" lon="4.823353">
        <ele>114.928559</ele>
        <time>2017-06-07T09:38:24.000Z</time>
      </trkpt>
      <trkpt lat="44.187930" lon="4.823479">
        <ele>115.006959</ele>
        <time>2017-06-07T09:38:26.000Z</time>
      </trkpt>
      <trkpt lat="44.187930" lon="4.823604">
        <ele>115.084264</ele>
        <time>2017-06-07T09:38:28.000Z</time>
      </trkpt>
      <trkpt lat="44.187943" lon="4.823788">
        <ele>115.198608</ele>
        <time>2017-06-07T09:38:31.000Z</time>
      </trkpt>
      <trkpt lat="44.187946" lon="4.823914">
        <ele>115.276575</ele>
        <time>2017-06-07T09:38:33.000Z</time>
      </trkpt>
      <trkpt lat="44.187950" lon="4.824043">
        <ele>115.356428</ele>
        <time>2017-06-07T09:38:35.000Z</time>
      </trkpt>
      <trkpt lat="44.187958" lon="4.824168">
        <ele>115.434040</ele>
        <time>2017-06-07T09:38:37.000Z</time>
      </trkpt>
      <trkpt lat="44.187958" lon="4.824294">
        <ele>115.511964</ele>
        <time>2017-06-07T09:38:39.000Z</time>
      </trkpt>
      <trkpt lat="44.187958" lon="4.824482">
        <ele>115.634222</ele>
        <time>2017-06-07T09:38:42.000Z</time>
      </trkpt>
      <trkpt lat="44.187960" lon="4.824613">
        <ele>115.755522</ele>
        <time>2017-06-07T09:38:44.000Z</time>
      </trkpt>
      <trkpt lat="44.187970" lon="4.824739">
        <ele>115.872879</ele>
        <time>2017-06-07T09:38:46.000Z</time>
      </trkpt>
      <trkpt lat="44.187977" lon="4.824925">
        <ele>116.045305</ele>
        <time>2017-06-07T09:38:49.000Z</time>
      </trkpt>
      <trkpt lat="44.187984" lon="4.825057">
        <ele>116.167838</ele>
        <time>2017-06-07T09:38:51.000Z</time>
      </trkpt>
      <trkpt lat="44.187992" lon="4.825193">
        <ele>116.294162</ele>
        <time>2017-06-07T09:38:53.000Z</time>
      </trkpt>
      <trkpt lat="44.188000" lon="4.825321">
        <ele>116.413107</ele>
        <time>2017-06-07T09:38:55.000Z</time>
      </trkpt>
      <trkpt lat="44.188004" lon="4.825458">
        <ele>116.540040</ele>
        <time>2017-06-07T09:38:57.000Z</time>
      </trkpt>
      <trkpt lat="44.188010" lon="4.825597">
        <ele>116.668952</ele>
        <time>2017-06-07T09:38:59.000Z</time>
      </trkpt>
      <trkpt lat="44.188015" lon="4.825731">
        <ele>116.793170</ele>
        <time>2017-06-07T09:39:01.000Z</time>
      </trkpt>
      <trkpt lat="44.188015" lon="4.825867">
        <ele>116.919072</ele>
        <time>2017-06-07T09:39:03.000Z</time>
      </trkpt>
      <trkpt lat="44.188020" lon="4.826006">
        <ele>117.047912</ele>
        <time>2017-06-07T09:39:05.000Z</time>
      </trkpt>
      <trkpt lat="44.188023" lon="4.826133">
        <ele>117.165546</ele>
        <time>2017-06-07T09:39:07.000Z</time>
      </trkpt>
      <trkpt lat="44.188030" lon="4.826262">
        <ele>117.285309</ele>
        <time>2017-06-07T09:39:09.000Z</time>
      </trkpt>
      <trkpt lat="44.188038" lon="4.826450">
        <ele>117.459656</ele>
        <time>2017-06-07T09:39:12.000Z</time>
      </trkpt>
      <trkpt lat="44.188046" lon="4.826579">
        <ele>117.579523</ele>
        <time>2017-06-07T09:39:14.000Z</time>
      </trkpt>
      <trkpt lat="44.188050" lon="4.826706">
        <ele>117.697206</ele>
        <time>2017-06-07T09:39:16.000Z</time>
      </trkpt>
      <trkpt lat="44.188057" lon="4.826892">
        <ele>117.869632</ele>
        <time>2017-06-07T09:39:19.000Z</time>
      </trkpt>
      <trkpt lat="44.188060" lon="4.827079">
        <ele>117.993291</ele>
        <time>2017-06-07T09:39:22.000Z</time>
      </trkpt>
      <trkpt lat="44.188060" lon="4.827205">
        <ele>118.054682</ele>
        <time>2017-06-07T09:39:24.000Z</time>
      </trkpt>
      <trkpt lat="44.188072" lon="4.827335">
        <ele>118.118545</ele>
        <time>2017-06-07T09:39:26.000Z</time>
      </trkpt>
      <trkpt lat="44.188076" lon="4.827463">
        <ele>118.180970</ele>
        <time>2017-06-07T09:39:28.000Z</time>
      </trkpt>
      <trkpt lat="44.188080" lon="4.827592">
        <ele>118.243881</ele>
        <time>2017-06-07T09:39:30.000Z</time>
      </trkpt>
      <trkpt lat="44.188080" lon="4.827724">
        <ele>118.308196</ele>
        <time>2017-06-07T09:39:32.000Z</time>
      </trkpt>
      <trkpt lat="44.188087" lon="4.827851">
        <ele>118.370257</ele>
        <time>2017-06-07T09:39:34.000Z</time>
      </trkpt>
      <trkpt lat="44.188087" lon="4.827982">
        <ele>118.434084</ele>
        <time>2017-06-07T09:39:36.000Z</time>
      </trkpt>
      <trkpt lat="44.188095" lon="4.828165">
        <ele>118.523413</ele>
        <time>2017-06-07T09:39:39.000Z</time>
      </trkpt>
      <trkpt lat="44.188100" lon="4.828293">
        <ele>118.585871</ele>
        <time>2017-06-07T09:39:41.000Z</time>
      </trkpt>
      <trkpt lat="44.188103" lon="4.828420">
        <ele>118.647783</ele>
        <time>2017-06-07T09:39:43.000Z</time>
      </trkpt>
      <trkpt lat="44.188103" lon="4.828549">
        <ele>118.710636</ele>
        <time>2017-06-07T09:39:45.000Z</time>
      </trkpt>
      <trkpt lat="44.188110" lon="4.828678">
        <ele>118.773669</ele>
        <time>2017-06-07T09:39:47.000Z</time>
      </trkpt>
      <trkpt lat="44.188118" lon="4.828809">
        <ele>118.837727</ele>
        <time>2017-06-07T09:39:49.000Z</time>
      </trkpt>
      <trkpt lat="44.188120" lon="4.828934">
        <ele>118.898646</ele>
        <time>2017-06-07T09:39:51.000Z</time>
      </trkpt>
      <trkpt lat="44.188126" lon="4.829120">
        <ele>118.989363</ele>
        <time>2017-06-07T09:39:54.000Z</time>
      </trkpt>
      <trkpt lat="44.188133" lon="4.829298">
        <ele>119.076220</ele>
        <time>2017-06-07T09:39:57.000Z</time>
      </trkpt>
      <trkpt lat="44.188140" lon="4.829473">
        <ele>119.161793</ele>
        <time>2017-06-07T09:40:00.000Z</time>
      </trkpt>
      <trkpt lat="44.188145" lon="4.829643">
        <ele>119.257098</ele>
        <time>2017-06-07T09:40:03.000Z</time>
      </trkpt>
      <trkpt lat="44.188145" lon="4.829808">
        <ele>119.349523</ele>
        <time>2017-06-07T09:40:06.000Z</time>
      </trkpt>
      <trkpt lat="44.188145" lon="4.829954">
        <ele>119.431304</ele>
        <time>2017-06-07T09:40:09.000Z</time>
      </trkpt>
      <trkpt lat="44.188150" lon="4.830101">
        <ele>119.513739</ele>
        <time>2017-06-07T09:40:12.000Z</time>
      </trkpt>
      <trkpt lat="44.188156" lon="4.830274">
        <ele>119.610758</ele>
        <time>2017-06-07T09:40:15.000Z</time>
      </trkpt>
      <trkpt lat="44.188156" lon="4.830401">
        <ele>119.681897</ele>
        <time>2017-06-07T09:40:17.000Z</time>
      </trkpt>
      <trkpt lat="44.188168" lon="4.830578">
        <ele>119.781485</ele>
        <time>2017-06-07T09:40:20.000Z</time>
      </trkpt>
      <trkpt lat="44.188180" lon="4.830741">
        <ele>119.873269</ele>
        <time>2017-06-07T09:40:23.000Z</time>
      </trkpt>
      <trkpt lat="44.188183" lon="4.830904">
        <ele>119.964603</ele>
        <time>2017-06-07T09:40:26.000Z</time>
      </trkpt>
      <trkpt lat="44.188183" lon="4.831058">
        <ele>120.050866</ele>
        <time>2017-06-07T09:40:29.000Z</time>
      </trkpt>
      <trkpt lat="44.188187" lon="4.831220">
        <ele>120.141664</ele>
        <time>2017-06-07T09:40:32.000Z</time>
      </trkpt>
      <trkpt lat="44.188194" lon="4.831388">
        <ele>120.235927</ele>
        <time>2017-06-07T09:40:35.000Z</time>
      </trkpt>
      <trkpt lat="44.188200" lon="4.831573">
        <ele>120.339661</ele>
        <time>2017-06-07T09:40:38.000Z</time>
      </trkpt>
      <trkpt lat="44.188213" lon="4.831702">
        <ele>120.412630</ele>
        <time>2017-06-07T09:40:40.000Z</time>
      </trkpt>
      <trkpt lat="44.188225" lon="4.831888">
        <ele>120.517238</ele>
        <time>2017-06-07T09:40:43.000Z</time>
      </trkpt>
      <trkpt lat="44.188232" lon="4.832069">
        <ele>120.647354</ele>
        <time>2017-06-07T09:40:46.000Z</time>
      </trkpt>
      <trkpt lat="44.188236" lon="4.832256">
        <ele>120.808387</ele>
        <time>2017-06-07T09:40:49.000Z</time>
      </trkpt>
      <trkpt lat="44.188248" lon="4.832444">
        <ele>120.970848</ele>
        <time>2017-06-07T09:40:52.000Z</time>
      </trkpt>
      <trkpt lat="44.188248" lon="4.832620">
        <ele>121.122341</ele>
        <time>2017-06-07T09:40:55.000Z</time>
      </trkpt>
      <trkpt lat="44.188248" lon="4.832788">
        <ele>121.266948</ele>
        <time>2017-06-07T09:40:58.000Z</time>
      </trkpt>
      <trkpt lat="44.188255" lon="4.832966">
        <ele>121.420393</ele>
        <time>2017-06-07T09:41:01.000Z</time>
      </trkpt>
      <trkpt lat="44.188270" lon="4.833146">
        <ele>121.576372</ele>
        <time>2017-06-07T09:41:04.000Z</time>
      </trkpt>
      <trkpt lat="44.188280" lon="4.833312">
        <ele>121.719761</ele>
        <time>2017-06-07T09:41:07.000Z</time>
      </trkpt>
      <trkpt lat="44.188282" lon="4.833485">
        <ele>121.868691</ele>
        <time>2017-06-07T09:41:10.000Z</time>
      </trkpt>
      <trkpt lat="44.188286" lon="4.833660">
        <ele>122.019399</ele>
        <time>2017-06-07T09:41:13.000Z</time>
      </trkpt>
      <trkpt lat="44.188293" lon="4.833830">
        <ele>122.165969</ele>
        <time>2017-06-07T09:41:16.000Z</time>
      </trkpt>
      <trkpt lat="44.188293" lon="4.834003">
        <ele>122.314879</ele>
        <time>2017-06-07T09:41:19.000Z</time>
      </trkpt>
      <trkpt lat="44.188305" lon="4.834179">
        <ele>122.467055</ele>
        <time>2017-06-07T09:41:22.000Z</time>
      </trkpt>
      <trkpt lat="44.188313" lon="4.834356">
        <ele>122.619711</ele>
        <time>2017-06-07T09:41:25.000Z</time>
      </trkpt>
      <trkpt lat="44.188313" lon="4.834526">
        <ele>122.771953</ele>
        <time>2017-06-07T09:41:28.000Z</time>
      </trkpt>
      <trkpt lat="44.188320" lon="4.834699">
        <ele>122.942393</ele>
        <time>2017-06-07T09:41:31.000Z</time>
      </trkpt>
      <trkpt lat="44.188330" lon="4.834881">
        <ele>123.121939</ele>
        <time>2017-06-07T09:41:34.000Z</time>
      </trkpt>
      <trkpt lat="44.188343" lon="4.835055">
        <ele>123.294018</ele>
        <time>2017-06-07T09:41:37.000Z</time>
      </trkpt>
      <trkpt lat="44.188350" lon="4.835183">
        <ele>123.420289</ele>
        <time>2017-06-07T09:41:39.000Z</time>
      </trkpt>
      <trkpt lat="44.188360" lon="4.835365">
        <ele>123.599835</ele>
        <time>2017-06-07T09:41:42.000Z</time>
      </trkpt>
      <trkpt lat="44.188370" lon="4.835550">
        <ele>123.782323</ele>
        <time>2017-06-07T09:41:45.000Z</time>
      </trkpt>
      <trkpt lat="44.188380" lon="4.835731">
        <ele>123.960889</ele>
        <time>2017-06-07T09:41:48.000Z</time>
      </trkpt>
      <trkpt lat="44.188393" lon="4.835918">
        <ele>124.145691</ele>
        <time>2017-06-07T09:41:51.000Z</time>
      </trkpt>
      <trkpt lat="44.188420" lon="4.836094">
        <ele>124.322728</ele>
        <time>2017-06-07T09:41:54.000Z</time>
      </trkpt>
      <trkpt lat="44.188440" lon="4.836220">
        <ele>124.449666</ele>
        <time>2017-06-07T09:41:56.000Z</time>
      </trkpt>
      <trkpt lat="44.188460" lon="4.836340">
        <ele>124.570848</ele>
        <time>2017-06-07T09:41:58.000Z</time>
      </trkpt>
      <trkpt lat="44.188496" lon="4.836514">
        <ele>124.748982</ele>
        <time>2017-06-07T09:42:01.000Z</time>
      </trkpt>
      <trkpt lat="44.188534" lon="4.836691">
        <ele>124.930721</ele>
        <time>2017-06-07T09:42:04.000Z</time>
      </trkpt>
      <trkpt lat="44.188572" lon="4.836861">
        <ele>125.105875</ele>
        <time>2017-06-07T09:42:07.000Z</time>
      </trkpt>
      <trkpt lat="44.188606" lon="4.837042">
        <ele>125.431622</ele>
        <time>2017-06-07T09:42:10.000Z</time>
      </trkpt>
      <trkpt lat="44.188630" lon="4.837166">
        <ele>125.740684</ele>
        <time>2017-06-07T09:42:12.000Z</time>
      </trkpt>
      <trkpt lat="44.188670" lon="4.837331">
        <ele>126.159804</ele>
        <time>2017-06-07T09:42:15.000Z</time>
      </trkpt>
      <trkpt lat="44.188700" lon="4.837501">
        <ele>126.581084</ele>
        <time>2017-06-07T09:42:18.000Z</time>
      </trkpt>
      <trkpt lat="44.188736" lon="4.837668">
        <ele>127.000706</ele>
        <time>2017-06-07T09:42:21.000Z</time>
      </trkpt>
      <trkpt lat="44.188774" lon="4.837821">
        <ele>127.390331</ele>
        <time>2017-06-07T09:42:24.000Z</time>
      </trkpt>
      <trkpt lat="44.188812" lon="4.837973">
        <ele>127.777684</ele>
        <time>2017-06-07T09:42:27.000Z</time>
      </trkpt>
      <trkpt lat="44.188840" lon="4.838136">
        <ele>128.181010</ele>
        <time>2017-06-07T09:42:30.000Z</time>
      </trkpt>
      <trkpt lat="44.188870" lon="4.838296">
        <ele>128.578965</ele>
        <time>2017-06-07T09:42:33.000Z</time>
      </trkpt>
      <trkpt lat="44.188900" lon="4.838435">
        <ele>128.928265</ele>
        <time>2017-06-07T09:42:36.000Z</time>
      </trkpt>
      <trkpt lat="44.188934" lon="4.838557">
        <ele>129.243228</ele>
        <time>2017-06-07T09:42:39.000Z</time>
      </trkpt>
      <trkpt lat="44.188957" lon="4.838687">
        <ele>129.565429</ele>
        <time>2017-06-07T09:42:42.000Z</time>
      </trkpt>
      <trkpt lat="44.188980" lon="4.838810">
        <ele>129.871303</ele>
        <time>2017-06-07T09:42:45.000Z</time>
      </trkpt>
      <trkpt lat="44.189020" lon="4.838965">
        <ele>130.267700</ele>
        <time>2017-06-07T09:42:49.000Z</time>
      </trkpt>
      <trkpt lat="44.189053" lon="4.839119">
        <ele>130.654464</ele>
        <time>2017-06-07T09:42:52.000Z</time>
      </trkpt>
      <trkpt lat="44.189095" lon="4.839268">
        <ele>131.039712</ele>
        <time>2017-06-07T09:42:55.000Z</time>
      </trkpt>
      <trkpt lat="44.189120" lon="4.839403">
        <ele>131.172903</ele>
        <time>2017-06-07T09:42:58.000Z</time>
      </trkpt>
      <trkpt lat="44.189150" lon="4.839549">
        <ele>131.036305</ele>
        <time>2017-06-07T09:43:01.000Z</time>
      </trkpt>
      <trkpt lat="44.189163" lon="4.839693">
        <ele>130.905768</ele>
        <time>2017-06-07T09:43:04.000Z</time>
      </trkpt>
      <trkpt lat="44.189186" lon="4.839841">
        <ele>130.769566</ele>
        <time>2017-06-07T09:43:07.000Z</time>
      </trkpt>
      <trkpt lat="44.189190" lon="4.839979">
        <ele>130.645347</ele>
        <time>2017-06-07T09:43:10.000Z</time>
      </trkpt>
      <trkpt lat="44.189163" lon="4.840107">
        <ele>130.525345</ele>
        <time>2017-06-07T09:43:13.000Z</time>
      </trkpt>
      <trkpt lat="44.189120" lon="4.840231">
        <ele>130.401461</ele>
        <time>2017-06-07T09:43:16.000Z</time>
      </trkpt>
      <trkpt lat="44.189075" lon="4.840347">
        <ele>130.282840</ele>
        <time>2017-06-07T09:43:19.000Z</time>
      </trkpt>
      <trkpt lat="44.189022" lon="4.840467">
        <ele>130.156081</ele>
        <time>2017-06-07T09:43:22.000Z</time>
      </trkpt>
      <trkpt lat="44.188980" lon="4.840625">
        <ele>130.004523</ele>
        <time>2017-06-07T09:43:26.000Z</time>
      </trkpt>
      <trkpt lat="44.188950" lon="4.840743">
        <ele>129.891920</ele>
        <time>2017-06-07T09:43:29.000Z</time>
      </trkpt>
      <trkpt lat="44.188908" lon="4.840870">
        <ele>129.766132</ele>
        <time>2017-06-07T09:43:33.000Z</time>
      </trkpt>
      <trkpt lat="44.188850" lon="4.840979">
        <ele>129.644051</ele>
        <time>2017-06-07T09:43:37.000Z</time>
      </trkpt>
      <trkpt lat="44.188860" lon="4.841125">
        <ele>129.512140</ele>
        <time>2017-06-07T09:44:16.000Z</time>
      </trkpt>
      <trkpt lat="44.188870" lon="4.841251">
        <ele>129.398122</ele>
        <time>2017-06-07T09:44:20.000Z</time>
      </trkpt>
      <trkpt lat="44.188880" lon="4.841390">
        <ele>129.272477</ele>
        <time>2017-06-07T09:44:24.000Z</time>
      </trkpt>
      <trkpt lat="44.188890" lon="4.841532">
        <ele>129.144147</ele>
        <time>2017-06-07T09:44:30.000Z</time>
      </trkpt>
      <trkpt lat="44.188890" lon="4.841658">
        <ele>129.030821</ele>
        <time>2017-06-07T09:44:34.000Z</time>
      </trkpt>
      <trkpt lat="44.188892" lon="4.841794">
        <ele>128.987352</ele>
        <time>2017-06-07T09:44:37.000Z</time>
      </trkpt>
      <trkpt lat="44.188908" lon="4.841943">
        <ele>129.020454</ele>
        <time>2017-06-07T09:44:40.000Z</time>
      </trkpt>
      <trkpt lat="44.188920" lon="4.842110">
        <ele>129.057330</ele>
        <time>2017-06-07T09:44:43.000Z</time>
      </trkpt>
      <trkpt lat="44.188927" lon="4.842259">
        <ele>129.090137</ele>
        <time>2017-06-07T09:44:46.000Z</time>
      </trkpt>
      <trkpt lat="44.188923" lon="4.842394">
        <ele>129.119823</ele>
        <time>2017-06-07T09:44:49.000Z</time>
      </trkpt>
      <trkpt lat="44.188920" lon="4.842524">
        <ele>129.148401</ele>
        <time>2017-06-07T09:44:52.000Z</time>
      </trkpt>
      <trkpt lat="44.188927" lon="4.842692">
        <ele>129.185374</ele>
        <time>2017-06-07T09:44:56.000Z</time>
      </trkpt>
      <trkpt lat="44.188927" lon="4.842843">
        <ele>129.218551</ele>
        <time>2017-06-07T09:44:59.000Z</time>
      </trkpt>
      <trkpt lat="44.188915" lon="4.843020">
        <ele>129.257613</ele>
        <time>2017-06-07T09:45:02.000Z</time>
      </trkpt>
      <trkpt lat="44.188910" lon="4.843181">
        <ele>129.293020</ele>
        <time>2017-06-07T09:45:05.000Z</time>
      </trkpt>
      <trkpt lat="44.188920" lon="4.843362">
        <ele>129.332905</ele>
        <time>2017-06-07T09:45:08.000Z</time>
      </trkpt>
      <trkpt lat="44.188940" lon="4.843530">
        <ele>129.370322</ele>
        <time>2017-06-07T09:45:11.000Z</time>
      </trkpt>
      <trkpt lat="44.188953" lon="4.843678">
        <ele>129.403082</ele>
        <time>2017-06-07T09:45:14.000Z</time>
      </trkpt>
      <trkpt lat="44.188927" lon="4.843801">
        <ele>129.431256</ele>
        <time>2017-06-07T09:45:16.000Z</time>
      </trkpt>
      <trkpt lat="44.188870" lon="4.843960">
        <ele>129.470313</ele>
        <time>2017-06-07T09:45:19.000Z</time>
      </trkpt>
      <trkpt lat="44.188810" lon="4.844097">
        <ele>129.505584</ele>
        <time>2017-06-07T09:45:22.000Z</time>
      </trkpt>
      <trkpt lat="44.188770" lon="4.844240">
        <ele>129.560898</ele>
        <time>2017-06-07T09:45:25.000Z</time>
      </trkpt>
      <trkpt lat="44.188736" lon="4.844385">
        <ele>129.638766</ele>
        <time>2017-06-07T09:45:28.000Z</time>
      </trkpt>
      <trkpt lat="44.188713" lon="4.844536">
        <ele>129.717559</ele>
        <time>2017-06-07T09:45:32.000Z</time>
      </trkpt>
      <trkpt lat="44.188667" lon="4.844653">
        <ele>129.785666</ele>
        <time>2017-06-07T09:45:38.000Z</time>
      </trkpt>
      <trkpt lat="44.188557" lon="4.844686">
        <ele>129.865760</ele>
        <time>2017-06-07T09:45:43.000Z</time>
      </trkpt>
      <trkpt lat="44.188460" lon="4.844736">
        <ele>129.939373</ele>
        <time>2017-06-07T09:45:47.000Z</time>
      </trkpt>
      <trkpt lat="44.188370" lon="4.844798">
        <ele>130.010829</ele>
        <time>2017-06-07T09:45:53.000Z</time>
      </trkpt>
      <trkpt lat="44.188280" lon="4.844863">
        <ele>130.082975</ele>
        <time>2017-06-07T09:45:59.000Z</time>
      </trkpt>
      <trkpt lat="44.188190" lon="4.844921">
        <ele>130.153550</ele>
        <time>2017-06-07T09:46:04.000Z</time>
      </trkpt>
      <trkpt lat="44.188114" lon="4.845005">
        <ele>130.222580</ele>
        <time>2017-06-07T09:46:09.000Z</time>
      </trkpt>
      <trkpt lat="44.188213" lon="4.844879">
        <ele>130.317987</ele>
        <time>2017-06-07T09:49:19.000Z</time>
      </trkpt>
      <trkpt lat="44.188293" lon="4.844792">
        <ele>130.390202</ele>
        <time>2017-06-07T09:49:23.000Z</time>
      </trkpt>
      <trkpt lat="44.188370" lon="4.844725">
        <ele>130.454807</ele>
        <time>2017-06-07T09:49:27.000Z</time>
      </trkpt>
      <trkpt lat="44.188427" lon="4.844620">
        <ele>130.522028</ele>
        <time>2017-06-07T09:49:34.000Z</time>
      </trkpt>
      <trkpt lat="44.188507" lon="4.844370">
        <ele>130.661764</ele>
        <time>2017-06-07T09:50:28.000Z</time>
      </trkpt>
      <trkpt lat="44.188457" lon="4.844479">
        <ele>130.727811</ele>
        <time>2017-06-07T09:50:51.000Z</time>
      </trkpt>
      <trkpt lat="44.188440" lon="4.844612">
        <ele>130.796767</ele>
        <time>2017-06-07T09:50:58.000Z</time>
      </trkpt>
      <trkpt lat="44.188404" lon="4.844734">
        <ele>130.487684</ele>
        <time>2017-06-07T09:51:05.000Z</time>
      </trkpt>
      <trkpt lat="44.188330" lon="4.844811">
        <ele>130.146324</ele>
        <time>2017-06-07T09:51:10.000Z</time>
      </trkpt>
      <trkpt lat="44.188230" lon="4.844871">
        <ele>129.743835</ele>
        <time>2017-06-07T09:51:15.000Z</time>
      </trkpt>
      <trkpt lat="44.188140" lon="4.844943">
        <ele>129.360221</ele>
        <time>2017-06-07T09:51:20.000Z</time>
      </trkpt>
      <trkpt lat="44.188072" lon="4.845049">
        <ele>128.983154</ele>
        <time>2017-06-07T09:51:28.000Z</time>
      </trkpt>
      <trkpt lat="44.187984" lon="4.845136">
        <ele>128.584336</ele>
        <time>2017-06-07T09:51:33.000Z</time>
      </trkpt>
      <trkpt lat="44.187916" lon="4.845242">
        <ele>128.207267</ele>
        <time>2017-06-07T09:51:37.000Z</time>
      </trkpt>
      <trkpt lat="44.187850" lon="4.845334">
        <ele>127.862254</ele>
        <time>2017-06-07T09:51:41.000Z</time>
      </trkpt>
      <trkpt lat="44.187782" lon="4.845418">
        <ele>127.526395</ele>
        <time>2017-06-07T09:51:46.000Z</time>
      </trkpt>
      <trkpt lat="44.187656" lon="4.845561">
        <ele>126.925774</ele>
        <time>2017-06-07T09:52:41.000Z</time>
      </trkpt>
      <trkpt lat="44.187565" lon="4.845643">
        <ele>126.525202</ele>
        <time>2017-06-07T09:52:44.000Z</time>
      </trkpt>
      <trkpt lat="44.187466" lon="4.845729">
        <ele>126.093972</ele>
        <time>2017-06-07T09:52:47.000Z</time>
      </trkpt>
      <trkpt lat="44.187350" lon="4.845857">
        <ele>125.547076</ele>
        <time>2017-06-07T09:52:50.000Z</time>
      </trkpt>
      <trkpt lat="44.187280" lon="4.845946">
        <ele>125.196855</ele>
        <time>2017-06-07T09:52:52.000Z</time>
      </trkpt>
      <trkpt lat="44.187180" lon="4.846069">
        <ele>124.703872</ele>
        <time>2017-06-07T09:52:55.000Z</time>
      </trkpt>
      <trkpt lat="44.187077" lon="4.846170">
        <ele>124.238339</ele>
        <time>2017-06-07T09:52:58.000Z</time>
      </trkpt>
      <trkpt lat="44.187008" lon="4.846250">
        <ele>124.064609</ele>
        <time>2017-06-07T09:53:00.000Z</time>
      </trkpt>
      <trkpt lat="44.186913" lon="4.846368">
        <ele>123.895503</ele>
        <time>2017-06-07T09:53:03.000Z</time>
      </trkpt>
      <trkpt lat="44.186825" lon="4.846480">
        <ele>123.737138</ele>
        <time>2017-06-07T09:53:06.000Z</time>
      </trkpt>
      <trkpt lat="44.186737" lon="4.846567">
        <ele>123.593752</ele>
        <time>2017-06-07T09:53:08.000Z</time>
      </trkpt>
      <trkpt lat="44.186657" lon="4.846628">
        <ele>123.472554</ele>
        <time>2017-06-07T09:53:10.000Z</time>
      </trkpt>
      <trkpt lat="44.186570" lon="4.846720">
        <ele>123.327421</ele>
        <time>2017-06-07T09:53:12.000Z</time>
      </trkpt>
      <trkpt lat="44.186474" lon="4.846825">
        <ele>123.165246</ele>
        <time>2017-06-07T09:53:14.000Z</time>
      </trkpt>
      <trkpt lat="44.186382" lon="4.846929">
        <ele>123.007824</ele>
        <time>2017-06-07T09:53:16.000Z</time>
      </trkpt>
      <trkpt lat="44.186295" lon="4.847049">
        <ele>122.845168</ele>
        <time>2017-06-07T09:53:18.000Z</time>
      </trkpt>
      <trkpt lat="44.186200" lon="4.847142">
        <ele>122.690881</ele>
        <time>2017-06-07T09:53:20.000Z</time>
      </trkpt>
      <trkpt lat="44.186100" lon="4.847224">
        <ele>122.536679</ele>
        <time>2017-06-07T09:53:22.000Z</time>
      </trkpt>
      <trkpt lat="44.186010" lon="4.847305">
        <ele>122.394296</ele>
        <time>2017-06-07T09:53:24.000Z</time>
      </trkpt>
      <trkpt lat="44.185913" lon="4.847388">
        <ele>122.243022</ele>
        <time>2017-06-07T09:53:26.000Z</time>
      </trkpt>
      <trkpt lat="44.185825" lon="4.847470">
        <ele>122.102337</ele>
        <time>2017-06-07T09:53:28.000Z</time>
      </trkpt>
      <trkpt lat="44.185740" lon="4.847554">
        <ele>121.963857</ele>
        <time>2017-06-07T09:53:30.000Z</time>
      </trkpt>
      <trkpt lat="44.185654" lon="4.847637">
        <ele>121.824835</ele>
        <time>2017-06-07T09:53:32.000Z</time>
      </trkpt>
      <trkpt lat="44.185560" lon="4.847726">
        <ele>121.774628</ele>
        <time>2017-06-07T09:53:34.000Z</time>
      </trkpt>
      <trkpt lat="44.185467" lon="4.847830">
        <ele>121.796366</ele>
        <time>2017-06-07T09:53:36.000Z</time>
      </trkpt>
      <trkpt lat="44.185380" lon="4.847937">
        <ele>121.817519</ele>
        <time>2017-06-07T09:53:38.000Z</time>
      </trkpt>
      <trkpt lat="44.185290" lon="4.848033">
        <ele>121.838181</ele>
        <time>2017-06-07T09:53:40.000Z</time>
      </trkpt>
      <trkpt lat="44.185207" lon="4.848132">
        <ele>121.858098</ele>
        <time>2017-06-07T09:53:42.000Z</time>
      </trkpt>
      <trkpt lat="44.185135" lon="4.848245">
        <ele>121.877864</ele>
        <time>2017-06-07T09:53:44.000Z</time>
      </trkpt>
      <trkpt lat="44.185043" lon="4.848344">
        <ele>121.899054</ele>
        <time>2017-06-07T09:53:46.000Z</time>
      </trkpt>
      <trkpt lat="44.184963" lon="4.848431">
        <ele>121.917554</ele>
        <time>2017-06-07T09:53:48.000Z</time>
      </trkpt>
      <trkpt lat="44.184880" lon="4.848520">
        <ele>121.936646</ele>
        <time>2017-06-07T09:53:50.000Z</time>
      </trkpt>
      <trkpt lat="44.184800" lon="4.848619">
        <ele>121.956150</ele>
        <time>2017-06-07T09:53:52.000Z</time>
      </trkpt>
      <trkpt lat="44.184720" lon="4.848722">
        <ele>121.976005</ele>
        <time>2017-06-07T09:53:54.000Z</time>
      </trkpt>
      <trkpt lat="44.184630" lon="4.848821">
        <ele>121.996908</ele>
        <time>2017-06-07T09:53:56.000Z</time>
      </trkpt>
      <trkpt lat="44.184555" lon="4.848923">
        <ele>122.016011</ele>
        <time>2017-06-07T09:53:58.000Z</time>
      </trkpt>
      <trkpt lat="44.184486" lon="4.849043">
        <ele>122.036124</ele>
        <time>2017-06-07T09:54:00.000Z</time>
      </trkpt>
      <trkpt lat="44.184402" lon="4.849150">
        <ele>122.056870</ele>
        <time>2017-06-07T09:54:02.000Z</time>
      </trkpt>
      <trkpt lat="44.184320" lon="4.849271">
        <ele>122.078640</ele>
        <time>2017-06-07T09:54:04.000Z</time>
      </trkpt>
      <trkpt lat="44.184235" lon="4.849383">
        <ele>122.113108</ele>
        <time>2017-06-07T09:54:06.000Z</time>
      </trkpt>
      <trkpt lat="44.184150" lon="4.849480">
        <ele>122.160804</ele>
        <time>2017-06-07T09:54:08.000Z</time>
      </trkpt>
      <trkpt lat="44.184055" lon="4.849567">
        <ele>122.210159</ele>
        <time>2017-06-07T09:54:10.000Z</time>
      </trkpt>
      <trkpt lat="44.183980" lon="4.849668">
        <ele>122.255436</ele>
        <time>2017-06-07T09:54:12.000Z</time>
      </trkpt>
      <trkpt lat="44.183933" lon="4.849802">
        <ele>122.301888</ele>
        <time>2017-06-07T09:54:14.000Z</time>
      </trkpt>
      <trkpt lat="44.183872" lon="4.849927">
        <ele>122.348973</ele>
        <time>2017-06-07T09:54:16.000Z</time>
      </trkpt>
      <trkpt lat="44.183804" lon="4.850043">
        <ele>122.395630</ele>
        <time>2017-06-07T09:54:18.000Z</time>
      </trkpt>
      <trkpt lat="44.183730" lon="4.850151">
        <ele>122.442146</ele>
        <time>2017-06-07T09:54:20.000Z</time>
      </trkpt>
      <trkpt lat="44.183660" lon="4.850255">
        <ele>122.486563</ele>
        <time>2017-06-07T09:54:22.000Z</time>
      </trkpt>
      <trkpt lat="44.183586" lon="4.850369">
        <ele>122.534448</ele>
        <time>2017-06-07T09:54:24.000Z</time>
      </trkpt>
      <trkpt lat="44.183520" lon="4.850507">
        <ele>122.586103</ele>
        <time>2017-06-07T09:54:26.000Z</time>
      </trkpt>
      <trkpt lat="44.183456" lon="4.850641">
        <ele>122.636240</ele>
        <time>2017-06-07T09:54:28.000Z</time>
      </trkpt>
      <trkpt lat="44.183395" lon="4.850785">
        <ele>122.688323</ele>
        <time>2017-06-07T09:54:30.000Z</time>
      </trkpt>
      <trkpt lat="44.183330" lon="4.850935">
        <ele>122.742900</ele>
        <time>2017-06-07T09:54:32.000Z</time>
      </trkpt>
      <trkpt lat="44.183285" lon="4.851092">
        <ele>122.795553</ele>
        <time>2017-06-07T09:54:34.000Z</time>
      </trkpt>
      <trkpt lat="44.183230" lon="4.851237">
        <ele>122.846635</ele>
        <time>2017-06-07T09:54:36.000Z</time>
      </trkpt>
      <trkpt lat="44.183186" lon="4.851385">
        <ele>123.005352</ele>
        <time>2017-06-07T09:54:38.000Z</time>
      </trkpt>
      <trkpt lat="44.183140" lon="4.851520">
        <ele>123.254457</ele>
        <time>2017-06-07T09:54:40.000Z</time>
      </trkpt>
      <trkpt lat="44.183094" lon="4.851650">
        <ele>123.496062</ele>
        <time>2017-06-07T09:54:42.000Z</time>
      </trkpt>
      <trkpt lat="44.183044" lon="4.851781">
        <ele>123.743392</ele>
        <time>2017-06-07T09:54:44.000Z</time>
      </trkpt>
      <trkpt lat="44.183002" lon="4.851919">
        <ele>123.993246</ele>
        <time>2017-06-07T09:54:46.000Z</time>
      </trkpt>
      <trkpt lat="44.182964" lon="4.852045">
        <ele>124.221060</ele>
        <time>2017-06-07T09:54:48.000Z</time>
      </trkpt>
      <trkpt lat="44.182934" lon="4.852170">
        <ele>124.440749</ele>
        <time>2017-06-07T09:54:50.000Z</time>
      </trkpt>
      <trkpt lat="44.182900" lon="4.852345">
        <ele>124.742929</ele>
        <time>2017-06-07T09:54:53.000Z</time>
      </trkpt>
      <trkpt lat="44.182865" lon="4.852514">
        <ele>125.036104</ele>
        <time>2017-06-07T09:54:56.000Z</time>
      </trkpt>
      <trkpt lat="44.182835" lon="4.852670">
        <ele>125.305289</ele>
        <time>2017-06-07T09:54:59.000Z</time>
      </trkpt>
      <trkpt lat="44.182796" lon="4.852792">
        <ele>125.527909</ele>
        <time>2017-06-07T09:55:02.000Z</time>
      </trkpt>
      <trkpt lat="44.182724" lon="4.852893">
        <ele>125.765263</ele>
        <time>2017-06-07T09:55:06.000Z</time>
      </trkpt>
      <trkpt lat="44.182630" lon="4.852947">
        <ele>126.001541</ele>
        <time>2017-06-07T09:55:12.000Z</time>
      </trkpt>
      <trkpt lat="44.182530" lon="4.852936">
        <ele>126.234673</ele>
        <time>2017-06-07T09:55:17.000Z</time>
      </trkpt>
      <trkpt lat="44.182438" lon="4.852925">
        <ele>126.449275</ele>
        <time>2017-06-07T09:55:22.000Z</time>
      </trkpt>
      <trkpt lat="44.182346" lon="4.852887">
        <ele>126.672275</ele>
        <time>2017-06-07T09:55:38.000Z</time>
      </trkpt>
      <trkpt lat="44.182240" lon="4.852871">
        <ele>126.920068</ele>
        <time>2017-06-07T09:55:43.000Z</time>
      </trkpt>
      <trkpt lat="44.182120" lon="4.852839">
        <ele>126.966083</ele>
        <time>2017-06-07T09:55:47.000Z</time>
      </trkpt>
      <trkpt lat="44.181990" lon="4.852798">
        <ele>126.791806</ele>
        <time>2017-06-07T09:55:50.000Z</time>
      </trkpt>
      <trkpt lat="44.181866" lon="4.852767">
        <ele>126.627082</ele>
        <time>2017-06-07T09:55:53.000Z</time>
      </trkpt>
      <trkpt lat="44.181774" lon="4.852741">
        <ele>126.504341</ele>
        <time>2017-06-07T09:55:55.000Z</time>
      </trkpt>
      <trkpt lat="44.181670" lon="4.852724">
        <ele>126.367423</ele>
        <time>2017-06-07T09:55:57.000Z</time>
      </trkpt>
      <trkpt lat="44.181570" lon="4.852698">
        <ele>126.234412</ele>
        <time>2017-06-07T09:55:59.000Z</time>
      </trkpt>
      <trkpt lat="44.181470" lon="4.852659">
        <ele>126.098638</ele>
        <time>2017-06-07T09:56:01.000Z</time>
      </trkpt>
      <trkpt lat="44.181370" lon="4.852625">
        <ele>125.964051</ele>
        <time>2017-06-07T09:56:03.000Z</time>
      </trkpt>
      <trkpt lat="44.181274" lon="4.852592">
        <ele>125.834766</ele>
        <time>2017-06-07T09:56:05.000Z</time>
      </trkpt>
      <trkpt lat="44.181175" lon="4.852567">
        <ele>125.703212</ele>
        <time>2017-06-07T09:56:07.000Z</time>
      </trkpt>
      <trkpt lat="44.181084" lon="4.852533">
        <ele>125.580026</ele>
        <time>2017-06-07T09:56:09.000Z</time>
      </trkpt>
      <trkpt lat="44.180996" lon="4.852502">
        <ele>125.461345</ele>
        <time>2017-06-07T09:56:11.000Z</time>
      </trkpt>
      <trkpt lat="44.180866" lon="4.852451">
        <ele>125.284762</ele>
        <time>2017-06-07T09:56:14.000Z</time>
      </trkpt>
      <trkpt lat="44.180775" lon="4.852426">
        <ele>125.163486</ele>
        <time>2017-06-07T09:56:16.000Z</time>
      </trkpt>
      <trkpt lat="44.180653" lon="4.852459">
        <ele>125.000989</ele>
        <time>2017-06-07T09:56:19.000Z</time>
      </trkpt>
      <trkpt lat="44.180546" lon="4.852517">
        <ele>124.850880</ele>
        <time>2017-06-07T09:56:22.000Z</time>
      </trkpt>
      <trkpt lat="44.180450" lon="4.852539">
        <ele>124.723670</ele>
        <time>2017-06-07T09:56:25.000Z</time>
      </trkpt>
      <trkpt lat="44.180355" lon="4.852527">
        <ele>124.633258</ele>
        <time>2017-06-07T09:56:28.000Z</time>
      </trkpt>
      <trkpt lat="44.180233" lon="4.852488">
        <ele>124.525223</ele>
        <time>2017-06-07T09:56:32.000Z</time>
      </trkpt>
      <trkpt lat="44.180140" lon="4.852475">
        <ele>124.444549</ele>
        <time>2017-06-07T09:56:34.000Z</time>
      </trkpt>
      <trkpt lat="44.180035" lon="4.852469">
        <ele>124.353843</ele>
        <time>2017-06-07T09:56:36.000Z</time>
      </trkpt>
      <trkpt lat="44.179928" lon="4.852474">
        <ele>124.261435</ele>
        <time>2017-06-07T09:56:39.000Z</time>
      </trkpt>
      <trkpt lat="44.179825" lon="4.852469">
        <ele>124.172478</ele>
        <time>2017-06-07T09:56:42.000Z</time>
      </trkpt>
      <trkpt lat="44.179695" lon="4.852491">
        <ele>124.059446</ele>
        <time>2017-06-07T09:56:45.000Z</time>
      </trkpt>
      <trkpt lat="44.179592" lon="4.852509">
        <ele>123.969847</ele>
        <time>2017-06-07T09:56:47.000Z</time>
      </trkpt>
      <trkpt lat="44.179480" lon="4.852512">
        <ele>123.873158</ele>
        <time>2017-06-07T09:56:49.000Z</time>
      </trkpt>
      <trkpt lat="44.179360" lon="4.852512">
        <ele>123.769581</ele>
        <time>2017-06-07T09:56:51.000Z</time>
      </trkpt>
      <trkpt lat="44.179234" lon="4.852517">
        <ele>123.660781</ele>
        <time>2017-06-07T09:56:53.000Z</time>
      </trkpt>
      <trkpt lat="44.179115" lon="4.852524">
        <ele>123.557976</ele>
        <time>2017-06-07T09:56:55.000Z</time>
      </trkpt>
      <trkpt lat="44.178993" lon="4.852528">
        <ele>123.452644</ele>
        <time>2017-06-07T09:56:57.000Z</time>
      </trkpt>
      <trkpt lat="44.178870" lon="4.852521">
        <ele>123.346390</ele>
        <time>2017-06-07T09:56:59.000Z</time>
      </trkpt>
      <trkpt lat="44.178745" lon="4.852522">
        <ele>123.238495</ele>
        <time>2017-06-07T09:57:01.000Z</time>
      </trkpt>
      <trkpt lat="44.178620" lon="4.852544">
        <ele>123.176922</ele>
        <time>2017-06-07T09:57:03.000Z</time>
      </trkpt>
      <trkpt lat="44.178530" lon="4.852620">
        <ele>123.328489</ele>
        <time>2017-06-07T09:57:05.000Z</time>
      </trkpt>
      <trkpt lat="44.178500" lon="4.852767">
        <ele>123.486384</ele>
        <time>2017-06-07T09:57:07.000Z</time>
      </trkpt>
      <trkpt lat="44.178490" lon="4.852936">
        <ele>123.661570</ele>
        <time>2017-06-07T09:57:09.000Z</time>
      </trkpt>
      <trkpt lat="44.178482" lon="4.853097">
        <ele>123.828297</ele>
        <time>2017-06-07T09:57:11.000Z</time>
      </trkpt>
      <trkpt lat="44.178467" lon="4.853266">
        <ele>124.004223</ele>
        <time>2017-06-07T09:57:13.000Z</time>
      </trkpt>
      <trkpt lat="44.178450" lon="4.853433">
        <ele>124.178479</ele>
        <time>2017-06-07T09:57:15.000Z</time>
      </trkpt>
      <trkpt lat="44.178425" lon="4.853592">
        <ele>124.346643</ele>
        <time>2017-06-07T09:57:17.000Z</time>
      </trkpt>
      <trkpt lat="44.178390" lon="4.853755">
        <ele>124.522424</ele>
        <time>2017-06-07T09:57:19.000Z</time>
      </trkpt>
      <trkpt lat="44.178350" lon="4.853909">
        <ele>124.691634</ele>
        <time>2017-06-07T09:57:21.000Z</time>
      </trkpt>
      <trkpt lat="44.178303" lon="4.854065">
        <ele>124.866441</ele>
        <time>2017-06-07T09:57:23.000Z</time>
      </trkpt>
      <trkpt lat="44.178265" lon="4.854219">
        <ele>125.034692</ele>
        <time>2017-06-07T09:57:25.000Z</time>
      </trkpt>
      <trkpt lat="44.178240" lon="4.854367">
        <ele>125.191775</ele>
        <time>2017-06-07T09:57:27.000Z</time>
      </trkpt>
      <trkpt lat="44.178220" lon="4.854501">
        <ele>125.333176</ele>
        <time>2017-06-07T09:57:29.000Z</time>
      </trkpt>
      <trkpt lat="44.178215" lon="4.854635">
        <ele>125.471799</ele>
        <time>2017-06-07T09:57:31.000Z</time>
      </trkpt>
      <trkpt lat="44.178215" lon="4.854782">
        <ele>125.623665</ele>
        <time>2017-06-07T09:57:33.000Z</time>
      </trkpt>
      <trkpt lat="44.178223" lon="4.854933">
        <ele>125.754058</ele>
        <time>2017-06-07T09:57:35.000Z</time>
      </trkpt>
      <trkpt lat="44.178230" lon="4.855089">
        <ele>125.814727</ele>
        <time>2017-06-07T09:57:37.000Z</time>
      </trkpt>
      <trkpt lat="44.178226" lon="4.855224">
        <ele>125.867172</ele>
        <time>2017-06-07T09:57:39.000Z</time>
      </trkpt>
      <trkpt lat="44.178215" lon="4.855362">
        <ele>125.921065</ele>
        <time>2017-06-07T09:57:41.000Z</time>
      </trkpt>
      <trkpt lat="44.178215" lon="4.855501">
        <ele>125.975018</ele>
        <time>2017-06-07T09:57:43.000Z</time>
      </trkpt>
      <trkpt lat="44.178226" lon="4.855647">
        <ele>126.031999</ele>
        <time>2017-06-07T09:57:45.000Z</time>
      </trkpt>
      <trkpt lat="44.178246" lon="4.855793">
        <ele>126.089693</ele>
        <time>2017-06-07T09:57:47.000Z</time>
      </trkpt>
      <trkpt lat="44.178257" lon="4.855971">
        <ele>126.159039</ele>
        <time>2017-06-07T09:57:50.000Z</time>
      </trkpt>
      <trkpt lat="44.178265" lon="4.856096">
        <ele>126.207750</ele>
        <time>2017-06-07T09:57:53.000Z</time>
      </trkpt>
      <trkpt lat="44.178272" lon="4.856247">
        <ele>126.266482</ele>
        <time>2017-06-07T09:57:57.000Z</time>
      </trkpt>
      <trkpt lat="44.178272" lon="4.856385">
        <ele>126.320046</ele>
        <time>2017-06-07T09:58:02.000Z</time>
      </trkpt>
      <trkpt lat="44.178288" lon="4.856530">
        <ele>126.376990</ele>
        <time>2017-06-07T09:58:07.000Z</time>
      </trkpt>
      <trkpt lat="44.178356" lon="4.856614">
        <ele>126.426157</ele>
        <time>2017-06-07T09:58:10.000Z</time>
      </trkpt>
      <trkpt lat="44.178410" lon="4.856734">
        <ele>126.481145</ele>
        <time>2017-06-07T09:58:13.000Z</time>
      </trkpt>
      <trkpt lat="44.178493" lon="4.856850">
        <ele>126.544746</ele>
        <time>2017-06-07T09:58:16.000Z</time>
      </trkpt>
      <trkpt lat="44.178580" lon="4.856966">
        <ele>126.609894</ele>
        <time>2017-06-07T09:58:19.000Z</time>
      </trkpt>
      <trkpt lat="44.178658" lon="4.857085">
        <ele>126.672468</ele>
        <time>2017-06-07T09:58:22.000Z</time>
      </trkpt>
      <trkpt lat="44.178650" lon="4.857215">
        <ele>126.707524</ele>
        <time>2017-06-07T09:58:25.000Z</time>
      </trkpt>
      <trkpt lat="44.178566" lon="4.857341">
        <ele>126.681915</ele>
        <time>2017-06-07T09:58:28.000Z</time>
      </trkpt>
      <trkpt lat="44.178516" lon="4.857446">
        <ele>126.663153</ele>
        <time>2017-06-07T09:58:30.000Z</time>
      </trkpt>
      <trkpt lat="44.178460" lon="4.857550">
        <ele>126.643794</ele>
        <time>2017-06-07T09:58:32.000Z</time>
      </trkpt>
      <trkpt lat="44.178400" lon="4.857655">
        <ele>126.623809</ele>
        <time>2017-06-07T09:58:34.000Z</time>
      </trkpt>
      <trkpt lat="44.178320" lon="4.857780">
        <ele>126.598869</ele>
        <time>2017-06-07T09:58:37.000Z</time>
      </trkpt>
      <trkpt lat="44.178272" lon="4.857885">
        <ele>126.580334</ele>
        <time>2017-06-07T09:58:42.000Z</time>
      </trkpt>
      <trkpt lat="44.178190" lon="4.857923">
        <ele>126.562398</ele>
        <time>2017-06-07T09:58:46.000Z</time>
      </trkpt>
      <trkpt lat="44.178090" lon="4.857989">
        <ele>126.539434</ele>
        <time>2017-06-07T09:58:50.000Z</time>
      </trkpt>
      <trkpt lat="44.177994" lon="4.858052">
        <ele>126.517411</ele>
        <time>2017-06-07T09:58:53.000Z</time>
      </trkpt>
      <trkpt lat="44.177906" lon="4.858089">
        <ele>126.498333</ele>
        <time>2017-06-07T09:58:55.000Z</time>
      </trkpt>
      <trkpt lat="44.177810" lon="4.858133">
        <ele>126.477358</ele>
        <time>2017-06-07T09:58:57.000Z</time>
      </trkpt>
      <trkpt lat="44.177723" lon="4.858187">
        <ele>126.457592</ele>
        <time>2017-06-07T09:58:59.000Z</time>
      </trkpt>
      <trkpt lat="44.177624" lon="4.858235">
        <ele>126.435836</ele>
        <time>2017-06-07T09:59:01.000Z</time>
      </trkpt>
      <trkpt lat="44.177525" lon="4.858285">
        <ele>126.413981</ele>
        <time>2017-06-07T09:59:03.000Z</time>
      </trkpt>
      <trkpt lat="44.177418" lon="4.858332">
        <ele>126.390695</ele>
        <time>2017-06-07T09:59:05.000Z</time>
      </trkpt>
      <trkpt lat="44.177307" lon="4.858378">
        <ele>126.366659</ele>
        <time>2017-06-07T09:59:07.000Z</time>
      </trkpt>
      <trkpt lat="44.177197" lon="4.858428">
        <ele>126.342645</ele>
        <time>2017-06-07T09:59:09.000Z</time>
      </trkpt>
      <trkpt lat="44.177086" lon="4.858462">
        <ele>126.446477</ele>
        <time>2017-06-07T09:59:11.000Z</time>
      </trkpt>
      <trkpt lat="44.176983" lon="4.858500">
        <ele>126.569207</ele>
        <time>2017-06-07T09:59:13.000Z</time>
      </trkpt>
      <trkpt lat="44.176880" lon="4.858543">
        <ele>126.693057</ele>
        <time>2017-06-07T09:59:15.000Z</time>
      </trkpt>
      <trkpt lat="44.176777" lon="4.858580">
        <ele>126.815578</ele>
        <time>2017-06-07T09:59:17.000Z</time>
      </trkpt>
      <trkpt lat="44.176678" lon="4.858619">
        <ele>126.934082</ele>
        <time>2017-06-07T09:59:19.000Z</time>
      </trkpt>
      <trkpt lat="44.176580" lon="4.858661">
        <ele>127.052181</ele>
        <time>2017-06-07T09:59:21.000Z</time>
      </trkpt>
      <trkpt lat="44.176468" lon="4.858700">
        <ele>127.185157</ele>
        <time>2017-06-07T09:59:23.000Z</time>
      </trkpt>
      <trkpt lat="44.176365" lon="4.858734">
        <ele>127.307084</ele>
        <time>2017-06-07T09:59:25.000Z</time>
      </trkpt>
      <trkpt lat="44.176266" lon="4.858790">
        <ele>127.430150</ele>
        <time>2017-06-07T09:59:27.000Z</time>
      </trkpt>
      <trkpt lat="44.176155" lon="4.858833">
        <ele>127.562855</ele>
        <time>2017-06-07T09:59:29.000Z</time>
      </trkpt>
      <trkpt lat="44.176050" lon="4.858871">
        <ele>127.687814</ele>
        <time>2017-06-07T09:59:31.000Z</time>
      </trkpt>
      <trkpt lat="44.175945" lon="4.858915">
        <ele>127.814109</ele>
        <time>2017-06-07T09:59:33.000Z</time>
      </trkpt>
      <trkpt lat="44.175840" lon="4.858955">
        <ele>127.939492</ele>
        <time>2017-06-07T09:59:35.000Z</time>
      </trkpt>
      <trkpt lat="44.175730" lon="4.859002">
        <ele>128.072019</ele>
        <time>2017-06-07T09:59:37.000Z</time>
      </trkpt>
      <trkpt lat="44.175644" lon="4.859047">
        <ele>128.177829</ele>
        <time>2017-06-07T09:59:39.000Z</time>
      </trkpt>
      <trkpt lat="44.175552" lon="4.859092">
        <ele>128.290137</ele>
        <time>2017-06-07T09:59:41.000Z</time>
      </trkpt>
      <trkpt lat="44.175426" lon="4.859142">
        <ele>128.397623</ele>
        <time>2017-06-07T09:59:44.000Z</time>
      </trkpt>
      <trkpt lat="44.175312" lon="4.859187">
        <ele>128.340801</ele>
        <time>2017-06-07T09:59:47.000Z</time>
      </trkpt>
      <trkpt lat="44.175205" lon="4.859226">
        <ele>128.287762</ele>
        <time>2017-06-07T09:59:50.000Z</time>
      </trkpt>
      <trkpt lat="44.175100" lon="4.859270">
        <ele>128.235180</ele>
        <time>2017-06-07T09:59:53.000Z</time>
      </trkpt>
      <trkpt lat="44.175007" lon="4.859302">
        <ele>128.189241</ele>
        <time>2017-06-07T09:59:56.000Z</time>
      </trkpt>
      <trkpt lat="44.174915" lon="4.859339">
        <ele>128.143320</ele>
        <time>2017-06-07T10:00:02.000Z</time>
      </trkpt>
      <trkpt lat="44.174820" lon="4.859366">
        <ele>128.096823</ele>
        <time>2017-06-07T10:00:11.000Z</time>
      </trkpt>
      <trkpt lat="44.174730" lon="4.859408">
        <ele>128.051307</ele>
        <time>2017-06-07T10:00:14.000Z</time>
      </trkpt>
      <trkpt lat="44.174620" lon="4.859451">
        <ele>127.996519</ele>
        <time>2017-06-07T10:00:17.000Z</time>
      </trkpt>
      <trkpt lat="44.174522" lon="4.859491">
        <ele>127.947547</ele>
        <time>2017-06-07T10:00:20.000Z</time>
      </trkpt>
      <trkpt lat="44.174423" lon="4.859533">
        <ele>127.897919</ele>
        <time>2017-06-07T10:00:23.000Z</time>
      </trkpt>
      <trkpt lat="44.174330" lon="4.859577">
        <ele>127.850820</ele>
        <time>2017-06-07T10:00:26.000Z</time>
      </trkpt>
      <trkpt lat="44.174230" lon="4.859638">
        <ele>127.798473</ele>
        <time>2017-06-07T10:00:29.000Z</time>
      </trkpt>
      <trkpt lat="44.174110" lon="4.859721">
        <ele>127.734231</ele>
        <time>2017-06-07T10:00:32.000Z</time>
      </trkpt>
      <trkpt lat="44.173980" lon="4.859801">
        <ele>127.666082</ele>
        <time>2017-06-07T10:00:35.000Z</time>
      </trkpt>
      <trkpt lat="44.173893" lon="4.859900">
        <ele>127.612226</ele>
        <time>2017-06-07T10:00:37.000Z</time>
      </trkpt>
      <trkpt lat="44.173813" lon="4.860009">
        <ele>127.558582</ele>
        <time>2017-06-07T10:00:39.000Z</time>
      </trkpt>
      <trkpt lat="44.173748" lon="4.860136">
        <ele>127.393800</ele>
        <time>2017-06-07T10:00:41.000Z</time>
      </trkpt>
      <trkpt lat="44.173680" lon="4.860270">
        <ele>127.190996</ele>
        <time>2017-06-07T10:00:43.000Z</time>
      </trkpt>
      <trkpt lat="44.173626" lon="4.860416">
        <ele>126.988042</ele>
        <time>2017-06-07T10:00:45.000Z</time>
      </trkpt>
      <trkpt lat="44.173580" lon="4.860573">
        <ele>126.778509</ele>
        <time>2017-06-07T10:00:47.000Z</time>
      </trkpt>
      <trkpt lat="44.173542" lon="4.860734">
        <ele>126.569101</ele>
        <time>2017-06-07T10:00:49.000Z</time>
      </trkpt>
      <trkpt lat="44.173500" lon="4.860887">
        <ele>126.366698</ele>
        <time>2017-06-07T10:00:51.000Z</time>
      </trkpt>
      <trkpt lat="44.173462" lon="4.861037">
        <ele>126.170153</ele>
        <time>2017-06-07T10:00:53.000Z</time>
      </trkpt>
      <trkpt lat="44.173420" lon="4.861179">
        <ele>125.980380</ele>
        <time>2017-06-07T10:00:55.000Z</time>
      </trkpt>
      <trkpt lat="44.173386" lon="4.861324">
        <ele>125.791903</ele>
        <time>2017-06-07T10:00:57.000Z</time>
      </trkpt>
      <trkpt lat="44.173350" lon="4.861471">
        <ele>125.599989</ele>
        <time>2017-06-07T10:00:59.000Z</time>
      </trkpt>
      <trkpt lat="44.173320" lon="4.861613">
        <ele>125.417096</ele>
        <time>2017-06-07T10:01:01.000Z</time>
      </trkpt>
      <trkpt lat="44.173275" lon="4.861743">
        <ele>125.238754</ele>
        <time>2017-06-07T10:01:03.000Z</time>
      </trkpt>
      <trkpt lat="44.173230" lon="4.861876">
        <ele>125.057066</ele>
        <time>2017-06-07T10:01:05.000Z</time>
      </trkpt>
      <trkpt lat="44.173170" lon="4.862000">
        <ele>124.872260</ele>
        <time>2017-06-07T10:01:07.000Z</time>
      </trkpt>
      <trkpt lat="44.173090" lon="4.862102">
        <ele>124.685520</ele>
        <time>2017-06-07T10:01:09.000Z</time>
      </trkpt>
      <trkpt lat="44.173010" lon="4.862182">
        <ele>124.515932</ele>
        <time>2017-06-07T10:01:11.000Z</time>
      </trkpt>
      <trkpt lat="44.172916" lon="4.862234">
        <ele>124.367508</ele>
        <time>2017-06-07T10:01:14.000Z</time>
      </trkpt>
      <trkpt lat="44.172840" lon="4.862307">
        <ele>124.246569</ele>
        <time>2017-06-07T10:01:18.000Z</time>
      </trkpt>
      <trkpt lat="44.172737" lon="4.862394">
        <ele>124.088758</ele>
        <time>2017-06-07T10:01:21.000Z</time>
      </trkpt>
      <trkpt lat="44.172650" lon="4.862444">
        <ele>123.965445</ele>
        <time>2017-06-07T10:01:23.000Z</time>
      </trkpt>
      <trkpt lat="44.172546" lon="4.862493">
        <ele>123.821589</ele>
        <time>2017-06-07T10:01:25.000Z</time>
      </trkpt>
      <trkpt lat="44.172436" lon="4.862550">
        <ele>123.667808</ele>
        <time>2017-06-07T10:01:27.000Z</time>
      </trkpt>
      <trkpt lat="44.172318" lon="4.862610">
        <ele>123.503215</ele>
        <time>2017-06-07T10:01:29.000Z</time>
      </trkpt>
      <trkpt lat="44.172203" lon="4.862674">
        <ele>123.340954</ele>
        <time>2017-06-07T10:01:31.000Z</time>
      </trkpt>
      <trkpt lat="44.172085" lon="4.862728">
        <ele>123.178208</ele>
        <time>2017-06-07T10:01:33.000Z</time>
      </trkpt>
      <trkpt lat="44.171963" lon="4.862784">
        <ele>123.009894</ele>
        <time>2017-06-07T10:01:35.000Z</time>
      </trkpt>
      <trkpt lat="44.171844" lon="4.862854">
        <ele>122.840642</ele>
        <time>2017-06-07T10:01:37.000Z</time>
      </trkpt>
      <trkpt lat="44.171738" lon="4.862917">
        <ele>122.689642</ele>
        <time>2017-06-07T10:01:39.000Z</time>
      </trkpt>
      <trkpt lat="44.171627" lon="4.862994">
        <ele>122.527175</ele>
        <time>2017-06-07T10:01:41.000Z</time>
      </trkpt>
      <trkpt lat="44.171520" lon="4.863057">
        <ele>122.374968</ele>
        <time>2017-06-07T10:01:43.000Z</time>
      </trkpt>
      <trkpt lat="44.171406" lon="4.863122">
        <ele>122.213570</ele>
        <time>2017-06-07T10:01:45.000Z</time>
      </trkpt>
      <trkpt lat="44.171288" lon="4.863197">
        <ele>122.086431</ele>
        <time>2017-06-07T10:01:47.000Z</time>
      </trkpt>
      <trkpt lat="44.171173" lon="4.863283">
        <ele>122.065249</ele>
        <time>2017-06-07T10:01:49.000Z</time>
      </trkpt>
      <trkpt lat="44.171060" lon="4.863372">
        <ele>122.044183</ele>
        <time>2017-06-07T10:01:51.000Z</time>
      </trkpt>
      <trkpt lat="44.170940" lon="4.863460">
        <ele>122.022175</ele>
        <time>2017-06-07T10:01:53.000Z</time>
      </trkpt>
      <trkpt lat="44.170826" lon="4.863569">
        <ele>121.999738</ele>
        <time>2017-06-07T10:01:55.000Z</time>
      </trkpt>
      <trkpt lat="44.170715" lon="4.863673">
        <ele>121.978030</ele>
        <time>2017-06-07T10:01:57.000Z</time>
      </trkpt>
      <trkpt lat="44.170612" lon="4.863782">
        <ele>121.957041</ele>
        <time>2017-06-07T10:01:59.000Z</time>
      </trkpt>
      <trkpt lat="44.170510" lon="4.863892">
        <ele>121.936110</ele>
        <time>2017-06-07T10:02:01.000Z</time>
      </trkpt>
      <trkpt lat="44.170414" lon="4.864001">
        <ele>121.916014</ele>
        <time>2017-06-07T10:02:03.000Z</time>
      </trkpt>
      <trkpt lat="44.170322" lon="4.864117">
        <ele>121.895880</ele>
        <time>2017-06-07T10:02:05.000Z</time>
      </trkpt>
      <trkpt lat="44.170240" lon="4.864234">
        <ele>121.876835</ele>
        <time>2017-06-07T10:02:07.000Z</time>
      </trkpt>
      <trkpt lat="44.170155" lon="4.864346">
        <ele>121.857852</ele>
        <time>2017-06-07T10:02:09.000Z</time>
      </trkpt>
      <trkpt lat="44.170070" lon="4.864461">
        <ele>121.838626</ele>
        <time>2017-06-07T10:02:11.000Z</time>
      </trkpt>
      <trkpt lat="44.169990" lon="4.864576">
        <ele>121.819975</ele>
        <time>2017-06-07T10:02:13.000Z</time>
      </trkpt>
      <trkpt lat="44.169914" lon="4.864700">
        <ele>121.800986</ele>
        <time>2017-06-07T10:02:15.000Z</time>
      </trkpt>
      <trkpt lat="44.169846" lon="4.864833">
        <ele>121.749316</ele>
        <time>2017-06-07T10:02:17.000Z</time>
      </trkpt>
      <trkpt lat="44.169770" lon="4.864969">
        <ele>121.693940</ele>
        <time>2017-06-07T10:02:19.000Z</time>
      </trkpt>
      <trkpt lat="44.169700" lon="4.865116">
        <ele>121.637266</ele>
        <time>2017-06-07T10:02:21.000Z</time>
      </trkpt>
      <trkpt lat="44.169620" lon="4.865266">
        <ele>121.577227</ele>
        <time>2017-06-07T10:02:23.000Z</time>
      </trkpt>
      <trkpt lat="44.169540" lon="4.865405">
        <ele>121.519985</ele>
        <time>2017-06-07T10:02:25.000Z</time>
      </trkpt>
      <trkpt lat="44.169468" lon="4.865536">
        <ele>121.466975</ele>
        <time>2017-06-07T10:02:27.000Z</time>
      </trkpt>
      <trkpt lat="44.169400" lon="4.865678">
        <ele>121.412134</ele>
        <time>2017-06-07T10:02:29.000Z</time>
      </trkpt>
      <trkpt lat="44.169330" lon="4.865829">
        <ele>121.354384</ele>
        <time>2017-06-07T10:02:31.000Z</time>
      </trkpt>
      <trkpt lat="44.169262" lon="4.865971">
        <ele>121.299543</ele>
        <time>2017-06-07T10:02:33.000Z</time>
      </trkpt>
      <trkpt lat="44.169193" lon="4.866107">
        <ele>121.246036</ele>
        <time>2017-06-07T10:02:35.000Z</time>
      </trkpt>
      <trkpt lat="44.169117" lon="4.866242">
        <ele>121.190913</ele>
        <time>2017-06-07T10:02:37.000Z</time>
      </trkpt>
      <trkpt lat="44.169044" lon="4.866358">
        <ele>121.141346</ele>
        <time>2017-06-07T10:02:39.000Z</time>
      </trkpt>
      <trkpt lat="44.168970" lon="4.866490">
        <ele>121.087534</ele>
        <time>2017-06-07T10:02:41.000Z</time>
      </trkpt>
      <trkpt lat="44.168880" lon="4.866618">
        <ele>121.029961</ele>
        <time>2017-06-07T10:02:43.000Z</time>
      </trkpt>
      <trkpt lat="44.168793" lon="4.866752">
        <ele>120.979099</ele>
        <time>2017-06-07T10:02:45.000Z</time>
      </trkpt>
      <trkpt lat="44.168705" lon="4.866890">
        <ele>120.938184</ele>
        <time>2017-06-07T10:02:47.000Z</time>
      </trkpt>
      <trkpt lat="44.168620" lon="4.867027">
        <ele>120.898047</ele>
        <time>2017-06-07T10:02:49.000Z</time>
      </trkpt>
      <trkpt lat="44.168545" lon="4.867164">
        <ele>120.859859</ele>
        <time>2017-06-07T10:02:51.000Z</time>
      </trkpt>
      <trkpt lat="44.168470" lon="4.867297">
        <ele>120.822371</ele>
        <time>2017-06-07T10:02:53.000Z</time>
      </trkpt>
      <trkpt lat="44.168392" lon="4.867420">
        <ele>120.785992</ele>
        <time>2017-06-07T10:02:55.000Z</time>
      </trkpt>
      <trkpt lat="44.168316" lon="4.867536">
        <ele>120.751180</ele>
        <time>2017-06-07T10:02:57.000Z</time>
      </trkpt>
      <trkpt lat="44.168240" lon="4.867643">
        <ele>120.717813</ele>
        <time>2017-06-07T10:02:59.000Z</time>
      </trkpt>
      <trkpt lat="44.168175" lon="4.867740">
        <ele>120.688399</ele>
        <time>2017-06-07T10:03:01.000Z</time>
      </trkpt>
      <trkpt lat="44.168102" lon="4.867838">
        <ele>120.657093</ele>
        <time>2017-06-07T10:03:03.000Z</time>
      </trkpt>
      <trkpt lat="44.168030" lon="4.867948">
        <ele>120.624096</ele>
        <time>2017-06-07T10:03:05.000Z</time>
      </trkpt>
      <trkpt lat="44.167942" lon="4.868045">
        <ele>120.589440</ele>
        <time>2017-06-07T10:03:07.000Z</time>
      </trkpt>
      <trkpt lat="44.167860" lon="4.868146">
        <ele>120.555639</ele>
        <time>2017-06-07T10:03:09.000Z</time>
      </trkpt>
      <trkpt lat="44.167780" lon="4.868257">
        <ele>120.520772</ele>
        <time>2017-06-07T10:03:11.000Z</time>
      </trkpt>
      <trkpt lat="44.167706" lon="4.868384">
        <ele>120.484515</ele>
        <time>2017-06-07T10:03:13.000Z</time>
      </trkpt>
      <trkpt lat="44.167630" lon="4.868507">
        <ele>120.448542</ele>
        <time>2017-06-07T10:03:15.000Z</time>
      </trkpt>
      <trkpt lat="44.167553" lon="4.868630">
        <ele>120.484494</ele>
        <time>2017-06-07T10:03:17.000Z</time>
      </trkpt>
      <trkpt lat="44.167484" lon="4.868754">
        <ele>120.542274</ele>
        <time>2017-06-07T10:03:19.000Z</time>
      </trkpt>
      <trkpt lat="44.167416" lon="4.868879">
        <ele>120.600035</ele>
        <time>2017-06-07T10:03:21.000Z</time>
      </trkpt>
      <trkpt lat="44.167360" lon="4.868990">
        <ele>120.649998</ele>
        <time>2017-06-07T10:03:23.000Z</time>
      </trkpt>
      <trkpt lat="44.167297" lon="4.869102">
        <ele>120.702401</ele>
        <time>2017-06-07T10:03:25.000Z</time>
      </trkpt>
      <trkpt lat="44.167236" lon="4.869207">
        <ele>120.752148</ele>
        <time>2017-06-07T10:03:27.000Z</time>
      </trkpt>
      <trkpt lat="44.167175" lon="4.869309">
        <ele>120.801043</ele>
        <time>2017-06-07T10:03:29.000Z</time>
      </trkpt>
      <trkpt lat="44.167118" lon="4.869409">
        <ele>120.848069</ele>
        <time>2017-06-07T10:03:31.000Z</time>
      </trkpt>
      <trkpt lat="44.167057" lon="4.869505">
        <ele>120.895288</ele>
        <time>2017-06-07T10:03:33.000Z</time>
      </trkpt>
      <trkpt lat="44.166996" lon="4.869606">
        <ele>120.943900</ele>
        <time>2017-06-07T10:03:35.000Z</time>
      </trkpt>
      <trkpt lat="44.166927" lon="4.869699">
        <ele>120.993162</ele>
        <time>2017-06-07T10:03:37.000Z</time>
      </trkpt>
      <trkpt lat="44.166855" lon="4.869780">
        <ele>121.040650</ele>
        <time>2017-06-07T10:03:39.000Z</time>
      </trkpt>
      <trkpt lat="44.166748" lon="4.869888">
        <ele>121.108454</ele>
        <time>2017-06-07T10:03:42.000Z</time>
      </trkpt>
      <trkpt lat="44.166680" lon="4.869972">
        <ele>121.155088</ele>
        <time>2017-06-07T10:03:44.000Z</time>
      </trkpt>
      <trkpt lat="44.166610" lon="4.870056">
        <ele>121.202495</ele>
        <time>2017-06-07T10:03:46.000Z</time>
      </trkpt>
      <trkpt lat="44.166540" lon="4.870147">
        <ele>121.251622</ele>
        <time>2017-06-07T10:03:48.000Z</time>
      </trkpt>
      <trkpt lat="44.166466" lon="4.870235">
        <ele>121.301547</ele>
        <time>2017-06-07T10:03:50.000Z</time>
      </trkpt>
      <trkpt lat="44.166367" lon="4.870359">
        <ele>121.374042</ele>
        <time>2017-06-07T10:03:53.000Z</time>
      </trkpt>
      <trkpt lat="44.166300" lon="4.870465">
        <ele>121.456334</ele>
        <time>2017-06-07T10:03:55.000Z</time>
      </trkpt>
      <trkpt lat="44.166240" lon="4.870581">
        <ele>121.539635</ele>
        <time>2017-06-07T10:03:57.000Z</time>
      </trkpt>
      <trkpt lat="44.166190" lon="4.870701">
        <ele>121.620469</ele>
        <time>2017-06-07T10:03:59.000Z</time>
      </trkpt>
      <trkpt lat="44.166150" lon="4.870832">
        <ele>121.703398</ele>
        <time>2017-06-07T10:04:01.000Z</time>
      </trkpt>
      <trkpt lat="44.166126" lon="4.870967">
        <ele>121.784412</ele>
        <time>2017-06-07T10:04:03.000Z</time>
      </trkpt>
      <trkpt lat="44.166120" lon="4.871109">
        <ele>121.867267</ele>
        <time>2017-06-07T10:04:05.000Z</time>
      </trkpt>
      <trkpt lat="44.166110" lon="4.871253">
        <ele>121.951536</ele>
        <time>2017-06-07T10:04:07.000Z</time>
      </trkpt>
      <trkpt lat="44.166092" lon="4.871394">
        <ele>122.034955</ele>
        <time>2017-06-07T10:04:09.000Z</time>
      </trkpt>
      <trkpt lat="44.166077" lon="4.871539">
        <ele>122.120288</ele>
        <time>2017-06-07T10:04:11.000Z</time>
      </trkpt>
      <trkpt lat="44.166058" lon="4.871688">
        <ele>122.208438</ele>
        <time>2017-06-07T10:04:13.000Z</time>
      </trkpt>
      <trkpt lat="44.166042" lon="4.871839">
        <ele>122.297347</ele>
        <time>2017-06-07T10:04:15.000Z</time>
      </trkpt>
      <trkpt lat="44.166023" lon="4.871987">
        <ele>122.384923</ele>
        <time>2017-06-07T10:04:17.000Z</time>
      </trkpt>
      <trkpt lat="44.166008" lon="4.872133">
        <ele>122.470833</ele>
        <time>2017-06-07T10:04:19.000Z</time>
      </trkpt>
      <trkpt lat="44.165990" lon="4.872258">
        <ele>122.545095</ele>
        <time>2017-06-07T10:04:21.000Z</time>
      </trkpt>
      <trkpt lat="44.165940" lon="4.872465">
        <ele>122.672320</ele>
        <time>2017-06-07T10:04:24.000Z</time>
      </trkpt>
      <trkpt lat="44.165900" lon="4.872592">
        <ele>122.753112</ele>
        <time>2017-06-07T10:04:26.000Z</time>
      </trkpt>
      <trkpt lat="44.165850" lon="4.872708">
        <ele>122.828106</ele>
        <time>2017-06-07T10:04:28.000Z</time>
      </trkpt>
      <trkpt lat="44.165730" lon="4.872729">
        <ele>122.883259</ele>
        <time>2017-06-07T10:04:31.000Z</time>
      </trkpt>
      <trkpt lat="44.165607" lon="4.872663">
        <ele>122.943363</ele>
        <time>2017-06-07T10:04:34.000Z</time>
      </trkpt>
      <trkpt lat="44.165493" lon="4.872576">
        <ele>123.002631</ele>
        <time>2017-06-07T10:04:37.000Z</time>
      </trkpt>
      <trkpt lat="44.165370" lon="4.872503">
        <ele>123.063595</ele>
        <time>2017-06-07T10:04:40.000Z</time>
      </trkpt>
      <trkpt lat="44.165250" lon="4.872446">
        <ele>123.121408</ele>
        <time>2017-06-07T10:04:43.000Z</time>
      </trkpt>
      <trkpt lat="44.165157" lon="4.872429">
        <ele>123.164182</ele>
        <time>2017-06-07T10:04:45.000Z</time>
      </trkpt>
      <trkpt lat="44.165066" lon="4.872446">
        <ele>123.206052</ele>
        <time>2017-06-07T10:04:47.000Z</time>
      </trkpt>
      <trkpt lat="44.164970" lon="4.872449">
        <ele>123.249842</ele>
        <time>2017-06-07T10:04:49.000Z</time>
      </trkpt>
      <trkpt lat="44.164875" lon="4.872432">
        <ele>123.293521</ele>
        <time>2017-06-07T10:04:51.000Z</time>
      </trkpt>
      <trkpt lat="44.164783" lon="4.872427">
        <ele>123.335508</ele>
        <time>2017-06-07T10:04:53.000Z</time>
      </trkpt>
      <trkpt lat="44.164690" lon="4.872412">
        <ele>123.378202</ele>
        <time>2017-06-07T10:04:55.000Z</time>
      </trkpt>
      <trkpt lat="44.164505" lon="4.872399">
        <ele>123.462675</ele>
        <time>2017-06-07T10:04:59.000Z</time>
      </trkpt>
      <trkpt lat="44.164380" lon="4.872449">
        <ele>123.521979</ele>
        <time>2017-06-07T10:05:02.000Z</time>
      </trkpt>
      <trkpt lat="44.164320" lon="4.872549">
        <ele>123.564627</ele>
        <time>2017-06-07T10:05:04.000Z</time>
      </trkpt>
      <trkpt lat="44.164270" lon="4.872676">
        <ele>123.612019</ele>
        <time>2017-06-07T10:05:06.000Z</time>
      </trkpt>
      <trkpt lat="44.164223" lon="4.872795">
        <ele>123.625654</ele>
        <time>2017-06-07T10:05:08.000Z</time>
      </trkpt>
      <trkpt lat="44.164177" lon="4.872964">
        <ele>123.544915</ele>
        <time>2017-06-07T10:05:11.000Z</time>
      </trkpt>
      <trkpt lat="44.164160" lon="4.873121">
        <ele>123.473994</ele>
        <time>2017-06-07T10:05:14.000Z</time>
      </trkpt>
      <trkpt lat="44.164158" lon="4.873256">
        <ele>123.413681</ele>
        <time>2017-06-07T10:05:17.000Z</time>
      </trkpt>
      <trkpt lat="44.164192" lon="4.873413">
        <ele>123.340428</ele>
        <time>2017-06-07T10:05:20.000Z</time>
      </trkpt>
      <trkpt lat="44.164190" lon="4.873556">
        <ele>123.276543</ele>
        <time>2017-06-07T10:05:23.000Z</time>
      </trkpt>
      <trkpt lat="44.164090" lon="4.873604">
        <ele>123.210688</ele>
        <time>2017-06-07T10:05:26.000Z</time>
      </trkpt>
      <trkpt lat="44.163970" lon="4.873614">
        <ele>123.135835</ele>
        <time>2017-06-07T10:05:29.000Z</time>
      </trkpt>
      <trkpt lat="44.163870" lon="4.873608">
        <ele>123.073511</ele>
        <time>2017-06-07T10:05:31.000Z</time>
      </trkpt>
      <trkpt lat="44.163780" lon="4.873572">
        <ele>123.015209</ele>
        <time>2017-06-07T10:05:33.000Z</time>
      </trkpt>
      <trkpt lat="44.163662" lon="4.873561">
        <ele>122.941571</ele>
        <time>2017-06-07T10:05:36.000Z</time>
      </trkpt>
      <trkpt lat="44.163560" lon="4.873559">
        <ele>122.878052</ele>
        <time>2017-06-07T10:05:39.000Z</time>
      </trkpt>
      <trkpt lat="44.163456" lon="4.873570">
        <ele>122.813109</ele>
        <time>2017-06-07T10:05:43.000Z</time>
      </trkpt>
      <trkpt lat="44.163410" lon="4.873707">
        <ele>122.745543</ele>
        <time>2017-06-07T10:05:49.000Z</time>
      </trkpt>
      <trkpt lat="44.163376" lon="4.873831">
        <ele>122.686248</ele>
        <time>2017-06-07T10:05:52.000Z</time>
      </trkpt>
      <trkpt lat="44.163330" lon="4.873962">
        <ele>122.621099</ele>
        <time>2017-06-07T10:05:55.000Z</time>
      </trkpt>
      <trkpt lat="44.163273" lon="4.874122">
        <ele>122.541304</ele>
        <time>2017-06-07T10:05:58.000Z</time>
      </trkpt>
      <trkpt lat="44.163227" lon="4.874240">
        <ele>122.486832</ele>
        <time>2017-06-07T10:06:00.000Z</time>
      </trkpt>
      <trkpt lat="44.163208" lon="4.874372">
        <ele>122.434563</ele>
        <time>2017-06-07T10:06:02.000Z</time>
      </trkpt>
      <trkpt lat="44.163166" lon="4.874550">
        <ele>122.361814</ele>
        <time>2017-06-07T10:06:05.000Z</time>
      </trkpt>
      <trkpt lat="44.163128" lon="4.874725">
        <ele>122.290828</ele>
        <time>2017-06-07T10:06:08.000Z</time>
      </trkpt>
      <trkpt lat="44.163082" lon="4.874892">
        <ele>122.221377</ele>
        <time>2017-06-07T10:06:11.000Z</time>
      </trkpt>
      <trkpt lat="44.163017" lon="4.875056">
        <ele>122.148633</ele>
        <time>2017-06-07T10:06:14.000Z</time>
      </trkpt>
      <trkpt lat="44.162940" lon="4.875189">
        <ele>122.082279</ele>
        <time>2017-06-07T10:06:17.000Z</time>
      </trkpt>
      <trkpt lat="44.162834" lon="4.875290">
        <ele>122.012790</ele>
        <time>2017-06-07T10:06:20.000Z</time>
      </trkpt>
      <trkpt lat="44.162690" lon="4.875339">
        <ele>121.932568</ele>
        <time>2017-06-07T10:06:23.000Z</time>
      </trkpt>
      <trkpt lat="44.162582" lon="4.875364">
        <ele>121.873317</ele>
        <time>2017-06-07T10:06:25.000Z</time>
      </trkpt>
      <trkpt lat="44.162476" lon="4.875395">
        <ele>121.814701</ele>
        <time>2017-06-07T10:06:27.000Z</time>
      </trkpt>
      <trkpt lat="44.162350" lon="4.875427">
        <ele>121.745386</ele>
        <time>2017-06-07T10:06:29.000Z</time>
      </trkpt>
      <trkpt lat="44.162240" lon="4.875459">
        <ele>121.684571</ele>
        <time>2017-06-07T10:06:31.000Z</time>
      </trkpt>
      <trkpt lat="44.162120" lon="4.875495">
        <ele>121.618139</ele>
        <time>2017-06-07T10:06:33.000Z</time>
      </trkpt>
      <trkpt lat="44.162006" lon="4.875523">
        <ele>121.555491</ele>
        <time>2017-06-07T10:06:35.000Z</time>
      </trkpt>
      <trkpt lat="44.161903" lon="4.875552">
        <ele>121.519771</ele>
        <time>2017-06-07T10:06:37.000Z</time>
      </trkpt>
      <trkpt lat="44.161793" lon="4.875575">
        <ele>121.484332</ele>
        <time>2017-06-07T10:06:39.000Z</time>
      </trkpt>
      <trkpt lat="44.161690" lon="4.875603">
        <ele>121.450897</ele>
        <time>2017-06-07T10:06:41.000Z</time>
      </trkpt>
      <trkpt lat="44.161602" lon="4.875639">
        <ele>121.421677</ele>
        <time>2017-06-07T10:06:43.000Z</time>
      </trkpt>
      <trkpt lat="44.161507" lon="4.875665">
        <ele>121.390831</ele>
        <time>2017-06-07T10:06:45.000Z</time>
      </trkpt>
      <trkpt lat="44.161415" lon="4.875701">
        <ele>121.360386</ele>
        <time>2017-06-07T10:06:47.000Z</time>
      </trkpt>
      <trkpt lat="44.161316" lon="4.875736">
        <ele>121.327846</ele>
        <time>2017-06-07T10:06:49.000Z</time>
      </trkpt>
      <trkpt lat="44.161200" lon="4.875774">
        <ele>121.289880</ele>
        <time>2017-06-07T10:06:51.000Z</time>
      </trkpt>
      <trkpt lat="44.161090" lon="4.875799">
        <ele>121.254371</ele>
        <time>2017-06-07T10:06:53.000Z</time>
      </trkpt>
      <trkpt lat="44.160970" lon="4.875825">
        <ele>121.215679</ele>
        <time>2017-06-07T10:06:55.000Z</time>
      </trkpt>
      <trkpt lat="44.160847" lon="4.875846">
        <ele>121.176197</ele>
        <time>2017-06-07T10:06:57.000Z</time>
      </trkpt>
      <trkpt lat="44.160732" lon="4.875883">
        <ele>121.138594</ele>
        <time>2017-06-07T10:06:59.000Z</time>
      </trkpt>
      <trkpt lat="44.160614" lon="4.875928">
        <ele>121.099616</ele>
        <time>2017-06-07T10:07:01.000Z</time>
      </trkpt>
      <trkpt lat="44.160484" lon="4.875962">
        <ele>121.057475</ele>
        <time>2017-06-07T10:07:03.000Z</time>
      </trkpt>
      <trkpt lat="44.160360" lon="4.875987">
        <ele>121.017556</ele>
        <time>2017-06-07T10:07:05.000Z</time>
      </trkpt>
      <trkpt lat="44.160236" lon="4.876024">
        <ele>120.977154</ele>
        <time>2017-06-07T10:07:07.000Z</time>
      </trkpt>
      <trkpt lat="44.160114" lon="4.876053">
        <ele>120.901430</ele>
        <time>2017-06-07T10:07:09.000Z</time>
      </trkpt>
      <trkpt lat="44.159985" lon="4.876098">
        <ele>120.819894</ele>
        <time>2017-06-07T10:07:11.000Z</time>
      </trkpt>
      <trkpt lat="44.159850" lon="4.876125">
        <ele>120.736271</ele>
        <time>2017-06-07T10:07:13.000Z</time>
      </trkpt>
      <trkpt lat="44.159714" lon="4.876159">
        <ele>120.651552</ele>
        <time>2017-06-07T10:07:15.000Z</time>
      </trkpt>
      <trkpt lat="44.159573" lon="4.876197">
        <ele>120.563497</ele>
        <time>2017-06-07T10:07:17.000Z</time>
      </trkpt>
      <trkpt lat="44.159430" lon="4.876233">
        <ele>120.474398</ele>
        <time>2017-06-07T10:07:19.000Z</time>
      </trkpt>
      <trkpt lat="44.159294" lon="4.876266">
        <ele>120.389755</ele>
        <time>2017-06-07T10:07:21.000Z</time>
      </trkpt>
      <trkpt lat="44.159157" lon="4.876294">
        <ele>120.304855</ele>
        <time>2017-06-07T10:07:23.000Z</time>
      </trkpt>
      <trkpt lat="44.158962" lon="4.876357">
        <ele>120.182121</ele>
        <time>2017-06-07T10:07:26.000Z</time>
      </trkpt>
      <trkpt lat="44.158833" lon="4.876405">
        <ele>120.100255</ele>
        <time>2017-06-07T10:07:28.000Z</time>
      </trkpt>
      <trkpt lat="44.158703" lon="4.876466">
        <ele>120.016150</ele>
        <time>2017-06-07T10:07:30.000Z</time>
      </trkpt>
      <trkpt lat="44.158577" lon="4.876528">
        <ele>119.934221</ele>
        <time>2017-06-07T10:07:32.000Z</time>
      </trkpt>
      <trkpt lat="44.158460" lon="4.876601">
        <ele>119.874495</ele>
        <time>2017-06-07T10:07:34.000Z</time>
      </trkpt>
      <trkpt lat="44.158344" lon="4.876679">
        <ele>119.876004</ele>
        <time>2017-06-07T10:07:36.000Z</time>
      </trkpt>
      <trkpt lat="44.158237" lon="4.876772">
        <ele>119.877483</ele>
        <time>2017-06-07T10:07:38.000Z</time>
      </trkpt>
      <trkpt lat="44.158134" lon="4.876868">
        <ele>119.878935</ele>
        <time>2017-06-07T10:07:40.000Z</time>
      </trkpt>
      <trkpt lat="44.158028" lon="4.876975">
        <ele>119.880469</ele>
        <time>2017-06-07T10:07:42.000Z</time>
      </trkpt>
      <trkpt lat="44.157917" lon="4.877081">
        <ele>119.882046</ele>
        <time>2017-06-07T10:07:44.000Z</time>
      </trkpt>
      <trkpt lat="44.157757" lon="4.877241">
        <ele>119.884355</ele>
        <time>2017-06-07T10:07:47.000Z</time>
      </trkpt>
      <trkpt lat="44.157640" lon="4.877350">
        <ele>119.886004</ele>
        <time>2017-06-07T10:07:49.000Z</time>
      </trkpt>
      <trkpt lat="44.157530" lon="4.877473">
        <ele>119.887657</ele>
        <time>2017-06-07T10:07:51.000Z</time>
      </trkpt>
      <trkpt lat="44.157420" lon="4.877580">
        <ele>119.889230</ele>
        <time>2017-06-07T10:07:53.000Z</time>
      </trkpt>
      <trkpt lat="44.157307" lon="4.877680">
        <ele>119.890799</ele>
        <time>2017-06-07T10:07:55.000Z</time>
      </trkpt>
      <trkpt lat="44.157204" lon="4.877780">
        <ele>119.892270</ele>
        <time>2017-06-07T10:07:57.000Z</time>
      </trkpt>
      <trkpt lat="44.157104" lon="4.877886">
        <ele>119.893743</ele>
        <time>2017-06-07T10:07:59.000Z</time>
      </trkpt>
      <trkpt lat="44.157010" lon="4.877974">
        <ele>119.895070</ele>
        <time>2017-06-07T10:08:01.000Z</time>
      </trkpt>
      <trkpt lat="44.156910" lon="4.878079">
        <ele>119.944220</ele>
        <time>2017-06-07T10:08:03.000Z</time>
      </trkpt>
      <trkpt lat="44.156803" lon="4.878178">
        <ele>120.000391</ele>
        <time>2017-06-07T10:08:05.000Z</time>
      </trkpt>
      <trkpt lat="44.156700" lon="4.878279">
        <ele>120.055471</ele>
        <time>2017-06-07T10:08:07.000Z</time>
      </trkpt>
      <trkpt lat="44.156597" lon="4.878388">
        <ele>120.112034</ele>
        <time>2017-06-07T10:08:09.000Z</time>
      </trkpt>
      <trkpt lat="44.156494" lon="4.878501">
        <ele>120.169364</ele>
        <time>2017-06-07T10:08:11.000Z</time>
      </trkpt>
      <trkpt lat="44.156387" lon="4.878614">
        <ele>120.228079</ele>
        <time>2017-06-07T10:08:13.000Z</time>
      </trkpt>
      <trkpt lat="44.156280" lon="4.878721">
        <ele>120.285676</ele>
        <time>2017-06-07T10:08:15.000Z</time>
      </trkpt>
      <trkpt lat="44.156178" lon="4.878847">
        <ele>120.345287</ele>
        <time>2017-06-07T10:08:17.000Z</time>
      </trkpt>
      <trkpt lat="44.156080" lon="4.878964">
        <ele>120.401724</ele>
        <time>2017-06-07T10:08:19.000Z</time>
      </trkpt>
      <trkpt lat="44.155975" lon="4.879077">
        <ele>120.459744</ele>
        <time>2017-06-07T10:08:21.000Z</time>
      </trkpt>
      <trkpt lat="44.155884" lon="4.879201">
        <ele>120.515405</ele>
        <time>2017-06-07T10:08:23.000Z</time>
      </trkpt>
      <trkpt lat="44.155785" lon="4.879314">
        <ele>120.571371</ele>
        <time>2017-06-07T10:08:25.000Z</time>
      </trkpt>
      <trkpt lat="44.155697" lon="4.879446">
        <ele>120.627914</ele>
        <time>2017-06-07T10:08:27.000Z</time>
      </trkpt>
      <trkpt lat="44.155610" lon="4.879573">
        <ele>120.682764</ele>
        <time>2017-06-07T10:08:29.000Z</time>
      </trkpt>
      <trkpt lat="44.155530" lon="4.879698">
        <ele>120.723432</ele>
        <time>2017-06-07T10:08:31.000Z</time>
      </trkpt>
      <trkpt lat="44.155453" lon="4.879826">
        <ele>120.763987</ele>
        <time>2017-06-07T10:08:33.000Z</time>
      </trkpt>
      <trkpt lat="44.155384" lon="4.879945">
        <ele>120.801134</ele>
        <time>2017-06-07T10:08:35.000Z</time>
      </trkpt>
      <trkpt lat="44.155310" lon="4.880065">
        <ele>120.839551</ele>
        <time>2017-06-07T10:08:37.000Z</time>
      </trkpt>
      <trkpt lat="44.155235" lon="4.880191">
        <ele>120.879299</ele>
        <time>2017-06-07T10:08:39.000Z</time>
      </trkpt>
      <trkpt lat="44.155167" lon="4.880326">
        <ele>120.919346</ele>
        <time>2017-06-07T10:08:41.000Z</time>
      </trkpt>
      <trkpt lat="44.155090" lon="4.880460">
        <ele>120.961028</ele>
        <time>2017-06-07T10:08:43.000Z</time>
      </trkpt>
      <trkpt lat="44.155014" lon="4.880585">
        <ele>121.000808</ele>
        <time>2017-06-07T10:08:45.000Z</time>
      </trkpt>
      <trkpt lat="44.154938" lon="4.880719">
        <ele>121.042279</ele>
        <time>2017-06-07T10:08:47.000Z</time>
      </trkpt>
      <trkpt lat="44.154873" lon="4.880845">
        <ele>121.079957</ele>
        <time>2017-06-07T10:08:49.000Z</time>
      </trkpt>
      <trkpt lat="44.154808" lon="4.880960">
        <ele>121.115501</ele>
        <time>2017-06-07T10:08:51.000Z</time>
      </trkpt>
      <trkpt lat="44.154743" lon="4.881081">
        <ele>121.152200</ele>
        <time>2017-06-07T10:08:53.000Z</time>
      </trkpt>
      <trkpt lat="44.154680" lon="4.881203">
        <ele>121.188695</ele>
        <time>2017-06-07T10:08:55.000Z</time>
      </trkpt>
      <trkpt lat="44.154620" lon="4.881322">
        <ele>121.224007</ele>
        <time>2017-06-07T10:08:57.000Z</time>
      </trkpt>
      <trkpt lat="44.154556" lon="4.881439">
        <ele>121.259728</ele>
        <time>2017-06-07T10:08:59.000Z</time>
      </trkpt>
      <trkpt lat="44.154484" lon="4.881551">
        <ele>121.302286</ele>
        <time>2017-06-07T10:09:01.000Z</time>
      </trkpt>
      <trkpt lat="44.154415" lon="4.881662">
        <ele>121.375928</ele>
        <time>2017-06-07T10:09:03.000Z</time>
      </trkpt>
      <trkpt lat="44.154346" lon="4.881782">
        <ele>121.453038</ele>
        <time>2017-06-07T10:09:05.000Z</time>
      </trkpt>
      <trkpt lat="44.154280" lon="4.881896">
        <ele>121.526489</ele>
        <time>2017-06-07T10:09:07.000Z</time>
      </trkpt>
      <trkpt lat="44.154205" lon="4.882020">
        <ele>121.607811</ele>
        <time>2017-06-07T10:09:09.000Z</time>
      </trkpt>
      <trkpt lat="44.154137" lon="4.882140">
        <ele>121.684486</ele>
        <time>2017-06-07T10:09:11.000Z</time>
      </trkpt>
      <trkpt lat="44.154070" lon="4.882263">
        <ele>121.761922</ele>
        <time>2017-06-07T10:09:13.000Z</time>
      </trkpt>
      <trkpt lat="44.154000" lon="4.882385">
        <ele>121.840251</ele>
        <time>2017-06-07T10:09:15.000Z</time>
      </trkpt>
      <trkpt lat="44.153930" lon="4.882494">
        <ele>121.913603</ele>
        <time>2017-06-07T10:09:17.000Z</time>
      </trkpt>
      <trkpt lat="44.153860" lon="4.882566">
        <ele>121.974403</ele>
        <time>2017-06-07T10:09:19.000Z</time>
      </trkpt>
      <trkpt lat="44.153760" lon="4.882623">
        <ele>122.049910</ele>
        <time>2017-06-07T10:09:22.000Z</time>
      </trkpt>
      <trkpt lat="44.153667" lon="4.882636">
        <ele>122.115231</ele>
        <time>2017-06-07T10:09:29.000Z</time>
      </trkpt>
      <trkpt lat="44.153614" lon="4.882766">
        <ele>122.190205</ele>
        <time>2017-06-07T10:09:40.000Z</time>
      </trkpt>
      <trkpt lat="44.153557" lon="4.882906">
        <ele>122.270920</ele>
        <time>2017-06-07T10:09:44.000Z</time>
      </trkpt>
      <trkpt lat="44.153560" lon="4.883032">
        <ele>122.334135</ele>
        <time>2017-06-07T10:09:47.000Z</time>
      </trkpt>
      <trkpt lat="44.153572" lon="4.883158">
        <ele>122.397869</ele>
        <time>2017-06-07T10:09:50.000Z</time>
      </trkpt>
      <trkpt lat="44.153572" lon="4.883295">
        <ele>122.466564</ele>
        <time>2017-06-07T10:09:54.000Z</time>
      </trkpt>
      <trkpt lat="44.153545" lon="4.883426">
        <ele>122.534908</ele>
        <time>2017-06-07T10:09:58.000Z</time>
      </trkpt>
      <trkpt lat="44.153503" lon="4.883561">
        <ele>122.449559</ele>
        <time>2017-06-07T10:10:02.000Z</time>
      </trkpt>
      <trkpt lat="44.153440" lon="4.883688">
        <ele>122.325338</ele>
        <time>2017-06-07T10:10:06.000Z</time>
      </trkpt>
      <trkpt lat="44.153340" lon="4.883800">
        <ele>122.181484</ele>
        <time>2017-06-07T10:10:09.000Z</time>
      </trkpt>
      <trkpt lat="44.153275" lon="4.883893">
        <ele>122.077028</ele>
        <time>2017-06-07T10:10:11.000Z</time>
      </trkpt>
      <trkpt lat="44.153202" lon="4.883994">
        <ele>121.961686</ele>
        <time>2017-06-07T10:10:13.000Z</time>
      </trkpt>
      <trkpt lat="44.153120" lon="4.884094">
        <ele>121.839506</ele>
        <time>2017-06-07T10:10:15.000Z</time>
      </trkpt>
      <trkpt lat="44.153030" lon="4.884206">
        <ele>121.704211</ele>
        <time>2017-06-07T10:10:17.000Z</time>
      </trkpt>
      <trkpt lat="44.152927" lon="4.884309">
        <ele>121.562058</ele>
        <time>2017-06-07T10:10:19.000Z</time>
      </trkpt>
      <trkpt lat="44.152817" lon="4.884406">
        <ele>121.416095</ele>
        <time>2017-06-07T10:10:21.000Z</time>
      </trkpt>
      <trkpt lat="44.152695" lon="4.884492">
        <ele>121.262788</ele>
        <time>2017-06-07T10:10:23.000Z</time>
      </trkpt>
      <trkpt lat="44.152570" lon="4.884575">
        <ele>121.107525</ele>
        <time>2017-06-07T10:10:25.000Z</time>
      </trkpt>
      <trkpt lat="44.152435" lon="4.884666">
        <ele>120.939368</ele>
        <time>2017-06-07T10:10:27.000Z</time>
      </trkpt>
      <trkpt lat="44.152300" lon="4.884749">
        <ele>120.773911</ele>
        <time>2017-06-07T10:10:29.000Z</time>
      </trkpt>
      <trkpt lat="44.152172" lon="4.884841">
        <ele>120.612416</ele>
        <time>2017-06-07T10:10:31.000Z</time>
      </trkpt>
      <trkpt lat="44.152046" lon="4.884925">
        <ele>120.496307</ele>
        <time>2017-06-07T10:10:33.000Z</time>
      </trkpt>
      <trkpt lat="44.151920" lon="4.885006">
        <ele>120.424886</ele>
        <time>2017-06-07T10:10:35.000Z</time>
      </trkpt>
      <trkpt lat="44.151794" lon="4.885091">
        <ele>120.352833</ele>
        <time>2017-06-07T10:10:37.000Z</time>
      </trkpt>
      <trkpt lat="44.151676" lon="4.885164">
        <ele>120.286382</ele>
        <time>2017-06-07T10:10:39.000Z</time>
      </trkpt>
      <trkpt lat="44.151560" lon="4.885246">
        <ele>120.219433</ele>
        <time>2017-06-07T10:10:41.000Z</time>
      </trkpt>
      <trkpt lat="44.151432" lon="4.885328">
        <ele>120.146922</ele>
        <time>2017-06-07T10:10:43.000Z</time>
      </trkpt>
      <trkpt lat="44.151310" lon="4.885404">
        <ele>120.078139</ele>
        <time>2017-06-07T10:10:45.000Z</time>
      </trkpt>
      <trkpt lat="44.151176" lon="4.885482">
        <ele>120.003392</ele>
        <time>2017-06-07T10:10:47.000Z</time>
      </trkpt>
      <trkpt lat="44.151043" lon="4.885554">
        <ele>119.929951</ele>
        <time>2017-06-07T10:10:49.000Z</time>
      </trkpt>
      <trkpt lat="44.150900" lon="4.885619">
        <ele>119.852530</ele>
        <time>2017-06-07T10:10:51.000Z</time>
      </trkpt>
      <trkpt lat="44.150760" lon="4.885686">
        <ele>119.776339</ele>
        <time>2017-06-07T10:10:53.000Z</time>
      </trkpt>
      <trkpt lat="44.150620" lon="4.885750">
        <ele>119.700501</ele>
        <time>2017-06-07T10:10:55.000Z</time>
      </trkpt>
      <trkpt lat="44.150475" lon="4.885817">
        <ele>119.621871</ele>
        <time>2017-06-07T10:10:57.000Z</time>
      </trkpt>
      <trkpt lat="44.150322" lon="4.885888">
        <ele>119.615748</ele>
        <time>2017-06-07T10:10:59.000Z</time>
      </trkpt>
      <trkpt lat="44.150173" lon="4.885961">
        <ele>119.629128</ele>
        <time>2017-06-07T10:11:01.000Z</time>
      </trkpt>
      <trkpt lat="44.150024" lon="4.886027">
        <ele>119.642374</ele>
        <time>2017-06-07T10:11:03.000Z</time>
      </trkpt>
      <trkpt lat="44.149876" lon="4.886091">
        <ele>119.655502</ele>
        <time>2017-06-07T10:11:05.000Z</time>
      </trkpt>
      <trkpt lat="44.149740" lon="4.886149">
        <ele>119.667551</ele>
        <time>2017-06-07T10:11:07.000Z</time>
      </trkpt>
      <trkpt lat="44.149600" lon="4.886210">
        <ele>119.679978</ele>
        <time>2017-06-07T10:11:09.000Z</time>
      </trkpt>
      <trkpt lat="44.149464" lon="4.886267">
        <ele>119.692010</ele>
        <time>2017-06-07T10:11:11.000Z</time>
      </trkpt>
      <trkpt lat="44.149334" lon="4.886320">
        <ele>119.703485</ele>
        <time>2017-06-07T10:11:13.000Z</time>
      </trkpt>
      <trkpt lat="44.149208" lon="4.886375">
        <ele>119.714671</ele>
        <time>2017-06-07T10:11:15.000Z</time>
      </trkpt>
      <trkpt lat="44.149080" lon="4.886446">
        <ele>119.726342</ele>
        <time>2017-06-07T10:11:17.000Z</time>
      </trkpt>
      <trkpt lat="44.148950" lon="4.886515">
        <ele>119.738128</ele>
        <time>2017-06-07T10:11:19.000Z</time>
      </trkpt>
      <trkpt lat="44.148823" lon="4.886588">
        <ele>119.749766</ele>
        <time>2017-06-07T10:11:21.000Z</time>
      </trkpt>
      <trkpt lat="44.148690" lon="4.886666">
        <ele>119.786551</ele>
        <time>2017-06-07T10:11:23.000Z</time>
      </trkpt>
      <trkpt lat="44.148556" lon="4.886747">
        <ele>119.863204</ele>
        <time>2017-06-07T10:11:25.000Z</time>
      </trkpt>
      <trkpt lat="44.148422" lon="4.886826">
        <ele>119.939561</ele>
        <time>2017-06-07T10:11:27.000Z</time>
      </trkpt>
      <trkpt lat="44.148290" lon="4.886913">
        <ele>120.016191</ele>
        <time>2017-06-07T10:11:29.000Z</time>
      </trkpt>
      <trkpt lat="44.148155" lon="4.887000">
        <ele>120.094247</ele>
        <time>2017-06-07T10:11:31.000Z</time>
      </trkpt>
      <trkpt lat="44.148020" lon="4.887083">
        <ele>120.171683</ele>
        <time>2017-06-07T10:11:33.000Z</time>
      </trkpt>
      <trkpt lat="44.147892" lon="4.887160">
        <ele>120.244849</ele>
        <time>2017-06-07T10:11:35.000Z</time>
      </trkpt>
      <trkpt lat="44.147774" lon="4.887241">
        <ele>120.313880</ele>
        <time>2017-06-07T10:11:37.000Z</time>
      </trkpt>
      <trkpt lat="44.147655" lon="4.887314">
        <ele>120.382113</ele>
        <time>2017-06-07T10:11:39.000Z</time>
      </trkpt>
      <trkpt lat="44.147540" lon="4.887377">
        <ele>120.446961</ele>
        <time>2017-06-07T10:11:41.000Z</time>
      </trkpt>
      <trkpt lat="44.147430" lon="4.887438">
        <ele>120.509092</ele>
        <time>2017-06-07T10:11:43.000Z</time>
      </trkpt>
      <trkpt lat="44.147324" lon="4.887503">
        <ele>120.569868</ele>
        <time>2017-06-07T10:11:45.000Z</time>
      </trkpt>
      <trkpt lat="44.147205" lon="4.887574">
        <ele>120.637801</ele>
        <time>2017-06-07T10:11:47.000Z</time>
      </trkpt>
      <trkpt lat="44.147080" lon="4.887634">
        <ele>120.698890</ele>
        <time>2017-06-07T10:11:49.000Z</time>
      </trkpt>
      <trkpt lat="44.146957" lon="4.887687">
        <ele>120.672904</ele>
        <time>2017-06-07T10:11:51.000Z</time>
      </trkpt>
      <trkpt lat="44.146830" lon="4.887754">
        <ele>120.645494</ele>
        <time>2017-06-07T10:11:53.000Z</time>
      </trkpt>
      <trkpt lat="44.146698" lon="4.887824">
        <ele>120.616987</ele>
        <time>2017-06-07T10:11:55.000Z</time>
      </trkpt>
      <trkpt lat="44.146570" lon="4.887892">
        <ele>120.589337</ele>
        <time>2017-06-07T10:11:57.000Z</time>
      </trkpt>
      <trkpt lat="44.146446" lon="4.887954">
        <ele>120.562746</ele>
        <time>2017-06-07T10:11:59.000Z</time>
      </trkpt>
      <trkpt lat="44.146324" lon="4.888012">
        <ele>120.536728</ele>
        <time>2017-06-07T10:12:01.000Z</time>
      </trkpt>
      <trkpt lat="44.146202" lon="4.888071">
        <ele>120.510662</ele>
        <time>2017-06-07T10:12:03.000Z</time>
      </trkpt>
      <trkpt lat="44.146088" lon="4.888128">
        <ele>120.486216</ele>
        <time>2017-06-07T10:12:05.000Z</time>
      </trkpt>
      <trkpt lat="44.145966" lon="4.888185">
        <ele>120.460244</ele>
        <time>2017-06-07T10:12:07.000Z</time>
      </trkpt>
      <trkpt lat="44.145840" lon="4.888245">
        <ele>120.433367</ele>
        <time>2017-06-07T10:12:09.000Z</time>
      </trkpt>
      <trkpt lat="44.145718" lon="4.888309">
        <ele>120.407055</ele>
        <time>2017-06-07T10:12:11.000Z</time>
      </trkpt>
      <trkpt lat="44.145596" lon="4.888375">
        <ele>120.380640</ele>
        <time>2017-06-07T10:12:13.000Z</time>
      </trkpt>
      <trkpt lat="44.145473" lon="4.888434">
        <ele>120.354384</ele>
        <time>2017-06-07T10:12:15.000Z</time>
      </trkpt>
      <trkpt lat="44.145355" lon="4.888497">
        <ele>120.263469</ele>
        <time>2017-06-07T10:12:17.000Z</time>
      </trkpt>
      <trkpt lat="44.145240" lon="4.888554">
        <ele>120.064986</ele>
        <time>2017-06-07T10:12:19.000Z</time>
      </trkpt>
      <trkpt lat="44.145126" lon="4.888613">
        <ele>119.867235</ele>
        <time>2017-06-07T10:12:21.000Z</time>
      </trkpt>
      <trkpt lat="44.145008" lon="4.888690">
        <ele>119.655355</ele>
        <time>2017-06-07T10:12:23.000Z</time>
      </trkpt>
      <trkpt lat="44.144900" lon="4.888773">
        <ele>119.454796</ele>
        <time>2017-06-07T10:12:25.000Z</time>
      </trkpt>
      <trkpt lat="44.144787" lon="4.888865">
        <ele>119.241981</ele>
        <time>2017-06-07T10:12:27.000Z</time>
      </trkpt>
      <trkpt lat="44.144672" lon="4.888953">
        <ele>119.028636</ele>
        <time>2017-06-07T10:12:29.000Z</time>
      </trkpt>
      <trkpt lat="44.144558" lon="4.889047">
        <ele>118.813236</ele>
        <time>2017-06-07T10:12:31.000Z</time>
      </trkpt>
      <trkpt lat="44.144444" lon="4.889144">
        <ele>118.596032</ele>
        <time>2017-06-07T10:12:33.000Z</time>
      </trkpt>
      <trkpt lat="44.144333" lon="4.889246">
        <ele>118.379820</ele>
        <time>2017-06-07T10:12:35.000Z</time>
      </trkpt>
      <trkpt lat="44.144215" lon="4.889344">
        <ele>118.156443</ele>
        <time>2017-06-07T10:12:37.000Z</time>
      </trkpt>
      <trkpt lat="44.144093" lon="4.889438">
        <ele>117.929749</ele>
        <time>2017-06-07T10:12:39.000Z</time>
      </trkpt>
      <trkpt lat="44.143974" lon="4.889539">
        <ele>117.703173</ele>
        <time>2017-06-07T10:12:41.000Z</time>
      </trkpt>
      <trkpt lat="44.143852" lon="4.889637">
        <ele>117.474184</ele>
        <time>2017-06-07T10:12:43.000Z</time>
      </trkpt>
      <trkpt lat="44.143723" lon="4.889733">
        <ele>117.147837</ele>
        <time>2017-06-07T10:12:45.000Z</time>
      </trkpt>
      <trkpt lat="44.143505" lon="4.889861">
        <ele>116.570652</ele>
        <time>2017-06-07T10:12:48.000Z</time>
      </trkpt>
      <trkpt lat="44.143353" lon="4.889935">
        <ele>116.177805</ele>
        <time>2017-06-07T10:12:50.000Z</time>
      </trkpt>
      <trkpt lat="44.143196" lon="4.890000">
        <ele>115.778191</ele>
        <time>2017-06-07T10:12:52.000Z</time>
      </trkpt>
      <trkpt lat="44.143032" lon="4.890062">
        <ele>115.363583</ele>
        <time>2017-06-07T10:12:54.000Z</time>
      </trkpt>
      <trkpt lat="44.142803" lon="4.890141">
        <ele>114.787977</ele>
        <time>2017-06-07T10:12:57.000Z</time>
      </trkpt>
      <trkpt lat="44.142662" lon="4.890200">
        <ele>114.428776</ele>
        <time>2017-06-07T10:12:59.000Z</time>
      </trkpt>
      <trkpt lat="44.142532" lon="4.890253">
        <ele>114.098292</ele>
        <time>2017-06-07T10:13:01.000Z</time>
      </trkpt>
      <trkpt lat="44.142340" lon="4.890316">
        <ele>113.617018</ele>
        <time>2017-06-07T10:13:04.000Z</time>
      </trkpt>
      <trkpt lat="44.142216" lon="4.890362">
        <ele>113.303932</ele>
        <time>2017-06-07T10:13:06.000Z</time>
      </trkpt>
      <trkpt lat="44.142086" lon="4.890408">
        <ele>113.032783</ele>
        <time>2017-06-07T10:13:08.000Z</time>
      </trkpt>
      <trkpt lat="44.141888" lon="4.890469">
        <ele>113.115183</ele>
        <time>2017-06-07T10:13:11.000Z</time>
      </trkpt>
      <trkpt lat="44.141754" lon="4.890511">
        <ele>113.170995</ele>
        <time>2017-06-07T10:13:13.000Z</time>
      </trkpt>
      <trkpt lat="44.141620" lon="4.890556">
        <ele>113.227004</ele>
        <time>2017-06-07T10:13:15.000Z</time>
      </trkpt>
      <trkpt lat="44.141490" lon="4.890605">
        <ele>113.281728</ele>
        <time>2017-06-07T10:13:17.000Z</time>
      </trkpt>
      <trkpt lat="44.141357" lon="4.890658">
        <ele>113.337939</ele>
        <time>2017-06-07T10:13:19.000Z</time>
      </trkpt>
      <trkpt lat="44.141230" lon="4.890719">
        <ele>113.392526</ele>
        <time>2017-06-07T10:13:21.000Z</time>
      </trkpt>
      <trkpt lat="44.141098" lon="4.890771">
        <ele>113.448266</ele>
        <time>2017-06-07T10:13:23.000Z</time>
      </trkpt>
      <trkpt lat="44.140960" lon="4.890823">
        <ele>113.506357</ele>
        <time>2017-06-07T10:13:25.000Z</time>
      </trkpt>
      <trkpt lat="44.140823" lon="4.890879">
        <ele>113.564372</ele>
        <time>2017-06-07T10:13:27.000Z</time>
      </trkpt>
      <trkpt lat="44.140690" lon="4.890931">
        <ele>113.620504</ele>
        <time>2017-06-07T10:13:29.000Z</time>
      </trkpt>
      <trkpt lat="44.140560" lon="4.890988">
        <ele>113.675883</ele>
        <time>2017-06-07T10:13:31.000Z</time>
      </trkpt>
      <trkpt lat="44.140434" lon="4.891041">
        <ele>113.729365</ele>
        <time>2017-06-07T10:13:33.000Z</time>
      </trkpt>
      <trkpt lat="44.140310" lon="4.891095">
        <ele>113.763968</ele>
        <time>2017-06-07T10:13:35.000Z</time>
      </trkpt>
      <trkpt lat="44.140182" lon="4.891146">
        <ele>113.780939</ele>
        <time>2017-06-07T10:13:37.000Z</time>
      </trkpt>
      <trkpt lat="44.140053" lon="4.891196">
        <ele>113.798009</ele>
        <time>2017-06-07T10:13:39.000Z</time>
      </trkpt>
      <trkpt lat="44.139923" lon="4.891248">
        <ele>113.815251</ele>
        <time>2017-06-07T10:13:41.000Z</time>
      </trkpt>
      <trkpt lat="44.139793" lon="4.891305">
        <ele>113.832625</ele>
        <time>2017-06-07T10:13:43.000Z</time>
      </trkpt>
      <trkpt lat="44.139668" lon="4.891364">
        <ele>113.849450</ele>
        <time>2017-06-07T10:13:45.000Z</time>
      </trkpt>
      <trkpt lat="44.139540" lon="4.891421">
        <ele>113.866581</ele>
        <time>2017-06-07T10:13:47.000Z</time>
      </trkpt>
      <trkpt lat="44.139420" lon="4.891474">
        <ele>113.882629</ele>
        <time>2017-06-07T10:13:49.000Z</time>
      </trkpt>
      <trkpt lat="44.139300" lon="4.891528">
        <ele>113.898705</ele>
        <time>2017-06-07T10:13:51.000Z</time>
      </trkpt>
      <trkpt lat="44.139190" lon="4.891597">
        <ele>113.914084</ele>
        <time>2017-06-07T10:13:53.000Z</time>
      </trkpt>
      <trkpt lat="44.139060" lon="4.891653">
        <ele>113.931430</ele>
        <time>2017-06-07T10:13:55.000Z</time>
      </trkpt>
      <trkpt lat="44.138935" lon="4.891707">
        <ele>113.948114</ele>
        <time>2017-06-07T10:13:57.000Z</time>
      </trkpt>
      <trkpt lat="44.138810" lon="4.891773">
        <ele>113.965155</ele>
        <time>2017-06-07T10:13:59.000Z</time>
      </trkpt>
      <trkpt lat="44.138687" lon="4.891832">
        <ele>113.981739</ele>
        <time>2017-06-07T10:14:01.000Z</time>
      </trkpt>
      <trkpt lat="44.138573" lon="4.891887">
        <ele>114.027395</ele>
        <time>2017-06-07T10:14:03.000Z</time>
      </trkpt>
      <trkpt lat="44.138454" lon="4.891940">
        <ele>114.082952</ele>
        <time>2017-06-07T10:14:05.000Z</time>
      </trkpt>
      <trkpt lat="44.138330" lon="4.891997">
        <ele>114.141018</ele>
        <time>2017-06-07T10:14:07.000Z</time>
      </trkpt>
      <trkpt lat="44.138203" lon="4.892051">
        <ele>114.200065</ele>
        <time>2017-06-07T10:14:09.000Z</time>
      </trkpt>
      <trkpt lat="44.138080" lon="4.892112">
        <ele>114.258124</ele>
        <time>2017-06-07T10:14:11.000Z</time>
      </trkpt>
      <trkpt lat="44.137962" lon="4.892162">
        <ele>114.312971</ele>
        <time>2017-06-07T10:14:13.000Z</time>
      </trkpt>
      <trkpt lat="44.137848" lon="4.892213">
        <ele>114.366215</ele>
        <time>2017-06-07T10:14:15.000Z</time>
      </trkpt>
      <trkpt lat="44.137745" lon="4.892266">
        <ele>114.415043</ele>
        <time>2017-06-07T10:14:17.000Z</time>
      </trkpt>
      <trkpt lat="44.137634" lon="4.892311">
        <ele>114.466451</ele>
        <time>2017-06-07T10:14:19.000Z</time>
      </trkpt>
      <trkpt lat="44.137512" lon="4.892349">
        <ele>114.522043</ele>
        <time>2017-06-07T10:14:21.000Z</time>
      </trkpt>
      <trkpt lat="44.137390" lon="4.892407">
        <ele>114.579367</ele>
        <time>2017-06-07T10:14:23.000Z</time>
      </trkpt>
      <trkpt lat="44.137283" lon="4.892457">
        <ele>114.629554</ele>
        <time>2017-06-07T10:14:25.000Z</time>
      </trkpt>
      <trkpt lat="44.137177" lon="4.892506">
        <ele>114.679219</ele>
        <time>2017-06-07T10:14:27.000Z</time>
      </trkpt>
      <trkpt lat="44.137080" lon="4.892560">
        <ele>114.725670</ele>
        <time>2017-06-07T10:14:29.000Z</time>
      </trkpt>
      <trkpt lat="44.136960" lon="4.892613">
        <ele>114.781650</ele>
        <time>2017-06-07T10:14:32.000Z</time>
      </trkpt>
      <trkpt lat="44.136840" lon="4.892672">
        <ele>114.841464</ele>
        <time>2017-06-07T10:14:35.000Z</time>
      </trkpt>
      <trkpt lat="44.136745" lon="4.892713">
        <ele>114.888360</ele>
        <time>2017-06-07T10:14:38.000Z</time>
      </trkpt>
      <trkpt lat="44.136654" lon="4.892774">
        <ele>114.935977</ele>
        <time>2017-06-07T10:14:42.000Z</time>
      </trkpt>
      <trkpt lat="44.136630" lon="4.892923">
        <ele>114.987656</ele>
        <time>2017-06-07T10:14:46.000Z</time>
      </trkpt>
      <trkpt lat="44.136642" lon="4.893058">
        <ele>115.033691</ele>
        <time>2017-06-07T10:14:49.000Z</time>
      </trkpt>
      <trkpt lat="44.136630" lon="4.893212">
        <ele>115.086113</ele>
        <time>2017-06-07T10:14:52.000Z</time>
      </trkpt>
      <trkpt lat="44.136623" lon="4.893394">
        <ele>115.147793</ele>
        <time>2017-06-07T10:14:55.000Z</time>
      </trkpt>
      <trkpt lat="44.136604" lon="4.893577">
        <ele>115.210368</ele>
        <time>2017-06-07T10:14:58.000Z</time>
      </trkpt>
      <trkpt lat="44.136593" lon="4.893715">
        <ele>115.257356</ele>
        <time>2017-06-07T10:15:00.000Z</time>
      </trkpt>
      <trkpt lat="44.136574" lon="4.893851">
        <ele>115.304245</ele>
        <time>2017-06-07T10:15:02.000Z</time>
      </trkpt>
      <trkpt lat="44.136562" lon="4.893992">
        <ele>115.352296</ele>
        <time>2017-06-07T10:15:04.000Z</time>
      </trkpt>
      <trkpt lat="44.136543" lon="4.894140">
        <ele>115.403176</ele>
        <time>2017-06-07T10:15:06.000Z</time>
      </trkpt>
      <trkpt lat="44.136530" lon="4.894282">
        <ele>115.451621</ele>
        <time>2017-06-07T10:15:08.000Z</time>
      </trkpt>
      <trkpt lat="44.136528" lon="4.894413">
        <ele>115.495963</ele>
        <time>2017-06-07T10:15:10.000Z</time>
      </trkpt>
      <trkpt lat="44.136517" lon="4.894544">
        <ele>115.540598</ele>
        <time>2017-06-07T10:15:12.000Z</time>
      </trkpt>
      <trkpt lat="44.136497" lon="4.894682">
        <ele>115.588242</ele>
        <time>2017-06-07T10:15:14.000Z</time>
      </trkpt>
      <trkpt lat="44.136480" lon="4.894824">
        <ele>115.634865</ele>
        <time>2017-06-07T10:15:16.000Z</time>
      </trkpt>
      <trkpt lat="44.136460" lon="4.894969">
        <ele>115.658813</ele>
        <time>2017-06-07T10:15:18.000Z</time>
      </trkpt>
      <trkpt lat="44.136444" lon="4.895118">
        <ele>115.683248</ele>
        <time>2017-06-07T10:15:20.000Z</time>
      </trkpt>
      <trkpt lat="44.136430" lon="4.895268">
        <ele>115.707781</ele>
        <time>2017-06-07T10:15:22.000Z</time>
      </trkpt>
      <trkpt lat="44.136410" lon="4.895426">
        <ele>115.733802</ele>
        <time>2017-06-07T10:15:24.000Z</time>
      </trkpt>
      <trkpt lat="44.136390" lon="4.895583">
        <ele>115.759664</ele>
        <time>2017-06-07T10:15:26.000Z</time>
      </trkpt>
      <trkpt lat="44.136375" lon="4.895731">
        <ele>115.783906</ele>
        <time>2017-06-07T10:15:28.000Z</time>
      </trkpt>
      <trkpt lat="44.136360" lon="4.895880">
        <ele>115.808308</ele>
        <time>2017-06-07T10:15:30.000Z</time>
      </trkpt>
      <trkpt lat="44.136353" lon="4.896027">
        <ele>115.832203</ele>
        <time>2017-06-07T10:15:32.000Z</time>
      </trkpt>
      <trkpt lat="44.136345" lon="4.896168">
        <ele>115.855142</ele>
        <time>2017-06-07T10:15:34.000Z</time>
      </trkpt>
      <trkpt lat="44.136337" lon="4.896322">
        <ele>115.880185</ele>
        <time>2017-06-07T10:15:36.000Z</time>
      </trkpt>
      <trkpt lat="44.136333" lon="4.896467">
        <ele>115.903719</ele>
        <time>2017-06-07T10:15:38.000Z</time>
      </trkpt>
      <trkpt lat="44.136326" lon="4.896611">
        <ele>115.927128</ele>
        <time>2017-06-07T10:15:40.000Z</time>
      </trkpt>
      <trkpt lat="44.136320" lon="4.896759">
        <ele>115.951170</ele>
        <time>2017-06-07T10:15:42.000Z</time>
      </trkpt>
      <trkpt lat="44.136310" lon="4.896906">
        <ele>115.975119</ele>
        <time>2017-06-07T10:15:44.000Z</time>
      </trkpt>
      <trkpt lat="44.136300" lon="4.897056">
        <ele>115.999552</ele>
        <time>2017-06-07T10:15:46.000Z</time>
      </trkpt>
      <trkpt lat="44.136290" lon="4.897206">
        <ele>116.023985</ele>
        <time>2017-06-07T10:15:48.000Z</time>
      </trkpt>
      <trkpt lat="44.136290" lon="4.897351">
        <ele>116.061976</ele>
        <time>2017-06-07T10:15:50.000Z</time>
      </trkpt>
      <trkpt lat="44.136288" lon="4.897500">
        <ele>116.129369</ele>
        <time>2017-06-07T10:15:52.000Z</time>
      </trkpt>
      <trkpt lat="44.136284" lon="4.897644">
        <ele>116.194538</ele>
        <time>2017-06-07T10:15:54.000Z</time>
      </trkpt>
      <trkpt lat="44.136280" lon="4.897803">
        <ele>116.266486</ele>
        <time>2017-06-07T10:15:56.000Z</time>
      </trkpt>
      <trkpt lat="44.136280" lon="4.897957">
        <ele>116.336129</ele>
        <time>2017-06-07T10:15:58.000Z</time>
      </trkpt>
      <trkpt lat="44.136272" lon="4.898110">
        <ele>116.405502</ele>
        <time>2017-06-07T10:16:00.000Z</time>
      </trkpt>
      <trkpt lat="44.136265" lon="4.898256">
        <ele>116.471674</ele>
        <time>2017-06-07T10:16:02.000Z</time>
      </trkpt>
      <trkpt lat="44.136260" lon="4.898409">
        <ele>116.540936</ele>
        <time>2017-06-07T10:16:04.000Z</time>
      </trkpt>
      <trkpt lat="44.136260" lon="4.898564">
        <ele>116.611031</ele>
        <time>2017-06-07T10:16:06.000Z</time>
      </trkpt>
      <trkpt lat="44.136250" lon="4.898711">
        <ele>116.677806</ele>
        <time>2017-06-07T10:16:08.000Z</time>
      </trkpt>
      <trkpt lat="44.136246" lon="4.898851">
        <ele>116.741167</ele>
        <time>2017-06-07T10:16:10.000Z</time>
      </trkpt>
      <trkpt lat="44.136240" lon="4.898993">
        <ele>116.805494</ele>
        <time>2017-06-07T10:16:12.000Z</time>
      </trkpt>
      <trkpt lat="44.136230" lon="4.899132">
        <ele>116.868668</ele>
        <time>2017-06-07T10:16:14.000Z</time>
      </trkpt>
      <trkpt lat="44.136227" lon="4.899273">
        <ele>116.932460</ele>
        <time>2017-06-07T10:16:16.000Z</time>
      </trkpt>
      <trkpt lat="44.136220" lon="4.899415">
        <ele>116.996827</ele>
        <time>2017-06-07T10:16:18.000Z</time>
      </trkpt>
      <trkpt lat="44.136215" lon="4.899557">
        <ele>117.061120</ele>
        <time>2017-06-07T10:16:20.000Z</time>
      </trkpt>
      <trkpt lat="44.136204" lon="4.899702">
        <ele>117.127058</ele>
        <time>2017-06-07T10:16:22.000Z</time>
      </trkpt>
      <trkpt lat="44.136200" lon="4.899850">
        <ele>117.186073</ele>
        <time>2017-06-07T10:16:24.000Z</time>
      </trkpt>
      <trkpt lat="44.136208" lon="4.899993">
        <ele>117.226666</ele>
        <time>2017-06-07T10:16:26.000Z</time>
      </trkpt>
      <trkpt lat="44.136210" lon="4.900138">
        <ele>117.267709</ele>
        <time>2017-06-07T10:16:28.000Z</time>
      </trkpt>
      <trkpt lat="44.136196" lon="4.900291">
        <ele>117.311359</ele>
        <time>2017-06-07T10:16:31.000Z</time>
      </trkpt>
      <trkpt lat="44.136208" lon="4.900429">
        <ele>117.350699</ele>
        <time>2017-06-07T10:17:07.000Z</time>
      </trkpt>
      <trkpt lat="44.136220" lon="4.900559">
        <ele>117.387793</ele>
        <time>2017-06-07T10:17:12.000Z</time>
      </trkpt>
      <trkpt lat="44.136210" lon="4.900708">
        <ele>117.430145</ele>
        <time>2017-06-07T10:17:17.000Z</time>
      </trkpt>
      <trkpt lat="44.136204" lon="4.900845">
        <ele>117.468988</ele>
        <time>2017-06-07T10:17:20.000Z</time>
      </trkpt>
      <trkpt lat="44.136196" lon="4.900987">
        <ele>117.509299</ele>
        <time>2017-06-07T10:17:23.000Z</time>
      </trkpt>
      <trkpt lat="44.136204" lon="4.901144">
        <ele>117.553842</ele>
        <time>2017-06-07T10:17:27.000Z</time>
      </trkpt>
      <trkpt lat="44.136210" lon="4.901301">
        <ele>117.598337</ele>
        <time>2017-06-07T10:17:31.000Z</time>
      </trkpt>
      <trkpt lat="44.136227" lon="4.901453">
        <ele>117.641873</ele>
        <time>2017-06-07T10:17:35.000Z</time>
      </trkpt>
      <trkpt lat="44.136230" lon="4.901612">
        <ele>117.686886</ele>
        <time>2017-06-07T10:17:39.000Z</time>
      </trkpt>
      <trkpt lat="44.136246" lon="4.901752">
        <ele>117.727006</ele>
        <time>2017-06-07T10:17:42.000Z</time>
      </trkpt>
      <trkpt lat="44.136253" lon="4.901906">
        <ele>117.770676</ele>
        <time>2017-06-07T10:17:45.000Z</time>
      </trkpt>
      <trkpt lat="44.136260" lon="4.902057">
        <ele>117.813499</ele>
        <time>2017-06-07T10:17:48.000Z</time>
      </trkpt>
      <trkpt lat="44.136280" lon="4.902205">
        <ele>117.856119</ele>
        <time>2017-06-07T10:17:51.000Z</time>
      </trkpt>
      <trkpt lat="44.136276" lon="4.902339">
        <ele>117.840847</ele>
        <time>2017-06-07T10:17:54.000Z</time>
      </trkpt>
      <trkpt lat="44.136173" lon="4.902394">
        <ele>117.692352</ele>
        <time>2017-06-07T10:17:58.000Z</time>
      </trkpt>
      <trkpt lat="44.136047" lon="4.902388">
        <ele>117.522628</ele>
        <time>2017-06-07T10:18:01.000Z</time>
      </trkpt>
      <trkpt lat="44.135918" lon="4.902390">
        <ele>117.348954</ele>
        <time>2017-06-07T10:18:04.000Z</time>
      </trkpt>
      <trkpt lat="44.135820" lon="4.902380">
        <ele>117.216670</ele>
        <time>2017-06-07T10:18:06.000Z</time>
      </trkpt>
      <trkpt lat="44.135690" lon="4.902358">
        <ele>117.040374</ele>
        <time>2017-06-07T10:18:09.000Z</time>
      </trkpt>
      <trkpt lat="44.135590" lon="4.902347">
        <ele>116.905332</ele>
        <time>2017-06-07T10:18:11.000Z</time>
      </trkpt>
      <trkpt lat="44.135490" lon="4.902342">
        <ele>116.770623</ele>
        <time>2017-06-07T10:18:13.000Z</time>
      </trkpt>
      <trkpt lat="44.135395" lon="4.902355">
        <ele>116.642115</ele>
        <time>2017-06-07T10:18:15.000Z</time>
      </trkpt>
      <trkpt lat="44.135296" lon="4.902370">
        <ele>116.508053</ele>
        <time>2017-06-07T10:18:17.000Z</time>
      </trkpt>
      <trkpt lat="44.135204" lon="4.902383">
        <ele>116.383565</ele>
        <time>2017-06-07T10:18:19.000Z</time>
      </trkpt>
      <trkpt lat="44.135075" lon="4.902406">
        <ele>116.208485</ele>
        <time>2017-06-07T10:18:22.000Z</time>
      </trkpt>
      <trkpt lat="44.134987" lon="4.902408">
        <ele>116.090001</ele>
        <time>2017-06-07T10:18:24.000Z</time>
      </trkpt>
      <trkpt lat="44.134865" lon="4.902421">
        <ele>115.925281</ele>
        <time>2017-06-07T10:18:27.000Z</time>
      </trkpt>
      <trkpt lat="44.134773" lon="4.902435">
        <ele>115.800692</ele>
        <time>2017-06-07T10:18:31.000Z</time>
      </trkpt>
      <trkpt lat="44.134680" lon="4.902440">
        <ele>115.675399</ele>
        <time>2017-06-07T10:18:35.000Z</time>
      </trkpt>
      <trkpt lat="44.134586" lon="4.902460">
        <ele>115.547387</ele>
        <time>2017-06-07T10:18:39.000Z</time>
      </trkpt>
      <trkpt lat="44.134490" lon="4.902493">
        <ele>115.411868</ele>
        <time>2017-06-07T10:18:43.000Z</time>
      </trkpt>
      <trkpt lat="44.134388" lon="4.902501">
        <ele>115.267197</ele>
        <time>2017-06-07T10:18:47.000Z</time>
      </trkpt>
      <trkpt lat="44.134262" lon="4.902511">
        <ele>115.088479</ele>
        <time>2017-06-07T10:18:51.000Z</time>
      </trkpt>
      <trkpt lat="44.134136" lon="4.902522">
        <ele>114.909701</ele>
        <time>2017-06-07T10:18:54.000Z</time>
      </trkpt>
      <trkpt lat="44.134014" lon="4.902538">
        <ele>114.736173</ele>
        <time>2017-06-07T10:18:57.000Z</time>
      </trkpt>
      <trkpt lat="44.133892" lon="4.902548">
        <ele>114.563110</ele>
        <time>2017-06-07T10:19:00.000Z</time>
      </trkpt>
      <trkpt lat="44.133766" lon="4.902560">
        <ele>114.384265</ele>
        <time>2017-06-07T10:19:03.000Z</time>
      </trkpt>
      <trkpt lat="44.133648" lon="4.902587">
        <ele>114.214927</ele>
        <time>2017-06-07T10:19:06.000Z</time>
      </trkpt>
      <trkpt lat="44.133530" lon="4.902592">
        <ele>114.047750</ele>
        <time>2017-06-07T10:19:09.000Z</time>
      </trkpt>
      <trkpt lat="44.133415" lon="4.902599">
        <ele>113.884743</ele>
        <time>2017-06-07T10:19:12.000Z</time>
      </trkpt>
      <trkpt lat="44.133310" lon="4.902602">
        <ele>113.736021</ele>
        <time>2017-06-07T10:19:15.000Z</time>
      </trkpt>
      <trkpt lat="44.133194" lon="4.902604">
        <ele>113.571741</ele>
        <time>2017-06-07T10:19:18.000Z</time>
      </trkpt>
      <trkpt lat="44.133070" lon="4.902607">
        <ele>113.396118</ele>
        <time>2017-06-07T10:19:21.000Z</time>
      </trkpt>
      <trkpt lat="44.132973" lon="4.902608">
        <ele>113.258753</ele>
        <time>2017-06-07T10:19:24.000Z</time>
      </trkpt>
      <trkpt lat="44.132866" lon="4.902600">
        <ele>113.107012</ele>
        <time>2017-06-07T10:19:27.000Z</time>
      </trkpt>
      <trkpt lat="44.132740" lon="4.902615">
        <ele>112.927933</ele>
        <time>2017-06-07T10:19:30.000Z</time>
      </trkpt>
      <trkpt lat="44.132645" lon="4.902624">
        <ele>112.856000</ele>
        <time>2017-06-07T10:19:32.000Z</time>
      </trkpt>
      <trkpt lat="44.132538" lon="4.902634">
        <ele>112.783431</ele>
        <time>2017-06-07T10:19:34.000Z</time>
      </trkpt>
      <trkpt lat="44.132430" lon="4.902648">
        <ele>112.710032</ele>
        <time>2017-06-07T10:19:36.000Z</time>
      </trkpt>
      <trkpt lat="44.132328" lon="4.902669">
        <ele>112.640260</ele>
        <time>2017-06-07T10:19:38.000Z</time>
      </trkpt>
      <trkpt lat="44.132220" lon="4.902697">
        <ele>112.565923</ele>
        <time>2017-06-07T10:19:40.000Z</time>
      </trkpt>
      <trkpt lat="44.132114" lon="4.902714">
        <ele>112.493720</ele>
        <time>2017-06-07T10:19:42.000Z</time>
      </trkpt>
      <trkpt lat="44.132008" lon="4.902736">
        <ele>112.421199</ele>
        <time>2017-06-07T10:19:44.000Z</time>
      </trkpt>
      <trkpt lat="44.131897" lon="4.902761">
        <ele>112.345111</ele>
        <time>2017-06-07T10:19:46.000Z</time>
      </trkpt>
      <trkpt lat="44.131783" lon="4.902793">
        <ele>112.266418</ele>
        <time>2017-06-07T10:19:48.000Z</time>
      </trkpt>
      <trkpt lat="44.131670" lon="4.902829">
        <ele>112.187978</ele>
        <time>2017-06-07T10:19:50.000Z</time>
      </trkpt>
      <trkpt lat="44.131560" lon="4.902860">
        <ele>112.112034</ele>
        <time>2017-06-07T10:19:52.000Z</time>
      </trkpt>
      <trkpt lat="44.131454" lon="4.902903">
        <ele>112.037327</ele>
        <time>2017-06-07T10:19:54.000Z</time>
      </trkpt>
      <trkpt lat="44.131340" lon="4.902934">
        <ele>111.958728</ele>
        <time>2017-06-07T10:19:56.000Z</time>
      </trkpt>
      <trkpt lat="44.131233" lon="4.902972">
        <ele>111.884007</ele>
        <time>2017-06-07T10:19:58.000Z</time>
      </trkpt>
      <trkpt lat="44.131130" lon="4.903002">
        <ele>111.812801</ele>
        <time>2017-06-07T10:20:00.000Z</time>
      </trkpt>
      <trkpt lat="44.131012" lon="4.903037">
        <ele>111.731161</ele>
        <time>2017-06-07T10:20:02.000Z</time>
      </trkpt>
      <trkpt lat="44.130900" lon="4.903072">
        <ele>111.724063</ele>
        <time>2017-06-07T10:20:04.000Z</time>
      </trkpt>
      <trkpt lat="44.130787" lon="4.903103">
        <ele>111.774180</ele>
        <time>2017-06-07T10:20:06.000Z</time>
      </trkpt>
      <trkpt lat="44.130676" lon="4.903146">
        <ele>111.824314</ele>
        <time>2017-06-07T10:20:08.000Z</time>
      </trkpt>
      <trkpt lat="44.130570" lon="4.903204">
        <ele>111.873870</ele>
        <time>2017-06-07T10:20:10.000Z</time>
      </trkpt>
      <trkpt lat="44.130460" lon="4.903252">
        <ele>111.924029</ele>
        <time>2017-06-07T10:20:12.000Z</time>
      </trkpt>
      <trkpt lat="44.130350" lon="4.903306">
        <ele>111.974781</ele>
        <time>2017-06-07T10:20:14.000Z</time>
      </trkpt>
      <trkpt lat="44.130238" lon="4.903356">
        <ele>112.025958</ele>
        <time>2017-06-07T10:20:16.000Z</time>
      </trkpt>
      <trkpt lat="44.130127" lon="4.903400">
        <ele>112.076177</ele>
        <time>2017-06-07T10:20:18.000Z</time>
      </trkpt>
      <trkpt lat="44.130020" lon="4.903445">
        <ele>112.124814</ele>
        <time>2017-06-07T10:20:20.000Z</time>
      </trkpt>
      <trkpt lat="44.129920" lon="4.903487">
        <ele>112.170263</ele>
        <time>2017-06-07T10:20:22.000Z</time>
      </trkpt>
      <trkpt lat="44.129820" lon="4.903527">
        <ele>112.215536</ele>
        <time>2017-06-07T10:20:24.000Z</time>
      </trkpt>
      <trkpt lat="44.129715" lon="4.903569">
        <ele>112.263073</ele>
        <time>2017-06-07T10:20:26.000Z</time>
      </trkpt>
      <trkpt lat="44.129610" lon="4.903609">
        <ele>112.310441</ele>
        <time>2017-06-07T10:20:28.000Z</time>
      </trkpt>
      <trkpt lat="44.129498" lon="4.903629">
        <ele>112.359577</ele>
        <time>2017-06-07T10:20:30.000Z</time>
      </trkpt>
      <trkpt lat="44.129387" lon="4.903662">
        <ele>112.408966</ele>
        <time>2017-06-07T10:20:32.000Z</time>
      </trkpt>
      <trkpt lat="44.129284" lon="4.903691">
        <ele>112.454693</ele>
        <time>2017-06-07T10:20:34.000Z</time>
      </trkpt>
      <trkpt lat="44.129180" lon="4.903720">
        <ele>112.467690</ele>
        <time>2017-06-07T10:20:36.000Z</time>
      </trkpt>
      <trkpt lat="44.129086" lon="4.903740">
        <ele>112.445907</ele>
        <time>2017-06-07T10:20:38.000Z</time>
      </trkpt>
      <trkpt lat="44.128980" lon="4.903750">
        <ele>112.421570</ele>
        <time>2017-06-07T10:20:40.000Z</time>
      </trkpt>
      <trkpt lat="44.128880" lon="4.903767">
        <ele>112.398492</ele>
        <time>2017-06-07T10:20:42.000Z</time>
      </trkpt>
      <trkpt lat="44.128773" lon="4.903798">
        <ele>112.373456</ele>
        <time>2017-06-07T10:20:44.000Z</time>
      </trkpt>
      <trkpt lat="44.128670" lon="4.903829">
        <ele>112.349317</ele>
        <time>2017-06-07T10:20:46.000Z</time>
      </trkpt>
      <trkpt lat="44.128574" lon="4.903847">
        <ele>112.327127</ele>
        <time>2017-06-07T10:20:48.000Z</time>
      </trkpt>
      <trkpt lat="44.128470" lon="4.903852">
        <ele>112.303289</ele>
        <time>2017-06-07T10:20:50.000Z</time>
      </trkpt>
      <trkpt lat="44.128365" lon="4.903865">
        <ele>112.279141</ele>
        <time>2017-06-07T10:20:52.000Z</time>
      </trkpt>
      <trkpt lat="44.128250" lon="4.903879">
        <ele>112.252697</ele>
        <time>2017-06-07T10:20:54.000Z</time>
      </trkpt>
      <trkpt lat="44.128143" lon="4.903885">
        <ele>112.228166</ele>
        <time>2017-06-07T10:20:56.000Z</time>
      </trkpt>
      <trkpt lat="44.128036" lon="4.903889">
        <ele>112.203646</ele>
        <time>2017-06-07T10:20:58.000Z</time>
      </trkpt>
      <trkpt lat="44.127926" lon="4.903891">
        <ele>112.178445</ele>
        <time>2017-06-07T10:21:00.000Z</time>
      </trkpt>
      <trkpt lat="44.127808" lon="4.903890">
        <ele>112.151414</ele>
        <time>2017-06-07T10:21:02.000Z</time>
      </trkpt>
      <trkpt lat="44.127705" lon="4.903897">
        <ele>112.127791</ele>
        <time>2017-06-07T10:21:04.000Z</time>
      </trkpt>
      <trkpt lat="44.127594" lon="4.903905">
        <ele>112.102329</ele>
        <time>2017-06-07T10:21:06.000Z</time>
      </trkpt>
      <trkpt lat="44.127480" lon="4.903909">
        <ele>112.076206</ele>
        <time>2017-06-07T10:21:08.000Z</time>
      </trkpt>
      <trkpt lat="44.127373" lon="4.903910">
        <ele>112.016180</ele>
        <time>2017-06-07T10:21:10.000Z</time>
      </trkpt>
      <trkpt lat="44.127260" lon="4.903914">
        <ele>111.930583</ele>
        <time>2017-06-07T10:21:12.000Z</time>
      </trkpt>
      <trkpt lat="44.127144" lon="4.903904">
        <ele>111.842573</ele>
        <time>2017-06-07T10:21:14.000Z</time>
      </trkpt>
      <trkpt lat="44.127026" lon="4.903907">
        <ele>111.753202</ele>
        <time>2017-06-07T10:21:16.000Z</time>
      </trkpt>
      <trkpt lat="44.126910" lon="4.903904">
        <ele>111.665345</ele>
        <time>2017-06-07T10:21:18.000Z</time>
      </trkpt>
      <trkpt lat="44.126793" lon="4.903894">
        <ele>111.576580</ele>
        <time>2017-06-07T10:21:20.000Z</time>
      </trkpt>
      <trkpt lat="44.126670" lon="4.903879">
        <ele>111.483081</ele>
        <time>2017-06-07T10:21:22.000Z</time>
      </trkpt>
      <trkpt lat="44.126550" lon="4.903870">
        <ele>111.392079</ele>
        <time>2017-06-07T10:21:24.000Z</time>
      </trkpt>
      <trkpt lat="44.126427" lon="4.903856">
        <ele>111.298626</ele>
        <time>2017-06-07T10:21:26.000Z</time>
      </trkpt>
      <trkpt lat="44.126316" lon="4.903859">
        <ele>111.214555</ele>
        <time>2017-06-07T10:21:28.000Z</time>
      </trkpt>
      <trkpt lat="44.126210" lon="4.903847">
        <ele>111.134021</ele>
        <time>2017-06-07T10:21:30.000Z</time>
      </trkpt>
      <trkpt lat="44.126100" lon="4.903828">
        <ele>111.050085</ele>
        <time>2017-06-07T10:21:32.000Z</time>
      </trkpt>
      <trkpt lat="44.125984" lon="4.903822">
        <ele>110.962183</ele>
        <time>2017-06-07T10:21:34.000Z</time>
      </trkpt>
      <trkpt lat="44.125874" lon="4.903806">
        <ele>110.878432</ele>
        <time>2017-06-07T10:21:36.000Z</time>
      </trkpt>
      <trkpt lat="44.125760" lon="4.903762">
        <ele>110.788853</ele>
        <time>2017-06-07T10:21:38.000Z</time>
      </trkpt>
      <trkpt lat="44.125652" lon="4.903717">
        <ele>110.704107</ele>
        <time>2017-06-07T10:21:40.000Z</time>
      </trkpt>
      <trkpt lat="44.125538" lon="4.903678">
        <ele>110.650030</ele>
        <time>2017-06-07T10:21:42.000Z</time>
      </trkpt>
      <trkpt lat="44.125420" lon="4.903634">
        <ele>110.593758</ele>
        <time>2017-06-07T10:21:44.000Z</time>
      </trkpt>
      <trkpt lat="44.125300" lon="4.903600">
        <ele>110.537346</ele>
        <time>2017-06-07T10:21:46.000Z</time>
      </trkpt>
      <trkpt lat="44.125183" lon="4.903572">
        <ele>110.482659</ele>
        <time>2017-06-07T10:21:48.000Z</time>
      </trkpt>
      <trkpt lat="44.125060" lon="4.903545">
        <ele>110.425298</ele>
        <time>2017-06-07T10:21:50.000Z</time>
      </trkpt>
      <trkpt lat="44.124940" lon="4.903529">
        <ele>110.369765</ele>
        <time>2017-06-07T10:21:52.000Z</time>
      </trkpt>
      <trkpt lat="44.124817" lon="4.903513">
        <ele>110.312856</ele>
        <time>2017-06-07T10:21:54.000Z</time>
      </trkpt>
      <trkpt lat="44.124700" lon="4.903491">
        <ele>110.258470</ele>
        <time>2017-06-07T10:21:56.000Z</time>
      </trkpt>
      <trkpt lat="44.124580" lon="4.903474">
        <ele>110.202905</ele>
        <time>2017-06-07T10:21:58.000Z</time>
      </trkpt>
      <trkpt lat="44.124466" lon="4.903459">
        <ele>110.150155</ele>
        <time>2017-06-07T10:22:00.000Z</time>
      </trkpt>
      <trkpt lat="44.124355" lon="4.903439">
        <ele>110.098595</ele>
        <time>2017-06-07T10:22:02.000Z</time>
      </trkpt>
      <trkpt lat="44.124240" lon="4.903419">
        <ele>110.045207</ele>
        <time>2017-06-07T10:22:04.000Z</time>
      </trkpt>
      <trkpt lat="44.124138" lon="4.903392">
        <ele>109.997378</ele>
        <time>2017-06-07T10:22:06.000Z</time>
      </trkpt>
      <trkpt lat="44.124020" lon="4.903375">
        <ele>109.942729</ele>
        <time>2017-06-07T10:22:08.000Z</time>
      </trkpt>
      <trkpt lat="44.123898" lon="4.903342">
        <ele>109.885478</ele>
        <time>2017-06-07T10:22:10.000Z</time>
      </trkpt>
      <trkpt lat="44.123780" lon="4.903317">
        <ele>109.840086</ele>
        <time>2017-06-07T10:22:12.000Z</time>
      </trkpt>
      <trkpt lat="44.123665" lon="4.903290">
        <ele>109.797565</ele>
        <time>2017-06-07T10:22:14.000Z</time>
      </trkpt>
      <trkpt lat="44.123547" lon="4.903257">
        <ele>109.753683</ele>
        <time>2017-06-07T10:22:16.000Z</time>
      </trkpt>
      <trkpt lat="44.123436" lon="4.903227">
        <ele>109.712457</ele>
        <time>2017-06-07T10:22:18.000Z</time>
      </trkpt>
      <trkpt lat="44.123325" lon="4.903189">
        <ele>109.670782</ele>
        <time>2017-06-07T10:22:20.000Z</time>
      </trkpt>
      <trkpt lat="44.123220" lon="4.903154">
        <ele>109.631418</ele>
        <time>2017-06-07T10:22:22.000Z</time>
      </trkpt>
      <trkpt lat="44.123116" lon="4.903100">
        <ele>109.590950</ele>
        <time>2017-06-07T10:22:24.000Z</time>
      </trkpt>
      <trkpt lat="44.123016" lon="4.903034">
        <ele>109.550605</ele>
        <time>2017-06-07T10:22:26.000Z</time>
      </trkpt>
      <trkpt lat="44.122920" lon="4.902953">
        <ele>109.509683</ele>
        <time>2017-06-07T10:22:28.000Z</time>
      </trkpt>
      <trkpt lat="44.122826" lon="4.902855">
        <ele>109.466875</ele>
        <time>2017-06-07T10:22:30.000Z</time>
      </trkpt>
      <trkpt lat="44.122730" lon="4.902759">
        <ele>109.423788</ele>
        <time>2017-06-07T10:22:32.000Z</time>
      </trkpt>
      <trkpt lat="44.122640" lon="4.902674">
        <ele>109.384143</ele>
        <time>2017-06-07T10:22:34.000Z</time>
      </trkpt>
      <trkpt lat="44.122543" lon="4.902611">
        <ele>109.345121</ele>
        <time>2017-06-07T10:22:36.000Z</time>
      </trkpt>
      <trkpt lat="44.122448" lon="4.902559">
        <ele>109.307906</ele>
        <time>2017-06-07T10:22:38.000Z</time>
      </trkpt>
      <trkpt lat="44.122350" lon="4.902519">
        <ele>109.270672</ele>
        <time>2017-06-07T10:22:40.000Z</time>
      </trkpt>
      <trkpt lat="44.122246" lon="4.902515">
        <ele>109.232739</ele>
        <time>2017-06-07T10:22:42.000Z</time>
      </trkpt>
      <trkpt lat="44.122147" lon="4.902521">
        <ele>109.276997</ele>
        <time>2017-06-07T10:22:44.000Z</time>
      </trkpt>
      <trkpt lat="44.122047" lon="4.902525">
        <ele>109.362263</ele>
        <time>2017-06-07T10:22:46.000Z</time>
      </trkpt>
      <trkpt lat="44.121940" lon="4.902525">
        <ele>109.453461</ele>
        <time>2017-06-07T10:22:48.000Z</time>
      </trkpt>
      <trkpt lat="44.121834" lon="4.902529">
        <ele>109.543839</ele>
        <time>2017-06-07T10:22:50.000Z</time>
      </trkpt>
      <trkpt lat="44.121727" lon="4.902521">
        <ele>109.635168</ele>
        <time>2017-06-07T10:22:52.000Z</time>
      </trkpt>
      <trkpt lat="44.121620" lon="4.902494">
        <ele>109.727849</ele>
        <time>2017-06-07T10:22:54.000Z</time>
      </trkpt>
      <trkpt lat="44.121513" lon="4.902480">
        <ele>109.819448</ele>
        <time>2017-06-07T10:22:56.000Z</time>
      </trkpt>
      <trkpt lat="44.121410" lon="4.902457">
        <ele>109.908357</ele>
        <time>2017-06-07T10:22:58.000Z</time>
      </trkpt>
      <trkpt lat="44.121307" lon="4.902449">
        <ele>109.996282</ele>
        <time>2017-06-07T10:23:00.000Z</time>
      </trkpt>
      <trkpt lat="44.121204" lon="4.902446">
        <ele>110.084089</ele>
        <time>2017-06-07T10:23:02.000Z</time>
      </trkpt>
      <trkpt lat="44.121105" lon="4.902472">
        <ele>110.169955</ele>
        <time>2017-06-07T10:23:04.000Z</time>
      </trkpt>
      <trkpt lat="44.121006" lon="4.902495">
        <ele>110.255499</ele>
        <time>2017-06-07T10:23:06.000Z</time>
      </trkpt>
      <trkpt lat="44.120890" lon="4.902523">
        <ele>110.355841</ele>
        <time>2017-06-07T10:23:08.000Z</time>
      </trkpt>
      <trkpt lat="44.120780" lon="4.902551">
        <ele>110.451147</ele>
        <time>2017-06-07T10:23:10.000Z</time>
      </trkpt>
      <trkpt lat="44.120674" lon="4.902584">
        <ele>110.543721</ele>
        <time>2017-06-07T10:23:12.000Z</time>
      </trkpt>
      <trkpt lat="44.120570" lon="4.902612">
        <ele>110.634002</ele>
        <time>2017-06-07T10:23:14.000Z</time>
      </trkpt>
      <trkpt lat="44.120470" lon="4.902636">
        <ele>110.720489</ele>
        <time>2017-06-07T10:23:16.000Z</time>
      </trkpt>
      <trkpt lat="44.120370" lon="4.902661">
        <ele>110.708015</ele>
        <time>2017-06-07T10:23:18.000Z</time>
      </trkpt>
      <trkpt lat="44.120270" lon="4.902681">
        <ele>110.634324</ele>
        <time>2017-06-07T10:23:20.000Z</time>
      </trkpt>
      <trkpt lat="44.120174" lon="4.902687">
        <ele>110.564228</ele>
        <time>2017-06-07T10:23:22.000Z</time>
      </trkpt>
      <trkpt lat="44.120080" lon="4.902676">
        <ele>110.495420</ele>
        <time>2017-06-07T10:23:24.000Z</time>
      </trkpt>
      <trkpt lat="44.119987" lon="4.902636">
        <ele>110.424422</ele>
        <time>2017-06-07T10:23:26.000Z</time>
      </trkpt>
      <trkpt lat="44.119900" lon="4.902587">
        <ele>110.355971</ele>
        <time>2017-06-07T10:23:28.000Z</time>
      </trkpt>
      <trkpt lat="44.119810" lon="4.902532">
        <ele>110.284282</ele>
        <time>2017-06-07T10:23:30.000Z</time>
      </trkpt>
      <trkpt lat="44.119728" lon="4.902454">
        <ele>110.211853</ele>
        <time>2017-06-07T10:23:32.000Z</time>
      </trkpt>
      <trkpt lat="44.119656" lon="4.902371">
        <ele>110.143682</ele>
        <time>2017-06-07T10:23:34.000Z</time>
      </trkpt>
      <trkpt lat="44.119580" lon="4.902279">
        <ele>110.070237</ele>
        <time>2017-06-07T10:23:36.000Z</time>
      </trkpt>
      <trkpt lat="44.119507" lon="4.902182">
        <ele>109.996647</ele>
        <time>2017-06-07T10:23:38.000Z</time>
      </trkpt>
      <trkpt lat="44.119440" lon="4.902090">
        <ele>109.928022</ele>
        <time>2017-06-07T10:23:40.000Z</time>
      </trkpt>
      <trkpt lat="44.119366" lon="4.902007">
        <ele>109.858721</ele>
        <time>2017-06-07T10:23:42.000Z</time>
      </trkpt>
      <trkpt lat="44.119280" lon="4.901954">
        <ele>109.790125</ele>
        <time>2017-06-07T10:23:44.000Z</time>
      </trkpt>
      <trkpt lat="44.119160" lon="4.901907">
        <ele>109.699199</ele>
        <time>2017-06-07T10:23:47.000Z</time>
      </trkpt>
      <trkpt lat="44.119038" lon="4.901846">
        <ele>109.604649</ele>
        <time>2017-06-07T10:23:50.000Z</time>
      </trkpt>
      <trkpt lat="44.118946" lon="4.901811">
        <ele>109.535083</ele>
        <time>2017-06-07T10:23:52.000Z</time>
      </trkpt>
      <trkpt lat="44.118847" lon="4.901779">
        <ele>109.460950</ele>
        <time>2017-06-07T10:23:54.000Z</time>
      </trkpt>
      <trkpt lat="44.118750" lon="4.901728">
        <ele>109.453356</ele>
        <time>2017-06-07T10:23:56.000Z</time>
      </trkpt>
      <trkpt lat="44.118660" lon="4.901668">
        <ele>109.468385</ele>
        <time>2017-06-07T10:23:58.000Z</time>
      </trkpt>
      <trkpt lat="44.118570" lon="4.901607">
        <ele>109.483461</ele>
        <time>2017-06-07T10:24:00.000Z</time>
      </trkpt>
      <trkpt lat="44.118477" lon="4.901535">
        <ele>109.499487</ele>
        <time>2017-06-07T10:24:02.000Z</time>
      </trkpt>
      <trkpt lat="44.118393" lon="4.901451">
        <ele>109.515063</ele>
        <time>2017-06-07T10:24:04.000Z</time>
      </trkpt>
      <trkpt lat="44.118305" lon="4.901356">
        <ele>109.531832</ele>
        <time>2017-06-07T10:24:06.000Z</time>
      </trkpt>
      <trkpt lat="44.118214" lon="4.901275">
        <ele>109.548099</ele>
        <time>2017-06-07T10:24:08.000Z</time>
      </trkpt>
      <trkpt lat="44.118126" lon="4.901194">
        <ele>109.563986</ele>
        <time>2017-06-07T10:24:10.000Z</time>
      </trkpt>
      <trkpt lat="44.118042" lon="4.901114">
        <ele>109.579314</ele>
        <time>2017-06-07T10:24:12.000Z</time>
      </trkpt>
      <trkpt lat="44.117954" lon="4.901062">
        <ele>109.593712</ele>
        <time>2017-06-07T10:24:14.000Z</time>
      </trkpt>
      <trkpt lat="44.117870" lon="4.901017">
        <ele>109.607268</ele>
        <time>2017-06-07T10:24:16.000Z</time>
      </trkpt>
      <trkpt lat="44.117752" lon="4.900965">
        <ele>109.625910</ele>
        <time>2017-06-07T10:24:19.000Z</time>
      </trkpt>
      <trkpt lat="44.117660" lon="4.900929">
        <ele>109.640304</ele>
        <time>2017-06-07T10:24:22.000Z</time>
      </trkpt>
      <trkpt lat="44.117558" lon="4.900911">
        <ele>109.655791</ele>
        <time>2017-06-07T10:24:26.000Z</time>
      </trkpt>
      <trkpt lat="44.117500" lon="4.901009">
        <ele>109.669525</ele>
        <time>2017-06-07T10:24:30.000Z</time>
      </trkpt>
      <trkpt lat="44.117510" lon="4.901171">
        <ele>109.687108</ele>
        <time>2017-06-07T10:24:35.000Z</time>
      </trkpt>
      <trkpt lat="44.117496" lon="4.901315">
        <ele>109.702821</ele>
        <time>2017-06-07T10:24:38.000Z</time>
      </trkpt>
      <trkpt lat="44.117455" lon="4.901475">
        <ele>109.818478</ele>
        <time>2017-06-07T10:24:41.000Z</time>
      </trkpt>
      <trkpt lat="44.117428" lon="4.901601">
        <ele>109.994323</ele>
        <time>2017-06-07T10:24:43.000Z</time>
      </trkpt>
      <trkpt lat="44.117405" lon="4.901756">
        <ele>110.205986</ele>
        <time>2017-06-07T10:24:46.000Z</time>
      </trkpt>
      <trkpt lat="44.117355" lon="4.901901">
        <ele>110.421102</ele>
        <time>2017-06-07T10:24:49.000Z</time>
      </trkpt>
      <trkpt lat="44.117336" lon="4.902046">
        <ele>110.618214</ele>
        <time>2017-06-07T10:24:52.000Z</time>
      </trkpt>
      <trkpt lat="44.117320" lon="4.902174">
        <ele>110.791964</ele>
        <time>2017-06-07T10:24:55.000Z</time>
      </trkpt>
      <trkpt lat="44.117302" lon="4.902315">
        <ele>110.983481</ele>
        <time>2017-06-07T10:24:58.000Z</time>
      </trkpt>
      <trkpt lat="44.117287" lon="4.902438">
        <ele>111.150326</ele>
        <time>2017-06-07T10:25:01.000Z</time>
      </trkpt>
      <trkpt lat="44.117268" lon="4.902579">
        <ele>111.342178</ele>
        <time>2017-06-07T10:25:04.000Z</time>
      </trkpt>
      <trkpt lat="44.117237" lon="4.902722">
        <ele>111.541940</ele>
        <time>2017-06-07T10:25:07.000Z</time>
      </trkpt>
      <trkpt lat="44.117214" lon="4.902861">
        <ele>111.732699</ele>
        <time>2017-06-07T10:25:10.000Z</time>
      </trkpt>
      <trkpt lat="44.117188" lon="4.903002">
        <ele>111.927379</ele>
        <time>2017-06-07T10:25:13.000Z</time>
      </trkpt>
      <trkpt lat="44.117165" lon="4.903163">
        <ele>112.146906</ele>
        <time>2017-06-07T10:25:16.000Z</time>
      </trkpt>
      <trkpt lat="44.117146" lon="4.903290">
        <ele>112.320392</ele>
        <time>2017-06-07T10:25:18.000Z</time>
      </trkpt>
      <trkpt lat="44.117126" lon="4.903419">
        <ele>112.496881</ele>
        <time>2017-06-07T10:25:20.000Z</time>
      </trkpt>
      <trkpt lat="44.117100" lon="4.903548">
        <ele>112.676063</ele>
        <time>2017-06-07T10:25:22.000Z</time>
      </trkpt>
      <trkpt lat="44.117077" lon="4.903676">
        <ele>112.852518</ele>
        <time>2017-06-07T10:25:24.000Z</time>
      </trkpt>
      <trkpt lat="44.117050" lon="4.903806">
        <ele>113.033497</ele>
        <time>2017-06-07T10:25:26.000Z</time>
      </trkpt>
      <trkpt lat="44.117023" lon="4.903951">
        <ele>113.058646</ele>
        <time>2017-06-07T10:25:28.000Z</time>
      </trkpt>
      <trkpt lat="44.116990" lon="4.904082">
        <ele>113.053844</ele>
        <time>2017-06-07T10:25:30.000Z</time>
      </trkpt>
      <trkpt lat="44.116950" lon="4.904216">
        <ele>113.048824</ele>
        <time>2017-06-07T10:25:32.000Z</time>
      </trkpt>
      <trkpt lat="44.116913" lon="4.904349">
        <ele>113.043891</ele>
        <time>2017-06-07T10:25:34.000Z</time>
      </trkpt>
      <trkpt lat="44.116882" lon="4.904491">
        <ele>113.038757</ele>
        <time>2017-06-07T10:25:36.000Z</time>
      </trkpt>
      <trkpt lat="44.116848" lon="4.904622">
        <ele>113.033939</ele>
        <time>2017-06-07T10:25:38.000Z</time>
      </trkpt>
      <trkpt lat="44.116817" lon="4.904751">
        <ele>113.029234</ele>
        <time>2017-06-07T10:25:40.000Z</time>
      </trkpt>
      <trkpt lat="44.116783" lon="4.904873">
        <ele>113.024707</ele>
        <time>2017-06-07T10:25:42.000Z</time>
      </trkpt>
      <trkpt lat="44.116722" lon="4.905016">
        <ele>113.018954</ele>
        <time>2017-06-07T10:25:45.000Z</time>
      </trkpt>
      <trkpt lat="44.116690" lon="4.905142">
        <ele>113.014331</ele>
        <time>2017-06-07T10:25:48.000Z</time>
      </trkpt>
      <trkpt lat="44.116653" lon="4.905272">
        <ele>113.009494</ele>
        <time>2017-06-07T10:25:52.000Z</time>
      </trkpt>
      <trkpt lat="44.116596" lon="4.905376">
        <ele>113.004968</ele>
        <time>2017-06-07T10:25:59.000Z</time>
      </trkpt>
      <trkpt lat="44.116590" lon="4.905511">
        <ele>113.000290</ele>
        <time>2017-06-07T10:26:07.000Z</time>
      </trkpt>
      <trkpt lat="44.116554" lon="4.905630">
        <ele>112.995823</ele>
        <time>2017-06-07T10:26:11.000Z</time>
      </trkpt>
      <trkpt lat="44.116512" lon="4.905744">
        <ele>112.991391</ele>
        <time>2017-06-07T10:26:14.000Z</time>
      </trkpt>
      <trkpt lat="44.116463" lon="4.905884">
        <ele>112.986004</ele>
        <time>2017-06-07T10:26:18.000Z</time>
      </trkpt>
      <trkpt lat="44.116425" lon="4.906009">
        <ele>112.981309</ele>
        <time>2017-06-07T10:26:22.000Z</time>
      </trkpt>
      <trkpt lat="44.116383" lon="4.906120">
        <ele>112.976969</ele>
        <time>2017-06-07T10:26:27.000Z</time>
      </trkpt>
      <trkpt lat="44.116337" lon="4.906233">
        <ele>112.923737</ele>
        <time>2017-06-07T10:26:31.000Z</time>
      </trkpt>
      <trkpt lat="44.116287" lon="4.906372">
        <ele>112.851673</ele>
        <time>2017-06-07T10:26:35.000Z</time>
      </trkpt>
      <trkpt lat="44.116240" lon="4.906485">
        <ele>112.791141</ele>
        <time>2017-06-07T10:26:38.000Z</time>
      </trkpt>
      <trkpt lat="44.116177" lon="4.906608">
        <ele>112.721106</ele>
        <time>2017-06-07T10:26:41.000Z</time>
      </trkpt>
      <trkpt lat="44.116104" lon="4.906748">
        <ele>112.640905</ele>
        <time>2017-06-07T10:26:44.000Z</time>
      </trkpt>
      <trkpt lat="44.116060" lon="4.906856">
        <ele>112.583346</ele>
        <time>2017-06-07T10:26:46.000Z</time>
      </trkpt>
      <trkpt lat="44.116010" lon="4.906968">
        <ele>112.522214</ele>
        <time>2017-06-07T10:26:48.000Z</time>
      </trkpt>
      <trkpt lat="44.115960" lon="4.907076">
        <ele>112.462648</ele>
        <time>2017-06-07T10:26:50.000Z</time>
      </trkpt>
      <trkpt lat="44.115890" lon="4.907234">
        <ele>112.376590</ele>
        <time>2017-06-07T10:26:53.000Z</time>
      </trkpt>
      <trkpt lat="44.115820" lon="4.907363">
        <ele>112.301638</ele>
        <time>2017-06-07T10:26:56.000Z</time>
      </trkpt>
      <trkpt lat="44.115757" lon="4.907492">
        <ele>112.229321</ele>
        <time>2017-06-07T10:26:59.000Z</time>
      </trkpt>
      <trkpt lat="44.115685" lon="4.907637">
        <ele>112.147601</ele>
        <time>2017-06-07T10:27:02.000Z</time>
      </trkpt>
      <trkpt lat="44.115610" lon="4.907792">
        <ele>112.060961</ele>
        <time>2017-06-07T10:27:05.000Z</time>
      </trkpt>
      <trkpt lat="44.115560" lon="4.907898">
        <ele>112.002172</ele>
        <time>2017-06-07T10:27:07.000Z</time>
      </trkpt>
      <trkpt lat="44.115498" lon="4.908005">
        <ele>111.938437</ele>
        <time>2017-06-07T10:27:09.000Z</time>
      </trkpt>
      <trkpt lat="44.115414" lon="4.908139">
        <ele>111.855981</ele>
        <time>2017-06-07T10:27:12.000Z</time>
      </trkpt>
      <trkpt lat="44.115330" lon="4.908264">
        <ele>111.831247</ele>
        <time>2017-06-07T10:27:15.000Z</time>
      </trkpt>
      <trkpt lat="44.115253" lon="4.908413">
        <ele>111.866795</ele>
        <time>2017-06-07T10:27:18.000Z</time>
      </trkpt>
      <trkpt lat="44.115160" lon="4.908545">
        <ele>111.902605</ele>
        <time>2017-06-07T10:27:21.000Z</time>
      </trkpt>
      <trkpt lat="44.115086" lon="4.908670">
        <ele>111.933976</ele>
        <time>2017-06-07T10:27:24.000Z</time>
      </trkpt>
      <trkpt lat="44.115000" lon="4.908804">
        <ele>111.968779</ele>
        <time>2017-06-07T10:27:27.000Z</time>
      </trkpt>
      <trkpt lat="44.114914" lon="4.908940">
        <ele>112.003871</ele>
        <time>2017-06-07T10:27:30.000Z</time>
      </trkpt>
      <trkpt lat="44.114815" lon="4.909056">
        <ele>112.038763</ele>
        <time>2017-06-07T10:27:33.000Z</time>
      </trkpt>
      <trkpt lat="44.114735" lon="4.909186">
        <ele>112.071916</ele>
        <time>2017-06-07T10:27:36.000Z</time>
      </trkpt>
      <trkpt lat="44.114640" lon="4.909308">
        <ele>112.106766</ele>
        <time>2017-06-07T10:27:39.000Z</time>
      </trkpt>
      <trkpt lat="44.114548" lon="4.909433">
        <ele>112.141429</ele>
        <time>2017-06-07T10:27:42.000Z</time>
      </trkpt>
      <trkpt lat="44.114468" lon="4.909554">
        <ele>112.173280</ele>
        <time>2017-06-07T10:27:45.000Z</time>
      </trkpt>
      <trkpt lat="44.114388" lon="4.909656">
        <ele>112.202531</ele>
        <time>2017-06-07T10:27:48.000Z</time>
      </trkpt>
      <trkpt lat="44.114315" lon="4.909758">
        <ele>112.230419</ele>
        <time>2017-06-07T10:27:51.000Z</time>
      </trkpt>
      <trkpt lat="44.114243" lon="4.909860">
        <ele>112.258116</ele>
        <time>2017-06-07T10:27:54.000Z</time>
      </trkpt>
      <trkpt lat="44.114155" lon="4.909969">
        <ele>112.289877</ele>
        <time>2017-06-07T10:27:57.000Z</time>
      </trkpt>
      <trkpt lat="44.114075" lon="4.910074">
        <ele>112.364170</ele>
        <time>2017-06-07T10:28:00.000Z</time>
      </trkpt>
      <trkpt lat="44.114000" lon="4.910172">
        <ele>112.456150</ele>
        <time>2017-06-07T10:28:03.000Z</time>
      </trkpt>
      <trkpt lat="44.113910" lon="4.910288">
        <ele>112.565826</ele>
        <time>2017-06-07T10:28:06.000Z</time>
      </trkpt>
      <trkpt lat="44.113815" lon="4.910417">
        <ele>112.684495</ele>
        <time>2017-06-07T10:28:09.000Z</time>
      </trkpt>
      <trkpt lat="44.113747" lon="4.910504">
        <ele>112.767081</ele>
        <time>2017-06-07T10:28:11.000Z</time>
      </trkpt>
      <trkpt lat="44.113680" lon="4.910591">
        <ele>112.849011</ele>
        <time>2017-06-07T10:28:13.000Z</time>
      </trkpt>
      <trkpt lat="44.113613" lon="4.910686">
        <ele>112.934526</ele>
        <time>2017-06-07T10:28:15.000Z</time>
      </trkpt>
      <trkpt lat="44.113544" lon="4.910773">
        <ele>113.017773</ele>
        <time>2017-06-07T10:28:17.000Z</time>
      </trkpt>
      <trkpt lat="44.113480" lon="4.910867">
        <ele>113.100963</ele>
        <time>2017-06-07T10:28:19.000Z</time>
      </trkpt>
      <trkpt lat="44.113388" lon="4.910992">
        <ele>113.215918</ele>
        <time>2017-06-07T10:28:22.000Z</time>
      </trkpt>
      <trkpt lat="44.113300" lon="4.911101">
        <ele>113.321249</ele>
        <time>2017-06-07T10:28:25.000Z</time>
      </trkpt>
      <trkpt lat="44.113220" lon="4.911196">
        <ele>113.415280</ele>
        <time>2017-06-07T10:28:28.000Z</time>
      </trkpt>
      <trkpt lat="44.113130" lon="4.911308">
        <ele>113.523229</ele>
        <time>2017-06-07T10:28:31.000Z</time>
      </trkpt>
      <trkpt lat="44.113060" lon="4.911391">
        <ele>113.605454</ele>
        <time>2017-06-07T10:28:33.000Z</time>
      </trkpt>
      <trkpt lat="44.112976" lon="4.911514">
        <ele>113.714466</ele>
        <time>2017-06-07T10:28:36.000Z</time>
      </trkpt>
      <trkpt lat="44.112896" lon="4.911610">
        <ele>113.808915</ele>
        <time>2017-06-07T10:28:39.000Z</time>
      </trkpt>
      <trkpt lat="44.112827" lon="4.911719">
        <ele>113.902233</ele>
        <time>2017-06-07T10:28:42.000Z</time>
      </trkpt>
      <trkpt lat="44.112750" lon="4.911826">
        <ele>113.766838</ele>
        <time>2017-06-07T10:28:45.000Z</time>
      </trkpt>
      <trkpt lat="44.112680" lon="4.911927">
        <ele>113.625242</ele>
        <time>2017-06-07T10:28:48.000Z</time>
      </trkpt>
      <trkpt lat="44.112610" lon="4.912023">
        <ele>113.487229</ele>
        <time>2017-06-07T10:28:51.000Z</time>
      </trkpt>
      <trkpt lat="44.112530" lon="4.912115">
        <ele>113.341480</ele>
        <time>2017-06-07T10:28:54.000Z</time>
      </trkpt>
      <trkpt lat="44.112453" lon="4.912228">
        <ele>113.184339</ele>
        <time>2017-06-07T10:28:57.000Z</time>
      </trkpt>
      <trkpt lat="44.112380" lon="4.912337">
        <ele>113.033988</ele>
        <time>2017-06-07T10:29:00.000Z</time>
      </trkpt>
      <trkpt lat="44.112305" lon="4.912442">
        <ele>112.884592</ele>
        <time>2017-06-07T10:29:03.000Z</time>
      </trkpt>
      <trkpt lat="44.112263" lon="4.912573">
        <ele>112.739881</ele>
        <time>2017-06-07T10:29:09.000Z</time>
      </trkpt>
      <trkpt lat="44.112225" lon="4.912728">
        <ele>112.574674</ele>
        <time>2017-06-07T10:29:13.000Z</time>
      </trkpt>
      <trkpt lat="44.112250" lon="4.912875">
        <ele>112.422296</ele>
        <time>2017-06-07T10:29:17.000Z</time>
      </trkpt>
      <trkpt lat="44.112320" lon="4.913038">
        <ele>112.230717</ele>
        <time>2017-06-07T10:33:01.000Z</time>
      </trkpt>
      <trkpt lat="44.112263" lon="4.912928">
        <ele>112.093884</ele>
        <time>2017-06-07T10:58:41.000Z</time>
      </trkpt>
      <trkpt lat="44.112232" lon="4.912717">
        <ele>111.876644</ele>
        <time>2017-06-07T10:59:06.000Z</time>
      </trkpt>
      <trkpt lat="44.112255" lon="4.912582">
        <ele>111.736692</ele>
        <time>2017-06-07T10:59:10.000Z</time>
      </trkpt>
      <trkpt lat="44.112170" lon="4.912629">
        <ele>111.608212</ele>
        <time>2017-06-07T10:59:21.000Z</time>
      </trkpt>
      <trkpt lat="44.112103" lon="4.912727">
        <ele>111.471716</ele>
        <time>2017-06-07T10:59:25.000Z</time>
      </trkpt>
      <trkpt lat="44.112038" lon="4.912833">
        <ele>111.486137</ele>
        <time>2017-06-07T10:59:30.000Z</time>
      </trkpt>
      <trkpt lat="44.111960" lon="4.912943">
        <ele>111.803994</ele>
        <time>2017-06-07T10:59:35.000Z</time>
      </trkpt>
      <trkpt lat="44.111893" lon="4.913035">
        <ele>112.073411</ele>
        <time>2017-06-07T10:59:38.000Z</time>
      </trkpt>
      <trkpt lat="44.111813" lon="4.913126">
        <ele>112.369184</ele>
        <time>2017-06-07T10:59:41.000Z</time>
      </trkpt>
      <trkpt lat="44.111725" lon="4.913202">
        <ele>112.665687</ele>
        <time>2017-06-07T10:59:44.000Z</time>
      </trkpt>
      <trkpt lat="44.111652" lon="4.913308">
        <ele>112.967665</ele>
        <time>2017-06-07T10:59:47.000Z</time>
      </trkpt>
      <trkpt lat="44.111565" lon="4.913420">
        <ele>113.306910</ele>
        <time>2017-06-07T10:59:50.000Z</time>
      </trkpt>
      <trkpt lat="44.111485" lon="4.913528">
        <ele>113.625942</ele>
        <time>2017-06-07T10:59:53.000Z</time>
      </trkpt>
      <trkpt lat="44.111400" lon="4.913647">
        <ele>113.971054</ele>
        <time>2017-06-07T10:59:56.000Z</time>
      </trkpt>
      <trkpt lat="44.111305" lon="4.913762">
        <ele>114.331477</ele>
        <time>2017-06-07T10:59:59.000Z</time>
      </trkpt>
      <trkpt lat="44.111225" lon="4.913872">
        <ele>114.653386</ele>
        <time>2017-06-07T11:00:02.000Z</time>
      </trkpt>
      <trkpt lat="44.111145" lon="4.913986">
        <ele>114.981125</ele>
        <time>2017-06-07T11:00:05.000Z</time>
      </trkpt>
      <trkpt lat="44.111070" lon="4.914116">
        <ele>115.323997</ele>
        <time>2017-06-07T11:00:08.000Z</time>
      </trkpt>
      <trkpt lat="44.110973" lon="4.914245">
        <ele>115.708046</ele>
        <time>2017-06-07T11:00:11.000Z</time>
      </trkpt>
      <trkpt lat="44.110886" lon="4.914380">
        <ele>116.081011</ele>
        <time>2017-06-07T11:00:14.000Z</time>
      </trkpt>
      <trkpt lat="44.110794" lon="4.914511">
        <ele>116.457765</ele>
        <time>2017-06-07T11:00:17.000Z</time>
      </trkpt>
      <trkpt lat="44.110720" lon="4.914646">
        <ele>116.472561</ele>
        <time>2017-06-07T11:00:20.000Z</time>
      </trkpt>
      <trkpt lat="44.110650" lon="4.914787">
        <ele>116.395465</ele>
        <time>2017-06-07T11:00:23.000Z</time>
      </trkpt>
      <trkpt lat="44.110570" lon="4.914928">
        <ele>116.314643</ele>
        <time>2017-06-07T11:00:26.000Z</time>
      </trkpt>
      <trkpt lat="44.110493" lon="4.915064">
        <ele>116.236751</ele>
        <time>2017-06-07T11:00:29.000Z</time>
      </trkpt>
      <trkpt lat="44.110416" lon="4.915202">
        <ele>116.158149</ele>
        <time>2017-06-07T11:00:32.000Z</time>
      </trkpt>
      <trkpt lat="44.110348" lon="4.915345">
        <ele>116.081011</ele>
        <time>2017-06-07T11:00:35.000Z</time>
      </trkpt>
      <trkpt lat="44.110280" lon="4.915483">
        <ele>116.005737</ele>
        <time>2017-06-07T11:00:38.000Z</time>
      </trkpt>
      <trkpt lat="44.110210" lon="4.915632">
        <ele>115.925656</ele>
        <time>2017-06-07T11:00:41.000Z</time>
      </trkpt>
      <trkpt lat="44.110153" lon="4.915732">
        <ele>115.868233</ele>
        <time>2017-06-07T11:00:43.000Z</time>
      </trkpt>
      <trkpt lat="44.110096" lon="4.915832">
        <ele>115.810810</ele>
        <time>2017-06-07T11:00:45.000Z</time>
      </trkpt>
      <trkpt lat="44.110030" lon="4.915993">
        <ele>115.727432</ele>
        <time>2017-06-07T11:00:48.000Z</time>
      </trkpt>
      <trkpt lat="44.109962" lon="4.916143">
        <ele>115.647649</ele>
        <time>2017-06-07T11:00:51.000Z</time>
      </trkpt>
      <trkpt lat="44.109894" lon="4.916290">
        <ele>115.569005</ele>
        <time>2017-06-07T11:00:54.000Z</time>
      </trkpt>
      <trkpt lat="44.109848" lon="4.916404">
        <ele>115.510192</ele>
        <time>2017-06-07T11:00:56.000Z</time>
      </trkpt>
      <trkpt lat="44.109802" lon="4.916515">
        <ele>115.452553</ele>
        <time>2017-06-07T11:00:58.000Z</time>
      </trkpt>
      <trkpt lat="44.109760" lon="4.916626">
        <ele>115.417224</ele>
        <time>2017-06-07T11:01:00.000Z</time>
      </trkpt>
      <trkpt lat="44.109715" lon="4.916735">
        <ele>115.482051</ele>
        <time>2017-06-07T11:01:02.000Z</time>
      </trkpt>
      <trkpt lat="44.109676" lon="4.916848">
        <ele>115.546695</ele>
        <time>2017-06-07T11:01:04.000Z</time>
      </trkpt>
      <trkpt lat="44.109615" lon="4.917013">
        <ele>115.642383</ele>
        <time>2017-06-07T11:01:07.000Z</time>
      </trkpt>
      <trkpt lat="44.109554" lon="4.917181">
        <ele>115.739450</ele>
        <time>2017-06-07T11:01:10.000Z</time>
      </trkpt>
      <trkpt lat="44.109500" lon="4.917351">
        <ele>115.835296</ele>
        <time>2017-06-07T11:01:13.000Z</time>
      </trkpt>
      <trkpt lat="44.109467" lon="4.917467">
        <ele>115.899628</ele>
        <time>2017-06-07T11:01:15.000Z</time>
      </trkpt>
      <trkpt lat="44.109413" lon="4.917636">
        <ele>115.995003</ele>
        <time>2017-06-07T11:01:18.000Z</time>
      </trkpt>
      <trkpt lat="44.109367" lon="4.917796">
        <ele>116.083867</ele>
        <time>2017-06-07T11:01:21.000Z</time>
      </trkpt>
      <trkpt lat="44.109318" lon="4.917946">
        <ele>116.168835</ele>
        <time>2017-06-07T11:01:24.000Z</time>
      </trkpt>
      <trkpt lat="44.109276" lon="4.918088">
        <ele>116.248018</ele>
        <time>2017-06-07T11:01:27.000Z</time>
      </trkpt>
      <trkpt lat="44.109240" lon="4.918238">
        <ele>116.329564</ele>
        <time>2017-06-07T11:01:30.000Z</time>
      </trkpt>
      <trkpt lat="44.109200" lon="4.918389">
        <ele>116.412550</ele>
        <time>2017-06-07T11:01:33.000Z</time>
      </trkpt>
      <trkpt lat="44.109165" lon="4.918542">
        <ele>116.495344</ele>
        <time>2017-06-07T11:01:36.000Z</time>
      </trkpt>
      <trkpt lat="44.109123" lon="4.918715">
        <ele>116.589503</ele>
        <time>2017-06-07T11:01:39.000Z</time>
      </trkpt>
      <trkpt lat="44.109097" lon="4.918835">
        <ele>116.654131</ele>
        <time>2017-06-07T11:01:41.000Z</time>
      </trkpt>
      <trkpt lat="44.109050" lon="4.919007">
        <ele>116.681236</ele>
        <time>2017-06-07T11:01:44.000Z</time>
      </trkpt>
      <trkpt lat="44.109016" lon="4.919159">
        <ele>116.655228</ele>
        <time>2017-06-07T11:01:47.000Z</time>
      </trkpt>
      <trkpt lat="44.108986" lon="4.919311">
        <ele>116.629477</ele>
        <time>2017-06-07T11:01:50.000Z</time>
      </trkpt>
      <trkpt lat="44.108944" lon="4.919462">
        <ele>116.603023</ele>
        <time>2017-06-07T11:01:53.000Z</time>
      </trkpt>
      <trkpt lat="44.108906" lon="4.919617">
        <ele>116.576267</ele>
        <time>2017-06-07T11:01:56.000Z</time>
      </trkpt>
      <trkpt lat="44.108875" lon="4.919787">
        <ele>116.547613</ele>
        <time>2017-06-07T11:01:59.000Z</time>
      </trkpt>
      <trkpt lat="44.108833" lon="4.919963">
        <ele>116.517316</ele>
        <time>2017-06-07T11:02:02.000Z</time>
      </trkpt>
      <trkpt lat="44.108807" lon="4.920084">
        <ele>116.496683</ele>
        <time>2017-06-07T11:02:04.000Z</time>
      </trkpt>
      <trkpt lat="44.108776" lon="4.920206">
        <ele>116.475541</ele>
        <time>2017-06-07T11:02:06.000Z</time>
      </trkpt>
      <trkpt lat="44.108746" lon="4.920326">
        <ele>116.454784</ele>
        <time>2017-06-07T11:02:08.000Z</time>
      </trkpt>
      <trkpt lat="44.108710" lon="4.920445">
        <ele>116.433689</ele>
        <time>2017-06-07T11:02:10.000Z</time>
      </trkpt>
      <trkpt lat="44.108680" lon="4.920571">
        <ele>116.412003</ele>
        <time>2017-06-07T11:02:12.000Z</time>
      </trkpt>
      <trkpt lat="44.108646" lon="4.920712">
        <ele>116.387705</ele>
        <time>2017-06-07T11:02:14.000Z</time>
      </trkpt>
      <trkpt lat="44.108620" lon="4.920855">
        <ele>116.363606</ele>
        <time>2017-06-07T11:02:16.000Z</time>
      </trkpt>
      <trkpt lat="44.108590" lon="4.920986">
        <ele>116.341144</ele>
        <time>2017-06-07T11:02:18.000Z</time>
      </trkpt>
      <trkpt lat="44.108555" lon="4.921120">
        <ele>116.317850</ele>
        <time>2017-06-07T11:02:20.000Z</time>
      </trkpt>
      <trkpt lat="44.108524" lon="4.921249">
        <ele>116.295627</ele>
        <time>2017-06-07T11:02:22.000Z</time>
      </trkpt>
      <trkpt lat="44.108490" lon="4.921372">
        <ele>116.249475</ele>
        <time>2017-06-07T11:02:24.000Z</time>
      </trkpt>
      <trkpt lat="44.108456" lon="4.921496">
        <ele>116.190267</ele>
        <time>2017-06-07T11:02:26.000Z</time>
      </trkpt>
      <trkpt lat="44.108420" lon="4.921620">
        <ele>116.130605</ele>
        <time>2017-06-07T11:02:28.000Z</time>
      </trkpt>
      <trkpt lat="44.108390" lon="4.921746">
        <ele>116.071391</ele>
        <time>2017-06-07T11:02:30.000Z</time>
      </trkpt>
      <trkpt lat="44.108345" lon="4.921874">
        <ele>116.007817</ele>
        <time>2017-06-07T11:02:32.000Z</time>
      </trkpt>
      <trkpt lat="44.108310" lon="4.922003">
        <ele>115.946304</ele>
        <time>2017-06-07T11:02:34.000Z</time>
      </trkpt>
      <trkpt lat="44.108265" lon="4.922124">
        <ele>115.885519</ele>
        <time>2017-06-07T11:02:36.000Z</time>
      </trkpt>
      <trkpt lat="44.108223" lon="4.922256">
        <ele>115.821116</ele>
        <time>2017-06-07T11:02:38.000Z</time>
      </trkpt>
      <trkpt lat="44.108173" lon="4.922398">
        <ele>115.750568</ele>
        <time>2017-06-07T11:02:40.000Z</time>
      </trkpt>
      <trkpt lat="44.108124" lon="4.922543">
        <ele>115.679082</ele>
        <time>2017-06-07T11:02:42.000Z</time>
      </trkpt>
      <trkpt lat="44.108070" lon="4.922683">
        <ele>115.608192</ele>
        <time>2017-06-07T11:02:44.000Z</time>
      </trkpt>
      <trkpt lat="44.108017" lon="4.922823">
        <ele>115.537594</ele>
        <time>2017-06-07T11:02:46.000Z</time>
      </trkpt>
      <trkpt lat="44.107967" lon="4.922961">
        <ele>115.468644</ele>
        <time>2017-06-07T11:02:48.000Z</time>
      </trkpt>
      <trkpt lat="44.107914" lon="4.923096">
        <ele>115.400010</ele>
        <time>2017-06-07T11:02:50.000Z</time>
      </trkpt>
      <trkpt lat="44.107860" lon="4.923226">
        <ele>115.333017</ele>
        <time>2017-06-07T11:02:52.000Z</time>
      </trkpt>
      <trkpt lat="44.107800" lon="4.923361">
        <ele>115.262194</ele>
        <time>2017-06-07T11:02:54.000Z</time>
      </trkpt>
      <trkpt lat="44.107735" lon="4.923495">
        <ele>115.190059</ele>
        <time>2017-06-07T11:02:56.000Z</time>
      </trkpt>
      <trkpt lat="44.107674" lon="4.923638">
        <ele>115.057257</ele>
        <time>2017-06-07T11:02:58.000Z</time>
      </trkpt>
      <trkpt lat="44.107613" lon="4.923779">
        <ele>114.905676</ele>
        <time>2017-06-07T11:03:00.000Z</time>
      </trkpt>
      <trkpt lat="44.107548" lon="4.923916">
        <ele>114.754472</ele>
        <time>2017-06-07T11:03:02.000Z</time>
      </trkpt>
      <trkpt lat="44.107487" lon="4.924055">
        <ele>114.604466</ele>
        <time>2017-06-07T11:03:04.000Z</time>
      </trkpt>
      <trkpt lat="44.107430" lon="4.924188">
        <ele>114.461840</ele>
        <time>2017-06-07T11:03:06.000Z</time>
      </trkpt>
      <trkpt lat="44.107370" lon="4.924321">
        <ele>114.317205</ele>
        <time>2017-06-07T11:03:08.000Z</time>
      </trkpt>
      <trkpt lat="44.107304" lon="4.924448">
        <ele>114.172845</ele>
        <time>2017-06-07T11:03:10.000Z</time>
      </trkpt>
      <trkpt lat="44.107250" lon="4.924578">
        <ele>114.034551</ele>
        <time>2017-06-07T11:03:12.000Z</time>
      </trkpt>
      <trkpt lat="44.107193" lon="4.924708">
        <ele>113.894290</ele>
        <time>2017-06-07T11:03:14.000Z</time>
      </trkpt>
      <trkpt lat="44.107136" lon="4.924841">
        <ele>113.751664</ele>
        <time>2017-06-07T11:03:16.000Z</time>
      </trkpt>
      <trkpt lat="44.107082" lon="4.924977">
        <ele>113.608560</ele>
        <time>2017-06-07T11:03:18.000Z</time>
      </trkpt>
      <trkpt lat="44.107030" lon="4.925113">
        <ele>113.466680</ele>
        <time>2017-06-07T11:03:20.000Z</time>
      </trkpt>
      <trkpt lat="44.106970" lon="4.925242">
        <ele>113.325149</ele>
        <time>2017-06-07T11:03:22.000Z</time>
      </trkpt>
      <trkpt lat="44.106915" lon="4.925365">
        <ele>113.191721</ele>
        <time>2017-06-07T11:03:24.000Z</time>
      </trkpt>
      <trkpt lat="44.106865" lon="4.925494">
        <ele>113.056733</ele>
        <time>2017-06-07T11:03:26.000Z</time>
      </trkpt>
      <trkpt lat="44.106815" lon="4.925612">
        <ele>112.930566</ele>
        <time>2017-06-07T11:03:28.000Z</time>
      </trkpt>
      <trkpt lat="44.106766" lon="4.925727">
        <ele>112.798916</ele>
        <time>2017-06-07T11:03:30.000Z</time>
      </trkpt>
      <trkpt lat="44.106712" lon="4.925861">
        <ele>112.636246</ele>
        <time>2017-06-07T11:03:33.000Z</time>
      </trkpt>
      <trkpt lat="44.106636" lon="4.925975">
        <ele>112.471566</ele>
        <time>2017-06-07T11:03:38.000Z</time>
      </trkpt>
      <trkpt lat="44.106590" lon="4.926114">
        <ele>112.309540</ele>
        <time>2017-06-07T11:03:43.000Z</time>
      </trkpt>
      <trkpt lat="44.106556" lon="4.926244">
        <ele>112.163073</ele>
        <time>2017-06-07T11:03:47.000Z</time>
      </trkpt>
      <trkpt lat="44.106490" lon="4.926375">
        <ele>111.993660</ele>
        <time>2017-06-07T11:03:50.000Z</time>
      </trkpt>
      <trkpt lat="44.106440" lon="4.926488">
        <ele>111.853145</ele>
        <time>2017-06-07T11:03:52.000Z</time>
      </trkpt>
      <trkpt lat="44.106380" lon="4.926599">
        <ele>111.706062</ele>
        <time>2017-06-07T11:03:54.000Z</time>
      </trkpt>
      <trkpt lat="44.106327" lon="4.926726">
        <ele>111.550558</ele>
        <time>2017-06-07T11:03:56.000Z</time>
      </trkpt>
      <trkpt lat="44.106266" lon="4.926852">
        <ele>111.389683</ele>
        <time>2017-06-07T11:03:58.000Z</time>
      </trkpt>
      <trkpt lat="44.106210" lon="4.926987">
        <ele>111.224633</ele>
        <time>2017-06-07T11:04:00.000Z</time>
      </trkpt>
      <trkpt lat="44.106148" lon="4.927121">
        <ele>111.055876</ele>
        <time>2017-06-07T11:04:02.000Z</time>
      </trkpt>
      <trkpt lat="44.106087" lon="4.927249">
        <ele>110.893241</ele>
        <time>2017-06-07T11:04:04.000Z</time>
      </trkpt>
      <trkpt lat="44.106030" lon="4.927378">
        <ele>110.732891</ele>
        <time>2017-06-07T11:04:06.000Z</time>
      </trkpt>
      <trkpt lat="44.105972" lon="4.927505">
        <ele>110.573554</ele>
        <time>2017-06-07T11:04:08.000Z</time>
      </trkpt>
      <trkpt lat="44.105920" lon="4.927639">
        <ele>110.412305</ele>
        <time>2017-06-07T11:04:10.000Z</time>
      </trkpt>
      <trkpt lat="44.105860" lon="4.927776">
        <ele>110.242423</ele>
        <time>2017-06-07T11:04:12.000Z</time>
      </trkpt>
      <trkpt lat="44.105797" lon="4.927920">
        <ele>110.170733</ele>
        <time>2017-06-07T11:04:14.000Z</time>
      </trkpt>
      <trkpt lat="44.105736" lon="4.928067">
        <ele>110.120176</ele>
        <time>2017-06-07T11:04:16.000Z</time>
      </trkpt>
      <trkpt lat="44.105682" lon="4.928209">
        <ele>110.072328</ele>
        <time>2017-06-07T11:04:18.000Z</time>
      </trkpt>
      <trkpt lat="44.105630" lon="4.928354">
        <ele>110.024065</ele>
        <time>2017-06-07T11:04:20.000Z</time>
      </trkpt>
      <trkpt lat="44.105570" lon="4.928491">
        <ele>109.976281</ele>
        <time>2017-06-07T11:04:22.000Z</time>
      </trkpt>
      <trkpt lat="44.105507" lon="4.928626">
        <ele>109.928337</ele>
        <time>2017-06-07T11:04:24.000Z</time>
      </trkpt>
      <trkpt lat="44.105446" lon="4.928764">
        <ele>109.880082</ele>
        <time>2017-06-07T11:04:26.000Z</time>
      </trkpt>
      <trkpt lat="44.105385" lon="4.928901">
        <ele>109.832081</ele>
        <time>2017-06-07T11:04:28.000Z</time>
      </trkpt>
      <trkpt lat="44.105324" lon="4.929029">
        <ele>109.786335</ele>
        <time>2017-06-07T11:04:30.000Z</time>
      </trkpt>
      <trkpt lat="44.105267" lon="4.929157">
        <ele>109.741485</ele>
        <time>2017-06-07T11:04:32.000Z</time>
      </trkpt>
      <trkpt lat="44.105210" lon="4.929295">
        <ele>109.694078</ele>
        <time>2017-06-07T11:04:34.000Z</time>
      </trkpt>
      <trkpt lat="44.105150" lon="4.929433">
        <ele>109.646039</ele>
        <time>2017-06-07T11:04:36.000Z</time>
      </trkpt>
      <trkpt lat="44.105083" lon="4.929575">
        <ele>109.595443</ele>
        <time>2017-06-07T11:04:38.000Z</time>
      </trkpt>
      <trkpt lat="44.105022" lon="4.929718">
        <ele>109.545913</ele>
        <time>2017-06-07T11:04:40.000Z</time>
      </trkpt>
      <trkpt lat="44.104965" lon="4.929852">
        <ele>109.499535</ele>
        <time>2017-06-07T11:04:42.000Z</time>
      </trkpt>
      <trkpt lat="44.104904" lon="4.929994">
        <ele>109.442141</ele>
        <time>2017-06-07T11:04:44.000Z</time>
      </trkpt>
      <trkpt lat="44.104840" lon="4.930137">
        <ele>109.367100</ele>
        <time>2017-06-07T11:04:46.000Z</time>
      </trkpt>
      <trkpt lat="44.104774" lon="4.930283">
        <ele>109.290268</ele>
        <time>2017-06-07T11:04:48.000Z</time>
      </trkpt>
      <trkpt lat="44.104713" lon="4.930420">
        <ele>109.218478</ele>
        <time>2017-06-07T11:04:50.000Z</time>
      </trkpt>
      <trkpt lat="44.104650" lon="4.930557">
        <ele>109.146027</ele>
        <time>2017-06-07T11:04:52.000Z</time>
      </trkpt>
      <trkpt lat="44.104584" lon="4.930704">
        <ele>109.068818</ele>
        <time>2017-06-07T11:04:54.000Z</time>
      </trkpt>
      <trkpt lat="44.104523" lon="4.930849">
        <ele>108.993977</ele>
        <time>2017-06-07T11:04:56.000Z</time>
      </trkpt>
      <trkpt lat="44.104460" lon="4.930997">
        <ele>108.917355</ele>
        <time>2017-06-07T11:04:58.000Z</time>
      </trkpt>
      <trkpt lat="44.104397" lon="4.931141">
        <ele>108.842259</ele>
        <time>2017-06-07T11:05:00.000Z</time>
      </trkpt>
      <trkpt lat="44.104332" lon="4.931287">
        <ele>108.765756</ele>
        <time>2017-06-07T11:05:02.000Z</time>
      </trkpt>
      <trkpt lat="44.104267" lon="4.931437">
        <ele>108.687732</ele>
        <time>2017-06-07T11:05:04.000Z</time>
      </trkpt>
      <trkpt lat="44.104200" lon="4.931582">
        <ele>108.610943</ele>
        <time>2017-06-07T11:05:06.000Z</time>
      </trkpt>
      <trkpt lat="44.104137" lon="4.931719">
        <ele>108.538491</ele>
        <time>2017-06-07T11:05:08.000Z</time>
      </trkpt>
      <trkpt lat="44.104073" lon="4.931856">
        <ele>108.465703</ele>
        <time>2017-06-07T11:05:10.000Z</time>
      </trkpt>
      <trkpt lat="44.104008" lon="4.931997">
        <ele>108.391083</ele>
        <time>2017-06-07T11:05:12.000Z</time>
      </trkpt>
      <trkpt lat="44.103943" lon="4.932151">
        <ele>108.325907</ele>
        <time>2017-06-07T11:05:14.000Z</time>
      </trkpt>
      <trkpt lat="44.103880" lon="4.932299">
        <ele>108.277101</ele>
        <time>2017-06-07T11:05:16.000Z</time>
      </trkpt>
      <trkpt lat="44.103817" lon="4.932449">
        <ele>108.227806</ele>
        <time>2017-06-07T11:05:18.000Z</time>
      </trkpt>
      <trkpt lat="44.103752" lon="4.932601">
        <ele>108.177620</ele>
        <time>2017-06-07T11:05:20.000Z</time>
      </trkpt>
      <trkpt lat="44.103683" lon="4.932753">
        <ele>108.126608</ele>
        <time>2017-06-07T11:05:22.000Z</time>
      </trkpt>
      <trkpt lat="44.103610" lon="4.932900">
        <ele>108.075907</ele>
        <time>2017-06-07T11:05:24.000Z</time>
      </trkpt>
      <trkpt lat="44.103546" lon="4.933048">
        <ele>108.026898</ele>
        <time>2017-06-07T11:05:26.000Z</time>
      </trkpt>
      <trkpt lat="44.103485" lon="4.933194">
        <ele>107.978981</ele>
        <time>2017-06-07T11:05:28.000Z</time>
      </trkpt>
      <trkpt lat="44.103424" lon="4.933338">
        <ele>107.931553</ele>
        <time>2017-06-07T11:05:30.000Z</time>
      </trkpt>
      <trkpt lat="44.103360" lon="4.933487">
        <ele>107.882301</ele>
        <time>2017-06-07T11:05:32.000Z</time>
      </trkpt>
      <trkpt lat="44.103294" lon="4.933631">
        <ele>107.833840</ele>
        <time>2017-06-07T11:05:34.000Z</time>
      </trkpt>
      <trkpt lat="44.103226" lon="4.933784">
        <ele>107.782796</ele>
        <time>2017-06-07T11:05:36.000Z</time>
      </trkpt>
      <trkpt lat="44.103160" lon="4.933942">
        <ele>107.730943</ele>
        <time>2017-06-07T11:05:38.000Z</time>
      </trkpt>
      <trkpt lat="44.103100" lon="4.934098">
        <ele>107.680741</ele>
        <time>2017-06-07T11:05:40.000Z</time>
      </trkpt>
      <trkpt lat="44.103043" lon="4.934243">
        <ele>107.624872</ele>
        <time>2017-06-07T11:05:42.000Z</time>
      </trkpt>
      <trkpt lat="44.102978" lon="4.934385">
        <ele>107.513482</ele>
        <time>2017-06-07T11:05:44.000Z</time>
      </trkpt>
      <trkpt lat="44.102910" lon="4.934531">
        <ele>107.398372</ele>
        <time>2017-06-07T11:05:46.000Z</time>
      </trkpt>
      <trkpt lat="44.102837" lon="4.934681">
        <ele>107.278511</ele>
        <time>2017-06-07T11:05:48.000Z</time>
      </trkpt>
      <trkpt lat="44.102768" lon="4.934835">
        <ele>107.158441</ele>
        <time>2017-06-07T11:05:50.000Z</time>
      </trkpt>
      <trkpt lat="44.102700" lon="4.934987">
        <ele>107.039981</ele>
        <time>2017-06-07T11:05:52.000Z</time>
      </trkpt>
      <trkpt lat="44.102634" lon="4.935144">
        <ele>106.919642</ele>
        <time>2017-06-07T11:05:54.000Z</time>
      </trkpt>
      <trkpt lat="44.102573" lon="4.935301">
        <ele>106.801563</ele>
        <time>2017-06-07T11:05:56.000Z</time>
      </trkpt>
      <trkpt lat="44.102505" lon="4.935457">
        <ele>106.680849</ele>
        <time>2017-06-07T11:05:58.000Z</time>
      </trkpt>
      <trkpt lat="44.102440" lon="4.935611">
        <ele>106.562688</ele>
        <time>2017-06-07T11:06:00.000Z</time>
      </trkpt>
      <trkpt lat="44.102370" lon="4.935763">
        <ele>106.443243</ele>
        <time>2017-06-07T11:06:02.000Z</time>
      </trkpt>
      <trkpt lat="44.102300" lon="4.935914">
        <ele>106.324355</ele>
        <time>2017-06-07T11:06:04.000Z</time>
      </trkpt>
      <trkpt lat="44.102226" lon="4.936072">
        <ele>106.199576</ele>
        <time>2017-06-07T11:06:06.000Z</time>
      </trkpt>
      <trkpt lat="44.102160" lon="4.936229">
        <ele>106.079237</ele>
        <time>2017-06-07T11:06:08.000Z</time>
      </trkpt>
      <trkpt lat="44.102100" lon="4.936387">
        <ele>105.965975</ele>
        <time>2017-06-07T11:06:10.000Z</time>
      </trkpt>
      <trkpt lat="44.102036" lon="4.936538">
        <ele>105.875315</ele>
        <time>2017-06-07T11:06:12.000Z</time>
      </trkpt>
      <trkpt lat="44.101974" lon="4.936682">
        <ele>105.788501</ele>
        <time>2017-06-07T11:06:14.000Z</time>
      </trkpt>
      <trkpt lat="44.101913" lon="4.936828">
        <ele>105.701164</ele>
        <time>2017-06-07T11:06:16.000Z</time>
      </trkpt>
      <trkpt lat="44.101852" lon="4.936973">
        <ele>105.614272</ele>
        <time>2017-06-07T11:06:18.000Z</time>
      </trkpt>
      <trkpt lat="44.101790" lon="4.937115">
        <ele>105.528344</ele>
        <time>2017-06-07T11:06:20.000Z</time>
      </trkpt>
      <trkpt lat="44.101738" lon="4.937251">
        <ele>105.448677</ele>
        <time>2017-06-07T11:06:22.000Z</time>
      </trkpt>
      <trkpt lat="44.101670" lon="4.937394">
        <ele>105.359996</ele>
        <time>2017-06-07T11:06:25.000Z</time>
      </trkpt>
      <trkpt lat="44.101593" lon="4.937502">
        <ele>105.281305</ele>
        <time>2017-06-07T11:06:30.000Z</time>
      </trkpt>
      <trkpt lat="44.101560" lon="4.937649">
        <ele>105.201670</ele>
        <time>2017-06-07T11:06:35.000Z</time>
      </trkpt>
      <trkpt lat="44.101505" lon="4.937783">
        <ele>105.121865</ele>
        <time>2017-06-07T11:06:39.000Z</time>
      </trkpt>
      <trkpt lat="44.101437" lon="4.937930">
        <ele>105.031452</ele>
        <time>2017-06-07T11:06:42.000Z</time>
      </trkpt>
      <trkpt lat="44.101387" lon="4.938034">
        <ele>104.966739</ele>
        <time>2017-06-07T11:06:44.000Z</time>
      </trkpt>
      <trkpt lat="44.101334" lon="4.938160">
        <ele>104.891236</ele>
        <time>2017-06-07T11:06:46.000Z</time>
      </trkpt>
      <trkpt lat="44.101280" lon="4.938291">
        <ele>104.813134</ele>
        <time>2017-06-07T11:06:48.000Z</time>
      </trkpt>
      <trkpt lat="44.101220" lon="4.938422">
        <ele>104.732795</ele>
        <time>2017-06-07T11:06:50.000Z</time>
      </trkpt>
      <trkpt lat="44.101160" lon="4.938561">
        <ele>104.661796</ele>
        <time>2017-06-07T11:06:52.000Z</time>
      </trkpt>
      <trkpt lat="44.101100" lon="4.938709">
        <ele>104.602353</ele>
        <time>2017-06-07T11:06:54.000Z</time>
      </trkpt>
      <trkpt lat="44.101036" lon="4.938846">
        <ele>104.545188</ele>
        <time>2017-06-07T11:06:56.000Z</time>
      </trkpt>
      <trkpt lat="44.100970" lon="4.938984">
        <ele>104.487196</ele>
        <time>2017-06-07T11:06:58.000Z</time>
      </trkpt>
      <trkpt lat="44.100903" lon="4.939132">
        <ele>104.426004</ele>
        <time>2017-06-07T11:07:00.000Z</time>
      </trkpt>
      <trkpt lat="44.100838" lon="4.939276">
        <ele>104.366515</ele>
        <time>2017-06-07T11:07:02.000Z</time>
      </trkpt>
      <trkpt lat="44.100773" lon="4.939425">
        <ele>104.305538</ele>
        <time>2017-06-07T11:07:04.000Z</time>
      </trkpt>
      <trkpt lat="44.100708" lon="4.939573">
        <ele>104.244859</ele>
        <time>2017-06-07T11:07:06.000Z</time>
      </trkpt>
      <trkpt lat="44.100643" lon="4.939718">
        <ele>104.185073</ele>
        <time>2017-06-07T11:07:08.000Z</time>
      </trkpt>
      <trkpt lat="44.100582" lon="4.939868">
        <ele>104.124780</ele>
        <time>2017-06-07T11:07:10.000Z</time>
      </trkpt>
      <trkpt lat="44.100517" lon="4.940016">
        <ele>104.064102</ele>
        <time>2017-06-07T11:07:12.000Z</time>
      </trkpt>
      <trkpt lat="44.100452" lon="4.940162">
        <ele>104.004019</ele>
        <time>2017-06-07T11:07:14.000Z</time>
      </trkpt>
      <trkpt lat="44.100384" lon="4.940309">
        <ele>103.942859</ele>
        <time>2017-06-07T11:07:16.000Z</time>
      </trkpt>
      <trkpt lat="44.100315" lon="4.940452">
        <ele>103.882601</ele>
        <time>2017-06-07T11:07:18.000Z</time>
      </trkpt>
      <trkpt lat="44.100250" lon="4.940601">
        <ele>103.821623</ele>
        <time>2017-06-07T11:07:20.000Z</time>
      </trkpt>
      <trkpt lat="44.100185" lon="4.940759">
        <ele>103.851911</ele>
        <time>2017-06-07T11:07:22.000Z</time>
      </trkpt>
      <trkpt lat="44.100120" lon="4.940913">
        <ele>103.896767</ele>
        <time>2017-06-07T11:07:24.000Z</time>
      </trkpt>
      <trkpt lat="44.100050" lon="4.941061">
        <ele>103.941267</ele>
        <time>2017-06-07T11:07:26.000Z</time>
      </trkpt>
      <trkpt lat="44.099983" lon="4.941216">
        <ele>103.986695</ele>
        <time>2017-06-07T11:07:28.000Z</time>
      </trkpt>
      <trkpt lat="44.099915" lon="4.941374">
        <ele>104.032950</ele>
        <time>2017-06-07T11:07:30.000Z</time>
      </trkpt>
      <trkpt lat="44.099850" lon="4.941532">
        <ele>104.078674</ele>
        <time>2017-06-07T11:07:32.000Z</time>
      </trkpt>
      <trkpt lat="44.099780" lon="4.941685">
        <ele>104.124228</ele>
        <time>2017-06-07T11:07:34.000Z</time>
      </trkpt>
      <trkpt lat="44.099710" lon="4.941834">
        <ele>104.168938</ele>
        <time>2017-06-07T11:07:36.000Z</time>
      </trkpt>
      <trkpt lat="44.099632" lon="4.941985">
        <ele>104.215646</ele>
        <time>2017-06-07T11:07:38.000Z</time>
      </trkpt>
      <trkpt lat="44.099560" lon="4.942148">
        <ele>104.263700</ele>
        <time>2017-06-07T11:07:40.000Z</time>
      </trkpt>
      <trkpt lat="44.099495" lon="4.942314">
        <ele>104.311178</ele>
        <time>2017-06-07T11:07:42.000Z</time>
      </trkpt>
      <trkpt lat="44.099426" lon="4.942481">
        <ele>104.359559</ele>
        <time>2017-06-07T11:07:44.000Z</time>
      </trkpt>
      <trkpt lat="44.099350" lon="4.942650">
        <ele>104.409630</ele>
        <time>2017-06-07T11:07:46.000Z</time>
      </trkpt>
      <trkpt lat="44.099277" lon="4.942819">
        <ele>104.438374</ele>
        <time>2017-06-07T11:07:48.000Z</time>
      </trkpt>
      <trkpt lat="44.099200" lon="4.942983">
        <ele>104.429432</ele>
        <time>2017-06-07T11:07:50.000Z</time>
      </trkpt>
      <trkpt lat="44.099133" lon="4.943162">
        <ele>104.420221</ele>
        <time>2017-06-07T11:07:52.000Z</time>
      </trkpt>
      <trkpt lat="44.099060" lon="4.943340">
        <ele>104.410866</ele>
        <time>2017-06-07T11:07:54.000Z</time>
      </trkpt>
      <trkpt lat="44.098984" lon="4.943515">
        <ele>104.401533</ele>
        <time>2017-06-07T11:07:56.000Z</time>
      </trkpt>
      <trkpt lat="44.098907" lon="4.943687">
        <ele>104.392284</ele>
        <time>2017-06-07T11:07:58.000Z</time>
      </trkpt>
      <trkpt lat="44.098830" lon="4.943858">
        <ele>104.383073</ele>
        <time>2017-06-07T11:08:00.000Z</time>
      </trkpt>
      <trkpt lat="44.098760" lon="4.944029">
        <ele>104.374090</ele>
        <time>2017-06-07T11:08:02.000Z</time>
      </trkpt>
      <trkpt lat="44.098686" lon="4.944197">
        <ele>104.365096</ele>
        <time>2017-06-07T11:08:04.000Z</time>
      </trkpt>
      <trkpt lat="44.098610" lon="4.944369">
        <ele>104.355880</ele>
        <time>2017-06-07T11:08:06.000Z</time>
      </trkpt>
      <trkpt lat="44.098534" lon="4.944542">
        <ele>104.346625</ele>
        <time>2017-06-07T11:08:08.000Z</time>
      </trkpt>
      <trkpt lat="44.098457" lon="4.944717">
        <ele>104.337259</ele>
        <time>2017-06-07T11:08:10.000Z</time>
      </trkpt>
      <trkpt lat="44.098390" lon="4.944891">
        <ele>104.328249</ele>
        <time>2017-06-07T11:08:12.000Z</time>
      </trkpt>
      <trkpt lat="44.098316" lon="4.945050">
        <ele>104.178911</ele>
        <time>2017-06-07T11:08:14.000Z</time>
      </trkpt>
      <trkpt lat="44.098244" lon="4.945210">
        <ele>104.012215</ele>
        <time>2017-06-07T11:08:16.000Z</time>
      </trkpt>
      <trkpt lat="44.098175" lon="4.945365">
        <ele>103.851216</ele>
        <time>2017-06-07T11:08:18.000Z</time>
      </trkpt>
      <trkpt lat="44.098103" lon="4.945519">
        <ele>103.688984</ele>
        <time>2017-06-07T11:08:20.000Z</time>
      </trkpt>
      <trkpt lat="44.098034" lon="4.945675">
        <ele>103.527234</ele>
        <time>2017-06-07T11:08:22.000Z</time>
      </trkpt>
      <trkpt lat="44.097973" lon="4.945828">
        <ele>103.372738</ele>
        <time>2017-06-07T11:08:24.000Z</time>
      </trkpt>
      <trkpt lat="44.097920" lon="4.945960">
        <ele>103.239224</ele>
        <time>2017-06-07T11:08:26.000Z</time>
      </trkpt>
      <trkpt lat="44.097874" lon="4.946069">
        <ele>103.127608</ele>
        <time>2017-06-07T11:08:29.000Z</time>
      </trkpt>
      <trkpt lat="44.097805" lon="4.946159">
        <ele>103.011382</ele>
        <time>2017-06-07T11:08:33.000Z</time>
      </trkpt>
      <trkpt lat="44.097786" lon="4.946312">
        <ele>102.874301</ele>
        <time>2017-06-07T11:08:38.000Z</time>
      </trkpt>
      <trkpt lat="44.097730" lon="4.946428">
        <ele>102.750902</ele>
        <time>2017-06-07T11:08:41.000Z</time>
      </trkpt>
      <trkpt lat="44.097664" lon="4.946579">
        <ele>102.594841</ele>
        <time>2017-06-07T11:08:44.000Z</time>
      </trkpt>
      <trkpt lat="44.097607" lon="4.946706">
        <ele>102.462623</ele>
        <time>2017-06-07T11:08:46.000Z</time>
      </trkpt>
      <trkpt lat="44.097546" lon="4.946845">
        <ele>102.318808</ele>
        <time>2017-06-07T11:08:48.000Z</time>
      </trkpt>
      <trkpt lat="44.097473" lon="4.946990">
        <ele>102.162471</ele>
        <time>2017-06-07T11:08:50.000Z</time>
      </trkpt>
      <trkpt lat="44.097397" lon="4.947148">
        <ele>102.062977</ele>
        <time>2017-06-07T11:08:52.000Z</time>
      </trkpt>
      <trkpt lat="44.097320" lon="4.947327">
        <ele>101.982420</ele>
        <time>2017-06-07T11:08:54.000Z</time>
      </trkpt>
      <trkpt lat="44.097237" lon="4.947508">
        <ele>101.899510</ele>
        <time>2017-06-07T11:08:56.000Z</time>
      </trkpt>
      <trkpt lat="44.097150" lon="4.947697">
        <ele>101.812838</ele>
        <time>2017-06-07T11:08:58.000Z</time>
      </trkpt>
      <trkpt lat="44.097073" lon="4.947884">
        <ele>101.729617</ele>
        <time>2017-06-07T11:09:00.000Z</time>
      </trkpt>
      <trkpt lat="44.096996" lon="4.948067">
        <ele>101.647731</ele>
        <time>2017-06-07T11:09:02.000Z</time>
      </trkpt>
      <trkpt lat="44.096920" lon="4.948238">
        <ele>101.570092</ele>
        <time>2017-06-07T11:09:04.000Z</time>
      </trkpt>
      <trkpt lat="44.096850" lon="4.948402">
        <ele>101.496436</ele>
        <time>2017-06-07T11:09:06.000Z</time>
      </trkpt>
      <trkpt lat="44.096775" lon="4.948562">
        <ele>101.422669</ele>
        <time>2017-06-07T11:09:08.000Z</time>
      </trkpt>
      <trkpt lat="44.096706" lon="4.948718">
        <ele>101.351934</ele>
        <time>2017-06-07T11:09:10.000Z</time>
      </trkpt>
      <trkpt lat="44.096640" lon="4.948876">
        <ele>101.281365</ele>
        <time>2017-06-07T11:09:12.000Z</time>
      </trkpt>
      <trkpt lat="44.096573" lon="4.949034">
        <ele>101.210524</ele>
        <time>2017-06-07T11:09:14.000Z</time>
      </trkpt>
      <trkpt lat="44.096504" lon="4.949181">
        <ele>101.144330</ele>
        <time>2017-06-07T11:09:16.000Z</time>
      </trkpt>
      <trkpt lat="44.096440" lon="4.949332">
        <ele>101.093439</ele>
        <time>2017-06-07T11:09:18.000Z</time>
      </trkpt>
      <trkpt lat="44.096375" lon="4.949493">
        <ele>101.039831</ele>
        <time>2017-06-07T11:09:20.000Z</time>
      </trkpt>
      <trkpt lat="44.096302" lon="4.949655">
        <ele>100.984321</ele>
        <time>2017-06-07T11:09:22.000Z</time>
      </trkpt>
      <trkpt lat="44.096230" lon="4.949822">
        <ele>100.927785</ele>
        <time>2017-06-07T11:09:24.000Z</time>
      </trkpt>
      <trkpt lat="44.096153" lon="4.949997">
        <ele>100.868216</ele>
        <time>2017-06-07T11:09:26.000Z</time>
      </trkpt>
      <trkpt lat="44.096077" lon="4.950169">
        <ele>100.809601</ele>
        <time>2017-06-07T11:09:28.000Z</time>
      </trkpt>
      <trkpt lat="44.096000" lon="4.950347">
        <ele>100.749288</ele>
        <time>2017-06-07T11:09:30.000Z</time>
      </trkpt>
      <trkpt lat="44.095924" lon="4.950529">
        <ele>100.688181</ele>
        <time>2017-06-07T11:09:32.000Z</time>
      </trkpt>
      <trkpt lat="44.095844" lon="4.950708">
        <ele>100.626987</ele>
        <time>2017-06-07T11:09:34.000Z</time>
      </trkpt>
      <trkpt lat="44.095768" lon="4.950879">
        <ele>100.568618</ele>
        <time>2017-06-07T11:09:36.000Z</time>
      </trkpt>
      <trkpt lat="44.095690" lon="4.951047">
        <ele>100.510554</ele>
        <time>2017-06-07T11:09:38.000Z</time>
      </trkpt>
      <trkpt lat="44.095623" lon="4.951221">
        <ele>100.453248</ele>
        <time>2017-06-07T11:09:40.000Z</time>
      </trkpt>
      <trkpt lat="44.095550" lon="4.951383">
        <ele>100.420443</ele>
        <time>2017-06-07T11:09:42.000Z</time>
      </trkpt>
      <trkpt lat="44.095474" lon="4.951553">
        <ele>100.416115</ele>
        <time>2017-06-07T11:09:44.000Z</time>
      </trkpt>
      <trkpt lat="44.095400" lon="4.951719">
        <ele>100.411892</ele>
        <time>2017-06-07T11:09:46.000Z</time>
      </trkpt>
      <trkpt lat="44.095320" lon="4.951887">
        <ele>100.407535</ele>
        <time>2017-06-07T11:09:48.000Z</time>
      </trkpt>
      <trkpt lat="44.095238" lon="4.952061">
        <ele>100.403036</ele>
        <time>2017-06-07T11:09:50.000Z</time>
      </trkpt>
      <trkpt lat="44.095158" lon="4.952237">
        <ele>100.398534</ele>
        <time>2017-06-07T11:09:52.000Z</time>
      </trkpt>
      <trkpt lat="44.095080" lon="4.952413">
        <ele>100.394064</ele>
        <time>2017-06-07T11:09:54.000Z</time>
      </trkpt>
      <trkpt lat="44.095010" lon="4.952584">
        <ele>100.389810</ele>
        <time>2017-06-07T11:09:56.000Z</time>
      </trkpt>
      <trkpt lat="44.094936" lon="4.952756">
        <ele>100.385476</ele>
        <time>2017-06-07T11:09:58.000Z</time>
      </trkpt>
      <trkpt lat="44.094860" lon="4.952928">
        <ele>100.381111</ele>
        <time>2017-06-07T11:10:00.000Z</time>
      </trkpt>
      <trkpt lat="44.094784" lon="4.953096">
        <ele>100.376819</ele>
        <time>2017-06-07T11:10:02.000Z</time>
      </trkpt>
      <trkpt lat="44.094707" lon="4.953264">
        <ele>100.372511</ele>
        <time>2017-06-07T11:10:04.000Z</time>
      </trkpt>
      <trkpt lat="44.094627" lon="4.953435">
        <ele>100.365995</ele>
        <time>2017-06-07T11:10:06.000Z</time>
      </trkpt>
      <trkpt lat="44.094560" lon="4.953605">
        <ele>100.123380</ele>
        <time>2017-06-07T11:10:08.000Z</time>
      </trkpt>
      <trkpt lat="44.094482" lon="4.953782">
        <ele>99.863563</ele>
        <time>2017-06-07T11:10:10.000Z</time>
      </trkpt>
      <trkpt lat="44.094406" lon="4.953959">
        <ele>99.605551</ele>
        <time>2017-06-07T11:10:12.000Z</time>
      </trkpt>
      <trkpt lat="44.094326" lon="4.954137">
        <ele>99.342835</ele>
        <time>2017-06-07T11:10:14.000Z</time>
      </trkpt>
      <trkpt lat="44.094246" lon="4.954325">
        <ele>99.069432</ele>
        <time>2017-06-07T11:10:16.000Z</time>
      </trkpt>
      <trkpt lat="44.094166" lon="4.954522">
        <ele>98.786283</ele>
        <time>2017-06-07T11:10:18.000Z</time>
      </trkpt>
      <trkpt lat="44.094074" lon="4.954713">
        <ele>98.498545</ele>
        <time>2017-06-07T11:10:20.000Z</time>
      </trkpt>
      <trkpt lat="44.093994" lon="4.954907">
        <ele>98.218656</ele>
        <time>2017-06-07T11:10:22.000Z</time>
      </trkpt>
      <trkpt lat="44.093910" lon="4.955097">
        <ele>97.939508</ele>
        <time>2017-06-07T11:10:24.000Z</time>
      </trkpt>
      <trkpt lat="44.093830" lon="4.955282">
        <ele>97.669326</ele>
        <time>2017-06-07T11:10:26.000Z</time>
      </trkpt>
      <trkpt lat="44.093750" lon="4.955464">
        <ele>97.402352</ele>
        <time>2017-06-07T11:10:28.000Z</time>
      </trkpt>
      <trkpt lat="44.093670" lon="4.955643">
        <ele>97.232887</ele>
        <time>2017-06-07T11:10:30.000Z</time>
      </trkpt>
      <trkpt lat="44.093590" lon="4.955822">
        <ele>97.227713</ele>
        <time>2017-06-07T11:10:32.000Z</time>
      </trkpt>
      <trkpt lat="44.093506" lon="4.956006">
        <ele>97.222362</ele>
        <time>2017-06-07T11:10:34.000Z</time>
      </trkpt>
      <trkpt lat="44.093430" lon="4.956198">
        <ele>97.216982</ele>
        <time>2017-06-07T11:10:36.000Z</time>
      </trkpt>
      <trkpt lat="44.093353" lon="4.956392">
        <ele>97.211542</ele>
        <time>2017-06-07T11:10:38.000Z</time>
      </trkpt>
      <trkpt lat="44.093273" lon="4.956587">
        <ele>97.206031</ele>
        <time>2017-06-07T11:10:40.000Z</time>
      </trkpt>
      <trkpt lat="44.093190" lon="4.956765">
        <ele>97.200823</ele>
        <time>2017-06-07T11:10:42.000Z</time>
      </trkpt>
      <trkpt lat="44.093110" lon="4.956930">
        <ele>97.195937</ele>
        <time>2017-06-07T11:10:44.000Z</time>
      </trkpt>
      <trkpt lat="44.093033" lon="4.957101">
        <ele>97.190984</ele>
        <time>2017-06-07T11:10:46.000Z</time>
      </trkpt>
      <trkpt lat="44.092964" lon="4.957269">
        <ele>97.186235</ele>
        <time>2017-06-07T11:10:48.000Z</time>
      </trkpt>
      <trkpt lat="44.092890" lon="4.957437">
        <ele>97.181398</ele>
        <time>2017-06-07T11:10:50.000Z</time>
      </trkpt>
      <trkpt lat="44.092820" lon="4.957607">
        <ele>97.176589</ele>
        <time>2017-06-07T11:10:52.000Z</time>
      </trkpt>
      <trkpt lat="44.092743" lon="4.957783">
        <ele>97.123800</ele>
        <time>2017-06-07T11:10:54.000Z</time>
      </trkpt>
      <trkpt lat="44.092663" lon="4.957954">
        <ele>96.984679</ele>
        <time>2017-06-07T11:10:56.000Z</time>
      </trkpt>
      <trkpt lat="44.092590" lon="4.958113">
        <ele>96.856034</ele>
        <time>2017-06-07T11:10:58.000Z</time>
      </trkpt>
      <trkpt lat="44.092514" lon="4.958269">
        <ele>96.727530</ele>
        <time>2017-06-07T11:11:00.000Z</time>
      </trkpt>
      <trkpt lat="44.092440" lon="4.958439">
        <ele>96.592017</ele>
        <time>2017-06-07T11:11:02.000Z</time>
      </trkpt>
      <trkpt lat="44.092373" lon="4.958605">
        <ele>96.462209</ele>
        <time>2017-06-07T11:11:04.000Z</time>
      </trkpt>
      <trkpt lat="44.092304" lon="4.958769">
        <ele>96.332639</ele>
        <time>2017-06-07T11:11:06.000Z</time>
      </trkpt>
      <trkpt lat="44.092230" lon="4.958938">
        <ele>96.197708</ele>
        <time>2017-06-07T11:11:08.000Z</time>
      </trkpt>
      <trkpt lat="44.092163" lon="4.959097">
        <ele>96.072038</ele>
        <time>2017-06-07T11:11:10.000Z</time>
      </trkpt>
      <trkpt lat="44.092100" lon="4.959253">
        <ele>95.950033</ele>
        <time>2017-06-07T11:11:12.000Z</time>
      </trkpt>
      <trkpt lat="44.092026" lon="4.959418">
        <ele>95.817422</ele>
        <time>2017-06-07T11:11:14.000Z</time>
      </trkpt>
      <trkpt lat="44.091953" lon="4.959583">
        <ele>95.685311</ele>
        <time>2017-06-07T11:11:16.000Z</time>
      </trkpt>
      <trkpt lat="44.091890" lon="4.959747">
        <ele>95.558524</ele>
        <time>2017-06-07T11:11:18.000Z</time>
      </trkpt>
      <trkpt lat="44.091820" lon="4.959894">
        <ele>95.437958</ele>
        <time>2017-06-07T11:11:20.000Z</time>
      </trkpt>
      <trkpt lat="44.091747" lon="4.960033">
        <ele>95.319180</ele>
        <time>2017-06-07T11:11:22.000Z</time>
      </trkpt>
      <trkpt lat="44.091682" lon="4.960145">
        <ele>95.219855</ele>
        <time>2017-06-07T11:11:24.000Z</time>
      </trkpt>
      <trkpt lat="44.091625" lon="4.960252">
        <ele>95.127962</ele>
        <time>2017-06-07T11:11:27.000Z</time>
      </trkpt>
      <trkpt lat="44.091553" lon="4.960373">
        <ele>95.019575</ele>
        <time>2017-06-07T11:11:34.000Z</time>
      </trkpt>
      <trkpt lat="44.091530" lon="4.960503">
        <ele>94.927223</ele>
        <time>2017-06-07T11:11:40.000Z</time>
      </trkpt>
      <trkpt lat="44.091470" lon="4.960637">
        <ele>94.818300</ele>
        <time>2017-06-07T11:11:44.000Z</time>
      </trkpt>
      <trkpt lat="44.091420" lon="4.960786">
        <ele>94.704858</ele>
        <time>2017-06-07T11:11:47.000Z</time>
      </trkpt>
      <trkpt lat="44.091343" lon="4.960949">
        <ele>94.570283</ele>
        <time>2017-06-07T11:11:50.000Z</time>
      </trkpt>
      <trkpt lat="44.091280" lon="4.961073">
        <ele>94.465512</ele>
        <time>2017-06-07T11:11:52.000Z</time>
      </trkpt>
      <trkpt lat="44.091225" lon="4.961211">
        <ele>94.356648</ele>
        <time>2017-06-07T11:11:54.000Z</time>
      </trkpt>
      <trkpt lat="44.091160" lon="4.961371">
        <ele>94.229850</ele>
        <time>2017-06-07T11:11:56.000Z</time>
      </trkpt>
      <trkpt lat="44.091095" lon="4.961534">
        <ele>94.101247</ele>
        <time>2017-06-07T11:11:58.000Z</time>
      </trkpt>
      <trkpt lat="44.091015" lon="4.961693">
        <ele>93.967336</ele>
        <time>2017-06-07T11:12:00.000Z</time>
      </trkpt>
      <trkpt lat="44.090930" lon="4.961851">
        <ele>93.831166</ele>
        <time>2017-06-07T11:12:02.000Z</time>
      </trkpt>
      <trkpt lat="44.090860" lon="4.962016">
        <ele>93.666031</ele>
        <time>2017-06-07T11:12:04.000Z</time>
      </trkpt>
      <trkpt lat="44.090786" lon="4.962181">
        <ele>93.420546</ele>
        <time>2017-06-07T11:12:06.000Z</time>
      </trkpt>
      <trkpt lat="44.090714" lon="4.962363">
        <ele>93.158333</ele>
        <time>2017-06-07T11:12:08.000Z</time>
      </trkpt>
      <trkpt lat="44.090640" lon="4.962547">
        <ele>92.892206</ele>
        <time>2017-06-07T11:12:10.000Z</time>
      </trkpt>
      <trkpt lat="44.090565" lon="4.962735">
        <ele>92.620814</ele>
        <time>2017-06-07T11:12:12.000Z</time>
      </trkpt>
      <trkpt lat="44.090480" lon="4.962926">
        <ele>92.337259</ele>
        <time>2017-06-07T11:12:14.000Z</time>
      </trkpt>
      <trkpt lat="44.090400" lon="4.963103">
        <ele>92.073342</ele>
        <time>2017-06-07T11:12:16.000Z</time>
      </trkpt>
      <trkpt lat="44.090324" lon="4.963278">
        <ele>91.815264</ele>
        <time>2017-06-07T11:12:18.000Z</time>
      </trkpt>
      <trkpt lat="44.090250" lon="4.963452">
        <ele>91.560072</ele>
        <time>2017-06-07T11:12:20.000Z</time>
      </trkpt>
      <trkpt lat="44.090183" lon="4.963623">
        <ele>91.314252</ele>
        <time>2017-06-07T11:12:22.000Z</time>
      </trkpt>
      <trkpt lat="44.090110" lon="4.963784">
        <ele>91.073975</ele>
        <time>2017-06-07T11:12:24.000Z</time>
      </trkpt>
      <trkpt lat="44.090034" lon="4.963949">
        <ele>90.826608</ele>
        <time>2017-06-07T11:12:26.000Z</time>
      </trkpt>
      <trkpt lat="44.089960" lon="4.964118">
        <ele>90.578377</ele>
        <time>2017-06-07T11:12:28.000Z</time>
      </trkpt>
      <trkpt lat="44.089880" lon="4.964289">
        <ele>90.571547</ele>
        <time>2017-06-07T11:12:30.000Z</time>
      </trkpt>
      <trkpt lat="44.089800" lon="4.964468">
        <ele>90.564491</ele>
        <time>2017-06-07T11:12:32.000Z</time>
      </trkpt>
      <trkpt lat="44.089725" lon="4.964635">
        <ele>90.557900</ele>
        <time>2017-06-07T11:12:34.000Z</time>
      </trkpt>
      <trkpt lat="44.089653" lon="4.964813">
        <ele>90.551063</ele>
        <time>2017-06-07T11:12:36.000Z</time>
      </trkpt>
      <trkpt lat="44.089584" lon="4.964982">
        <ele>90.544557</ele>
        <time>2017-06-07T11:12:38.000Z</time>
      </trkpt>
      <trkpt lat="44.089516" lon="4.965134">
        <ele>90.538564</ele>
        <time>2017-06-07T11:12:40.000Z</time>
      </trkpt>
      <trkpt lat="44.089450" lon="4.965282">
        <ele>90.532733</ele>
        <time>2017-06-07T11:12:42.000Z</time>
      </trkpt>
      <trkpt lat="44.089380" lon="4.965424">
        <ele>90.526969</ele>
        <time>2017-06-07T11:12:44.000Z</time>
      </trkpt>
      <trkpt lat="44.089300" lon="4.965577">
        <ele>90.520636</ele>
        <time>2017-06-07T11:12:46.000Z</time>
      </trkpt>
      <trkpt lat="44.089214" lon="4.965724">
        <ele>90.514291</ele>
        <time>2017-06-07T11:12:48.000Z</time>
      </trkpt>
      <trkpt lat="44.089130" lon="4.965867">
        <ele>90.508108</ele>
        <time>2017-06-07T11:12:50.000Z</time>
      </trkpt>
      <trkpt lat="44.089050" lon="4.966017">
        <ele>90.501855</ele>
        <time>2017-06-07T11:12:52.000Z</time>
      </trkpt>
      <trkpt lat="44.088978" lon="4.966175">
        <ele>90.495593</ele>
        <time>2017-06-07T11:12:54.000Z</time>
      </trkpt>
      <trkpt lat="44.088920" lon="4.966352">
        <ele>90.526297</ele>
        <time>2017-06-07T11:12:56.000Z</time>
      </trkpt>
      <trkpt lat="44.088867" lon="4.966525">
        <ele>90.562373</ele>
        <time>2017-06-07T11:12:58.000Z</time>
      </trkpt>
      <trkpt lat="44.088810" lon="4.966691">
        <ele>90.597666</ele>
        <time>2017-06-07T11:13:00.000Z</time>
      </trkpt>
      <trkpt lat="44.088750" lon="4.966854">
        <ele>90.632798</ele>
        <time>2017-06-07T11:13:02.000Z</time>
      </trkpt>
      <trkpt lat="44.088688" lon="4.967010">
        <ele>90.666997</ele>
        <time>2017-06-07T11:13:04.000Z</time>
      </trkpt>
      <trkpt lat="44.088630" lon="4.967168">
        <ele>90.701033</ele>
        <time>2017-06-07T11:13:06.000Z</time>
      </trkpt>
      <trkpt lat="44.088560" lon="4.967326">
        <ele>90.736641</ele>
        <time>2017-06-07T11:13:08.000Z</time>
      </trkpt>
      <trkpt lat="44.088493" lon="4.967487">
        <ele>90.772333</ele>
        <time>2017-06-07T11:13:10.000Z</time>
      </trkpt>
      <trkpt lat="44.088425" lon="4.967647">
        <ele>90.807993</ele>
        <time>2017-06-07T11:13:12.000Z</time>
      </trkpt>
      <trkpt lat="44.088364" lon="4.967790">
        <ele>90.839896</ele>
        <time>2017-06-07T11:13:14.000Z</time>
      </trkpt>
      <trkpt lat="44.088303" lon="4.967938">
        <ele>90.872626</ele>
        <time>2017-06-07T11:13:16.000Z</time>
      </trkpt>
      <trkpt lat="44.088245" lon="4.968085">
        <ele>90.904798</ele>
        <time>2017-06-07T11:13:18.000Z</time>
      </trkpt>
      <trkpt lat="44.088180" lon="4.968226">
        <ele>90.936935</ele>
        <time>2017-06-07T11:13:20.000Z</time>
      </trkpt>
      <trkpt lat="44.088116" lon="4.968368">
        <ele>90.969092</ele>
        <time>2017-06-07T11:13:22.000Z</time>
      </trkpt>
      <trkpt lat="44.088050" lon="4.968515">
        <ele>90.987232</ele>
        <time>2017-06-07T11:13:24.000Z</time>
      </trkpt>
      <trkpt lat="44.087990" lon="4.968643">
        <ele>91.000379</ele>
        <time>2017-06-07T11:13:26.000Z</time>
      </trkpt>
      <trkpt lat="44.087933" lon="4.968766">
        <ele>91.012970</ele>
        <time>2017-06-07T11:13:28.000Z</time>
      </trkpt>
      <trkpt lat="44.087875" lon="4.968887">
        <ele>91.025482</ele>
        <time>2017-06-07T11:13:30.000Z</time>
      </trkpt>
      <trkpt lat="44.087820" lon="4.969016">
        <ele>91.038386</ele>
        <time>2017-06-07T11:13:32.000Z</time>
      </trkpt>
      <trkpt lat="44.087765" lon="4.969160">
        <ele>91.052414</ele>
        <time>2017-06-07T11:13:34.000Z</time>
      </trkpt>
      <trkpt lat="44.087708" lon="4.969299">
        <ele>91.066182</ele>
        <time>2017-06-07T11:13:36.000Z</time>
      </trkpt>
      <trkpt lat="44.087640" lon="4.969443">
        <ele>91.081005</ele>
        <time>2017-06-07T11:13:38.000Z</time>
      </trkpt>
      <trkpt lat="44.087578" lon="4.969580">
        <ele>91.094933</ele>
        <time>2017-06-07T11:13:40.000Z</time>
      </trkpt>
      <trkpt lat="44.087524" lon="4.969703">
        <ele>91.107333</ele>
        <time>2017-06-07T11:13:42.000Z</time>
      </trkpt>
      <trkpt lat="44.087480" lon="4.969836">
        <ele>91.119928</ele>
        <time>2017-06-07T11:13:44.000Z</time>
      </trkpt>
      <trkpt lat="44.087430" lon="4.969987">
        <ele>91.134230</ele>
        <time>2017-06-07T11:13:46.000Z</time>
      </trkpt>
      <trkpt lat="44.087364" lon="4.970121">
        <ele>91.148206</ele>
        <time>2017-06-07T11:13:48.000Z</time>
      </trkpt>
      <trkpt lat="44.087300" lon="4.970241">
        <ele>91.161062</ele>
        <time>2017-06-07T11:13:50.000Z</time>
      </trkpt>
      <trkpt lat="44.087250" lon="4.970351">
        <ele>91.172259</ele>
        <time>2017-06-07T11:13:52.000Z</time>
      </trkpt>
      <trkpt lat="44.087180" lon="4.970509">
        <ele>91.188227</ele>
        <time>2017-06-07T11:13:55.000Z</time>
      </trkpt>
      <trkpt lat="44.087128" lon="4.970629">
        <ele>91.028944</ele>
        <time>2017-06-07T11:13:59.000Z</time>
      </trkpt>
      <trkpt lat="44.087074" lon="4.970749">
        <ele>90.831242</ele>
        <time>2017-06-07T11:14:05.000Z</time>
      </trkpt>
      <trkpt lat="44.087044" lon="4.970895">
        <ele>90.619227</ele>
        <time>2017-06-07T11:14:09.000Z</time>
      </trkpt>
      <trkpt lat="44.086983" lon="4.971021">
        <ele>90.407084</ele>
        <time>2017-06-07T11:14:13.000Z</time>
      </trkpt>
      <trkpt lat="44.086937" lon="4.971154">
        <ele>90.200990</ele>
        <time>2017-06-07T11:14:16.000Z</time>
      </trkpt>
      <trkpt lat="44.086876" lon="4.971290">
        <ele>89.977134</ele>
        <time>2017-06-07T11:14:19.000Z</time>
      </trkpt>
      <trkpt lat="44.086834" lon="4.971458">
        <ele>89.728778</ele>
        <time>2017-06-07T11:14:22.000Z</time>
      </trkpt>
      <trkpt lat="44.086796" lon="4.971574">
        <ele>89.550776</ele>
        <time>2017-06-07T11:14:24.000Z</time>
      </trkpt>
      <trkpt lat="44.086758" lon="4.971702">
        <ele>89.357405</ele>
        <time>2017-06-07T11:14:26.000Z</time>
      </trkpt>
      <trkpt lat="44.086723" lon="4.971839">
        <ele>89.154393</ele>
        <time>2017-06-07T11:14:28.000Z</time>
      </trkpt>
      <trkpt lat="44.086693" lon="4.971969">
        <ele>88.963755</ele>
        <time>2017-06-07T11:14:30.000Z</time>
      </trkpt>
      <trkpt lat="44.086655" lon="4.972120">
        <ele>88.740370</ele>
        <time>2017-06-07T11:14:32.000Z</time>
      </trkpt>
      <trkpt lat="44.086613" lon="4.972280">
        <ele>88.502534</ele>
        <time>2017-06-07T11:14:34.000Z</time>
      </trkpt>
      <trkpt lat="44.086570" lon="4.972440">
        <ele>88.264024</ele>
        <time>2017-06-07T11:14:36.000Z</time>
      </trkpt>
      <trkpt lat="44.086530" lon="4.972605">
        <ele>88.020890</ele>
        <time>2017-06-07T11:14:38.000Z</time>
      </trkpt>
      <trkpt lat="44.086490" lon="4.972777">
        <ele>87.768477</ele>
        <time>2017-06-07T11:14:40.000Z</time>
      </trkpt>
      <trkpt lat="44.086460" lon="4.972951">
        <ele>87.662523</ele>
        <time>2017-06-07T11:14:42.000Z</time>
      </trkpt>
      <trkpt lat="44.086437" lon="4.973138">
        <ele>87.614662</ele>
        <time>2017-06-07T11:14:44.000Z</time>
      </trkpt>
      <trkpt lat="44.086420" lon="4.973312">
        <ele>87.570364</ele>
        <time>2017-06-07T11:14:46.000Z</time>
      </trkpt>
      <trkpt lat="44.086400" lon="4.973470">
        <ele>87.529892</ele>
        <time>2017-06-07T11:14:48.000Z</time>
      </trkpt>
      <trkpt lat="44.086376" lon="4.973658">
        <ele>87.481722</ele>
        <time>2017-06-07T11:14:50.000Z</time>
      </trkpt>
      <trkpt lat="44.086370" lon="4.973843">
        <ele>87.435006</ele>
        <time>2017-06-07T11:14:52.000Z</time>
      </trkpt>
      <trkpt lat="44.086357" lon="4.974009">
        <ele>87.392881</ele>
        <time>2017-06-07T11:14:54.000Z</time>
      </trkpt>
      <trkpt lat="44.086334" lon="4.974172">
        <ele>87.350976</ele>
        <time>2017-06-07T11:14:56.000Z</time>
      </trkpt>
      <trkpt lat="44.086330" lon="4.974344">
        <ele>87.307563</ele>
        <time>2017-06-07T11:14:58.000Z</time>
      </trkpt>
      <trkpt lat="44.086320" lon="4.974515">
        <ele>87.264283</ele>
        <time>2017-06-07T11:15:00.000Z</time>
      </trkpt>
      <trkpt lat="44.086310" lon="4.974677">
        <ele>87.223265</ele>
        <time>2017-06-07T11:15:02.000Z</time>
      </trkpt>
      <trkpt lat="44.086308" lon="4.974845">
        <ele>87.180879</ele>
        <time>2017-06-07T11:15:04.000Z</time>
      </trkpt>
      <trkpt lat="44.086308" lon="4.975011">
        <ele>87.139003</ele>
        <time>2017-06-07T11:15:06.000Z</time>
      </trkpt>
      <trkpt lat="44.086310" lon="4.975172">
        <ele>87.098382</ele>
        <time>2017-06-07T11:15:08.000Z</time>
      </trkpt>
      <trkpt lat="44.086310" lon="4.975333">
        <ele>87.083895</ele>
        <time>2017-06-07T11:15:10.000Z</time>
      </trkpt>
      <trkpt lat="44.086310" lon="4.975494">
        <ele>87.264503</ele>
        <time>2017-06-07T11:15:12.000Z</time>
      </trkpt>
      <trkpt lat="44.086310" lon="4.975652">
        <ele>87.441745</ele>
        <time>2017-06-07T11:15:14.000Z</time>
      </trkpt>
      <trkpt lat="44.086320" lon="4.975811">
        <ele>87.620792</ele>
        <time>2017-06-07T11:15:16.000Z</time>
      </trkpt>
      <trkpt lat="44.086327" lon="4.975966">
        <ele>87.795012</ele>
        <time>2017-06-07T11:15:18.000Z</time>
      </trkpt>
      <trkpt lat="44.086334" lon="4.976113">
        <ele>87.960277</ele>
        <time>2017-06-07T11:15:20.000Z</time>
      </trkpt>
      <trkpt lat="44.086340" lon="4.976250">
        <ele>88.114247</ele>
        <time>2017-06-07T11:15:22.000Z</time>
      </trkpt>
      <trkpt lat="44.086346" lon="4.976392">
        <ele>88.273817</ele>
        <time>2017-06-07T11:15:24.000Z</time>
      </trkpt>
      <trkpt lat="44.086353" lon="4.976533">
        <ele>88.432366</ele>
        <time>2017-06-07T11:15:26.000Z</time>
      </trkpt>
      <trkpt lat="44.086360" lon="4.976683">
        <ele>88.600989</ele>
        <time>2017-06-07T11:15:28.000Z</time>
      </trkpt>
      <trkpt lat="44.086372" lon="4.976838">
        <ele>88.775873</ele>
        <time>2017-06-07T11:15:30.000Z</time>
      </trkpt>
      <trkpt lat="44.086384" lon="4.976985">
        <ele>88.941837</ele>
        <time>2017-06-07T11:15:32.000Z</time>
      </trkpt>
      <trkpt lat="44.086390" lon="4.977139">
        <ele>89.114846</ele>
        <time>2017-06-07T11:15:34.000Z</time>
      </trkpt>
      <trkpt lat="44.086400" lon="4.977292">
        <ele>89.287188</ele>
        <time>2017-06-07T11:15:36.000Z</time>
      </trkpt>
      <trkpt lat="44.086414" lon="4.977443">
        <ele>89.457983</ele>
        <time>2017-06-07T11:15:38.000Z</time>
      </trkpt>
      <trkpt lat="44.086422" lon="4.977591">
        <ele>89.624477</ele>
        <time>2017-06-07T11:15:40.000Z</time>
      </trkpt>
      <trkpt lat="44.086430" lon="4.977734">
        <ele>89.785378</ele>
        <time>2017-06-07T11:15:42.000Z</time>
      </trkpt>
      <trkpt lat="44.086437" lon="4.977865">
        <ele>89.902810</ele>
        <time>2017-06-07T11:15:44.000Z</time>
      </trkpt>
      <trkpt lat="44.086445" lon="4.977991">
        <ele>89.975267</ele>
        <time>2017-06-07T11:15:46.000Z</time>
      </trkpt>
      <trkpt lat="44.086450" lon="4.978118">
        <ele>90.048124</ele>
        <time>2017-06-07T11:15:48.000Z</time>
      </trkpt>
      <trkpt lat="44.086460" lon="4.978249">
        <ele>90.123586</ele>
        <time>2017-06-07T11:15:50.000Z</time>
      </trkpt>
      <trkpt lat="44.086468" lon="4.978381">
        <ele>90.199467</ele>
        <time>2017-06-07T11:15:52.000Z</time>
      </trkpt>
      <trkpt lat="44.086475" lon="4.978509">
        <ele>90.273000</ele>
        <time>2017-06-07T11:15:54.000Z</time>
      </trkpt>
      <trkpt lat="44.086480" lon="4.978684">
        <ele>90.373323</ele>
        <time>2017-06-07T11:15:57.000Z</time>
      </trkpt>
      <trkpt lat="44.086490" lon="4.978838">
        <ele>90.461896</ele>
        <time>2017-06-07T11:16:00.000Z</time>
      </trkpt>
      <trkpt lat="44.086500" lon="4.978973">
        <ele>90.539637</ele>
        <time>2017-06-07T11:16:03.000Z</time>
      </trkpt>
      <trkpt lat="44.086502" lon="4.979127">
        <ele>90.627866</ele>
        <time>2017-06-07T11:16:07.000Z</time>
      </trkpt>
      <trkpt lat="44.086514" lon="4.979288">
        <ele>90.720585</ele>
        <time>2017-06-07T11:16:11.000Z</time>
      </trkpt>
      <trkpt lat="44.086525" lon="4.979453">
        <ele>90.815506</ele>
        <time>2017-06-07T11:16:15.000Z</time>
      </trkpt>
      <trkpt lat="44.086533" lon="4.979590">
        <ele>90.894241</ele>
        <time>2017-06-07T11:16:18.000Z</time>
      </trkpt>
      <trkpt lat="44.086536" lon="4.979735">
        <ele>90.977335</ele>
        <time>2017-06-07T11:16:21.000Z</time>
      </trkpt>
      <trkpt lat="44.086548" lon="4.979871">
        <ele>91.055824</ele>
        <time>2017-06-07T11:16:24.000Z</time>
      </trkpt>
      <trkpt lat="44.086550" lon="4.980022">
        <ele>91.142334</ele>
        <time>2017-06-07T11:16:27.000Z</time>
      </trkpt>
      <trkpt lat="44.086560" lon="4.980188">
        <ele>91.237756</ele>
        <time>2017-06-07T11:16:30.000Z</time>
      </trkpt>
      <trkpt lat="44.086575" lon="4.980349">
        <ele>91.356386</ele>
        <time>2017-06-07T11:16:33.000Z</time>
      </trkpt>
      <trkpt lat="44.086582" lon="4.980488">
        <ele>91.518717</ele>
        <time>2017-06-07T11:16:36.000Z</time>
      </trkpt>
      <trkpt lat="44.086594" lon="4.980644">
        <ele>91.701495</ele>
        <time>2017-06-07T11:16:40.000Z</time>
      </trkpt>
      <trkpt lat="44.086605" lon="4.980774">
        <ele>91.853991</ele>
        <time>2017-06-07T11:16:43.000Z</time>
      </trkpt>
      <trkpt lat="44.086605" lon="4.980931">
        <ele>92.036895</ele>
        <time>2017-06-07T11:16:46.000Z</time>
      </trkpt>
      <trkpt lat="44.086613" lon="4.981099">
        <ele>92.233043</ele>
        <time>2017-06-07T11:16:49.000Z</time>
      </trkpt>
      <trkpt lat="44.086624" lon="4.981283">
        <ele>92.448142</ele>
        <time>2017-06-07T11:16:52.000Z</time>
      </trkpt>
      <trkpt lat="44.086640" lon="4.981465">
        <ele>92.661753</ele>
        <time>2017-06-07T11:16:55.000Z</time>
      </trkpt>
      <trkpt lat="44.086640" lon="4.981629">
        <ele>92.852811</ele>
        <time>2017-06-07T11:16:58.000Z</time>
      </trkpt>
      <trkpt lat="44.086647" lon="4.981803">
        <ele>93.055837</ele>
        <time>2017-06-07T11:17:01.000Z</time>
      </trkpt>
      <trkpt lat="44.086660" lon="4.981973">
        <ele>93.255005</ele>
        <time>2017-06-07T11:17:04.000Z</time>
      </trkpt>
      <trkpt lat="44.086670" lon="4.982153">
        <ele>93.465329</ele>
        <time>2017-06-07T11:17:07.000Z</time>
      </trkpt>
      <trkpt lat="44.086678" lon="4.982334">
        <ele>93.676591</ele>
        <time>2017-06-07T11:17:10.000Z</time>
      </trkpt>
      <trkpt lat="44.086685" lon="4.982459">
        <ele>93.822657</ele>
        <time>2017-06-07T11:17:12.000Z</time>
      </trkpt>
      <trkpt lat="44.086693" lon="4.982588">
        <ele>93.973500</ele>
        <time>2017-06-07T11:17:14.000Z</time>
      </trkpt>
      <trkpt lat="44.086700" lon="4.982718">
        <ele>94.125373</ele>
        <time>2017-06-07T11:17:16.000Z</time>
      </trkpt>
      <trkpt lat="44.086704" lon="4.982845">
        <ele>94.225829</ele>
        <time>2017-06-07T11:17:18.000Z</time>
      </trkpt>
      <trkpt lat="44.086704" lon="4.982973">
        <ele>94.233707</ele>
        <time>2017-06-07T11:17:20.000Z</time>
      </trkpt>
      <trkpt lat="44.086716" lon="4.983101">
        <ele>94.241653</ele>
        <time>2017-06-07T11:17:22.000Z</time>
      </trkpt>
      <trkpt lat="44.086723" lon="4.983275">
        <ele>94.252380</ele>
        <time>2017-06-07T11:17:25.000Z</time>
      </trkpt>
      <trkpt lat="44.086730" lon="4.983463">
        <ele>94.263967</ele>
        <time>2017-06-07T11:17:28.000Z</time>
      </trkpt>
      <trkpt lat="44.086750" lon="4.983645">
        <ele>94.275300</ele>
        <time>2017-06-07T11:17:31.000Z</time>
      </trkpt>
      <trkpt lat="44.086760" lon="4.983774">
        <ele>94.283286</ele>
        <time>2017-06-07T11:17:33.000Z</time>
      </trkpt>
      <trkpt lat="44.086770" lon="4.983903">
        <ele>94.291272</ele>
        <time>2017-06-07T11:17:35.000Z</time>
      </trkpt>
      <trkpt lat="44.086773" lon="4.984029">
        <ele>94.299032</ele>
        <time>2017-06-07T11:17:37.000Z</time>
      </trkpt>
      <trkpt lat="44.086780" lon="4.984161">
        <ele>94.307179</ele>
        <time>2017-06-07T11:17:39.000Z</time>
      </trkpt>
      <trkpt lat="44.086790" lon="4.984294">
        <ele>94.315410</ele>
        <time>2017-06-07T11:17:41.000Z</time>
      </trkpt>
      <trkpt lat="44.086796" lon="4.984429">
        <ele>94.323735</ele>
        <time>2017-06-07T11:17:43.000Z</time>
      </trkpt>
      <trkpt lat="44.086807" lon="4.984557">
        <ele>94.331670</ele>
        <time>2017-06-07T11:17:45.000Z</time>
      </trkpt>
      <trkpt lat="44.086820" lon="4.984688">
        <ele>94.339810</ele>
        <time>2017-06-07T11:17:47.000Z</time>
      </trkpt>
      <trkpt lat="44.086826" lon="4.984832">
        <ele>94.348688</ele>
        <time>2017-06-07T11:17:49.000Z</time>
      </trkpt>
      <trkpt lat="44.086834" lon="4.984972">
        <ele>94.357332</ele>
        <time>2017-06-07T11:17:51.000Z</time>
      </trkpt>
      <trkpt lat="44.086840" lon="4.985118">
        <ele>94.366334</ele>
        <time>2017-06-07T11:17:53.000Z</time>
      </trkpt>
      <trkpt lat="44.086850" lon="4.985254">
        <ele>94.374748</ele>
        <time>2017-06-07T11:17:55.000Z</time>
      </trkpt>
      <trkpt lat="44.086857" lon="4.985395">
        <ele>94.379238</ele>
        <time>2017-06-07T11:17:57.000Z</time>
      </trkpt>
      <trkpt lat="44.086864" lon="4.985534">
        <ele>94.381940</ele>
        <time>2017-06-07T11:17:59.000Z</time>
      </trkpt>
      <trkpt lat="44.086876" lon="4.985670">
        <ele>94.384597</ele>
        <time>2017-06-07T11:18:01.000Z</time>
      </trkpt>
      <trkpt lat="44.086884" lon="4.985814">
        <ele>94.387398</ele>
        <time>2017-06-07T11:18:03.000Z</time>
      </trkpt>
      <trkpt lat="44.086890" lon="4.985955">
        <ele>94.390138</ele>
        <time>2017-06-07T11:18:05.000Z</time>
      </trkpt>
      <trkpt lat="44.086890" lon="4.986092">
        <ele>94.392794</ele>
        <time>2017-06-07T11:18:07.000Z</time>
      </trkpt>
      <trkpt lat="44.086903" lon="4.986233">
        <ele>94.395551</ele>
        <time>2017-06-07T11:18:09.000Z</time>
      </trkpt>
      <trkpt lat="44.086914" lon="4.986372">
        <ele>94.398263</ele>
        <time>2017-06-07T11:18:11.000Z</time>
      </trkpt>
      <trkpt lat="44.086926" lon="4.986515">
        <ele>94.401055</ele>
        <time>2017-06-07T11:18:13.000Z</time>
      </trkpt>
      <trkpt lat="44.086933" lon="4.986664">
        <ele>94.403951</ele>
        <time>2017-06-07T11:18:15.000Z</time>
      </trkpt>
      <trkpt lat="44.086940" lon="4.986816">
        <ele>94.406905</ele>
        <time>2017-06-07T11:18:17.000Z</time>
      </trkpt>
      <trkpt lat="44.086940" lon="4.986964">
        <ele>94.409775</ele>
        <time>2017-06-07T11:18:19.000Z</time>
      </trkpt>
      <trkpt lat="44.086952" lon="4.987115">
        <ele>94.412722</ele>
        <time>2017-06-07T11:18:21.000Z</time>
      </trkpt>
      <trkpt lat="44.086956" lon="4.987264">
        <ele>94.415613</ele>
        <time>2017-06-07T11:18:23.000Z</time>
      </trkpt>
      <trkpt lat="44.086967" lon="4.987415">
        <ele>94.418557</ele>
        <time>2017-06-07T11:18:25.000Z</time>
      </trkpt>
      <trkpt lat="44.086983" lon="4.987575">
        <ele>94.421690</ele>
        <time>2017-06-07T11:18:27.000Z</time>
      </trkpt>
      <trkpt lat="44.086990" lon="4.987742">
        <ele>94.424934</ele>
        <time>2017-06-07T11:18:29.000Z</time>
      </trkpt>
      <trkpt lat="44.087000" lon="4.987898">
        <ele>94.349975</ele>
        <time>2017-06-07T11:18:31.000Z</time>
      </trkpt>
      <trkpt lat="44.087010" lon="4.988058">
        <ele>94.237825</ele>
        <time>2017-06-07T11:18:33.000Z</time>
      </trkpt>
      <trkpt lat="44.087017" lon="4.988220">
        <ele>94.124497</ele>
        <time>2017-06-07T11:18:35.000Z</time>
      </trkpt>
      <trkpt lat="44.087025" lon="4.988382">
        <ele>94.011106</ele>
        <time>2017-06-07T11:18:37.000Z</time>
      </trkpt>
      <trkpt lat="44.087032" lon="4.988544">
        <ele>93.897778</ele>
        <time>2017-06-07T11:18:39.000Z</time>
      </trkpt>
      <trkpt lat="44.087036" lon="4.988698">
        <ele>93.790170</ele>
        <time>2017-06-07T11:18:41.000Z</time>
      </trkpt>
      <trkpt lat="44.087048" lon="4.988847">
        <ele>93.685472</ele>
        <time>2017-06-07T11:18:43.000Z</time>
      </trkpt>
      <trkpt lat="44.087055" lon="4.988993">
        <ele>93.583294</ele>
        <time>2017-06-07T11:18:45.000Z</time>
      </trkpt>
      <trkpt lat="44.087067" lon="4.989155">
        <ele>93.469570</ele>
        <time>2017-06-07T11:18:47.000Z</time>
      </trkpt>
      <trkpt lat="44.087074" lon="4.989315">
        <ele>93.357636</ele>
        <time>2017-06-07T11:18:49.000Z</time>
      </trkpt>
      <trkpt lat="44.087086" lon="4.989469">
        <ele>93.249468</ele>
        <time>2017-06-07T11:18:51.000Z</time>
      </trkpt>
      <trkpt lat="44.087093" lon="4.989626">
        <ele>93.139625</ele>
        <time>2017-06-07T11:18:53.000Z</time>
      </trkpt>
      <trkpt lat="44.087105" lon="4.989798">
        <ele>93.018953</ele>
        <time>2017-06-07T11:18:55.000Z</time>
      </trkpt>
      <trkpt lat="44.087120" lon="4.989977">
        <ele>92.893110</ele>
        <time>2017-06-07T11:18:57.000Z</time>
      </trkpt>
      <trkpt lat="44.087130" lon="4.990151">
        <ele>92.771219</ele>
        <time>2017-06-07T11:18:59.000Z</time>
      </trkpt>
      <trkpt lat="44.087147" lon="4.990322">
        <ele>92.665701</ele>
        <time>2017-06-07T11:19:01.000Z</time>
      </trkpt>
      <trkpt lat="44.087160" lon="4.990495">
        <ele>92.612858</ele>
        <time>2017-06-07T11:19:03.000Z</time>
      </trkpt>
      <trkpt lat="44.087166" lon="4.990660">
        <ele>92.562668</ele>
        <time>2017-06-07T11:19:05.000Z</time>
      </trkpt>
      <trkpt lat="44.087173" lon="4.990828">
        <ele>92.511545</ele>
        <time>2017-06-07T11:19:07.000Z</time>
      </trkpt>
      <trkpt lat="44.087180" lon="4.990986">
        <ele>92.463454</ele>
        <time>2017-06-07T11:19:09.000Z</time>
      </trkpt>
      <trkpt lat="44.087193" lon="4.991150">
        <ele>92.413330</ele>
        <time>2017-06-07T11:19:11.000Z</time>
      </trkpt>
      <trkpt lat="44.087200" lon="4.991321">
        <ele>92.361297</ele>
        <time>2017-06-07T11:19:13.000Z</time>
      </trkpt>
      <trkpt lat="44.087210" lon="4.991492">
        <ele>92.309177</ele>
        <time>2017-06-07T11:19:15.000Z</time>
      </trkpt>
      <trkpt lat="44.087220" lon="4.991668">
        <ele>92.255542</ele>
        <time>2017-06-07T11:19:17.000Z</time>
      </trkpt>
      <trkpt lat="44.087227" lon="4.991842">
        <ele>92.202599</ele>
        <time>2017-06-07T11:19:19.000Z</time>
      </trkpt>
      <trkpt lat="44.087234" lon="4.992015">
        <ele>92.149960</ele>
        <time>2017-06-07T11:19:21.000Z</time>
      </trkpt>
      <trkpt lat="44.087242" lon="4.992188">
        <ele>92.097295</ele>
        <time>2017-06-07T11:19:23.000Z</time>
      </trkpt>
      <trkpt lat="44.087250" lon="4.992360">
        <ele>92.044933</ele>
        <time>2017-06-07T11:19:25.000Z</time>
      </trkpt>
      <trkpt lat="44.087265" lon="4.992535">
        <ele>91.991392</ele>
        <time>2017-06-07T11:19:27.000Z</time>
      </trkpt>
      <trkpt lat="44.087270" lon="4.992705">
        <ele>91.939704</ele>
        <time>2017-06-07T11:19:29.000Z</time>
      </trkpt>
      <trkpt lat="44.087280" lon="4.992878">
        <ele>91.959883</ele>
        <time>2017-06-07T11:19:31.000Z</time>
      </trkpt>
      <trkpt lat="44.087290" lon="4.993052">
        <ele>92.037592</ele>
        <time>2017-06-07T11:19:33.000Z</time>
      </trkpt>
      <trkpt lat="44.087300" lon="4.993226">
        <ele>92.115301</ele>
        <time>2017-06-07T11:19:35.000Z</time>
      </trkpt>
      <trkpt lat="44.087307" lon="4.993396">
        <ele>92.191107</ele>
        <time>2017-06-07T11:19:37.000Z</time>
      </trkpt>
      <trkpt lat="44.087315" lon="4.993577">
        <ele>92.271837</ele>
        <time>2017-06-07T11:19:39.000Z</time>
      </trkpt>
      <trkpt lat="44.087326" lon="4.993753">
        <ele>92.350485</ele>
        <time>2017-06-07T11:19:41.000Z</time>
      </trkpt>
      <trkpt lat="44.087337" lon="4.993926">
        <ele>92.427803</ele>
        <time>2017-06-07T11:19:43.000Z</time>
      </trkpt>
      <trkpt lat="44.087345" lon="4.994090">
        <ele>92.500981</ele>
        <time>2017-06-07T11:19:45.000Z</time>
      </trkpt>
      <trkpt lat="44.087353" lon="4.994256">
        <ele>92.575048</ele>
        <time>2017-06-07T11:19:47.000Z</time>
      </trkpt>
      <trkpt lat="44.087364" lon="4.994416">
        <ele>92.646603</ele>
        <time>2017-06-07T11:19:49.000Z</time>
      </trkpt>
      <trkpt lat="44.087376" lon="4.994574">
        <ele>92.717334</ele>
        <time>2017-06-07T11:19:51.000Z</time>
      </trkpt>
      <trkpt lat="44.087390" lon="4.994732">
        <ele>92.788206</ele>
        <time>2017-06-07T11:19:53.000Z</time>
      </trkpt>
      <trkpt lat="44.087402" lon="4.994896">
        <ele>92.861593</ele>
        <time>2017-06-07T11:19:55.000Z</time>
      </trkpt>
      <trkpt lat="44.087406" lon="4.995060">
        <ele>92.934645</ele>
        <time>2017-06-07T11:19:57.000Z</time>
      </trkpt>
      <trkpt lat="44.087420" lon="4.995226">
        <ele>93.009053</ele>
        <time>2017-06-07T11:19:59.000Z</time>
      </trkpt>
      <trkpt lat="44.087430" lon="4.995392">
        <ele>93.019925</ele>
        <time>2017-06-07T11:20:01.000Z</time>
      </trkpt>
      <trkpt lat="44.087444" lon="4.995558">
        <ele>93.003569</ele>
        <time>2017-06-07T11:20:03.000Z</time>
      </trkpt>
      <trkpt lat="44.087450" lon="4.995717">
        <ele>92.987989</ele>
        <time>2017-06-07T11:20:05.000Z</time>
      </trkpt>
      <trkpt lat="44.087460" lon="4.995871">
        <ele>92.972857</ele>
        <time>2017-06-07T11:20:07.000Z</time>
      </trkpt>
      <trkpt lat="44.087470" lon="4.996037">
        <ele>92.956556</ele>
        <time>2017-06-07T11:20:09.000Z</time>
      </trkpt>
      <trkpt lat="44.087470" lon="4.996190">
        <ele>92.941583</ele>
        <time>2017-06-07T11:20:11.000Z</time>
      </trkpt>
      <trkpt lat="44.087480" lon="4.996341">
        <ele>92.926744</ele>
        <time>2017-06-07T11:20:13.000Z</time>
      </trkpt>
      <trkpt lat="44.087486" lon="4.996483">
        <ele>92.912825</ele>
        <time>2017-06-07T11:20:15.000Z</time>
      </trkpt>
      <trkpt lat="44.087498" lon="4.996635">
        <ele>92.897861</ele>
        <time>2017-06-07T11:20:17.000Z</time>
      </trkpt>
      <trkpt lat="44.087498" lon="4.996785">
        <ele>92.883182</ele>
        <time>2017-06-07T11:20:19.000Z</time>
      </trkpt>
      <trkpt lat="44.087505" lon="4.996919">
        <ele>92.870034</ele>
        <time>2017-06-07T11:20:21.000Z</time>
      </trkpt>
      <trkpt lat="44.087524" lon="4.997045">
        <ele>92.857436</ele>
        <time>2017-06-07T11:20:23.000Z</time>
      </trkpt>
      <trkpt lat="44.087520" lon="4.997191">
        <ele>92.843138</ele>
        <time>2017-06-07T11:20:25.000Z</time>
      </trkpt>
      <trkpt lat="44.087540" lon="4.997339">
        <ele>92.828401</ele>
        <time>2017-06-07T11:20:27.000Z</time>
      </trkpt>
      <trkpt lat="44.087547" lon="4.997471">
        <ele>92.815449</ele>
        <time>2017-06-07T11:20:29.000Z</time>
      </trkpt>
      <trkpt lat="44.087550" lon="4.997627">
        <ele>92.800178</ele>
        <time>2017-06-07T11:20:31.000Z</time>
      </trkpt>
      <trkpt lat="44.087560" lon="4.997774">
        <ele>92.791369</ele>
        <time>2017-06-07T11:20:33.000Z</time>
      </trkpt>
      <trkpt lat="44.087570" lon="4.997904">
        <ele>92.908259</ele>
        <time>2017-06-07T11:20:35.000Z</time>
      </trkpt>
      <trkpt lat="44.087578" lon="4.998050">
        <ele>93.039168</ele>
        <time>2017-06-07T11:20:37.000Z</time>
      </trkpt>
      <trkpt lat="44.087590" lon="4.998195">
        <ele>93.169661</ele>
        <time>2017-06-07T11:20:39.000Z</time>
      </trkpt>
      <trkpt lat="44.087597" lon="4.998335">
        <ele>93.295129</ele>
        <time>2017-06-07T11:20:41.000Z</time>
      </trkpt>
      <trkpt lat="44.087610" lon="4.998463">
        <ele>93.410704</ele>
        <time>2017-06-07T11:20:43.000Z</time>
      </trkpt>
      <trkpt lat="44.087610" lon="4.998601">
        <ele>93.534081</ele>
        <time>2017-06-07T11:20:45.000Z</time>
      </trkpt>
      <trkpt lat="44.087620" lon="4.998737">
        <ele>93.656305</ele>
        <time>2017-06-07T11:20:47.000Z</time>
      </trkpt>
      <trkpt lat="44.087624" lon="4.998879">
        <ele>93.783356</ele>
        <time>2017-06-07T11:20:49.000Z</time>
      </trkpt>
      <trkpt lat="44.087630" lon="4.999021">
        <ele>93.910529</ele>
        <time>2017-06-07T11:20:51.000Z</time>
      </trkpt>
      <trkpt lat="44.087643" lon="4.999166">
        <ele>94.041170</ele>
        <time>2017-06-07T11:20:53.000Z</time>
      </trkpt>
      <trkpt lat="44.087658" lon="4.999310">
        <ele>94.171258</ele>
        <time>2017-06-07T11:20:55.000Z</time>
      </trkpt>
      <trkpt lat="44.087666" lon="4.999455">
        <ele>94.301275</ele>
        <time>2017-06-07T11:20:57.000Z</time>
      </trkpt>
      <trkpt lat="44.087666" lon="4.999600">
        <ele>94.430910</ele>
        <time>2017-06-07T11:20:59.000Z</time>
      </trkpt>
      <trkpt lat="44.087673" lon="4.999744">
        <ele>94.559946</ele>
        <time>2017-06-07T11:21:01.000Z</time>
      </trkpt>
      <trkpt lat="44.087685" lon="4.999888">
        <ele>94.689551</ele>
        <time>2017-06-07T11:21:03.000Z</time>
      </trkpt>
      <trkpt lat="44.087685" lon="5.000018">
        <ele>94.805775</ele>
        <time>2017-06-07T11:21:05.000Z</time>
      </trkpt>
      <trkpt lat="44.087685" lon="5.000145">
        <ele>94.919318</ele>
        <time>2017-06-07T11:21:07.000Z</time>
      </trkpt>
      <trkpt lat="44.087685" lon="5.000296">
        <ele>95.051714</ele>
        <time>2017-06-07T11:21:09.000Z</time>
      </trkpt>
      <trkpt lat="44.087704" lon="5.000444">
        <ele>95.174174</ele>
        <time>2017-06-07T11:21:11.000Z</time>
      </trkpt>
      <trkpt lat="44.087704" lon="5.000583">
        <ele>95.287392</ele>
        <time>2017-06-07T11:21:13.000Z</time>
      </trkpt>
      <trkpt lat="44.087710" lon="5.000728">
        <ele>95.405693</ele>
        <time>2017-06-07T11:21:15.000Z</time>
      </trkpt>
      <trkpt lat="44.087727" lon="5.000874">
        <ele>95.526165</ele>
        <time>2017-06-07T11:21:17.000Z</time>
      </trkpt>
      <trkpt lat="44.087723" lon="5.001021">
        <ele>95.645986</ele>
        <time>2017-06-07T11:21:19.000Z</time>
      </trkpt>
      <trkpt lat="44.087738" lon="5.001162">
        <ele>95.762086</ele>
        <time>2017-06-07T11:21:21.000Z</time>
      </trkpt>
      <trkpt lat="44.087757" lon="5.001309">
        <ele>95.883743</ele>
        <time>2017-06-07T11:21:23.000Z</time>
      </trkpt>
      <trkpt lat="44.087770" lon="5.001450">
        <ele>95.999533</ele>
        <time>2017-06-07T11:21:25.000Z</time>
      </trkpt>
      <trkpt lat="44.087772" lon="5.001588">
        <ele>96.111959</ele>
        <time>2017-06-07T11:21:27.000Z</time>
      </trkpt>
      <trkpt lat="44.087776" lon="5.001727">
        <ele>96.225268</ele>
        <time>2017-06-07T11:21:29.000Z</time>
      </trkpt>
      <trkpt lat="44.087788" lon="5.001853">
        <ele>96.328796</ele>
        <time>2017-06-07T11:21:31.000Z</time>
      </trkpt>
      <trkpt lat="44.087795" lon="5.001988">
        <ele>96.439042</ele>
        <time>2017-06-07T11:21:33.000Z</time>
      </trkpt>
      <trkpt lat="44.087800" lon="5.002126">
        <ele>96.551588</ele>
        <time>2017-06-07T11:21:35.000Z</time>
      </trkpt>
      <trkpt lat="44.087803" lon="5.002271">
        <ele>96.669742</ele>
        <time>2017-06-07T11:21:37.000Z</time>
      </trkpt>
      <trkpt lat="44.087810" lon="5.002414">
        <ele>96.786489</ele>
        <time>2017-06-07T11:21:39.000Z</time>
      </trkpt>
      <trkpt lat="44.087826" lon="5.002551">
        <ele>96.899543</ele>
        <time>2017-06-07T11:21:41.000Z</time>
      </trkpt>
      <trkpt lat="44.087833" lon="5.002695">
        <ele>97.017102</ele>
        <time>2017-06-07T11:21:43.000Z</time>
      </trkpt>
      <trkpt lat="44.087845" lon="5.002833">
        <ele>97.084198</ele>
        <time>2017-06-07T11:21:45.000Z</time>
      </trkpt>
      <trkpt lat="44.087852" lon="5.002976">
        <ele>97.118885</ele>
        <time>2017-06-07T11:21:47.000Z</time>
      </trkpt>
      <trkpt lat="44.087864" lon="5.003118">
        <ele>97.153486</ele>
        <time>2017-06-07T11:21:49.000Z</time>
      </trkpt>
      <trkpt lat="44.087875" lon="5.003256">
        <ele>97.187087</ele>
        <time>2017-06-07T11:21:51.000Z</time>
      </trkpt>
      <trkpt lat="44.087887" lon="5.003397">
        <ele>97.221448</ele>
        <time>2017-06-07T11:21:53.000Z</time>
      </trkpt>
      <trkpt lat="44.087894" lon="5.003530">
        <ele>97.253721</ele>
        <time>2017-06-07T11:21:55.000Z</time>
      </trkpt>
      <trkpt lat="44.087894" lon="5.003656">
        <ele>97.284213</ele>
        <time>2017-06-07T11:21:57.000Z</time>
      </trkpt>
      <trkpt lat="44.087902" lon="5.003808">
        <ele>97.321096</ele>
        <time>2017-06-07T11:21:59.000Z</time>
      </trkpt>
      <trkpt lat="44.087910" lon="5.003963">
        <ele>97.358703</ele>
        <time>2017-06-07T11:22:01.000Z</time>
      </trkpt>
      <trkpt lat="44.087920" lon="5.004111">
        <ele>97.394677</ele>
        <time>2017-06-07T11:22:03.000Z</time>
      </trkpt>
      <trkpt lat="44.087925" lon="5.004255">
        <ele>97.429566</ele>
        <time>2017-06-07T11:22:05.000Z</time>
      </trkpt>
      <trkpt lat="44.087933" lon="5.004401">
        <ele>97.465001</ele>
        <time>2017-06-07T11:22:07.000Z</time>
      </trkpt>
      <trkpt lat="44.087940" lon="5.004541">
        <ele>97.498963</ele>
        <time>2017-06-07T11:22:09.000Z</time>
      </trkpt>
      <trkpt lat="44.087948" lon="5.004684">
        <ele>97.533674</ele>
        <time>2017-06-07T11:22:11.000Z</time>
      </trkpt>
      <trkpt lat="44.087950" lon="5.004831">
        <ele>97.569255</ele>
        <time>2017-06-07T11:22:13.000Z</time>
      </trkpt>
      <trkpt lat="44.087960" lon="5.004974">
        <ele>97.604025</ele>
        <time>2017-06-07T11:22:15.000Z</time>
      </trkpt>
      <trkpt lat="44.087967" lon="5.005108">
        <ele>97.636538</ele>
        <time>2017-06-07T11:22:17.000Z</time>
      </trkpt>
      <trkpt lat="44.087982" lon="5.005282">
        <ele>97.696118</ele>
        <time>2017-06-07T11:22:20.000Z</time>
      </trkpt>
      <trkpt lat="44.087990" lon="5.005433">
        <ele>97.809036</ele>
        <time>2017-06-07T11:22:23.000Z</time>
      </trkpt>
      <trkpt lat="44.088000" lon="5.005589">
        <ele>97.925839</ele>
        <time>2017-06-07T11:22:27.000Z</time>
      </trkpt>
      <trkpt lat="44.088013" lon="5.005746">
        <ele>98.043702</ele>
        <time>2017-06-07T11:22:31.000Z</time>
      </trkpt>
      <trkpt lat="44.088005" lon="5.005887">
        <ele>98.149184</ele>
        <time>2017-06-07T11:22:35.000Z</time>
      </trkpt>
      <trkpt lat="44.088040" lon="5.006032">
        <ele>98.263264</ele>
        <time>2017-06-07T11:22:39.000Z</time>
      </trkpt>
      <trkpt lat="44.088050" lon="5.006183">
        <ele>98.376354</ele>
        <time>2017-06-07T11:22:45.000Z</time>
      </trkpt>
      <trkpt lat="44.088047" lon="5.006313">
        <ele>98.473355</ele>
        <time>2017-06-07T11:22:49.000Z</time>
      </trkpt>
      <trkpt lat="44.088066" lon="5.006447">
        <ele>98.575217</ele>
        <time>2017-06-07T11:22:52.000Z</time>
      </trkpt>
      <trkpt lat="44.088080" lon="5.006594">
        <ele>98.685806</ele>
        <time>2017-06-07T11:22:56.000Z</time>
      </trkpt>
      <trkpt lat="44.088074" lon="5.006733">
        <ele>98.789655</ele>
        <time>2017-06-07T11:23:00.000Z</time>
      </trkpt>
      <trkpt lat="44.088085" lon="5.006902">
        <ele>98.916208</ele>
        <time>2017-06-07T11:23:04.000Z</time>
      </trkpt>
      <trkpt lat="44.088090" lon="5.007059">
        <ele>99.033410</ele>
        <time>2017-06-07T11:23:08.000Z</time>
      </trkpt>
      <trkpt lat="44.088090" lon="5.007197">
        <ele>99.136327</ele>
        <time>2017-06-07T11:23:11.000Z</time>
      </trkpt>
      <trkpt lat="44.088093" lon="5.007327">
        <ele>99.233327</ele>
        <time>2017-06-07T11:23:14.000Z</time>
      </trkpt>
      <trkpt lat="44.088100" lon="5.007481">
        <ele>99.348406</ele>
        <time>2017-06-07T11:23:17.000Z</time>
      </trkpt>
      <trkpt lat="44.088093" lon="5.007634">
        <ele>99.462741</ele>
        <time>2017-06-07T11:23:20.000Z</time>
      </trkpt>
      <trkpt lat="44.088080" lon="5.007796">
        <ele>99.627241</ele>
        <time>2017-06-07T11:23:23.000Z</time>
      </trkpt>
      <trkpt lat="44.088080" lon="5.007927">
        <ele>99.815942</ele>
        <time>2017-06-07T11:23:25.000Z</time>
      </trkpt>
      <trkpt lat="44.088080" lon="5.008102">
        <ele>100.068023</ele>
        <time>2017-06-07T11:23:28.000Z</time>
      </trkpt>
      <trkpt lat="44.088097" lon="5.008276">
        <ele>100.320972</ele>
        <time>2017-06-07T11:23:31.000Z</time>
      </trkpt>
      <trkpt lat="44.088070" lon="5.008458">
        <ele>100.588670</ele>
        <time>2017-06-07T11:23:34.000Z</time>
      </trkpt>
      <trkpt lat="44.088062" lon="5.008586">
        <ele>100.773746</ele>
        <time>2017-06-07T11:23:36.000Z</time>
      </trkpt>
      <trkpt lat="44.088070" lon="5.008765">
        <ele>101.032088</ele>
        <time>2017-06-07T11:23:39.000Z</time>
      </trkpt>
      <trkpt lat="44.088070" lon="5.008951">
        <ele>101.300014</ele>
        <time>2017-06-07T11:23:42.000Z</time>
      </trkpt>
      <trkpt lat="44.088074" lon="5.009125">
        <ele>101.550783</ele>
        <time>2017-06-07T11:23:45.000Z</time>
      </trkpt>
      <trkpt lat="44.088085" lon="5.009280">
        <ele>101.775142</ele>
        <time>2017-06-07T11:23:48.000Z</time>
      </trkpt>
      <trkpt lat="44.088090" lon="5.009445">
        <ele>102.013030</ele>
        <time>2017-06-07T11:23:52.000Z</time>
      </trkpt>
      <trkpt lat="44.088062" lon="5.009594">
        <ele>102.234883</ele>
        <time>2017-06-07T11:23:56.000Z</time>
      </trkpt>
      <trkpt lat="44.088060" lon="5.009722">
        <ele>102.419306</ele>
        <time>2017-06-07T11:23:59.000Z</time>
      </trkpt>
      <trkpt lat="44.088040" lon="5.009858">
        <ele>102.619274</ele>
        <time>2017-06-07T11:24:02.000Z</time>
      </trkpt>
      <trkpt lat="44.088036" lon="5.009985">
        <ele>102.802388</ele>
        <time>2017-06-07T11:24:05.000Z</time>
      </trkpt>
      <trkpt lat="44.088020" lon="5.010129">
        <ele>103.012283</ele>
        <time>2017-06-07T11:24:08.000Z</time>
      </trkpt>
      <trkpt lat="44.088000" lon="5.010280">
        <ele>103.238347</ele>
        <time>2017-06-07T11:24:11.000Z</time>
      </trkpt>
      <trkpt lat="44.088000" lon="5.010415">
        <ele>103.443592</ele>
        <time>2017-06-07T11:24:14.000Z</time>
      </trkpt>
      <trkpt lat="44.087986" lon="5.010569">
        <ele>103.679591</ele>
        <time>2017-06-07T11:24:18.000Z</time>
      </trkpt>
      <trkpt lat="44.087970" lon="5.010694">
        <ele>103.872627</ele>
        <time>2017-06-07T11:24:21.000Z</time>
      </trkpt>
      <trkpt lat="44.087960" lon="5.010822">
        <ele>104.068377</ele>
        <time>2017-06-07T11:24:24.000Z</time>
      </trkpt>
      <trkpt lat="44.087940" lon="5.010959">
        <ele>104.280922</ele>
        <time>2017-06-07T11:24:27.000Z</time>
      </trkpt>
      <trkpt lat="44.087920" lon="5.011110">
        <ele>104.514363</ele>
        <time>2017-06-07T11:24:30.000Z</time>
      </trkpt>
      <trkpt lat="44.087902" lon="5.011278">
        <ele>104.772605</ele>
        <time>2017-06-07T11:24:33.000Z</time>
      </trkpt>
      <trkpt lat="44.087890" lon="5.011436">
        <ele>105.014158</ele>
        <time>2017-06-07T11:24:36.000Z</time>
      </trkpt>
      <trkpt lat="44.087875" lon="5.011591">
        <ele>105.251939</ele>
        <time>2017-06-07T11:24:39.000Z</time>
      </trkpt>
      <trkpt lat="44.087850" lon="5.011756">
        <ele>105.508315</ele>
        <time>2017-06-07T11:24:42.000Z</time>
      </trkpt>
      <trkpt lat="44.087826" lon="5.011901">
        <ele>105.734542</ele>
        <time>2017-06-07T11:24:45.000Z</time>
      </trkpt>
      <trkpt lat="44.087803" lon="5.012044">
        <ele>105.957334</ele>
        <time>2017-06-07T11:24:48.000Z</time>
      </trkpt>
      <trkpt lat="44.087784" lon="5.012170">
        <ele>106.153073</ele>
        <time>2017-06-07T11:24:51.000Z</time>
      </trkpt>
      <trkpt lat="44.087776" lon="5.012327">
        <ele>106.392366</ele>
        <time>2017-06-07T11:24:54.000Z</time>
      </trkpt>
      <trkpt lat="44.087765" lon="5.012477">
        <ele>106.621602</ele>
        <time>2017-06-07T11:24:57.000Z</time>
      </trkpt>
      <trkpt lat="44.087740" lon="5.012606">
        <ele>106.824740</ele>
        <time>2017-06-07T11:25:00.000Z</time>
      </trkpt>
      <trkpt lat="44.087727" lon="5.012751">
        <ele>106.928378</ele>
        <time>2017-06-07T11:25:03.000Z</time>
      </trkpt>
      <trkpt lat="44.087700" lon="5.012901">
        <ele>106.868513</ele>
        <time>2017-06-07T11:25:06.000Z</time>
      </trkpt>
      <trkpt lat="44.087670" lon="5.013064">
        <ele>106.803372</ele>
        <time>2017-06-07T11:25:10.000Z</time>
      </trkpt>
      <trkpt lat="44.087635" lon="5.013356">
        <ele>106.688767</ele>
        <time>2017-06-07T11:25:12.000Z</time>
      </trkpt>
      <trkpt lat="44.087600" lon="5.013517">
        <ele>106.623647</ele>
        <time>2017-06-07T11:25:15.000Z</time>
      </trkpt>
      <trkpt lat="44.087560" lon="5.013689">
        <ele>106.553657</ele>
        <time>2017-06-07T11:25:18.000Z</time>
      </trkpt>
      <trkpt lat="44.087532" lon="5.013812">
        <ele>106.503706</ele>
        <time>2017-06-07T11:25:20.000Z</time>
      </trkpt>
      <trkpt lat="44.087513" lon="5.013989">
        <ele>106.434423</ele>
        <time>2017-06-07T11:25:23.000Z</time>
      </trkpt>
      <trkpt lat="44.087480" lon="5.014152">
        <ele>106.368862</ele>
        <time>2017-06-07T11:25:26.000Z</time>
      </trkpt>
      <trkpt lat="44.087440" lon="5.014323">
        <ele>106.299240</ele>
        <time>2017-06-07T11:25:29.000Z</time>
      </trkpt>
      <trkpt lat="44.087402" lon="5.014489">
        <ele>106.231792</ele>
        <time>2017-06-07T11:25:32.000Z</time>
      </trkpt>
      <trkpt lat="44.087364" lon="5.014650">
        <ele>106.166185</ele>
        <time>2017-06-07T11:25:36.000Z</time>
      </trkpt>
      <trkpt lat="44.087330" lon="5.014811">
        <ele>106.101218</ele>
        <time>2017-06-07T11:25:38.000Z</time>
      </trkpt>
      <trkpt lat="44.087280" lon="5.014976">
        <ele>106.031890</ele>
        <time>2017-06-07T11:25:41.000Z</time>
      </trkpt>
      <trkpt lat="44.087240" lon="5.015132">
        <ele>106.015536</ele>
        <time>2017-06-07T11:25:44.000Z</time>
      </trkpt>
      <trkpt lat="44.087200" lon="5.015298">
        <ele>106.160070</ele>
        <time>2017-06-07T11:25:47.000Z</time>
      </trkpt>
      <trkpt lat="44.087160" lon="5.015461">
        <ele>106.302259</ele>
        <time>2017-06-07T11:25:50.000Z</time>
      </trkpt>
      <trkpt lat="44.087128" lon="5.015624">
        <ele>106.441747</ele>
        <time>2017-06-07T11:25:53.000Z</time>
      </trkpt>
      <trkpt lat="44.087070" lon="5.015781">
        <ele>106.587483</ele>
        <time>2017-06-07T11:25:56.000Z</time>
      </trkpt>
      <trkpt lat="44.087040" lon="5.015953">
        <ele>106.733592</ele>
        <time>2017-06-07T11:25:59.000Z</time>
      </trkpt>
      <trkpt lat="44.087020" lon="5.016074">
        <ele>106.836085</ele>
        <time>2017-06-07T11:26:01.000Z</time>
      </trkpt>
      <trkpt lat="44.086967" lon="5.016240">
        <ele>106.986042</ele>
        <time>2017-06-07T11:26:04.000Z</time>
      </trkpt>
      <trkpt lat="44.086918" lon="5.016398">
        <ele>107.128105</ele>
        <time>2017-06-07T11:26:07.000Z</time>
      </trkpt>
      <trkpt lat="44.086857" lon="5.016548">
        <ele>107.270395</ele>
        <time>2017-06-07T11:26:10.000Z</time>
      </trkpt>
      <trkpt lat="44.086810" lon="5.016699">
        <ele>107.406242</ele>
        <time>2017-06-07T11:26:13.000Z</time>
      </trkpt>
      <trkpt lat="44.086758" lon="5.016823">
        <ele>107.524770</ele>
        <time>2017-06-07T11:26:16.000Z</time>
      </trkpt>
      <trkpt lat="44.086730" lon="5.016967">
        <ele>107.647918</ele>
        <time>2017-06-07T11:26:19.000Z</time>
      </trkpt>
      <trkpt lat="44.086700" lon="5.017112">
        <ele>107.772480</ele>
        <time>2017-06-07T11:26:22.000Z</time>
      </trkpt>
      <trkpt lat="44.086678" lon="5.017263">
        <ele>107.899666</ele>
        <time>2017-06-07T11:26:25.000Z</time>
      </trkpt>
      <trkpt lat="44.086617" lon="5.017403">
        <ele>108.034834</ele>
        <time>2017-06-07T11:26:28.000Z</time>
      </trkpt>
      <trkpt lat="44.086570" lon="5.017526">
        <ele>108.106953</ele>
        <time>2017-06-07T11:26:31.000Z</time>
      </trkpt>
      <trkpt lat="44.086536" lon="5.017662">
        <ele>108.174718</ele>
        <time>2017-06-07T11:26:34.000Z</time>
      </trkpt>
      <trkpt lat="44.086494" lon="5.017802">
        <ele>108.246116</ele>
        <time>2017-06-07T11:26:37.000Z</time>
      </trkpt>
      <trkpt lat="44.086445" lon="5.017955">
        <ele>108.324948</ele>
        <time>2017-06-07T11:26:40.000Z</time>
      </trkpt>
      <trkpt lat="44.086400" lon="5.018090">
        <ele>108.394985</ele>
        <time>2017-06-07T11:26:43.000Z</time>
      </trkpt>
      <trkpt lat="44.086350" lon="5.018203">
        <ele>108.457441</ele>
        <time>2017-06-07T11:26:46.000Z</time>
      </trkpt>
      <trkpt lat="44.086296" lon="5.018320">
        <ele>108.522887</ele>
        <time>2017-06-07T11:26:50.000Z</time>
      </trkpt>
      <trkpt lat="44.086258" lon="5.018437">
        <ele>108.583312</ele>
        <time>2017-06-07T11:27:01.000Z</time>
      </trkpt>
      <trkpt lat="44.086197" lon="5.018536">
        <ele>108.644693</ele>
        <time>2017-06-07T11:27:14.000Z</time>
      </trkpt>
      <trkpt lat="44.086266" lon="5.018437">
        <ele>108.709609</ele>
        <time>2017-06-07T11:27:35.000Z</time>
      </trkpt>
      <trkpt lat="44.086193" lon="5.018519">
        <ele>108.771061</ele>
        <time>2017-06-07T11:29:09.000Z</time>
      </trkpt>
      <trkpt lat="44.086178" lon="5.018657">
        <ele>108.836742</ele>
        <time>2017-06-07T11:29:15.000Z</time>
      </trkpt>
      <trkpt lat="44.086110" lon="5.018773">
        <ele>108.907202</ele>
        <time>2017-06-07T11:29:19.000Z</time>
      </trkpt>
      <trkpt lat="44.086056" lon="5.018876">
        <ele>108.967210</ele>
        <time>2017-06-07T11:29:23.000Z</time>
      </trkpt>
      <trkpt lat="44.086018" lon="5.019011">
        <ele>109.035444</ele>
        <time>2017-06-07T11:29:28.000Z</time>
      </trkpt>
      <trkpt lat="44.085964" lon="5.019115">
        <ele>109.095833</ele>
        <time>2017-06-07T11:29:32.000Z</time>
      </trkpt>
      <trkpt lat="44.085920" lon="5.019247">
        <ele>109.164314</ele>
        <time>2017-06-07T11:29:38.000Z</time>
      </trkpt>
      <trkpt lat="44.085876" lon="5.019362">
        <ele>109.225631</ele>
        <time>2017-06-07T11:29:43.000Z</time>
      </trkpt>
      <trkpt lat="44.085827" lon="5.019471">
        <ele>109.004241</ele>
        <time>2017-06-07T11:29:49.000Z</time>
      </trkpt>
      <trkpt lat="44.085800" lon="5.019603">
        <ele>108.753167</ele>
        <time>2017-06-07T11:32:36.000Z</time>
      </trkpt>
      <trkpt lat="44.085808" lon="5.019466">
        <ele>108.501718</ele>
        <time>2017-06-07T11:33:45.000Z</time>
      </trkpt>
      <trkpt lat="44.085773" lon="5.019583">
        <ele>108.269864</ele>
        <time>2017-06-07T11:34:02.000Z</time>
      </trkpt>
      <trkpt lat="44.085846" lon="5.019472">
        <ele>107.994551</ele>
        <time>2017-06-07T11:34:54.000Z</time>
      </trkpt>
      <trkpt lat="44.085880" lon="5.019343">
        <ele>107.743179</ele>
        <time>2017-06-07T11:34:58.000Z</time>
      </trkpt>
      <trkpt lat="44.085930" lon="5.019239">
        <ele>107.514244</ele>
        <time>2017-06-07T11:35:01.000Z</time>
      </trkpt>
      <trkpt lat="44.085945" lon="5.019110">
        <ele>107.275185</ele>
        <time>2017-06-07T11:35:04.000Z</time>
      </trkpt>
      <trkpt lat="44.085980" lon="5.018992">
        <ele>107.041642</ele>
        <time>2017-06-07T11:35:08.000Z</time>
      </trkpt>
      <trkpt lat="44.086033" lon="5.018857">
        <ele>106.760199</ele>
        <time>2017-06-07T11:35:13.000Z</time>
      </trkpt>
      <trkpt lat="44.086086" lon="5.018734">
        <ele>106.497808</ele>
        <time>2017-06-07T11:35:17.000Z</time>
      </trkpt>
      <trkpt lat="44.086147" lon="5.018617">
        <ele>106.233337</ele>
        <time>2017-06-07T11:35:23.000Z</time>
      </trkpt>
      <trkpt lat="44.086193" lon="5.018486">
        <ele>105.966589</ele>
        <time>2017-06-07T11:35:31.000Z</time>
      </trkpt>
      <trkpt lat="44.086185" lon="5.018340">
        <ele>105.698729</ele>
        <time>2017-06-07T11:35:36.000Z</time>
      </trkpt>
      <trkpt lat="44.086155" lon="5.018216">
        <ele>105.459369</ele>
        <time>2017-06-07T11:35:39.000Z</time>
      </trkpt>
      <trkpt lat="44.086110" lon="5.018062">
        <ele>105.155231</ele>
        <time>2017-06-07T11:35:42.000Z</time>
      </trkpt>
      <trkpt lat="44.086056" lon="5.017885">
        <ele>104.803440</ele>
        <time>2017-06-07T11:35:45.000Z</time>
      </trkpt>
      <trkpt lat="44.086020" lon="5.017754">
        <ele>104.671531</ele>
        <time>2017-06-07T11:35:47.000Z</time>
      </trkpt>
      <trkpt lat="44.085980" lon="5.017624">
        <ele>104.732681</ele>
        <time>2017-06-07T11:35:49.000Z</time>
      </trkpt>
      <trkpt lat="44.085945" lon="5.017502">
        <ele>104.789484</ele>
        <time>2017-06-07T11:35:51.000Z</time>
      </trkpt>
      <trkpt lat="44.085907" lon="5.017341">
        <ele>104.862760</ele>
        <time>2017-06-07T11:35:54.000Z</time>
      </trkpt>
      <trkpt lat="44.085860" lon="5.017214">
        <ele>104.924533</ele>
        <time>2017-06-07T11:35:57.000Z</time>
      </trkpt>
      <trkpt lat="44.085804" lon="5.017109">
        <ele>104.981080</ele>
        <time>2017-06-07T11:36:00.000Z</time>
      </trkpt>
      <trkpt lat="44.085686" lon="5.017058">
        <ele>105.055455</ele>
        <time>2017-06-07T11:36:03.000Z</time>
      </trkpt>
      <trkpt lat="44.085583" lon="5.017173">
        <ele>105.134933</ele>
        <time>2017-06-07T11:36:06.000Z</time>
      </trkpt>
      <trkpt lat="44.085487" lon="5.017301">
        <ele>105.214950</ele>
        <time>2017-06-07T11:36:09.000Z</time>
      </trkpt>
      <trkpt lat="44.085420" lon="5.017431">
        <ele>105.284132</ele>
        <time>2017-06-07T11:36:12.000Z</time>
      </trkpt>
      <trkpt lat="44.085354" lon="5.017541">
        <ele>105.346105</ele>
        <time>2017-06-07T11:36:15.000Z</time>
      </trkpt>
      <trkpt lat="44.085300" lon="5.017649">
        <ele>105.403003</ele>
        <time>2017-06-07T11:36:18.000Z</time>
      </trkpt>
      <trkpt lat="44.085240" lon="5.017776">
        <ele>105.468730</ele>
        <time>2017-06-07T11:36:22.000Z</time>
      </trkpt>
      <trkpt lat="44.085186" lon="5.017911">
        <ele>105.535543</ele>
        <time>2017-06-07T11:36:26.000Z</time>
      </trkpt>
      <trkpt lat="44.085155" lon="5.018028">
        <ele>105.589465</ele>
        <time>2017-06-07T11:36:29.000Z</time>
      </trkpt>
      <trkpt lat="44.085090" lon="5.018153">
        <ele>105.656190</ele>
        <time>2017-06-07T11:36:32.000Z</time>
      </trkpt>
      <trkpt lat="44.085020" lon="5.018297">
        <ele>105.728390</ele>
        <time>2017-06-07T11:36:35.000Z</time>
      </trkpt>
      <trkpt lat="44.084976" lon="5.018418">
        <ele>105.605884</ele>
        <time>2017-06-07T11:36:37.000Z</time>
      </trkpt>
      <trkpt lat="44.084927" lon="5.018529">
        <ele>105.488198</ele>
        <time>2017-06-07T11:36:39.000Z</time>
      </trkpt>
      <trkpt lat="44.084880" lon="5.018653">
        <ele>105.361552</ele>
        <time>2017-06-07T11:36:41.000Z</time>
      </trkpt>
      <trkpt lat="44.084827" lon="5.018789">
        <ele>105.221789</ele>
        <time>2017-06-07T11:36:43.000Z</time>
      </trkpt>
      <trkpt lat="44.084785" lon="5.018916">
        <ele>105.095496</ele>
        <time>2017-06-07T11:36:45.000Z</time>
      </trkpt>
      <trkpt lat="44.084740" lon="5.019045">
        <ele>104.965957</ele>
        <time>2017-06-07T11:36:47.000Z</time>
      </trkpt>
      <trkpt lat="44.084700" lon="5.019175">
        <ele>104.838209</ele>
        <time>2017-06-07T11:36:49.000Z</time>
      </trkpt>
      <trkpt lat="44.084660" lon="5.019310">
        <ele>104.706297</ele>
        <time>2017-06-07T11:36:51.000Z</time>
      </trkpt>
      <trkpt lat="44.084614" lon="5.019446">
        <ele>104.570511</ele>
        <time>2017-06-07T11:36:53.000Z</time>
      </trkpt>
      <trkpt lat="44.084568" lon="5.019585">
        <ele>104.432268</ele>
        <time>2017-06-07T11:36:55.000Z</time>
      </trkpt>
      <trkpt lat="44.084510" lon="5.019730">
        <ele>104.282351</ele>
        <time>2017-06-07T11:36:57.000Z</time>
      </trkpt>
      <trkpt lat="44.084457" lon="5.019872">
        <ele>104.137800</ele>
        <time>2017-06-07T11:36:59.000Z</time>
      </trkpt>
      <trkpt lat="44.084400" lon="5.020013">
        <ele>103.991650</ele>
        <time>2017-06-07T11:37:01.000Z</time>
      </trkpt>
      <trkpt lat="44.084347" lon="5.020158">
        <ele>103.844689</ele>
        <time>2017-06-07T11:37:03.000Z</time>
      </trkpt>
      <trkpt lat="44.084290" lon="5.020304">
        <ele>103.694587</ele>
        <time>2017-06-07T11:37:05.000Z</time>
      </trkpt>
      <trkpt lat="44.084232" lon="5.020448">
        <ele>103.545458</ele>
        <time>2017-06-07T11:37:07.000Z</time>
      </trkpt>
      <trkpt lat="44.084170" lon="5.020597">
        <ele>103.503979</ele>
        <time>2017-06-07T11:37:09.000Z</time>
      </trkpt>
      <trkpt lat="44.084114" lon="5.020743">
        <ele>103.571295</ele>
        <time>2017-06-07T11:37:11.000Z</time>
      </trkpt>
      <trkpt lat="44.084053" lon="5.020893">
        <ele>103.641401</ele>
        <time>2017-06-07T11:37:13.000Z</time>
      </trkpt>
      <trkpt lat="44.083984" lon="5.021040">
        <ele>103.712822</ele>
        <time>2017-06-07T11:37:15.000Z</time>
      </trkpt>
      <trkpt lat="44.083916" lon="5.021188">
        <ele>103.784276</ele>
        <time>2017-06-07T11:37:17.000Z</time>
      </trkpt>
      <trkpt lat="44.083847" lon="5.021340">
        <ele>103.857408</ele>
        <time>2017-06-07T11:37:19.000Z</time>
      </trkpt>
      <trkpt lat="44.083775" lon="5.021490">
        <ele>103.930783</ele>
        <time>2017-06-07T11:37:21.000Z</time>
      </trkpt>
      <trkpt lat="44.083702" lon="5.021643">
        <ele>104.005488</ele>
        <time>2017-06-07T11:37:23.000Z</time>
      </trkpt>
      <trkpt lat="44.083633" lon="5.021787">
        <ele>104.075891</ele>
        <time>2017-06-07T11:37:25.000Z</time>
      </trkpt>
      <trkpt lat="44.083565" lon="5.021930">
        <ele>104.145642</ele>
        <time>2017-06-07T11:37:27.000Z</time>
      </trkpt>
      <trkpt lat="44.083500" lon="5.022059">
        <ele>104.209730</ele>
        <time>2017-06-07T11:37:29.000Z</time>
      </trkpt>
      <trkpt lat="44.083430" lon="5.022192">
        <ele>104.276790</ele>
        <time>2017-06-07T11:37:31.000Z</time>
      </trkpt>
      <trkpt lat="44.083366" lon="5.022330">
        <ele>104.343599</ele>
        <time>2017-06-07T11:37:33.000Z</time>
      </trkpt>
      <trkpt lat="44.083300" lon="5.022465">
        <ele>104.410017</ele>
        <time>2017-06-07T11:37:35.000Z</time>
      </trkpt>
      <trkpt lat="44.083237" lon="5.022605">
        <ele>104.477209</ele>
        <time>2017-06-07T11:37:37.000Z</time>
      </trkpt>
      <trkpt lat="44.083176" lon="5.022741">
        <ele>104.513171</ele>
        <time>2017-06-07T11:37:39.000Z</time>
      </trkpt>
      <trkpt lat="44.083107" lon="5.022879">
        <ele>104.545482</ele>
        <time>2017-06-07T11:37:41.000Z</time>
      </trkpt>
      <trkpt lat="44.083040" lon="5.023020">
        <ele>104.577969</ele>
        <time>2017-06-07T11:37:43.000Z</time>
      </trkpt>
      <trkpt lat="44.082962" lon="5.023158">
        <ele>104.611713</ele>
        <time>2017-06-07T11:37:45.000Z</time>
      </trkpt>
      <trkpt lat="44.082880" lon="5.023285">
        <ele>104.644529</ele>
        <time>2017-06-07T11:37:47.000Z</time>
      </trkpt>
      <trkpt lat="44.082794" lon="5.023405">
        <ele>104.677103</ele>
        <time>2017-06-07T11:37:49.000Z</time>
      </trkpt>
      <trkpt lat="44.082714" lon="5.023531">
        <ele>104.709419</ele>
        <time>2017-06-07T11:37:51.000Z</time>
      </trkpt>
      <trkpt lat="44.082626" lon="5.023644">
        <ele>104.741446</ele>
        <time>2017-06-07T11:37:53.000Z</time>
      </trkpt>
      <trkpt lat="44.082530" lon="5.023740">
        <ele>104.773067</ele>
        <time>2017-06-07T11:37:55.000Z</time>
      </trkpt>
      <trkpt lat="44.082430" lon="5.023842">
        <ele>104.806231</ele>
        <time>2017-06-07T11:37:57.000Z</time>
      </trkpt>
      <trkpt lat="44.082317" lon="5.023932">
        <ele>104.841059</ele>
        <time>2017-06-07T11:37:59.000Z</time>
      </trkpt>
      <trkpt lat="44.082200" lon="5.023996">
        <ele>104.874688</ele>
        <time>2017-06-07T11:38:01.000Z</time>
      </trkpt>
      <trkpt lat="44.082092" lon="5.024068">
        <ele>104.906723</ele>
        <time>2017-06-07T11:38:03.000Z</time>
      </trkpt>
      <trkpt lat="44.081990" lon="5.024141">
        <ele>104.937405</ele>
        <time>2017-06-07T11:38:05.000Z</time>
      </trkpt>
      <trkpt lat="44.081886" lon="5.024213">
        <ele>104.969905</ele>
        <time>2017-06-07T11:38:07.000Z</time>
      </trkpt>
      <trkpt lat="44.081783" lon="5.024273">
        <ele>105.127882</ele>
        <time>2017-06-07T11:38:09.000Z</time>
      </trkpt>
      <trkpt lat="44.081680" lon="5.024351">
        <ele>105.293782</ele>
        <time>2017-06-07T11:38:11.000Z</time>
      </trkpt>
      <trkpt lat="44.081580" lon="5.024429">
        <ele>105.455967</ele>
        <time>2017-06-07T11:38:13.000Z</time>
      </trkpt>
      <trkpt lat="44.081486" lon="5.024514">
        <ele>105.614562</ele>
        <time>2017-06-07T11:38:15.000Z</time>
      </trkpt>
      <trkpt lat="44.081398" lon="5.024592">
        <ele>105.762168</ele>
        <time>2017-06-07T11:38:17.000Z</time>
      </trkpt>
      <trkpt lat="44.081295" lon="5.024677">
        <ele>105.931583</ele>
        <time>2017-06-07T11:38:19.000Z</time>
      </trkpt>
      <trkpt lat="44.081200" lon="5.024758">
        <ele>106.089206</ele>
        <time>2017-06-07T11:38:21.000Z</time>
      </trkpt>
      <trkpt lat="44.081104" lon="5.024844">
        <ele>106.250729</ele>
        <time>2017-06-07T11:38:23.000Z</time>
      </trkpt>
      <trkpt lat="44.081013" lon="5.024931">
        <ele>106.406923</ele>
        <time>2017-06-07T11:38:25.000Z</time>
      </trkpt>
      <trkpt lat="44.080910" lon="5.025019">
        <ele>106.577914</ele>
        <time>2017-06-07T11:38:27.000Z</time>
      </trkpt>
      <trkpt lat="44.080810" lon="5.025108">
        <ele>106.745848</ele>
        <time>2017-06-07T11:38:29.000Z</time>
      </trkpt>
      <trkpt lat="44.080710" lon="5.025195">
        <ele>106.912695</ele>
        <time>2017-06-07T11:38:31.000Z</time>
      </trkpt>
      <trkpt lat="44.080616" lon="5.025282">
        <ele>107.072407</ele>
        <time>2017-06-07T11:38:33.000Z</time>
      </trkpt>
      <trkpt lat="44.080517" lon="5.025373">
        <ele>107.240262</ele>
        <time>2017-06-07T11:38:35.000Z</time>
      </trkpt>
      <trkpt lat="44.080410" lon="5.025464">
        <ele>107.417672</ele>
        <time>2017-06-07T11:38:37.000Z</time>
      </trkpt>
      <trkpt lat="44.080310" lon="5.025554">
        <ele>107.651726</ele>
        <time>2017-06-07T11:38:39.000Z</time>
      </trkpt>
      <trkpt lat="44.080210" lon="5.025630">
        <ele>107.957430</ele>
        <time>2017-06-07T11:38:41.000Z</time>
      </trkpt>
      <trkpt lat="44.080112" lon="5.025708">
        <ele>108.260331</ele>
        <time>2017-06-07T11:38:43.000Z</time>
      </trkpt>
      <trkpt lat="44.080013" lon="5.025789">
        <ele>108.568453</ele>
        <time>2017-06-07T11:38:45.000Z</time>
      </trkpt>
      <trkpt lat="44.079914" lon="5.025873">
        <ele>108.879545</ele>
        <time>2017-06-07T11:38:47.000Z</time>
      </trkpt>
      <trkpt lat="44.079810" lon="5.025951">
        <ele>109.196522</ele>
        <time>2017-06-07T11:38:49.000Z</time>
      </trkpt>
      <trkpt lat="44.079712" lon="5.026035">
        <ele>109.505327</ele>
        <time>2017-06-07T11:38:51.000Z</time>
      </trkpt>
      <trkpt lat="44.079620" lon="5.026118">
        <ele>109.799491</ele>
        <time>2017-06-07T11:38:53.000Z</time>
      </trkpt>
      <trkpt lat="44.079520" lon="5.026193">
        <ele>110.104277</ele>
        <time>2017-06-07T11:38:55.000Z</time>
      </trkpt>
      <trkpt lat="44.079420" lon="5.026271">
        <ele>110.411848</ele>
        <time>2017-06-07T11:38:57.000Z</time>
      </trkpt>
      <trkpt lat="44.079320" lon="5.026346">
        <ele>110.716635</ele>
        <time>2017-06-07T11:38:59.000Z</time>
      </trkpt>
      <trkpt lat="44.079220" lon="5.026441">
        <ele>111.041484</ele>
        <time>2017-06-07T11:39:01.000Z</time>
      </trkpt>
      <trkpt lat="44.079117" lon="5.026519">
        <ele>111.356103</ele>
        <time>2017-06-07T11:39:03.000Z</time>
      </trkpt>
      <trkpt lat="44.079018" lon="5.026593">
        <ele>111.657614</ele>
        <time>2017-06-07T11:39:05.000Z</time>
      </trkpt>
      <trkpt lat="44.078915" lon="5.026688">
        <ele>111.989144</ele>
        <time>2017-06-07T11:39:07.000Z</time>
      </trkpt>
      <trkpt lat="44.078810" lon="5.026779">
        <ele>112.321022</ele>
        <time>2017-06-07T11:39:09.000Z</time>
      </trkpt>
      <trkpt lat="44.078705" lon="5.026864">
        <ele>112.556019</ele>
        <time>2017-06-07T11:39:11.000Z</time>
      </trkpt>
      <trkpt lat="44.078610" lon="5.026948">
        <ele>112.768806</ele>
        <time>2017-06-07T11:39:13.000Z</time>
      </trkpt>
      <trkpt lat="44.078518" lon="5.027034">
        <ele>112.978330</ele>
        <time>2017-06-07T11:39:15.000Z</time>
      </trkpt>
      <trkpt lat="44.078407" lon="5.027113">
        <ele>113.214036</ele>
        <time>2017-06-07T11:39:17.000Z</time>
      </trkpt>
      <trkpt lat="44.078310" lon="5.027185">
        <ele>113.421876</ele>
        <time>2017-06-07T11:39:19.000Z</time>
      </trkpt>
      <trkpt lat="44.078213" lon="5.027257">
        <ele>113.629717</ele>
        <time>2017-06-07T11:39:21.000Z</time>
      </trkpt>
      <trkpt lat="44.078125" lon="5.027326">
        <ele>113.820677</ele>
        <time>2017-06-07T11:39:23.000Z</time>
      </trkpt>
      <trkpt lat="44.078040" lon="5.027402">
        <ele>114.011681</ele>
        <time>2017-06-07T11:39:25.000Z</time>
      </trkpt>
      <trkpt lat="44.077960" lon="5.027478">
        <ele>114.194804</ele>
        <time>2017-06-07T11:39:27.000Z</time>
      </trkpt>
      <trkpt lat="44.077877" lon="5.027535">
        <ele>114.369789</ele>
        <time>2017-06-07T11:39:29.000Z</time>
      </trkpt>
      <trkpt lat="44.077797" lon="5.027623">
        <ele>114.562570</ele>
        <time>2017-06-07T11:39:32.000Z</time>
      </trkpt>
      <trkpt lat="44.077717" lon="5.027689">
        <ele>114.738394</ele>
        <time>2017-06-07T11:39:35.000Z</time>
      </trkpt>
      <trkpt lat="44.077700" lon="5.027824">
        <ele>114.924555</ele>
        <time>2017-06-07T11:39:44.000Z</time>
      </trkpt>
      <trkpt lat="44.077670" lon="5.027948">
        <ele>115.102273</ele>
        <time>2017-06-07T11:39:48.000Z</time>
      </trkpt>
      <trkpt lat="44.077614" lon="5.028098">
        <ele>115.331881</ele>
        <time>2017-06-07T11:39:52.000Z</time>
      </trkpt>
      <trkpt lat="44.077580" lon="5.028235">
        <ele>115.528754</ele>
        <time>2017-06-07T11:39:54.000Z</time>
      </trkpt>
      <trkpt lat="44.077522" lon="5.028356">
        <ele>115.726329</ele>
        <time>2017-06-07T11:39:57.000Z</time>
      </trkpt>
      <trkpt lat="44.077477" lon="5.028494">
        <ele>115.855425</ele>
        <time>2017-06-07T11:40:00.000Z</time>
      </trkpt>
      <trkpt lat="44.077420" lon="5.028646">
        <ele>115.995410</ele>
        <time>2017-06-07T11:40:03.000Z</time>
      </trkpt>
      <trkpt lat="44.077354" lon="5.028789">
        <ele>116.134175</ele>
        <time>2017-06-07T11:40:06.000Z</time>
      </trkpt>
      <trkpt lat="44.077286" lon="5.028876">
        <ele>116.239137</ele>
        <time>2017-06-07T11:40:08.000Z</time>
      </trkpt>
      <trkpt lat="44.077175" lon="5.028970">
        <ele>116.386792</ele>
        <time>2017-06-07T11:40:11.000Z</time>
      </trkpt>
      <trkpt lat="44.077065" lon="5.029075">
        <ele>116.538369</ele>
        <time>2017-06-07T11:40:14.000Z</time>
      </trkpt>
      <trkpt lat="44.077000" lon="5.029232">
        <ele>116.686310</ele>
        <time>2017-06-07T11:40:17.000Z</time>
      </trkpt>
      <trkpt lat="44.077034" lon="5.029399">
        <ele>116.828022</ele>
        <time>2017-06-07T11:40:20.000Z</time>
      </trkpt>
      <trkpt lat="44.077060" lon="5.029578">
        <ele>116.977119</ele>
        <time>2017-06-07T11:40:23.000Z</time>
      </trkpt>
      <trkpt lat="44.077050" lon="5.029703">
        <ele>117.079802</ele>
        <time>2017-06-07T11:40:25.000Z</time>
      </trkpt>
      <trkpt lat="44.077003" lon="5.029867">
        <ele>117.223956</ele>
        <time>2017-06-07T11:40:28.000Z</time>
      </trkpt>
      <trkpt lat="44.076935" lon="5.030023">
        <ele>117.372929</ele>
        <time>2017-06-07T11:40:31.000Z</time>
      </trkpt>
      <trkpt lat="44.076870" lon="5.030180">
        <ele>117.520870</ele>
        <time>2017-06-07T11:40:34.000Z</time>
      </trkpt>
      <trkpt lat="44.076817" lon="5.030283">
        <ele>117.624307</ele>
        <time>2017-06-07T11:40:36.000Z</time>
      </trkpt>
      <trkpt lat="44.076750" lon="5.030388">
        <ele>117.738964</ele>
        <time>2017-06-07T11:40:38.000Z</time>
      </trkpt>
      <trkpt lat="44.076694" lon="5.030490">
        <ele>117.940736</ele>
        <time>2017-06-07T11:40:40.000Z</time>
      </trkpt>
      <trkpt lat="44.076640" lon="5.030596">
        <ele>118.218440</ele>
        <time>2017-06-07T11:40:42.000Z</time>
      </trkpt>
      <trkpt lat="44.076580" lon="5.030699">
        <ele>118.501829</ele>
        <time>2017-06-07T11:40:44.000Z</time>
      </trkpt>
      <trkpt lat="44.076534" lon="5.030807">
        <ele>118.770149</ele>
        <time>2017-06-07T11:40:46.000Z</time>
      </trkpt>
      <trkpt lat="44.076490" lon="5.030920">
        <ele>119.044830</ele>
        <time>2017-06-07T11:40:48.000Z</time>
      </trkpt>
      <trkpt lat="44.076447" lon="5.031044">
        <ele>119.339085</ele>
        <time>2017-06-07T11:40:50.000Z</time>
      </trkpt>
      <trkpt lat="44.076412" lon="5.031165">
        <ele>119.617846</ele>
        <time>2017-06-07T11:40:52.000Z</time>
      </trkpt>
      <trkpt lat="44.076374" lon="5.031329">
        <ele>119.986107</ele>
        <time>2017-06-07T11:40:55.000Z</time>
      </trkpt>
      <trkpt lat="44.076355" lon="5.031474">
        <ele>120.301097</ele>
        <time>2017-06-07T11:40:58.000Z</time>
      </trkpt>
      <trkpt lat="44.076336" lon="5.031617">
        <ele>120.611884</ele>
        <time>2017-06-07T11:41:01.000Z</time>
      </trkpt>
      <trkpt lat="44.076320" lon="5.031763">
        <ele>120.927509</ele>
        <time>2017-06-07T11:41:04.000Z</time>
      </trkpt>
      <trkpt lat="44.076298" lon="5.031908">
        <ele>121.244222</ele>
        <time>2017-06-07T11:41:08.000Z</time>
      </trkpt>
      <trkpt lat="44.076270" lon="5.032068">
        <ele>121.596156</ele>
        <time>2017-06-07T11:41:10.000Z</time>
      </trkpt>
      <trkpt lat="44.076244" lon="5.032249">
        <ele>121.990627</ele>
        <time>2017-06-07T11:41:13.000Z</time>
      </trkpt>
      <trkpt lat="44.076210" lon="5.032414">
        <ele>122.357466</ele>
        <time>2017-06-07T11:41:16.000Z</time>
      </trkpt>
      <trkpt lat="44.076187" lon="5.032598">
        <ele>122.756599</ele>
        <time>2017-06-07T11:41:20.000Z</time>
      </trkpt>
      <trkpt lat="44.076164" lon="5.032780">
        <ele>123.159555</ele>
        <time>2017-06-07T11:41:22.000Z</time>
      </trkpt>
      <trkpt lat="44.076153" lon="5.032957">
        <ele>123.716524</ele>
        <time>2017-06-07T11:41:26.000Z</time>
      </trkpt>
      <trkpt lat="44.076153" lon="5.033093">
        <ele>124.142886</ele>
        <time>2017-06-07T11:41:28.000Z</time>
      </trkpt>
      <trkpt lat="44.076157" lon="5.033225">
        <ele>124.557075</ele>
        <time>2017-06-07T11:41:29.000Z</time>
      </trkpt>
      <trkpt lat="44.076153" lon="5.033351">
        <ele>124.952472</ele>
        <time>2017-06-07T11:41:31.000Z</time>
      </trkpt>
      <trkpt lat="44.076140" lon="5.033539">
        <ele>125.544577</ele>
        <time>2017-06-07T11:41:34.000Z</time>
      </trkpt>
      <trkpt lat="44.076134" lon="5.033667">
        <ele>125.946712</ele>
        <time>2017-06-07T11:41:36.000Z</time>
      </trkpt>
      <trkpt lat="44.076120" lon="5.033790">
        <ele>126.337128</ele>
        <time>2017-06-07T11:41:38.000Z</time>
      </trkpt>
      <trkpt lat="44.076084" lon="5.033965">
        <ele>126.907804</ele>
        <time>2017-06-07T11:41:41.000Z</time>
      </trkpt>
      <trkpt lat="44.076057" lon="5.034138">
        <ele>127.462812</ele>
        <time>2017-06-07T11:41:44.000Z</time>
      </trkpt>
      <trkpt lat="44.076023" lon="5.034314">
        <ele>128.034175</ele>
        <time>2017-06-07T11:41:47.000Z</time>
      </trkpt>
      <trkpt lat="44.075993" lon="5.034486">
        <ele>128.589062</ele>
        <time>2017-06-07T11:41:50.000Z</time>
      </trkpt>
      <trkpt lat="44.075960" lon="5.034651">
        <ele>129.126011</ele>
        <time>2017-06-07T11:41:53.000Z</time>
      </trkpt>
      <trkpt lat="44.075930" lon="5.034771">
        <ele>129.524341</ele>
        <time>2017-06-07T11:41:55.000Z</time>
      </trkpt>
      <trkpt lat="44.075893" lon="5.034936">
        <ele>130.066233</ele>
        <time>2017-06-07T11:41:58.000Z</time>
      </trkpt>
      <trkpt lat="44.075850" lon="5.035109">
        <ele>130.640135</ele>
        <time>2017-06-07T11:42:01.000Z</time>
      </trkpt>
      <trkpt lat="44.075813" lon="5.035258">
        <ele>131.160120</ele>
        <time>2017-06-07T11:42:04.000Z</time>
      </trkpt>
      <trkpt lat="44.075780" lon="5.035410">
        <ele>131.742724</ele>
        <time>2017-06-07T11:42:07.000Z</time>
      </trkpt>
      <trkpt lat="44.075750" lon="5.035556">
        <ele>132.299885</ele>
        <time>2017-06-07T11:42:10.000Z</time>
      </trkpt>
      <trkpt lat="44.075720" lon="5.035700">
        <ele>132.849994</ele>
        <time>2017-06-07T11:42:13.000Z</time>
      </trkpt>
      <trkpt lat="44.075695" lon="5.035839">
        <ele>133.375732</ele>
        <time>2017-06-07T11:42:16.000Z</time>
      </trkpt>
      <trkpt lat="44.075665" lon="5.035970">
        <ele>133.880206</ele>
        <time>2017-06-07T11:42:19.000Z</time>
      </trkpt>
      <trkpt lat="44.075626" lon="5.036087">
        <ele>134.353442</ele>
        <time>2017-06-07T11:42:22.000Z</time>
      </trkpt>
      <trkpt lat="44.075577" lon="5.036190">
        <ele>134.806700</ele>
        <time>2017-06-07T11:42:25.000Z</time>
      </trkpt>
      <trkpt lat="44.075510" lon="5.036281">
        <ele>135.284783</ele>
        <time>2017-06-07T11:42:29.000Z</time>
      </trkpt>
      <trkpt lat="44.075443" lon="5.036369">
        <ele>135.755244</ele>
        <time>2017-06-07T11:42:33.000Z</time>
      </trkpt>
      <trkpt lat="44.075382" lon="5.036466">
        <ele>136.228232</ele>
        <time>2017-06-07T11:42:37.000Z</time>
      </trkpt>
      <trkpt lat="44.075344" lon="5.036581">
        <ele>136.692667</ele>
        <time>2017-06-07T11:42:41.000Z</time>
      </trkpt>
      <trkpt lat="44.075294" lon="5.036712">
        <ele>137.236936</ele>
        <time>2017-06-07T11:42:46.000Z</time>
      </trkpt>
      <trkpt lat="44.075280" lon="5.036841">
        <ele>137.715617</ele>
        <time>2017-06-07T11:42:51.000Z</time>
      </trkpt>
      <trkpt lat="44.075280" lon="5.036969">
        <ele>138.185259</ele>
        <time>2017-06-07T11:42:55.000Z</time>
      </trkpt>
      <trkpt lat="44.075287" lon="5.037121">
        <ele>138.744104</ele>
        <time>2017-06-07T11:42:59.000Z</time>
      </trkpt>
      <trkpt lat="44.075287" lon="5.037281">
        <ele>139.331156</ele>
        <time>2017-06-07T11:43:03.000Z</time>
      </trkpt>
      <trkpt lat="44.075290" lon="5.037433">
        <ele>139.889066</ele>
        <time>2017-06-07T11:43:07.000Z</time>
      </trkpt>
      <trkpt lat="44.075306" lon="5.037573">
        <ele>140.357426</ele>
        <time>2017-06-07T11:43:11.000Z</time>
      </trkpt>
      <trkpt lat="44.075317" lon="5.037716">
        <ele>140.771342</ele>
        <time>2017-06-07T11:43:15.000Z</time>
      </trkpt>
      <trkpt lat="44.075300" lon="5.037875">
        <ele>141.233994</ele>
        <time>2017-06-07T11:43:19.000Z</time>
      </trkpt>
      <trkpt lat="44.075260" lon="5.038027">
        <ele>141.699886</ele>
        <time>2017-06-07T11:43:23.000Z</time>
      </trkpt>
      <trkpt lat="44.075222" lon="5.038146">
        <ele>142.074684</ele>
        <time>2017-06-07T11:43:26.000Z</time>
      </trkpt>
      <trkpt lat="44.075172" lon="5.038274">
        <ele>142.494011</ele>
        <time>2017-06-07T11:43:29.000Z</time>
      </trkpt>
      <trkpt lat="44.075130" lon="5.038401">
        <ele>142.896393</ele>
        <time>2017-06-07T11:43:32.000Z</time>
      </trkpt>
      <trkpt lat="44.075096" lon="5.038542">
        <ele>143.324450</ele>
        <time>2017-06-07T11:43:35.000Z</time>
      </trkpt>
      <trkpt lat="44.075070" lon="5.038678">
        <ele>143.729490</ele>
        <time>2017-06-07T11:43:38.000Z</time>
      </trkpt>
      <trkpt lat="44.075050" lon="5.038819">
        <ele>144.143133</ele>
        <time>2017-06-07T11:43:41.000Z</time>
      </trkpt>
      <trkpt lat="44.075035" lon="5.038976">
        <ele>144.598970</ele>
        <time>2017-06-07T11:43:45.000Z</time>
      </trkpt>
      <trkpt lat="44.075027" lon="5.039136">
        <ele>145.060577</ele>
        <time>2017-06-07T11:43:49.000Z</time>
      </trkpt>
      <trkpt lat="44.075010" lon="5.039276">
        <ele>145.469223</ele>
        <time>2017-06-07T11:43:53.000Z</time>
      </trkpt>
      <trkpt lat="44.074993" lon="5.039434">
        <ele>145.929031</ele>
        <time>2017-06-07T11:43:57.000Z</time>
      </trkpt>
      <trkpt lat="44.074978" lon="5.039563">
        <ele>146.305135</ele>
        <time>2017-06-07T11:44:00.000Z</time>
      </trkpt>
      <trkpt lat="44.074963" lon="5.039720">
        <ele>146.760973</ele>
        <time>2017-06-07T11:44:04.000Z</time>
      </trkpt>
      <trkpt lat="44.074944" lon="5.039871">
        <ele>147.202178</ele>
        <time>2017-06-07T11:44:08.000Z</time>
      </trkpt>
      <trkpt lat="44.074913" lon="5.040022">
        <ele>147.405863</ele>
        <time>2017-06-07T11:44:12.000Z</time>
      </trkpt>
      <trkpt lat="44.074890" lon="5.040146">
        <ele>147.447132</ele>
        <time>2017-06-07T11:44:15.000Z</time>
      </trkpt>
      <trkpt lat="44.074837" lon="5.040295">
        <ele>147.500709</ele>
        <time>2017-06-07T11:44:19.000Z</time>
      </trkpt>
      <trkpt lat="44.074783" lon="5.040438">
        <ele>147.552767</ele>
        <time>2017-06-07T11:44:23.000Z</time>
      </trkpt>
      <trkpt lat="44.074734" lon="5.040566">
        <ele>147.599505</ele>
        <time>2017-06-07T11:44:27.000Z</time>
      </trkpt>
      <trkpt lat="44.074684" lon="5.040690">
        <ele>147.645326</ele>
        <time>2017-06-07T11:44:31.000Z</time>
      </trkpt>
      <trkpt lat="44.074654" lon="5.040834">
        <ele>147.693641</ele>
        <time>2017-06-07T11:44:36.000Z</time>
      </trkpt>
      <trkpt lat="44.074604" lon="5.040941">
        <ele>147.734773</ele>
        <time>2017-06-07T11:44:40.000Z</time>
      </trkpt>
      <trkpt lat="44.074543" lon="5.041047">
        <ele>147.778538</ele>
        <time>2017-06-07T11:44:45.000Z</time>
      </trkpt>
      <trkpt lat="44.074470" lon="5.040930">
        <ele>147.828474</ele>
        <time>2017-06-07T11:45:23.000Z</time>
      </trkpt>
      <trkpt lat="44.074398" lon="5.040844">
        <ele>147.871030</ele>
        <time>2017-06-07T11:45:26.000Z</time>
      </trkpt>
      <trkpt lat="44.074310" lon="5.040754">
        <ele>147.920010</ele>
        <time>2017-06-07T11:45:30.000Z</time>
      </trkpt>
      <trkpt lat="44.074223" lon="5.040664">
        <ele>147.968630</ele>
        <time>2017-06-07T11:45:34.000Z</time>
      </trkpt>
      <trkpt lat="44.074135" lon="5.040587">
        <ele>148.015253</ele>
        <time>2017-06-07T11:45:37.000Z</time>
      </trkpt>
      <trkpt lat="44.074060" lon="5.040497">
        <ele>148.059669</ele>
        <time>2017-06-07T11:45:40.000Z</time>
      </trkpt>
      <trkpt lat="44.073970" lon="5.040423">
        <ele>148.106555</ele>
        <time>2017-06-07T11:45:44.000Z</time>
      </trkpt>
      <trkpt lat="44.073887" lon="5.040339">
        <ele>148.152584</ele>
        <time>2017-06-07T11:45:46.000Z</time>
      </trkpt>
      <trkpt lat="44.073795" lon="5.040243">
        <ele>148.172427</ele>
        <time>2017-06-07T11:45:49.000Z</time>
      </trkpt>
      <trkpt lat="44.073700" lon="5.040134">
        <ele>148.150940</ele>
        <time>2017-06-07T11:45:52.000Z</time>
      </trkpt>
      <trkpt lat="44.073605" lon="5.040044">
        <ele>148.130883</ele>
        <time>2017-06-07T11:45:55.000Z</time>
      </trkpt>
      <trkpt lat="44.073510" lon="5.039932">
        <ele>148.109155</ele>
        <time>2017-06-07T11:45:58.000Z</time>
      </trkpt>
      <trkpt lat="44.073395" lon="5.039852">
        <ele>148.086716</ele>
        <time>2017-06-07T11:46:01.000Z</time>
      </trkpt>
      <trkpt lat="44.073300" lon="5.039749">
        <ele>148.065699</ele>
        <time>2017-06-07T11:46:04.000Z</time>
      </trkpt>
      <trkpt lat="44.073204" lon="5.039650">
        <ele>148.044847</ele>
        <time>2017-06-07T11:46:07.000Z</time>
      </trkpt>
      <trkpt lat="44.073093" lon="5.039546">
        <ele>148.021494</ele>
        <time>2017-06-07T11:46:10.000Z</time>
      </trkpt>
      <trkpt lat="44.073013" lon="5.039477">
        <ele>148.005068</ele>
        <time>2017-06-07T11:46:12.000Z</time>
      </trkpt>
      <trkpt lat="44.072937" lon="5.039401">
        <ele>147.988735</ele>
        <time>2017-06-07T11:46:14.000Z</time>
      </trkpt>
      <trkpt lat="44.072834" lon="5.039284">
        <ele>147.965532</ele>
        <time>2017-06-07T11:46:17.000Z</time>
      </trkpt>
      <trkpt lat="44.072730" lon="5.039172">
        <ele>147.942582</ele>
        <time>2017-06-07T11:46:20.000Z</time>
      </trkpt>
      <trkpt lat="44.072655" lon="5.039095">
        <ele>147.926316</ele>
        <time>2017-06-07T11:46:22.000Z</time>
      </trkpt>
      <trkpt lat="44.072580" lon="5.039022">
        <ele>147.910344</ele>
        <time>2017-06-07T11:46:24.000Z</time>
      </trkpt>
      <trkpt lat="44.072475" lon="5.038918">
        <ele>147.887851</ele>
        <time>2017-06-07T11:46:27.000Z</time>
      </trkpt>
      <trkpt lat="44.072376" lon="5.038806">
        <ele>147.875741</ele>
        <time>2017-06-07T11:46:30.000Z</time>
      </trkpt>
      <trkpt lat="44.072300" lon="5.038689">
        <ele>147.966801</ele>
        <time>2017-06-07T11:46:33.000Z</time>
      </trkpt>
      <trkpt lat="44.072210" lon="5.038590">
        <ele>148.058978</ele>
        <time>2017-06-07T11:46:36.000Z</time>
      </trkpt>
      <trkpt lat="44.072113" lon="5.038491">
        <ele>148.155631</ele>
        <time>2017-06-07T11:46:39.000Z</time>
      </trkpt>
      <trkpt lat="44.072018" lon="5.038377">
        <ele>148.256421</ele>
        <time>2017-06-07T11:46:42.000Z</time>
      </trkpt>
      <trkpt lat="44.071910" lon="5.038262">
        <ele>148.365687</ele>
        <time>2017-06-07T11:46:45.000Z</time>
      </trkpt>
      <trkpt lat="44.071842" lon="5.038182">
        <ele>148.437232</ele>
        <time>2017-06-07T11:46:47.000Z</time>
      </trkpt>
      <trkpt lat="44.071760" lon="5.038064">
        <ele>148.532007</ele>
        <time>2017-06-07T11:46:50.000Z</time>
      </trkpt>
      <trkpt lat="44.071670" lon="5.037964">
        <ele>148.624543</ele>
        <time>2017-06-07T11:46:53.000Z</time>
      </trkpt>
      <trkpt lat="44.071575" lon="5.037934">
        <ele>148.702820</ele>
        <time>2017-06-07T11:46:56.000Z</time>
      </trkpt>
      <trkpt lat="44.071480" lon="5.037969">
        <ele>148.781785</ele>
        <time>2017-06-07T11:46:59.000Z</time>
      </trkpt>
      <trkpt lat="44.071365" lon="5.038000">
        <ele>148.875909</ele>
        <time>2017-06-07T11:47:02.000Z</time>
      </trkpt>
      <trkpt lat="44.071230" lon="5.038027">
        <ele>148.985501</ele>
        <time>2017-06-07T11:47:05.000Z</time>
      </trkpt>
      <trkpt lat="44.071102" lon="5.038059">
        <ele>149.090001</ele>
        <time>2017-06-07T11:47:08.000Z</time>
      </trkpt>
      <trkpt lat="44.071010" lon="5.038079">
        <ele>149.164823</ele>
        <time>2017-06-07T11:47:10.000Z</time>
      </trkpt>
      <trkpt lat="44.070920" lon="5.038091">
        <ele>149.237472</ele>
        <time>2017-06-07T11:47:12.000Z</time>
      </trkpt>
      <trkpt lat="44.070793" lon="5.038107">
        <ele>149.341728</ele>
        <time>2017-06-07T11:47:15.000Z</time>
      </trkpt>
      <trkpt lat="44.070698" lon="5.038116">
        <ele>149.423260</ele>
        <time>2017-06-07T11:47:17.000Z</time>
      </trkpt>
      <trkpt lat="44.070602" lon="5.038131">
        <ele>149.505977</ele>
        <time>2017-06-07T11:47:19.000Z</time>
      </trkpt>
      <trkpt lat="44.070515" lon="5.038149">
        <ele>149.581290</ele>
        <time>2017-06-07T11:47:21.000Z</time>
      </trkpt>
      <trkpt lat="44.070374" lon="5.038182">
        <ele>149.703718</ele>
        <time>2017-06-07T11:47:24.000Z</time>
      </trkpt>
      <trkpt lat="44.070280" lon="5.038199">
        <ele>149.784883</ele>
        <time>2017-06-07T11:47:26.000Z</time>
      </trkpt>
      <trkpt lat="44.070187" lon="5.038207">
        <ele>149.864667</ele>
        <time>2017-06-07T11:47:28.000Z</time>
      </trkpt>
      <trkpt lat="44.070057" lon="5.038220">
        <ele>149.976267</ele>
        <time>2017-06-07T11:47:31.000Z</time>
      </trkpt>
      <trkpt lat="44.069965" lon="5.038228">
        <ele>150.055197</ele>
        <time>2017-06-07T11:47:33.000Z</time>
      </trkpt>
      <trkpt lat="44.069870" lon="5.038240">
        <ele>150.136876</ele>
        <time>2017-06-07T11:47:35.000Z</time>
      </trkpt>
      <trkpt lat="44.069780" lon="5.038246">
        <ele>150.214027</ele>
        <time>2017-06-07T11:47:37.000Z</time>
      </trkpt>
      <trkpt lat="44.069653" lon="5.038257">
        <ele>150.322982</ele>
        <time>2017-06-07T11:47:40.000Z</time>
      </trkpt>
      <trkpt lat="44.069530" lon="5.038241">
        <ele>150.428761</ele>
        <time>2017-06-07T11:47:43.000Z</time>
      </trkpt>
      <trkpt lat="44.069400" lon="5.038216">
        <ele>150.541132</ele>
        <time>2017-06-07T11:47:46.000Z</time>
      </trkpt>
      <trkpt lat="44.069275" lon="5.038182">
        <ele>150.650189</ele>
        <time>2017-06-07T11:47:49.000Z</time>
      </trkpt>
      <trkpt lat="44.069164" lon="5.038156">
        <ele>150.746571</ele>
        <time>2017-06-07T11:47:52.000Z</time>
      </trkpt>
      <trkpt lat="44.069073" lon="5.038148">
        <ele>150.824646</ele>
        <time>2017-06-07T11:47:55.000Z</time>
      </trkpt>
      <trkpt lat="44.068962" lon="5.038158">
        <ele>150.478618</ele>
        <time>2017-06-07T11:47:59.000Z</time>
      </trkpt>
      <trkpt lat="44.068867" lon="5.038166">
        <ele>150.024236</ele>
        <time>2017-06-07T11:48:02.000Z</time>
      </trkpt>
      <trkpt lat="44.068760" lon="5.038190">
        <ele>149.506802</ele>
        <time>2017-06-07T11:48:05.000Z</time>
      </trkpt>
      <trkpt lat="44.068645" lon="5.038223">
        <ele>148.946216</ele>
        <time>2017-06-07T11:48:08.000Z</time>
      </trkpt>
      <trkpt lat="44.068550" lon="5.038260">
        <ele>148.475240</ele>
        <time>2017-06-07T11:48:12.000Z</time>
      </trkpt>
      <trkpt lat="44.068430" lon="5.038279">
        <ele>147.898636</ele>
        <time>2017-06-07T11:48:44.000Z</time>
      </trkpt>
      <trkpt lat="44.068340" lon="5.038294">
        <ele>147.465885</ele>
        <time>2017-06-07T11:48:47.000Z</time>
      </trkpt>
      <trkpt lat="44.068245" lon="5.038316">
        <ele>147.006097</ele>
        <time>2017-06-07T11:48:50.000Z</time>
      </trkpt>
      <trkpt lat="44.068134" lon="5.038337">
        <ele>146.471284</ele>
        <time>2017-06-07T11:48:53.000Z</time>
      </trkpt>
      <trkpt lat="44.068016" lon="5.038360">
        <ele>145.902426</ele>
        <time>2017-06-07T11:48:56.000Z</time>
      </trkpt>
      <trkpt lat="44.067924" lon="5.038378">
        <ele>145.458877</ele>
        <time>2017-06-07T11:48:58.000Z</time>
      </trkpt>
      <trkpt lat="44.067830" lon="5.038386">
        <ele>145.009261</ele>
        <time>2017-06-07T11:49:00.000Z</time>
      </trkpt>
      <trkpt lat="44.067730" lon="5.038406">
        <ele>144.526933</ele>
        <time>2017-06-07T11:49:02.000Z</time>
      </trkpt>
      <trkpt lat="44.067623" lon="5.038422">
        <ele>144.013150</ele>
        <time>2017-06-07T11:49:04.000Z</time>
      </trkpt>
      <trkpt lat="44.067516" lon="5.038440">
        <ele>143.498589</ele>
        <time>2017-06-07T11:49:06.000Z</time>
      </trkpt>
      <trkpt lat="44.067406" lon="5.038455">
        <ele>142.970908</ele>
        <time>2017-06-07T11:49:08.000Z</time>
      </trkpt>
      <trkpt lat="44.067300" lon="5.038471">
        <ele>142.461872</ele>
        <time>2017-06-07T11:49:10.000Z</time>
      </trkpt>
      <trkpt lat="44.067196" lon="5.038487">
        <ele>141.908114</ele>
        <time>2017-06-07T11:49:12.000Z</time>
      </trkpt>
      <trkpt lat="44.067078" lon="5.038504">
        <ele>141.240512</ele>
        <time>2017-06-07T11:49:15.000Z</time>
      </trkpt>
      <trkpt lat="44.066986" lon="5.038513">
        <ele>140.721498</ele>
        <time>2017-06-07T11:49:18.000Z</time>
      </trkpt>
      <trkpt lat="44.066887" lon="5.038526">
        <ele>140.161894</ele>
        <time>2017-06-07T11:49:21.000Z</time>
      </trkpt>
      <trkpt lat="44.066784" lon="5.038542">
        <ele>139.578654</ele>
        <time>2017-06-07T11:49:24.000Z</time>
      </trkpt>
      <trkpt lat="44.066692" lon="5.038563">
        <ele>139.054000</ele>
        <time>2017-06-07T11:49:26.000Z</time>
      </trkpt>
      <trkpt lat="44.066597" lon="5.038574">
        <ele>138.517534</ele>
        <time>2017-06-07T11:49:28.000Z</time>
      </trkpt>
      <trkpt lat="44.066494" lon="5.038586">
        <ele>137.935866</ele>
        <time>2017-06-07T11:49:30.000Z</time>
      </trkpt>
      <trkpt lat="44.066400" lon="5.038598">
        <ele>137.404654</ele>
        <time>2017-06-07T11:49:32.000Z</time>
      </trkpt>
      <trkpt lat="44.066300" lon="5.038605">
        <ele>136.841185</ele>
        <time>2017-06-07T11:49:34.000Z</time>
      </trkpt>
      <trkpt lat="44.066196" lon="5.038621">
        <ele>136.252353</ele>
        <time>2017-06-07T11:49:36.000Z</time>
      </trkpt>
      <trkpt lat="44.066086" lon="5.038638">
        <ele>135.629515</ele>
        <time>2017-06-07T11:49:38.000Z</time>
      </trkpt>
      <trkpt lat="44.065980" lon="5.038652">
        <ele>135.030312</ele>
        <time>2017-06-07T11:49:40.000Z</time>
      </trkpt>
      <trkpt lat="44.065857" lon="5.038668">
        <ele>134.335104</ele>
        <time>2017-06-07T11:49:42.000Z</time>
      </trkpt>
      <trkpt lat="44.065727" lon="5.038672">
        <ele>133.603340</ele>
        <time>2017-06-07T11:49:44.000Z</time>
      </trkpt>
      <trkpt lat="44.065594" lon="5.038674">
        <ele>132.854830</ele>
        <time>2017-06-07T11:49:46.000Z</time>
      </trkpt>
      <trkpt lat="44.065456" lon="5.038672">
        <ele>132.115279</ele>
        <time>2017-06-07T11:49:48.000Z</time>
      </trkpt>
      <trkpt lat="44.065320" lon="5.038667">
        <ele>131.783533</ele>
        <time>2017-06-07T11:49:50.000Z</time>
      </trkpt>
      <trkpt lat="44.065174" lon="5.038669">
        <ele>131.427501</ele>
        <time>2017-06-07T11:49:52.000Z</time>
      </trkpt>
      <trkpt lat="44.065044" lon="5.038678">
        <ele>131.110109</ele>
        <time>2017-06-07T11:49:54.000Z</time>
      </trkpt>
      <trkpt lat="44.064910" lon="5.038668">
        <ele>130.782886</ele>
        <time>2017-06-07T11:49:56.000Z</time>
      </trkpt>
      <trkpt lat="44.064790" lon="5.038656">
        <ele>130.489516</ele>
        <time>2017-06-07T11:49:58.000Z</time>
      </trkpt>
      <trkpt lat="44.064674" lon="5.038646">
        <ele>130.206112</ele>
        <time>2017-06-07T11:50:00.000Z</time>
      </trkpt>
      <trkpt lat="44.064552" lon="5.038630">
        <ele>129.907302</ele>
        <time>2017-06-07T11:50:02.000Z</time>
      </trkpt>
      <trkpt lat="44.064440" lon="5.038605">
        <ele>129.630704</ele>
        <time>2017-06-07T11:50:04.000Z</time>
      </trkpt>
      <trkpt lat="44.064274" lon="5.038556">
        <ele>129.216914</ele>
        <time>2017-06-07T11:50:08.000Z</time>
      </trkpt>
      <trkpt lat="44.064163" lon="5.038529">
        <ele>128.942142</ele>
        <time>2017-06-07T11:50:09.000Z</time>
      </trkpt>
      <trkpt lat="44.064064" lon="5.038493">
        <ele>128.692629</ele>
        <time>2017-06-07T11:50:11.000Z</time>
      </trkpt>
      <trkpt lat="44.063972" lon="5.038473">
        <ele>128.465570</ele>
        <time>2017-06-07T11:50:13.000Z</time>
      </trkpt>
      <trkpt lat="44.063860" lon="5.038442">
        <ele>128.187114</ele>
        <time>2017-06-07T11:50:15.000Z</time>
      </trkpt>
      <trkpt lat="44.063763" lon="5.038425">
        <ele>127.948715</ele>
        <time>2017-06-07T11:50:17.000Z</time>
      </trkpt>
      <trkpt lat="44.063660" lon="5.038415">
        <ele>127.762348</ele>
        <time>2017-06-07T11:50:19.000Z</time>
      </trkpt>
      <trkpt lat="44.063564" lon="5.038417">
        <ele>127.780159</ele>
        <time>2017-06-07T11:50:21.000Z</time>
      </trkpt>
      <trkpt lat="44.063465" lon="5.038411">
        <ele>127.798542</ele>
        <time>2017-06-07T11:50:23.000Z</time>
      </trkpt>
      <trkpt lat="44.063374" lon="5.038399">
        <ele>127.815500</ele>
        <time>2017-06-07T11:50:25.000Z</time>
      </trkpt>
      <trkpt lat="44.063280" lon="5.038384">
        <ele>127.833052</ele>
        <time>2017-06-07T11:50:27.000Z</time>
      </trkpt>
      <trkpt lat="44.063170" lon="5.038380">
        <ele>127.853465</ele>
        <time>2017-06-07T11:50:29.000Z</time>
      </trkpt>
      <trkpt lat="44.063072" lon="5.038369">
        <ele>127.871705</ele>
        <time>2017-06-07T11:50:31.000Z</time>
      </trkpt>
      <trkpt lat="44.062977" lon="5.038360">
        <ele>127.889369</ele>
        <time>2017-06-07T11:50:33.000Z</time>
      </trkpt>
      <trkpt lat="44.062880" lon="5.038345">
        <ele>127.907475</ele>
        <time>2017-06-07T11:50:35.000Z</time>
      </trkpt>
      <trkpt lat="44.062780" lon="5.038346">
        <ele>127.926026</ele>
        <time>2017-06-07T11:50:37.000Z</time>
      </trkpt>
      <trkpt lat="44.062680" lon="5.038320">
        <ele>127.944899</ele>
        <time>2017-06-07T11:50:39.000Z</time>
      </trkpt>
      <trkpt lat="44.062576" lon="5.038315">
        <ele>127.964203</ele>
        <time>2017-06-07T11:50:41.000Z</time>
      </trkpt>
      <trkpt lat="44.062473" lon="5.038301">
        <ele>127.983402</ele>
        <time>2017-06-07T11:50:43.000Z</time>
      </trkpt>
      <trkpt lat="44.062344" lon="5.038277">
        <ele>128.007546</ele>
        <time>2017-06-07T11:50:46.000Z</time>
      </trkpt>
      <trkpt lat="44.062214" lon="5.038262">
        <ele>128.031746</ele>
        <time>2017-06-07T11:50:49.000Z</time>
      </trkpt>
      <trkpt lat="44.062088" lon="5.038259">
        <ele>128.055124</ele>
        <time>2017-06-07T11:50:52.000Z</time>
      </trkpt>
      <trkpt lat="44.061974" lon="5.038248">
        <ele>128.076323</ele>
        <time>2017-06-07T11:50:55.000Z</time>
      </trkpt>
      <trkpt lat="44.061863" lon="5.038241">
        <ele>128.122495</ele>
        <time>2017-06-07T11:50:58.000Z</time>
      </trkpt>
      <trkpt lat="44.061750" lon="5.038288">
        <ele>128.245298</ele>
        <time>2017-06-07T11:51:01.000Z</time>
      </trkpt>
      <trkpt lat="44.061660" lon="5.038322">
        <ele>128.342402</ele>
        <time>2017-06-07T11:51:03.000Z</time>
      </trkpt>
      <trkpt lat="44.061543" lon="5.038388">
        <ele>128.473855</ele>
        <time>2017-06-07T11:51:06.000Z</time>
      </trkpt>
      <trkpt lat="44.061424" lon="5.038449">
        <ele>128.605902</ele>
        <time>2017-06-07T11:51:09.000Z</time>
      </trkpt>
      <trkpt lat="44.061337" lon="5.038486">
        <ele>128.700626</ele>
        <time>2017-06-07T11:51:11.000Z</time>
      </trkpt>
      <trkpt lat="44.061245" lon="5.038507">
        <ele>128.797700</ele>
        <time>2017-06-07T11:51:13.000Z</time>
      </trkpt>
      <trkpt lat="44.061115" lon="5.038500">
        <ele>128.933162</ele>
        <time>2017-06-07T11:51:16.000Z</time>
      </trkpt>
      <trkpt lat="44.061010" lon="5.038446">
        <ele>129.049720</ele>
        <time>2017-06-07T11:51:19.000Z</time>
      </trkpt>
      <trkpt lat="44.060947" lon="5.038315">
        <ele>129.167664</ele>
        <time>2017-06-07T11:51:22.000Z</time>
      </trkpt>
      <trkpt lat="44.060880" lon="5.038173">
        <ele>129.294770</ele>
        <time>2017-06-07T11:51:25.000Z</time>
      </trkpt>
      <trkpt lat="44.060806" lon="5.038097">
        <ele>129.390534</ele>
        <time>2017-06-07T11:51:27.000Z</time>
      </trkpt>
      <trkpt lat="44.060720" lon="5.038058">
        <ele>129.484715</ele>
        <time>2017-06-07T11:51:29.000Z</time>
      </trkpt>
      <trkpt lat="44.060620" lon="5.038048">
        <ele>129.589108</ele>
        <time>2017-06-07T11:51:31.000Z</time>
      </trkpt>
      <trkpt lat="44.060520" lon="5.038073">
        <ele>129.694899</ele>
        <time>2017-06-07T11:51:33.000Z</time>
      </trkpt>
      <trkpt lat="44.060436" lon="5.038122">
        <ele>129.789737</ele>
        <time>2017-06-07T11:51:35.000Z</time>
      </trkpt>
      <trkpt lat="44.060364" lon="5.038198">
        <ele>129.883833</ele>
        <time>2017-06-07T11:51:37.000Z</time>
      </trkpt>
      <trkpt lat="44.060310" lon="5.038302">
        <ele>129.973680</ele>
        <time>2017-06-07T11:51:39.000Z</time>
      </trkpt>
      <trkpt lat="44.060276" lon="5.038427">
        <ele>130.034266</ele>
        <time>2017-06-07T11:51:41.000Z</time>
      </trkpt>
      <trkpt lat="44.060257" lon="5.038550">
        <ele>130.091296</ele>
        <time>2017-06-07T11:51:43.000Z</time>
      </trkpt>
      <trkpt lat="44.060287" lon="5.038721">
        <ele>130.171087</ele>
        <time>2017-06-07T11:51:46.000Z</time>
      </trkpt>
      <trkpt lat="44.060350" lon="5.038849">
        <ele>130.241414</ele>
        <time>2017-06-07T11:51:49.000Z</time>
      </trkpt>
      <trkpt lat="44.060375" lon="5.039005">
        <ele>130.313866</ele>
        <time>2017-06-07T11:51:52.000Z</time>
      </trkpt>
      <trkpt lat="44.060352" lon="5.039132">
        <ele>130.373235</ele>
        <time>2017-06-07T11:51:54.000Z</time>
      </trkpt>
      <trkpt lat="44.060318" lon="5.039260">
        <ele>130.435094</ele>
        <time>2017-06-07T11:51:56.000Z</time>
      </trkpt>
      <trkpt lat="44.060276" lon="5.039371">
        <ele>130.491959</ele>
        <time>2017-06-07T11:51:58.000Z</time>
      </trkpt>
      <trkpt lat="44.060204" lon="5.039529">
        <ele>130.576768</ele>
        <time>2017-06-07T11:52:01.000Z</time>
      </trkpt>
      <trkpt lat="44.060123" lon="5.039671">
        <ele>130.658951</ele>
        <time>2017-06-07T11:52:04.000Z</time>
      </trkpt>
      <trkpt lat="44.060062" lon="5.039820">
        <ele>130.736684</ele>
        <time>2017-06-07T11:52:07.000Z</time>
      </trkpt>
      <trkpt lat="44.060010" lon="5.039924">
        <ele>130.794117</ele>
        <time>2017-06-07T11:52:09.000Z</time>
      </trkpt>
      <trkpt lat="44.059950" lon="5.040024">
        <ele>130.853170</ele>
        <time>2017-06-07T11:52:11.000Z</time>
      </trkpt>
      <trkpt lat="44.059875" lon="5.040174">
        <ele>130.936005</ele>
        <time>2017-06-07T11:52:14.000Z</time>
      </trkpt>
      <trkpt lat="44.059830" lon="5.040300">
        <ele>130.999786</ele>
        <time>2017-06-07T11:52:17.000Z</time>
      </trkpt>
      <trkpt lat="44.059784" lon="5.040416">
        <ele>131.059845</ele>
        <time>2017-06-07T11:52:20.000Z</time>
      </trkpt>
      <trkpt lat="44.059740" lon="5.040540">
        <ele>131.123922</ele>
        <time>2017-06-07T11:52:23.000Z</time>
      </trkpt>
      <trkpt lat="44.059680" lon="5.040659">
        <ele>131.193675</ele>
        <time>2017-06-07T11:52:26.000Z</time>
      </trkpt>
      <trkpt lat="44.059612" lon="5.040769">
        <ele>131.263299</ele>
        <time>2017-06-07T11:52:29.000Z</time>
      </trkpt>
      <trkpt lat="44.059540" lon="5.040907">
        <ele>131.345128</ele>
        <time>2017-06-07T11:52:32.000Z</time>
      </trkpt>
      <trkpt lat="44.059483" lon="5.041052">
        <ele>131.424433</ele>
        <time>2017-06-07T11:52:35.000Z</time>
      </trkpt>
      <trkpt lat="44.059437" lon="5.041166">
        <ele>131.487168</ele>
        <time>2017-06-07T11:52:37.000Z</time>
      </trkpt>
      <trkpt lat="44.059395" lon="5.041280">
        <ele>131.548639</ele>
        <time>2017-06-07T11:52:39.000Z</time>
      </trkpt>
      <trkpt lat="44.059357" lon="5.041398">
        <ele>131.610685</ele>
        <time>2017-06-07T11:52:41.000Z</time>
      </trkpt>
      <trkpt lat="44.059288" lon="5.041548">
        <ele>131.696143</ele>
        <time>2017-06-07T11:52:44.000Z</time>
      </trkpt>
      <trkpt lat="44.059240" lon="5.041656">
        <ele>131.757076</ele>
        <time>2017-06-07T11:52:46.000Z</time>
      </trkpt>
      <trkpt lat="44.059193" lon="5.041765">
        <ele>131.818071</ele>
        <time>2017-06-07T11:52:48.000Z</time>
      </trkpt>
      <trkpt lat="44.059150" lon="5.041884">
        <ele>131.881984</ele>
        <time>2017-06-07T11:52:50.000Z</time>
      </trkpt>
      <trkpt lat="44.059105" lon="5.042011">
        <ele>131.949928</ele>
        <time>2017-06-07T11:52:52.000Z</time>
      </trkpt>
      <trkpt lat="44.059063" lon="5.042122">
        <ele>132.010122</ele>
        <time>2017-06-07T11:52:54.000Z</time>
      </trkpt>
      <trkpt lat="44.059010" lon="5.042243">
        <ele>132.078118</ele>
        <time>2017-06-07T11:52:56.000Z</time>
      </trkpt>
      <trkpt lat="44.058960" lon="5.042352">
        <ele>132.140168</ele>
        <time>2017-06-07T11:52:58.000Z</time>
      </trkpt>
      <trkpt lat="44.058910" lon="5.042461">
        <ele>132.202217</ele>
        <time>2017-06-07T11:53:00.000Z</time>
      </trkpt>
      <trkpt lat="44.058860" lon="5.042577">
        <ele>132.267123</ele>
        <time>2017-06-07T11:53:02.000Z</time>
      </trkpt>
      <trkpt lat="44.058810" lon="5.042693">
        <ele>132.307696</ele>
        <time>2017-06-07T11:53:04.000Z</time>
      </trkpt>
      <trkpt lat="44.058758" lon="5.042804">
        <ele>132.323285</ele>
        <time>2017-06-07T11:53:06.000Z</time>
      </trkpt>
      <trkpt lat="44.058704" lon="5.042914">
        <ele>132.338958</ele>
        <time>2017-06-07T11:53:08.000Z</time>
      </trkpt>
      <trkpt lat="44.058655" lon="5.043031">
        <ele>132.354890</ele>
        <time>2017-06-07T11:53:10.000Z</time>
      </trkpt>
      <trkpt lat="44.058610" lon="5.043149">
        <ele>132.370607</ele>
        <time>2017-06-07T11:53:12.000Z</time>
      </trkpt>
      <trkpt lat="44.058563" lon="5.043257">
        <ele>132.385462</ele>
        <time>2017-06-07T11:53:14.000Z</time>
      </trkpt>
      <trkpt lat="44.058495" lon="5.043396">
        <ele>132.405245</ele>
        <time>2017-06-07T11:53:17.000Z</time>
      </trkpt>
      <trkpt lat="44.058422" lon="5.043554">
        <ele>132.427344</ele>
        <time>2017-06-07T11:53:20.000Z</time>
      </trkpt>
      <trkpt lat="44.058384" lon="5.043673">
        <ele>132.442665</ele>
        <time>2017-06-07T11:53:22.000Z</time>
      </trkpt>
      <trkpt lat="44.058334" lon="5.043847">
        <ele>132.464712</ele>
        <time>2017-06-07T11:53:25.000Z</time>
      </trkpt>
      <trkpt lat="44.058292" lon="5.043963">
        <ele>132.479994</ele>
        <time>2017-06-07T11:53:27.000Z</time>
      </trkpt>
      <trkpt lat="44.058254" lon="5.044084">
        <ele>132.495530</ele>
        <time>2017-06-07T11:53:29.000Z</time>
      </trkpt>
      <trkpt lat="44.058193" lon="5.044248">
        <ele>132.517256</ele>
        <time>2017-06-07T11:53:32.000Z</time>
      </trkpt>
      <trkpt lat="44.058136" lon="5.044410">
        <ele>132.538478</ele>
        <time>2017-06-07T11:53:35.000Z</time>
      </trkpt>
      <trkpt lat="44.058070" lon="5.044568">
        <ele>132.559979</ele>
        <time>2017-06-07T11:53:38.000Z</time>
      </trkpt>
      <trkpt lat="44.058033" lon="5.044688">
        <ele>132.575342</ele>
        <time>2017-06-07T11:53:40.000Z</time>
      </trkpt>
      <trkpt lat="44.057972" lon="5.044843">
        <ele>132.596258</ele>
        <time>2017-06-07T11:53:43.000Z</time>
      </trkpt>
      <trkpt lat="44.057896" lon="5.044972">
        <ele>132.617184</ele>
        <time>2017-06-07T11:53:46.000Z</time>
      </trkpt>
      <trkpt lat="44.057823" lon="5.045043">
        <ele>132.632732</ele>
        <time>2017-06-07T11:53:48.000Z</time>
      </trkpt>
      <trkpt lat="44.057730" lon="5.045176">
        <ele>132.656012</ele>
        <time>2017-06-07T11:53:51.000Z</time>
      </trkpt>
      <trkpt lat="44.057686" lon="5.045290">
        <ele>132.672245</ele>
        <time>2017-06-07T11:53:53.000Z</time>
      </trkpt>
      <trkpt lat="44.057640" lon="5.045401">
        <ele>132.688320</ele>
        <time>2017-06-07T11:53:55.000Z</time>
      </trkpt>
      <trkpt lat="44.057537" lon="5.045470">
        <ele>132.708275</ele>
        <time>2017-06-07T11:53:58.000Z</time>
      </trkpt>
      <trkpt lat="44.057426" lon="5.045455">
        <ele>132.727744</ele>
        <time>2017-06-07T11:54:01.000Z</time>
      </trkpt>
      <trkpt lat="44.057320" lon="5.045442">
        <ele>132.746319</ele>
        <time>2017-06-07T11:54:04.000Z</time>
      </trkpt>
      <trkpt lat="44.057198" lon="5.045410">
        <ele>132.767992</ele>
        <time>2017-06-07T11:54:07.000Z</time>
      </trkpt>
      <trkpt lat="44.057130" lon="5.045265">
        <ele>132.789713</ele>
        <time>2017-06-07T11:54:10.000Z</time>
      </trkpt>
      <trkpt lat="44.057114" lon="5.045137">
        <ele>132.806012</ele>
        <time>2017-06-07T11:54:12.000Z</time>
      </trkpt>
      <trkpt lat="44.057100" lon="5.045006">
        <ele>132.822627</ele>
        <time>2017-06-07T11:54:14.000Z</time>
      </trkpt>
      <trkpt lat="44.057090" lon="5.044873">
        <ele>132.839403</ele>
        <time>2017-06-07T11:54:16.000Z</time>
      </trkpt>
      <trkpt lat="44.057083" lon="5.044738">
        <ele>132.856383</ele>
        <time>2017-06-07T11:54:18.000Z</time>
      </trkpt>
      <trkpt lat="44.057070" lon="5.044609">
        <ele>132.872725</ele>
        <time>2017-06-07T11:54:20.000Z</time>
      </trkpt>
      <trkpt lat="44.057056" lon="5.044479">
        <ele>132.889216</ele>
        <time>2017-06-07T11:54:22.000Z</time>
      </trkpt>
      <trkpt lat="44.057050" lon="5.044338">
        <ele>132.906935</ele>
        <time>2017-06-07T11:54:24.000Z</time>
      </trkpt>
      <trkpt lat="44.057022" lon="5.044199">
        <ele>133.185602</ele>
        <time>2017-06-07T11:54:26.000Z</time>
      </trkpt>
      <trkpt lat="44.056990" lon="5.044067">
        <ele>133.474099</ele>
        <time>2017-06-07T11:54:28.000Z</time>
      </trkpt>
      <trkpt lat="44.056946" lon="5.043930">
        <ele>133.784859</ele>
        <time>2017-06-07T11:54:30.000Z</time>
      </trkpt>
      <trkpt lat="44.056890" lon="5.043798">
        <ele>134.102300</ele>
        <time>2017-06-07T11:54:32.000Z</time>
      </trkpt>
      <trkpt lat="44.056805" lon="5.043689">
        <ele>134.435394</ele>
        <time>2017-06-07T11:54:34.000Z</time>
      </trkpt>
      <trkpt lat="44.056713" lon="5.043586">
        <ele>134.775667</ele>
        <time>2017-06-07T11:54:36.000Z</time>
      </trkpt>
      <trkpt lat="44.056620" lon="5.043470">
        <ele>135.135573</ele>
        <time>2017-06-07T11:54:38.000Z</time>
      </trkpt>
      <trkpt lat="44.056534" lon="5.043365">
        <ele>135.465272</ele>
        <time>2017-06-07T11:54:40.000Z</time>
      </trkpt>
      <trkpt lat="44.056458" lon="5.043279">
        <ele>135.747556</ele>
        <time>2017-06-07T11:54:42.000Z</time>
      </trkpt>
      <trkpt lat="44.056366" lon="5.043155">
        <ele>136.116651</ele>
        <time>2017-06-07T11:54:45.000Z</time>
      </trkpt>
      <trkpt lat="44.056293" lon="5.043060">
        <ele>136.404678</ele>
        <time>2017-06-07T11:54:48.000Z</time>
      </trkpt>
      <trkpt lat="44.056270" lon="5.042940">
        <ele>136.661878</ele>
        <time>2017-06-07T11:54:51.000Z</time>
      </trkpt>
      <trkpt lat="44.056255" lon="5.042792">
        <ele>136.971411</ele>
        <time>2017-06-07T11:54:54.000Z</time>
      </trkpt>
      <trkpt lat="44.056240" lon="5.042622">
        <ele>137.326116</ele>
        <time>2017-06-07T11:54:57.000Z</time>
      </trkpt>
      <trkpt lat="44.056210" lon="5.042456">
        <ele>137.680597</ele>
        <time>2017-06-07T11:55:00.000Z</time>
      </trkpt>
      <trkpt lat="44.056187" lon="5.042288">
        <ele>138.034774</ele>
        <time>2017-06-07T11:55:03.000Z</time>
      </trkpt>
      <trkpt lat="44.056156" lon="5.042122">
        <ele>138.544345</ele>
        <time>2017-06-07T11:55:06.000Z</time>
      </trkpt>
      <trkpt lat="44.056126" lon="5.041960">
        <ele>139.069920</ele>
        <time>2017-06-07T11:55:09.000Z</time>
      </trkpt>
      <trkpt lat="44.056114" lon="5.041781">
        <ele>139.634719</ele>
        <time>2017-06-07T11:55:12.000Z</time>
      </trkpt>
      <trkpt lat="44.056095" lon="5.041653">
        <ele>140.045341</ele>
        <time>2017-06-07T11:55:14.000Z</time>
      </trkpt>
      <trkpt lat="44.056053" lon="5.041535">
        <ele>140.459034</ele>
        <time>2017-06-07T11:55:16.000Z</time>
      </trkpt>
      <trkpt lat="44.055940" lon="5.041468">
        <ele>140.995998</ele>
        <time>2017-06-07T11:55:19.000Z</time>
      </trkpt>
      <trkpt lat="44.055832" lon="5.041477">
        <ele>141.468973</ele>
        <time>2017-06-07T11:55:22.000Z</time>
      </trkpt>
      <trkpt lat="44.055740" lon="5.041505">
        <ele>141.880665</ele>
        <time>2017-06-07T11:55:26.000Z</time>
      </trkpt>
      <trkpt lat="44.055690" lon="5.041610">
        <ele>142.276386</ele>
        <time>2017-06-07T11:55:31.000Z</time>
      </trkpt>
      <trkpt lat="44.055730" lon="5.041746">
        <ele>142.738053</ele>
        <time>2017-06-07T11:55:36.000Z</time>
      </trkpt>
      <trkpt lat="44.055775" lon="5.041874">
        <ele>143.185727</ele>
        <time>2017-06-07T11:55:41.000Z</time>
      </trkpt>
      <trkpt lat="44.055790" lon="5.042021">
        <ele>143.652186</ele>
        <time>2017-06-07T11:55:45.000Z</time>
      </trkpt>
      <trkpt lat="44.055805" lon="5.042154">
        <ele>144.075144</ele>
        <time>2017-06-07T11:55:48.000Z</time>
      </trkpt>
      <trkpt lat="44.055817" lon="5.042300">
        <ele>144.536819</ele>
        <time>2017-06-07T11:55:51.000Z</time>
      </trkpt>
      <trkpt lat="44.055832" lon="5.042446">
        <ele>145.000168</ele>
        <time>2017-06-07T11:55:54.000Z</time>
      </trkpt>
      <trkpt lat="44.055855" lon="5.042592">
        <ele>145.469744</ele>
        <time>2017-06-07T11:55:57.000Z</time>
      </trkpt>
      <trkpt lat="44.055878" lon="5.042747">
        <ele>145.961299</ele>
        <time>2017-06-07T11:56:00.000Z</time>
      </trkpt>
      <trkpt lat="44.055893" lon="5.042913">
        <ele>146.252198</ele>
        <time>2017-06-07T11:56:03.000Z</time>
      </trkpt>
      <trkpt lat="44.055916" lon="5.043131">
        <ele>146.635300</ele>
        <time>2017-06-07T11:56:07.000Z</time>
      </trkpt>
      <trkpt lat="44.055946" lon="5.043282">
        <ele>146.907693</ele>
        <time>2017-06-07T11:56:10.000Z</time>
      </trkpt>
      <trkpt lat="44.055965" lon="5.043514">
        <ele>147.313684</ele>
        <time>2017-06-07T11:56:14.000Z</time>
      </trkpt>
      <trkpt lat="44.055992" lon="5.043672">
        <ele>147.596060</ele>
        <time>2017-06-07T11:56:17.000Z</time>
      </trkpt>
      <trkpt lat="44.056010" lon="5.043829">
        <ele>147.872489</ele>
        <time>2017-06-07T11:56:20.000Z</time>
      </trkpt>
      <trkpt lat="44.056038" lon="5.043965">
        <ele>148.118465</ele>
        <time>2017-06-07T11:56:23.000Z</time>
      </trkpt>
      <trkpt lat="44.056038" lon="5.044094">
        <ele>148.342759</ele>
        <time>2017-06-07T11:56:26.000Z</time>
      </trkpt>
      <trkpt lat="44.055943" lon="5.044180">
        <ele>148.616958</ele>
        <time>2017-06-07T11:56:30.000Z</time>
      </trkpt>
      <trkpt lat="44.055847" lon="5.044203">
        <ele>148.852636</ele>
        <time>2017-06-07T11:56:33.000Z</time>
      </trkpt>
      <trkpt lat="44.055756" lon="5.044204">
        <ele>149.072806</ele>
        <time>2017-06-07T11:56:36.000Z</time>
      </trkpt>
      <trkpt lat="44.055664" lon="5.044171">
        <ele>149.302665</ele>
        <time>2017-06-07T11:56:40.000Z</time>
      </trkpt>
      <trkpt lat="44.055570" lon="5.044168">
        <ele>149.530145</ele>
        <time>2017-06-07T11:56:44.000Z</time>
      </trkpt>
      <trkpt lat="44.055466" lon="5.044178">
        <ele>149.782360</ele>
        <time>2017-06-07T11:56:48.000Z</time>
      </trkpt>
      <trkpt lat="44.055340" lon="5.044191">
        <ele>150.088038</ele>
        <time>2017-06-07T11:56:52.000Z</time>
      </trkpt>
      <trkpt lat="44.055230" lon="5.044233">
        <ele>150.363953</ele>
        <time>2017-06-07T11:56:55.000Z</time>
      </trkpt>
      <trkpt lat="44.055126" lon="5.044257">
        <ele>150.618767</ele>
        <time>2017-06-07T11:56:58.000Z</time>
      </trkpt>
      <trkpt lat="44.055035" lon="5.044285">
        <ele>150.844039</ele>
        <time>2017-06-07T11:57:02.000Z</time>
      </trkpt>
      <trkpt lat="44.054940" lon="5.044345">
        <ele>151.096213</ele>
        <time>2017-06-07T11:57:06.000Z</time>
      </trkpt>
      <trkpt lat="44.054860" lon="5.044423">
        <ele>151.332330</ele>
        <time>2017-06-07T11:57:10.000Z</time>
      </trkpt>
      <trkpt lat="44.054832" lon="5.044559">
        <ele>151.578082</ele>
        <time>2017-06-07T11:57:16.000Z</time>
      </trkpt>
      <trkpt lat="44.054775" lon="5.044671">
        <ele>151.816483</ele>
        <time>2017-06-07T11:57:21.000Z</time>
      </trkpt>
      <trkpt lat="44.054710" lon="5.044772">
        <ele>152.051998</ele>
        <time>2017-06-07T11:57:29.000Z</time>
      </trkpt>
      <trkpt lat="44.054783" lon="5.044861">
        <ele>152.286598</ele>
        <time>2017-06-07T11:58:13.000Z</time>
      </trkpt>
      <trkpt lat="44.054806" lon="5.045047">
        <ele>152.614452</ele>
        <time>2017-06-07T11:58:57.000Z</time>
      </trkpt>
      <trkpt lat="44.054832" lon="5.045191">
        <ele>152.872372</ele>
        <time>2017-06-07T11:59:03.000Z</time>
      </trkpt>
      <trkpt lat="44.054855" lon="5.045312">
        <ele>153.089792</ele>
        <time>2017-06-07T11:59:09.000Z</time>
      </trkpt>
      <trkpt lat="44.054874" lon="5.045441">
        <ele>153.318538</ele>
        <time>2017-06-07T11:59:15.000Z</time>
      </trkpt>
      <trkpt lat="44.054905" lon="5.045580">
        <ele>153.571358</ele>
        <time>2017-06-07T11:59:20.000Z</time>
      </trkpt>
      <trkpt lat="44.054940" lon="5.045705">
        <ele>153.804397</ele>
        <time>2017-06-07T11:59:25.000Z</time>
      </trkpt>
      <trkpt lat="44.054974" lon="5.045858">
        <ele>154.082592</ele>
        <time>2017-06-07T11:59:30.000Z</time>
      </trkpt>
      <trkpt lat="44.054996" lon="5.045998">
        <ele>154.331535</ele>
        <time>2017-06-07T11:59:35.000Z</time>
      </trkpt>
      <trkpt lat="44.055004" lon="5.046142">
        <ele>154.582427</ele>
        <time>2017-06-07T11:59:40.000Z</time>
      </trkpt>
      <trkpt lat="44.054993" lon="5.046286">
        <ele>155.202683</ele>
        <time>2017-06-07T11:59:45.000Z</time>
      </trkpt>
      <trkpt lat="44.054977" lon="5.046439">
        <ele>156.019626</ele>
        <time>2017-06-07T11:59:51.000Z</time>
      </trkpt>
      <trkpt lat="44.054940" lon="5.046575">
        <ele>156.787996</ele>
        <time>2017-06-07T11:59:54.000Z</time>
      </trkpt>
      <trkpt lat="44.054916" lon="5.046701">
        <ele>157.476749</ele>
        <time>2017-06-07T11:59:59.000Z</time>
      </trkpt>
      <trkpt lat="44.054848" lon="5.046802">
        <ele>158.208018</ele>
        <time>2017-06-07T12:00:04.000Z</time>
      </trkpt>
      <trkpt lat="44.054844" lon="5.046942">
        <ele>158.948343</ele>
        <time>2017-06-07T12:00:11.000Z</time>
      </trkpt>
      <trkpt lat="44.054870" lon="5.047072">
        <ele>159.661347</ele>
        <time>2017-06-07T12:00:17.000Z</time>
      </trkpt>
      <trkpt lat="44.054850" lon="5.047215">
        <ele>160.431114</ele>
        <time>2017-06-07T12:00:22.000Z</time>
      </trkpt>
      <trkpt lat="44.054825" lon="5.047353">
        <ele>161.183097</ele>
        <time>2017-06-07T12:00:27.000Z</time>
      </trkpt>
      <trkpt lat="44.054813" lon="5.047477">
        <ele>161.844209</ele>
        <time>2017-06-07T12:00:32.000Z</time>
      </trkpt>
      <trkpt lat="44.054745" lon="5.047563">
        <ele>162.519814</ele>
        <time>2017-06-07T12:00:40.000Z</time>
      </trkpt>
      <trkpt lat="44.054750" lon="5.047430">
        <ele>163.223530</ele>
        <time>2017-06-07T12:00:48.000Z</time>
      </trkpt>
      <trkpt lat="44.054760" lon="5.047303">
        <ele>163.898597</ele>
        <time>2017-06-07T12:00:54.000Z</time>
      </trkpt>
      <trkpt lat="44.054710" lon="5.047179">
        <ele>164.649879</ele>
        <time>2017-06-07T12:00:58.000Z</time>
      </trkpt>
      <trkpt lat="44.054640" lon="5.047094">
        <ele>165.332952</ele>
        <time>2017-06-07T12:01:04.000Z</time>
      </trkpt>
      <trkpt lat="44.054527" lon="5.047085">
        <ele>166.165114</ele>
        <time>2017-06-07T12:01:09.000Z</time>
      </trkpt>
      <trkpt lat="44.054410" lon="5.047126">
        <ele>167.052185</ele>
        <time>2017-06-07T12:01:13.000Z</time>
      </trkpt>
      <trkpt lat="44.054317" lon="5.047192">
        <ele>167.819741</ele>
        <time>2017-06-07T12:01:18.000Z</time>
      </trkpt>
      <trkpt lat="44.054226" lon="5.047222">
        <ele>167.488647</ele>
        <time>2017-06-07T12:01:31.000Z</time>
      </trkpt>
      <trkpt lat="44.054302" lon="5.047145">
        <ele>167.062007</ele>
        <time>2017-06-07T12:02:48.000Z</time>
      </trkpt>
      <trkpt lat="44.054398" lon="5.047151">
        <ele>166.625907</ele>
        <time>2017-06-07T12:02:53.000Z</time>
      </trkpt>
      <trkpt lat="44.054497" lon="5.047155">
        <ele>166.176443</ele>
        <time>2017-06-07T12:02:59.000Z</time>
      </trkpt>
      <trkpt lat="44.054596" lon="5.047072">
        <ele>165.651919</ele>
        <time>2017-06-07T12:03:08.000Z</time>
      </trkpt>
      <trkpt lat="44.054688" lon="5.047005">
        <ele>165.180684</ele>
        <time>2017-06-07T12:03:48.000Z</time>
      </trkpt>
      <trkpt lat="44.054770" lon="5.047051">
        <ele>164.779453</ele>
        <time>2017-06-07T12:04:17.000Z</time>
      </trkpt>
      <trkpt lat="44.054870" lon="5.047103">
        <ele>164.294986</ele>
        <time>2017-06-07T12:04:26.000Z</time>
      </trkpt>
      <trkpt lat="44.054962" lon="5.047117">
        <ele>163.874989</ele>
        <time>2017-06-07T12:04:31.000Z</time>
      </trkpt>
      <trkpt lat="44.055058" lon="5.047171">
        <ele>163.405077</ele>
        <time>2017-06-07T12:04:37.000Z</time>
      </trkpt>
      <trkpt lat="44.055157" lon="5.047199">
        <ele>162.946616</ele>
        <time>2017-06-07T12:04:48.000Z</time>
      </trkpt>
      <trkpt lat="44.055270" lon="5.047241">
        <ele>162.415828</ele>
        <time>2017-06-07T12:05:43.000Z</time>
      </trkpt>
      <trkpt lat="44.055360" lon="5.047289">
        <ele>161.978423</ele>
        <time>2017-06-07T12:05:50.000Z</time>
      </trkpt>
      <trkpt lat="44.055458" lon="5.047269">
        <ele>161.528928</ele>
        <time>2017-06-07T12:05:56.000Z</time>
      </trkpt>
      <trkpt lat="44.055560" lon="5.047293">
        <ele>161.059468</ele>
        <time>2017-06-07T12:06:00.000Z</time>
      </trkpt>
      <trkpt lat="44.055470" lon="5.047320">
        <ele>160.641652</ele>
        <time>2017-06-07T12:06:21.000Z</time>
      </trkpt>
      <trkpt lat="44.055560" lon="5.047270">
        <ele>160.201870</ele>
        <time>2017-06-07T12:06:28.000Z</time>
      </trkpt>
      <trkpt lat="44.055500" lon="5.047149">
        <ele>159.722420</ele>
        <time>2017-06-07T12:06:36.000Z</time>
      </trkpt>
      <trkpt lat="44.055584" lon="5.047222">
        <ele>159.977611</ele>
        <time>2017-06-07T12:06:52.000Z</time>
      </trkpt>
      <trkpt lat="44.055480" lon="5.047209">
        <ele>160.259198</ele>
        <time>2017-06-07T12:06:59.000Z</time>
      </trkpt>
      <trkpt lat="44.055374" lon="5.047218">
        <ele>160.545581</ele>
        <time>2017-06-07T12:07:04.000Z</time>
      </trkpt>
      <trkpt lat="44.055270" lon="5.047233">
        <ele>160.827542</ele>
        <time>2017-06-07T12:07:08.000Z</time>
      </trkpt>
      <trkpt lat="44.055170" lon="5.047224">
        <ele>161.097776</ele>
        <time>2017-06-07T12:07:13.000Z</time>
      </trkpt>
      <trkpt lat="44.055073" lon="5.047239">
        <ele>161.360968</ele>
        <time>2017-06-07T12:07:17.000Z</time>
      </trkpt>
      <trkpt lat="44.054980" lon="5.047208">
        <ele>161.618858</ele>
        <time>2017-06-07T12:07:22.000Z</time>
      </trkpt>
      <trkpt lat="44.054882" lon="5.047202">
        <ele>161.883391</ele>
        <time>2017-06-07T12:07:29.000Z</time>
      </trkpt>
      <trkpt lat="44.054802" lon="5.047112">
        <ele>162.160819</ele>
        <time>2017-06-07T12:07:36.000Z</time>
      </trkpt>
      <trkpt lat="44.054714" lon="5.047045">
        <ele>162.431332</ele>
        <time>2017-06-07T12:07:56.000Z</time>
      </trkpt>
      <trkpt lat="44.054570" lon="5.047099">
        <ele>162.833514</ele>
        <time>2017-06-07T13:03:52.000Z</time>
      </trkpt>
      <trkpt lat="44.054565" lon="5.047251">
        <ele>163.128408</ele>
        <time>2017-06-07T13:04:52.000Z</time>
      </trkpt>
      <trkpt lat="44.054590" lon="5.047124">
        <ele>163.383609</ele>
        <time>2017-06-07T13:04:56.000Z</time>
      </trkpt>
      <trkpt lat="44.054680" lon="5.047016">
        <ele>163.704102</ele>
        <time>2017-06-07T13:07:41.000Z</time>
      </trkpt>
      <trkpt lat="44.054590" lon="5.047071">
        <ele>163.969182</ele>
        <time>2017-06-07T13:08:05.000Z</time>
      </trkpt>
      <trkpt lat="44.054626" lon="5.046953">
        <ele>164.217627</ele>
        <time>2017-06-07T13:08:46.000Z</time>
      </trkpt>
      <trkpt lat="44.054710" lon="5.047045">
        <ele>164.505905</ele>
        <time>2017-06-07T13:08:55.000Z</time>
      </trkpt>
      <trkpt lat="44.054764" lon="5.047182">
        <ele>164.033819</ele>
        <time>2017-06-07T13:09:02.000Z</time>
      </trkpt>
      <trkpt lat="44.054775" lon="5.047309">
        <ele>163.492274</ele>
        <time>2017-06-07T13:09:08.000Z</time>
      </trkpt>
      <trkpt lat="44.054787" lon="5.047460">
        <ele>162.849119</ele>
        <time>2017-06-07T13:09:15.000Z</time>
      </trkpt>
      <trkpt lat="44.054813" lon="5.047586">
        <ele>162.294145</ele>
        <time>2017-06-07T13:09:20.000Z</time>
      </trkpt>
      <trkpt lat="44.054848" lon="5.047724">
        <ele>161.674610</ele>
        <time>2017-06-07T13:09:25.000Z</time>
      </trkpt>
      <trkpt lat="44.054850" lon="5.047880">
        <ele>161.014079</ele>
        <time>2017-06-07T13:09:31.000Z</time>
      </trkpt>
      <trkpt lat="44.054867" lon="5.048036">
        <ele>160.346104</ele>
        <time>2017-06-07T13:09:36.000Z</time>
      </trkpt>
      <trkpt lat="44.054880" lon="5.048180">
        <ele>159.731690</ele>
        <time>2017-06-07T13:09:40.000Z</time>
      </trkpt>
      <trkpt lat="44.054882" lon="5.048334">
        <ele>159.079625</ele>
        <time>2017-06-07T13:09:45.000Z</time>
      </trkpt>
      <trkpt lat="44.054930" lon="5.048441">
        <ele>158.545636</ele>
        <time>2017-06-07T13:09:50.000Z</time>
      </trkpt>
      <trkpt lat="44.054924" lon="5.048574">
        <ele>157.981474</ele>
        <time>2017-06-07T13:09:58.000Z</time>
      </trkpt>
      <trkpt lat="44.054996" lon="5.048486">
        <ele>157.416958</ele>
        <time>2017-06-07T13:10:10.000Z</time>
      </trkpt>
      <trkpt lat="44.055080" lon="5.048535">
        <ele>156.880416</ele>
        <time>2017-06-07T13:10:19.000Z</time>
      </trkpt>
      <trkpt lat="44.055138" lon="5.048636">
        <ele>156.333097</ele>
        <time>2017-06-07T13:10:28.000Z</time>
      </trkpt>
      <trkpt lat="44.055230" lon="5.048670">
        <ele>155.772363</ele>
        <time>2017-06-07T13:10:51.000Z</time>
      </trkpt>
      <trkpt lat="44.055180" lon="5.048775">
        <ele>155.239124</ele>
        <time>2017-06-07T13:15:54.000Z</time>
      </trkpt>
      <trkpt lat="44.055110" lon="5.048664">
        <ele>154.613942</ele>
        <time>2017-06-07T13:35:38.000Z</time>
      </trkpt>
      <trkpt lat="44.055046" lon="5.048571">
        <ele>154.068833</ele>
        <time>2017-06-07T13:36:24.000Z</time>
      </trkpt>
      <trkpt lat="44.054955" lon="5.048554">
        <ele>153.657812</ele>
        <time>2017-06-07T13:36:32.000Z</time>
      </trkpt>
      <trkpt lat="44.054897" lon="5.048653">
        <ele>153.275874</ele>
        <time>2017-06-07T13:36:39.000Z</time>
      </trkpt>
      <trkpt lat="44.054820" lon="5.048761">
        <ele>152.820966</ele>
        <time>2017-06-07T13:36:44.000Z</time>
      </trkpt>
      <trkpt lat="44.054750" lon="5.048837">
        <ele>152.451537</ele>
        <time>2017-06-07T13:36:48.000Z</time>
      </trkpt>
      <trkpt lat="44.054740" lon="5.048972">
        <ele>152.045711</ele>
        <time>2017-06-07T13:36:52.000Z</time>
      </trkpt>
      <trkpt lat="44.054783" lon="5.049089">
        <ele>151.652756</ele>
        <time>2017-06-07T13:36:55.000Z</time>
      </trkpt>
      <trkpt lat="44.054832" lon="5.049205">
        <ele>151.250404</ele>
        <time>2017-06-07T13:36:58.000Z</time>
      </trkpt>
      <trkpt lat="44.054890" lon="5.049319">
        <ele>150.832738</ele>
        <time>2017-06-07T13:37:01.000Z</time>
      </trkpt>
      <trkpt lat="44.054924" lon="5.049444">
        <ele>150.433079</ele>
        <time>2017-06-07T13:37:04.000Z</time>
      </trkpt>
      <trkpt lat="44.054955" lon="5.049569">
        <ele>150.037666</ele>
        <time>2017-06-07T13:37:07.000Z</time>
      </trkpt>
      <trkpt lat="44.055010" lon="5.049673">
        <ele>149.651554</ele>
        <time>2017-06-07T13:37:11.000Z</time>
      </trkpt>
      <trkpt lat="44.055060" lon="5.049778">
        <ele>149.274907</ele>
        <time>2017-06-07T13:37:14.000Z</time>
      </trkpt>
      <trkpt lat="44.055120" lon="5.049929">
        <ele>148.758959</ele>
        <time>2017-06-07T13:37:17.000Z</time>
      </trkpt>
      <trkpt lat="44.055180" lon="5.050059">
        <ele>148.296965</ele>
        <time>2017-06-07T13:37:20.000Z</time>
      </trkpt>
      <trkpt lat="44.055145" lon="5.050200">
        <ele>147.850898</ele>
        <time>2017-06-07T13:37:27.000Z</time>
      </trkpt>
      <trkpt lat="44.055042" lon="5.050242">
        <ele>147.404311</ele>
        <time>2017-06-07T13:37:30.000Z</time>
      </trkpt>
      <trkpt lat="44.054947" lon="5.050257">
        <ele>147.006497</ele>
        <time>2017-06-07T13:37:32.000Z</time>
      </trkpt>
      <trkpt lat="44.054855" lon="5.050276">
        <ele>146.619509</ele>
        <time>2017-06-07T13:37:34.000Z</time>
      </trkpt>
      <trkpt lat="44.054745" lon="5.050280">
        <ele>146.462809</ele>
        <time>2017-06-07T13:37:36.000Z</time>
      </trkpt>
      <trkpt lat="44.054657" lon="5.050311">
        <ele>146.435483</ele>
        <time>2017-06-07T13:37:38.000Z</time>
      </trkpt>
      <trkpt lat="44.054535" lon="5.050352">
        <ele>146.397701</ele>
        <time>2017-06-07T13:37:41.000Z</time>
      </trkpt>
      <trkpt lat="44.054424" lon="5.050359">
        <ele>146.364252</ele>
        <time>2017-06-07T13:37:44.000Z</time>
      </trkpt>
      <trkpt lat="44.054306" lon="5.050395">
        <ele>146.327887</ele>
        <time>2017-06-07T13:37:47.000Z</time>
      </trkpt>
      <trkpt lat="44.054200" lon="5.050432">
        <ele>146.294988</ele>
        <time>2017-06-07T13:37:50.000Z</time>
      </trkpt>
      <trkpt lat="44.054140" lon="5.050527">
        <ele>146.267627</ele>
        <time>2017-06-07T13:37:55.000Z</time>
      </trkpt>
      <trkpt lat="44.054245" lon="5.050616">
        <ele>146.230616</ele>
        <time>2017-06-07T13:38:01.000Z</time>
      </trkpt>
      <trkpt lat="44.054333" lon="5.050703">
        <ele>146.198119</ele>
        <time>2017-06-07T13:38:04.000Z</time>
      </trkpt>
      <trkpt lat="44.054420" lon="5.050798">
        <ele>146.164828</ele>
        <time>2017-06-07T13:38:07.000Z</time>
      </trkpt>
      <trkpt lat="44.054512" lon="5.050887">
        <ele>146.131097</ele>
        <time>2017-06-07T13:38:10.000Z</time>
      </trkpt>
      <trkpt lat="44.054615" lon="5.050988">
        <ele>146.093165</ele>
        <time>2017-06-07T13:38:13.000Z</time>
      </trkpt>
      <trkpt lat="44.054726" lon="5.051090">
        <ele>146.053121</ele>
        <time>2017-06-07T13:38:16.000Z</time>
      </trkpt>
      <trkpt lat="44.054810" lon="5.051209">
        <ele>146.017035</ele>
        <time>2017-06-07T13:38:19.000Z</time>
      </trkpt>
      <trkpt lat="44.054890" lon="5.051310">
        <ele>145.984517</ele>
        <time>2017-06-07T13:38:22.000Z</time>
      </trkpt>
      <trkpt lat="44.054985" lon="5.051414">
        <ele>145.948129</ele>
        <time>2017-06-07T13:38:25.000Z</time>
      </trkpt>
      <trkpt lat="44.055070" lon="5.051507">
        <ele>145.620292</ele>
        <time>2017-06-07T13:38:28.000Z</time>
      </trkpt>
      <trkpt lat="44.055145" lon="5.051597">
        <ele>145.289700</ele>
        <time>2017-06-07T13:38:31.000Z</time>
      </trkpt>
      <trkpt lat="44.055214" lon="5.051682">
        <ele>144.982082</ele>
        <time>2017-06-07T13:38:34.000Z</time>
      </trkpt>
      <trkpt lat="44.055160" lon="5.051831">
        <ele>144.581762</ele>
        <time>2017-06-07T13:38:38.000Z</time>
      </trkpt>
      <trkpt lat="44.055088" lon="5.051920">
        <ele>144.260285</ele>
        <time>2017-06-07T13:38:41.000Z</time>
      </trkpt>
      <trkpt lat="44.054970" lon="5.051920">
        <ele>143.866398</ele>
        <time>2017-06-07T13:38:45.000Z</time>
      </trkpt>
      <trkpt lat="44.054886" lon="5.051823">
        <ele>143.502023</ele>
        <time>2017-06-07T13:38:48.000Z</time>
      </trkpt>
      <trkpt lat="44.054794" lon="5.051755">
        <ele>143.154286</ele>
        <time>2017-06-07T13:38:51.000Z</time>
      </trkpt>
      <trkpt lat="44.054707" lon="5.051681">
        <ele>142.813917</ele>
        <time>2017-06-07T13:38:54.000Z</time>
      </trkpt>
      <trkpt lat="44.054626" lon="5.051609">
        <ele>142.493075</ele>
        <time>2017-06-07T13:38:59.000Z</time>
      </trkpt>
      <trkpt lat="44.054733" lon="5.051652">
        <ele>142.121308</ele>
        <time>2017-06-07T13:39:26.000Z</time>
      </trkpt>
      <trkpt lat="44.054817" lon="5.051744">
        <ele>141.764473</ele>
        <time>2017-06-07T13:39:31.000Z</time>
      </trkpt>
      <trkpt lat="44.054900" lon="5.051820">
        <ele>141.432809</ele>
        <time>2017-06-07T13:39:36.000Z</time>
      </trkpt>
      <trkpt lat="44.054806" lon="5.051855">
        <ele>141.107994</ele>
        <time>2017-06-07T13:39:43.000Z</time>
      </trkpt>
      <trkpt lat="44.054714" lon="5.051776">
        <ele>140.747125</ele>
        <time>2017-06-07T13:39:47.000Z</time>
      </trkpt>
      <trkpt lat="44.054630" lon="5.051719">
        <ele>140.435165</ele>
        <time>2017-06-07T13:39:51.000Z</time>
      </trkpt>
      <trkpt lat="44.054530" lon="5.051751">
        <ele>140.092649</ele>
        <time>2017-06-07T13:39:57.000Z</time>
      </trkpt>
      <trkpt lat="44.054466" lon="5.051839">
        <ele>139.829877</ele>
        <time>2017-06-07T13:40:01.000Z</time>
      </trkpt>
      <trkpt lat="44.054394" lon="5.051973">
        <ele>139.529971</ele>
        <time>2017-06-07T13:40:05.000Z</time>
      </trkpt>
      <trkpt lat="44.054310" lon="5.052099">
        <ele>139.221904</ele>
        <time>2017-06-07T13:40:08.000Z</time>
      </trkpt>
      <trkpt lat="44.054234" lon="5.052226">
        <ele>138.925667</ele>
        <time>2017-06-07T13:40:11.000Z</time>
      </trkpt>
      <trkpt lat="44.054150" lon="5.052350">
        <ele>138.620218</ele>
        <time>2017-06-07T13:40:14.000Z</time>
      </trkpt>
      <trkpt lat="44.054073" lon="5.052461">
        <ele>138.343682</ele>
        <time>2017-06-07T13:40:17.000Z</time>
      </trkpt>
      <trkpt lat="44.054012" lon="5.052564">
        <ele>138.104441</ele>
        <time>2017-06-07T13:40:20.000Z</time>
      </trkpt>
      <trkpt lat="44.053947" lon="5.052670">
        <ele>137.854669</ele>
        <time>2017-06-07T13:40:24.000Z</time>
      </trkpt>
      <trkpt lat="44.053883" lon="5.052769">
        <ele>137.615980</ele>
        <time>2017-06-07T13:40:28.000Z</time>
      </trkpt>
      <trkpt lat="44.053810" lon="5.052872">
        <ele>137.356674</ele>
        <time>2017-06-07T13:40:32.000Z</time>
      </trkpt>
      <trkpt lat="44.053757" lon="5.052978">
        <ele>137.125206</ele>
        <time>2017-06-07T13:40:35.000Z</time>
      </trkpt>
      <trkpt lat="44.053700" lon="5.053089">
        <ele>136.880663</ele>
        <time>2017-06-07T13:40:38.000Z</time>
      </trkpt>
      <trkpt lat="44.053620" lon="5.053210">
        <ele>136.585947</ele>
        <time>2017-06-07T13:40:41.000Z</time>
      </trkpt>
      <trkpt lat="44.053524" lon="5.053343">
        <ele>136.248057</ele>
        <time>2017-06-07T13:40:44.000Z</time>
      </trkpt>
      <trkpt lat="44.053463" lon="5.053445">
        <ele>136.010196</ele>
        <time>2017-06-07T13:40:46.000Z</time>
      </trkpt>
      <trkpt lat="44.053402" lon="5.053539">
        <ele>135.783173</ele>
        <time>2017-06-07T13:40:48.000Z</time>
      </trkpt>
      <trkpt lat="44.053340" lon="5.053641">
        <ele>135.543708</ele>
        <time>2017-06-07T13:40:50.000Z</time>
      </trkpt>
      <trkpt lat="44.053276" lon="5.053742">
        <ele>135.375016</ele>
        <time>2017-06-07T13:40:52.000Z</time>
      </trkpt>
      <trkpt lat="44.053204" lon="5.053830">
        <ele>135.249929</ele>
        <time>2017-06-07T13:40:54.000Z</time>
      </trkpt>
      <trkpt lat="44.053140" lon="5.053933">
        <ele>135.122200</ele>
        <time>2017-06-07T13:40:56.000Z</time>
      </trkpt>
      <trkpt lat="44.053078" lon="5.054032">
        <ele>134.999017</ele>
        <time>2017-06-07T13:40:58.000Z</time>
      </trkpt>
      <trkpt lat="44.053013" lon="5.054133">
        <ele>134.871835</ele>
        <time>2017-06-07T13:41:00.000Z</time>
      </trkpt>
      <trkpt lat="44.052948" lon="5.054235">
        <ele>134.743952</ele>
        <time>2017-06-07T13:41:02.000Z</time>
      </trkpt>
      <trkpt lat="44.052868" lon="5.054330">
        <ele>134.606671</ele>
        <time>2017-06-07T13:41:04.000Z</time>
      </trkpt>
      <trkpt lat="44.052803" lon="5.054426">
        <ele>134.482943</ele>
        <time>2017-06-07T13:41:06.000Z</time>
      </trkpt>
      <trkpt lat="44.052723" lon="5.054489">
        <ele>134.362957</ele>
        <time>2017-06-07T13:41:08.000Z</time>
      </trkpt>
      <trkpt lat="44.052612" lon="5.054580">
        <ele>134.194793</ele>
        <time>2017-06-07T13:41:11.000Z</time>
      </trkpt>
      <trkpt lat="44.052513" lon="5.054667">
        <ele>134.041956</ele>
        <time>2017-06-07T13:41:14.000Z</time>
      </trkpt>
      <trkpt lat="44.052410" lon="5.054754">
        <ele>133.884679</ele>
        <time>2017-06-07T13:41:17.000Z</time>
      </trkpt>
      <trkpt lat="44.052338" lon="5.054832">
        <ele>133.765573</ele>
        <time>2017-06-07T13:41:19.000Z</time>
      </trkpt>
      <trkpt lat="44.052254" lon="5.054959">
        <ele>133.603661</ele>
        <time>2017-06-07T13:41:22.000Z</time>
      </trkpt>
      <trkpt lat="44.052177" lon="5.055078">
        <ele>133.453448</ele>
        <time>2017-06-07T13:41:25.000Z</time>
      </trkpt>
      <trkpt lat="44.052113" lon="5.055200">
        <ele>133.311755</ele>
        <time>2017-06-07T13:41:28.000Z</time>
      </trkpt>
      <trkpt lat="44.052060" lon="5.055320">
        <ele>133.179625</ele>
        <time>2017-06-07T13:41:31.000Z</time>
      </trkpt>
      <trkpt lat="44.052000" lon="5.055428">
        <ele>133.076523</ele>
        <time>2017-06-07T13:41:34.000Z</time>
      </trkpt>
      <trkpt lat="44.051937" lon="5.055542">
        <ele>133.002251</ele>
        <time>2017-06-07T13:41:37.000Z</time>
      </trkpt>
      <trkpt lat="44.051870" lon="5.055652">
        <ele>132.927780</ele>
        <time>2017-06-07T13:41:40.000Z</time>
      </trkpt>
      <trkpt lat="44.051804" lon="5.055769">
        <ele>132.850961</ele>
        <time>2017-06-07T13:41:43.000Z</time>
      </trkpt>
      <trkpt lat="44.051743" lon="5.055878">
        <ele>132.779611</ele>
        <time>2017-06-07T13:41:46.000Z</time>
      </trkpt>
      <trkpt lat="44.051674" lon="5.055988">
        <ele>132.704202</ele>
        <time>2017-06-07T13:41:49.000Z</time>
      </trkpt>
      <trkpt lat="44.051598" lon="5.056083">
        <ele>132.630784</ele>
        <time>2017-06-07T13:41:52.000Z</time>
      </trkpt>
      <trkpt lat="44.051517" lon="5.056185">
        <ele>132.552275</ele>
        <time>2017-06-07T13:41:55.000Z</time>
      </trkpt>
      <trkpt lat="44.051426" lon="5.056262">
        <ele>132.475737</ele>
        <time>2017-06-07T13:41:58.000Z</time>
      </trkpt>
      <trkpt lat="44.051342" lon="5.056327">
        <ele>132.406665</ele>
        <time>2017-06-07T13:42:01.000Z</time>
      </trkpt>
      <trkpt lat="44.051250" lon="5.056377">
        <ele>132.335687</ele>
        <time>2017-06-07T13:42:04.000Z</time>
      </trkpt>
      <trkpt lat="44.051147" lon="5.056413">
        <ele>132.259369</ele>
        <time>2017-06-07T13:42:08.000Z</time>
      </trkpt>
      <trkpt lat="44.051132" lon="5.056563">
        <ele>132.181150</ele>
        <time>2017-06-07T13:42:12.000Z</time>
      </trkpt>
      <trkpt lat="44.051113" lon="5.056694">
        <ele>132.112126</ele>
        <time>2017-06-07T13:42:15.000Z</time>
      </trkpt>
      <trkpt lat="44.051105" lon="5.056834">
        <ele>132.039589</ele>
        <time>2017-06-07T13:42:18.000Z</time>
      </trkpt>
      <trkpt lat="44.051090" lon="5.056971">
        <ele>131.968014</ele>
        <time>2017-06-07T13:42:21.000Z</time>
      </trkpt>
      <trkpt lat="44.051070" lon="5.057098">
        <ele>131.900864</ele>
        <time>2017-06-07T13:42:24.000Z</time>
      </trkpt>
      <trkpt lat="44.051125" lon="5.056973">
        <ele>131.825165</ele>
        <time>2017-06-07T13:42:39.000Z</time>
      </trkpt>
      <trkpt lat="44.051140" lon="5.056843">
        <ele>131.923798</ele>
        <time>2017-06-07T13:42:43.000Z</time>
      </trkpt>
      <trkpt lat="44.051147" lon="5.056693">
        <ele>132.071612</ele>
        <time>2017-06-07T13:42:47.000Z</time>
      </trkpt>
      <trkpt lat="44.051167" lon="5.056548">
        <ele>132.216800</ele>
        <time>2017-06-07T13:42:51.000Z</time>
      </trkpt>
      <trkpt lat="44.051210" lon="5.056399">
        <ele>132.374690</ele>
        <time>2017-06-07T13:42:55.000Z</time>
      </trkpt>
      <trkpt lat="44.051197" lon="5.056233">
        <ele>132.538892</ele>
        <time>2017-06-07T13:42:58.000Z</time>
      </trkpt>
      <trkpt lat="44.051212" lon="5.056054">
        <ele>132.716105</ele>
        <time>2017-06-07T13:43:01.000Z</time>
      </trkpt>
      <trkpt lat="44.051220" lon="5.055929">
        <ele>132.839510</ele>
        <time>2017-06-07T13:43:03.000Z</time>
      </trkpt>
      <trkpt lat="44.051228" lon="5.055754">
        <ele>133.011944</ele>
        <time>2017-06-07T13:43:06.000Z</time>
      </trkpt>
      <trkpt lat="44.051247" lon="5.055577">
        <ele>133.187928</ele>
        <time>2017-06-07T13:43:09.000Z</time>
      </trkpt>
      <trkpt lat="44.051266" lon="5.055398">
        <ele>133.365857</ele>
        <time>2017-06-07T13:43:12.000Z</time>
      </trkpt>
      <trkpt lat="44.051292" lon="5.055219">
        <ele>133.545436</ele>
        <time>2017-06-07T13:43:15.000Z</time>
      </trkpt>
      <trkpt lat="44.051310" lon="5.055090">
        <ele>133.674656</ele>
        <time>2017-06-07T13:43:17.000Z</time>
      </trkpt>
      <trkpt lat="44.051342" lon="5.054915">
        <ele>133.852225</ele>
        <time>2017-06-07T13:43:20.000Z</time>
      </trkpt>
      <trkpt lat="44.051380" lon="5.054734">
        <ele>134.037649</ele>
        <time>2017-06-07T13:43:23.000Z</time>
      </trkpt>
      <trkpt lat="44.051403" lon="5.054613">
        <ele>134.160725</ele>
        <time>2017-06-07T13:43:25.000Z</time>
      </trkpt>
      <trkpt lat="44.051434" lon="5.054447">
        <ele>134.219976</ele>
        <time>2017-06-07T13:43:28.000Z</time>
      </trkpt>
      <trkpt lat="44.051464" lon="5.054299">
        <ele>134.064435</ele>
        <time>2017-06-07T13:43:31.000Z</time>
      </trkpt>
      <trkpt lat="44.051502" lon="5.054163">
        <ele>133.916842</ele>
        <time>2017-06-07T13:43:34.000Z</time>
      </trkpt>
      <trkpt lat="44.051570" lon="5.054054">
        <ele>133.770848</ele>
        <time>2017-06-07T13:43:37.000Z</time>
      </trkpt>
      <trkpt lat="44.051575" lon="5.053909">
        <ele>133.624013</ele>
        <time>2017-06-07T13:43:40.000Z</time>
      </trkpt>
      <trkpt lat="44.051510" lon="5.053804">
        <ele>133.483841</ele>
        <time>2017-06-07T13:43:43.000Z</time>
      </trkpt>
      <trkpt lat="44.051407" lon="5.053790">
        <ele>133.338192</ele>
        <time>2017-06-07T13:43:46.000Z</time>
      </trkpt>
      <trkpt lat="44.051296" lon="5.053886">
        <ele>133.154255</ele>
        <time>2017-06-07T13:43:49.000Z</time>
      </trkpt>
      <trkpt lat="44.051212" lon="5.054008">
        <ele>132.983364</ele>
        <time>2017-06-07T13:43:52.000Z</time>
      </trkpt>
      <trkpt lat="44.051125" lon="5.054065">
        <ele>132.848028</ele>
        <time>2017-06-07T13:43:56.000Z</time>
      </trkpt>
      <trkpt lat="44.051037" lon="5.054146">
        <ele>132.699532</ele>
        <time>2017-06-07T13:44:02.000Z</time>
      </trkpt>
      <trkpt lat="44.050987" lon="5.054252">
        <ele>132.571283</ele>
        <time>2017-06-07T13:44:36.000Z</time>
      </trkpt>
      <trkpt lat="44.051070" lon="5.054182">
        <ele>132.434688</ele>
        <time>2017-06-07T13:44:40.000Z</time>
      </trkpt>
      <trkpt lat="44.051136" lon="5.054088">
        <ele>132.301766</ele>
        <time>2017-06-07T13:44:43.000Z</time>
      </trkpt>
      <trkpt lat="44.051212" lon="5.053995">
        <ele>132.159326</ele>
        <time>2017-06-07T13:44:46.000Z</time>
      </trkpt>
      <trkpt lat="44.051258" lon="5.053868">
        <ele>132.015475</ele>
        <time>2017-06-07T13:44:49.000Z</time>
      </trkpt>
      <trkpt lat="44.051346" lon="5.053762">
        <ele>131.851663</ele>
        <time>2017-06-07T13:44:52.000Z</time>
      </trkpt>
      <trkpt lat="44.051430" lon="5.053670">
        <ele>131.743387</ele>
        <time>2017-06-07T13:44:55.000Z</time>
      </trkpt>
      <trkpt lat="44.051495" lon="5.053563">
        <ele>131.741011</ele>
        <time>2017-06-07T13:44:58.000Z</time>
      </trkpt>
      <trkpt lat="44.051548" lon="5.053448">
        <ele>131.738693</ele>
        <time>2017-06-07T13:45:01.000Z</time>
      </trkpt>
      <trkpt lat="44.051600" lon="5.053331">
        <ele>131.736360</ele>
        <time>2017-06-07T13:45:04.000Z</time>
      </trkpt>
      <trkpt lat="44.051640" lon="5.053211">
        <ele>131.734116</ele>
        <time>2017-06-07T13:45:08.000Z</time>
      </trkpt>
      <trkpt lat="44.051550" lon="5.053143">
        <ele>131.731699</ele>
        <time>2017-06-07T13:45:14.000Z</time>
      </trkpt>
      <trkpt lat="44.051460" lon="5.053179">
        <ele>131.729489</ele>
        <time>2017-06-07T13:45:18.000Z</time>
      </trkpt>
      <trkpt lat="44.051350" lon="5.053209">
        <ele>131.726843</ele>
        <time>2017-06-07T13:45:22.000Z</time>
      </trkpt>
      <trkpt lat="44.051224" lon="5.053192">
        <ele>131.723855</ele>
        <time>2017-06-07T13:45:26.000Z</time>
      </trkpt>
      <trkpt lat="44.051094" lon="5.053205">
        <ele>131.720779</ele>
        <time>2017-06-07T13:45:29.000Z</time>
      </trkpt>
      <trkpt lat="44.050964" lon="5.053237">
        <ele>131.717663</ele>
        <time>2017-06-07T13:45:32.000Z</time>
      </trkpt>
      <trkpt lat="44.050840" lon="5.053264">
        <ele>131.714701</ele>
        <time>2017-06-07T13:45:35.000Z</time>
      </trkpt>
      <trkpt lat="44.050743" lon="5.053271">
        <ele>131.712408</ele>
        <time>2017-06-07T13:45:37.000Z</time>
      </trkpt>
      <trkpt lat="44.050648" lon="5.053279">
        <ele>131.710162</ele>
        <time>2017-06-07T13:45:39.000Z</time>
      </trkpt>
      <trkpt lat="44.050550" lon="5.053287">
        <ele>131.707845</ele>
        <time>2017-06-07T13:45:41.000Z</time>
      </trkpt>
      <trkpt lat="44.050453" lon="5.053290">
        <ele>131.705555</ele>
        <time>2017-06-07T13:45:43.000Z</time>
      </trkpt>
      <trkpt lat="44.050354" lon="5.053288">
        <ele>131.703218</ele>
        <time>2017-06-07T13:45:45.000Z</time>
      </trkpt>
      <trkpt lat="44.050243" lon="5.053281">
        <ele>131.685221</ele>
        <time>2017-06-07T13:45:47.000Z</time>
      </trkpt>
      <trkpt lat="44.050144" lon="5.053274">
        <ele>131.648922</ele>
        <time>2017-06-07T13:45:49.000Z</time>
      </trkpt>
      <trkpt lat="44.050040" lon="5.053255">
        <ele>131.610512</ele>
        <time>2017-06-07T13:45:51.000Z</time>
      </trkpt>
      <trkpt lat="44.049950" lon="5.053249">
        <ele>131.577518</ele>
        <time>2017-06-07T13:45:53.000Z</time>
      </trkpt>
      <trkpt lat="44.049850" lon="5.053254">
        <ele>131.540876</ele>
        <time>2017-06-07T13:45:55.000Z</time>
      </trkpt>
      <trkpt lat="44.049760" lon="5.053249">
        <ele>131.507893</ele>
        <time>2017-06-07T13:45:57.000Z</time>
      </trkpt>
      <trkpt lat="44.049664" lon="5.053248">
        <ele>131.472738</ele>
        <time>2017-06-07T13:45:59.000Z</time>
      </trkpt>
      <trkpt lat="44.049564" lon="5.053245">
        <ele>131.436112</ele>
        <time>2017-06-07T13:46:01.000Z</time>
      </trkpt>
      <trkpt lat="44.049460" lon="5.053244">
        <ele>131.398028</ele>
        <time>2017-06-07T13:46:03.000Z</time>
      </trkpt>
      <trkpt lat="44.049360" lon="5.053246">
        <ele>131.361405</ele>
        <time>2017-06-07T13:46:05.000Z</time>
      </trkpt>
      <trkpt lat="44.049248" lon="5.053253">
        <ele>131.320352</ele>
        <time>2017-06-07T13:46:07.000Z</time>
      </trkpt>
      <trkpt lat="44.049150" lon="5.053273">
        <ele>131.284082</ele>
        <time>2017-06-07T13:46:09.000Z</time>
      </trkpt>
      <trkpt lat="44.049050" lon="5.053280">
        <ele>131.247417</ele>
        <time>2017-06-07T13:46:11.000Z</time>
      </trkpt>
      <trkpt lat="44.048950" lon="5.053298">
        <ele>131.210493</ele>
        <time>2017-06-07T13:46:13.000Z</time>
      </trkpt>
      <trkpt lat="44.048850" lon="5.053306">
        <ele>131.173815</ele>
        <time>2017-06-07T13:46:15.000Z</time>
      </trkpt>
      <trkpt lat="44.048750" lon="5.053320">
        <ele>131.137011</ele>
        <time>2017-06-07T13:46:17.000Z</time>
      </trkpt>
      <trkpt lat="44.048660" lon="5.053329">
        <ele>131.103970</ele>
        <time>2017-06-07T13:46:19.000Z</time>
      </trkpt>
      <trkpt lat="44.048560" lon="5.053338">
        <ele>131.067275</ele>
        <time>2017-06-07T13:46:21.000Z</time>
      </trkpt>
      <trkpt lat="44.048466" lon="5.053353">
        <ele>131.043739</ele>
        <time>2017-06-07T13:46:23.000Z</time>
      </trkpt>
      <trkpt lat="44.048367" lon="5.053354">
        <ele>131.046240</ele>
        <time>2017-06-07T13:46:25.000Z</time>
      </trkpt>
      <trkpt lat="44.048270" lon="5.053340">
        <ele>131.048704</ele>
        <time>2017-06-07T13:46:27.000Z</time>
      </trkpt>
      <trkpt lat="44.048170" lon="5.053312">
        <ele>131.051281</ele>
        <time>2017-06-07T13:46:29.000Z</time>
      </trkpt>
      <trkpt lat="44.048070" lon="5.053256">
        <ele>131.054004</ele>
        <time>2017-06-07T13:46:31.000Z</time>
      </trkpt>
      <trkpt lat="44.047970" lon="5.053196">
        <ele>131.056756</ele>
        <time>2017-06-07T13:46:33.000Z</time>
      </trkpt>
      <trkpt lat="44.047863" lon="5.053144">
        <ele>131.059619</ele>
        <time>2017-06-07T13:46:35.000Z</time>
      </trkpt>
      <trkpt lat="44.047764" lon="5.053093">
        <ele>131.062286</ele>
        <time>2017-06-07T13:46:37.000Z</time>
      </trkpt>
      <trkpt lat="44.047672" lon="5.053046">
        <ele>131.064762</ele>
        <time>2017-06-07T13:46:39.000Z</time>
      </trkpt>
      <trkpt lat="44.047580" lon="5.053004">
        <ele>131.067208</ele>
        <time>2017-06-07T13:46:41.000Z</time>
      </trkpt>
      <trkpt lat="44.047480" lon="5.052996">
        <ele>131.069739</ele>
        <time>2017-06-07T13:46:43.000Z</time>
      </trkpt>
      <trkpt lat="44.047386" lon="5.053005">
        <ele>131.072119</ele>
        <time>2017-06-07T13:46:45.000Z</time>
      </trkpt>
      <trkpt lat="44.047290" lon="5.053038">
        <ele>131.074618</ele>
        <time>2017-06-07T13:46:47.000Z</time>
      </trkpt>
      <trkpt lat="44.047200" lon="5.053091">
        <ele>131.077087</ele>
        <time>2017-06-07T13:46:49.000Z</time>
      </trkpt>
      <trkpt lat="44.047108" lon="5.053145">
        <ele>131.079609</ele>
        <time>2017-06-07T13:46:51.000Z</time>
      </trkpt>
      <trkpt lat="44.047016" lon="5.053195">
        <ele>131.082105</ele>
        <time>2017-06-07T13:46:53.000Z</time>
      </trkpt>
      <trkpt lat="44.046917" lon="5.053239">
        <ele>131.084730</ele>
        <time>2017-06-07T13:46:55.000Z</time>
      </trkpt>
      <trkpt lat="44.046830" lon="5.053270">
        <ele>131.086999</ele>
        <time>2017-06-07T13:46:57.000Z</time>
      </trkpt>
      <trkpt lat="44.046734" lon="5.053288">
        <ele>131.129489</ele>
        <time>2017-06-07T13:46:59.000Z</time>
      </trkpt>
      <trkpt lat="44.046642" lon="5.053299">
        <ele>131.226773</ele>
        <time>2017-06-07T13:47:01.000Z</time>
      </trkpt>
      <trkpt lat="44.046550" lon="5.053302">
        <ele>131.323727</ele>
        <time>2017-06-07T13:47:03.000Z</time>
      </trkpt>
      <trkpt lat="44.046460" lon="5.053294">
        <ele>131.418740</ele>
        <time>2017-06-07T13:47:05.000Z</time>
      </trkpt>
      <trkpt lat="44.046368" lon="5.053284">
        <ele>131.515962</ele>
        <time>2017-06-07T13:47:07.000Z</time>
      </trkpt>
      <trkpt lat="44.046272" lon="5.053268">
        <ele>131.617826</ele>
        <time>2017-06-07T13:47:09.000Z</time>
      </trkpt>
      <trkpt lat="44.046173" lon="5.053243">
        <ele>131.723833</ele>
        <time>2017-06-07T13:47:11.000Z</time>
      </trkpt>
      <trkpt lat="44.046078" lon="5.053241">
        <ele>131.823932</ele>
        <time>2017-06-07T13:47:13.000Z</time>
      </trkpt>
      <trkpt lat="44.045980" lon="5.053232">
        <ele>131.927405</ele>
        <time>2017-06-07T13:47:15.000Z</time>
      </trkpt>
      <trkpt lat="44.045876" lon="5.053229">
        <ele>132.036998</ele>
        <time>2017-06-07T13:47:17.000Z</time>
      </trkpt>
      <trkpt lat="44.045770" lon="5.053238">
        <ele>132.148882</ele>
        <time>2017-06-07T13:47:19.000Z</time>
      </trkpt>
      <trkpt lat="44.045666" lon="5.053252">
        <ele>132.258963</ele>
        <time>2017-06-07T13:47:21.000Z</time>
      </trkpt>
      <trkpt lat="44.045567" lon="5.053261">
        <ele>132.363488</ele>
        <time>2017-06-07T13:47:23.000Z</time>
      </trkpt>
      <trkpt lat="44.045475" lon="5.053289">
        <ele>132.462707</ele>
        <time>2017-06-07T13:47:25.000Z</time>
      </trkpt>
      <trkpt lat="44.045372" lon="5.053322">
        <ele>132.574063</ele>
        <time>2017-06-07T13:47:27.000Z</time>
      </trkpt>
      <trkpt lat="44.045265" lon="5.053341">
        <ele>132.687708</ele>
        <time>2017-06-07T13:47:29.000Z</time>
      </trkpt>
      <trkpt lat="44.045166" lon="5.053361">
        <ele>132.793104</ele>
        <time>2017-06-07T13:47:31.000Z</time>
      </trkpt>
      <trkpt lat="44.045063" lon="5.053384">
        <ele>132.903009</ele>
        <time>2017-06-07T13:47:33.000Z</time>
      </trkpt>
      <trkpt lat="44.044975" lon="5.053413">
        <ele>132.994851</ele>
        <time>2017-06-07T13:47:35.000Z</time>
      </trkpt>
      <trkpt lat="44.044884" lon="5.053435">
        <ele>133.069655</ele>
        <time>2017-06-07T13:47:37.000Z</time>
      </trkpt>
      <trkpt lat="44.044758" lon="5.053488">
        <ele>133.176263</ele>
        <time>2017-06-07T13:47:40.000Z</time>
      </trkpt>
      <trkpt lat="44.044666" lon="5.053515">
        <ele>133.252413</ele>
        <time>2017-06-07T13:47:42.000Z</time>
      </trkpt>
      <trkpt lat="44.044575" lon="5.053544">
        <ele>133.328022</ele>
        <time>2017-06-07T13:47:44.000Z</time>
      </trkpt>
      <trkpt lat="44.044437" lon="5.053579">
        <ele>133.441629</ele>
        <time>2017-06-07T13:47:47.000Z</time>
      </trkpt>
      <trkpt lat="44.044346" lon="5.053609">
        <ele>133.517370</ele>
        <time>2017-06-07T13:47:49.000Z</time>
      </trkpt>
      <trkpt lat="44.044243" lon="5.053635">
        <ele>133.602150</ele>
        <time>2017-06-07T13:47:51.000Z</time>
      </trkpt>
      <trkpt lat="44.044147" lon="5.053667">
        <ele>133.682100</ele>
        <time>2017-06-07T13:47:53.000Z</time>
      </trkpt>
      <trkpt lat="44.044052" lon="5.053699">
        <ele>133.761263</ele>
        <time>2017-06-07T13:47:55.000Z</time>
      </trkpt>
      <trkpt lat="44.043920" lon="5.053722">
        <ele>133.869003</ele>
        <time>2017-06-07T13:47:58.000Z</time>
      </trkpt>
      <trkpt lat="44.043797" lon="5.053770">
        <ele>133.972465</ele>
        <time>2017-06-07T13:48:01.000Z</time>
      </trkpt>
      <trkpt lat="44.043710" lon="5.053790">
        <ele>134.043881</ele>
        <time>2017-06-07T13:48:03.000Z</time>
      </trkpt>
      <trkpt lat="44.043617" lon="5.053810">
        <ele>134.120095</ele>
        <time>2017-06-07T13:48:05.000Z</time>
      </trkpt>
      <trkpt lat="44.043520" lon="5.053837">
        <ele>134.200211</ele>
        <time>2017-06-07T13:48:07.000Z</time>
      </trkpt>
      <trkpt lat="44.043427" lon="5.053867">
        <ele>134.277529</ele>
        <time>2017-06-07T13:48:09.000Z</time>
      </trkpt>
      <trkpt lat="44.043327" lon="5.053901">
        <ele>134.360902</ele>
        <time>2017-06-07T13:48:11.000Z</time>
      </trkpt>
      <trkpt lat="44.043236" lon="5.053946">
        <ele>134.439119</ele>
        <time>2017-06-07T13:48:13.000Z</time>
      </trkpt>
      <trkpt lat="44.043148" lon="5.053994">
        <ele>134.541367</ele>
        <time>2017-06-07T13:48:15.000Z</time>
      </trkpt>
      <trkpt lat="44.043056" lon="5.054046">
        <ele>134.649149</ele>
        <time>2017-06-07T13:48:17.000Z</time>
      </trkpt>
      <trkpt lat="44.042970" lon="5.054097">
        <ele>134.750619</ele>
        <time>2017-06-07T13:48:19.000Z</time>
      </trkpt>
      <trkpt lat="44.042880" lon="5.054153">
        <ele>134.857628</ele>
        <time>2017-06-07T13:48:21.000Z</time>
      </trkpt>
      <trkpt lat="44.042790" lon="5.054200">
        <ele>134.961968</ele>
        <time>2017-06-07T13:48:23.000Z</time>
      </trkpt>
      <trkpt lat="44.042694" lon="5.054253">
        <ele>135.074070</ele>
        <time>2017-06-07T13:48:25.000Z</time>
      </trkpt>
      <trkpt lat="44.042603" lon="5.054305">
        <ele>135.180847</ele>
        <time>2017-06-07T13:48:27.000Z</time>
      </trkpt>
      <trkpt lat="44.042510" lon="5.054353">
        <ele>135.288510</ele>
        <time>2017-06-07T13:48:29.000Z</time>
      </trkpt>
      <trkpt lat="44.042390" lon="5.054422">
        <ele>135.429442</ele>
        <time>2017-06-07T13:48:32.000Z</time>
      </trkpt>
      <trkpt lat="44.042260" lon="5.054497">
        <ele>135.582194</ele>
        <time>2017-06-07T13:48:35.000Z</time>
      </trkpt>
      <trkpt lat="44.042175" lon="5.054543">
        <ele>135.681186</ele>
        <time>2017-06-07T13:48:37.000Z</time>
      </trkpt>
      <trkpt lat="44.042010" lon="5.054632">
        <ele>135.873264</ele>
        <time>2017-06-07T13:48:41.000Z</time>
      </trkpt>
      <trkpt lat="44.041890" lon="5.054710">
        <ele>136.017025</ele>
        <time>2017-06-07T13:48:44.000Z</time>
      </trkpt>
      <trkpt lat="44.041800" lon="5.054765">
        <ele>136.123719</ele>
        <time>2017-06-07T13:48:46.000Z</time>
      </trkpt>
      <trkpt lat="44.041706" lon="5.054817">
        <ele>136.233515</ele>
        <time>2017-06-07T13:48:48.000Z</time>
      </trkpt>
      <trkpt lat="44.041620" lon="5.054874">
        <ele>136.336910</ele>
        <time>2017-06-07T13:48:50.000Z</time>
      </trkpt>
      <trkpt lat="44.041523" lon="5.054926">
        <ele>136.408934</ele>
        <time>2017-06-07T13:48:52.000Z</time>
      </trkpt>
      <trkpt lat="44.041430" lon="5.054973">
        <ele>136.439981</ele>
        <time>2017-06-07T13:48:54.000Z</time>
      </trkpt>
      <trkpt lat="44.041332" lon="5.055019">
        <ele>136.472434</ele>
        <time>2017-06-07T13:48:56.000Z</time>
      </trkpt>
      <trkpt lat="44.041230" lon="5.055080">
        <ele>136.507271</ele>
        <time>2017-06-07T13:48:58.000Z</time>
      </trkpt>
      <trkpt lat="44.041140" lon="5.055134">
        <ele>136.538026</ele>
        <time>2017-06-07T13:49:00.000Z</time>
      </trkpt>
      <trkpt lat="44.041058" lon="5.055182">
        <ele>136.565940</ele>
        <time>2017-06-07T13:49:02.000Z</time>
      </trkpt>
      <trkpt lat="44.040966" lon="5.055224">
        <ele>136.596322</ele>
        <time>2017-06-07T13:49:04.000Z</time>
      </trkpt>
      <trkpt lat="44.040870" lon="5.055284">
        <ele>136.629345</ele>
        <time>2017-06-07T13:49:06.000Z</time>
      </trkpt>
      <trkpt lat="44.040780" lon="5.055334">
        <ele>136.659754</ele>
        <time>2017-06-07T13:49:08.000Z</time>
      </trkpt>
      <trkpt lat="44.040680" lon="5.055391">
        <ele>136.693663</ele>
        <time>2017-06-07T13:49:10.000Z</time>
      </trkpt>
      <trkpt lat="44.040585" lon="5.055438">
        <ele>136.725301</ele>
        <time>2017-06-07T13:49:12.000Z</time>
      </trkpt>
      <trkpt lat="44.040490" lon="5.055489">
        <ele>136.757252</ele>
        <time>2017-06-07T13:49:14.000Z</time>
      </trkpt>
      <trkpt lat="44.040405" lon="5.055536">
        <ele>136.785953</ele>
        <time>2017-06-07T13:49:16.000Z</time>
      </trkpt>
      <trkpt lat="44.040310" lon="5.055581">
        <ele>136.817442</ele>
        <time>2017-06-07T13:49:18.000Z</time>
      </trkpt>
      <trkpt lat="44.040220" lon="5.055623">
        <ele>136.847229</ele>
        <time>2017-06-07T13:49:20.000Z</time>
      </trkpt>
      <trkpt lat="44.040123" lon="5.055665">
        <ele>136.879105</ele>
        <time>2017-06-07T13:49:22.000Z</time>
      </trkpt>
      <trkpt lat="44.040030" lon="5.055706">
        <ele>136.909716</ele>
        <time>2017-06-07T13:49:24.000Z</time>
      </trkpt>
      <trkpt lat="44.039932" lon="5.055744">
        <ele>136.941639</ele>
        <time>2017-06-07T13:49:26.000Z</time>
      </trkpt>
      <trkpt lat="44.039833" lon="5.055776">
        <ele>136.982718</ele>
        <time>2017-06-07T13:49:28.000Z</time>
      </trkpt>
      <trkpt lat="44.039734" lon="5.055801">
        <ele>137.031536</ele>
        <time>2017-06-07T13:49:30.000Z</time>
      </trkpt>
      <trkpt lat="44.039635" lon="5.055831">
        <ele>137.080696</ele>
        <time>2017-06-07T13:49:32.000Z</time>
      </trkpt>
      <trkpt lat="44.039530" lon="5.055863">
        <ele>137.132849</ele>
        <time>2017-06-07T13:49:34.000Z</time>
      </trkpt>
      <trkpt lat="44.039430" lon="5.055896">
        <ele>137.182714</ele>
        <time>2017-06-07T13:49:36.000Z</time>
      </trkpt>
      <trkpt lat="44.039333" lon="5.055927">
        <ele>137.231003</ele>
        <time>2017-06-07T13:49:38.000Z</time>
      </trkpt>
      <trkpt lat="44.039234" lon="5.055950">
        <ele>137.279701</ele>
        <time>2017-06-07T13:49:40.000Z</time>
      </trkpt>
      <trkpt lat="44.039140" lon="5.055964">
        <ele>137.325569</ele>
        <time>2017-06-07T13:49:42.000Z</time>
      </trkpt>
      <trkpt lat="44.039050" lon="5.055996">
        <ele>137.370640</ele>
        <time>2017-06-07T13:49:44.000Z</time>
      </trkpt>
      <trkpt lat="44.038918" lon="5.056043">
        <ele>137.436749</ele>
        <time>2017-06-07T13:49:47.000Z</time>
      </trkpt>
      <trkpt lat="44.038826" lon="5.056067">
        <ele>137.482164</ele>
        <time>2017-06-07T13:49:49.000Z</time>
      </trkpt>
      <trkpt lat="44.038734" lon="5.056092">
        <ele>137.527645</ele>
        <time>2017-06-07T13:49:51.000Z</time>
      </trkpt>
      <trkpt lat="44.038643" lon="5.056122">
        <ele>137.573020</ele>
        <time>2017-06-07T13:49:53.000Z</time>
      </trkpt>
      <trkpt lat="44.038548" lon="5.056150">
        <ele>137.620135</ele>
        <time>2017-06-07T13:49:55.000Z</time>
      </trkpt>
      <trkpt lat="44.038452" lon="5.056181">
        <ele>137.667952</ele>
        <time>2017-06-07T13:49:57.000Z</time>
      </trkpt>
      <trkpt lat="44.038357" lon="5.056205">
        <ele>137.714798</ele>
        <time>2017-06-07T13:49:59.000Z</time>
      </trkpt>
      <trkpt lat="44.038258" lon="5.056235">
        <ele>137.763958</ele>
        <time>2017-06-07T13:50:01.000Z</time>
      </trkpt>
      <trkpt lat="44.038155" lon="5.056265">
        <ele>137.815016</ele>
        <time>2017-06-07T13:50:03.000Z</time>
      </trkpt>
      <trkpt lat="44.038067" lon="5.056295">
        <ele>137.848598</ele>
        <time>2017-06-07T13:50:05.000Z</time>
      </trkpt>
      <trkpt lat="44.037968" lon="5.056321">
        <ele>137.880338</ele>
        <time>2017-06-07T13:50:07.000Z</time>
      </trkpt>
      <trkpt lat="44.037872" lon="5.056335">
        <ele>137.910747</ele>
        <time>2017-06-07T13:50:09.000Z</time>
      </trkpt>
      <trkpt lat="44.037780" lon="5.056353">
        <ele>137.940016</ele>
        <time>2017-06-07T13:50:11.000Z</time>
      </trkpt>
      <trkpt lat="44.037690" lon="5.056374">
        <ele>137.968765</ele>
        <time>2017-06-07T13:50:13.000Z</time>
      </trkpt>
      <trkpt lat="44.037598" lon="5.056412">
        <ele>137.999000</ele>
        <time>2017-06-07T13:50:15.000Z</time>
      </trkpt>
      <trkpt lat="44.037514" lon="5.056454">
        <ele>138.027120</ele>
        <time>2017-06-07T13:50:17.000Z</time>
      </trkpt>
      <trkpt lat="44.037415" lon="5.056497">
        <ele>138.059794</ele>
        <time>2017-06-07T13:50:19.000Z</time>
      </trkpt>
      <trkpt lat="44.037320" lon="5.056548">
        <ele>138.091874</ele>
        <time>2017-06-07T13:50:21.000Z</time>
      </trkpt>
      <trkpt lat="44.037220" lon="5.056596">
        <ele>138.125201</ele>
        <time>2017-06-07T13:50:23.000Z</time>
      </trkpt>
      <trkpt lat="44.037120" lon="5.056639">
        <ele>138.158175</ele>
        <time>2017-06-07T13:50:25.000Z</time>
      </trkpt>
      <trkpt lat="44.037020" lon="5.056685">
        <ele>138.191357</ele>
        <time>2017-06-07T13:50:27.000Z</time>
      </trkpt>
      <trkpt lat="44.036922" lon="5.056724">
        <ele>138.223469</ele>
        <time>2017-06-07T13:50:29.000Z</time>
      </trkpt>
      <trkpt lat="44.036823" lon="5.056765">
        <ele>138.256011</ele>
        <time>2017-06-07T13:50:31.000Z</time>
      </trkpt>
      <trkpt lat="44.036730" lon="5.056809">
        <ele>138.286957</ele>
        <time>2017-06-07T13:50:33.000Z</time>
      </trkpt>
      <trkpt lat="44.036636" lon="5.056849">
        <ele>138.317925</ele>
        <time>2017-06-07T13:50:35.000Z</time>
      </trkpt>
      <trkpt lat="44.036545" lon="5.056879">
        <ele>138.347388</ele>
        <time>2017-06-07T13:50:37.000Z</time>
      </trkpt>
      <trkpt lat="44.036453" lon="5.056919">
        <ele>138.377754</ele>
        <time>2017-06-07T13:50:39.000Z</time>
      </trkpt>
      <trkpt lat="44.036358" lon="5.056974">
        <ele>138.428334</ele>
        <time>2017-06-07T13:50:41.000Z</time>
      </trkpt>
      <trkpt lat="44.036260" lon="5.057024">
        <ele>138.503437</ele>
        <time>2017-06-07T13:50:43.000Z</time>
      </trkpt>
      <trkpt lat="44.036163" lon="5.057074">
        <ele>138.577864</ele>
        <time>2017-06-07T13:50:45.000Z</time>
      </trkpt>
      <trkpt lat="44.036068" lon="5.057124">
        <ele>138.650945</ele>
        <time>2017-06-07T13:50:47.000Z</time>
      </trkpt>
      <trkpt lat="44.035976" lon="5.057170">
        <ele>138.721284</ele>
        <time>2017-06-07T13:50:49.000Z</time>
      </trkpt>
      <trkpt lat="44.035890" lon="5.057219">
        <ele>138.788149</ele>
        <time>2017-06-07T13:50:51.000Z</time>
      </trkpt>
      <trkpt lat="44.035793" lon="5.057272">
        <ele>138.863130</ele>
        <time>2017-06-07T13:50:53.000Z</time>
      </trkpt>
      <trkpt lat="44.035698" lon="5.057323">
        <ele>138.936395</ele>
        <time>2017-06-07T13:50:55.000Z</time>
      </trkpt>
      <trkpt lat="44.035603" lon="5.057366">
        <ele>139.008274</ele>
        <time>2017-06-07T13:50:57.000Z</time>
      </trkpt>
      <trkpt lat="44.035510" lon="5.057414">
        <ele>139.079644</ele>
        <time>2017-06-07T13:50:59.000Z</time>
      </trkpt>
      <trkpt lat="44.035408" lon="5.057465">
        <ele>139.157628</ele>
        <time>2017-06-07T13:51:01.000Z</time>
      </trkpt>
      <trkpt lat="44.035310" lon="5.057515">
        <ele>139.232731</ele>
        <time>2017-06-07T13:51:03.000Z</time>
      </trkpt>
      <trkpt lat="44.035213" lon="5.057560">
        <ele>139.306300</ele>
        <time>2017-06-07T13:51:05.000Z</time>
      </trkpt>
      <trkpt lat="44.035120" lon="5.057609">
        <ele>139.377852</ele>
        <time>2017-06-07T13:51:07.000Z</time>
      </trkpt>
      <trkpt lat="44.035030" lon="5.057661">
        <ele>139.447970</ele>
        <time>2017-06-07T13:51:09.000Z</time>
      </trkpt>
      <trkpt lat="44.034946" lon="5.057714">
        <ele>139.514333</ele>
        <time>2017-06-07T13:51:11.000Z</time>
      </trkpt>
      <trkpt lat="44.034855" lon="5.057765">
        <ele>139.584921</ele>
        <time>2017-06-07T13:51:13.000Z</time>
      </trkpt>
      <trkpt lat="44.034770" lon="5.057814">
        <ele>139.651121</ele>
        <time>2017-06-07T13:51:15.000Z</time>
      </trkpt>
      <trkpt lat="44.034680" lon="5.057857">
        <ele>139.739241</ele>
        <time>2017-06-07T13:51:17.000Z</time>
      </trkpt>
      <trkpt lat="44.034588" lon="5.057911">
        <ele>139.859004</ele>
        <time>2017-06-07T13:51:19.000Z</time>
      </trkpt>
      <trkpt lat="44.034500" lon="5.057977">
        <ele>139.978912</ele>
        <time>2017-06-07T13:51:21.000Z</time>
      </trkpt>
      <trkpt lat="44.034410" lon="5.058041">
        <ele>140.100143</ele>
        <time>2017-06-07T13:51:23.000Z</time>
      </trkpt>
      <trkpt lat="44.034320" lon="5.058099">
        <ele>140.219107</ele>
        <time>2017-06-07T13:51:25.000Z</time>
      </trkpt>
      <trkpt lat="44.034233" lon="5.058151">
        <ele>140.332677</ele>
        <time>2017-06-07T13:51:27.000Z</time>
      </trkpt>
      <trkpt lat="44.034150" lon="5.058206">
        <ele>140.442943</ele>
        <time>2017-06-07T13:51:29.000Z</time>
      </trkpt>
      <trkpt lat="44.034030" lon="5.058252">
        <ele>140.592232</ele>
        <time>2017-06-07T13:51:32.000Z</time>
      </trkpt>
      <trkpt lat="44.033905" lon="5.058261">
        <ele>140.742352</ele>
        <time>2017-06-07T13:51:35.000Z</time>
      </trkpt>
      <trkpt lat="44.033790" lon="5.058282">
        <ele>140.881462</ele>
        <time>2017-06-07T13:51:38.000Z</time>
      </trkpt>
      <trkpt lat="44.033690" lon="5.058289">
        <ele>141.001550</ele>
        <time>2017-06-07T13:51:40.000Z</time>
      </trkpt>
      <trkpt lat="44.033560" lon="5.058276">
        <ele>141.157869</ele>
        <time>2017-06-07T13:51:43.000Z</time>
      </trkpt>
      <trkpt lat="44.033424" lon="5.058272">
        <ele>141.321019</ele>
        <time>2017-06-07T13:51:46.000Z</time>
      </trkpt>
      <trkpt lat="44.033333" lon="5.058259">
        <ele>141.430734</ele>
        <time>2017-06-07T13:51:48.000Z</time>
      </trkpt>
      <trkpt lat="44.033234" lon="5.058239">
        <ele>141.550717</ele>
        <time>2017-06-07T13:51:50.000Z</time>
      </trkpt>
      <trkpt lat="44.033134" lon="5.058205">
        <ele>141.674184</ele>
        <time>2017-06-07T13:51:52.000Z</time>
      </trkpt>
      <trkpt lat="44.033035" lon="5.058174">
        <ele>141.795892</ele>
        <time>2017-06-07T13:51:54.000Z</time>
      </trkpt>
      <trkpt lat="44.032936" lon="5.058142">
        <ele>141.760688</ele>
        <time>2017-06-07T13:51:56.000Z</time>
      </trkpt>
      <trkpt lat="44.032833" lon="5.058114">
        <ele>141.605865</ele>
        <time>2017-06-07T13:51:58.000Z</time>
      </trkpt>
      <trkpt lat="44.032730" lon="5.058081">
        <ele>141.449939</ele>
        <time>2017-06-07T13:52:00.000Z</time>
      </trkpt>
      <trkpt lat="44.032640" lon="5.058049">
        <ele>141.312900</ele>
        <time>2017-06-07T13:52:02.000Z</time>
      </trkpt>
      <trkpt lat="44.032540" lon="5.058017">
        <ele>141.161524</ele>
        <time>2017-06-07T13:52:04.000Z</time>
      </trkpt>
      <trkpt lat="44.032450" lon="5.057992">
        <ele>141.026133</ele>
        <time>2017-06-07T13:52:06.000Z</time>
      </trkpt>
      <trkpt lat="44.032360" lon="5.057969">
        <ele>140.891140</ele>
        <time>2017-06-07T13:52:08.000Z</time>
      </trkpt>
      <trkpt lat="44.032230" lon="5.057925">
        <ele>140.693766</ele>
        <time>2017-06-07T13:52:11.000Z</time>
      </trkpt>
      <trkpt lat="44.032143" lon="5.057895">
        <ele>140.561536</ele>
        <time>2017-06-07T13:52:13.000Z</time>
      </trkpt>
      <trkpt lat="44.032017" lon="5.057849">
        <ele>140.369363</ele>
        <time>2017-06-07T13:52:16.000Z</time>
      </trkpt>
      <trkpt lat="44.031902" lon="5.057806">
        <ele>140.193689</ele>
        <time>2017-06-07T13:52:19.000Z</time>
      </trkpt>
      <trkpt lat="44.031790" lon="5.057759">
        <ele>140.021108</ele>
        <time>2017-06-07T13:52:22.000Z</time>
      </trkpt>
      <trkpt lat="44.031696" lon="5.057696">
        <ele>139.867179</ele>
        <time>2017-06-07T13:52:25.000Z</time>
      </trkpt>
      <trkpt lat="44.031635" lon="5.057595">
        <ele>139.727275</ele>
        <time>2017-06-07T13:52:29.000Z</time>
      </trkpt>
      <trkpt lat="44.031640" lon="5.057460">
        <ele>139.583902</ele>
        <time>2017-06-07T13:52:33.000Z</time>
      </trkpt>
      <trkpt lat="44.031647" lon="5.057300">
        <ele>139.413889</ele>
        <time>2017-06-07T13:52:37.000Z</time>
      </trkpt>
      <trkpt lat="44.031635" lon="5.057162">
        <ele>139.266457</ele>
        <time>2017-06-07T13:52:41.000Z</time>
      </trkpt>
      <trkpt lat="44.031662" lon="5.057027">
        <ele>139.135323</ele>
        <time>2017-06-07T13:52:46.000Z</time>
      </trkpt>
      <trkpt lat="44.031704" lon="5.056878">
        <ele>139.004578</ele>
        <time>2017-06-07T13:55:15.000Z</time>
      </trkpt>
      <trkpt lat="44.031730" lon="5.056749">
        <ele>138.895130</ele>
        <time>2017-06-07T13:55:20.000Z</time>
      </trkpt>
      <trkpt lat="44.031760" lon="5.056618">
        <ele>138.782813</ele>
        <time>2017-06-07T13:55:24.000Z</time>
      </trkpt>
      <trkpt lat="44.031784" lon="5.056494">
        <ele>138.677906</ele>
        <time>2017-06-07T13:55:28.000Z</time>
      </trkpt>
      <trkpt lat="44.031807" lon="5.056372">
        <ele>138.574870</ele>
        <time>2017-06-07T13:55:32.000Z</time>
      </trkpt>
      <trkpt lat="44.031840" lon="5.056230">
        <ele>138.452955</ele>
        <time>2017-06-07T13:55:36.000Z</time>
      </trkpt>
      <trkpt lat="44.031883" lon="5.056118">
        <ele>138.349229</ele>
        <time>2017-06-07T13:55:39.000Z</time>
      </trkpt>
      <trkpt lat="44.031890" lon="5.055952">
        <ele>138.213384</ele>
        <time>2017-06-07T13:55:43.000Z</time>
      </trkpt>
      <trkpt lat="44.031902" lon="5.055788">
        <ele>138.078714</ele>
        <time>2017-06-07T13:55:47.000Z</time>
      </trkpt>
      <trkpt lat="44.031914" lon="5.055629">
        <ele>137.948107</ele>
        <time>2017-06-07T13:55:51.000Z</time>
      </trkpt>
      <trkpt lat="44.031933" lon="5.055466">
        <ele>137.813208</ele>
        <time>2017-06-07T13:55:55.000Z</time>
      </trkpt>
      <trkpt lat="44.031948" lon="5.055307">
        <ele>137.682201</ele>
        <time>2017-06-07T13:55:59.000Z</time>
      </trkpt>
      <trkpt lat="44.031956" lon="5.055178">
        <ele>137.576425</ele>
        <time>2017-06-07T13:56:02.000Z</time>
      </trkpt>
      <trkpt lat="44.031967" lon="5.055042">
        <ele>137.464621</ele>
        <time>2017-06-07T13:56:05.000Z</time>
      </trkpt>
      <trkpt lat="44.031980" lon="5.054905">
        <ele>137.351730</ele>
        <time>2017-06-07T13:56:08.000Z</time>
      </trkpt>
      <trkpt lat="44.031986" lon="5.054761">
        <ele>137.233894</ele>
        <time>2017-06-07T13:56:11.000Z</time>
      </trkpt>
      <trkpt lat="44.031998" lon="5.054610">
        <ele>137.109921</ele>
        <time>2017-06-07T13:56:14.000Z</time>
      </trkpt>
      <trkpt lat="44.032005" lon="5.054463">
        <ele>136.989972</ele>
        <time>2017-06-07T13:56:17.000Z</time>
      </trkpt>
      <trkpt lat="44.032005" lon="5.054317">
        <ele>136.871100</ele>
        <time>2017-06-07T13:56:20.000Z</time>
      </trkpt>
      <trkpt lat="44.032000" lon="5.054189">
        <ele>136.766730</ele>
        <time>2017-06-07T13:56:23.000Z</time>
      </trkpt>
      <trkpt lat="44.032005" lon="5.054063">
        <ele>136.663986</ele>
        <time>2017-06-07T13:56:26.000Z</time>
      </trkpt>
      <trkpt lat="44.032005" lon="5.053914">
        <ele>136.542671</ele>
        <time>2017-06-07T13:56:29.000Z</time>
      </trkpt>
      <trkpt lat="44.032010" lon="5.053749">
        <ele>136.408211</ele>
        <time>2017-06-07T13:56:32.000Z</time>
      </trkpt>
      <trkpt lat="44.032013" lon="5.053581">
        <ele>136.271384</ele>
        <time>2017-06-07T13:56:35.000Z</time>
      </trkpt>
      <trkpt lat="44.032013" lon="5.053399">
        <ele>136.123202</ele>
        <time>2017-06-07T13:56:38.000Z</time>
      </trkpt>
      <trkpt lat="44.032013" lon="5.053269">
        <ele>136.017357</ele>
        <time>2017-06-07T13:56:40.000Z</time>
      </trkpt>
      <trkpt lat="44.032013" lon="5.053142">
        <ele>135.913955</ele>
        <time>2017-06-07T13:56:42.000Z</time>
      </trkpt>
      <trkpt lat="44.032010" lon="5.053011">
        <ele>135.807241</ele>
        <time>2017-06-07T13:56:44.000Z</time>
      </trkpt>
      <trkpt lat="44.032010" lon="5.052832">
        <ele>135.661501</ele>
        <time>2017-06-07T13:56:47.000Z</time>
      </trkpt>
      <trkpt lat="44.032005" lon="5.052667">
        <ele>135.527040</ele>
        <time>2017-06-07T13:56:50.000Z</time>
      </trkpt>
      <trkpt lat="44.031998" lon="5.052508">
        <ele>135.397342</ele>
        <time>2017-06-07T13:56:53.000Z</time>
      </trkpt>
      <trkpt lat="44.031990" lon="5.052362">
        <ele>135.278125</ele>
        <time>2017-06-07T13:56:56.000Z</time>
      </trkpt>
      <trkpt lat="44.031975" lon="5.052218">
        <ele>135.159657</ele>
        <time>2017-06-07T13:56:59.000Z</time>
      </trkpt>
      <trkpt lat="44.031975" lon="5.052061">
        <ele>135.007330</ele>
        <time>2017-06-07T13:57:02.000Z</time>
      </trkpt>
      <trkpt lat="44.032017" lon="5.051941">
        <ele>134.865973</ele>
        <time>2017-06-07T13:57:05.000Z</time>
      </trkpt>
      <trkpt lat="44.032104" lon="5.051858">
        <ele>134.710556</ele>
        <time>2017-06-07T13:57:09.000Z</time>
      </trkpt>
      <trkpt lat="44.032173" lon="5.051766">
        <ele>134.569748</ele>
        <time>2017-06-07T13:57:13.000Z</time>
      </trkpt>
      <trkpt lat="44.032207" lon="5.051649">
        <ele>134.436089</ele>
        <time>2017-06-07T13:57:17.000Z</time>
      </trkpt>
      <trkpt lat="44.032180" lon="5.051491">
        <ele>134.264083</ele>
        <time>2017-06-07T13:57:21.000Z</time>
      </trkpt>
      <trkpt lat="44.032124" lon="5.051386">
        <ele>134.125616</ele>
        <time>2017-06-07T13:57:25.000Z</time>
      </trkpt>
      <trkpt lat="44.032000" lon="5.051316">
        <ele>133.928471</ele>
        <time>2017-06-07T13:58:21.000Z</time>
      </trkpt>
      <trkpt lat="44.031900" lon="5.051270">
        <ele>133.773306</ele>
        <time>2017-06-07T13:58:24.000Z</time>
      </trkpt>
      <trkpt lat="44.031834" lon="5.051178">
        <ele>133.635654</ele>
        <time>2017-06-07T13:58:26.000Z</time>
      </trkpt>
      <trkpt lat="44.031790" lon="5.050999">
        <ele>133.435293</ele>
        <time>2017-06-07T13:58:29.000Z</time>
      </trkpt>
      <trkpt lat="44.031784" lon="5.050872">
        <ele>133.300492</ele>
        <time>2017-06-07T13:58:31.000Z</time>
      </trkpt>
      <trkpt lat="44.031776" lon="5.050740">
        <ele>133.160189</ele>
        <time>2017-06-07T13:58:33.000Z</time>
      </trkpt>
      <trkpt lat="44.031776" lon="5.050602">
        <ele>133.014027</ele>
        <time>2017-06-07T13:58:35.000Z</time>
      </trkpt>
      <trkpt lat="44.031770" lon="5.050451">
        <ele>132.853853</ele>
        <time>2017-06-07T13:58:37.000Z</time>
      </trkpt>
      <trkpt lat="44.031765" lon="5.050316">
        <ele>132.710679</ele>
        <time>2017-06-07T13:58:39.000Z</time>
      </trkpt>
      <trkpt lat="44.031760" lon="5.050176">
        <ele>132.562216</ele>
        <time>2017-06-07T13:58:41.000Z</time>
      </trkpt>
      <trkpt lat="44.031765" lon="5.050036">
        <ele>132.408247</ele>
        <time>2017-06-07T13:58:43.000Z</time>
      </trkpt>
      <trkpt lat="44.031765" lon="5.049895">
        <ele>132.242395</ele>
        <time>2017-06-07T13:58:45.000Z</time>
      </trkpt>
      <trkpt lat="44.031760" lon="5.049759">
        <ele>132.082216</ele>
        <time>2017-06-07T13:58:47.000Z</time>
      </trkpt>
      <trkpt lat="44.031754" lon="5.049609">
        <ele>131.905505</ele>
        <time>2017-06-07T13:58:49.000Z</time>
      </trkpt>
      <trkpt lat="44.031754" lon="5.049459">
        <ele>131.729067</ele>
        <time>2017-06-07T13:58:51.000Z</time>
      </trkpt>
      <trkpt lat="44.031757" lon="5.049311">
        <ele>131.554913</ele>
        <time>2017-06-07T13:58:53.000Z</time>
      </trkpt>
      <trkpt lat="44.031757" lon="5.049155">
        <ele>131.371417</ele>
        <time>2017-06-07T13:58:55.000Z</time>
      </trkpt>
      <trkpt lat="44.031750" lon="5.049003">
        <ele>131.192260</ele>
        <time>2017-06-07T13:58:57.000Z</time>
      </trkpt>
      <trkpt lat="44.031757" lon="5.048854">
        <ele>131.016625</ele>
        <time>2017-06-07T13:58:59.000Z</time>
      </trkpt>
      <trkpt lat="44.031765" lon="5.048709">
        <ele>130.845567</ele>
        <time>2017-06-07T13:59:01.000Z</time>
      </trkpt>
      <trkpt lat="44.031780" lon="5.048563">
        <ele>130.672089</ele>
        <time>2017-06-07T13:59:03.000Z</time>
      </trkpt>
      <trkpt lat="44.031796" lon="5.048411">
        <ele>130.491393</ele>
        <time>2017-06-07T13:59:05.000Z</time>
      </trkpt>
      <trkpt lat="44.031803" lon="5.048274">
        <ele>130.329840</ele>
        <time>2017-06-07T13:59:07.000Z</time>
      </trkpt>
      <trkpt lat="44.031815" lon="5.048129">
        <ele>130.158157</ele>
        <time>2017-06-07T13:59:09.000Z</time>
      </trkpt>
      <trkpt lat="44.031822" lon="5.047984">
        <ele>129.987216</ele>
        <time>2017-06-07T13:59:11.000Z</time>
      </trkpt>
      <trkpt lat="44.031830" lon="5.047827">
        <ele>129.802082</ele>
        <time>2017-06-07T13:59:13.000Z</time>
      </trkpt>
      <trkpt lat="44.031837" lon="5.047682">
        <ele>129.631141</ele>
        <time>2017-06-07T13:59:15.000Z</time>
      </trkpt>
      <trkpt lat="44.031850" lon="5.047536">
        <ele>129.476085</ele>
        <time>2017-06-07T13:59:17.000Z</time>
      </trkpt>
      <trkpt lat="44.031860" lon="5.047385">
        <ele>129.348836</ele>
        <time>2017-06-07T13:59:19.000Z</time>
      </trkpt>
      <trkpt lat="44.031864" lon="5.047239">
        <ele>129.226229</ele>
        <time>2017-06-07T13:59:21.000Z</time>
      </trkpt>
      <trkpt lat="44.031860" lon="5.047099">
        <ele>129.108654</ele>
        <time>2017-06-07T13:59:23.000Z</time>
      </trkpt>
      <trkpt lat="44.031860" lon="5.046968">
        <ele>128.998724</ele>
        <time>2017-06-07T13:59:25.000Z</time>
      </trkpt>
      <trkpt lat="44.031864" lon="5.046798">
        <ele>128.855990</ele>
        <time>2017-06-07T13:59:28.000Z</time>
      </trkpt>
      <trkpt lat="44.031864" lon="5.046657">
        <ele>128.737669</ele>
        <time>2017-06-07T13:59:31.000Z</time>
      </trkpt>
      <trkpt lat="44.031860" lon="5.046522">
        <ele>128.624286</ele>
        <time>2017-06-07T13:59:34.000Z</time>
      </trkpt>
      <trkpt lat="44.031883" lon="5.046378">
        <ele>128.500501</ele>
        <time>2017-06-07T13:59:39.000Z</time>
      </trkpt>
      <trkpt lat="44.031800" lon="5.046491">
        <ele>128.364939</ele>
        <time>2017-06-07T14:02:21.000Z</time>
      </trkpt>
      <trkpt lat="44.031673" lon="5.046518">
        <ele>128.214983</ele>
        <time>2017-06-07T14:02:47.000Z</time>
      </trkpt>
      <trkpt lat="44.031555" lon="5.046527">
        <ele>128.077047</ele>
        <time>2017-06-07T14:02:50.000Z</time>
      </trkpt>
      <trkpt lat="44.031440" lon="5.046530">
        <ele>127.942795</ele>
        <time>2017-06-07T14:02:53.000Z</time>
      </trkpt>
      <trkpt lat="44.031334" lon="5.046543">
        <ele>127.818592</ele>
        <time>2017-06-07T14:02:56.000Z</time>
      </trkpt>
      <trkpt lat="44.031230" lon="5.046557">
        <ele>127.696637</ele>
        <time>2017-06-07T14:02:59.000Z</time>
      </trkpt>
      <trkpt lat="44.031128" lon="5.046566">
        <ele>127.577343</ele>
        <time>2017-06-07T14:03:02.000Z</time>
      </trkpt>
      <trkpt lat="44.031013" lon="5.046573">
        <ele>127.442987</ele>
        <time>2017-06-07T14:03:05.000Z</time>
      </trkpt>
      <trkpt lat="44.030888" lon="5.046585">
        <ele>127.418879</ele>
        <time>2017-06-07T14:03:08.000Z</time>
      </trkpt>
      <trkpt lat="44.030760" lon="5.046597">
        <ele>127.415739</ele>
        <time>2017-06-07T14:03:11.000Z</time>
      </trkpt>
      <trkpt lat="44.030670" lon="5.046607">
        <ele>127.413528</ele>
        <time>2017-06-07T14:03:13.000Z</time>
      </trkpt>
      <trkpt lat="44.030575" lon="5.046625">
        <ele>127.411182</ele>
        <time>2017-06-07T14:03:15.000Z</time>
      </trkpt>
      <trkpt lat="44.030483" lon="5.046634">
        <ele>127.408924</ele>
        <time>2017-06-07T14:03:17.000Z</time>
      </trkpt>
      <trkpt lat="44.030390" lon="5.046639">
        <ele>127.406646</ele>
        <time>2017-06-07T14:03:19.000Z</time>
      </trkpt>
      <trkpt lat="44.030293" lon="5.046649">
        <ele>127.404265</ele>
        <time>2017-06-07T14:03:21.000Z</time>
      </trkpt>
      <trkpt lat="44.030193" lon="5.046652">
        <ele>127.401816</ele>
        <time>2017-06-07T14:03:23.000Z</time>
      </trkpt>
      <trkpt lat="44.030098" lon="5.046667">
        <ele>127.399476</ele>
        <time>2017-06-07T14:03:25.000Z</time>
      </trkpt>
      <trkpt lat="44.030003" lon="5.046672">
        <ele>127.397149</ele>
        <time>2017-06-07T14:03:27.000Z</time>
      </trkpt>
      <trkpt lat="44.029900" lon="5.046677">
        <ele>127.394626</ele>
        <time>2017-06-07T14:03:29.000Z</time>
      </trkpt>
      <trkpt lat="44.029797" lon="5.046684">
        <ele>127.392102</ele>
        <time>2017-06-07T14:03:31.000Z</time>
      </trkpt>
      <trkpt lat="44.029694" lon="5.046686">
        <ele>127.389580</ele>
        <time>2017-06-07T14:03:33.000Z</time>
      </trkpt>
      <trkpt lat="44.029590" lon="5.046686">
        <ele>127.387034</ele>
        <time>2017-06-07T14:03:35.000Z</time>
      </trkpt>
      <trkpt lat="44.029490" lon="5.046694">
        <ele>127.384582</ele>
        <time>2017-06-07T14:03:37.000Z</time>
      </trkpt>
      <trkpt lat="44.029373" lon="5.046703">
        <ele>127.381714</ele>
        <time>2017-06-07T14:03:40.000Z</time>
      </trkpt>
      <trkpt lat="44.029255" lon="5.046711">
        <ele>127.378822</ele>
        <time>2017-06-07T14:03:43.000Z</time>
      </trkpt>
      <trkpt lat="44.029133" lon="5.046736">
        <ele>127.341379</ele>
        <time>2017-06-07T14:03:46.000Z</time>
      </trkpt>
      <trkpt lat="44.029015" lon="5.046730">
        <ele>127.278674</ele>
        <time>2017-06-07T14:03:49.000Z</time>
      </trkpt>
      <trkpt lat="44.028915" lon="5.046733">
        <ele>127.225558</ele>
        <time>2017-06-07T14:03:52.000Z</time>
      </trkpt>
      <trkpt lat="44.028820" lon="5.046742">
        <ele>127.174992</ele>
        <time>2017-06-07T14:03:55.000Z</time>
      </trkpt>
      <trkpt lat="44.028717" lon="5.046723">
        <ele>127.119816</ele>
        <time>2017-06-07T14:04:00.000Z</time>
      </trkpt>
      <trkpt lat="44.028828" lon="5.046744">
        <ele>127.060328</ele>
        <time>2017-06-07T14:04:23.000Z</time>
      </trkpt>
      <trkpt lat="44.028930" lon="5.046734">
        <ele>127.006027</ele>
        <time>2017-06-07T14:04:26.000Z</time>
      </trkpt>
      <trkpt lat="44.029050" lon="5.046726">
        <ele>126.942229</ele>
        <time>2017-06-07T14:04:29.000Z</time>
      </trkpt>
      <trkpt lat="44.029160" lon="5.046706">
        <ele>126.883318</ele>
        <time>2017-06-07T14:04:32.000Z</time>
      </trkpt>
      <trkpt lat="44.029280" lon="5.046711">
        <ele>126.819564</ele>
        <time>2017-06-07T14:04:35.000Z</time>
      </trkpt>
      <trkpt lat="44.029400" lon="5.046713">
        <ele>126.755835</ele>
        <time>2017-06-07T14:04:38.000Z</time>
      </trkpt>
      <trkpt lat="44.029514" lon="5.046718">
        <ele>126.695266</ele>
        <time>2017-06-07T14:04:41.000Z</time>
      </trkpt>
      <trkpt lat="44.029633" lon="5.046705">
        <ele>126.631878</ele>
        <time>2017-06-07T14:04:44.000Z</time>
      </trkpt>
      <trkpt lat="44.029747" lon="5.046704">
        <ele>126.571338</ele>
        <time>2017-06-07T14:04:47.000Z</time>
      </trkpt>
      <trkpt lat="44.029846" lon="5.046706">
        <ele>126.518759</ele>
        <time>2017-06-07T14:04:50.000Z</time>
      </trkpt>
      <trkpt lat="44.029953" lon="5.046684">
        <ele>126.461320</ele>
        <time>2017-06-07T14:04:53.000Z</time>
      </trkpt>
      <trkpt lat="44.030075" lon="5.046684">
        <ele>126.473982</ele>
        <time>2017-06-07T14:04:56.000Z</time>
      </trkpt>
      <trkpt lat="44.030205" lon="5.046681">
        <ele>126.612354</ele>
        <time>2017-06-07T14:04:59.000Z</time>
      </trkpt>
      <trkpt lat="44.030330" lon="5.046663">
        <ele>126.746097</ele>
        <time>2017-06-07T14:05:02.000Z</time>
      </trkpt>
      <trkpt lat="44.030422" lon="5.046659">
        <ele>126.844056</ele>
        <time>2017-06-07T14:05:04.000Z</time>
      </trkpt>
      <trkpt lat="44.030514" lon="5.046657">
        <ele>126.941980</ele>
        <time>2017-06-07T14:05:06.000Z</time>
      </trkpt>
      <trkpt lat="44.030647" lon="5.046657">
        <ele>127.083526</ele>
        <time>2017-06-07T14:05:09.000Z</time>
      </trkpt>
      <trkpt lat="44.030777" lon="5.046619">
        <ele>127.224901</ele>
        <time>2017-06-07T14:05:12.000Z</time>
      </trkpt>
      <trkpt lat="44.030907" lon="5.046610">
        <ele>127.363426</ele>
        <time>2017-06-07T14:05:15.000Z</time>
      </trkpt>
      <trkpt lat="44.031000" lon="5.046604">
        <ele>127.462508</ele>
        <time>2017-06-07T14:05:17.000Z</time>
      </trkpt>
      <trkpt lat="44.031130" lon="5.046606">
        <ele>127.600870</ele>
        <time>2017-06-07T14:05:20.000Z</time>
      </trkpt>
      <trkpt lat="44.031260" lon="5.046594">
        <ele>127.739527</ele>
        <time>2017-06-07T14:05:23.000Z</time>
      </trkpt>
      <trkpt lat="44.031387" lon="5.046569">
        <ele>127.876034</ele>
        <time>2017-06-07T14:05:26.000Z</time>
      </trkpt>
      <trkpt lat="44.031513" lon="5.046547">
        <ele>128.011183</ele>
        <time>2017-06-07T14:05:29.000Z</time>
      </trkpt>
      <trkpt lat="44.031630" lon="5.046536">
        <ele>128.135985</ele>
        <time>2017-06-07T14:05:32.000Z</time>
      </trkpt>
      <trkpt lat="44.031720" lon="5.046512">
        <ele>128.233513</ele>
        <time>2017-06-07T14:05:35.000Z</time>
      </trkpt>
      <trkpt lat="44.031810" lon="5.046543">
        <ele>128.332189</ele>
        <time>2017-06-07T14:05:40.000Z</time>
      </trkpt>
      <trkpt lat="44.031803" lon="5.046692">
        <ele>128.487089</ele>
        <time>2017-06-07T14:05:44.000Z</time>
      </trkpt>
      <trkpt lat="44.031803" lon="5.046851">
        <ele>128.653743</ele>
        <time>2017-06-07T14:05:47.000Z</time>
      </trkpt>
      <trkpt lat="44.031796" lon="5.047023">
        <ele>128.834312</ele>
        <time>2017-06-07T14:05:50.000Z</time>
      </trkpt>
      <trkpt lat="44.031796" lon="5.047204">
        <ele>129.024026</ele>
        <time>2017-06-07T14:05:53.000Z</time>
      </trkpt>
      <trkpt lat="44.031790" lon="5.047379">
        <ele>129.207659</ele>
        <time>2017-06-07T14:05:56.000Z</time>
      </trkpt>
      <trkpt lat="44.031784" lon="5.047543">
        <ele>129.379776</ele>
        <time>2017-06-07T14:05:59.000Z</time>
      </trkpt>
      <trkpt lat="44.031765" lon="5.047703">
        <ele>129.549751</ele>
        <time>2017-06-07T14:06:02.000Z</time>
      </trkpt>
      <trkpt lat="44.031760" lon="5.047862">
        <ele>129.716565</ele>
        <time>2017-06-07T14:06:05.000Z</time>
      </trkpt>
      <trkpt lat="44.031757" lon="5.048038">
        <ele>129.901089</ele>
        <time>2017-06-07T14:06:08.000Z</time>
      </trkpt>
      <trkpt lat="44.031746" lon="5.048215">
        <ele>130.087302</ele>
        <time>2017-06-07T14:06:11.000Z</time>
      </trkpt>
      <trkpt lat="44.031746" lon="5.048396">
        <ele>130.277016</ele>
        <time>2017-06-07T14:06:14.000Z</time>
      </trkpt>
      <trkpt lat="44.031754" lon="5.048524">
        <ele>130.411684</ele>
        <time>2017-06-07T14:06:16.000Z</time>
      </trkpt>
      <trkpt lat="44.031750" lon="5.048659">
        <ele>130.553303</ele>
        <time>2017-06-07T14:06:18.000Z</time>
      </trkpt>
      <trkpt lat="44.031720" lon="5.048790">
        <ele>130.697407</ele>
        <time>2017-06-07T14:06:20.000Z</time>
      </trkpt>
      <trkpt lat="44.031700" lon="5.048916">
        <ele>130.832653</ele>
        <time>2017-06-07T14:06:22.000Z</time>
      </trkpt>
      <trkpt lat="44.031693" lon="5.049099">
        <ele>130.983406</ele>
        <time>2017-06-07T14:06:25.000Z</time>
      </trkpt>
      <trkpt lat="44.031690" lon="5.049281">
        <ele>131.054768</ele>
        <time>2017-06-07T14:06:28.000Z</time>
      </trkpt>
      <trkpt lat="44.031690" lon="5.049410">
        <ele>131.105337</ele>
        <time>2017-06-07T14:06:30.000Z</time>
      </trkpt>
      <trkpt lat="44.031693" lon="5.049544">
        <ele>131.157890</ele>
        <time>2017-06-07T14:06:32.000Z</time>
      </trkpt>
      <trkpt lat="44.031690" lon="5.049675">
        <ele>131.209268</ele>
        <time>2017-06-07T14:06:34.000Z</time>
      </trkpt>
      <trkpt lat="44.031700" lon="5.049805">
        <ele>131.260519</ele>
        <time>2017-06-07T14:06:36.000Z</time>
      </trkpt>
      <trkpt lat="44.031704" lon="5.049988">
        <ele>131.332288</ele>
        <time>2017-06-07T14:06:39.000Z</time>
      </trkpt>
      <trkpt lat="44.031708" lon="5.050116">
        <ele>131.382512</ele>
        <time>2017-06-07T14:06:41.000Z</time>
      </trkpt>
      <trkpt lat="44.031715" lon="5.050302">
        <ele>131.455523</ele>
        <time>2017-06-07T14:06:44.000Z</time>
      </trkpt>
      <trkpt lat="44.031734" lon="5.050428">
        <ele>131.505990</ele>
        <time>2017-06-07T14:06:46.000Z</time>
      </trkpt>
      <trkpt lat="44.031740" lon="5.050558">
        <ele>131.557055</ele>
        <time>2017-06-07T14:06:48.000Z</time>
      </trkpt>
      <trkpt lat="44.031740" lon="5.050686">
        <ele>131.607231</ele>
        <time>2017-06-07T14:06:50.000Z</time>
      </trkpt>
      <trkpt lat="44.031750" lon="5.050823">
        <ele>131.661211</ele>
        <time>2017-06-07T14:06:52.000Z</time>
      </trkpt>
      <trkpt lat="44.031754" lon="5.050957">
        <ele>131.713784</ele>
        <time>2017-06-07T14:06:54.000Z</time>
      </trkpt>
      <trkpt lat="44.031765" lon="5.051082">
        <ele>131.763150</ele>
        <time>2017-06-07T14:06:56.000Z</time>
      </trkpt>
      <trkpt lat="44.031776" lon="5.051210">
        <ele>131.813683</ele>
        <time>2017-06-07T14:06:58.000Z</time>
      </trkpt>
      <trkpt lat="44.031788" lon="5.051374">
        <ele>131.878303</ele>
        <time>2017-06-07T14:07:01.000Z</time>
      </trkpt>
      <trkpt lat="44.031780" lon="5.051520">
        <ele>131.935701</ele>
        <time>2017-06-07T14:07:04.000Z</time>
      </trkpt>
      <trkpt lat="44.031770" lon="5.051647">
        <ele>132.041764</ele>
        <time>2017-06-07T14:07:07.000Z</time>
      </trkpt>
      <trkpt lat="44.031790" lon="5.051774">
        <ele>132.154238</ele>
        <time>2017-06-07T14:07:10.000Z</time>
      </trkpt>
      <trkpt lat="44.031857" lon="5.051887">
        <ele>132.280952</ele>
        <time>2017-06-07T14:07:13.000Z</time>
      </trkpt>
      <trkpt lat="44.031910" lon="5.052034">
        <ele>132.423219</ele>
        <time>2017-06-07T14:07:16.000Z</time>
      </trkpt>
      <trkpt lat="44.031914" lon="5.052159">
        <ele>132.531465</ele>
        <time>2017-06-07T14:07:18.000Z</time>
      </trkpt>
      <trkpt lat="44.031920" lon="5.052285">
        <ele>132.640708</ele>
        <time>2017-06-07T14:07:20.000Z</time>
      </trkpt>
      <trkpt lat="44.031937" lon="5.052466">
        <ele>132.798623</ele>
        <time>2017-06-07T14:07:23.000Z</time>
      </trkpt>
      <trkpt lat="44.031944" lon="5.052596">
        <ele>132.911403</ele>
        <time>2017-06-07T14:07:25.000Z</time>
      </trkpt>
      <trkpt lat="44.031960" lon="5.052721">
        <ele>133.021242</ele>
        <time>2017-06-07T14:07:27.000Z</time>
      </trkpt>
      <trkpt lat="44.031963" lon="5.052848">
        <ele>133.131171</ele>
        <time>2017-06-07T14:07:29.000Z</time>
      </trkpt>
      <trkpt lat="44.031967" lon="5.052982">
        <ele>133.247195</ele>
        <time>2017-06-07T14:07:31.000Z</time>
      </trkpt>
      <trkpt lat="44.031960" lon="5.053111">
        <ele>133.359112</ele>
        <time>2017-06-07T14:07:33.000Z</time>
      </trkpt>
      <trkpt lat="44.031956" lon="5.053252">
        <ele>133.481188</ele>
        <time>2017-06-07T14:07:35.000Z</time>
      </trkpt>
      <trkpt lat="44.031956" lon="5.053388">
        <ele>133.598843</ele>
        <time>2017-06-07T14:07:37.000Z</time>
      </trkpt>
      <trkpt lat="44.031956" lon="5.053528">
        <ele>133.719958</ele>
        <time>2017-06-07T14:07:39.000Z</time>
      </trkpt>
      <trkpt lat="44.031956" lon="5.053668">
        <ele>133.841074</ele>
        <time>2017-06-07T14:07:41.000Z</time>
      </trkpt>
      <trkpt lat="44.031956" lon="5.053810">
        <ele>133.963920</ele>
        <time>2017-06-07T14:07:43.000Z</time>
      </trkpt>
      <trkpt lat="44.031956" lon="5.053950">
        <ele>134.085035</ele>
        <time>2017-06-07T14:07:45.000Z</time>
      </trkpt>
      <trkpt lat="44.031950" lon="5.054092">
        <ele>134.187502</ele>
        <time>2017-06-07T14:07:47.000Z</time>
      </trkpt>
      <trkpt lat="44.031956" lon="5.054228">
        <ele>134.282128</ele>
        <time>2017-06-07T14:07:49.000Z</time>
      </trkpt>
      <trkpt lat="44.031950" lon="5.054369">
        <ele>134.380220</ele>
        <time>2017-06-07T14:07:51.000Z</time>
      </trkpt>
      <trkpt lat="44.031956" lon="5.054512">
        <ele>134.479699</ele>
        <time>2017-06-07T14:07:53.000Z</time>
      </trkpt>
      <trkpt lat="44.031956" lon="5.054654">
        <ele>134.578314</ele>
        <time>2017-06-07T14:07:55.000Z</time>
      </trkpt>
      <trkpt lat="44.031950" lon="5.054795">
        <ele>134.676406</ele>
        <time>2017-06-07T14:07:57.000Z</time>
      </trkpt>
      <trkpt lat="44.031937" lon="5.054937">
        <ele>134.775817</ele>
        <time>2017-06-07T14:07:59.000Z</time>
      </trkpt>
      <trkpt lat="44.031930" lon="5.055082">
        <ele>134.876743</ele>
        <time>2017-06-07T14:08:01.000Z</time>
      </trkpt>
      <trkpt lat="44.031920" lon="5.055223">
        <ele>134.975139</ele>
        <time>2017-06-07T14:08:03.000Z</time>
      </trkpt>
      <trkpt lat="44.031906" lon="5.055371">
        <ele>135.078807</ele>
        <time>2017-06-07T14:08:05.000Z</time>
      </trkpt>
      <trkpt lat="44.031883" lon="5.055505">
        <ele>135.174482</ele>
        <time>2017-06-07T14:08:07.000Z</time>
      </trkpt>
      <trkpt lat="44.031876" lon="5.055642">
        <ele>135.269865</ele>
        <time>2017-06-07T14:08:09.000Z</time>
      </trkpt>
      <trkpt lat="44.031868" lon="5.055787">
        <ele>135.370859</ele>
        <time>2017-06-07T14:08:11.000Z</time>
      </trkpt>
      <trkpt lat="44.031850" lon="5.055930">
        <ele>135.471680</ele>
        <time>2017-06-07T14:08:13.000Z</time>
      </trkpt>
      <trkpt lat="44.031834" lon="5.056071">
        <ele>135.570813</ele>
        <time>2017-06-07T14:08:15.000Z</time>
      </trkpt>
      <trkpt lat="44.031822" lon="5.056202">
        <ele>135.662525</ele>
        <time>2017-06-07T14:08:17.000Z</time>
      </trkpt>
      <trkpt lat="44.031800" lon="5.056387">
        <ele>135.792748</ele>
        <time>2017-06-07T14:08:21.000Z</time>
      </trkpt>
      <trkpt lat="44.031780" lon="5.056513">
        <ele>135.888732</ele>
        <time>2017-06-07T14:08:24.000Z</time>
      </trkpt>
      <trkpt lat="44.031754" lon="5.056634">
        <ele>135.989983</ele>
        <time>2017-06-07T14:08:24.000Z</time>
      </trkpt>
      <trkpt lat="44.031720" lon="5.056808">
        <ele>136.134546</ele>
        <time>2017-06-07T14:08:27.000Z</time>
      </trkpt>
      <trkpt lat="44.031680" lon="5.056957">
        <ele>136.262062</ele>
        <time>2017-06-07T14:08:30.000Z</time>
      </trkpt>
      <trkpt lat="44.031640" lon="5.057181">
        <ele>136.447109</ele>
        <time>2017-06-07T14:08:34.000Z</time>
      </trkpt>
      <trkpt lat="44.031616" lon="5.057350">
        <ele>136.585222</ele>
        <time>2017-06-07T14:08:37.000Z</time>
      </trkpt>
      <trkpt lat="44.031590" lon="5.057558">
        <ele>136.754486</ele>
        <time>2017-06-07T14:08:41.000Z</time>
      </trkpt>
      <trkpt lat="44.031567" lon="5.057703">
        <ele>136.873535</ele>
        <time>2017-06-07T14:08:44.000Z</time>
      </trkpt>
      <trkpt lat="44.031483" lon="5.057790">
        <ele>136.990325</ele>
        <time>2017-06-07T14:08:49.000Z</time>
      </trkpt>
      <trkpt lat="44.031384" lon="5.057768">
        <ele>137.102124</ele>
        <time>2017-06-07T14:08:52.000Z</time>
      </trkpt>
      <trkpt lat="44.031277" lon="5.057731">
        <ele>137.225078</ele>
        <time>2017-06-07T14:08:55.000Z</time>
      </trkpt>
      <trkpt lat="44.031166" lon="5.057684">
        <ele>137.354468</ele>
        <time>2017-06-07T14:08:58.000Z</time>
      </trkpt>
      <trkpt lat="44.031067" lon="5.057637">
        <ele>137.471121</ele>
        <time>2017-06-07T14:09:01.000Z</time>
      </trkpt>
      <trkpt lat="44.030956" lon="5.057598">
        <ele>137.598791</ele>
        <time>2017-06-07T14:09:04.000Z</time>
      </trkpt>
      <trkpt lat="44.030830" lon="5.057558">
        <ele>137.742913</ele>
        <time>2017-06-07T14:09:07.000Z</time>
      </trkpt>
      <trkpt lat="44.030740" lon="5.057545">
        <ele>137.843816</ele>
        <time>2017-06-07T14:09:09.000Z</time>
      </trkpt>
      <trkpt lat="44.030647" lon="5.057522">
        <ele>137.927599</ele>
        <time>2017-06-07T14:09:11.000Z</time>
      </trkpt>
      <trkpt lat="44.030550" lon="5.057485">
        <ele>138.016130</ele>
        <time>2017-06-07T14:09:13.000Z</time>
      </trkpt>
      <trkpt lat="44.030450" lon="5.057452">
        <ele>138.106593</ele>
        <time>2017-06-07T14:09:15.000Z</time>
      </trkpt>
      <trkpt lat="44.030350" lon="5.057425">
        <ele>138.196256</ele>
        <time>2017-06-07T14:09:17.000Z</time>
      </trkpt>
      <trkpt lat="44.030250" lon="5.057390">
        <ele>138.287019</ele>
        <time>2017-06-07T14:09:19.000Z</time>
      </trkpt>
      <trkpt lat="44.030155" lon="5.057356">
        <ele>138.373362</ele>
        <time>2017-06-07T14:09:21.000Z</time>
      </trkpt>
      <trkpt lat="44.030056" lon="5.057324">
        <ele>138.462823</ele>
        <time>2017-06-07T14:09:23.000Z</time>
      </trkpt>
      <trkpt lat="44.029957" lon="5.057297">
        <ele>138.551622</ele>
        <time>2017-06-07T14:09:25.000Z</time>
      </trkpt>
      <trkpt lat="44.029854" lon="5.057268">
        <ele>138.644121</ele>
        <time>2017-06-07T14:09:27.000Z</time>
      </trkpt>
      <trkpt lat="44.029762" lon="5.057247">
        <ele>138.726182</ele>
        <time>2017-06-07T14:09:29.000Z</time>
      </trkpt>
      <trkpt lat="44.029675" lon="5.057216">
        <ele>138.805232</ele>
        <time>2017-06-07T14:09:31.000Z</time>
      </trkpt>
      <trkpt lat="44.029540" lon="5.057180">
        <ele>138.926223</ele>
        <time>2017-06-07T14:09:34.000Z</time>
      </trkpt>
      <trkpt lat="44.029450" lon="5.057151">
        <ele>139.007539</ele>
        <time>2017-06-07T14:09:36.000Z</time>
      </trkpt>
      <trkpt lat="44.029360" lon="5.057121">
        <ele>139.089000</ele>
        <time>2017-06-07T14:09:38.000Z</time>
      </trkpt>
      <trkpt lat="44.029270" lon="5.057103">
        <ele>139.169032</ele>
        <time>2017-06-07T14:09:40.000Z</time>
      </trkpt>
      <trkpt lat="44.029144" lon="5.057068">
        <ele>139.282127</ele>
        <time>2017-06-07T14:09:43.000Z</time>
      </trkpt>
      <trkpt lat="44.029030" lon="5.057036">
        <ele>139.384492</ele>
        <time>2017-06-07T14:09:46.000Z</time>
      </trkpt>
      <trkpt lat="44.028920" lon="5.057005">
        <ele>139.389172</ele>
        <time>2017-06-07T14:09:49.000Z</time>
      </trkpt>
      <trkpt lat="44.028810" lon="5.056993">
        <ele>139.314714</ele>
        <time>2017-06-07T14:09:52.000Z</time>
      </trkpt>
      <trkpt lat="44.028698" lon="5.057016">
        <ele>139.238314</ele>
        <time>2017-06-07T14:09:55.000Z</time>
      </trkpt>
      <trkpt lat="44.028576" lon="5.057042">
        <ele>139.155024</ele>
        <time>2017-06-07T14:09:58.000Z</time>
      </trkpt>
      <trkpt lat="44.028454" lon="5.057058">
        <ele>139.072331</ele>
        <time>2017-06-07T14:10:01.000Z</time>
      </trkpt>
      <trkpt lat="44.028362" lon="5.057061">
        <ele>139.010230</ele>
        <time>2017-06-07T14:10:03.000Z</time>
      </trkpt>
      <trkpt lat="44.028233" lon="5.057087">
        <ele>138.922268</ele>
        <time>2017-06-07T14:10:06.000Z</time>
      </trkpt>
      <trkpt lat="44.028145" lon="5.057108">
        <ele>138.862016</ele>
        <time>2017-06-07T14:10:08.000Z</time>
      </trkpt>
      <trkpt lat="44.028023" lon="5.057132">
        <ele>138.778868</ele>
        <time>2017-06-07T14:10:11.000Z</time>
      </trkpt>
      <trkpt lat="44.027912" lon="5.057148">
        <ele>138.703561</ele>
        <time>2017-06-07T14:10:14.000Z</time>
      </trkpt>
      <trkpt lat="44.027786" lon="5.057169">
        <ele>138.617925</ele>
        <time>2017-06-07T14:10:17.000Z</time>
      </trkpt>
      <trkpt lat="44.027657" lon="5.057183">
        <ele>138.530608</ele>
        <time>2017-06-07T14:10:20.000Z</time>
      </trkpt>
      <trkpt lat="44.027530" lon="5.057198">
        <ele>138.444597</ele>
        <time>2017-06-07T14:10:23.000Z</time>
      </trkpt>
      <trkpt lat="44.027405" lon="5.057221">
        <ele>138.359509</ele>
        <time>2017-06-07T14:10:26.000Z</time>
      </trkpt>
      <trkpt lat="44.027270" lon="5.057222">
        <ele>138.268407</ele>
        <time>2017-06-07T14:10:29.000Z</time>
      </trkpt>
      <trkpt lat="44.027180" lon="5.057220">
        <ele>138.216665</ele>
        <time>2017-06-07T14:10:31.000Z</time>
      </trkpt>
      <trkpt lat="44.027084" lon="5.057209">
        <ele>138.219851</ele>
        <time>2017-06-07T14:10:33.000Z</time>
      </trkpt>
      <trkpt lat="44.026993" lon="5.057192">
        <ele>138.222888</ele>
        <time>2017-06-07T14:10:35.000Z</time>
      </trkpt>
      <trkpt lat="44.026900" lon="5.057178">
        <ele>138.225982</ele>
        <time>2017-06-07T14:10:37.000Z</time>
      </trkpt>
      <trkpt lat="44.026814" lon="5.057158">
        <ele>138.228866</ele>
        <time>2017-06-07T14:10:39.000Z</time>
      </trkpt>
      <trkpt lat="44.026680" lon="5.057136">
        <ele>138.233329</ele>
        <time>2017-06-07T14:10:42.000Z</time>
      </trkpt>
      <trkpt lat="44.026546" lon="5.057107">
        <ele>138.237814</ele>
        <time>2017-06-07T14:10:45.000Z</time>
      </trkpt>
      <trkpt lat="44.026432" lon="5.057076">
        <ele>138.241656</ele>
        <time>2017-06-07T14:10:48.000Z</time>
      </trkpt>
      <trkpt lat="44.026320" lon="5.057053">
        <ele>138.245400</ele>
        <time>2017-06-07T14:10:51.000Z</time>
      </trkpt>
      <trkpt lat="44.026222" lon="5.057037">
        <ele>138.248664</ele>
        <time>2017-06-07T14:10:54.000Z</time>
      </trkpt>
      <trkpt lat="44.026210" lon="5.057169">
        <ele>138.251828</ele>
        <time>2017-06-07T14:11:01.000Z</time>
      </trkpt>
      <trkpt lat="44.026268" lon="5.057284">
        <ele>138.255169</ele>
        <time>2017-06-07T14:11:06.000Z</time>
      </trkpt>
      <trkpt lat="44.026215" lon="5.057160">
        <ele>138.258599</ele>
        <time>2017-06-07T14:12:11.000Z</time>
      </trkpt>
      <trkpt lat="44.026188" lon="5.057038">
        <ele>138.261635</ele>
        <time>2017-06-07T14:12:20.000Z</time>
      </trkpt>
      <trkpt lat="44.026080" lon="5.057014">
        <ele>138.265252</ele>
        <time>2017-06-07T14:12:25.000Z</time>
      </trkpt>
      <trkpt lat="44.025986" lon="5.056995">
        <ele>138.268394</ele>
        <time>2017-06-07T14:12:28.000Z</time>
      </trkpt>
      <trkpt lat="44.025883" lon="5.056971">
        <ele>138.271848</ele>
        <time>2017-06-07T14:12:31.000Z</time>
      </trkpt>
      <trkpt lat="44.025772" lon="5.056947">
        <ele>138.275564</ele>
        <time>2017-06-07T14:12:34.000Z</time>
      </trkpt>
      <trkpt lat="44.025646" lon="5.056934">
        <ele>138.322469</ele>
        <time>2017-06-07T14:12:37.000Z</time>
      </trkpt>
      <trkpt lat="44.025517" lon="5.056907">
        <ele>138.372777</ele>
        <time>2017-06-07T14:12:40.000Z</time>
      </trkpt>
      <trkpt lat="44.025387" lon="5.056879">
        <ele>138.423509</ele>
        <time>2017-06-07T14:12:43.000Z</time>
      </trkpt>
      <trkpt lat="44.025260" lon="5.056864">
        <ele>138.472663</ele>
        <time>2017-06-07T14:12:46.000Z</time>
      </trkpt>
      <trkpt lat="44.025135" lon="5.056863">
        <ele>138.520869</ele>
        <time>2017-06-07T14:12:49.000Z</time>
      </trkpt>
      <trkpt lat="44.025047" lon="5.056863">
        <ele>138.554806</ele>
        <time>2017-06-07T14:12:51.000Z</time>
      </trkpt>
      <trkpt lat="44.024918" lon="5.056873">
        <ele>138.604632</ele>
        <time>2017-06-07T14:12:54.000Z</time>
      </trkpt>
      <trkpt lat="44.024784" lon="5.056883">
        <ele>138.656383</ele>
        <time>2017-06-07T14:12:57.000Z</time>
      </trkpt>
      <trkpt lat="44.024670" lon="5.056885">
        <ele>138.700350</ele>
        <time>2017-06-07T14:13:00.000Z</time>
      </trkpt>
      <trkpt lat="44.024560" lon="5.056882">
        <ele>138.742780</ele>
        <time>2017-06-07T14:13:03.000Z</time>
      </trkpt>
      <trkpt lat="44.024445" lon="5.056886">
        <ele>138.787143</ele>
        <time>2017-06-07T14:13:06.000Z</time>
      </trkpt>
      <trkpt lat="44.024330" lon="5.056894">
        <ele>138.831548</ele>
        <time>2017-06-07T14:13:09.000Z</time>
      </trkpt>
      <trkpt lat="44.024208" lon="5.056896">
        <ele>138.878600</ele>
        <time>2017-06-07T14:13:12.000Z</time>
      </trkpt>
      <trkpt lat="44.024086" lon="5.056900">
        <ele>138.925662</ele>
        <time>2017-06-07T14:13:15.000Z</time>
      </trkpt>
      <trkpt lat="44.023960" lon="5.056910">
        <ele>138.965321</ele>
        <time>2017-06-07T14:13:18.000Z</time>
      </trkpt>
      <trkpt lat="44.023838" lon="5.056917">
        <ele>138.926798</ele>
        <time>2017-06-07T14:13:21.000Z</time>
      </trkpt>
      <trkpt lat="44.023716" lon="5.056921">
        <ele>138.888298</ele>
        <time>2017-06-07T14:13:24.000Z</time>
      </trkpt>
      <trkpt lat="44.023590" lon="5.056936">
        <ele>138.848400</ele>
        <time>2017-06-07T14:13:27.000Z</time>
      </trkpt>
      <trkpt lat="44.023476" lon="5.056940">
        <ele>138.812423</ele>
        <time>2017-06-07T14:13:30.000Z</time>
      </trkpt>
      <trkpt lat="44.023357" lon="5.056947">
        <ele>138.774846</ele>
        <time>2017-06-07T14:13:33.000Z</time>
      </trkpt>
      <trkpt lat="44.023228" lon="5.056964">
        <ele>138.733965</ele>
        <time>2017-06-07T14:13:36.000Z</time>
      </trkpt>
      <trkpt lat="44.023100" lon="5.056995">
        <ele>138.692974</ele>
        <time>2017-06-07T14:13:39.000Z</time>
      </trkpt>
      <trkpt lat="44.022984" lon="5.057033">
        <ele>138.655376</ele>
        <time>2017-06-07T14:13:43.000Z</time>
      </trkpt>
      <trkpt lat="44.022880" lon="5.057070">
        <ele>138.621508</ele>
        <time>2017-06-07T14:13:45.000Z</time>
      </trkpt>
      <trkpt lat="44.022780" lon="5.057096">
        <ele>138.589412</ele>
        <time>2017-06-07T14:13:48.000Z</time>
      </trkpt>
      <trkpt lat="44.022663" lon="5.057130">
        <ele>138.551702</ele>
        <time>2017-06-07T14:13:51.000Z</time>
      </trkpt>
      <trkpt lat="44.022552" lon="5.057162">
        <ele>138.515938</ele>
        <time>2017-06-07T14:13:54.000Z</time>
      </trkpt>
      <trkpt lat="44.022434" lon="5.057207">
        <ele>138.477336</ele>
        <time>2017-06-07T14:13:57.000Z</time>
      </trkpt>
      <trkpt lat="44.022310" lon="5.057251">
        <ele>138.436962</ele>
        <time>2017-06-07T14:14:00.000Z</time>
      </trkpt>
      <trkpt lat="44.022180" lon="5.057303">
        <ele>138.405335</ele>
        <time>2017-06-07T14:14:03.000Z</time>
      </trkpt>
      <trkpt lat="44.022083" lon="5.057327">
        <ele>138.419244</ele>
        <time>2017-06-07T14:14:05.000Z</time>
      </trkpt>
      <trkpt lat="44.021990" lon="5.057339">
        <ele>138.432430</ele>
        <time>2017-06-07T14:14:07.000Z</time>
      </trkpt>
      <trkpt lat="44.021904" lon="5.057373">
        <ele>138.445053</ele>
        <time>2017-06-07T14:14:09.000Z</time>
      </trkpt>
      <trkpt lat="44.021805" lon="5.057409">
        <ele>138.459499</ele>
        <time>2017-06-07T14:14:11.000Z</time>
      </trkpt>
      <trkpt lat="44.021713" lon="5.057437">
        <ele>138.472795</ele>
        <time>2017-06-07T14:14:13.000Z</time>
      </trkpt>
      <trkpt lat="44.021620" lon="5.057467">
        <ele>138.486273</ele>
        <time>2017-06-07T14:14:15.000Z</time>
      </trkpt>
      <trkpt lat="44.021530" lon="5.057500">
        <ele>138.499413</ele>
        <time>2017-06-07T14:14:17.000Z</time>
      </trkpt>
      <trkpt lat="44.021435" lon="5.057530">
        <ele>138.513166</ele>
        <time>2017-06-07T14:14:19.000Z</time>
      </trkpt>
      <trkpt lat="44.021343" lon="5.057564">
        <ele>138.526605</ele>
        <time>2017-06-07T14:14:21.000Z</time>
      </trkpt>
      <trkpt lat="44.021214" lon="5.057602">
        <ele>138.545221</ele>
        <time>2017-06-07T14:14:24.000Z</time>
      </trkpt>
      <trkpt lat="44.021084" lon="5.057642">
        <ele>138.564018</ele>
        <time>2017-06-07T14:14:27.000Z</time>
      </trkpt>
      <trkpt lat="44.020950" lon="5.057694">
        <ele>138.583658</ele>
        <time>2017-06-07T14:14:30.000Z</time>
      </trkpt>
      <trkpt lat="44.020830" lon="5.057735">
        <ele>138.601103</ele>
        <time>2017-06-07T14:14:33.000Z</time>
      </trkpt>
      <trkpt lat="44.020690" lon="5.057787">
        <ele>138.621560</ele>
        <time>2017-06-07T14:15:00.000Z</time>
      </trkpt>
      <trkpt lat="44.020600" lon="5.057818">
        <ele>138.634650</ele>
        <time>2017-06-07T14:15:03.000Z</time>
      </trkpt>
      <trkpt lat="44.020496" lon="5.057852">
        <ele>138.649733</ele>
        <time>2017-06-07T14:15:06.000Z</time>
      </trkpt>
      <trkpt lat="44.020390" lon="5.057895">
        <ele>138.682354</ele>
        <time>2017-06-07T14:15:09.000Z</time>
      </trkpt>
      <trkpt lat="44.020233" lon="5.057948">
        <ele>138.746159</ele>
        <time>2017-06-07T14:15:13.000Z</time>
      </trkpt>
      <trkpt lat="44.020120" lon="5.057982">
        <ele>138.791819</ele>
        <time>2017-06-07T14:15:16.000Z</time>
      </trkpt>
      <trkpt lat="44.020008" lon="5.058013">
        <ele>138.836919</ele>
        <time>2017-06-07T14:15:19.000Z</time>
      </trkpt>
      <trkpt lat="44.019897" lon="5.058050">
        <ele>138.881999</ele>
        <time>2017-06-07T14:15:22.000Z</time>
      </trkpt>
      <trkpt lat="44.019787" lon="5.058096">
        <ele>138.927363</ele>
        <time>2017-06-07T14:15:25.000Z</time>
      </trkpt>
      <trkpt lat="44.019657" lon="5.058139">
        <ele>138.980137</ele>
        <time>2017-06-07T14:15:28.000Z</time>
      </trkpt>
      <trkpt lat="44.019566" lon="5.058170">
        <ele>139.017138</ele>
        <time>2017-06-07T14:15:30.000Z</time>
      </trkpt>
      <trkpt lat="44.019447" lon="5.058214">
        <ele>139.065768</ele>
        <time>2017-06-07T14:15:33.000Z</time>
      </trkpt>
      <trkpt lat="44.019330" lon="5.058257">
        <ele>139.113562</ele>
        <time>2017-06-07T14:15:36.000Z</time>
      </trkpt>
      <trkpt lat="44.019207" lon="5.058299">
        <ele>139.163581</ele>
        <time>2017-06-07T14:15:39.000Z</time>
      </trkpt>
      <trkpt lat="44.019120" lon="5.058329">
        <ele>139.198981</ele>
        <time>2017-06-07T14:15:41.000Z</time>
      </trkpt>
      <trkpt lat="44.019028" lon="5.058355">
        <ele>139.236058</ele>
        <time>2017-06-07T14:15:43.000Z</time>
      </trkpt>
      <trkpt lat="44.018936" lon="5.058381">
        <ele>139.273134</ele>
        <time>2017-06-07T14:15:45.000Z</time>
      </trkpt>
      <trkpt lat="44.018810" lon="5.058412">
        <ele>139.323669</ele>
        <time>2017-06-07T14:15:48.000Z</time>
      </trkpt>
      <trkpt lat="44.018680" lon="5.058436">
        <ele>139.340594</ele>
        <time>2017-06-07T14:15:51.000Z</time>
      </trkpt>
      <trkpt lat="44.018562" lon="5.058463">
        <ele>139.210220</ele>
        <time>2017-06-07T14:15:54.000Z</time>
      </trkpt>
      <trkpt lat="44.018450" lon="5.058471">
        <ele>139.087956</ele>
        <time>2017-06-07T14:15:57.000Z</time>
      </trkpt>
      <trkpt lat="44.018360" lon="5.058459">
        <ele>138.989388</ele>
        <time>2017-06-07T14:16:00.000Z</time>
      </trkpt>
      <trkpt lat="44.018238" lon="5.058418">
        <ele>138.852555</ele>
        <time>2017-06-07T14:16:04.000Z</time>
      </trkpt>
      <trkpt lat="44.018105" lon="5.058421">
        <ele>138.707539</ele>
        <time>2017-06-07T14:16:07.000Z</time>
      </trkpt>
      <trkpt lat="44.017982" lon="5.058404">
        <ele>138.572783</ele>
        <time>2017-06-07T14:16:10.000Z</time>
      </trkpt>
      <trkpt lat="44.017868" lon="5.058401">
        <ele>138.448478</ele>
        <time>2017-06-07T14:16:13.000Z</time>
      </trkpt>
      <trkpt lat="44.017770" lon="5.058378">
        <ele>138.340127</ele>
        <time>2017-06-07T14:16:16.000Z</time>
      </trkpt>
      <trkpt lat="44.017673" lon="5.058315">
        <ele>138.223412</ele>
        <time>2017-06-07T14:16:19.000Z</time>
      </trkpt>
      <trkpt lat="44.017582" lon="5.058260">
        <ele>138.115238</ele>
        <time>2017-06-07T14:16:22.000Z</time>
      </trkpt>
      <trkpt lat="44.017403" lon="5.058139">
        <ele>137.898256</ele>
        <time>2017-06-07T14:17:36.000Z</time>
      </trkpt>
      <trkpt lat="44.017300" lon="5.058076">
        <ele>137.775583</ele>
        <time>2017-06-07T14:17:39.000Z</time>
      </trkpt>
      <trkpt lat="44.017220" lon="5.058022">
        <ele>137.678634</ele>
        <time>2017-06-07T14:17:41.000Z</time>
      </trkpt>
      <trkpt lat="44.017124" lon="5.057950">
        <ele>137.559723</ele>
        <time>2017-06-07T14:17:43.000Z</time>
      </trkpt>
      <trkpt lat="44.017025" lon="5.057879">
        <ele>137.438284</ele>
        <time>2017-06-07T14:17:45.000Z</time>
      </trkpt>
      <trkpt lat="44.016926" lon="5.057802">
        <ele>137.366102</ele>
        <time>2017-06-07T14:17:47.000Z</time>
      </trkpt>
      <trkpt lat="44.016823" lon="5.057729">
        <ele>137.311620</ele>
        <time>2017-06-07T14:17:49.000Z</time>
      </trkpt>
      <trkpt lat="44.016727" lon="5.057655">
        <ele>137.259892</ele>
        <time>2017-06-07T14:17:51.000Z</time>
      </trkpt>
      <trkpt lat="44.016636" lon="5.057590">
        <ele>137.211679</ele>
        <time>2017-06-07T14:17:53.000Z</time>
      </trkpt>
      <trkpt lat="44.016550" lon="5.057520">
        <ele>137.164716</ele>
        <time>2017-06-07T14:17:55.000Z</time>
      </trkpt>
      <trkpt lat="44.016460" lon="5.057458">
        <ele>137.117382</ele>
        <time>2017-06-07T14:17:57.000Z</time>
      </trkpt>
      <trkpt lat="44.016342" lon="5.057391">
        <ele>137.057315</ele>
        <time>2017-06-07T14:18:00.000Z</time>
      </trkpt>
      <trkpt lat="44.016230" lon="5.057303">
        <ele>136.996689</ele>
        <time>2017-06-07T14:18:03.000Z</time>
      </trkpt>
      <trkpt lat="44.016125" lon="5.057218">
        <ele>136.939430</ele>
        <time>2017-06-07T14:18:06.000Z</time>
      </trkpt>
      <trkpt lat="44.016003" lon="5.057137">
        <ele>136.875717</ele>
        <time>2017-06-07T14:18:09.000Z</time>
      </trkpt>
      <trkpt lat="44.015907" lon="5.057074">
        <ele>136.825690</ele>
        <time>2017-06-07T14:18:11.000Z</time>
      </trkpt>
      <trkpt lat="44.015804" lon="5.056999">
        <ele>136.770896</ele>
        <time>2017-06-07T14:18:13.000Z</time>
      </trkpt>
      <trkpt lat="44.015705" lon="5.056909">
        <ele>136.715154</ele>
        <time>2017-06-07T14:18:15.000Z</time>
      </trkpt>
      <trkpt lat="44.015610" lon="5.056817">
        <ele>136.660595</ele>
        <time>2017-06-07T14:18:17.000Z</time>
      </trkpt>
      <trkpt lat="44.015526" lon="5.056736">
        <ele>136.612421</ele>
        <time>2017-06-07T14:18:19.000Z</time>
      </trkpt>
      <trkpt lat="44.015434" lon="5.056672">
        <ele>136.563941</ele>
        <time>2017-06-07T14:18:21.000Z</time>
      </trkpt>
      <trkpt lat="44.015343" lon="5.056598">
        <ele>136.520691</ele>
        <time>2017-06-07T14:18:23.000Z</time>
      </trkpt>
      <trkpt lat="44.015250" lon="5.056521">
        <ele>136.477242</ele>
        <time>2017-06-07T14:18:25.000Z</time>
      </trkpt>
      <trkpt lat="44.015152" lon="5.056448">
        <ele>136.432613</ele>
        <time>2017-06-07T14:18:27.000Z</time>
      </trkpt>
      <trkpt lat="44.015045" lon="5.056370">
        <ele>136.384116</ele>
        <time>2017-06-07T14:18:29.000Z</time>
      </trkpt>
      <trkpt lat="44.014954" lon="5.056294">
        <ele>136.341504</ele>
        <time>2017-06-07T14:18:31.000Z</time>
      </trkpt>
      <trkpt lat="44.014866" lon="5.056217">
        <ele>136.299766</ele>
        <time>2017-06-07T14:18:33.000Z</time>
      </trkpt>
      <trkpt lat="44.014780" lon="5.056157">
        <ele>136.261142</ele>
        <time>2017-06-07T14:18:35.000Z</time>
      </trkpt>
      <trkpt lat="44.014687" lon="5.056077">
        <ele>136.217243</ele>
        <time>2017-06-07T14:18:37.000Z</time>
      </trkpt>
      <trkpt lat="44.014584" lon="5.055994">
        <ele>136.169455</ele>
        <time>2017-06-07T14:18:39.000Z</time>
      </trkpt>
      <trkpt lat="44.014480" lon="5.055911">
        <ele>136.121320</ele>
        <time>2017-06-07T14:18:41.000Z</time>
      </trkpt>
      <trkpt lat="44.014378" lon="5.055828">
        <ele>136.073878</ele>
        <time>2017-06-07T14:18:43.000Z</time>
      </trkpt>
      <trkpt lat="44.014270" lon="5.055749">
        <ele>136.024892</ele>
        <time>2017-06-07T14:18:46.000Z</time>
      </trkpt>
      <trkpt lat="44.014175" lon="5.055677">
        <ele>135.981459</ele>
        <time>2017-06-07T14:18:47.000Z</time>
      </trkpt>
      <trkpt lat="44.014076" lon="5.055609">
        <ele>135.937134</ele>
        <time>2017-06-07T14:18:49.000Z</time>
      </trkpt>
      <trkpt lat="44.013970" lon="5.055544">
        <ele>135.890629</ele>
        <time>2017-06-07T14:18:51.000Z</time>
      </trkpt>
      <trkpt lat="44.013866" lon="5.055483">
        <ele>135.845319</ele>
        <time>2017-06-07T14:18:53.000Z</time>
      </trkpt>
      <trkpt lat="44.013763" lon="5.055421">
        <ele>135.718703</ele>
        <time>2017-06-07T14:18:55.000Z</time>
      </trkpt>
      <trkpt lat="44.013660" lon="5.055359">
        <ele>135.569746</ele>
        <time>2017-06-07T14:18:57.000Z</time>
      </trkpt>
      <trkpt lat="44.013560" lon="5.055295">
        <ele>135.423646</ele>
        <time>2017-06-07T14:18:59.000Z</time>
      </trkpt>
      <trkpt lat="44.013466" lon="5.055279">
        <ele>135.297962</ele>
        <time>2017-06-07T14:19:01.000Z</time>
      </trkpt>
      <trkpt lat="44.013370" lon="5.055290">
        <ele>135.170122</ele>
        <time>2017-06-07T14:19:03.000Z</time>
      </trkpt>
      <trkpt lat="44.013237" lon="5.055282">
        <ele>134.993444</ele>
        <time>2017-06-07T14:19:06.000Z</time>
      </trkpt>
      <trkpt lat="44.013140" lon="5.055288">
        <ele>134.864582</ele>
        <time>2017-06-07T14:19:08.000Z</time>
      </trkpt>
      <trkpt lat="44.013012" lon="5.055278">
        <ele>134.694437</ele>
        <time>2017-06-07T14:19:11.000Z</time>
      </trkpt>
      <trkpt lat="44.012920" lon="5.055281">
        <ele>134.572304</ele>
        <time>2017-06-07T14:19:13.000Z</time>
      </trkpt>
      <trkpt lat="44.012830" lon="5.055290">
        <ele>134.452551</ele>
        <time>2017-06-07T14:19:15.000Z</time>
      </trkpt>
      <trkpt lat="44.012700" lon="5.055285">
        <ele>134.279953</ele>
        <time>2017-06-07T14:19:18.000Z</time>
      </trkpt>
      <trkpt lat="44.012560" lon="5.055280">
        <ele>134.094089</ele>
        <time>2017-06-07T14:19:21.000Z</time>
      </trkpt>
      <trkpt lat="44.012430" lon="5.055290">
        <ele>133.921294</ele>
        <time>2017-06-07T14:19:24.000Z</time>
      </trkpt>
      <trkpt lat="44.012340" lon="5.055285">
        <ele>133.801754</ele>
        <time>2017-06-07T14:19:26.000Z</time>
      </trkpt>
      <trkpt lat="44.012240" lon="5.055236">
        <ele>133.661038</ele>
        <time>2017-06-07T14:19:29.000Z</time>
      </trkpt>
      <trkpt lat="44.012140" lon="5.055178">
        <ele>133.517238</ele>
        <time>2017-06-07T14:19:33.000Z</time>
      </trkpt>
      <trkpt lat="44.012020" lon="5.055148">
        <ele>133.425201</ele>
        <time>2017-06-07T14:19:36.000Z</time>
      </trkpt>
      <trkpt lat="44.011883" lon="5.055121">
        <ele>133.379180</ele>
        <time>2017-06-07T14:19:39.000Z</time>
      </trkpt>
      <trkpt lat="44.011784" lon="5.055118">
        <ele>133.346245</ele>
        <time>2017-06-07T14:19:41.000Z</time>
      </trkpt>
      <trkpt lat="44.011684" lon="5.055120">
        <ele>133.312982</ele>
        <time>2017-06-07T14:19:43.000Z</time>
      </trkpt>
      <trkpt lat="44.011574" lon="5.055112">
        <ele>133.276346</ele>
        <time>2017-06-07T14:19:45.000Z</time>
      </trkpt>
      <trkpt lat="44.011460" lon="5.055100">
        <ele>133.238321</ele>
        <time>2017-06-07T14:19:47.000Z</time>
      </trkpt>
      <trkpt lat="44.011350" lon="5.055087">
        <ele>133.201604</ele>
        <time>2017-06-07T14:19:49.000Z</time>
      </trkpt>
      <trkpt lat="44.011242" lon="5.055069">
        <ele>133.165426</ele>
        <time>2017-06-07T14:19:51.000Z</time>
      </trkpt>
      <trkpt lat="44.011140" lon="5.055046">
        <ele>133.131058</ele>
        <time>2017-06-07T14:19:53.000Z</time>
      </trkpt>
      <trkpt lat="44.011044" lon="5.055029">
        <ele>133.098870</ele>
        <time>2017-06-07T14:19:55.000Z</time>
      </trkpt>
      <trkpt lat="44.010952" lon="5.055001">
        <ele>133.067547</ele>
        <time>2017-06-07T14:19:57.000Z</time>
      </trkpt>
      <trkpt lat="44.010857" lon="5.054984">
        <ele>133.035690</ele>
        <time>2017-06-07T14:19:59.000Z</time>
      </trkpt>
      <trkpt lat="44.010727" lon="5.054963">
        <ele>132.992161</ele>
        <time>2017-06-07T14:20:02.000Z</time>
      </trkpt>
      <trkpt lat="44.010600" lon="5.054935">
        <ele>132.949393</ele>
        <time>2017-06-07T14:20:05.000Z</time>
      </trkpt>
      <trkpt lat="44.010506" lon="5.054919">
        <ele>132.917896</ele>
        <time>2017-06-07T14:20:07.000Z</time>
      </trkpt>
      <trkpt lat="44.010403" lon="5.054905">
        <ele>132.883475</ele>
        <time>2017-06-07T14:20:09.000Z</time>
      </trkpt>
      <trkpt lat="44.010292" lon="5.054901">
        <ele>132.850627</ele>
        <time>2017-06-07T14:20:11.000Z</time>
      </trkpt>
      <trkpt lat="44.010180" lon="5.054909">
        <ele>132.853754</ele>
        <time>2017-06-07T14:20:13.000Z</time>
      </trkpt>
      <trkpt lat="44.010080" lon="5.054925">
        <ele>132.856560</ele>
        <time>2017-06-07T14:20:15.000Z</time>
      </trkpt>
      <trkpt lat="44.009975" lon="5.054951">
        <ele>132.859534</ele>
        <time>2017-06-07T14:20:17.000Z</time>
      </trkpt>
      <trkpt lat="44.009876" lon="5.054975">
        <ele>132.862336</ele>
        <time>2017-06-07T14:20:19.000Z</time>
      </trkpt>
      <trkpt lat="44.009766" lon="5.055002">
        <ele>132.865451</ele>
        <time>2017-06-07T14:20:21.000Z</time>
      </trkpt>
      <trkpt lat="44.009647" lon="5.055032">
        <ele>132.868823</ele>
        <time>2017-06-07T14:20:23.000Z</time>
      </trkpt>
      <trkpt lat="44.009537" lon="5.055061">
        <ele>132.871945</ele>
        <time>2017-06-07T14:20:25.000Z</time>
      </trkpt>
      <trkpt lat="44.009426" lon="5.055090">
        <ele>132.875094</ele>
        <time>2017-06-07T14:20:27.000Z</time>
      </trkpt>
      <trkpt lat="44.009310" lon="5.055113">
        <ele>132.878361</ele>
        <time>2017-06-07T14:20:29.000Z</time>
      </trkpt>
      <trkpt lat="44.009205" lon="5.055138">
        <ele>132.881331</ele>
        <time>2017-06-07T14:20:31.000Z</time>
      </trkpt>
      <trkpt lat="44.009098" lon="5.055165">
        <ele>132.884364</ele>
        <time>2017-06-07T14:20:33.000Z</time>
      </trkpt>
      <trkpt lat="44.008995" lon="5.055180">
        <ele>132.887251</ele>
        <time>2017-06-07T14:20:35.000Z</time>
      </trkpt>
      <trkpt lat="44.008880" lon="5.055196">
        <ele>132.890474</ele>
        <time>2017-06-07T14:20:37.000Z</time>
      </trkpt>
      <trkpt lat="44.008780" lon="5.055224">
        <ele>132.893318</ele>
        <time>2017-06-07T14:20:39.000Z</time>
      </trkpt>
      <trkpt lat="44.008694" lon="5.055261">
        <ele>132.895828</ele>
        <time>2017-06-07T14:20:41.000Z</time>
      </trkpt>
      <trkpt lat="44.008602" lon="5.055295">
        <ele>132.898482</ele>
        <time>2017-06-07T14:20:43.000Z</time>
      </trkpt>
      <trkpt lat="44.008514" lon="5.055321">
        <ele>132.875898</ele>
        <time>2017-06-07T14:20:45.000Z</time>
      </trkpt>
      <trkpt lat="44.008423" lon="5.055352">
        <ele>132.754494</ele>
        <time>2017-06-07T14:20:47.000Z</time>
      </trkpt>
      <trkpt lat="44.008286" lon="5.055379">
        <ele>132.575197</ele>
        <time>2017-06-07T14:20:50.000Z</time>
      </trkpt>
      <trkpt lat="44.008194" lon="5.055409">
        <ele>132.452751</ele>
        <time>2017-06-07T14:20:52.000Z</time>
      </trkpt>
      <trkpt lat="44.008100" lon="5.055440">
        <ele>132.327568</ele>
        <time>2017-06-07T14:20:54.000Z</time>
      </trkpt>
      <trkpt lat="44.008000" lon="5.055465">
        <ele>132.195912</ele>
        <time>2017-06-07T14:20:56.000Z</time>
      </trkpt>
      <trkpt lat="44.007900" lon="5.055496">
        <ele>132.063152</ele>
        <time>2017-06-07T14:20:58.000Z</time>
      </trkpt>
      <trkpt lat="44.007805" lon="5.055530">
        <ele>131.936039</ele>
        <time>2017-06-07T14:21:00.000Z</time>
      </trkpt>
      <trkpt lat="44.007700" lon="5.055574">
        <ele>131.793937</ele>
        <time>2017-06-07T14:21:02.000Z</time>
      </trkpt>
      <trkpt lat="44.007600" lon="5.055608">
        <ele>131.660541</ele>
        <time>2017-06-07T14:21:04.000Z</time>
      </trkpt>
      <trkpt lat="44.007492" lon="5.055640">
        <ele>131.517454</ele>
        <time>2017-06-07T14:21:06.000Z</time>
      </trkpt>
      <trkpt lat="44.007378" lon="5.055677">
        <ele>131.365763</ele>
        <time>2017-06-07T14:21:08.000Z</time>
      </trkpt>
      <trkpt lat="44.007275" lon="5.055711">
        <ele>131.228588</ele>
        <time>2017-06-07T14:21:10.000Z</time>
      </trkpt>
      <trkpt lat="44.007168" lon="5.055754">
        <ele>131.084263</ele>
        <time>2017-06-07T14:21:12.000Z</time>
      </trkpt>
      <trkpt lat="44.007065" lon="5.055791">
        <ele>130.946415</ele>
        <time>2017-06-07T14:21:14.000Z</time>
      </trkpt>
      <trkpt lat="44.006960" lon="5.055825">
        <ele>130.806717</ele>
        <time>2017-06-07T14:21:16.000Z</time>
      </trkpt>
      <trkpt lat="44.006863" lon="5.055857">
        <ele>130.677536</ele>
        <time>2017-06-07T14:21:18.000Z</time>
      </trkpt>
      <trkpt lat="44.006763" lon="5.055888">
        <ele>130.577242</ele>
        <time>2017-06-07T14:21:20.000Z</time>
      </trkpt>
      <trkpt lat="44.006668" lon="5.055917">
        <ele>130.614624</ele>
        <time>2017-06-07T14:21:22.000Z</time>
      </trkpt>
      <trkpt lat="44.006577" lon="5.055956">
        <ele>130.651222</ele>
        <time>2017-06-07T14:21:24.000Z</time>
      </trkpt>
      <trkpt lat="44.006480" lon="5.055993">
        <ele>130.689880</ele>
        <time>2017-06-07T14:21:26.000Z</time>
      </trkpt>
      <trkpt lat="44.006374" lon="5.056031">
        <ele>130.731953</ele>
        <time>2017-06-07T14:21:28.000Z</time>
      </trkpt>
      <trkpt lat="44.006270" lon="5.056068">
        <ele>130.773212</ele>
        <time>2017-06-07T14:21:30.000Z</time>
      </trkpt>
      <trkpt lat="44.006165" lon="5.056097">
        <ele>130.814356</ele>
        <time>2017-06-07T14:21:32.000Z</time>
      </trkpt>
      <trkpt lat="44.006058" lon="5.056116">
        <ele>130.855814</ele>
        <time>2017-06-07T14:21:34.000Z</time>
      </trkpt>
      <trkpt lat="44.005955" lon="5.056135">
        <ele>130.895747</ele>
        <time>2017-06-07T14:21:36.000Z</time>
      </trkpt>
      <trkpt lat="44.005850" lon="5.056150">
        <ele>130.936315</ele>
        <time>2017-06-07T14:21:38.000Z</time>
      </trkpt>
      <trkpt lat="44.005740" lon="5.056166">
        <ele>130.978823</ele>
        <time>2017-06-07T14:21:40.000Z</time>
      </trkpt>
      <trkpt lat="44.005627" lon="5.056168">
        <ele>131.022257</ele>
        <time>2017-06-07T14:21:42.000Z</time>
      </trkpt>
      <trkpt lat="44.005520" lon="5.056164">
        <ele>131.063396</ele>
        <time>2017-06-07T14:21:44.000Z</time>
      </trkpt>
      <trkpt lat="44.005413" lon="5.056164">
        <ele>131.104520</ele>
        <time>2017-06-07T14:21:46.000Z</time>
      </trkpt>
      <trkpt lat="44.005306" lon="5.056171">
        <ele>131.145689</ele>
        <time>2017-06-07T14:21:48.000Z</time>
      </trkpt>
      <trkpt lat="44.005203" lon="5.056178">
        <ele>131.185323</ele>
        <time>2017-06-07T14:21:50.000Z</time>
      </trkpt>
      <trkpt lat="44.005104" lon="5.056177">
        <ele>131.223374</ele>
        <time>2017-06-07T14:21:52.000Z</time>
      </trkpt>
      <trkpt lat="44.005013" lon="5.056183">
        <ele>131.258388</ele>
        <time>2017-06-07T14:21:54.000Z</time>
      </trkpt>
      <trkpt lat="44.004920" lon="5.056183">
        <ele>131.272898</ele>
        <time>2017-06-07T14:21:56.000Z</time>
      </trkpt>
      <trkpt lat="44.004820" lon="5.056182">
        <ele>131.286625</ele>
        <time>2017-06-07T14:21:58.000Z</time>
      </trkpt>
      <trkpt lat="44.004730" lon="5.056190">
        <ele>131.299004</ele>
        <time>2017-06-07T14:22:00.000Z</time>
      </trkpt>
      <trkpt lat="44.004640" lon="5.056197">
        <ele>131.311378</ele>
        <time>2017-06-07T14:22:02.000Z</time>
      </trkpt>
      <trkpt lat="44.004540" lon="5.056213">
        <ele>131.325195</ele>
        <time>2017-06-07T14:22:04.000Z</time>
      </trkpt>
      <trkpt lat="44.004436" lon="5.056237">
        <ele>131.339666</ele>
        <time>2017-06-07T14:22:06.000Z</time>
      </trkpt>
      <trkpt lat="44.004333" lon="5.056264">
        <ele>131.354054</ele>
        <time>2017-06-07T14:22:08.000Z</time>
      </trkpt>
      <trkpt lat="44.004223" lon="5.056301">
        <ele>131.369589</ele>
        <time>2017-06-07T14:22:10.000Z</time>
      </trkpt>
      <trkpt lat="44.004110" lon="5.056336">
        <ele>131.385481</ele>
        <time>2017-06-07T14:22:12.000Z</time>
      </trkpt>
      <trkpt lat="44.004000" lon="5.056385">
        <ele>131.401337</ele>
        <time>2017-06-07T14:22:14.000Z</time>
      </trkpt>
      <trkpt lat="44.003895" lon="5.056439">
        <ele>131.416704</ele>
        <time>2017-06-07T14:22:16.000Z</time>
      </trkpt>
      <trkpt lat="44.003800" lon="5.056502">
        <ele>131.431152</ele>
        <time>2017-06-07T14:22:18.000Z</time>
      </trkpt>
      <trkpt lat="44.003700" lon="5.056566">
        <ele>131.446264</ele>
        <time>2017-06-07T14:22:20.000Z</time>
      </trkpt>
      <trkpt lat="44.003600" lon="5.056633">
        <ele>131.461502</ele>
        <time>2017-06-07T14:22:22.000Z</time>
      </trkpt>
      <trkpt lat="44.003506" lon="5.056696">
        <ele>131.475826</ele>
        <time>2017-06-07T14:22:24.000Z</time>
      </trkpt>
      <trkpt lat="44.003407" lon="5.056758">
        <ele>131.490731</ele>
        <time>2017-06-07T14:22:26.000Z</time>
      </trkpt>
      <trkpt lat="44.003310" lon="5.056819">
        <ele>131.505345</ele>
        <time>2017-06-07T14:22:28.000Z</time>
      </trkpt>
      <trkpt lat="44.003216" lon="5.056878">
        <ele>131.492579</ele>
        <time>2017-06-07T14:22:30.000Z</time>
      </trkpt>
      <trkpt lat="44.003120" lon="5.056935">
        <ele>131.473374</ele>
        <time>2017-06-07T14:22:32.000Z</time>
      </trkpt>
      <trkpt lat="44.003030" lon="5.056995">
        <ele>131.455011</ele>
        <time>2017-06-07T14:22:34.000Z</time>
      </trkpt>
      <trkpt lat="44.002940" lon="5.057054">
        <ele>131.436705</ele>
        <time>2017-06-07T14:22:36.000Z</time>
      </trkpt>
      <trkpt lat="44.002853" lon="5.057106">
        <ele>131.419283</ele>
        <time>2017-06-07T14:22:38.000Z</time>
      </trkpt>
      <trkpt lat="44.002766" lon="5.057162">
        <ele>131.401645</ele>
        <time>2017-06-07T14:22:40.000Z</time>
      </trkpt>
      <trkpt lat="44.002674" lon="5.057222">
        <ele>131.382950</ele>
        <time>2017-06-07T14:22:42.000Z</time>
      </trkpt>
      <trkpt lat="44.002583" lon="5.057282">
        <ele>131.364421</ele>
        <time>2017-06-07T14:22:44.000Z</time>
      </trkpt>
      <trkpt lat="44.002457" lon="5.057356">
        <ele>131.339257</ele>
        <time>2017-06-07T14:22:47.000Z</time>
      </trkpt>
      <trkpt lat="44.002373" lon="5.057414">
        <ele>131.322002</ele>
        <time>2017-06-07T14:22:49.000Z</time>
      </trkpt>
      <trkpt lat="44.002262" lon="5.057492">
        <ele>131.299121</ele>
        <time>2017-06-07T14:22:52.000Z</time>
      </trkpt>
      <trkpt lat="44.002155" lon="5.057561">
        <ele>131.277421</ele>
        <time>2017-06-07T14:22:55.000Z</time>
      </trkpt>
      <trkpt lat="44.002033" lon="5.057631">
        <ele>131.253140</ele>
        <time>2017-06-07T14:22:58.000Z</time>
      </trkpt>
      <trkpt lat="44.001945" lon="5.057683">
        <ele>131.235549</ele>
        <time>2017-06-07T14:23:00.000Z</time>
      </trkpt>
      <trkpt lat="44.001860" lon="5.057746">
        <ele>131.217828</ele>
        <time>2017-06-07T14:23:02.000Z</time>
      </trkpt>
      <trkpt lat="44.001774" lon="5.057804">
        <ele>131.200243</ele>
        <time>2017-06-07T14:23:04.000Z</time>
      </trkpt>
      <trkpt lat="44.001670" lon="5.057865">
        <ele>131.179477</ele>
        <time>2017-06-07T14:23:06.000Z</time>
      </trkpt>
      <trkpt lat="44.001580" lon="5.057921">
        <ele>131.147902</ele>
        <time>2017-06-07T14:23:08.000Z</time>
      </trkpt>
      <trkpt lat="44.001480" lon="5.057975">
        <ele>131.111344</ele>
        <time>2017-06-07T14:23:10.000Z</time>
      </trkpt>
      <trkpt lat="44.001396" lon="5.058035">
        <ele>131.079162</ele>
        <time>2017-06-07T14:23:12.000Z</time>
      </trkpt>
      <trkpt lat="44.001274" lon="5.058108">
        <ele>131.033900</ele>
        <time>2017-06-07T14:23:15.000Z</time>
      </trkpt>
      <trkpt lat="44.001190" lon="5.058162">
        <ele>131.002362</ele>
        <time>2017-06-07T14:23:17.000Z</time>
      </trkpt>
      <trkpt lat="44.001076" lon="5.058242">
        <ele>130.958844</ele>
        <time>2017-06-07T14:23:20.000Z</time>
      </trkpt>
      <trkpt lat="44.000954" lon="5.058316">
        <ele>130.913485</ele>
        <time>2017-06-07T14:23:23.000Z</time>
      </trkpt>
      <trkpt lat="44.000870" lon="5.058367">
        <ele>130.882249</ele>
        <time>2017-06-07T14:23:25.000Z</time>
      </trkpt>
      <trkpt lat="44.000748" lon="5.058444">
        <ele>130.836590</ele>
        <time>2017-06-07T14:23:28.000Z</time>
      </trkpt>
      <trkpt lat="44.000664" lon="5.058492">
        <ele>130.805641</ele>
        <time>2017-06-07T14:23:30.000Z</time>
      </trkpt>
      <trkpt lat="44.000580" lon="5.058537">
        <ele>130.774964</ele>
        <time>2017-06-07T14:23:32.000Z</time>
      </trkpt>
      <trkpt lat="44.000484" lon="5.058566">
        <ele>130.741486</ele>
        <time>2017-06-07T14:23:35.000Z</time>
      </trkpt>
      <trkpt lat="44.000416" lon="5.058465">
        <ele>130.707575</ele>
        <time>2017-06-07T14:23:38.000Z</time>
      </trkpt>
      <trkpt lat="44.000330" lon="5.058317">
        <ele>130.660937</ele>
        <time>2017-06-07T14:23:41.000Z</time>
      </trkpt>
      <trkpt lat="44.000286" lon="5.058189">
        <ele>130.626161</ele>
        <time>2017-06-07T14:23:43.000Z</time>
      </trkpt>
      <trkpt lat="44.000220" lon="5.058087">
        <ele>130.592530</ele>
        <time>2017-06-07T14:23:45.000Z</time>
      </trkpt>
      <trkpt lat="44.000156" lon="5.057980">
        <ele>130.545103</ele>
        <time>2017-06-07T14:23:47.000Z</time>
      </trkpt>
      <trkpt lat="44.000100" lon="5.057876">
        <ele>130.439442</ele>
        <time>2017-06-07T14:23:49.000Z</time>
      </trkpt>
      <trkpt lat="44.000042" lon="5.057777">
        <ele>130.335595</ele>
        <time>2017-06-07T14:23:51.000Z</time>
      </trkpt>
      <trkpt lat="43.999960" lon="5.057632">
        <ele>130.185579</ele>
        <time>2017-06-07T14:23:54.000Z</time>
      </trkpt>
      <trkpt lat="43.999897" lon="5.057529">
        <ele>130.075614</ele>
        <time>2017-06-07T14:23:56.000Z</time>
      </trkpt>
      <trkpt lat="43.999836" lon="5.057422">
        <ele>129.964569</ele>
        <time>2017-06-07T14:23:58.000Z</time>
      </trkpt>
      <trkpt lat="43.999770" lon="5.057306">
        <ele>129.844276</ele>
        <time>2017-06-07T14:24:00.000Z</time>
      </trkpt>
      <trkpt lat="43.999706" lon="5.057196">
        <ele>129.729206</ele>
        <time>2017-06-07T14:24:02.000Z</time>
      </trkpt>
      <trkpt lat="43.999645" lon="5.057078">
        <ele>129.611019</ele>
        <time>2017-06-07T14:24:04.000Z</time>
      </trkpt>
      <trkpt lat="43.999584" lon="5.056974">
        <ele>129.501876</ele>
        <time>2017-06-07T14:24:06.000Z</time>
      </trkpt>
      <trkpt lat="43.999504" lon="5.056837">
        <ele>129.358354</ele>
        <time>2017-06-07T14:24:09.000Z</time>
      </trkpt>
      <trkpt lat="43.999440" lon="5.056716">
        <ele>129.236198</ele>
        <time>2017-06-07T14:24:12.000Z</time>
      </trkpt>
      <trkpt lat="43.999374" lon="5.056596">
        <ele>129.113336</ele>
        <time>2017-06-07T14:24:16.000Z</time>
      </trkpt>
      <trkpt lat="43.999287" lon="5.056576">
        <ele>129.013631</ele>
        <time>2017-06-07T14:24:23.000Z</time>
      </trkpt>
      <trkpt lat="43.999233" lon="5.056681">
        <ele>128.908648</ele>
        <time>2017-06-07T14:24:29.000Z</time>
      </trkpt>
      <trkpt lat="43.999160" lon="5.056757">
        <ele>128.805527</ele>
        <time>2017-06-07T14:24:35.000Z</time>
      </trkpt>
      <trkpt lat="43.999090" lon="5.056838">
        <ele>128.702548</ele>
        <time>2017-06-07T14:24:40.000Z</time>
      </trkpt>
      <trkpt lat="43.999040" lon="5.056951">
        <ele>128.594643</ele>
        <time>2017-06-07T14:24:46.000Z</time>
      </trkpt>
      <trkpt lat="43.999000" lon="5.057075">
        <ele>128.716829</ele>
        <time>2017-06-07T14:25:47.000Z</time>
      </trkpt>
      <trkpt lat="43.999027" lon="5.057218">
        <ele>129.200185</ele>
        <time>2017-06-07T14:25:56.000Z</time>
      </trkpt>
      <trkpt lat="43.999040" lon="5.057093">
        <ele>129.613106</ele>
        <time>2017-06-07T14:28:05.000Z</time>
      </trkpt>
      <trkpt lat="43.999030" lon="5.056963">
        <ele>130.040547</ele>
        <time>2017-06-07T14:28:14.000Z</time>
      </trkpt>
      <trkpt lat="43.998974" lon="5.056852">
        <ele>130.483801</ele>
        <time>2017-06-07T14:30:13.000Z</time>
      </trkpt>
      <trkpt lat="43.998905" lon="5.056940">
        <ele>130.909380</ele>
        <time>2017-06-07T14:42:11.000Z</time>
      </trkpt>
      <trkpt lat="43.998817" lon="5.057007">
        <ele>131.365387</ele>
        <time>2017-06-07T14:42:22.000Z</time>
      </trkpt>
      <trkpt lat="43.998722" lon="5.056997">
        <ele>131.798388</ele>
        <time>2017-06-07T14:42:38.000Z</time>
      </trkpt>
      <trkpt lat="43.998615" lon="5.057039">
        <ele>132.303705</ele>
        <time>2017-06-07T14:43:11.000Z</time>
      </trkpt>
      <trkpt lat="43.998520" lon="5.056994">
        <ele>132.759847</ele>
        <time>2017-06-07T14:43:18.000Z</time>
      </trkpt>
      <trkpt lat="43.998430" lon="5.057056">
        <ele>133.216358</ele>
        <time>2017-06-07T14:43:24.000Z</time>
      </trkpt>
      <trkpt lat="43.998520" lon="5.056993">
        <ele>133.674330</ele>
        <time>2017-06-07T14:43:37.000Z</time>
      </trkpt>
      <trkpt lat="43.998432" lon="5.057077">
        <ele>134.159492</ele>
        <time>2017-06-07T14:43:54.000Z</time>
      </trkpt>
      <trkpt lat="43.998325" lon="5.057089">
        <ele>134.647375</ele>
        <time>2017-06-07T14:43:58.000Z</time>
      </trkpt>
      <trkpt lat="43.998230" lon="5.057155">
        <ele>135.130057</ele>
        <time>2017-06-07T14:44:03.000Z</time>
      </trkpt>
      <trkpt lat="43.998142" lon="5.057219">
        <ele>135.581435</ele>
        <time>2017-06-07T14:44:08.000Z</time>
      </trkpt>
      <trkpt lat="43.998062" lon="5.057282">
        <ele>135.999315</ele>
        <time>2017-06-07T14:44:13.000Z</time>
      </trkpt>
      <trkpt lat="43.998062" lon="5.057431">
        <ele>136.486460</ele>
        <time>2017-06-07T14:44:18.000Z</time>
      </trkpt>
      <trkpt lat="43.998096" lon="5.057558">
        <ele>136.888604</ele>
        <time>2017-06-07T14:44:23.000Z</time>
      </trkpt>
      <trkpt lat="43.998127" lon="5.057681">
        <ele>137.237054</ele>
        <time>2017-06-07T14:44:27.000Z</time>
      </trkpt>
      <trkpt lat="43.998184" lon="5.057785">
        <ele>137.586613</ele>
        <time>2017-06-07T14:44:36.000Z</time>
      </trkpt>
      <trkpt lat="43.998260" lon="5.057865">
        <ele>137.940918</ele>
        <time>2017-06-07T14:44:41.000Z</time>
      </trkpt>
      <trkpt lat="43.998325" lon="5.057971">
        <ele>138.313310</ele>
        <time>2017-06-07T14:44:48.000Z</time>
      </trkpt>
      <trkpt lat="43.998215" lon="5.057874">
        <ele>138.797453</ele>
        <time>2017-06-07T14:47:41.000Z</time>
      </trkpt>
      <trkpt lat="43.998127" lon="5.057818">
        <ele>139.157154</ele>
        <time>2017-06-07T14:47:50.000Z</time>
      </trkpt>
      <trkpt lat="43.998070" lon="5.057915">
        <ele>139.492020</ele>
        <time>2017-06-07T14:47:57.000Z</time>
      </trkpt>
      <trkpt lat="43.998013" lon="5.058028">
        <ele>139.861008</ele>
        <time>2017-06-07T14:48:03.000Z</time>
      </trkpt>
      <trkpt lat="43.997974" lon="5.058145">
        <ele>140.205769</ele>
        <time>2017-06-07T14:48:08.000Z</time>
      </trkpt>
      <trkpt lat="43.997920" lon="5.058245">
        <ele>140.540074</ele>
        <time>2017-06-07T14:48:13.000Z</time>
      </trkpt>
      <trkpt lat="43.997850" lon="5.058351">
        <ele>140.924782</ele>
        <time>2017-06-07T14:48:18.000Z</time>
      </trkpt>
      <trkpt lat="43.997787" lon="5.058469">
        <ele>141.317662</ele>
        <time>2017-06-07T14:48:23.000Z</time>
      </trkpt>
      <trkpt lat="43.997734" lon="5.058575">
        <ele>141.662796</ele>
        <time>2017-06-07T14:48:28.000Z</time>
      </trkpt>
      <trkpt lat="43.997684" lon="5.058684">
        <ele>142.008426</ele>
        <time>2017-06-07T14:48:33.000Z</time>
      </trkpt>
      <trkpt lat="43.997635" lon="5.058802">
        <ele>142.372701</ele>
        <time>2017-06-07T14:48:37.000Z</time>
      </trkpt>
      <trkpt lat="43.997580" lon="5.058905">
        <ele>142.715658</ele>
        <time>2017-06-07T14:48:42.000Z</time>
      </trkpt>
      <trkpt lat="43.997505" lon="5.058991">
        <ele>143.076998</ele>
        <time>2017-06-07T14:48:48.000Z</time>
      </trkpt>
      <trkpt lat="43.997400" lon="5.058969">
        <ele>143.401868</ele>
        <time>2017-06-07T14:48:54.000Z</time>
      </trkpt>
      <trkpt lat="43.997320" lon="5.058917">
        <ele>143.449773</ele>
        <time>2017-06-07T14:48:59.000Z</time>
      </trkpt>
      <trkpt lat="43.997360" lon="5.059032">
        <ele>143.499617</ele>
        <time>2017-06-07T14:49:09.000Z</time>
      </trkpt>
      <trkpt lat="43.997284" lon="5.059129">
        <ele>143.555582</ele>
        <time>2017-06-07T14:49:31.000Z</time>
      </trkpt>
      <trkpt lat="43.997208" lon="5.059207">
        <ele>143.606826</ele>
        <time>2017-06-07T14:49:36.000Z</time>
      </trkpt>
      <trkpt lat="43.997150" lon="5.059319">
        <ele>143.660675</ele>
        <time>2017-06-07T14:49:43.000Z</time>
      </trkpt>
      <trkpt lat="43.997086" lon="5.059412">
        <ele>143.710896</ele>
        <time>2017-06-07T14:49:51.000Z</time>
      </trkpt>
      <trkpt lat="43.997040" lon="5.059525">
        <ele>143.761560</ele>
        <time>2017-06-07T14:50:00.000Z</time>
      </trkpt>
      <trkpt lat="43.996956" lon="5.059604">
        <ele>143.816573</ele>
        <time>2017-06-07T14:50:07.000Z</time>
      </trkpt>
      <trkpt lat="43.996853" lon="5.059602">
        <ele>143.872449</ele>
        <time>2017-06-07T14:50:13.000Z</time>
      </trkpt>
      <trkpt lat="43.996788" lon="5.059502">
        <ele>143.925040</ele>
        <time>2017-06-07T14:50:18.000Z</time>
      </trkpt>
      <trkpt lat="43.996730" lon="5.059369">
        <ele>143.985730</ele>
        <time>2017-06-07T14:50:23.000Z</time>
      </trkpt>
      <trkpt lat="43.996662" lon="5.059238">
        <ele>144.048766</ele>
        <time>2017-06-07T14:50:27.000Z</time>
      </trkpt>
      <trkpt lat="43.996590" lon="5.059115">
        <ele>144.110645</ele>
        <time>2017-06-07T14:50:31.000Z</time>
      </trkpt>
      <trkpt lat="43.996510" lon="5.058988">
        <ele>144.176516</ele>
        <time>2017-06-07T14:50:35.000Z</time>
      </trkpt>
      <trkpt lat="43.996450" lon="5.058852">
        <ele>144.238770</ele>
        <time>2017-06-07T14:50:38.000Z</time>
      </trkpt>
      <trkpt lat="43.996407" lon="5.058728">
        <ele>144.292485</ele>
        <time>2017-06-07T14:50:41.000Z</time>
      </trkpt>
      <trkpt lat="43.996365" lon="5.058603">
        <ele>144.346320</ele>
        <time>2017-06-07T14:50:44.000Z</time>
      </trkpt>
      <trkpt lat="43.996330" lon="5.058483">
        <ele>144.326639</ele>
        <time>2017-06-07T14:50:47.000Z</time>
      </trkpt>
      <trkpt lat="43.996273" lon="5.058350">
        <ele>144.251386</ele>
        <time>2017-06-07T14:50:51.000Z</time>
      </trkpt>
      <trkpt lat="43.996212" lon="5.058225">
        <ele>144.177964</ele>
        <time>2017-06-07T14:50:54.000Z</time>
      </trkpt>
      <trkpt lat="43.996166" lon="5.058073">
        <ele>144.097807</ele>
        <time>2017-06-07T14:50:57.000Z</time>
      </trkpt>
      <trkpt lat="43.996117" lon="5.057942">
        <ele>144.026036</ele>
        <time>2017-06-07T14:51:00.000Z</time>
      </trkpt>
      <trkpt lat="43.996075" lon="5.057831">
        <ele>143.965071</ele>
        <time>2017-06-07T14:51:03.000Z</time>
      </trkpt>
      <trkpt lat="43.996025" lon="5.057634">
        <ele>143.863526</ele>
        <time>2017-06-07T14:59:57.000Z</time>
      </trkpt>
      <trkpt lat="43.995980" lon="5.057482">
        <ele>143.783628</ele>
        <time>2017-06-07T15:00:01.000Z</time>
      </trkpt>
      <trkpt lat="43.995922" lon="5.057362">
        <ele>143.713354</ele>
        <time>2017-06-07T15:00:04.000Z</time>
      </trkpt>
      <trkpt lat="43.995842" lon="5.057280">
        <ele>143.646192</ele>
        <time>2017-06-07T15:00:07.000Z</time>
      </trkpt>
      <trkpt lat="43.995780" lon="5.057167">
        <ele>143.577110</ele>
        <time>2017-06-07T15:00:11.000Z</time>
      </trkpt>
      <trkpt lat="43.995720" lon="5.057068">
        <ele>143.514186</ele>
        <time>2017-06-07T15:00:15.000Z</time>
      </trkpt>
      <trkpt lat="43.995655" lon="5.056949">
        <ele>143.441556</ele>
        <time>2017-06-07T15:00:19.000Z</time>
      </trkpt>
      <trkpt lat="43.995598" lon="5.056813">
        <ele>143.365046</ele>
        <time>2017-06-07T15:00:23.000Z</time>
      </trkpt>
      <trkpt lat="43.995540" lon="5.056697">
        <ele>143.296377</ele>
        <time>2017-06-07T15:00:28.000Z</time>
      </trkpt>
      <trkpt lat="43.995480" lon="5.056574">
        <ele>143.224138</ele>
        <time>2017-06-07T15:00:33.000Z</time>
      </trkpt>
      <trkpt lat="43.995415" lon="5.056452">
        <ele>143.150342</ele>
        <time>2017-06-07T15:00:37.000Z</time>
      </trkpt>
      <trkpt lat="43.995354" lon="5.056327">
        <ele>142.777073</ele>
        <time>2017-06-07T15:00:42.000Z</time>
      </trkpt>
      <trkpt lat="43.995230" lon="5.056144">
        <ele>142.155123</ele>
        <time>2017-06-07T15:01:23.000Z</time>
      </trkpt>
      <trkpt lat="43.995170" lon="5.056005">
        <ele>141.754083</ele>
        <time>2017-06-07T15:01:26.000Z</time>
      </trkpt>
      <trkpt lat="43.995100" lon="5.055868">
        <ele>141.338355</ele>
        <time>2017-06-07T15:01:29.000Z</time>
      </trkpt>
      <trkpt lat="43.995020" lon="5.055750">
        <ele>140.937213</ele>
        <time>2017-06-07T15:01:32.000Z</time>
      </trkpt>
      <trkpt lat="43.994930" lon="5.055611">
        <ele>140.474553</ele>
        <time>2017-06-07T15:01:35.000Z</time>
      </trkpt>
      <trkpt lat="43.994870" lon="5.055515">
        <ele>140.159935</ele>
        <time>2017-06-07T15:01:37.000Z</time>
      </trkpt>
      <trkpt lat="43.994785" lon="5.055369">
        <ele>139.695266</ele>
        <time>2017-06-07T15:01:40.000Z</time>
      </trkpt>
      <trkpt lat="43.994720" lon="5.055270">
        <ele>139.363668</ele>
        <time>2017-06-07T15:01:42.000Z</time>
      </trkpt>
      <trkpt lat="43.994650" lon="5.055164">
        <ele>139.007685</ele>
        <time>2017-06-07T15:01:44.000Z</time>
      </trkpt>
      <trkpt lat="43.994590" lon="5.055054">
        <ele>138.666163</ele>
        <time>2017-06-07T15:01:46.000Z</time>
      </trkpt>
      <trkpt lat="43.994537" lon="5.054927">
        <ele>138.302923</ele>
        <time>2017-06-07T15:01:48.000Z</time>
      </trkpt>
      <trkpt lat="43.994465" lon="5.054795">
        <ele>137.893095</ele>
        <time>2017-06-07T15:01:50.000Z</time>
      </trkpt>
      <trkpt lat="43.994390" lon="5.054668">
        <ele>137.486589</ele>
        <time>2017-06-07T15:01:52.000Z</time>
      </trkpt>
      <trkpt lat="43.994324" lon="5.054534">
        <ele>137.084814</ele>
        <time>2017-06-07T15:01:54.000Z</time>
      </trkpt>
      <trkpt lat="43.994255" lon="5.054394">
        <ele>136.642418</ele>
        <time>2017-06-07T15:01:56.000Z</time>
      </trkpt>
      <trkpt lat="43.994186" lon="5.054242">
        <ele>136.164316</ele>
        <time>2017-06-07T15:01:58.000Z</time>
      </trkpt>
      <trkpt lat="43.994110" lon="5.054084">
        <ele>135.658727</ele>
        <time>2017-06-07T15:02:00.000Z</time>
      </trkpt>
      <trkpt lat="43.994045" lon="5.053921">
        <ele>135.162972</ele>
        <time>2017-06-07T15:02:02.000Z</time>
      </trkpt>
      <trkpt lat="43.993977" lon="5.053760">
        <ele>134.666341</ele>
        <time>2017-06-07T15:02:04.000Z</time>
      </trkpt>
      <trkpt lat="43.993910" lon="5.053587">
        <ele>134.143694</ele>
        <time>2017-06-07T15:02:06.000Z</time>
      </trkpt>
      <trkpt lat="43.993847" lon="5.053410">
        <ele>133.618379</ele>
        <time>2017-06-07T15:02:08.000Z</time>
      </trkpt>
      <trkpt lat="43.993786" lon="5.053238">
        <ele>133.108263</ele>
        <time>2017-06-07T15:02:10.000Z</time>
      </trkpt>
      <trkpt lat="43.993736" lon="5.053053">
        <ele>132.582558</ele>
        <time>2017-06-07T15:02:12.000Z</time>
      </trkpt>
      <trkpt lat="43.993675" lon="5.052877">
        <ele>132.062876</ele>
        <time>2017-06-07T15:02:14.000Z</time>
      </trkpt>
      <trkpt lat="43.993603" lon="5.052702">
        <ele>131.526603</ele>
        <time>2017-06-07T15:02:16.000Z</time>
      </trkpt>
      <trkpt lat="43.993523" lon="5.052532">
        <ele>130.986225</ele>
        <time>2017-06-07T15:02:18.000Z</time>
      </trkpt>
      <trkpt lat="43.993440" lon="5.052364">
        <ele>130.444090</ele>
        <time>2017-06-07T15:02:20.000Z</time>
      </trkpt>
      <trkpt lat="43.993350" lon="5.052199">
        <ele>129.954169</ele>
        <time>2017-06-07T15:02:22.000Z</time>
      </trkpt>
      <trkpt lat="43.993275" lon="5.052022">
        <ele>129.486809</ele>
        <time>2017-06-07T15:02:24.000Z</time>
      </trkpt>
      <trkpt lat="43.993200" lon="5.051853">
        <ele>129.035038</ele>
        <time>2017-06-07T15:02:26.000Z</time>
      </trkpt>
      <trkpt lat="43.993122" lon="5.051683">
        <ele>128.576297</ele>
        <time>2017-06-07T15:02:28.000Z</time>
      </trkpt>
      <trkpt lat="43.993040" lon="5.051503">
        <ele>128.091568</ele>
        <time>2017-06-07T15:02:30.000Z</time>
      </trkpt>
      <trkpt lat="43.992947" lon="5.051327">
        <ele>127.594735</ele>
        <time>2017-06-07T15:02:32.000Z</time>
      </trkpt>
      <trkpt lat="43.992867" lon="5.051150">
        <ele>127.119153</ele>
        <time>2017-06-07T15:02:34.000Z</time>
      </trkpt>
      <trkpt lat="43.992794" lon="5.050973">
        <ele>126.654969</ele>
        <time>2017-06-07T15:02:36.000Z</time>
      </trkpt>
      <trkpt lat="43.992730" lon="5.050808">
        <ele>126.228480</ele>
        <time>2017-06-07T15:02:38.000Z</time>
      </trkpt>
      <trkpt lat="43.992670" lon="5.050629">
        <ele>125.779190</ele>
        <time>2017-06-07T15:02:40.000Z</time>
      </trkpt>
      <trkpt lat="43.992600" lon="5.050444">
        <ele>125.303618</ele>
        <time>2017-06-07T15:02:42.000Z</time>
      </trkpt>
      <trkpt lat="43.992540" lon="5.050258">
        <ele>124.839842</ele>
        <time>2017-06-07T15:02:44.000Z</time>
      </trkpt>
      <trkpt lat="43.992477" lon="5.050087">
        <ele>124.388330</ele>
        <time>2017-06-07T15:02:46.000Z</time>
      </trkpt>
      <trkpt lat="43.992416" lon="5.049927">
        <ele>123.949742</ele>
        <time>2017-06-07T15:02:48.000Z</time>
      </trkpt>
      <trkpt lat="43.992380" lon="5.049758">
        <ele>123.522842</ele>
        <time>2017-06-07T15:02:50.000Z</time>
      </trkpt>
      <trkpt lat="43.992332" lon="5.049594">
        <ele>123.094004</ele>
        <time>2017-06-07T15:02:52.000Z</time>
      </trkpt>
      <trkpt lat="43.992290" lon="5.049447">
        <ele>122.710904</ele>
        <time>2017-06-07T15:02:54.000Z</time>
      </trkpt>
      <trkpt lat="43.992280" lon="5.049315">
        <ele>122.389419</ele>
        <time>2017-06-07T15:02:56.000Z</time>
      </trkpt>
      <trkpt lat="43.992294" lon="5.049190">
        <ele>122.083010</ele>
        <time>2017-06-07T15:02:58.000Z</time>
      </trkpt>
      <trkpt lat="43.992264" lon="5.049018">
        <ele>121.654339</ele>
        <time>2017-06-07T15:03:01.000Z</time>
      </trkpt>
      <trkpt lat="43.992140" lon="5.048957">
        <ele>121.211497</ele>
        <time>2017-06-07T15:03:04.000Z</time>
      </trkpt>
      <trkpt lat="43.992012" lon="5.048912">
        <ele>120.766992</ele>
        <time>2017-06-07T15:03:07.000Z</time>
      </trkpt>
      <trkpt lat="43.991920" lon="5.048833">
        <ele>120.402918</ele>
        <time>2017-06-07T15:03:09.000Z</time>
      </trkpt>
      <trkpt lat="43.991825" lon="5.048749">
        <ele>120.023855</ele>
        <time>2017-06-07T15:03:11.000Z</time>
      </trkpt>
      <trkpt lat="43.991722" lon="5.048653">
        <ele>119.606343</ele>
        <time>2017-06-07T15:03:13.000Z</time>
      </trkpt>
      <trkpt lat="43.991620" lon="5.048557">
        <ele>119.191624</ele>
        <time>2017-06-07T15:03:15.000Z</time>
      </trkpt>
      <trkpt lat="43.991512" lon="5.048476">
        <ele>118.778468</ele>
        <time>2017-06-07T15:03:17.000Z</time>
      </trkpt>
      <trkpt lat="43.991405" lon="5.048397">
        <ele>118.524098</ele>
        <time>2017-06-07T15:03:19.000Z</time>
      </trkpt>
      <trkpt lat="43.991302" lon="5.048321">
        <ele>118.433098</ele>
        <time>2017-06-07T15:03:21.000Z</time>
      </trkpt>
      <trkpt lat="43.991188" lon="5.048237">
        <ele>118.332410</ele>
        <time>2017-06-07T15:03:23.000Z</time>
      </trkpt>
      <trkpt lat="43.991077" lon="5.048155">
        <ele>118.234316</ele>
        <time>2017-06-07T15:03:25.000Z</time>
      </trkpt>
      <trkpt lat="43.990967" lon="5.048070">
        <ele>118.136104</ele>
        <time>2017-06-07T15:03:27.000Z</time>
      </trkpt>
      <trkpt lat="43.990850" lon="5.047987">
        <ele>118.033598</ele>
        <time>2017-06-07T15:03:29.000Z</time>
      </trkpt>
      <trkpt lat="43.990730" lon="5.047902">
        <ele>117.928497</ele>
        <time>2017-06-07T15:03:31.000Z</time>
      </trkpt>
      <trkpt lat="43.990616" lon="5.047812">
        <ele>117.826187</ele>
        <time>2017-06-07T15:03:33.000Z</time>
      </trkpt>
      <trkpt lat="43.990500" lon="5.047721">
        <ele>117.722243</ele>
        <time>2017-06-07T15:03:35.000Z</time>
      </trkpt>
      <trkpt lat="43.990387" lon="5.047638">
        <ele>117.622508</ele>
        <time>2017-06-07T15:03:37.000Z</time>
      </trkpt>
      <trkpt lat="43.990270" lon="5.047551">
        <ele>117.518961</ele>
        <time>2017-06-07T15:03:39.000Z</time>
      </trkpt>
      <trkpt lat="43.990150" lon="5.047459">
        <ele>117.412018</ele>
        <time>2017-06-07T15:03:41.000Z</time>
      </trkpt>
      <trkpt lat="43.990030" lon="5.047375">
        <ele>117.307170</ele>
        <time>2017-06-07T15:03:43.000Z</time>
      </trkpt>
      <trkpt lat="43.989914" lon="5.047293">
        <ele>117.205614</ele>
        <time>2017-06-07T15:03:45.000Z</time>
      </trkpt>
      <trkpt lat="43.989803" lon="5.047215">
        <ele>117.192211</ele>
        <time>2017-06-07T15:03:47.000Z</time>
      </trkpt>
      <trkpt lat="43.989697" lon="5.047130">
        <ele>117.233784</ele>
        <time>2017-06-07T15:03:49.000Z</time>
      </trkpt>
      <trkpt lat="43.989586" lon="5.047051">
        <ele>117.276149</ele>
        <time>2017-06-07T15:03:51.000Z</time>
      </trkpt>
      <trkpt lat="43.989470" lon="5.046972">
        <ele>117.320032</ele>
        <time>2017-06-07T15:03:53.000Z</time>
      </trkpt>
      <trkpt lat="43.989353" lon="5.046905">
        <ele>117.363020</ele>
        <time>2017-06-07T15:03:55.000Z</time>
      </trkpt>
      <trkpt lat="43.989230" lon="5.046835">
        <ele>117.408172</ele>
        <time>2017-06-07T15:03:57.000Z</time>
      </trkpt>
      <trkpt lat="43.989113" lon="5.046774">
        <ele>117.450624</ele>
        <time>2017-06-07T15:03:59.000Z</time>
      </trkpt>
      <trkpt lat="43.988983" lon="5.046721">
        <ele>117.496647</ele>
        <time>2017-06-07T15:04:01.000Z</time>
      </trkpt>
      <trkpt lat="43.988857" lon="5.046666">
        <ele>117.541513</ele>
        <time>2017-06-07T15:04:03.000Z</time>
      </trkpt>
      <trkpt lat="43.988730" lon="5.046619">
        <ele>117.586160</ele>
        <time>2017-06-07T15:04:05.000Z</time>
      </trkpt>
      <trkpt lat="43.988598" lon="5.046572">
        <ele>117.632451</ele>
        <time>2017-06-07T15:04:07.000Z</time>
      </trkpt>
      <trkpt lat="43.988470" lon="5.046534">
        <ele>117.676916</ele>
        <time>2017-06-07T15:04:09.000Z</time>
      </trkpt>
      <trkpt lat="43.988340" lon="5.046498">
        <ele>117.721947</ele>
        <time>2017-06-07T15:04:11.000Z</time>
      </trkpt>
      <trkpt lat="43.988205" lon="5.046461">
        <ele>117.768692</ele>
        <time>2017-06-07T15:04:13.000Z</time>
      </trkpt>
      <trkpt lat="43.988064" lon="5.046431">
        <ele>117.854249</ele>
        <time>2017-06-07T15:04:15.000Z</time>
      </trkpt>
      <trkpt lat="43.987926" lon="5.046394">
        <ele>117.947085</ele>
        <time>2017-06-07T15:04:17.000Z</time>
      </trkpt>
      <trkpt lat="43.987793" lon="5.046357">
        <ele>118.036681</ele>
        <time>2017-06-07T15:04:19.000Z</time>
      </trkpt>
      <trkpt lat="43.987660" lon="5.046314">
        <ele>118.126879</ele>
        <time>2017-06-07T15:04:21.000Z</time>
      </trkpt>
      <trkpt lat="43.987534" lon="5.046270">
        <ele>118.212695</ele>
        <time>2017-06-07T15:04:23.000Z</time>
      </trkpt>
      <trkpt lat="43.987415" lon="5.046218">
        <ele>118.295094</ele>
        <time>2017-06-07T15:04:25.000Z</time>
      </trkpt>
      <trkpt lat="43.987297" lon="5.046165">
        <ele>118.377007</ele>
        <time>2017-06-07T15:04:27.000Z</time>
      </trkpt>
      <trkpt lat="43.987186" lon="5.046108">
        <ele>118.455173</ele>
        <time>2017-06-07T15:04:29.000Z</time>
      </trkpt>
      <trkpt lat="43.987072" lon="5.046042">
        <ele>118.536747</ele>
        <time>2017-06-07T15:04:31.000Z</time>
      </trkpt>
      <trkpt lat="43.986958" lon="5.045972">
        <ele>118.619071</ele>
        <time>2017-06-07T15:04:33.000Z</time>
      </trkpt>
      <trkpt lat="43.986840" lon="5.045900">
        <ele>118.704197</ele>
        <time>2017-06-07T15:04:35.000Z</time>
      </trkpt>
      <trkpt lat="43.986725" lon="5.045829">
        <ele>118.787317</ele>
        <time>2017-06-07T15:04:37.000Z</time>
      </trkpt>
      <trkpt lat="43.986614" lon="5.045749">
        <ele>118.869910</ele>
        <time>2017-06-07T15:04:39.000Z</time>
      </trkpt>
      <trkpt lat="43.986504" lon="5.045672">
        <ele>118.951266</ele>
        <time>2017-06-07T15:04:41.000Z</time>
      </trkpt>
      <trkpt lat="43.986397" lon="5.045583">
        <ele>118.897668</ele>
        <time>2017-06-07T15:04:43.000Z</time>
      </trkpt>
      <trkpt lat="43.986290" lon="5.045487">
        <ele>118.812779</ele>
        <time>2017-06-07T15:04:45.000Z</time>
      </trkpt>
      <trkpt lat="43.986187" lon="5.045387">
        <ele>118.729033</ele>
        <time>2017-06-07T15:04:47.000Z</time>
      </trkpt>
      <trkpt lat="43.986080" lon="5.045277">
        <ele>118.640323</ele>
        <time>2017-06-07T15:04:49.000Z</time>
      </trkpt>
      <trkpt lat="43.985977" lon="5.045168">
        <ele>118.554034</ele>
        <time>2017-06-07T15:04:51.000Z</time>
      </trkpt>
      <trkpt lat="43.985874" lon="5.045061">
        <ele>118.468321</ele>
        <time>2017-06-07T15:04:53.000Z</time>
      </trkpt>
      <trkpt lat="43.985780" lon="5.044952">
        <ele>118.386723</ele>
        <time>2017-06-07T15:04:55.000Z</time>
      </trkpt>
      <trkpt lat="43.985683" lon="5.044838">
        <ele>118.302052</ele>
        <time>2017-06-07T15:04:57.000Z</time>
      </trkpt>
      <trkpt lat="43.985590" lon="5.044725">
        <ele>118.219714</ele>
        <time>2017-06-07T15:04:59.000Z</time>
      </trkpt>
      <trkpt lat="43.985493" lon="5.044618">
        <ele>118.137171</ele>
        <time>2017-06-07T15:05:01.000Z</time>
      </trkpt>
      <trkpt lat="43.985386" lon="5.044513">
        <ele>118.049865</ele>
        <time>2017-06-07T15:05:03.000Z</time>
      </trkpt>
      <trkpt lat="43.985283" lon="5.044403">
        <ele>117.963283</ele>
        <time>2017-06-07T15:05:05.000Z</time>
      </trkpt>
      <trkpt lat="43.985172" lon="5.044298">
        <ele>117.873786</ele>
        <time>2017-06-07T15:05:07.000Z</time>
      </trkpt>
      <trkpt lat="43.985060" lon="5.044200">
        <ele>117.785571</ele>
        <time>2017-06-07T15:05:09.000Z</time>
      </trkpt>
      <trkpt lat="43.984950" lon="5.044101">
        <ele>117.571237</ele>
        <time>2017-06-07T15:05:11.000Z</time>
      </trkpt>
      <trkpt lat="43.984840" lon="5.044011">
        <ele>117.329281</ele>
        <time>2017-06-07T15:05:13.000Z</time>
      </trkpt>
      <trkpt lat="43.984730" lon="5.043918">
        <ele>117.085225</ele>
        <time>2017-06-07T15:05:15.000Z</time>
      </trkpt>
      <trkpt lat="43.984623" lon="5.043832">
        <ele>116.850930</ele>
        <time>2017-06-07T15:05:17.000Z</time>
      </trkpt>
      <trkpt lat="43.984510" lon="5.043752">
        <ele>116.610547</ele>
        <time>2017-06-07T15:05:19.000Z</time>
      </trkpt>
      <trkpt lat="43.984394" lon="5.043681">
        <ele>116.370288</ele>
        <time>2017-06-07T15:05:21.000Z</time>
      </trkpt>
      <trkpt lat="43.984272" lon="5.043613">
        <ele>116.121130</ele>
        <time>2017-06-07T15:05:23.000Z</time>
      </trkpt>
      <trkpt lat="43.984142" lon="5.043544">
        <ele>115.857353</ele>
        <time>2017-06-07T15:05:25.000Z</time>
      </trkpt>
      <trkpt lat="43.984010" lon="5.043476">
        <ele>115.590509</ele>
        <time>2017-06-07T15:05:27.000Z</time>
      </trkpt>
      <trkpt lat="43.983870" lon="5.043397">
        <ele>115.304096</ele>
        <time>2017-06-07T15:05:29.000Z</time>
      </trkpt>
      <trkpt lat="43.983727" lon="5.043323">
        <ele>115.014856</ele>
        <time>2017-06-07T15:05:31.000Z</time>
      </trkpt>
      <trkpt lat="43.983585" lon="5.043255">
        <ele>114.730162</ele>
        <time>2017-06-07T15:05:33.000Z</time>
      </trkpt>
      <trkpt lat="43.983444" lon="5.043185">
        <ele>114.446353</ele>
        <time>2017-06-07T15:05:35.000Z</time>
      </trkpt>
      <trkpt lat="43.983303" lon="5.043113">
        <ele>114.162311</ele>
        <time>2017-06-07T15:05:37.000Z</time>
      </trkpt>
      <trkpt lat="43.983166" lon="5.043039">
        <ele>113.884691</ele>
        <time>2017-06-07T15:05:39.000Z</time>
      </trkpt>
      <trkpt lat="43.983030" lon="5.042970">
        <ele>113.611234</ele>
        <time>2017-06-07T15:05:41.000Z</time>
      </trkpt>
      <trkpt lat="43.982900" lon="5.042910">
        <ele>113.352505</ele>
        <time>2017-06-07T15:05:43.000Z</time>
      </trkpt>
      <trkpt lat="43.982773" lon="5.042849">
        <ele>113.098707</ele>
        <time>2017-06-07T15:05:45.000Z</time>
      </trkpt>
      <trkpt lat="43.982650" lon="5.042790">
        <ele>112.852937</ele>
        <time>2017-06-07T15:05:47.000Z</time>
      </trkpt>
      <trkpt lat="43.982530" lon="5.042733">
        <ele>112.613409</ele>
        <time>2017-06-07T15:05:49.000Z</time>
      </trkpt>
      <trkpt lat="43.982410" lon="5.042679">
        <ele>112.375169</ele>
        <time>2017-06-07T15:05:51.000Z</time>
      </trkpt>
      <trkpt lat="43.982285" lon="5.042621">
        <ele>112.126259</ele>
        <time>2017-06-07T15:05:53.000Z</time>
      </trkpt>
      <trkpt lat="43.982160" lon="5.042561">
        <ele>111.876475</ele>
        <time>2017-06-07T15:05:55.000Z</time>
      </trkpt>
      <trkpt lat="43.982033" lon="5.042495">
        <ele>111.620376</ele>
        <time>2017-06-07T15:05:57.000Z</time>
      </trkpt>
      <trkpt lat="43.981907" lon="5.042430">
        <ele>111.366522</ele>
        <time>2017-06-07T15:05:59.000Z</time>
      </trkpt>
      <trkpt lat="43.981780" lon="5.042368">
        <ele>111.112276</ele>
        <time>2017-06-07T15:06:01.000Z</time>
      </trkpt>
      <trkpt lat="43.981647" lon="5.042299">
        <ele>110.847520</ele>
        <time>2017-06-07T15:06:03.000Z</time>
      </trkpt>
      <trkpt lat="43.981520" lon="5.042225">
        <ele>110.594986</ele>
        <time>2017-06-07T15:06:05.000Z</time>
      </trkpt>
      <trkpt lat="43.981396" lon="5.042147">
        <ele>110.345386</ele>
        <time>2017-06-07T15:06:07.000Z</time>
      </trkpt>
      <trkpt lat="43.981277" lon="5.042069">
        <ele>110.104109</ele>
        <time>2017-06-07T15:06:09.000Z</time>
      </trkpt>
      <trkpt lat="43.981160" lon="5.041986">
        <ele>109.863217</ele>
        <time>2017-06-07T15:06:11.000Z</time>
      </trkpt>
      <trkpt lat="43.981045" lon="5.041902">
        <ele>109.624975</ele>
        <time>2017-06-07T15:06:13.000Z</time>
      </trkpt>
      <trkpt lat="43.980927" lon="5.041817">
        <ele>109.381245</ele>
        <time>2017-06-07T15:06:15.000Z</time>
      </trkpt>
      <trkpt lat="43.980810" lon="5.041740">
        <ele>109.143848</ele>
        <time>2017-06-07T15:06:17.000Z</time>
      </trkpt>
      <trkpt lat="43.980694" lon="5.041654">
        <ele>108.902750</ele>
        <time>2017-06-07T15:06:19.000Z</time>
      </trkpt>
      <trkpt lat="43.980570" lon="5.041578">
        <ele>108.654226</ele>
        <time>2017-06-07T15:06:21.000Z</time>
      </trkpt>
      <trkpt lat="43.980453" lon="5.041503">
        <ele>108.417946</ele>
        <time>2017-06-07T15:06:23.000Z</time>
      </trkpt>
      <trkpt lat="43.980328" lon="5.041423">
        <ele>108.165581</ele>
        <time>2017-06-07T15:06:25.000Z</time>
      </trkpt>
      <trkpt lat="43.980194" lon="5.041343">
        <ele>107.898135</ele>
        <time>2017-06-07T15:06:27.000Z</time>
      </trkpt>
      <trkpt lat="43.980060" lon="5.041266">
        <ele>107.646996</ele>
        <time>2017-06-07T15:06:29.000Z</time>
      </trkpt>
      <trkpt lat="43.979923" lon="5.041187">
        <ele>107.509398</ele>
        <time>2017-06-07T15:06:31.000Z</time>
      </trkpt>
      <trkpt lat="43.979782" lon="5.041105">
        <ele>107.367605</ele>
        <time>2017-06-07T15:06:33.000Z</time>
      </trkpt>
      <trkpt lat="43.979633" lon="5.041018">
        <ele>107.217677</ele>
        <time>2017-06-07T15:06:35.000Z</time>
      </trkpt>
      <trkpt lat="43.979485" lon="5.040929">
        <ele>107.068078</ele>
        <time>2017-06-07T15:06:37.000Z</time>
      </trkpt>
      <trkpt lat="43.979332" lon="5.040836">
        <ele>106.913161</ele>
        <time>2017-06-07T15:06:39.000Z</time>
      </trkpt>
      <trkpt lat="43.979183" lon="5.040750">
        <ele>106.763490</ele>
        <time>2017-06-07T15:06:41.000Z</time>
      </trkpt>
      <trkpt lat="43.979034" lon="5.040657">
        <ele>106.611965</ele>
        <time>2017-06-07T15:06:43.000Z</time>
      </trkpt>
      <trkpt lat="43.978890" lon="5.040578">
        <ele>106.468347</ele>
        <time>2017-06-07T15:06:45.000Z</time>
      </trkpt>
      <trkpt lat="43.978750" lon="5.040505">
        <ele>106.329632</ele>
        <time>2017-06-07T15:06:47.000Z</time>
      </trkpt>
      <trkpt lat="43.978610" lon="5.040435">
        <ele>106.191607</ele>
        <time>2017-06-07T15:06:49.000Z</time>
      </trkpt>
      <trkpt lat="43.978474" lon="5.040370">
        <ele>106.058190</ele>
        <time>2017-06-07T15:06:51.000Z</time>
      </trkpt>
      <trkpt lat="43.978348" lon="5.040304">
        <ele>105.974172</ele>
        <time>2017-06-07T15:06:53.000Z</time>
      </trkpt>
      <trkpt lat="43.978218" lon="5.040234">
        <ele>105.932571</ele>
        <time>2017-06-07T15:06:55.000Z</time>
      </trkpt>
      <trkpt lat="43.978090" lon="5.040170">
        <ele>105.891979</ele>
        <time>2017-06-07T15:06:57.000Z</time>
      </trkpt>
      <trkpt lat="43.977955" lon="5.040103">
        <ele>105.849204</ele>
        <time>2017-06-07T15:06:59.000Z</time>
      </trkpt>
      <trkpt lat="43.977820" lon="5.040036">
        <ele>105.806430</ele>
        <time>2017-06-07T15:07:01.000Z</time>
      </trkpt>
      <trkpt lat="43.977690" lon="5.039968">
        <ele>105.764981</ele>
        <time>2017-06-07T15:07:03.000Z</time>
      </trkpt>
      <trkpt lat="43.977560" lon="5.039901">
        <ele>105.723609</ele>
        <time>2017-06-07T15:07:05.000Z</time>
      </trkpt>
      <trkpt lat="43.977430" lon="5.039838">
        <ele>105.682526</ele>
        <time>2017-06-07T15:07:07.000Z</time>
      </trkpt>
      <trkpt lat="43.977295" lon="5.039774">
        <ele>105.639964</ele>
        <time>2017-06-07T15:07:09.000Z</time>
      </trkpt>
      <trkpt lat="43.977158" lon="5.039704">
        <ele>105.596408</ele>
        <time>2017-06-07T15:07:11.000Z</time>
      </trkpt>
      <trkpt lat="43.977028" lon="5.039638">
        <ele>105.555109</ele>
        <time>2017-06-07T15:07:13.000Z</time>
      </trkpt>
      <trkpt lat="43.976906" lon="5.039568">
        <ele>105.515724</ele>
        <time>2017-06-07T15:07:15.000Z</time>
      </trkpt>
      <trkpt lat="43.976784" lon="5.039511">
        <ele>105.477318</ele>
        <time>2017-06-07T15:07:17.000Z</time>
      </trkpt>
      <trkpt lat="43.976670" lon="5.039446">
        <ele>105.489027</ele>
        <time>2017-06-07T15:07:19.000Z</time>
      </trkpt>
      <trkpt lat="43.976550" lon="5.039392">
        <ele>105.563238</ele>
        <time>2017-06-07T15:07:21.000Z</time>
      </trkpt>
      <trkpt lat="43.976444" lon="5.039342">
        <ele>105.629097</ele>
        <time>2017-06-07T15:07:23.000Z</time>
      </trkpt>
      <trkpt lat="43.976330" lon="5.039290">
        <ele>105.699689</ele>
        <time>2017-06-07T15:07:25.000Z</time>
      </trkpt>
      <trkpt lat="43.976220" lon="5.039230">
        <ele>105.769213</ele>
        <time>2017-06-07T15:07:27.000Z</time>
      </trkpt>
      <trkpt lat="43.976100" lon="5.039176">
        <ele>105.843424</ele>
        <time>2017-06-07T15:07:29.000Z</time>
      </trkpt>
      <trkpt lat="43.975980" lon="5.039120">
        <ele>105.917900</ele>
        <time>2017-06-07T15:07:31.000Z</time>
      </trkpt>
      <trkpt lat="43.975857" lon="5.039060">
        <ele>105.994595</ele>
        <time>2017-06-07T15:07:33.000Z</time>
      </trkpt>
      <trkpt lat="43.975735" lon="5.038997">
        <ele>106.071168</ele>
        <time>2017-06-07T15:07:35.000Z</time>
      </trkpt>
      <trkpt lat="43.975613" lon="5.038942">
        <ele>106.146629</ele>
        <time>2017-06-07T15:07:37.000Z</time>
      </trkpt>
      <trkpt lat="43.975487" lon="5.038900">
        <ele>106.222863</ele>
        <time>2017-06-07T15:07:39.000Z</time>
      </trkpt>
      <trkpt lat="43.975357" lon="5.038875">
        <ele>106.300076</ele>
        <time>2017-06-07T15:07:41.000Z</time>
      </trkpt>
      <trkpt lat="43.975230" lon="5.038862">
        <ele>106.374998</ele>
        <time>2017-06-07T15:07:43.000Z</time>
      </trkpt>
      <trkpt lat="43.975100" lon="5.038853">
        <ele>106.451577</ele>
        <time>2017-06-07T15:07:45.000Z</time>
      </trkpt>
      <trkpt lat="43.974980" lon="5.038850">
        <ele>106.531677</ele>
        <time>2017-06-07T15:07:47.000Z</time>
      </trkpt>
      <trkpt lat="43.974854" lon="5.038859">
        <ele>106.704938</ele>
        <time>2017-06-07T15:07:49.000Z</time>
      </trkpt>
      <trkpt lat="43.974728" lon="5.038871">
        <ele>106.878377</ele>
        <time>2017-06-07T15:07:51.000Z</time>
      </trkpt>
      <trkpt lat="43.974610" lon="5.038889">
        <ele>107.041397</ele>
        <time>2017-06-07T15:07:53.000Z</time>
      </trkpt>
      <trkpt lat="43.974490" lon="5.038915">
        <ele>107.208182</ele>
        <time>2017-06-07T15:07:55.000Z</time>
      </trkpt>
      <trkpt lat="43.974370" lon="5.038943">
        <ele>107.375282</ele>
        <time>2017-06-07T15:07:57.000Z</time>
      </trkpt>
      <trkpt lat="43.974255" lon="5.038981">
        <ele>107.537613</ele>
        <time>2017-06-07T15:07:59.000Z</time>
      </trkpt>
      <trkpt lat="43.974133" lon="5.039026">
        <ele>107.710954</ele>
        <time>2017-06-07T15:08:01.000Z</time>
      </trkpt>
      <trkpt lat="43.974020" lon="5.039081">
        <ele>107.875379</ele>
        <time>2017-06-07T15:08:03.000Z</time>
      </trkpt>
      <trkpt lat="43.973900" lon="5.039141">
        <ele>108.050516</ele>
        <time>2017-06-07T15:08:05.000Z</time>
      </trkpt>
      <trkpt lat="43.973790" lon="5.039213">
        <ele>108.217497</ele>
        <time>2017-06-07T15:08:07.000Z</time>
      </trkpt>
      <trkpt lat="43.973675" lon="5.039292">
        <ele>108.393669</ele>
        <time>2017-06-07T15:08:09.000Z</time>
      </trkpt>
      <trkpt lat="43.973570" lon="5.039373">
        <ele>108.558593</ele>
        <time>2017-06-07T15:08:11.000Z</time>
      </trkpt>
      <trkpt lat="43.973470" lon="5.039450">
        <ele>108.715596</ele>
        <time>2017-06-07T15:08:13.000Z</time>
      </trkpt>
      <trkpt lat="43.973380" lon="5.039536">
        <ele>108.865595</ele>
        <time>2017-06-07T15:08:15.000Z</time>
      </trkpt>
      <trkpt lat="43.973293" lon="5.039639">
        <ele>108.970769</ele>
        <time>2017-06-07T15:08:17.000Z</time>
      </trkpt>
      <trkpt lat="43.973210" lon="5.039743">
        <ele>108.911972</ele>
        <time>2017-06-07T15:08:19.000Z</time>
      </trkpt>
      <trkpt lat="43.973130" lon="5.039844">
        <ele>108.855107</ele>
        <time>2017-06-07T15:08:21.000Z</time>
      </trkpt>
      <trkpt lat="43.973045" lon="5.039939">
        <ele>108.797719</ele>
        <time>2017-06-07T15:08:23.000Z</time>
      </trkpt>
      <trkpt lat="43.972965" lon="5.040034">
        <ele>108.742357</ele>
        <time>2017-06-07T15:08:25.000Z</time>
      </trkpt>
      <trkpt lat="43.972890" lon="5.040125">
        <ele>108.689975</ele>
        <time>2017-06-07T15:08:27.000Z</time>
      </trkpt>
      <trkpt lat="43.972824" lon="5.040215">
        <ele>108.641326</ele>
        <time>2017-06-07T15:08:29.000Z</time>
      </trkpt>
      <trkpt lat="43.972710" lon="5.040287">
        <ele>108.575447</ele>
        <time>2017-06-07T15:08:32.000Z</time>
      </trkpt>
      <trkpt lat="43.972622" lon="5.040252">
        <ele>108.527292</ele>
        <time>2017-06-07T15:08:34.000Z</time>
      </trkpt>
      <trkpt lat="43.972538" lon="5.040192">
        <ele>108.477603</ele>
        <time>2017-06-07T15:08:36.000Z</time>
      </trkpt>
      <trkpt lat="43.972435" lon="5.040129">
        <ele>108.418399</ele>
        <time>2017-06-07T15:08:38.000Z</time>
      </trkpt>
      <trkpt lat="43.972340" lon="5.040062">
        <ele>108.362351</ele>
        <time>2017-06-07T15:08:40.000Z</time>
      </trkpt>
      <trkpt lat="43.972237" lon="5.040001">
        <ele>108.303447</ele>
        <time>2017-06-07T15:08:42.000Z</time>
      </trkpt>
      <trkpt lat="43.972126" lon="5.039950">
        <ele>108.241942</ele>
        <time>2017-06-07T15:08:44.000Z</time>
      </trkpt>
      <trkpt lat="43.972010" lon="5.039914">
        <ele>108.179412</ele>
        <time>2017-06-07T15:08:46.000Z</time>
      </trkpt>
      <trkpt lat="43.971900" lon="5.039856">
        <ele>108.117515</ele>
        <time>2017-06-07T15:08:48.000Z</time>
      </trkpt>
      <trkpt lat="43.971786" lon="5.039817">
        <ele>108.055750</ele>
        <time>2017-06-07T15:08:50.000Z</time>
      </trkpt>
      <trkpt lat="43.971670" lon="5.039774">
        <ele>107.892556</ele>
        <time>2017-06-07T15:08:52.000Z</time>
      </trkpt>
      <trkpt lat="43.971546" lon="5.039720">
        <ele>107.676409</ele>
        <time>2017-06-07T15:08:54.000Z</time>
      </trkpt>
      <trkpt lat="43.971428" lon="5.039671">
        <ele>107.471558</ele>
        <time>2017-06-07T15:08:56.000Z</time>
      </trkpt>
      <trkpt lat="43.971302" lon="5.039634">
        <ele>107.257348</ele>
        <time>2017-06-07T15:08:58.000Z</time>
      </trkpt>
      <trkpt lat="43.971184" lon="5.039615">
        <ele>107.059760</ele>
        <time>2017-06-07T15:09:00.000Z</time>
      </trkpt>
      <trkpt lat="43.971060" lon="5.039613">
        <ele>106.853493</ele>
        <time>2017-06-07T15:09:02.000Z</time>
      </trkpt>
      <trkpt lat="43.970947" lon="5.039613">
        <ele>106.665535</ele>
        <time>2017-06-07T15:09:04.000Z</time>
      </trkpt>
      <trkpt lat="43.970825" lon="5.039614">
        <ele>106.462604</ele>
        <time>2017-06-07T15:09:06.000Z</time>
      </trkpt>
      <trkpt lat="43.970703" lon="5.039608">
        <ele>106.259550</ele>
        <time>2017-06-07T15:09:08.000Z</time>
      </trkpt>
      <trkpt lat="43.970573" lon="5.039606">
        <ele>106.043303</ele>
        <time>2017-06-07T15:09:10.000Z</time>
      </trkpt>
      <trkpt lat="43.970450" lon="5.039601">
        <ele>105.838624</ele>
        <time>2017-06-07T15:09:12.000Z</time>
      </trkpt>
      <trkpt lat="43.970333" lon="5.039600">
        <ele>105.644010</ele>
        <time>2017-06-07T15:09:14.000Z</time>
      </trkpt>
      <trkpt lat="43.970222" lon="5.039589">
        <ele>105.458910</ele>
        <time>2017-06-07T15:09:16.000Z</time>
      </trkpt>
      <trkpt lat="43.970110" lon="5.039579">
        <ele>105.272232</ele>
        <time>2017-06-07T15:09:18.000Z</time>
      </trkpt>
      <trkpt lat="43.969997" lon="5.039565">
        <ele>105.083529</ele>
        <time>2017-06-07T15:09:20.000Z</time>
      </trkpt>
      <trkpt lat="43.969894" lon="5.039552">
        <ele>105.030077</ele>
        <time>2017-06-07T15:09:22.000Z</time>
      </trkpt>
      <trkpt lat="43.969790" lon="5.039540">
        <ele>105.008275</ele>
        <time>2017-06-07T15:09:24.000Z</time>
      </trkpt>
      <trkpt lat="43.969685" lon="5.039523">
        <ele>104.986189</ele>
        <time>2017-06-07T15:09:26.000Z</time>
      </trkpt>
      <trkpt lat="43.969574" lon="5.039509">
        <ele>104.962903</ele>
        <time>2017-06-07T15:09:28.000Z</time>
      </trkpt>
      <trkpt lat="43.969470" lon="5.039496">
        <ele>104.941087</ele>
        <time>2017-06-07T15:09:30.000Z</time>
      </trkpt>
      <trkpt lat="43.969368" lon="5.039490">
        <ele>104.919758</ele>
        <time>2017-06-07T15:09:32.000Z</time>
      </trkpt>
      <trkpt lat="43.969273" lon="5.039484">
        <ele>104.899889</ele>
        <time>2017-06-07T15:09:34.000Z</time>
      </trkpt>
      <trkpt lat="43.969180" lon="5.039461">
        <ele>104.880154</ele>
        <time>2017-06-07T15:09:36.000Z</time>
      </trkpt>
      <trkpt lat="43.969080" lon="5.039447">
        <ele>104.859156</ele>
        <time>2017-06-07T15:09:38.000Z</time>
      </trkpt>
      <trkpt lat="43.968952" lon="5.039423">
        <ele>104.832171</ele>
        <time>2017-06-07T15:09:41.000Z</time>
      </trkpt>
      <trkpt lat="43.968830" lon="5.039381">
        <ele>104.805911</ele>
        <time>2017-06-07T15:09:44.000Z</time>
      </trkpt>
      <trkpt lat="43.968704" lon="5.039328">
        <ele>104.778407</ele>
        <time>2017-06-07T15:09:47.000Z</time>
      </trkpt>
      <trkpt lat="43.968613" lon="5.039287">
        <ele>104.758420</ele>
        <time>2017-06-07T15:09:49.000Z</time>
      </trkpt>
      <trkpt lat="43.968517" lon="5.039240">
        <ele>104.737155</ele>
        <time>2017-06-07T15:09:51.000Z</time>
      </trkpt>
      <trkpt lat="43.968426" lon="5.039192">
        <ele>104.716819</ele>
        <time>2017-06-07T15:09:53.000Z</time>
      </trkpt>
      <trkpt lat="43.968338" lon="5.039138">
        <ele>104.696720</ele>
        <time>2017-06-07T15:09:55.000Z</time>
      </trkpt>
      <trkpt lat="43.968254" lon="5.039086">
        <ele>104.677507</ele>
        <time>2017-06-07T15:09:57.000Z</time>
      </trkpt>
      <trkpt lat="43.968140" lon="5.039023">
        <ele>104.674419</ele>
        <time>2017-06-07T15:10:00.000Z</time>
      </trkpt>
      <trkpt lat="43.968037" lon="5.038956">
        <ele>104.678191</ele>
        <time>2017-06-07T15:10:03.000Z</time>
      </trkpt>
      <trkpt lat="43.967934" lon="5.038877">
        <ele>104.682093</ele>
        <time>2017-06-07T15:10:06.000Z</time>
      </trkpt>
      <trkpt lat="43.967840" lon="5.038800">
        <ele>104.685712</ele>
        <time>2017-06-07T15:10:09.000Z</time>
      </trkpt>
      <trkpt lat="43.967735" lon="5.038705">
        <ele>104.689868</ele>
        <time>2017-06-07T15:10:12.000Z</time>
      </trkpt>
      <trkpt lat="43.967650" lon="5.038639">
        <ele>104.693097</ele>
        <time>2017-06-07T15:10:14.000Z</time>
      </trkpt>
      <trkpt lat="43.967540" lon="5.038550">
        <ele>104.697319</ele>
        <time>2017-06-07T15:10:17.000Z</time>
      </trkpt>
      <trkpt lat="43.967422" lon="5.038458">
        <ele>104.701807</ele>
        <time>2017-06-07T15:10:20.000Z</time>
      </trkpt>
      <trkpt lat="43.967335" lon="5.038404">
        <ele>104.704967</ele>
        <time>2017-06-07T15:10:22.000Z</time>
      </trkpt>
      <trkpt lat="43.967216" lon="5.038329">
        <ele>104.709301</ele>
        <time>2017-06-07T15:10:25.000Z</time>
      </trkpt>
      <trkpt lat="43.967100" lon="5.038282">
        <ele>104.713309</ele>
        <time>2017-06-07T15:10:28.000Z</time>
      </trkpt>
      <trkpt lat="43.967010" lon="5.038238">
        <ele>104.716473</ele>
        <time>2017-06-07T15:10:30.000Z</time>
      </trkpt>
      <trkpt lat="43.966923" lon="5.038201">
        <ele>104.719491</ele>
        <time>2017-06-07T15:10:32.000Z</time>
      </trkpt>
      <trkpt lat="43.966797" lon="5.038147">
        <ele>104.723864</ele>
        <time>2017-06-07T15:10:35.000Z</time>
      </trkpt>
      <trkpt lat="43.966682" lon="5.038083">
        <ele>104.727973</ele>
        <time>2017-06-07T15:10:38.000Z</time>
      </trkpt>
      <trkpt lat="43.966576" lon="5.038052">
        <ele>104.774925</ele>
        <time>2017-06-07T15:10:41.000Z</time>
      </trkpt>
      <trkpt lat="43.966465" lon="5.038023">
        <ele>105.058561</ele>
        <time>2017-06-07T15:10:44.000Z</time>
      </trkpt>
      <trkpt lat="43.966354" lon="5.037952">
        <ele>105.365433</ele>
        <time>2017-06-07T15:10:47.000Z</time>
      </trkpt>
      <trkpt lat="43.966255" lon="5.037898">
        <ele>105.632521</ele>
        <time>2017-06-07T15:10:50.000Z</time>
      </trkpt>
      <trkpt lat="43.966140" lon="5.037836">
        <ele>105.942298</ele>
        <time>2017-06-07T15:10:53.000Z</time>
      </trkpt>
      <trkpt lat="43.966022" lon="5.037782">
        <ele>106.254288</ele>
        <time>2017-06-07T15:10:56.000Z</time>
      </trkpt>
      <trkpt lat="43.965916" lon="5.037738">
        <ele>106.532108</ele>
        <time>2017-06-07T15:11:00.000Z</time>
      </trkpt>
      <trkpt lat="43.965816" lon="5.037711">
        <ele>106.787933</ele>
        <time>2017-06-07T15:11:04.000Z</time>
      </trkpt>
      <trkpt lat="43.965730" lon="5.037710">
        <ele>107.003909</ele>
        <time>2017-06-07T15:11:07.000Z</time>
      </trkpt>
      <trkpt lat="43.965620" lon="5.037705">
        <ele>107.280297</ele>
        <time>2017-06-07T15:11:11.000Z</time>
      </trkpt>
      <trkpt lat="43.965515" lon="5.037681">
        <ele>107.547524</ele>
        <time>2017-06-07T15:11:16.000Z</time>
      </trkpt>
      <trkpt lat="43.965427" lon="5.037585">
        <ele>107.828499</ele>
        <time>2017-06-07T15:11:21.000Z</time>
      </trkpt>
      <trkpt lat="43.965363" lon="5.037454">
        <ele>108.114676</ele>
        <time>2017-06-07T15:11:25.000Z</time>
      </trkpt>
      <trkpt lat="43.965300" lon="5.037317">
        <ele>108.408531</ele>
        <time>2017-06-07T15:11:29.000Z</time>
      </trkpt>
      <trkpt lat="43.965244" lon="5.037203">
        <ele>108.658002</ele>
        <time>2017-06-07T15:11:32.000Z</time>
      </trkpt>
      <trkpt lat="43.965183" lon="5.037083">
        <ele>108.923545</ele>
        <time>2017-06-07T15:11:35.000Z</time>
      </trkpt>
      <trkpt lat="43.965126" lon="5.036968">
        <ele>109.175928</ele>
        <time>2017-06-07T15:11:38.000Z</time>
      </trkpt>
      <trkpt lat="43.965060" lon="5.036861">
        <ele>109.232745</ele>
        <time>2017-06-07T15:11:41.000Z</time>
      </trkpt>
      <trkpt lat="43.965004" lon="5.036753">
        <ele>109.212851</ele>
        <time>2017-06-07T15:11:44.000Z</time>
      </trkpt>
      <trkpt lat="43.964935" lon="5.036644">
        <ele>109.191155</ele>
        <time>2017-06-07T15:11:47.000Z</time>
      </trkpt>
      <trkpt lat="43.964878" lon="5.036537">
        <ele>109.171259</ele>
        <time>2017-06-07T15:11:50.000Z</time>
      </trkpt>
      <trkpt lat="43.964810" lon="5.036427">
        <ele>109.149587</ele>
        <time>2017-06-07T15:11:53.000Z</time>
      </trkpt>
      <trkpt lat="43.964745" lon="5.036308">
        <ele>109.127259</ele>
        <time>2017-06-07T15:11:56.000Z</time>
      </trkpt>
      <trkpt lat="43.964672" lon="5.036196">
        <ele>109.104676</ele>
        <time>2017-06-07T15:11:59.000Z</time>
      </trkpt>
      <trkpt lat="43.964584" lon="5.036065">
        <ele>109.077893</ele>
        <time>2017-06-07T15:12:02.000Z</time>
      </trkpt>
      <trkpt lat="43.964493" lon="5.035960">
        <ele>109.053330</ele>
        <time>2017-06-07T15:12:05.000Z</time>
      </trkpt>
      <trkpt lat="43.964405" lon="5.035863">
        <ele>109.030004</ele>
        <time>2017-06-07T15:12:08.000Z</time>
      </trkpt>
      <trkpt lat="43.964306" lon="5.035755">
        <ele>109.003866</ele>
        <time>2017-06-07T15:12:11.000Z</time>
      </trkpt>
      <trkpt lat="43.964203" lon="5.035646">
        <ele>108.976980</ele>
        <time>2017-06-07T15:12:14.000Z</time>
      </trkpt>
      <trkpt lat="43.964130" lon="5.035554">
        <ele>108.956513</ele>
        <time>2017-06-07T15:12:16.000Z</time>
      </trkpt>
      <trkpt lat="43.964050" lon="5.035460">
        <ele>108.934757</ele>
        <time>2017-06-07T15:12:18.000Z</time>
      </trkpt>
      <trkpt lat="43.963980" lon="5.035361">
        <ele>108.914014</ele>
        <time>2017-06-07T15:12:20.000Z</time>
      </trkpt>
      <trkpt lat="43.963920" lon="5.035263">
        <ele>108.894785</ele>
        <time>2017-06-07T15:12:22.000Z</time>
      </trkpt>
      <trkpt lat="43.963837" lon="5.035132">
        <ele>108.882256</ele>
        <time>2017-06-07T15:12:25.000Z</time>
      </trkpt>
      <trkpt lat="43.963783" lon="5.035029">
        <ele>108.908796</ele>
        <time>2017-06-07T15:12:27.000Z</time>
      </trkpt>
      <trkpt lat="43.963707" lon="5.034889">
        <ele>108.945318</ele>
        <time>2017-06-07T15:12:30.000Z</time>
      </trkpt>
      <trkpt lat="43.963642" lon="5.034759">
        <ele>108.978286</ele>
        <time>2017-06-07T15:12:33.000Z</time>
      </trkpt>
      <trkpt lat="43.963570" lon="5.034637">
        <ele>109.011145</ele>
        <time>2017-06-07T15:12:36.000Z</time>
      </trkpt>
      <trkpt lat="43.963497" lon="5.034503">
        <ele>109.046146</ele>
        <time>2017-06-07T15:12:39.000Z</time>
      </trkpt>
      <trkpt lat="43.963436" lon="5.034384">
        <ele>109.076574</ele>
        <time>2017-06-07T15:12:42.000Z</time>
      </trkpt>
      <trkpt lat="43.963380" lon="5.034250">
        <ele>109.108846</ele>
        <time>2017-06-07T15:12:45.000Z</time>
      </trkpt>
      <trkpt lat="43.963330" lon="5.034092">
        <ele>109.144794</ele>
        <time>2017-06-07T15:12:48.000Z</time>
      </trkpt>
      <trkpt lat="43.963270" lon="5.033966">
        <ele>109.176260</ele>
        <time>2017-06-07T15:12:51.000Z</time>
      </trkpt>
      <trkpt lat="43.963200" lon="5.033836">
        <ele>109.210075</ele>
        <time>2017-06-07T15:12:54.000Z</time>
      </trkpt>
      <trkpt lat="43.963135" lon="5.033705">
        <ele>109.243214</ele>
        <time>2017-06-07T15:12:57.000Z</time>
      </trkpt>
      <trkpt lat="43.963066" lon="5.033571">
        <ele>109.277529</ele>
        <time>2017-06-07T15:13:00.000Z</time>
      </trkpt>
      <trkpt lat="43.962986" lon="5.033429">
        <ele>109.315087</ele>
        <time>2017-06-07T15:13:03.000Z</time>
      </trkpt>
      <trkpt lat="43.962925" lon="5.033320">
        <ele>109.343844</ele>
        <time>2017-06-07T15:13:05.000Z</time>
      </trkpt>
      <trkpt lat="43.962880" lon="5.033206">
        <ele>109.370924</ele>
        <time>2017-06-07T15:13:07.000Z</time>
      </trkpt>
      <trkpt lat="43.962822" lon="5.033100">
        <ele>109.382757</ele>
        <time>2017-06-07T15:13:09.000Z</time>
      </trkpt>
      <trkpt lat="43.962770" lon="5.032996">
        <ele>109.299795</ele>
        <time>2017-06-07T15:13:11.000Z</time>
      </trkpt>
      <trkpt lat="43.962710" lon="5.032892">
        <ele>109.212473</ele>
        <time>2017-06-07T15:13:13.000Z</time>
      </trkpt>
      <trkpt lat="43.962658" lon="5.032774">
        <ele>109.121827</ele>
        <time>2017-06-07T15:13:15.000Z</time>
      </trkpt>
      <trkpt lat="43.962600" lon="5.032663">
        <ele>109.031963</ele>
        <time>2017-06-07T15:13:17.000Z</time>
      </trkpt>
      <trkpt lat="43.962536" lon="5.032558">
        <ele>108.941820</ele>
        <time>2017-06-07T15:13:19.000Z</time>
      </trkpt>
      <trkpt lat="43.962470" lon="5.032452">
        <ele>108.849996</ele>
        <time>2017-06-07T15:13:21.000Z</time>
      </trkpt>
      <trkpt lat="43.962406" lon="5.032345">
        <ele>108.758849</ele>
        <time>2017-06-07T15:13:23.000Z</time>
      </trkpt>
      <trkpt lat="43.962340" lon="5.032241">
        <ele>108.668012</ele>
        <time>2017-06-07T15:13:25.000Z</time>
      </trkpt>
      <trkpt lat="43.962257" lon="5.032100">
        <ele>108.548677</ele>
        <time>2017-06-07T15:13:28.000Z</time>
      </trkpt>
      <trkpt lat="43.962173" lon="5.031966">
        <ele>108.432259</ele>
        <time>2017-06-07T15:13:31.000Z</time>
      </trkpt>
      <trkpt lat="43.962093" lon="5.031831">
        <ele>108.317694</ele>
        <time>2017-06-07T15:13:34.000Z</time>
      </trkpt>
      <trkpt lat="43.962000" lon="5.031694">
        <ele>108.194317</ele>
        <time>2017-06-07T15:13:37.000Z</time>
      </trkpt>
      <trkpt lat="43.961933" lon="5.031609">
        <ele>108.111732</ele>
        <time>2017-06-07T15:13:39.000Z</time>
      </trkpt>
      <trkpt lat="43.961857" lon="5.031533">
        <ele>108.026500</ele>
        <time>2017-06-07T15:13:41.000Z</time>
      </trkpt>
      <trkpt lat="43.961754" lon="5.031443">
        <ele>107.915748</ele>
        <time>2017-06-07T15:13:44.000Z</time>
      </trkpt>
      <trkpt lat="43.961650" lon="5.031401">
        <ele>107.817168</ele>
        <time>2017-06-07T15:13:47.000Z</time>
      </trkpt>
      <trkpt lat="43.961544" lon="5.031464">
        <ele>107.703289</ele>
        <time>2017-06-07T15:13:51.000Z</time>
      </trkpt>
      <trkpt lat="43.961456" lon="5.031574">
        <ele>107.574354</ele>
        <time>2017-06-07T15:13:54.000Z</time>
      </trkpt>
      <trkpt lat="43.961346" lon="5.031662">
        <ele>107.436099</ele>
        <time>2017-06-07T15:13:57.000Z</time>
      </trkpt>
      <trkpt lat="43.961235" lon="5.031757">
        <ele>107.294100</ele>
        <time>2017-06-07T15:14:00.000Z</time>
      </trkpt>
      <trkpt lat="43.961150" lon="5.031822">
        <ele>107.188420</ele>
        <time>2017-06-07T15:14:02.000Z</time>
      </trkpt>
      <trkpt lat="43.961060" lon="5.031886">
        <ele>107.078298</ele>
        <time>2017-06-07T15:14:04.000Z</time>
      </trkpt>
      <trkpt lat="43.960970" lon="5.031943">
        <ele>106.970566</ele>
        <time>2017-06-07T15:14:06.000Z</time>
      </trkpt>
      <trkpt lat="43.960888" lon="5.032002">
        <ele>106.869986</ele>
        <time>2017-06-07T15:14:08.000Z</time>
      </trkpt>
      <trkpt lat="43.960800" lon="5.032057">
        <ele>106.764884</ele>
        <time>2017-06-07T15:14:10.000Z</time>
      </trkpt>
      <trkpt lat="43.960716" lon="5.032118">
        <ele>106.661648</ele>
        <time>2017-06-07T15:14:12.000Z</time>
      </trkpt>
      <trkpt lat="43.960630" lon="5.032182">
        <ele>106.555385</ele>
        <time>2017-06-07T15:14:14.000Z</time>
      </trkpt>
      <trkpt lat="43.960545" lon="5.032248">
        <ele>106.449325</ele>
        <time>2017-06-07T15:14:16.000Z</time>
      </trkpt>
      <trkpt lat="43.960457" lon="5.032315">
        <ele>106.340027</ele>
        <time>2017-06-07T15:14:18.000Z</time>
      </trkpt>
      <trkpt lat="43.960373" lon="5.032376">
        <ele>106.236790</ele>
        <time>2017-06-07T15:14:20.000Z</time>
      </trkpt>
      <trkpt lat="43.960293" lon="5.032440">
        <ele>106.136241</ele>
        <time>2017-06-07T15:14:22.000Z</time>
      </trkpt>
      <trkpt lat="43.960213" lon="5.032497">
        <ele>106.038314</ele>
        <time>2017-06-07T15:14:24.000Z</time>
      </trkpt>
      <trkpt lat="43.960130" lon="5.032558">
        <ele>105.936041</ele>
        <time>2017-06-07T15:14:26.000Z</time>
      </trkpt>
      <trkpt lat="43.960010" lon="5.032645">
        <ele>105.790796</ele>
        <time>2017-06-07T15:14:29.000Z</time>
      </trkpt>
      <trkpt lat="43.959900" lon="5.032652">
        <ele>105.696992</ele>
        <time>2017-06-07T15:14:32.000Z</time>
      </trkpt>
      <trkpt lat="43.959800" lon="5.032550">
        <ele>105.591308</ele>
        <time>2017-06-07T15:14:35.000Z</time>
      </trkpt>
      <trkpt lat="43.959736" lon="5.032453">
        <ele>105.510621</ele>
        <time>2017-06-07T15:14:37.000Z</time>
      </trkpt>
      <trkpt lat="43.959637" lon="5.032328">
        <ele>105.396656</ele>
        <time>2017-06-07T15:14:40.000Z</time>
      </trkpt>
      <trkpt lat="43.959557" lon="5.032245">
        <ele>105.311598</ele>
        <time>2017-06-07T15:14:42.000Z</time>
      </trkpt>
      <trkpt lat="43.959476" lon="5.032183">
        <ele>105.232816</ele>
        <time>2017-06-07T15:14:44.000Z</time>
      </trkpt>
      <trkpt lat="43.959390" lon="5.032136">
        <ele>105.154089</ele>
        <time>2017-06-07T15:14:46.000Z</time>
      </trkpt>
      <trkpt lat="43.959300" lon="5.032105">
        <ele>105.075099</ele>
        <time>2017-06-07T15:14:48.000Z</time>
      </trkpt>
      <trkpt lat="43.959200" lon="5.032105">
        <ele>104.989911</ele>
        <time>2017-06-07T15:14:50.000Z</time>
      </trkpt>
      <trkpt lat="43.959100" lon="5.032138">
        <ele>104.902353</ele>
        <time>2017-06-07T15:14:52.000Z</time>
      </trkpt>
      <trkpt lat="43.958992" lon="5.032188">
        <ele>104.805375</ele>
        <time>2017-06-07T15:14:54.000Z</time>
      </trkpt>
      <trkpt lat="43.958893" lon="5.032248">
        <ele>104.713363</ele>
        <time>2017-06-07T15:14:56.000Z</time>
      </trkpt>
      <trkpt lat="43.958790" lon="5.032303">
        <ele>104.619361</ele>
        <time>2017-06-07T15:14:58.000Z</time>
      </trkpt>
      <trkpt lat="43.958690" lon="5.032353">
        <ele>104.528823</ele>
        <time>2017-06-07T15:15:00.000Z</time>
      </trkpt>
      <trkpt lat="43.958588" lon="5.032407">
        <ele>104.435836</ele>
        <time>2017-06-07T15:15:02.000Z</time>
      </trkpt>
      <trkpt lat="43.958480" lon="5.032457">
        <ele>104.338859</ele>
        <time>2017-06-07T15:15:04.000Z</time>
      </trkpt>
      <trkpt lat="43.958374" lon="5.032511">
        <ele>104.299163</ele>
        <time>2017-06-07T15:15:06.000Z</time>
      </trkpt>
      <trkpt lat="43.958275" lon="5.032561">
        <ele>104.422963</ele>
        <time>2017-06-07T15:15:08.000Z</time>
      </trkpt>
      <trkpt lat="43.958176" lon="5.032622">
        <ele>104.550243</ele>
        <time>2017-06-07T15:15:10.000Z</time>
      </trkpt>
      <trkpt lat="43.958080" lon="5.032679">
        <ele>104.672940</ele>
        <time>2017-06-07T15:15:12.000Z</time>
      </trkpt>
      <trkpt lat="43.957980" lon="5.032715">
        <ele>104.794346</ele>
        <time>2017-06-07T15:15:14.000Z</time>
      </trkpt>
      <trkpt lat="43.957882" lon="5.032697">
        <ele>104.910523</ele>
        <time>2017-06-07T15:15:16.000Z</time>
      </trkpt>
      <trkpt lat="43.957798" lon="5.032645">
        <ele>105.018601</ele>
        <time>2017-06-07T15:15:18.000Z</time>
      </trkpt>
      <trkpt lat="43.957733" lon="5.032559">
        <ele>105.124096</ele>
        <time>2017-06-07T15:15:20.000Z</time>
      </trkpt>
      <trkpt lat="43.957638" lon="5.032440">
        <ele>105.274431</ele>
        <time>2017-06-07T15:15:23.000Z</time>
      </trkpt>
      <trkpt lat="43.957546" lon="5.032380">
        <ele>105.393875</ele>
        <time>2017-06-07T15:15:26.000Z</time>
      </trkpt>
      <trkpt lat="43.957462" lon="5.032495">
        <ele>105.532480</ele>
        <time>2017-06-07T15:15:29.000Z</time>
      </trkpt>
      <trkpt lat="43.957386" lon="5.032569">
        <ele>105.641554</ele>
        <time>2017-06-07T15:15:31.000Z</time>
      </trkpt>
      <trkpt lat="43.957310" lon="5.032650">
        <ele>105.754131</ele>
        <time>2017-06-07T15:15:33.000Z</time>
      </trkpt>
      <trkpt lat="43.957222" lon="5.032703">
        <ele>105.866855</ele>
        <time>2017-06-07T15:15:35.000Z</time>
      </trkpt>
      <trkpt lat="43.957108" lon="5.032794">
        <ele>106.021377</ele>
        <time>2017-06-07T15:15:38.000Z</time>
      </trkpt>
      <trkpt lat="43.956993" lon="5.032858">
        <ele>106.166972</ele>
        <time>2017-06-07T15:15:41.000Z</time>
      </trkpt>
      <trkpt lat="43.956913" lon="5.032747">
        <ele>106.299856</ele>
        <time>2017-06-07T15:15:45.000Z</time>
      </trkpt>
      <trkpt lat="43.956860" lon="5.032591">
        <ele>106.437085</ele>
        <time>2017-06-07T15:15:48.000Z</time>
      </trkpt>
      <trkpt lat="43.956806" lon="5.032431">
        <ele>106.566715</ele>
        <time>2017-06-07T15:15:51.000Z</time>
      </trkpt>
      <trkpt lat="43.956768" lon="5.032318">
        <ele>106.658207</ele>
        <time>2017-06-07T15:15:53.000Z</time>
      </trkpt>
      <trkpt lat="43.956730" lon="5.032155">
        <ele>106.783893</ele>
        <time>2017-06-07T15:15:56.000Z</time>
      </trkpt>
      <trkpt lat="43.956688" lon="5.032042">
        <ele>106.877183</ele>
        <time>2017-06-07T15:15:58.000Z</time>
      </trkpt>
      <trkpt lat="43.956630" lon="5.031936">
        <ele>106.974855</ele>
        <time>2017-06-07T15:16:00.000Z</time>
      </trkpt>
      <trkpt lat="43.956577" lon="5.031796">
        <ele>107.090890</ele>
        <time>2017-06-07T15:16:03.000Z</time>
      </trkpt>
      <trkpt lat="43.956535" lon="5.031674">
        <ele>107.190094</ele>
        <time>2017-06-07T15:16:06.000Z</time>
      </trkpt>
      <trkpt lat="43.956480" lon="5.031546">
        <ele>107.299446</ele>
        <time>2017-06-07T15:16:10.000Z</time>
      </trkpt>
      <trkpt lat="43.956430" lon="5.031441">
        <ele>107.391799</ele>
        <time>2017-06-07T15:16:15.000Z</time>
      </trkpt>
      <trkpt lat="43.956380" lon="5.031315">
        <ele>107.497342</ele>
        <time>2017-06-07T15:16:20.000Z</time>
      </trkpt>
      <trkpt lat="43.956333" lon="5.031169">
        <ele>107.614665</ele>
        <time>2017-06-07T15:16:24.000Z</time>
      </trkpt>
      <trkpt lat="43.956295" lon="5.031051">
        <ele>107.709494</ele>
        <time>2017-06-07T15:16:27.000Z</time>
      </trkpt>
      <trkpt lat="43.956223" lon="5.030939">
        <ele>107.819647</ele>
        <time>2017-06-07T15:16:32.000Z</time>
      </trkpt>
      <trkpt lat="43.956120" lon="5.030948">
        <ele>107.924815</ele>
        <time>2017-06-07T15:16:35.000Z</time>
      </trkpt>
      <trkpt lat="43.956024" lon="5.031000">
        <ele>108.029817</ele>
        <time>2017-06-07T15:16:39.000Z</time>
      </trkpt>
      <trkpt lat="43.955960" lon="5.031095">
        <ele>108.125264</ele>
        <time>2017-06-07T15:16:42.000Z</time>
      </trkpt>
      <trkpt lat="43.955883" lon="5.031190">
        <ele>108.184233</ele>
        <time>2017-06-07T15:16:45.000Z</time>
      </trkpt>
      <trkpt lat="43.955780" lon="5.031292">
        <ele>107.965772</ele>
        <time>2017-06-07T15:16:48.000Z</time>
      </trkpt>
      <trkpt lat="43.955660" lon="5.031368">
        <ele>107.738001</ele>
        <time>2017-06-07T15:16:51.000Z</time>
      </trkpt>
      <trkpt lat="43.955555" lon="5.031445">
        <ele>107.532942</ele>
        <time>2017-06-07T15:16:54.000Z</time>
      </trkpt>
      <trkpt lat="43.955437" lon="5.031527">
        <ele>107.305071</ele>
        <time>2017-06-07T15:16:57.000Z</time>
      </trkpt>
      <trkpt lat="43.955340" lon="5.031653">
        <ele>107.075713</ele>
        <time>2017-06-07T15:17:00.000Z</time>
      </trkpt>
      <trkpt lat="43.955270" lon="5.031804">
        <ele>106.852420</ele>
        <time>2017-06-07T15:17:03.000Z</time>
      </trkpt>
      <trkpt lat="43.955173" lon="5.031930">
        <ele>106.623063</ele>
        <time>2017-06-07T15:17:06.000Z</time>
      </trkpt>
      <trkpt lat="43.955100" lon="5.032039">
        <ele>106.437968</ele>
        <time>2017-06-07T15:17:08.000Z</time>
      </trkpt>
      <trkpt lat="43.955020" lon="5.032149">
        <ele>106.243563</ele>
        <time>2017-06-07T15:17:10.000Z</time>
      </trkpt>
      <trkpt lat="43.954930" lon="5.032271">
        <ele>106.026383</ele>
        <time>2017-06-07T15:17:12.000Z</time>
      </trkpt>
      <trkpt lat="43.954850" lon="5.032390">
        <ele>105.823950</ele>
        <time>2017-06-07T15:17:14.000Z</time>
      </trkpt>
      <trkpt lat="43.954750" lon="5.032520">
        <ele>105.587410</ele>
        <time>2017-06-07T15:17:16.000Z</time>
      </trkpt>
      <trkpt lat="43.954662" lon="5.032646">
        <ele>105.369147</ele>
        <time>2017-06-07T15:17:18.000Z</time>
      </trkpt>
      <trkpt lat="43.954575" lon="5.032780">
        <ele>105.144798</ele>
        <time>2017-06-07T15:17:20.000Z</time>
      </trkpt>
      <trkpt lat="43.954487" lon="5.032911">
        <ele>104.990868</ele>
        <time>2017-06-07T15:17:22.000Z</time>
      </trkpt>
      <trkpt lat="43.954403" lon="5.033030">
        <ele>104.860863</ele>
        <time>2017-06-07T15:17:24.000Z</time>
      </trkpt>
      <trkpt lat="43.954323" lon="5.033143">
        <ele>104.737235</ele>
        <time>2017-06-07T15:17:26.000Z</time>
      </trkpt>
      <trkpt lat="43.954250" lon="5.033251">
        <ele>104.621674</ele>
        <time>2017-06-07T15:17:28.000Z</time>
      </trkpt>
      <trkpt lat="43.954166" lon="5.033363">
        <ele>104.495510</ele>
        <time>2017-06-07T15:17:30.000Z</time>
      </trkpt>
      <trkpt lat="43.954094" lon="5.033472">
        <ele>104.380115</ele>
        <time>2017-06-07T15:17:32.000Z</time>
      </trkpt>
      <trkpt lat="43.954010" lon="5.033577">
        <ele>104.257669</ele>
        <time>2017-06-07T15:17:34.000Z</time>
      </trkpt>
      <trkpt lat="43.953926" lon="5.033694">
        <ele>104.128773</ele>
        <time>2017-06-07T15:17:36.000Z</time>
      </trkpt>
      <trkpt lat="43.953840" lon="5.033809">
        <ele>103.999424</ele>
        <time>2017-06-07T15:17:38.000Z</time>
      </trkpt>
      <trkpt lat="43.953750" lon="5.033939">
        <ele>103.858734</ele>
        <time>2017-06-07T15:17:40.000Z</time>
      </trkpt>
      <trkpt lat="43.953663" lon="5.034062">
        <ele>103.724224</ele>
        <time>2017-06-07T15:17:42.000Z</time>
      </trkpt>
      <trkpt lat="43.953570" lon="5.034181">
        <ele>103.587214</ele>
        <time>2017-06-07T15:17:44.000Z</time>
      </trkpt>
      <trkpt lat="43.953472" lon="5.034284">
        <ele>103.454053</ele>
        <time>2017-06-07T15:17:46.000Z</time>
      </trkpt>
      <trkpt lat="43.953370" lon="5.034382">
        <ele>103.319668</ele>
        <time>2017-06-07T15:17:48.000Z</time>
      </trkpt>
      <trkpt lat="43.953262" lon="5.034475">
        <ele>103.181980</ele>
        <time>2017-06-07T15:17:50.000Z</time>
      </trkpt>
      <trkpt lat="43.953156" lon="5.034559">
        <ele>103.172871</ele>
        <time>2017-06-07T15:17:52.000Z</time>
      </trkpt>
      <trkpt lat="43.953045" lon="5.034648">
        <ele>103.192191</ele>
        <time>2017-06-07T15:17:54.000Z</time>
      </trkpt>
      <trkpt lat="43.952938" lon="5.034743">
        <ele>103.211335</ele>
        <time>2017-06-07T15:17:56.000Z</time>
      </trkpt>
      <trkpt lat="43.952827" lon="5.034826">
        <ele>103.230338</ele>
        <time>2017-06-07T15:17:58.000Z</time>
      </trkpt>
      <trkpt lat="43.952732" lon="5.034899">
        <ele>103.246704</ele>
        <time>2017-06-07T15:18:00.000Z</time>
      </trkpt>
      <trkpt lat="43.952633" lon="5.034981">
        <ele>103.264080</ele>
        <time>2017-06-07T15:18:02.000Z</time>
      </trkpt>
      <trkpt lat="43.952530" lon="5.035058">
        <ele>103.281713</ele>
        <time>2017-06-07T15:18:04.000Z</time>
      </trkpt>
      <trkpt lat="43.952423" lon="5.035143">
        <ele>103.300295</ele>
        <time>2017-06-07T15:18:06.000Z</time>
      </trkpt>
      <trkpt lat="43.952320" lon="5.035227">
        <ele>103.318300</ele>
        <time>2017-06-07T15:18:08.000Z</time>
      </trkpt>
      <trkpt lat="43.952225" lon="5.035313">
        <ele>103.335394</ele>
        <time>2017-06-07T15:18:10.000Z</time>
      </trkpt>
      <trkpt lat="43.952145" lon="5.035430">
        <ele>103.352906</ele>
        <time>2017-06-07T15:18:12.000Z</time>
      </trkpt>
      <trkpt lat="43.952080" lon="5.035565">
        <ele>103.370531</ele>
        <time>2017-06-07T15:18:14.000Z</time>
      </trkpt>
      <trkpt lat="43.952026" lon="5.035703">
        <ele>103.387577</ele>
        <time>2017-06-07T15:18:16.000Z</time>
      </trkpt>
      <trkpt lat="43.951970" lon="5.035851">
        <ele>103.405723</ele>
        <time>2017-06-07T15:18:18.000Z</time>
      </trkpt>
      <trkpt lat="43.951916" lon="5.035991">
        <ele>103.422960</ele>
        <time>2017-06-07T15:18:20.000Z</time>
      </trkpt>
      <trkpt lat="43.951866" lon="5.036133">
        <ele>103.455450</ele>
        <time>2017-06-07T15:18:22.000Z</time>
      </trkpt>
      <trkpt lat="43.951817" lon="5.036278">
        <ele>103.496762</ele>
        <time>2017-06-07T15:18:24.000Z</time>
      </trkpt>
      <trkpt lat="43.951767" lon="5.036423">
        <ele>103.538228</ele>
        <time>2017-06-07T15:18:26.000Z</time>
      </trkpt>
      <trkpt lat="43.951725" lon="5.036568">
        <ele>103.578539</ele>
        <time>2017-06-07T15:18:28.000Z</time>
      </trkpt>
      <trkpt lat="43.951687" lon="5.036706">
        <ele>103.616646</ele>
        <time>2017-06-07T15:18:30.000Z</time>
      </trkpt>
      <trkpt lat="43.951645" lon="5.036849">
        <ele>103.656479</ele>
        <time>2017-06-07T15:18:32.000Z</time>
      </trkpt>
      <trkpt lat="43.951600" lon="5.036994">
        <ele>103.697204</ele>
        <time>2017-06-07T15:18:34.000Z</time>
      </trkpt>
      <trkpt lat="43.951553" lon="5.037138">
        <ele>103.737982</ele>
        <time>2017-06-07T15:18:36.000Z</time>
      </trkpt>
      <trkpt lat="43.951508" lon="5.037279">
        <ele>103.777762</ele>
        <time>2017-06-07T15:18:38.000Z</time>
      </trkpt>
      <trkpt lat="43.951460" lon="5.037416">
        <ele>103.817058</ele>
        <time>2017-06-07T15:18:40.000Z</time>
      </trkpt>
      <trkpt lat="43.951416" lon="5.037550">
        <ele>103.855044</ele>
        <time>2017-06-07T15:18:42.000Z</time>
      </trkpt>
      <trkpt lat="43.951360" lon="5.037683">
        <ele>103.894783</ele>
        <time>2017-06-07T15:18:44.000Z</time>
      </trkpt>
      <trkpt lat="43.951300" lon="5.037812">
        <ele>103.934394</ele>
        <time>2017-06-07T15:18:46.000Z</time>
      </trkpt>
      <trkpt lat="43.951237" lon="5.037934">
        <ele>103.973117</ele>
        <time>2017-06-07T15:18:48.000Z</time>
      </trkpt>
      <trkpt lat="43.951168" lon="5.038050">
        <ele>104.011926</ele>
        <time>2017-06-07T15:18:50.000Z</time>
      </trkpt>
      <trkpt lat="43.951090" lon="5.038161">
        <ele>104.051932</ele>
        <time>2017-06-07T15:18:52.000Z</time>
      </trkpt>
      <trkpt lat="43.951008" lon="5.038260">
        <ele>104.085843</ele>
        <time>2017-06-07T15:18:54.000Z</time>
      </trkpt>
      <trkpt lat="43.950924" lon="5.038358">
        <ele>104.113897</ele>
        <time>2017-06-07T15:18:56.000Z</time>
      </trkpt>
      <trkpt lat="43.950836" lon="5.038457">
        <ele>104.142857</ele>
        <time>2017-06-07T15:18:58.000Z</time>
      </trkpt>
      <trkpt lat="43.950752" lon="5.038556">
        <ele>104.171030</ele>
        <time>2017-06-07T15:19:00.000Z</time>
      </trkpt>
      <trkpt lat="43.950660" lon="5.038662">
        <ele>104.201598</ele>
        <time>2017-06-07T15:19:02.000Z</time>
      </trkpt>
      <trkpt lat="43.950577" lon="5.038776">
        <ele>104.231449</ele>
        <time>2017-06-07T15:19:04.000Z</time>
      </trkpt>
      <trkpt lat="43.950493" lon="5.038894">
        <ele>104.262002</ele>
        <time>2017-06-07T15:19:06.000Z</time>
      </trkpt>
      <trkpt lat="43.950417" lon="5.039019">
        <ele>104.292125</ele>
        <time>2017-06-07T15:19:08.000Z</time>
      </trkpt>
      <trkpt lat="43.950340" lon="5.039147">
        <ele>104.322836</ele>
        <time>2017-06-07T15:19:10.000Z</time>
      </trkpt>
      <trkpt lat="43.950264" lon="5.039277">
        <ele>104.353668</ele>
        <time>2017-06-07T15:19:12.000Z</time>
      </trkpt>
      <trkpt lat="43.950200" lon="5.039410">
        <ele>104.383122</ele>
        <time>2017-06-07T15:19:14.000Z</time>
      </trkpt>
      <trkpt lat="43.950138" lon="5.039542">
        <ele>104.412139</ele>
        <time>2017-06-07T15:19:16.000Z</time>
      </trkpt>
      <trkpt lat="43.950077" lon="5.039666">
        <ele>104.439790</ele>
        <time>2017-06-07T15:19:18.000Z</time>
      </trkpt>
      <trkpt lat="43.950012" lon="5.039782">
        <ele>104.466854</ele>
        <time>2017-06-07T15:19:20.000Z</time>
      </trkpt>
      <trkpt lat="43.949936" lon="5.039901">
        <ele>104.496142</ele>
        <time>2017-06-07T15:19:22.000Z</time>
      </trkpt>
      <trkpt lat="43.949852" lon="5.040011">
        <ele>104.525666</ele>
        <time>2017-06-07T15:19:24.000Z</time>
      </trkpt>
      <trkpt lat="43.949760" lon="5.040111">
        <ele>104.545672</ele>
        <time>2017-06-07T15:19:26.000Z</time>
      </trkpt>
      <trkpt lat="43.949673" lon="5.040200">
        <ele>104.561033</ele>
        <time>2017-06-07T15:19:28.000Z</time>
      </trkpt>
      <trkpt lat="43.949580" lon="5.040287">
        <ele>104.576973</ele>
        <time>2017-06-07T15:19:30.000Z</time>
      </trkpt>
      <trkpt lat="43.949490" lon="5.040376">
        <ele>104.592679</ele>
        <time>2017-06-07T15:19:32.000Z</time>
      </trkpt>
      <trkpt lat="43.949400" lon="5.040473">
        <ele>104.608874</ele>
        <time>2017-06-07T15:19:34.000Z</time>
      </trkpt>
      <trkpt lat="43.949310" lon="5.040572">
        <ele>104.625195</ele>
        <time>2017-06-07T15:19:36.000Z</time>
      </trkpt>
      <trkpt lat="43.949223" lon="5.040673">
        <ele>104.641315</ele>
        <time>2017-06-07T15:19:38.000Z</time>
      </trkpt>
      <trkpt lat="43.949123" lon="5.040766">
        <ele>104.658424</ele>
        <time>2017-06-07T15:19:40.000Z</time>
      </trkpt>
      <trkpt lat="43.949040" lon="5.040858">
        <ele>104.673520</ele>
        <time>2017-06-07T15:19:42.000Z</time>
      </trkpt>
      <trkpt lat="43.948950" lon="5.040940">
        <ele>104.688822</ele>
        <time>2017-06-07T15:19:44.000Z</time>
      </trkpt>
      <trkpt lat="43.948856" lon="5.041029">
        <ele>104.704994</ele>
        <time>2017-06-07T15:19:46.000Z</time>
      </trkpt>
      <trkpt lat="43.948772" lon="5.041138">
        <ele>104.721337</ele>
        <time>2017-06-07T15:19:48.000Z</time>
      </trkpt>
      <trkpt lat="43.948696" lon="5.041250">
        <ele>104.737089</ele>
        <time>2017-06-07T15:19:50.000Z</time>
      </trkpt>
      <trkpt lat="43.948624" lon="5.041358">
        <ele>104.752155</ele>
        <time>2017-06-07T15:19:52.000Z</time>
      </trkpt>
      <trkpt lat="43.948550" lon="5.041458">
        <ele>104.766832</ele>
        <time>2017-06-07T15:19:54.000Z</time>
      </trkpt>
      <trkpt lat="43.948475" lon="5.041554">
        <ele>104.781332</ele>
        <time>2017-06-07T15:19:56.000Z</time>
      </trkpt>
      <trkpt lat="43.948400" lon="5.041657">
        <ele>104.744687</ele>
        <time>2017-06-07T15:19:58.000Z</time>
      </trkpt>
      <trkpt lat="43.948330" lon="5.041754">
        <ele>104.659380</ele>
        <time>2017-06-07T15:20:00.000Z</time>
      </trkpt>
      <trkpt lat="43.948250" lon="5.041843">
        <ele>104.570951</ele>
        <time>2017-06-07T15:20:02.000Z</time>
      </trkpt>
      <trkpt lat="43.948160" lon="5.041923">
        <ele>104.478765</ele>
        <time>2017-06-07T15:20:04.000Z</time>
      </trkpt>
      <trkpt lat="43.948063" lon="5.042001">
        <ele>104.382067</ele>
        <time>2017-06-07T15:20:06.000Z</time>
      </trkpt>
      <trkpt lat="43.947968" lon="5.042070">
        <ele>104.289577</ele>
        <time>2017-06-07T15:20:08.000Z</time>
      </trkpt>
      <trkpt lat="43.947865" lon="5.042138">
        <ele>104.191187</ele>
        <time>2017-06-07T15:20:10.000Z</time>
      </trkpt>
      <trkpt lat="43.947770" lon="5.042210">
        <ele>104.097819</ele>
        <time>2017-06-07T15:20:12.000Z</time>
      </trkpt>
      <trkpt lat="43.947674" lon="5.042280">
        <ele>104.004277</ele>
        <time>2017-06-07T15:20:14.000Z</time>
      </trkpt>
      <trkpt lat="43.947580" lon="5.042363">
        <ele>103.908180</ele>
        <time>2017-06-07T15:20:16.000Z</time>
      </trkpt>
      <trkpt lat="43.947470" lon="5.042440">
        <ele>103.801907</ele>
        <time>2017-06-07T15:20:18.000Z</time>
      </trkpt>
      <trkpt lat="43.947380" lon="5.042508">
        <ele>103.713516</ele>
        <time>2017-06-07T15:20:20.000Z</time>
      </trkpt>
      <trkpt lat="43.947285" lon="5.042582">
        <ele>103.619546</ele>
        <time>2017-06-07T15:20:22.000Z</time>
      </trkpt>
      <trkpt lat="43.947193" lon="5.042659">
        <ele>103.526878</ele>
        <time>2017-06-07T15:20:24.000Z</time>
      </trkpt>
      <trkpt lat="43.947105" lon="5.042736">
        <ele>103.437147</ele>
        <time>2017-06-07T15:20:26.000Z</time>
      </trkpt>
      <trkpt lat="43.947006" lon="5.042813">
        <ele>103.339256</ele>
        <time>2017-06-07T15:20:28.000Z</time>
      </trkpt>
      <trkpt lat="43.946896" lon="5.042884">
        <ele>103.236059</ele>
        <time>2017-06-07T15:20:30.000Z</time>
      </trkpt>
      <trkpt lat="43.946796" lon="5.042984">
        <ele>103.187832</ele>
        <time>2017-06-07T15:20:32.000Z</time>
      </trkpt>
      <trkpt lat="43.946693" lon="5.043064">
        <ele>103.141644</ele>
        <time>2017-06-07T15:20:34.000Z</time>
      </trkpt>
      <trkpt lat="43.946598" lon="5.043144">
        <ele>103.098163</ele>
        <time>2017-06-07T15:20:36.000Z</time>
      </trkpt>
      <trkpt lat="43.946510" lon="5.043222">
        <ele>103.057306</ele>
        <time>2017-06-07T15:20:38.000Z</time>
      </trkpt>
      <trkpt lat="43.946415" lon="5.043298">
        <ele>103.014398</ele>
        <time>2017-06-07T15:20:40.000Z</time>
      </trkpt>
      <trkpt lat="43.946323" lon="5.043382">
        <ele>102.971307</ele>
        <time>2017-06-07T15:20:42.000Z</time>
      </trkpt>
      <trkpt lat="43.946228" lon="5.043452">
        <ele>102.929218</ele>
        <time>2017-06-07T15:20:44.000Z</time>
      </trkpt>
      <trkpt lat="43.946140" lon="5.043532">
        <ele>102.888054</ele>
        <time>2017-06-07T15:20:46.000Z</time>
      </trkpt>
      <trkpt lat="43.946045" lon="5.043608">
        <ele>102.845146</ele>
        <time>2017-06-07T15:20:48.000Z</time>
      </trkpt>
      <trkpt lat="43.945950" lon="5.043682">
        <ele>102.802517</ele>
        <time>2017-06-07T15:20:50.000Z</time>
      </trkpt>
      <trkpt lat="43.945847" lon="5.043757">
        <ele>102.757001</ele>
        <time>2017-06-07T15:20:52.000Z</time>
      </trkpt>
      <trkpt lat="43.945744" lon="5.043841">
        <ele>102.710253</ele>
        <time>2017-06-07T15:20:54.000Z</time>
      </trkpt>
      <trkpt lat="43.945637" lon="5.043928">
        <ele>102.661727</ele>
        <time>2017-06-07T15:20:56.000Z</time>
      </trkpt>
      <trkpt lat="43.945530" lon="5.044008">
        <ele>102.614167</ele>
        <time>2017-06-07T15:20:58.000Z</time>
      </trkpt>
      <trkpt lat="43.945427" lon="5.044091">
        <ele>102.567561</ele>
        <time>2017-06-07T15:21:00.000Z</time>
      </trkpt>
      <trkpt lat="43.945328" lon="5.044164">
        <ele>102.555002</ele>
        <time>2017-06-07T15:21:02.000Z</time>
      </trkpt>
      <trkpt lat="43.945230" lon="5.044226">
        <ele>102.650075</ele>
        <time>2017-06-07T15:21:04.000Z</time>
      </trkpt>
      <trkpt lat="43.945137" lon="5.044285">
        <ele>102.740341</ele>
        <time>2017-06-07T15:21:06.000Z</time>
      </trkpt>
      <trkpt lat="43.945040" lon="5.044350">
        <ele>102.835425</ele>
        <time>2017-06-07T15:21:08.000Z</time>
      </trkpt>
      <trkpt lat="43.944942" lon="5.044424">
        <ele>102.933905</ele>
        <time>2017-06-07T15:21:10.000Z</time>
      </trkpt>
      <trkpt lat="43.944843" lon="5.044491">
        <ele>103.031132</ele>
        <time>2017-06-07T15:21:12.000Z</time>
      </trkpt>
      <trkpt lat="43.944740" lon="5.044564">
        <ele>103.133222</ele>
        <time>2017-06-07T15:21:14.000Z</time>
      </trkpt>
      <trkpt lat="43.944633" lon="5.044645">
        <ele>103.240809</ele>
        <time>2017-06-07T15:21:16.000Z</time>
      </trkpt>
      <trkpt lat="43.944523" lon="5.044734">
        <ele>103.353200</ele>
        <time>2017-06-07T15:21:18.000Z</time>
      </trkpt>
      <trkpt lat="43.944420" lon="5.044819">
        <ele>103.458976</ele>
        <time>2017-06-07T15:21:20.000Z</time>
      </trkpt>
      <trkpt lat="43.944313" lon="5.044892">
        <ele>103.564224</ele>
        <time>2017-06-07T15:21:22.000Z</time>
      </trkpt>
      <trkpt lat="43.944210" lon="5.044956">
        <ele>103.663844</ele>
        <time>2017-06-07T15:21:24.000Z</time>
      </trkpt>
      <trkpt lat="43.944103" lon="5.045007">
        <ele>103.763718</ele>
        <time>2017-06-07T15:21:26.000Z</time>
      </trkpt>
      <trkpt lat="43.943977" lon="5.045038">
        <ele>103.876690</ele>
        <time>2017-06-07T15:21:28.000Z</time>
      </trkpt>
      <trkpt lat="43.943867" lon="5.045066">
        <ele>103.975422</ele>
        <time>2017-06-07T15:21:30.000Z</time>
      </trkpt>
      <trkpt lat="43.943760" lon="5.045116">
        <ele>104.075091</ele>
        <time>2017-06-07T15:21:32.000Z</time>
      </trkpt>
      <trkpt lat="43.943657" lon="5.045197">
        <ele>104.172782</ele>
        <time>2017-06-07T15:21:34.000Z</time>
      </trkpt>
      <trkpt lat="43.943558" lon="5.045287">
        <ele>104.265051</ele>
        <time>2017-06-07T15:21:36.000Z</time>
      </trkpt>
      <trkpt lat="43.943460" lon="5.045373">
        <ele>104.355449</ele>
        <time>2017-06-07T15:21:38.000Z</time>
      </trkpt>
      <trkpt lat="43.943367" lon="5.045475">
        <ele>104.447857</ele>
        <time>2017-06-07T15:21:40.000Z</time>
      </trkpt>
      <trkpt lat="43.943264" lon="5.045590">
        <ele>104.550914</ele>
        <time>2017-06-07T15:21:42.000Z</time>
      </trkpt>
      <trkpt lat="43.943170" lon="5.045689">
        <ele>104.642908</ele>
        <time>2017-06-07T15:21:44.000Z</time>
      </trkpt>
      <trkpt lat="43.943066" lon="5.045789">
        <ele>104.741548</ele>
        <time>2017-06-07T15:21:46.000Z</time>
      </trkpt>
      <trkpt lat="43.942947" lon="5.045873">
        <ele>104.845643</ele>
        <time>2017-06-07T15:21:48.000Z</time>
      </trkpt>
      <trkpt lat="43.942825" lon="5.045948">
        <ele>104.949683</ele>
        <time>2017-06-07T15:21:50.000Z</time>
      </trkpt>
      <trkpt lat="43.942703" lon="5.046034">
        <ele>105.056372</ele>
        <time>2017-06-07T15:21:52.000Z</time>
      </trkpt>
      <trkpt lat="43.942593" lon="5.046130">
        <ele>105.157681</ele>
        <time>2017-06-07T15:21:54.000Z</time>
      </trkpt>
      <trkpt lat="43.942490" lon="5.046238">
        <ele>105.258321</ele>
        <time>2017-06-07T15:21:56.000Z</time>
      </trkpt>
      <trkpt lat="43.942410" lon="5.046354">
        <ele>105.348510</ele>
        <time>2017-06-07T15:21:58.000Z</time>
      </trkpt>
      <trkpt lat="43.942340" lon="5.046459">
        <ele>105.428857</ele>
        <time>2017-06-07T15:22:00.000Z</time>
      </trkpt>
      <trkpt lat="43.942280" lon="5.046574">
        <ele>105.508598</ele>
        <time>2017-06-07T15:22:02.000Z</time>
      </trkpt>
      <trkpt lat="43.942210" lon="5.046699">
        <ele>105.500163</ele>
        <time>2017-06-07T15:22:04.000Z</time>
      </trkpt>
      <trkpt lat="43.942127" lon="5.046806">
        <ele>105.471772</ele>
        <time>2017-06-07T15:22:06.000Z</time>
      </trkpt>
      <trkpt lat="43.942028" lon="5.046900">
        <ele>105.441708</ele>
        <time>2017-06-07T15:22:08.000Z</time>
      </trkpt>
      <trkpt lat="43.941917" lon="5.046980">
        <ele>105.410357</ele>
        <time>2017-06-07T15:22:10.000Z</time>
      </trkpt>
      <trkpt lat="43.941807" lon="5.047042">
        <ele>105.380596</ele>
        <time>2017-06-07T15:22:12.000Z</time>
      </trkpt>
      <trkpt lat="43.941692" lon="5.047102">
        <ele>105.349799</ele>
        <time>2017-06-07T15:22:14.000Z</time>
      </trkpt>
      <trkpt lat="43.941578" lon="5.047165">
        <ele>105.319040</ele>
        <time>2017-06-07T15:22:16.000Z</time>
      </trkpt>
      <trkpt lat="43.941463" lon="5.047220">
        <ele>105.288548</ele>
        <time>2017-06-07T15:22:18.000Z</time>
      </trkpt>
      <trkpt lat="43.941350" lon="5.047272">
        <ele>105.258705</ele>
        <time>2017-06-07T15:22:20.000Z</time>
      </trkpt>
      <trkpt lat="43.941230" lon="5.047307">
        <ele>105.227966</ele>
        <time>2017-06-07T15:22:22.000Z</time>
      </trkpt>
      <trkpt lat="43.941113" lon="5.047336">
        <ele>105.198171</ele>
        <time>2017-06-07T15:22:24.000Z</time>
      </trkpt>
      <trkpt lat="43.940998" lon="5.047349">
        <ele>105.169246</ele>
        <time>2017-06-07T15:22:26.000Z</time>
      </trkpt>
      <trkpt lat="43.940880" lon="5.047345">
        <ele>105.139655</ele>
        <time>2017-06-07T15:22:28.000Z</time>
      </trkpt>
      <trkpt lat="43.940765" lon="5.047335">
        <ele>105.110769</ele>
        <time>2017-06-07T15:22:30.000Z</time>
      </trkpt>
      <trkpt lat="43.940655" lon="5.047327">
        <ele>105.083154</ele>
        <time>2017-06-07T15:22:32.000Z</time>
      </trkpt>
      <trkpt lat="43.940544" lon="5.047342">
        <ele>105.048955</ele>
        <time>2017-06-07T15:22:34.000Z</time>
      </trkpt>
      <trkpt lat="43.940437" lon="5.047377">
        <ele>105.011701</ele>
        <time>2017-06-07T15:22:36.000Z</time>
      </trkpt>
      <trkpt lat="43.940327" lon="5.047428">
        <ele>104.972400</ele>
        <time>2017-06-07T15:22:38.000Z</time>
      </trkpt>
      <trkpt lat="43.940228" lon="5.047505">
        <ele>104.933946</ele>
        <time>2017-06-07T15:22:40.000Z</time>
      </trkpt>
      <trkpt lat="43.940130" lon="5.047590">
        <ele>104.894789</ele>
        <time>2017-06-07T15:22:42.000Z</time>
      </trkpt>
      <trkpt lat="43.940056" lon="5.047678">
        <ele>104.861773</ele>
        <time>2017-06-07T15:22:44.000Z</time>
      </trkpt>
      <trkpt lat="43.939976" lon="5.047764">
        <ele>104.827488</ele>
        <time>2017-06-07T15:22:46.000Z</time>
      </trkpt>
      <trkpt lat="43.939900" lon="5.047856">
        <ele>104.793321</ele>
        <time>2017-06-07T15:22:48.000Z</time>
      </trkpt>
      <trkpt lat="43.939827" lon="5.047982">
        <ele>104.753857</ele>
        <time>2017-06-07T15:22:50.000Z</time>
      </trkpt>
      <trkpt lat="43.939740" lon="5.048118">
        <ele>104.709464</ele>
        <time>2017-06-07T15:22:52.000Z</time>
      </trkpt>
      <trkpt lat="43.939660" lon="5.048240">
        <ele>104.669198</ele>
        <time>2017-06-07T15:22:54.000Z</time>
      </trkpt>
      <trkpt lat="43.939594" lon="5.048359">
        <ele>104.632543</ele>
        <time>2017-06-07T15:22:56.000Z</time>
      </trkpt>
      <trkpt lat="43.939526" lon="5.048472">
        <ele>104.596606</ele>
        <time>2017-06-07T15:22:58.000Z</time>
      </trkpt>
      <trkpt lat="43.939465" lon="5.048569">
        <ele>104.565179</ele>
        <time>2017-06-07T15:23:00.000Z</time>
      </trkpt>
      <trkpt lat="43.939404" lon="5.048665">
        <ele>104.533936</ele>
        <time>2017-06-07T15:23:02.000Z</time>
      </trkpt>
      <trkpt lat="43.939330" lon="5.048756">
        <ele>104.500439</ele>
        <time>2017-06-07T15:23:04.000Z</time>
      </trkpt>
      <trkpt lat="43.939262" lon="5.048847">
        <ele>104.468435</ele>
        <time>2017-06-07T15:23:06.000Z</time>
      </trkpt>
      <trkpt lat="43.939194" lon="5.048936">
        <ele>104.573972</ele>
        <time>2017-06-07T15:23:08.000Z</time>
      </trkpt>
      <trkpt lat="43.939117" lon="5.049070">
        <ele>104.747792</ele>
        <time>2017-06-07T15:23:11.000Z</time>
      </trkpt>
      <trkpt lat="43.939064" lon="5.049226">
        <ele>104.922682</ele>
        <time>2017-06-07T15:23:14.000Z</time>
      </trkpt>
      <trkpt lat="43.939020" lon="5.049390">
        <ele>105.100128</ele>
        <time>2017-06-07T15:23:16.000Z</time>
      </trkpt>
      <trkpt lat="43.938990" lon="5.049556">
        <ele>105.273656</ele>
        <time>2017-06-07T15:23:18.000Z</time>
      </trkpt>
      <trkpt lat="43.938970" lon="5.049726">
        <ele>105.448305</ele>
        <time>2017-06-07T15:23:20.000Z</time>
      </trkpt>
      <trkpt lat="43.938946" lon="5.049888">
        <ele>105.615997</ele>
        <time>2017-06-07T15:23:22.000Z</time>
      </trkpt>
      <trkpt lat="43.938910" lon="5.050065">
        <ele>105.802480</ele>
        <time>2017-06-07T15:23:24.000Z</time>
      </trkpt>
      <trkpt lat="43.938866" lon="5.050221">
        <ele>105.972350</ele>
        <time>2017-06-07T15:23:26.000Z</time>
      </trkpt>
      <trkpt lat="43.938800" lon="5.050358">
        <ele>106.139475</ele>
        <time>2017-06-07T15:23:28.000Z</time>
      </trkpt>
      <trkpt lat="43.938720" lon="5.050489">
        <ele>106.313630</ele>
        <time>2017-06-07T15:23:30.000Z</time>
      </trkpt>
      <trkpt lat="43.938637" lon="5.050614">
        <ele>106.486027</ele>
        <time>2017-06-07T15:23:32.000Z</time>
      </trkpt>
      <trkpt lat="43.938550" lon="5.050745">
        <ele>106.666714</ele>
        <time>2017-06-07T15:23:34.000Z</time>
      </trkpt>
      <trkpt lat="43.938460" lon="5.050874">
        <ele>106.848830</ele>
        <time>2017-06-07T15:23:36.000Z</time>
      </trkpt>
      <trkpt lat="43.938374" lon="5.051010">
        <ele>107.012568</ele>
        <time>2017-06-07T15:23:38.000Z</time>
      </trkpt>
      <trkpt lat="43.938280" lon="5.051140">
        <ele>107.097850</ele>
        <time>2017-06-07T15:23:40.000Z</time>
      </trkpt>
      <trkpt lat="43.938190" lon="5.051265">
        <ele>107.179677</ele>
        <time>2017-06-07T15:23:42.000Z</time>
      </trkpt>
      <trkpt lat="43.938110" lon="5.051387">
        <ele>107.256060</ele>
        <time>2017-06-07T15:23:44.000Z</time>
      </trkpt>
      <trkpt lat="43.938030" lon="5.051509">
        <ele>107.332443</ele>
        <time>2017-06-07T15:23:46.000Z</time>
      </trkpt>
      <trkpt lat="43.937950" lon="5.051629">
        <ele>107.408144</ele>
        <time>2017-06-07T15:23:48.000Z</time>
      </trkpt>
      <trkpt lat="43.937866" lon="5.051757">
        <ele>107.488312</ele>
        <time>2017-06-07T15:23:50.000Z</time>
      </trkpt>
      <trkpt lat="43.937775" lon="5.051887">
        <ele>107.572239</ele>
        <time>2017-06-07T15:23:52.000Z</time>
      </trkpt>
      <trkpt lat="43.937687" lon="5.052016">
        <ele>107.654497</ele>
        <time>2017-06-07T15:23:54.000Z</time>
      </trkpt>
      <trkpt lat="43.937603" lon="5.052137">
        <ele>107.732300</ele>
        <time>2017-06-07T15:23:56.000Z</time>
      </trkpt>
      <trkpt lat="43.937520" lon="5.052250">
        <ele>107.807022</ele>
        <time>2017-06-07T15:23:58.000Z</time>
      </trkpt>
      <trkpt lat="43.937435" lon="5.052370">
        <ele>107.884942</ele>
        <time>2017-06-07T15:24:00.000Z</time>
      </trkpt>
      <trkpt lat="43.937360" lon="5.052487">
        <ele>107.957455</ele>
        <time>2017-06-07T15:24:02.000Z</time>
      </trkpt>
      <trkpt lat="43.937280" lon="5.052593">
        <ele>108.028537</ele>
        <time>2017-06-07T15:24:04.000Z</time>
      </trkpt>
      <trkpt lat="43.937200" lon="5.052706">
        <ele>108.101894</ele>
        <time>2017-06-07T15:24:06.000Z</time>
      </trkpt>
      <trkpt lat="43.937126" lon="5.052800">
        <ele>108.164409</ele>
        <time>2017-06-07T15:24:08.000Z</time>
      </trkpt>
      <trkpt lat="43.937010" lon="5.052952">
        <ele>108.252756</ele>
        <time>2017-06-07T15:24:11.000Z</time>
      </trkpt>
      <trkpt lat="43.936954" lon="5.053067">
        <ele>108.308133</ele>
        <time>2017-06-07T15:24:13.000Z</time>
      </trkpt>
      <trkpt lat="43.936920" lon="5.053196">
        <ele>108.362930</ele>
        <time>2017-06-07T15:24:15.000Z</time>
      </trkpt>
      <trkpt lat="43.936928" lon="5.053384">
        <ele>108.438053</ele>
        <time>2017-06-07T15:24:18.000Z</time>
      </trkpt>
      <trkpt lat="43.936947" lon="5.053516">
        <ele>108.491749</ele>
        <time>2017-06-07T15:24:20.000Z</time>
      </trkpt>
      <trkpt lat="43.936974" lon="5.053655">
        <ele>108.549177</ele>
        <time>2017-06-07T15:24:22.000Z</time>
      </trkpt>
      <trkpt lat="43.937000" lon="5.053797">
        <ele>108.607623</ele>
        <time>2017-06-07T15:24:24.000Z</time>
      </trkpt>
      <trkpt lat="43.937020" lon="5.053929">
        <ele>108.661430</ele>
        <time>2017-06-07T15:24:26.000Z</time>
      </trkpt>
      <trkpt lat="43.937057" lon="5.054069">
        <ele>108.720918</ele>
        <time>2017-06-07T15:24:28.000Z</time>
      </trkpt>
      <trkpt lat="43.937080" lon="5.054215">
        <ele>108.780534</ele>
        <time>2017-06-07T15:24:30.000Z</time>
      </trkpt>
      <trkpt lat="43.937107" lon="5.054359">
        <ele>108.839891</ele>
        <time>2017-06-07T15:24:32.000Z</time>
      </trkpt>
      <trkpt lat="43.937134" lon="5.054501">
        <ele>108.898475</ele>
        <time>2017-06-07T15:24:34.000Z</time>
      </trkpt>
      <trkpt lat="43.937164" lon="5.054638">
        <ele>108.955595</ele>
        <time>2017-06-07T15:24:36.000Z</time>
      </trkpt>
      <trkpt lat="43.937195" lon="5.054777">
        <ele>109.013639</ele>
        <time>2017-06-07T15:24:38.000Z</time>
      </trkpt>
      <trkpt lat="43.937218" lon="5.054912">
        <ele>109.068977</ele>
        <time>2017-06-07T15:24:40.000Z</time>
      </trkpt>
      <trkpt lat="43.937237" lon="5.055039">
        <ele>109.120718</ele>
        <time>2017-06-07T15:24:42.000Z</time>
      </trkpt>
      <trkpt lat="43.937260" lon="5.055167">
        <ele>109.105528</ele>
        <time>2017-06-07T15:24:44.000Z</time>
      </trkpt>
      <trkpt lat="43.937294" lon="5.055352">
        <ele>108.973227</ele>
        <time>2017-06-07T15:24:47.000Z</time>
      </trkpt>
      <trkpt lat="43.937317" lon="5.055474">
        <ele>108.885841</ele>
        <time>2017-06-07T15:24:49.000Z</time>
      </trkpt>
      <trkpt lat="43.937286" lon="5.055631">
        <ele>108.773037</ele>
        <time>2017-06-07T15:24:52.000Z</time>
      </trkpt>
      <trkpt lat="43.937170" lon="5.055681">
        <ele>108.656161</ele>
        <time>2017-06-07T15:24:55.000Z</time>
      </trkpt>
      <trkpt lat="43.937077" lon="5.055701">
        <ele>108.565604</ele>
        <time>2017-06-07T15:24:57.000Z</time>
      </trkpt>
      <trkpt lat="43.936970" lon="5.055728">
        <ele>108.460955</ele>
        <time>2017-06-07T15:24:59.000Z</time>
      </trkpt>
      <trkpt lat="43.936863" lon="5.055765">
        <ele>108.354849</ele>
        <time>2017-06-07T15:25:01.000Z</time>
      </trkpt>
      <trkpt lat="43.936756" lon="5.055793">
        <ele>108.250075</ele>
        <time>2017-06-07T15:25:03.000Z</time>
      </trkpt>
      <trkpt lat="43.936640" lon="5.055821">
        <ele>108.136779</ele>
        <time>2017-06-07T15:25:05.000Z</time>
      </trkpt>
      <trkpt lat="43.936530" lon="5.055842">
        <ele>108.029934</ele>
        <time>2017-06-07T15:25:07.000Z</time>
      </trkpt>
      <trkpt lat="43.936420" lon="5.055862">
        <ele>107.923182</ele>
        <time>2017-06-07T15:25:09.000Z</time>
      </trkpt>
      <trkpt lat="43.936314" lon="5.055885">
        <ele>107.819944</ele>
        <time>2017-06-07T15:25:11.000Z</time>
      </trkpt>
      <trkpt lat="43.936214" lon="5.055921">
        <ele>107.720537</ele>
        <time>2017-06-07T15:25:13.000Z</time>
      </trkpt>
      <trkpt lat="43.936110" lon="5.055952">
        <ele>107.618182</ele>
        <time>2017-06-07T15:25:15.000Z</time>
      </trkpt>
      <trkpt lat="43.936016" lon="5.055974">
        <ele>107.526454</ele>
        <time>2017-06-07T15:25:17.000Z</time>
      </trkpt>
      <trkpt lat="43.935925" lon="5.055990">
        <ele>107.438189</ele>
        <time>2017-06-07T15:25:19.000Z</time>
      </trkpt>
      <trkpt lat="43.935825" lon="5.056008">
        <ele>107.411246</ele>
        <time>2017-06-07T15:25:21.000Z</time>
      </trkpt>
      <trkpt lat="43.935722" lon="5.056029">
        <ele>107.402681</ele>
        <time>2017-06-07T15:25:23.000Z</time>
      </trkpt>
      <trkpt lat="43.935627" lon="5.056085">
        <ele>107.394189</ele>
        <time>2017-06-07T15:25:25.000Z</time>
      </trkpt>
      <trkpt lat="43.935547" lon="5.056163">
        <ele>107.386147</ele>
        <time>2017-06-07T15:25:27.000Z</time>
      </trkpt>
      <trkpt lat="43.935493" lon="5.056335">
        <ele>107.375030</ele>
        <time>2017-06-07T15:25:30.000Z</time>
      </trkpt>
      <trkpt lat="43.935470" lon="5.056468">
        <ele>107.366926</ele>
        <time>2017-06-07T15:25:32.000Z</time>
      </trkpt>
      <trkpt lat="43.935440" lon="5.056604">
        <ele>107.358499</ele>
        <time>2017-06-07T15:25:34.000Z</time>
      </trkpt>
      <trkpt lat="43.935413" lon="5.056758">
        <ele>107.349108</ele>
        <time>2017-06-07T15:25:36.000Z</time>
      </trkpt>
      <trkpt lat="43.935375" lon="5.056899">
        <ele>107.340189</ele>
        <time>2017-06-07T15:25:38.000Z</time>
      </trkpt>
      <trkpt lat="43.935337" lon="5.057043">
        <ele>107.331102</ele>
        <time>2017-06-07T15:25:40.000Z</time>
      </trkpt>
      <trkpt lat="43.935287" lon="5.057175">
        <ele>107.322266</ele>
        <time>2017-06-07T15:25:42.000Z</time>
      </trkpt>
      <trkpt lat="43.935220" lon="5.057309">
        <ele>107.312600</ele>
        <time>2017-06-07T15:25:44.000Z</time>
      </trkpt>
      <trkpt lat="43.935140" lon="5.057420">
        <ele>107.303296</ele>
        <time>2017-06-07T15:25:46.000Z</time>
      </trkpt>
      <trkpt lat="43.935050" lon="5.057496">
        <ele>107.294630</ele>
        <time>2017-06-07T15:25:48.000Z</time>
      </trkpt>
      <trkpt lat="43.934944" lon="5.057515">
        <ele>107.285836</ele>
        <time>2017-06-07T15:25:50.000Z</time>
      </trkpt>
      <trkpt lat="43.934845" lon="5.057499">
        <ele>107.277636</ele>
        <time>2017-06-07T15:25:52.000Z</time>
      </trkpt>
      <trkpt lat="43.934750" lon="5.057489">
        <ele>107.270089</ele>
        <time>2017-06-07T15:25:54.000Z</time>
      </trkpt>
      <trkpt lat="43.934647" lon="5.057499">
        <ele>107.392861</ele>
        <time>2017-06-07T15:25:56.000Z</time>
      </trkpt>
      <trkpt lat="43.934550" lon="5.057501">
        <ele>107.508211</ele>
        <time>2017-06-07T15:25:58.000Z</time>
      </trkpt>
      <trkpt lat="43.934650" lon="5.057493">
        <ele>107.627314</ele>
        <time>2017-06-07T15:26:10.000Z</time>
      </trkpt>
      <trkpt lat="43.934742" lon="5.057475">
        <ele>107.737787</ele>
        <time>2017-06-07T15:26:13.000Z</time>
      </trkpt>
      <trkpt lat="43.934834" lon="5.057463">
        <ele>107.847661</ele>
        <time>2017-06-07T15:26:16.000Z</time>
      </trkpt>
      <trkpt lat="43.934937" lon="5.057489">
        <ele>107.972140</ele>
        <time>2017-06-07T15:26:20.000Z</time>
      </trkpt>
      <trkpt lat="43.935036" lon="5.057521">
        <ele>108.093003</ele>
        <time>2017-06-07T15:26:25.000Z</time>
      </trkpt>
      <trkpt lat="43.934890" lon="5.057460">
        <ele>108.274292</ele>
        <time>2017-06-07T15:28:23.000Z</time>
      </trkpt>
      <trkpt lat="43.934788" lon="5.057453">
        <ele>108.395723</ele>
        <time>2017-06-07T15:28:26.000Z</time>
      </trkpt>
      <trkpt lat="43.934673" lon="5.057483">
        <ele>108.534856</ele>
        <time>2017-06-07T15:28:29.000Z</time>
      </trkpt>
      <trkpt lat="43.934574" lon="5.057494">
        <ele>108.652948</ele>
        <time>2017-06-07T15:28:32.000Z</time>
      </trkpt>
      <trkpt lat="43.934483" lon="5.057532">
        <ele>108.765939</ele>
        <time>2017-06-07T15:28:36.000Z</time>
      </trkpt>
      <trkpt lat="43.934387" lon="5.057546">
        <ele>108.880715</ele>
        <time>2017-06-07T15:28:40.000Z</time>
      </trkpt>
      <trkpt lat="43.934265" lon="5.057577">
        <ele>109.028188</ele>
        <time>2017-06-07T15:28:44.000Z</time>
      </trkpt>
      <trkpt lat="43.934170" lon="5.057604">
        <ele>109.143490</ele>
        <time>2017-06-07T15:28:47.000Z</time>
      </trkpt>
      <trkpt lat="43.934063" lon="5.057637">
        <ele>109.273818</ele>
        <time>2017-06-07T15:28:50.000Z</time>
      </trkpt>
      <trkpt lat="43.933950" lon="5.057683">
        <ele>109.409847</ele>
        <time>2017-06-07T15:28:53.000Z</time>
      </trkpt>
      <trkpt lat="43.933838" lon="5.057735">
        <ele>109.445391</ele>
        <time>2017-06-07T15:28:56.000Z</time>
      </trkpt>
      <trkpt lat="43.933727" lon="5.057794">
        <ele>109.481163</ele>
        <time>2017-06-07T15:28:59.000Z</time>
      </trkpt>
      <trkpt lat="43.933613" lon="5.057833">
        <ele>109.516501</ele>
        <time>2017-06-07T15:29:02.000Z</time>
      </trkpt>
      <trkpt lat="43.933487" lon="5.057892">
        <ele>109.556522</ele>
        <time>2017-06-07T15:29:05.000Z</time>
      </trkpt>
      <trkpt lat="43.933400" lon="5.057943">
        <ele>109.584945</ele>
        <time>2017-06-07T15:29:07.000Z</time>
      </trkpt>
      <trkpt lat="43.933308" lon="5.057983">
        <ele>109.613960</ele>
        <time>2017-06-07T15:29:09.000Z</time>
      </trkpt>
      <trkpt lat="43.933212" lon="5.058020">
        <ele>109.643947</ele>
        <time>2017-06-07T15:29:11.000Z</time>
      </trkpt>
      <trkpt lat="43.933113" lon="5.058061">
        <ele>109.675040</ele>
        <time>2017-06-07T15:29:13.000Z</time>
      </trkpt>
      <trkpt lat="43.933020" lon="5.058105">
        <ele>109.704611</ele>
        <time>2017-06-07T15:29:15.000Z</time>
      </trkpt>
      <trkpt lat="43.932934" lon="5.058147">
        <ele>109.732050</ele>
        <time>2017-06-07T15:29:17.000Z</time>
      </trkpt>
      <trkpt lat="43.932810" lon="5.058221">
        <ele>109.772672</ele>
        <time>2017-06-07T15:29:20.000Z</time>
      </trkpt>
      <trkpt lat="43.932697" lon="5.058281">
        <ele>109.809084</ele>
        <time>2017-06-07T15:29:23.000Z</time>
      </trkpt>
      <trkpt lat="43.932610" lon="5.058312">
        <ele>109.836117</ele>
        <time>2017-06-07T15:29:25.000Z</time>
      </trkpt>
      <trkpt lat="43.932514" lon="5.058358">
        <ele>109.866683</ele>
        <time>2017-06-07T15:29:27.000Z</time>
      </trkpt>
      <trkpt lat="43.932420" lon="5.058407">
        <ele>109.896903</ele>
        <time>2017-06-07T15:29:29.000Z</time>
      </trkpt>
      <trkpt lat="43.932316" lon="5.058453">
        <ele>109.929754</ele>
        <time>2017-06-07T15:29:31.000Z</time>
      </trkpt>
      <trkpt lat="43.932220" lon="5.058499">
        <ele>109.964970</ele>
        <time>2017-06-07T15:29:33.000Z</time>
      </trkpt>
      <trkpt lat="43.932133" lon="5.058543">
        <ele>110.005212</ele>
        <time>2017-06-07T15:29:35.000Z</time>
      </trkpt>
      <trkpt lat="43.932050" lon="5.058593">
        <ele>110.044534</ele>
        <time>2017-06-07T15:29:37.000Z</time>
      </trkpt>
      <trkpt lat="43.931953" lon="5.058635">
        <ele>110.088695</ele>
        <time>2017-06-07T15:29:39.000Z</time>
      </trkpt>
      <trkpt lat="43.931854" lon="5.058686">
        <ele>110.134588</ele>
        <time>2017-06-07T15:29:41.000Z</time>
      </trkpt>
      <trkpt lat="43.931760" lon="5.058736">
        <ele>110.178337</ele>
        <time>2017-06-07T15:29:43.000Z</time>
      </trkpt>
      <trkpt lat="43.931664" lon="5.058785">
        <ele>110.222790</ele>
        <time>2017-06-07T15:29:45.000Z</time>
      </trkpt>
      <trkpt lat="43.931564" lon="5.058839">
        <ele>110.269423</ele>
        <time>2017-06-07T15:29:47.000Z</time>
      </trkpt>
      <trkpt lat="43.931465" lon="5.058899">
        <ele>110.316370</ele>
        <time>2017-06-07T15:29:49.000Z</time>
      </trkpt>
      <trkpt lat="43.931370" lon="5.058948">
        <ele>110.360416</ele>
        <time>2017-06-07T15:29:51.000Z</time>
      </trkpt>
      <trkpt lat="43.931274" lon="5.058997">
        <ele>110.404869</ele>
        <time>2017-06-07T15:29:53.000Z</time>
      </trkpt>
      <trkpt lat="43.931180" lon="5.059043">
        <ele>110.448186</ele>
        <time>2017-06-07T15:29:55.000Z</time>
      </trkpt>
      <trkpt lat="43.931087" lon="5.059085">
        <ele>110.490690</ele>
        <time>2017-06-07T15:29:57.000Z</time>
      </trkpt>
      <trkpt lat="43.930977" lon="5.059102">
        <ele>110.538793</ele>
        <time>2017-06-07T15:30:00.000Z</time>
      </trkpt>
      <trkpt lat="43.930885" lon="5.059053">
        <ele>110.581619</ele>
        <time>2017-06-07T15:30:04.000Z</time>
      </trkpt>
      <trkpt lat="43.930775" lon="5.059001">
        <ele>110.632122</ele>
        <time>2017-06-07T15:30:08.000Z</time>
      </trkpt>
      <trkpt lat="43.930670" lon="5.059070">
        <ele>110.682610</ele>
        <time>2017-06-07T15:30:11.000Z</time>
      </trkpt>
      <trkpt lat="43.930637" lon="5.059231">
        <ele>110.737323</ele>
        <time>2017-06-07T15:30:14.000Z</time>
      </trkpt>
      <trkpt lat="43.930573" lon="5.059375">
        <ele>110.826090</ele>
        <time>2017-06-07T15:30:17.000Z</time>
      </trkpt>
      <trkpt lat="43.930447" lon="5.059457">
        <ele>110.927450</ele>
        <time>2017-06-07T15:30:20.000Z</time>
      </trkpt>
      <trkpt lat="43.930355" lon="5.059504">
        <ele>110.998855</ele>
        <time>2017-06-07T15:30:22.000Z</time>
      </trkpt>
      <trkpt lat="43.930260" lon="5.059557">
        <ele>111.073430</ele>
        <time>2017-06-07T15:30:24.000Z</time>
      </trkpt>
      <trkpt lat="43.930170" lon="5.059607">
        <ele>111.144039</ele>
        <time>2017-06-07T15:30:26.000Z</time>
      </trkpt>
      <trkpt lat="43.930077" lon="5.059674">
        <ele>111.220356</ele>
        <time>2017-06-07T15:30:28.000Z</time>
      </trkpt>
      <trkpt lat="43.929980" lon="5.059754">
        <ele>111.302535</ele>
        <time>2017-06-07T15:30:30.000Z</time>
      </trkpt>
      <trkpt lat="43.929890" lon="5.059837">
        <ele>111.381234</ele>
        <time>2017-06-07T15:30:32.000Z</time>
      </trkpt>
      <trkpt lat="43.929800" lon="5.059919">
        <ele>111.459644</ele>
        <time>2017-06-07T15:30:34.000Z</time>
      </trkpt>
      <trkpt lat="43.929720" lon="5.060002">
        <ele>111.532387</ele>
        <time>2017-06-07T15:30:36.000Z</time>
      </trkpt>
      <trkpt lat="43.929646" lon="5.060093">
        <ele>111.604389</ele>
        <time>2017-06-07T15:30:38.000Z</time>
      </trkpt>
      <trkpt lat="43.929554" lon="5.060177">
        <ele>111.684592</ele>
        <time>2017-06-07T15:30:40.000Z</time>
      </trkpt>
      <trkpt lat="43.929462" lon="5.060257">
        <ele>111.763662</ele>
        <time>2017-06-07T15:30:42.000Z</time>
      </trkpt>
      <trkpt lat="43.929370" lon="5.060346">
        <ele>111.845336</ele>
        <time>2017-06-07T15:30:44.000Z</time>
      </trkpt>
      <trkpt lat="43.929287" lon="5.060436">
        <ele>111.922045</ele>
        <time>2017-06-07T15:30:46.000Z</time>
      </trkpt>
      <trkpt lat="43.929190" lon="5.060543">
        <ele>112.012284</ele>
        <time>2017-06-07T15:30:48.000Z</time>
      </trkpt>
      <trkpt lat="43.929092" lon="5.060630">
        <ele>112.014726</ele>
        <time>2017-06-07T15:30:50.000Z</time>
      </trkpt>
      <trkpt lat="43.928997" lon="5.060731">
        <ele>111.972181</ele>
        <time>2017-06-07T15:30:52.000Z</time>
      </trkpt>
      <trkpt lat="43.928900" lon="5.060822">
        <ele>111.930555</ele>
        <time>2017-06-07T15:30:54.000Z</time>
      </trkpt>
      <trkpt lat="43.928806" lon="5.060908">
        <ele>111.890527</ele>
        <time>2017-06-07T15:30:56.000Z</time>
      </trkpt>
      <trkpt lat="43.928707" lon="5.061007">
        <ele>111.847145</ele>
        <time>2017-06-07T15:30:58.000Z</time>
      </trkpt>
      <trkpt lat="43.928608" lon="5.061101">
        <ele>111.804499</ele>
        <time>2017-06-07T15:31:00.000Z</time>
      </trkpt>
      <trkpt lat="43.928500" lon="5.061201">
        <ele>111.758341</ele>
        <time>2017-06-07T15:31:02.000Z</time>
      </trkpt>
      <trkpt lat="43.928402" lon="5.061298">
        <ele>111.715546</ele>
        <time>2017-06-07T15:31:04.000Z</time>
      </trkpt>
      <trkpt lat="43.928307" lon="5.061389">
        <ele>111.674507</ele>
        <time>2017-06-07T15:31:06.000Z</time>
      </trkpt>
      <trkpt lat="43.928210" lon="5.061472">
        <ele>111.633993</ele>
        <time>2017-06-07T15:31:08.000Z</time>
      </trkpt>
      <trkpt lat="43.928120" lon="5.061543">
        <ele>111.597186</ele>
        <time>2017-06-07T15:31:10.000Z</time>
      </trkpt>
      <trkpt lat="43.928024" lon="5.061619">
        <ele>111.557891</ele>
        <time>2017-06-07T15:31:12.000Z</time>
      </trkpt>
      <trkpt lat="43.927937" lon="5.061710">
        <ele>111.519160</ele>
        <time>2017-06-07T15:31:14.000Z</time>
      </trkpt>
      <trkpt lat="43.927850" lon="5.061807">
        <ele>111.479486</ele>
        <time>2017-06-07T15:31:16.000Z</time>
      </trkpt>
      <trkpt lat="43.927765" lon="5.061906">
        <ele>111.440036</ele>
        <time>2017-06-07T15:31:18.000Z</time>
      </trkpt>
      <trkpt lat="43.927690" lon="5.062007">
        <ele>111.402884</ele>
        <time>2017-06-07T15:31:20.000Z</time>
      </trkpt>
      <trkpt lat="43.927605" lon="5.062105">
        <ele>111.477154</ele>
        <time>2017-06-07T15:31:22.000Z</time>
      </trkpt>
      <trkpt lat="43.927520" lon="5.062203">
        <ele>111.553567</ele>
        <time>2017-06-07T15:31:24.000Z</time>
      </trkpt>
      <trkpt lat="43.927437" lon="5.062304">
        <ele>111.629897</ele>
        <time>2017-06-07T15:31:26.000Z</time>
      </trkpt>
      <trkpt lat="43.927353" lon="5.062407">
        <ele>111.707404</ele>
        <time>2017-06-07T15:31:28.000Z</time>
      </trkpt>
      <trkpt lat="43.927265" lon="5.062505">
        <ele>111.785424</ele>
        <time>2017-06-07T15:31:30.000Z</time>
      </trkpt>
      <trkpt lat="43.927174" lon="5.062596">
        <ele>111.862986</ele>
        <time>2017-06-07T15:31:32.000Z</time>
      </trkpt>
      <trkpt lat="43.927086" lon="5.062670">
        <ele>111.934140</ele>
        <time>2017-06-07T15:31:34.000Z</time>
      </trkpt>
      <trkpt lat="43.927006" lon="5.062749">
        <ele>112.002036</ele>
        <time>2017-06-07T15:31:36.000Z</time>
      </trkpt>
      <trkpt lat="43.926918" lon="5.062812">
        <ele>112.070512</ele>
        <time>2017-06-07T15:31:38.000Z</time>
      </trkpt>
      <trkpt lat="43.926834" lon="5.062874">
        <ele>112.136306</ele>
        <time>2017-06-07T15:31:40.000Z</time>
      </trkpt>
      <trkpt lat="43.926727" lon="5.062953">
        <ele>112.220121</ele>
        <time>2017-06-07T15:31:43.000Z</time>
      </trkpt>
      <trkpt lat="43.926640" lon="5.063003">
        <ele>112.285243</ele>
        <time>2017-06-07T15:31:46.000Z</time>
      </trkpt>
      <trkpt lat="43.926537" lon="5.063056">
        <ele>112.361214</ele>
        <time>2017-06-07T15:31:50.000Z</time>
      </trkpt>
      <trkpt lat="43.926420" lon="5.063050">
        <ele>112.442188</ele>
        <time>2017-06-07T15:31:54.000Z</time>
      </trkpt>
      <trkpt lat="43.926323" lon="5.063034">
        <ele>112.509746</ele>
        <time>2017-06-07T15:31:57.000Z</time>
      </trkpt>
      <trkpt lat="43.926220" lon="5.063021">
        <ele>112.581276</ele>
        <time>2017-06-07T15:32:00.000Z</time>
      </trkpt>
      <trkpt lat="43.926117" lon="5.063000">
        <ele>112.649398</ele>
        <time>2017-06-07T15:32:03.000Z</time>
      </trkpt>
      <trkpt lat="43.926014" lon="5.062982">
        <ele>112.682247</ele>
        <time>2017-06-07T15:32:06.000Z</time>
      </trkpt>
      <trkpt lat="43.925920" lon="5.062966">
        <ele>112.712215</ele>
        <time>2017-06-07T15:32:09.000Z</time>
      </trkpt>
      <trkpt lat="43.925804" lon="5.062928">
        <ele>112.749929</ele>
        <time>2017-06-07T15:32:13.000Z</time>
      </trkpt>
      <trkpt lat="43.925735" lon="5.062824">
        <ele>112.782155</ele>
        <time>2017-06-07T15:32:16.000Z</time>
      </trkpt>
      <trkpt lat="43.925640" lon="5.062753">
        <ele>112.816295</ele>
        <time>2017-06-07T15:32:19.000Z</time>
      </trkpt>
      <trkpt lat="43.925540" lon="5.062745">
        <ele>112.847991</ele>
        <time>2017-06-07T15:32:22.000Z</time>
      </trkpt>
      <trkpt lat="43.925440" lon="5.062666">
        <ele>112.884398</ele>
        <time>2017-06-07T15:32:25.000Z</time>
      </trkpt>
      <trkpt lat="43.925346" lon="5.062555">
        <ele>112.923446</ele>
        <time>2017-06-07T15:32:28.000Z</time>
      </trkpt>
      <trkpt lat="43.925274" lon="5.062445">
        <ele>112.957322</ele>
        <time>2017-06-07T15:32:31.000Z</time>
      </trkpt>
      <trkpt lat="43.925194" lon="5.062344">
        <ele>112.991538</ele>
        <time>2017-06-07T15:32:34.000Z</time>
      </trkpt>
      <trkpt lat="43.925148" lon="5.062221">
        <ele>113.023124</ele>
        <time>2017-06-07T15:32:37.000Z</time>
      </trkpt>
      <trkpt lat="43.925080" lon="5.062100">
        <ele>113.058103</ele>
        <time>2017-06-07T15:32:40.000Z</time>
      </trkpt>
      <trkpt lat="43.924980" lon="5.061975">
        <ele>113.100681</ele>
        <time>2017-06-07T15:32:43.000Z</time>
      </trkpt>
      <trkpt lat="43.924910" lon="5.061888">
        <ele>113.130410</ele>
        <time>2017-06-07T15:32:45.000Z</time>
      </trkpt>
      <trkpt lat="43.924835" lon="5.061790">
        <ele>113.163000</ele>
        <time>2017-06-07T15:32:47.000Z</time>
      </trkpt>
      <trkpt lat="43.924763" lon="5.061691">
        <ele>113.195065</ele>
        <time>2017-06-07T15:32:49.000Z</time>
      </trkpt>
      <trkpt lat="43.924694" lon="5.061592">
        <ele>113.193493</ele>
        <time>2017-06-07T15:32:51.000Z</time>
      </trkpt>
      <trkpt lat="43.924620" lon="5.061495">
        <ele>113.130773</ele>
        <time>2017-06-07T15:32:53.000Z</time>
      </trkpt>
      <trkpt lat="43.924553" lon="5.061401">
        <ele>113.072070</ele>
        <time>2017-06-07T15:32:55.000Z</time>
      </trkpt>
      <trkpt lat="43.924484" lon="5.061309">
        <ele>113.013112</ele>
        <time>2017-06-07T15:32:57.000Z</time>
      </trkpt>
      <trkpt lat="43.924400" lon="5.061192">
        <ele>112.939782</ele>
        <time>2017-06-07T15:33:00.000Z</time>
      </trkpt>
      <trkpt lat="43.924313" lon="5.061093">
        <ele>112.870456</ele>
        <time>2017-06-07T15:33:03.000Z</time>
      </trkpt>
      <trkpt lat="43.924240" lon="5.060995">
        <ele>112.807874</ele>
        <time>2017-06-07T15:33:06.000Z</time>
      </trkpt>
      <trkpt lat="43.924160" lon="5.060886">
        <ele>112.738795</ele>
        <time>2017-06-07T15:33:10.000Z</time>
      </trkpt>
      <trkpt lat="43.924088" lon="5.060779">
        <ele>112.673796</ele>
        <time>2017-06-07T15:33:14.000Z</time>
      </trkpt>
      <trkpt lat="43.924000" lon="5.060657">
        <ele>112.597153</ele>
        <time>2017-06-07T15:33:17.000Z</time>
      </trkpt>
      <trkpt lat="43.923935" lon="5.060571">
        <ele>112.541817</ele>
        <time>2017-06-07T15:33:19.000Z</time>
      </trkpt>
      <trkpt lat="43.923862" lon="5.060480">
        <ele>112.481354</ele>
        <time>2017-06-07T15:33:21.000Z</time>
      </trkpt>
      <trkpt lat="43.923782" lon="5.060367">
        <ele>112.411019</ele>
        <time>2017-06-07T15:33:23.000Z</time>
      </trkpt>
      <trkpt lat="43.923702" lon="5.060253">
        <ele>112.340368</ele>
        <time>2017-06-07T15:33:25.000Z</time>
      </trkpt>
      <trkpt lat="43.923620" lon="5.060142">
        <ele>112.269787</ele>
        <time>2017-06-07T15:33:27.000Z</time>
      </trkpt>
      <trkpt lat="43.923530" lon="5.060024">
        <ele>112.193496</ele>
        <time>2017-06-07T15:33:29.000Z</time>
      </trkpt>
      <trkpt lat="43.923440" lon="5.059906">
        <ele>112.117206</ele>
        <time>2017-06-07T15:33:31.000Z</time>
      </trkpt>
      <trkpt lat="43.923355" lon="5.059783">
        <ele>112.048569</ele>
        <time>2017-06-07T15:33:33.000Z</time>
      </trkpt>
      <trkpt lat="43.923267" lon="5.059663">
        <ele>111.980740</ele>
        <time>2017-06-07T15:33:35.000Z</time>
      </trkpt>
      <trkpt lat="43.923183" lon="5.059547">
        <ele>111.915589</ele>
        <time>2017-06-07T15:33:37.000Z</time>
      </trkpt>
      <trkpt lat="43.923100" lon="5.059442">
        <ele>111.853842</ele>
        <time>2017-06-07T15:33:39.000Z</time>
      </trkpt>
      <trkpt lat="43.923023" lon="5.059343">
        <ele>111.796132</ele>
        <time>2017-06-07T15:33:41.000Z</time>
      </trkpt>
      <trkpt lat="43.922950" lon="5.059242">
        <ele>111.739460</ele>
        <time>2017-06-07T15:33:43.000Z</time>
      </trkpt>
      <trkpt lat="43.922870" lon="5.059138">
        <ele>111.679193</ele>
        <time>2017-06-07T15:33:45.000Z</time>
      </trkpt>
      <trkpt lat="43.922794" lon="5.059031">
        <ele>111.619672</ele>
        <time>2017-06-07T15:33:47.000Z</time>
      </trkpt>
      <trkpt lat="43.922720" lon="5.058924">
        <ele>111.560918</ele>
        <time>2017-06-07T15:33:49.000Z</time>
      </trkpt>
      <trkpt lat="43.922650" lon="5.058826">
        <ele>111.506252</ele>
        <time>2017-06-07T15:33:51.000Z</time>
      </trkpt>
      <trkpt lat="43.922573" lon="5.058728">
        <ele>111.448810</ele>
        <time>2017-06-07T15:33:53.000Z</time>
      </trkpt>
      <trkpt lat="43.922493" lon="5.058622">
        <ele>111.387999</ele>
        <time>2017-06-07T15:33:55.000Z</time>
      </trkpt>
      <trkpt lat="43.922420" lon="5.058517">
        <ele>111.330197</ele>
        <time>2017-06-07T15:33:57.000Z</time>
      </trkpt>
      <trkpt lat="43.922344" lon="5.058413">
        <ele>111.271516</ele>
        <time>2017-06-07T15:33:59.000Z</time>
      </trkpt>
      <trkpt lat="43.922270" lon="5.058315">
        <ele>111.215280</ele>
        <time>2017-06-07T15:34:01.000Z</time>
      </trkpt>
      <trkpt lat="43.922200" lon="5.058205">
        <ele>111.157142</ele>
        <time>2017-06-07T15:34:04.000Z</time>
      </trkpt>
      <trkpt lat="43.922120" lon="5.058113">
        <ele>111.121919</ele>
        <time>2017-06-07T15:34:08.000Z</time>
      </trkpt>
      <trkpt lat="43.922043" lon="5.058005">
        <ele>111.136261</ele>
        <time>2017-06-07T15:34:11.000Z</time>
      </trkpt>
      <trkpt lat="43.921955" lon="5.057890">
        <ele>111.152096</ele>
        <time>2017-06-07T15:34:14.000Z</time>
      </trkpt>
      <trkpt lat="43.921875" lon="5.057786">
        <ele>111.166457</ele>
        <time>2017-06-07T15:34:17.000Z</time>
      </trkpt>
      <trkpt lat="43.921783" lon="5.057653">
        <ele>111.183861</ele>
        <time>2017-06-07T15:34:20.000Z</time>
      </trkpt>
      <trkpt lat="43.921710" lon="5.057552">
        <ele>111.197365</ele>
        <time>2017-06-07T15:34:22.000Z</time>
      </trkpt>
      <trkpt lat="43.921630" lon="5.057447">
        <ele>111.211791</ele>
        <time>2017-06-07T15:34:24.000Z</time>
      </trkpt>
      <trkpt lat="43.921550" lon="5.057342">
        <ele>111.226216</ele>
        <time>2017-06-07T15:34:26.000Z</time>
      </trkpt>
      <trkpt lat="43.921474" lon="5.057235">
        <ele>111.240399</ele>
        <time>2017-06-07T15:34:28.000Z</time>
      </trkpt>
      <trkpt lat="43.921402" lon="5.057132">
        <ele>111.253946</ele>
        <time>2017-06-07T15:34:30.000Z</time>
      </trkpt>
      <trkpt lat="43.921333" lon="5.057036">
        <ele>111.266746</ele>
        <time>2017-06-07T15:34:32.000Z</time>
      </trkpt>
      <trkpt lat="43.921265" lon="5.056952">
        <ele>111.278672</ele>
        <time>2017-06-07T15:34:34.000Z</time>
      </trkpt>
      <trkpt lat="43.921170" lon="5.056828">
        <ele>111.295758</ele>
        <time>2017-06-07T15:34:37.000Z</time>
      </trkpt>
      <trkpt lat="43.921070" lon="5.056704">
        <ele>111.313327</ele>
        <time>2017-06-07T15:34:40.000Z</time>
      </trkpt>
      <trkpt lat="43.920980" lon="5.056579">
        <ele>111.330008</ele>
        <time>2017-06-07T15:34:43.000Z</time>
      </trkpt>
      <trkpt lat="43.920887" lon="5.056458">
        <ele>111.346709</ele>
        <time>2017-06-07T15:34:46.000Z</time>
      </trkpt>
      <trkpt lat="43.920795" lon="5.056350">
        <ele>111.437651</ele>
        <time>2017-06-07T15:34:49.000Z</time>
      </trkpt>
      <trkpt lat="43.920715" lon="5.056262">
        <ele>111.561347</ele>
        <time>2017-06-07T15:34:52.000Z</time>
      </trkpt>
      <trkpt lat="43.920660" lon="5.056164">
        <ele>111.669797</ele>
        <time>2017-06-07T15:34:55.000Z</time>
      </trkpt>
      <trkpt lat="43.920600" lon="5.056066">
        <ele>111.782072</ele>
        <time>2017-06-07T15:34:58.000Z</time>
      </trkpt>
      <trkpt lat="43.920574" lon="5.055918">
        <ele>111.915053</ele>
        <time>2017-06-07T15:35:02.000Z</time>
      </trkpt>
      <trkpt lat="43.920532" lon="5.055803">
        <ele>112.027608</ele>
        <time>2017-06-07T15:35:06.000Z</time>
      </trkpt>
      <trkpt lat="43.920440" lon="5.055765">
        <ele>112.143933</ele>
        <time>2017-06-07T15:35:10.000Z</time>
      </trkpt>
      <trkpt lat="43.920350" lon="5.055815">
        <ele>112.261413</ele>
        <time>2017-06-07T15:35:15.000Z</time>
      </trkpt>
      <trkpt lat="43.920258" lon="5.055841">
        <ele>112.375195</ele>
        <time>2017-06-07T15:35:20.000Z</time>
      </trkpt>
      <trkpt lat="43.920160" lon="5.055816">
        <ele>112.495950</ele>
        <time>2017-06-07T15:35:24.000Z</time>
      </trkpt>
      <trkpt lat="43.920055" lon="5.055793">
        <ele>112.624774</ele>
        <time>2017-06-07T15:35:28.000Z</time>
      </trkpt>
      <trkpt lat="43.919937" lon="5.055761">
        <ele>112.770481</ele>
        <time>2017-06-07T15:35:32.000Z</time>
      </trkpt>
      <trkpt lat="43.919830" lon="5.055738">
        <ele>112.901700</ele>
        <time>2017-06-07T15:35:35.000Z</time>
      </trkpt>
      <trkpt lat="43.919704" lon="5.055712">
        <ele>113.056077</ele>
        <time>2017-06-07T15:35:38.000Z</time>
      </trkpt>
      <trkpt lat="43.919598" lon="5.055692">
        <ele>113.185720</ele>
        <time>2017-06-07T15:35:41.000Z</time>
      </trkpt>
      <trkpt lat="43.919500" lon="5.055665">
        <ele>113.306802</ele>
        <time>2017-06-07T15:35:44.000Z</time>
      </trkpt>
      <trkpt lat="43.919407" lon="5.055637">
        <ele>113.422129</ele>
        <time>2017-06-07T15:35:47.000Z</time>
      </trkpt>
      <trkpt lat="43.919342" lon="5.055535">
        <ele>113.533166</ele>
        <time>2017-06-07T15:35:51.000Z</time>
      </trkpt>
      <trkpt lat="43.919247" lon="5.055464">
        <ele>113.533166</ele>
        <time>2017-06-07T15:35:55.000Z</time>
      </trkpt>
      <trkpt lat="43.919132" lon="5.055512">
        <ele>113.533166</ele>
        <time>2017-06-07T15:35:59.000Z</time>
      </trkpt>
      <trkpt lat="43.919070" lon="5.055658">
        <ele>113.533166</ele>
        <time>2017-06-07T15:36:02.000Z</time>
      </trkpt>
      <trkpt lat="43.918995" lon="5.055788">
        <ele>113.533166</ele>
        <time>2017-06-07T15:36:05.000Z</time>
      </trkpt>
      <trkpt lat="43.918877" lon="5.055831">
        <ele>113.533166</ele>
        <time>2017-06-07T15:36:08.000Z</time>
      </trkpt>
      <trkpt lat="43.918762" lon="5.055870">
        <ele>113.533166</ele>
        <time>2017-06-07T15:36:11.000Z</time>
      </trkpt>
      <trkpt lat="43.918633" lon="5.055841">
        <ele>113.533166</ele>
        <time>2017-06-07T15:36:14.000Z</time>
      </trkpt>
      <trkpt lat="43.918533" lon="5.055825">
        <ele>113.533166</ele>
        <time>2017-06-07T15:36:16.000Z</time>
      </trkpt>
      <trkpt lat="43.918434" lon="5.055809">
        <ele>113.533166</ele>
        <time>2017-06-07T15:36:18.000Z</time>
      </trkpt>
      <trkpt lat="43.918310" lon="5.055809">
        <ele>113.533166</ele>
        <time>2017-06-07T15:36:21.000Z</time>
      </trkpt>
      <trkpt lat="43.918190" lon="5.055808">
        <ele>113.533166</ele>
        <time>2017-06-07T15:36:24.000Z</time>
      </trkpt>
      <trkpt lat="43.918068" lon="5.055808">
        <ele>113.533166</ele>
        <time>2017-06-07T15:36:27.000Z</time>
      </trkpt>
      <trkpt lat="43.917940" lon="5.055801">
        <ele>113.533166</ele>
        <time>2017-06-07T15:36:30.000Z</time>
      </trkpt>
      <trkpt lat="43.917843" lon="5.055799">
        <ele>113.533166</ele>
        <time>2017-06-07T15:36:32.000Z</time>
      </trkpt>
      <trkpt lat="43.917750" lon="5.055791">
        <ele>113.533166</ele>
        <time>2017-06-07T15:36:34.000Z</time>
      </trkpt>
      <trkpt lat="43.917656" lon="5.055768">
        <ele>113.533166</ele>
        <time>2017-06-07T15:36:36.000Z</time>
      </trkpt>
      <trkpt lat="43.917560" lon="5.055708">
        <ele>113.533166</ele>
        <time>2017-06-07T15:36:39.000Z</time>
      </trkpt>
      <trkpt lat="43.917503" lon="5.055570">
        <ele>113.533166</ele>
        <time>2017-06-07T15:36:43.000Z</time>
      </trkpt>
      <trkpt lat="43.917480" lon="5.055438">
        <ele>113.533166</ele>
        <time>2017-06-07T15:36:47.000Z</time>
      </trkpt>
      <trkpt lat="43.917496" lon="5.055287">
        <ele>113.533166</ele>
        <time>2017-06-07T15:36:51.000Z</time>
      </trkpt>
      <trkpt lat="43.917492" lon="5.055139">
        <ele>113.533166</ele>
        <time>2017-06-07T15:36:56.000Z</time>
      </trkpt>
      <trkpt lat="43.917590" lon="5.055179">
        <ele>113.533166</ele>
        <time>2017-06-07T15:37:16.000Z</time>
      </trkpt>
    </trkseg>
  </trk>
</gpx>